<?xml version="1.0" encoding="UTF-8" standalone="no" ?>
<gpx xmlns="http://www.topografix.com/GPX/1/1" xmlns:xsi="http://www.w3.org/2001/XMLSchema-instance" xsi:schemaLocation="http://www.topografix.com/GPX/1/1 http://www.topografix.com/GPX/1/1/gpx.xsd" version="1.1" creator="VisuGPX - https://www.visugpx.com">
  <metadata>
    <name>arta estivage</name>
    <desc><![CDATA[Aller retour arta estivage - arta plage Djibouti]]></desc>
  </metadata>
  <trk>
    <name><![CDATA[DEC-30-11 15:25:28]]></name>
    <trkseg>
      <trkpt lat="44.08387" lon="1.44902">
        <ele>91.94</ele>
        <time>2010-09-19T15:17:40Z</time>
      </trkpt>
      <trkpt lat="44.08387" lon="1.44902">
        <ele>89.54</ele>
        <time>2010-09-19T15:17:44Z</time>
      </trkpt>
      <trkpt lat="44.08387" lon="1.44902">
        <ele>91.46</ele>
        <time>2010-09-19T15:22:46Z</time>
      </trkpt>
      <trkpt lat="44.08387" lon="1.44902">
        <ele>90.5</ele>
        <time>2010-09-19T15:22:47Z</time>
      </trkpt>
      <trkpt lat="44.08387" lon="1.44902">
        <ele>90.5</ele>
        <time>2010-09-19T15:22:48Z</time>
      </trkpt>
      <trkpt lat="44.08387" lon="1.44902">
        <ele>91.94</ele>
        <time>2010-09-19T15:22:49Z</time>
      </trkpt>
      <trkpt lat="44.08393" lon="1.44932">
        <ele>91.46</ele>
        <time>2010-09-19T15:22:56Z</time>
      </trkpt>
      <trkpt lat="44.08393" lon="1.44932">
        <ele>91.94</ele>
        <time>2010-09-19T15:22:57Z</time>
      </trkpt>
      <trkpt lat="44.08393" lon="1.44932">
        <ele>99.15</ele>
        <time>2010-09-19T15:17:00Z</time>
      </trkpt>
      <trkpt lat="44.08393" lon="1.44932">
        <ele>92.9</ele>
        <time>2010-09-19T15:17:03Z</time>
      </trkpt>
      <trkpt lat="44.08393" lon="1.44932">
        <ele>91.46</ele>
        <time>2010-09-19T15:17:25Z</time>
      </trkpt>
      <trkpt lat="44.08393" lon="1.44932">
        <ele>93.87</ele>
        <time>2010-09-19T15:19:01Z</time>
      </trkpt>
      <trkpt lat="44.08393" lon="1.44932">
        <ele>93.39</ele>
        <time>2010-09-19T15:19:11Z</time>
      </trkpt>
      <trkpt lat="44.08392" lon="1.44905">
        <ele>92.9</ele>
        <time>2010-09-26T07:21:05Z</time>
      </trkpt>
      <trkpt lat="44.08379" lon="1.44924">
        <ele>93.39</ele>
        <time>2010-09-26T07:21:53Z</time>
      </trkpt>
      <trkpt lat="44.08379" lon="1.44924">
        <ele>90.5</ele>
        <time>2010-09-26T08:09:47Z</time>
      </trkpt>
      <trkpt lat="44.08379" lon="1.44924">
        <ele>91.94</ele>
        <time>2010-09-26T08:09:50Z</time>
      </trkpt>
      <trkpt lat="44.08385" lon="1.44888">
        <ele>92.42</ele>
        <time>2010-09-26T08:09:51Z</time>
      </trkpt>
      <trkpt lat="44.0838" lon="1.44897">
        <ele>93.39</ele>
        <time>2010-09-26T08:10:07Z</time>
      </trkpt>
      <trkpt lat="44.08378" lon="1.44902">
        <ele>96.27</ele>
        <time>2010-09-26T08:10:27Z</time>
      </trkpt>
      <trkpt lat="44.08377" lon="1.44901">
        <ele>97.23</ele>
        <time>2010-09-26T08:10:56Z</time>
      </trkpt>
      <trkpt lat="44.0838" lon="1.449">
        <ele>95.79</ele>
        <time>2010-09-26T08:14:13Z</time>
      </trkpt>
      <trkpt lat="44.08381" lon="1.449">
        <ele>95.79</ele>
        <time>2010-09-26T08:15:49Z</time>
      </trkpt>
      <trkpt lat="44.08378" lon="1.44904">
        <ele>95.79</ele>
        <time>2010-09-26T08:16:07Z</time>
      </trkpt>
      <trkpt lat="44.08374" lon="1.44908">
        <ele>95.79</ele>
        <time>2010-09-26T08:16:12Z</time>
      </trkpt>
      <trkpt lat="44.08348" lon="1.44924">
        <ele>95.31</ele>
        <time>2010-09-26T08:16:26Z</time>
      </trkpt>
      <trkpt lat="44.08314" lon="1.44946">
        <ele>95.31</ele>
        <time>2010-09-26T08:16:41Z</time>
      </trkpt>
      <trkpt lat="44.08288" lon="1.44963">
        <ele>95.31</ele>
        <time>2010-09-26T08:16:53Z</time>
      </trkpt>
      <trkpt lat="44.08284" lon="1.4497">
        <ele>95.31</ele>
        <time>2010-09-26T08:16:57Z</time>
      </trkpt>
      <trkpt lat="44.08287" lon="1.44987">
        <ele>95.31</ele>
        <time>2010-09-26T08:17:04Z</time>
      </trkpt>
      <trkpt lat="44.08304" lon="1.45031">
        <ele>95.31</ele>
        <time>2010-09-26T08:17:17Z</time>
      </trkpt>
      <trkpt lat="44.08326" lon="1.45077">
        <ele>95.31</ele>
        <time>2010-09-26T08:17:30Z</time>
      </trkpt>
      <trkpt lat="44.08334" lon="1.45091">
        <ele>95.79</ele>
        <time>2010-09-26T08:17:40Z</time>
      </trkpt>
      <trkpt lat="44.08357" lon="1.45128">
        <ele>95.31</ele>
        <time>2010-09-26T08:17:53Z</time>
      </trkpt>
      <trkpt lat="44.08392" lon="1.45181">
        <ele>95.31</ele>
        <time>2010-09-26T08:18:08Z</time>
      </trkpt>
      <trkpt lat="44.08404" lon="1.45206">
        <ele>95.31</ele>
        <time>2010-09-26T08:18:15Z</time>
      </trkpt>
      <trkpt lat="44.08371" lon="1.45235">
        <ele>95.31</ele>
        <time>2010-09-26T08:18:27Z</time>
      </trkpt>
      <trkpt lat="44.08322" lon="1.4527">
        <ele>95.31</ele>
        <time>2010-09-26T08:18:42Z</time>
      </trkpt>
      <trkpt lat="44.08305" lon="1.45328">
        <ele>94.83</ele>
        <time>2010-09-26T08:18:55Z</time>
      </trkpt>
      <trkpt lat="44.08283" lon="1.45406">
        <ele>95.31</ele>
        <time>2010-09-26T08:19:11Z</time>
      </trkpt>
      <trkpt lat="44.08278" lon="1.45422">
        <ele>95.31</ele>
        <time>2010-09-26T08:19:14Z</time>
      </trkpt>
      <trkpt lat="44.08277" lon="1.45427">
        <ele>95.31</ele>
        <time>2010-09-26T08:19:15Z</time>
      </trkpt>
      <trkpt lat="44.08276" lon="1.45432">
        <ele>95.31</ele>
        <time>2010-09-26T08:19:16Z</time>
      </trkpt>
      <trkpt lat="44.08259" lon="1.45518">
        <ele>95.31</ele>
        <time>2010-09-26T08:19:33Z</time>
      </trkpt>
      <trkpt lat="44.08257" lon="1.45529">
        <ele>95.31</ele>
        <time>2010-09-26T08:19:35Z</time>
      </trkpt>
      <trkpt lat="44.08256" lon="1.45534">
        <ele>95.31</ele>
        <time>2010-09-26T08:19:36Z</time>
      </trkpt>
      <trkpt lat="44.08244" lon="1.45626">
        <ele>95.79</ele>
        <time>2010-09-26T08:19:52Z</time>
      </trkpt>
      <trkpt lat="44.08244" lon="1.45664">
        <ele>92.42</ele>
        <time>2010-09-26T08:19:58Z</time>
      </trkpt>
      <trkpt lat="44.08245" lon="1.45676">
        <ele>94.35</ele>
        <time>2010-09-26T08:20:00Z</time>
      </trkpt>
      <trkpt lat="44.08245" lon="1.45683">
        <ele>95.31</ele>
        <time>2010-09-26T08:20:01Z</time>
      </trkpt>
      <trkpt lat="44.08245" lon="1.4569">
        <ele>95.31</ele>
        <time>2010-09-26T08:20:02Z</time>
      </trkpt>
      <trkpt lat="44.08247" lon="1.45732">
        <ele>95.31</ele>
        <time>2010-09-26T08:20:08Z</time>
      </trkpt>
      <trkpt lat="44.08248" lon="1.45845">
        <ele>94.35</ele>
        <time>2010-09-26T08:20:24Z</time>
      </trkpt>
      <trkpt lat="44.08247" lon="1.4589">
        <ele>94.83</ele>
        <time>2010-09-26T08:20:30Z</time>
      </trkpt>
      <trkpt lat="44.08246" lon="1.45954">
        <ele>94.35</ele>
        <time>2010-09-26T08:20:39Z</time>
      </trkpt>
      <trkpt lat="44.08237" lon="1.4604">
        <ele>94.35</ele>
        <time>2010-09-26T08:20:52Z</time>
      </trkpt>
      <trkpt lat="44.08236" lon="1.46047">
        <ele>94.35</ele>
        <time>2010-09-26T08:20:53Z</time>
      </trkpt>
      <trkpt lat="44.08211" lon="1.46135">
        <ele>95.31</ele>
        <time>2010-09-26T08:21:08Z</time>
      </trkpt>
      <trkpt lat="44.08209" lon="1.46141">
        <ele>94.83</ele>
        <time>2010-09-26T08:21:09Z</time>
      </trkpt>
      <trkpt lat="44.08174" lon="1.46234">
        <ele>95.79</ele>
        <time>2010-09-26T08:21:25Z</time>
      </trkpt>
      <trkpt lat="44.08141" lon="1.46309">
        <ele>97.23</ele>
        <time>2010-09-26T08:21:38Z</time>
      </trkpt>
      <trkpt lat="44.08139" lon="1.46315">
        <ele>96.27</ele>
        <time>2010-09-26T08:21:39Z</time>
      </trkpt>
      <trkpt lat="44.08134" lon="1.46327">
        <ele>95.31</ele>
        <time>2010-09-26T08:21:41Z</time>
      </trkpt>
      <trkpt lat="44.08127" lon="1.46344">
        <ele>95.31</ele>
        <time>2010-09-26T08:21:44Z</time>
      </trkpt>
      <trkpt lat="44.08093" lon="1.46456">
        <ele>95.31</ele>
        <time>2010-09-26T08:22:02Z</time>
      </trkpt>
      <trkpt lat="44.08074" lon="1.4651">
        <ele>95.31</ele>
        <time>2010-09-26T08:22:11Z</time>
      </trkpt>
      <trkpt lat="44.08026" lon="1.46603">
        <ele>95.79</ele>
        <time>2010-09-26T08:22:28Z</time>
      </trkpt>
      <trkpt lat="44.07997" lon="1.46649">
        <ele>91.94</ele>
        <time>2010-09-26T08:22:37Z</time>
      </trkpt>
      <trkpt lat="44.07993" lon="1.46654">
        <ele>95.79</ele>
        <time>2010-09-26T08:22:38Z</time>
      </trkpt>
      <trkpt lat="44.07936" lon="1.46734">
        <ele>95.79</ele>
        <time>2010-09-26T08:22:54Z</time>
      </trkpt>
      <trkpt lat="44.07869" lon="1.46821">
        <ele>95.31</ele>
        <time>2010-09-26T08:23:12Z</time>
      </trkpt>
      <trkpt lat="44.07852" lon="1.46868">
        <ele>95.79</ele>
        <time>2010-09-26T08:23:19Z</time>
      </trkpt>
      <trkpt lat="44.0785" lon="1.46874">
        <ele>95.79</ele>
        <time>2010-09-26T08:23:20Z</time>
      </trkpt>
      <trkpt lat="44.07848" lon="1.46881">
        <ele>95.31</ele>
        <time>2010-09-26T08:23:21Z</time>
      </trkpt>
      <trkpt lat="44.07846" lon="1.46888">
        <ele>95.31</ele>
        <time>2010-09-26T08:23:22Z</time>
      </trkpt>
      <trkpt lat="44.07844" lon="1.46894">
        <ele>95.79</ele>
        <time>2010-09-26T08:23:23Z</time>
      </trkpt>
      <trkpt lat="44.0781" lon="1.47014">
        <ele>95.79</ele>
        <time>2010-09-26T08:23:41Z</time>
      </trkpt>
      <trkpt lat="44.07797" lon="1.47058">
        <ele>95.79</ele>
        <time>2010-09-26T08:23:48Z</time>
      </trkpt>
      <trkpt lat="44.07795" lon="1.47065">
        <ele>95.79</ele>
        <time>2010-09-26T08:23:49Z</time>
      </trkpt>
      <trkpt lat="44.07785" lon="1.47116">
        <ele>95.79</ele>
        <time>2010-09-26T08:23:57Z</time>
      </trkpt>
      <trkpt lat="44.07785" lon="1.47123">
        <ele>95.79</ele>
        <time>2010-09-26T08:23:58Z</time>
      </trkpt>
      <trkpt lat="44.07785" lon="1.4713">
        <ele>95.79</ele>
        <time>2010-09-26T08:23:59Z</time>
      </trkpt>
      <trkpt lat="44.07786" lon="1.47137">
        <ele>95.79</ele>
        <time>2010-09-26T08:24:00Z</time>
      </trkpt>
      <trkpt lat="44.07788" lon="1.47143">
        <ele>95.79</ele>
        <time>2010-09-26T08:24:01Z</time>
      </trkpt>
      <trkpt lat="44.07821" lon="1.47258">
        <ele>95.79</ele>
        <time>2010-09-26T08:24:19Z</time>
      </trkpt>
      <trkpt lat="44.07817" lon="1.47354">
        <ele>95.79</ele>
        <time>2010-09-26T08:24:33Z</time>
      </trkpt>
      <trkpt lat="44.07804" lon="1.47438">
        <ele>95.79</ele>
        <time>2010-09-26T08:24:45Z</time>
      </trkpt>
      <trkpt lat="44.07803" lon="1.47445">
        <ele>95.79</ele>
        <time>2010-09-26T08:24:46Z</time>
      </trkpt>
      <trkpt lat="44.07782" lon="1.47558">
        <ele>95.31</ele>
        <time>2010-09-26T08:25:03Z</time>
      </trkpt>
      <trkpt lat="44.07782" lon="1.47565">
        <ele>95.79</ele>
        <time>2010-09-26T08:25:04Z</time>
      </trkpt>
      <trkpt lat="44.07783" lon="1.47571">
        <ele>95.79</ele>
        <time>2010-09-26T08:25:05Z</time>
      </trkpt>
      <trkpt lat="44.07784" lon="1.47578">
        <ele>95.31</ele>
        <time>2010-09-26T08:25:06Z</time>
      </trkpt>
      <trkpt lat="44.07787" lon="1.47583">
        <ele>95.31</ele>
        <time>2010-09-26T08:25:07Z</time>
      </trkpt>
      <trkpt lat="44.0779" lon="1.47589">
        <ele>95.31</ele>
        <time>2010-09-26T08:25:08Z</time>
      </trkpt>
      <trkpt lat="44.07794" lon="1.47593">
        <ele>95.31</ele>
        <time>2010-09-26T08:25:09Z</time>
      </trkpt>
      <trkpt lat="44.07798" lon="1.47597">
        <ele>95.79</ele>
        <time>2010-09-26T08:25:10Z</time>
      </trkpt>
      <trkpt lat="44.07802" lon="1.476">
        <ele>95.31</ele>
        <time>2010-09-26T08:25:11Z</time>
      </trkpt>
      <trkpt lat="44.07807" lon="1.47603">
        <ele>95.31</ele>
        <time>2010-09-26T08:25:12Z</time>
      </trkpt>
      <trkpt lat="44.07811" lon="1.47606">
        <ele>95.31</ele>
        <time>2010-09-26T08:25:13Z</time>
      </trkpt>
      <trkpt lat="44.07816" lon="1.47609">
        <ele>95.31</ele>
        <time>2010-09-26T08:25:14Z</time>
      </trkpt>
      <trkpt lat="44.07846" lon="1.47628">
        <ele>95.31</ele>
        <time>2010-09-26T08:25:21Z</time>
      </trkpt>
      <trkpt lat="44.07865" lon="1.47634">
        <ele>95.31</ele>
        <time>2010-09-26T08:25:25Z</time>
      </trkpt>
      <trkpt lat="44.0787" lon="1.47634">
        <ele>95.79</ele>
        <time>2010-09-26T08:25:26Z</time>
      </trkpt>
      <trkpt lat="44.07946" lon="1.47622">
        <ele>95.31</ele>
        <time>2010-09-26T08:25:41Z</time>
      </trkpt>
      <trkpt lat="44.07962" lon="1.47621">
        <ele>91.46</ele>
        <time>2010-09-26T08:25:44Z</time>
      </trkpt>
      <trkpt lat="44.07966" lon="1.47621">
        <ele>95.31</ele>
        <time>2010-09-26T08:25:45Z</time>
      </trkpt>
      <trkpt lat="44.08038" lon="1.47624">
        <ele>95.31</ele>
        <time>2010-09-26T08:25:59Z</time>
      </trkpt>
      <trkpt lat="44.08084" lon="1.47629">
        <ele>94.83</ele>
        <time>2010-09-26T08:26:08Z</time>
      </trkpt>
      <trkpt lat="44.08089" lon="1.47631">
        <ele>94.83</ele>
        <time>2010-09-26T08:26:09Z</time>
      </trkpt>
      <trkpt lat="44.08093" lon="1.47634">
        <ele>95.31</ele>
        <time>2010-09-26T08:26:10Z</time>
      </trkpt>
      <trkpt lat="44.08097" lon="1.47637">
        <ele>95.31</ele>
        <time>2010-09-26T08:26:11Z</time>
      </trkpt>
      <trkpt lat="44.08101" lon="1.47641">
        <ele>95.31</ele>
        <time>2010-09-26T08:26:12Z</time>
      </trkpt>
      <trkpt lat="44.08104" lon="1.47645">
        <ele>94.83</ele>
        <time>2010-09-26T08:26:13Z</time>
      </trkpt>
      <trkpt lat="44.08107" lon="1.4765">
        <ele>94.83</ele>
        <time>2010-09-26T08:26:14Z</time>
      </trkpt>
      <trkpt lat="44.0811" lon="1.47655">
        <ele>95.31</ele>
        <time>2010-09-26T08:26:15Z</time>
      </trkpt>
      <trkpt lat="44.08111" lon="1.4766">
        <ele>95.79</ele>
        <time>2010-09-26T08:26:16Z</time>
      </trkpt>
      <trkpt lat="44.08111" lon="1.47665">
        <ele>95.31</ele>
        <time>2010-09-26T08:26:17Z</time>
      </trkpt>
      <trkpt lat="44.0811" lon="1.47671">
        <ele>95.31</ele>
        <time>2010-09-26T08:26:18Z</time>
      </trkpt>
      <trkpt lat="44.08107" lon="1.47675">
        <ele>95.31</ele>
        <time>2010-09-26T08:26:19Z</time>
      </trkpt>
      <trkpt lat="44.08103" lon="1.47679">
        <ele>95.79</ele>
        <time>2010-09-26T08:26:20Z</time>
      </trkpt>
      <trkpt lat="44.08099" lon="1.47682">
        <ele>95.79</ele>
        <time>2010-09-26T08:26:21Z</time>
      </trkpt>
      <trkpt lat="44.08095" lon="1.47685">
        <ele>95.79</ele>
        <time>2010-09-26T08:26:22Z</time>
      </trkpt>
      <trkpt lat="44.08048" lon="1.47736">
        <ele>95.31</ele>
        <time>2010-09-26T08:26:34Z</time>
      </trkpt>
      <trkpt lat="44.07988" lon="1.47824">
        <ele>95.31</ele>
        <time>2010-09-26T08:26:51Z</time>
      </trkpt>
      <trkpt lat="44.07926" lon="1.4791">
        <ele>95.31</ele>
        <time>2010-09-26T08:27:08Z</time>
      </trkpt>
      <trkpt lat="44.07877" lon="1.47956">
        <ele>95.31</ele>
        <time>2010-09-26T08:27:19Z</time>
      </trkpt>
      <trkpt lat="44.07793" lon="1.47989">
        <ele>96.75</ele>
        <time>2010-09-26T08:27:37Z</time>
      </trkpt>
      <trkpt lat="44.07742" lon="1.48008">
        <ele>99.15</ele>
        <time>2010-09-26T08:27:50Z</time>
      </trkpt>
      <trkpt lat="44.07739" lon="1.48012">
        <ele>99.15</ele>
        <time>2010-09-26T08:27:51Z</time>
      </trkpt>
      <trkpt lat="44.07729" lon="1.48024">
        <ele>100.6</ele>
        <time>2010-09-26T08:27:54Z</time>
      </trkpt>
      <trkpt lat="44.07726" lon="1.48029">
        <ele>100.11</ele>
        <time>2010-09-26T08:27:55Z</time>
      </trkpt>
      <trkpt lat="44.07701" lon="1.48071">
        <ele>102.04</ele>
        <time>2010-09-26T08:28:04Z</time>
      </trkpt>
      <trkpt lat="44.07685" lon="1.48086">
        <ele>102.52</ele>
        <time>2010-09-26T08:28:08Z</time>
      </trkpt>
      <trkpt lat="44.07682" lon="1.4809">
        <ele>102.04</ele>
        <time>2010-09-26T08:28:09Z</time>
      </trkpt>
      <trkpt lat="44.07678" lon="1.48094">
        <ele>102.52</ele>
        <time>2010-09-26T08:28:10Z</time>
      </trkpt>
      <trkpt lat="44.07631" lon="1.48136">
        <ele>103</ele>
        <time>2010-09-26T08:28:22Z</time>
      </trkpt>
      <trkpt lat="44.07603" lon="1.48163">
        <ele>103</ele>
        <time>2010-09-26T08:28:29Z</time>
      </trkpt>
      <trkpt lat="44.07534" lon="1.48231">
        <ele>103.48</ele>
        <time>2010-09-26T08:28:46Z</time>
      </trkpt>
      <trkpt lat="44.0749" lon="1.48276">
        <ele>106.84</ele>
        <time>2010-09-26T08:28:57Z</time>
      </trkpt>
      <trkpt lat="44.07486" lon="1.4828">
        <ele>105.88</ele>
        <time>2010-09-26T08:28:58Z</time>
      </trkpt>
      <trkpt lat="44.07448" lon="1.48317">
        <ele>103.48</ele>
        <time>2010-09-26T08:29:07Z</time>
      </trkpt>
      <trkpt lat="44.07396" lon="1.48353">
        <ele>103.96</ele>
        <time>2010-09-26T08:29:18Z</time>
      </trkpt>
      <trkpt lat="44.0739" lon="1.48356">
        <ele>103.48</ele>
        <time>2010-09-26T08:29:19Z</time>
      </trkpt>
      <trkpt lat="44.07328" lon="1.48409">
        <ele>103.96</ele>
        <time>2010-09-26T08:29:33Z</time>
      </trkpt>
      <trkpt lat="44.07266" lon="1.48485">
        <ele>103.96</ele>
        <time>2010-09-26T08:29:49Z</time>
      </trkpt>
      <trkpt lat="44.07222" lon="1.48582">
        <ele>103.96</ele>
        <time>2010-09-26T08:30:04Z</time>
      </trkpt>
      <trkpt lat="44.07189" lon="1.48674">
        <ele>104.44</ele>
        <time>2010-09-26T08:30:18Z</time>
      </trkpt>
      <trkpt lat="44.07168" lon="1.48727">
        <ele>104.44</ele>
        <time>2010-09-26T08:30:26Z</time>
      </trkpt>
      <trkpt lat="44.07162" lon="1.48739">
        <ele>104.44</ele>
        <time>2010-09-26T08:30:28Z</time>
      </trkpt>
      <trkpt lat="44.07152" lon="1.48757">
        <ele>104.44</ele>
        <time>2010-09-26T08:30:31Z</time>
      </trkpt>
      <trkpt lat="44.07102" lon="1.48808">
        <ele>104.92</ele>
        <time>2010-09-26T08:30:42Z</time>
      </trkpt>
      <trkpt lat="44.07027" lon="1.48877">
        <ele>104.44</ele>
        <time>2010-09-26T08:30:58Z</time>
      </trkpt>
      <trkpt lat="44.06956" lon="1.48945">
        <ele>104.92</ele>
        <time>2010-09-26T08:31:13Z</time>
      </trkpt>
      <trkpt lat="44.06878" lon="1.4902">
        <ele>104.92</ele>
        <time>2010-09-26T08:31:30Z</time>
      </trkpt>
      <trkpt lat="44.06809" lon="1.49088">
        <ele>105.4</ele>
        <time>2010-09-26T08:31:45Z</time>
      </trkpt>
      <trkpt lat="44.06762" lon="1.49144">
        <ele>106.36</ele>
        <time>2010-09-26T08:31:56Z</time>
      </trkpt>
      <trkpt lat="44.06698" lon="1.49221">
        <ele>105.88</ele>
        <time>2010-09-26T08:32:11Z</time>
      </trkpt>
      <trkpt lat="44.06657" lon="1.49271">
        <ele>106.36</ele>
        <time>2010-09-26T08:32:24Z</time>
      </trkpt>
      <trkpt lat="44.06652" lon="1.49278">
        <ele>105.88</ele>
        <time>2010-09-26T08:32:26Z</time>
      </trkpt>
      <trkpt lat="44.06649" lon="1.49281">
        <ele>105.88</ele>
        <time>2010-09-26T08:32:27Z</time>
      </trkpt>
      <trkpt lat="44.06645" lon="1.49285">
        <ele>105.88</ele>
        <time>2010-09-26T08:32:28Z</time>
      </trkpt>
      <trkpt lat="44.06563" lon="1.49359">
        <ele>105.88</ele>
        <time>2010-09-26T08:32:47Z</time>
      </trkpt>
      <trkpt lat="44.06506" lon="1.49413">
        <ele>105.4</ele>
        <time>2010-09-26T08:33:00Z</time>
      </trkpt>
      <trkpt lat="44.06501" lon="1.49417">
        <ele>106.36</ele>
        <time>2010-09-26T08:33:01Z</time>
      </trkpt>
      <trkpt lat="44.06416" lon="1.49496">
        <ele>106.36</ele>
        <time>2010-09-26T08:33:20Z</time>
      </trkpt>
      <trkpt lat="44.06341" lon="1.49562">
        <ele>107.32</ele>
        <time>2010-09-26T08:33:37Z</time>
      </trkpt>
      <trkpt lat="44.06321" lon="1.4957">
        <ele>108.29</ele>
        <time>2010-09-26T08:33:45Z</time>
      </trkpt>
      <trkpt lat="44.06319" lon="1.49573">
        <ele>108.29</ele>
        <time>2010-09-26T08:33:46Z</time>
      </trkpt>
      <trkpt lat="44.06318" lon="1.49576">
        <ele>108.29</ele>
        <time>2010-09-26T08:33:47Z</time>
      </trkpt>
      <trkpt lat="44.06304" lon="1.49595">
        <ele>108.29</ele>
        <time>2010-09-26T08:33:52Z</time>
      </trkpt>
      <trkpt lat="44.063" lon="1.49598">
        <ele>107.81</ele>
        <time>2010-09-26T08:33:53Z</time>
      </trkpt>
      <trkpt lat="44.06232" lon="1.49657">
        <ele>107.81</ele>
        <time>2010-09-26T08:34:09Z</time>
      </trkpt>
      <trkpt lat="44.06146" lon="1.49733">
        <ele>108.29</ele>
        <time>2010-09-26T08:34:27Z</time>
      </trkpt>
      <trkpt lat="44.0605" lon="1.49817">
        <ele>108.29</ele>
        <time>2010-09-26T08:34:46Z</time>
      </trkpt>
      <trkpt lat="44.06009" lon="1.49847">
        <ele>108.29</ele>
        <time>2010-09-26T08:34:57Z</time>
      </trkpt>
      <trkpt lat="44.05955" lon="1.49893">
        <ele>109.25</ele>
        <time>2010-09-26T08:35:10Z</time>
      </trkpt>
      <trkpt lat="44.05879" lon="1.49962">
        <ele>109.73</ele>
        <time>2010-09-26T08:35:27Z</time>
      </trkpt>
      <trkpt lat="44.05862" lon="1.49978">
        <ele>109.73</ele>
        <time>2010-09-26T08:35:31Z</time>
      </trkpt>
      <trkpt lat="44.05801" lon="1.50035">
        <ele>110.21</ele>
        <time>2010-09-26T08:35:44Z</time>
      </trkpt>
      <trkpt lat="44.05718" lon="1.50111">
        <ele>111.17</ele>
        <time>2010-09-26T08:36:01Z</time>
      </trkpt>
      <trkpt lat="44.05631" lon="1.50208">
        <ele>111.65</ele>
        <time>2010-09-26T08:36:20Z</time>
      </trkpt>
      <trkpt lat="44.05545" lon="1.50306">
        <ele>112.13</ele>
        <time>2010-09-26T08:36:39Z</time>
      </trkpt>
      <trkpt lat="44.05518" lon="1.50338">
        <ele>112.13</ele>
        <time>2010-09-26T08:36:49Z</time>
      </trkpt>
      <trkpt lat="44.05502" lon="1.50361">
        <ele>112.13</ele>
        <time>2010-09-26T08:36:55Z</time>
      </trkpt>
      <trkpt lat="44.05495" lon="1.5037">
        <ele>112.61</ele>
        <time>2010-09-26T08:36:57Z</time>
      </trkpt>
      <trkpt lat="44.05437" lon="1.50455">
        <ele>112.61</ele>
        <time>2010-09-26T08:37:13Z</time>
      </trkpt>
      <trkpt lat="44.05363" lon="1.50572">
        <ele>113.09</ele>
        <time>2010-09-26T08:37:33Z</time>
      </trkpt>
      <trkpt lat="44.05326" lon="1.50634">
        <ele>113.09</ele>
        <time>2010-09-26T08:37:43Z</time>
      </trkpt>
      <trkpt lat="44.05262" lon="1.50707">
        <ele>114.05</ele>
        <time>2010-09-26T08:37:57Z</time>
      </trkpt>
      <trkpt lat="44.05195" lon="1.50756">
        <ele>114.53</ele>
        <time>2010-09-26T08:38:11Z</time>
      </trkpt>
      <trkpt lat="44.05186" lon="1.50763">
        <ele>114.05</ele>
        <time>2010-09-26T08:38:13Z</time>
      </trkpt>
      <trkpt lat="44.05181" lon="1.50766">
        <ele>114.05</ele>
        <time>2010-09-26T08:38:14Z</time>
      </trkpt>
      <trkpt lat="44.05177" lon="1.50769">
        <ele>114.05</ele>
        <time>2010-09-26T08:38:15Z</time>
      </trkpt>
      <trkpt lat="44.05172" lon="1.50772">
        <ele>114.53</ele>
        <time>2010-09-26T08:38:16Z</time>
      </trkpt>
      <trkpt lat="44.05167" lon="1.50775">
        <ele>114.53</ele>
        <time>2010-09-26T08:38:17Z</time>
      </trkpt>
      <trkpt lat="44.05062" lon="1.50854">
        <ele>115.01</ele>
        <time>2010-09-26T08:38:36Z</time>
      </trkpt>
      <trkpt lat="44.04975" lon="1.50937">
        <ele>115.98</ele>
        <time>2010-09-26T08:38:54Z</time>
      </trkpt>
      <trkpt lat="44.04883" lon="1.51021">
        <ele>116.46</ele>
        <time>2010-09-26T08:39:12Z</time>
      </trkpt>
      <trkpt lat="44.04789" lon="1.51106">
        <ele>117.42</ele>
        <time>2010-09-26T08:39:31Z</time>
      </trkpt>
      <trkpt lat="44.04715" lon="1.51168">
        <ele>118.38</ele>
        <time>2010-09-26T08:39:45Z</time>
      </trkpt>
      <trkpt lat="44.04623" lon="1.5125">
        <ele>119.82</ele>
        <time>2010-09-26T08:40:03Z</time>
      </trkpt>
      <trkpt lat="44.04564" lon="1.513">
        <ele>120.3</ele>
        <time>2010-09-26T08:40:16Z</time>
      </trkpt>
      <trkpt lat="44.04547" lon="1.51314">
        <ele>120.78</ele>
        <time>2010-09-26T08:40:20Z</time>
      </trkpt>
      <trkpt lat="44.04543" lon="1.51317">
        <ele>120.78</ele>
        <time>2010-09-26T08:40:21Z</time>
      </trkpt>
      <trkpt lat="44.04539" lon="1.51321">
        <ele>121.26</ele>
        <time>2010-09-26T08:40:22Z</time>
      </trkpt>
      <trkpt lat="44.04535" lon="1.51324">
        <ele>121.74</ele>
        <time>2010-09-26T08:40:23Z</time>
      </trkpt>
      <trkpt lat="44.04531" lon="1.51328">
        <ele>121.74</ele>
        <time>2010-09-26T08:40:24Z</time>
      </trkpt>
      <trkpt lat="44.0452" lon="1.51338">
        <ele>121.74</ele>
        <time>2010-09-26T08:40:27Z</time>
      </trkpt>
      <trkpt lat="44.04516" lon="1.51342">
        <ele>122.22</ele>
        <time>2010-09-26T08:40:28Z</time>
      </trkpt>
      <trkpt lat="44.04468" lon="1.51387">
        <ele>125.59</ele>
        <time>2010-09-26T08:40:43Z</time>
      </trkpt>
      <trkpt lat="44.04438" lon="1.51418">
        <ele>128.47</ele>
        <time>2010-09-26T08:40:54Z</time>
      </trkpt>
      <trkpt lat="44.04405" lon="1.5145">
        <ele>131.36</ele>
        <time>2010-09-26T08:41:06Z</time>
      </trkpt>
      <trkpt lat="44.04376" lon="1.5149">
        <ele>135.2</ele>
        <time>2010-09-26T08:41:18Z</time>
      </trkpt>
      <trkpt lat="44.04349" lon="1.51525">
        <ele>137.61</ele>
        <time>2010-09-26T08:41:29Z</time>
      </trkpt>
      <trkpt lat="44.04318" lon="1.5156">
        <ele>140.97</ele>
        <time>2010-09-26T08:41:40Z</time>
      </trkpt>
      <trkpt lat="44.04283" lon="1.51605">
        <ele>141.93</ele>
        <time>2010-09-26T08:41:54Z</time>
      </trkpt>
      <trkpt lat="44.04262" lon="1.51638">
        <ele>142.89</ele>
        <time>2010-09-26T08:42:02Z</time>
      </trkpt>
      <trkpt lat="44.04224" lon="1.51702">
        <ele>145.3</ele>
        <time>2010-09-26T08:42:17Z</time>
      </trkpt>
      <trkpt lat="44.0417" lon="1.51803">
        <ele>146.74</ele>
        <time>2010-09-26T08:42:38Z</time>
      </trkpt>
      <trkpt lat="44.0411" lon="1.51892">
        <ele>148.18</ele>
        <time>2010-09-26T08:42:57Z</time>
      </trkpt>
      <trkpt lat="44.04045" lon="1.51988">
        <ele>150.1</ele>
        <time>2010-09-26T08:43:16Z</time>
      </trkpt>
      <trkpt lat="44.03988" lon="1.52079">
        <ele>151.06</ele>
        <time>2010-09-26T08:43:33Z</time>
      </trkpt>
      <trkpt lat="44.03945" lon="1.52149">
        <ele>154.43</ele>
        <time>2010-09-26T08:43:47Z</time>
      </trkpt>
      <trkpt lat="44.03921" lon="1.52192">
        <ele>157.79</ele>
        <time>2010-09-26T08:43:58Z</time>
      </trkpt>
      <trkpt lat="44.03896" lon="1.52234">
        <ele>160.68</ele>
        <time>2010-09-26T08:44:09Z</time>
      </trkpt>
      <trkpt lat="44.03865" lon="1.52274">
        <ele>164.04</ele>
        <time>2010-09-26T08:44:20Z</time>
      </trkpt>
      <trkpt lat="44.03832" lon="1.52305">
        <ele>165</ele>
        <time>2010-09-26T08:44:33Z</time>
      </trkpt>
      <trkpt lat="44.03773" lon="1.52353">
        <ele>165.96</ele>
        <time>2010-09-26T08:44:50Z</time>
      </trkpt>
      <trkpt lat="44.03741" lon="1.52374">
        <ele>166.45</ele>
        <time>2010-09-26T08:44:58Z</time>
      </trkpt>
      <trkpt lat="44.03679" lon="1.52417">
        <ele>167.89</ele>
        <time>2010-09-26T08:45:13Z</time>
      </trkpt>
      <trkpt lat="44.03671" lon="1.52424">
        <ele>167.41</ele>
        <time>2010-09-26T08:45:15Z</time>
      </trkpt>
      <trkpt lat="44.03664" lon="1.52432">
        <ele>167.89</ele>
        <time>2010-09-26T08:45:17Z</time>
      </trkpt>
      <trkpt lat="44.0365" lon="1.52452">
        <ele>167.89</ele>
        <time>2010-09-26T08:45:21Z</time>
      </trkpt>
      <trkpt lat="44.03632" lon="1.52489">
        <ele>168.37</ele>
        <time>2010-09-26T08:45:27Z</time>
      </trkpt>
      <trkpt lat="44.03628" lon="1.52495">
        <ele>168.85</ele>
        <time>2010-09-26T08:45:28Z</time>
      </trkpt>
      <trkpt lat="44.03624" lon="1.52501">
        <ele>168.85</ele>
        <time>2010-09-26T08:45:29Z</time>
      </trkpt>
      <trkpt lat="44.0362" lon="1.52506">
        <ele>168.85</ele>
        <time>2010-09-26T08:45:30Z</time>
      </trkpt>
      <trkpt lat="44.03616" lon="1.52511">
        <ele>168.85</ele>
        <time>2010-09-26T08:45:31Z</time>
      </trkpt>
      <trkpt lat="44.03611" lon="1.52515">
        <ele>168.85</ele>
        <time>2010-09-26T08:45:32Z</time>
      </trkpt>
      <trkpt lat="44.03518" lon="1.52577">
        <ele>170.29</ele>
        <time>2010-09-26T08:45:51Z</time>
      </trkpt>
      <trkpt lat="44.03442" lon="1.52627">
        <ele>170.77</ele>
        <time>2010-09-26T08:46:06Z</time>
      </trkpt>
      <trkpt lat="44.03397" lon="1.52652">
        <ele>170.29</ele>
        <time>2010-09-26T08:46:14Z</time>
      </trkpt>
      <trkpt lat="44.03291" lon="1.52703">
        <ele>172.21</ele>
        <time>2010-09-26T08:46:33Z</time>
      </trkpt>
      <trkpt lat="44.03239" lon="1.52759">
        <ele>173.17</ele>
        <time>2010-09-26T08:46:47Z</time>
      </trkpt>
      <trkpt lat="44.03199" lon="1.52841">
        <ele>170.77</ele>
        <time>2010-09-26T08:47:00Z</time>
      </trkpt>
      <trkpt lat="44.03157" lon="1.5297">
        <ele>170.29</ele>
        <time>2010-09-26T08:47:16Z</time>
      </trkpt>
      <trkpt lat="44.03134" lon="1.53058">
        <ele>173.17</ele>
        <time>2010-09-26T08:47:29Z</time>
      </trkpt>
      <trkpt lat="44.0313" lon="1.5307">
        <ele>173.66</ele>
        <time>2010-09-26T08:47:31Z</time>
      </trkpt>
      <trkpt lat="44.03129" lon="1.53076">
        <ele>174.14</ele>
        <time>2010-09-26T08:47:32Z</time>
      </trkpt>
      <trkpt lat="44.03126" lon="1.53088">
        <ele>174.62</ele>
        <time>2010-09-26T08:47:34Z</time>
      </trkpt>
      <trkpt lat="44.03124" lon="1.53094">
        <ele>174.62</ele>
        <time>2010-09-26T08:47:35Z</time>
      </trkpt>
      <trkpt lat="44.03118" lon="1.53109">
        <ele>176.06</ele>
        <time>2010-09-26T08:47:38Z</time>
      </trkpt>
      <trkpt lat="44.03116" lon="1.53114">
        <ele>176.06</ele>
        <time>2010-09-26T08:47:39Z</time>
      </trkpt>
      <trkpt lat="44.03114" lon="1.53119">
        <ele>176.54</ele>
        <time>2010-09-26T08:47:40Z</time>
      </trkpt>
      <trkpt lat="44.03112" lon="1.53124">
        <ele>176.54</ele>
        <time>2010-09-26T08:47:41Z</time>
      </trkpt>
      <trkpt lat="44.0311" lon="1.5313">
        <ele>176.54</ele>
        <time>2010-09-26T08:47:42Z</time>
      </trkpt>
      <trkpt lat="44.03108" lon="1.53135">
        <ele>177.02</ele>
        <time>2010-09-26T08:47:43Z</time>
      </trkpt>
      <trkpt lat="44.03106" lon="1.5314">
        <ele>177.02</ele>
        <time>2010-09-26T08:47:44Z</time>
      </trkpt>
      <trkpt lat="44.03101" lon="1.53156">
        <ele>177.5</ele>
        <time>2010-09-26T08:47:47Z</time>
      </trkpt>
      <trkpt lat="44.031" lon="1.53162">
        <ele>177.02</ele>
        <time>2010-09-26T08:47:48Z</time>
      </trkpt>
      <trkpt lat="44.03088" lon="1.53203">
        <ele>177.02</ele>
        <time>2010-09-26T08:47:55Z</time>
      </trkpt>
      <trkpt lat="44.03087" lon="1.53209">
        <ele>177.5</ele>
        <time>2010-09-26T08:47:56Z</time>
      </trkpt>
      <trkpt lat="44.03085" lon="1.53215">
        <ele>177.5</ele>
        <time>2010-09-26T08:47:57Z</time>
      </trkpt>
      <trkpt lat="44.03063" lon="1.53288">
        <ele>179.42</ele>
        <time>2010-09-26T08:48:10Z</time>
      </trkpt>
      <trkpt lat="44.03061" lon="1.53293">
        <ele>178.94</ele>
        <time>2010-09-26T08:48:11Z</time>
      </trkpt>
      <trkpt lat="44.03059" lon="1.53297">
        <ele>179.42</ele>
        <time>2010-09-26T08:48:12Z</time>
      </trkpt>
      <trkpt lat="44.03032" lon="1.53323">
        <ele>181.83</ele>
        <time>2010-09-26T08:48:23Z</time>
      </trkpt>
      <trkpt lat="44.03004" lon="1.53322">
        <ele>183.75</ele>
        <time>2010-09-26T08:48:33Z</time>
      </trkpt>
      <trkpt lat="44.02968" lon="1.53322">
        <ele>184.23</ele>
        <time>2010-09-26T08:48:44Z</time>
      </trkpt>
      <trkpt lat="44.0295" lon="1.53359">
        <ele>185.19</ele>
        <time>2010-09-26T08:48:54Z</time>
      </trkpt>
      <trkpt lat="44.02939" lon="1.53407">
        <ele>186.63</ele>
        <time>2010-09-26T08:49:04Z</time>
      </trkpt>
      <trkpt lat="44.02915" lon="1.53446">
        <ele>185.19</ele>
        <time>2010-09-26T08:49:14Z</time>
      </trkpt>
      <trkpt lat="44.02876" lon="1.53473">
        <ele>185.19</ele>
        <time>2010-09-26T08:49:25Z</time>
      </trkpt>
      <trkpt lat="44.02843" lon="1.53492">
        <ele>186.63</ele>
        <time>2010-09-26T08:49:36Z</time>
      </trkpt>
      <trkpt lat="44.02839" lon="1.53495">
        <ele>187.11</ele>
        <time>2010-09-26T08:49:38Z</time>
      </trkpt>
      <trkpt lat="44.02815" lon="1.53507">
        <ele>189.04</ele>
        <time>2010-09-26T08:49:48Z</time>
      </trkpt>
      <trkpt lat="44.02787" lon="1.53517">
        <ele>191.44</ele>
        <time>2010-09-26T08:49:59Z</time>
      </trkpt>
      <trkpt lat="44.02748" lon="1.53518">
        <ele>192.4</ele>
        <time>2010-09-26T08:50:12Z</time>
      </trkpt>
      <trkpt lat="44.02712" lon="1.53543">
        <ele>190</ele>
        <time>2010-09-26T08:50:23Z</time>
      </trkpt>
      <trkpt lat="44.02708" lon="1.53546">
        <ele>190</ele>
        <time>2010-09-26T08:50:24Z</time>
      </trkpt>
      <trkpt lat="44.02697" lon="1.53557">
        <ele>189.52</ele>
        <time>2010-09-26T08:50:27Z</time>
      </trkpt>
      <trkpt lat="44.02693" lon="1.53561">
        <ele>189.52</ele>
        <time>2010-09-26T08:50:28Z</time>
      </trkpt>
      <trkpt lat="44.02684" lon="1.53571">
        <ele>188.56</ele>
        <time>2010-09-26T08:50:30Z</time>
      </trkpt>
      <trkpt lat="44.0268" lon="1.53577">
        <ele>188.56</ele>
        <time>2010-09-26T08:50:31Z</time>
      </trkpt>
      <trkpt lat="44.02673" lon="1.5361">
        <ele>187.11</ele>
        <time>2010-09-26T08:50:35Z</time>
      </trkpt>
      <trkpt lat="44.02653" lon="1.53711">
        <ele>182.79</ele>
        <time>2010-09-26T08:50:45Z</time>
      </trkpt>
      <trkpt lat="44.02612" lon="1.53794">
        <ele>180.38</ele>
        <time>2010-09-26T08:50:54Z</time>
      </trkpt>
      <trkpt lat="44.02601" lon="1.5381">
        <ele>180.38</ele>
        <time>2010-09-26T08:50:56Z</time>
      </trkpt>
      <trkpt lat="44.02504" lon="1.53915">
        <ele>178.94</ele>
        <time>2010-09-26T08:51:12Z</time>
      </trkpt>
      <trkpt lat="44.02429" lon="1.53989">
        <ele>181.35</ele>
        <time>2010-09-26T08:51:26Z</time>
      </trkpt>
      <trkpt lat="44.02361" lon="1.54077">
        <ele>179.9</ele>
        <time>2010-09-26T08:51:41Z</time>
      </trkpt>
      <trkpt lat="44.02309" lon="1.54174">
        <ele>179.42</ele>
        <time>2010-09-26T08:51:57Z</time>
      </trkpt>
      <trkpt lat="44.02306" lon="1.54179">
        <ele>179.9</ele>
        <time>2010-09-26T08:51:58Z</time>
      </trkpt>
      <trkpt lat="44.02295" lon="1.54191">
        <ele>181.35</ele>
        <time>2010-09-26T08:52:01Z</time>
      </trkpt>
      <trkpt lat="44.02292" lon="1.54195">
        <ele>180.87</ele>
        <time>2010-09-26T08:52:02Z</time>
      </trkpt>
      <trkpt lat="44.02288" lon="1.54198">
        <ele>181.35</ele>
        <time>2010-09-26T08:52:03Z</time>
      </trkpt>
      <trkpt lat="44.02285" lon="1.54201">
        <ele>181.35</ele>
        <time>2010-09-26T08:52:04Z</time>
      </trkpt>
      <trkpt lat="44.02281" lon="1.54204">
        <ele>181.83</ele>
        <time>2010-09-26T08:52:05Z</time>
      </trkpt>
      <trkpt lat="44.02278" lon="1.54207">
        <ele>182.79</ele>
        <time>2010-09-26T08:52:06Z</time>
      </trkpt>
      <trkpt lat="44.02275" lon="1.54209">
        <ele>182.31</ele>
        <time>2010-09-26T08:52:07Z</time>
      </trkpt>
      <trkpt lat="44.02245" lon="1.54226">
        <ele>185.67</ele>
        <time>2010-09-26T08:52:18Z</time>
      </trkpt>
      <trkpt lat="44.02212" lon="1.54239">
        <ele>188.08</ele>
        <time>2010-09-26T08:52:30Z</time>
      </trkpt>
      <trkpt lat="44.02187" lon="1.54263">
        <ele>191.44</ele>
        <time>2010-09-26T08:52:41Z</time>
      </trkpt>
      <trkpt lat="44.02172" lon="1.54302">
        <ele>194.32</ele>
        <time>2010-09-26T08:52:53Z</time>
      </trkpt>
      <trkpt lat="44.02155" lon="1.54358">
        <ele>197.21</ele>
        <time>2010-09-26T08:53:08Z</time>
      </trkpt>
      <trkpt lat="44.02154" lon="1.54381">
        <ele>198.65</ele>
        <time>2010-09-26T08:53:13Z</time>
      </trkpt>
      <trkpt lat="44.02166" lon="1.54428">
        <ele>197.69</ele>
        <time>2010-09-26T08:53:22Z</time>
      </trkpt>
      <trkpt lat="44.0218" lon="1.5446">
        <ele>197.69</ele>
        <time>2010-09-26T08:53:28Z</time>
      </trkpt>
      <trkpt lat="44.02182" lon="1.54465">
        <ele>198.17</ele>
        <time>2010-09-26T08:53:29Z</time>
      </trkpt>
      <trkpt lat="44.02185" lon="1.54471">
        <ele>198.17</ele>
        <time>2010-09-26T08:53:30Z</time>
      </trkpt>
      <trkpt lat="44.02215" lon="1.5453">
        <ele>198.17</ele>
        <time>2010-09-26T08:53:42Z</time>
      </trkpt>
      <trkpt lat="44.02221" lon="1.54545">
        <ele>198.65</ele>
        <time>2010-09-26T08:53:45Z</time>
      </trkpt>
      <trkpt lat="44.02223" lon="1.5455">
        <ele>199.13</ele>
        <time>2010-09-26T08:53:46Z</time>
      </trkpt>
      <trkpt lat="44.02223" lon="1.54556">
        <ele>199.13</ele>
        <time>2010-09-26T08:53:47Z</time>
      </trkpt>
      <trkpt lat="44.02224" lon="1.54562">
        <ele>199.61</ele>
        <time>2010-09-26T08:53:48Z</time>
      </trkpt>
      <trkpt lat="44.02224" lon="1.54567">
        <ele>199.61</ele>
        <time>2010-09-26T08:53:49Z</time>
      </trkpt>
      <trkpt lat="44.02223" lon="1.54573">
        <ele>199.61</ele>
        <time>2010-09-26T08:53:50Z</time>
      </trkpt>
      <trkpt lat="44.02222" lon="1.54579">
        <ele>199.61</ele>
        <time>2010-09-26T08:53:51Z</time>
      </trkpt>
      <trkpt lat="44.02221" lon="1.54584">
        <ele>200.09</ele>
        <time>2010-09-26T08:53:52Z</time>
      </trkpt>
      <trkpt lat="44.02219" lon="1.5459">
        <ele>200.09</ele>
        <time>2010-09-26T08:53:53Z</time>
      </trkpt>
      <trkpt lat="44.02217" lon="1.54595">
        <ele>200.09</ele>
        <time>2010-09-26T08:53:54Z</time>
      </trkpt>
      <trkpt lat="44.02171" lon="1.54671">
        <ele>199.13</ele>
        <time>2010-09-26T08:54:08Z</time>
      </trkpt>
      <trkpt lat="44.02132" lon="1.54726">
        <ele>198.65</ele>
        <time>2010-09-26T08:54:18Z</time>
      </trkpt>
      <trkpt lat="44.02123" lon="1.54736">
        <ele>199.13</ele>
        <time>2010-09-26T08:54:20Z</time>
      </trkpt>
      <trkpt lat="44.02118" lon="1.5474">
        <ele>199.13</ele>
        <time>2010-09-26T08:54:21Z</time>
      </trkpt>
      <trkpt lat="44.02113" lon="1.54744">
        <ele>199.13</ele>
        <time>2010-09-26T08:54:22Z</time>
      </trkpt>
      <trkpt lat="44.02108" lon="1.54747">
        <ele>198.65</ele>
        <time>2010-09-26T08:54:23Z</time>
      </trkpt>
      <trkpt lat="44.02103" lon="1.5475">
        <ele>198.65</ele>
        <time>2010-09-26T08:54:24Z</time>
      </trkpt>
      <trkpt lat="44.02098" lon="1.54752">
        <ele>198.17</ele>
        <time>2010-09-26T08:54:25Z</time>
      </trkpt>
      <trkpt lat="44.02092" lon="1.54754">
        <ele>198.65</ele>
        <time>2010-09-26T08:54:26Z</time>
      </trkpt>
      <trkpt lat="44.02063" lon="1.5477">
        <ele>198.65</ele>
        <time>2010-09-26T08:54:32Z</time>
      </trkpt>
      <trkpt lat="44.02005" lon="1.54825">
        <ele>199.13</ele>
        <time>2010-09-26T08:54:45Z</time>
      </trkpt>
      <trkpt lat="44.01945" lon="1.549">
        <ele>201.05</ele>
        <time>2010-09-26T08:55:01Z</time>
      </trkpt>
      <trkpt lat="44.01877" lon="1.54988">
        <ele>202.49</ele>
        <time>2010-09-26T08:55:19Z</time>
      </trkpt>
      <trkpt lat="44.01852" lon="1.55019">
        <ele>202.98</ele>
        <time>2010-09-26T08:55:25Z</time>
      </trkpt>
      <trkpt lat="44.0184" lon="1.55035">
        <ele>203.46</ele>
        <time>2010-09-26T08:55:28Z</time>
      </trkpt>
      <trkpt lat="44.01836" lon="1.5504">
        <ele>202.98</ele>
        <time>2010-09-26T08:55:29Z</time>
      </trkpt>
      <trkpt lat="44.01798" lon="1.55097">
        <ele>204.42</ele>
        <time>2010-09-26T08:55:40Z</time>
      </trkpt>
      <trkpt lat="44.01795" lon="1.55103">
        <ele>204.42</ele>
        <time>2010-09-26T08:55:41Z</time>
      </trkpt>
      <trkpt lat="44.0179" lon="1.55114">
        <ele>204.42</ele>
        <time>2010-09-26T08:55:43Z</time>
      </trkpt>
      <trkpt lat="44.01787" lon="1.5512">
        <ele>204.9</ele>
        <time>2010-09-26T08:55:44Z</time>
      </trkpt>
      <trkpt lat="44.01736" lon="1.55199">
        <ele>205.86</ele>
        <time>2010-09-26T08:56:00Z</time>
      </trkpt>
      <trkpt lat="44.01728" lon="1.55205">
        <ele>206.34</ele>
        <time>2010-09-26T08:56:02Z</time>
      </trkpt>
      <trkpt lat="44.01723" lon="1.55208">
        <ele>205.86</ele>
        <time>2010-09-26T08:56:03Z</time>
      </trkpt>
      <trkpt lat="44.01713" lon="1.55212">
        <ele>205.86</ele>
        <time>2010-09-26T08:56:05Z</time>
      </trkpt>
      <trkpt lat="44.01704" lon="1.55217">
        <ele>205.38</ele>
        <time>2010-09-26T08:56:07Z</time>
      </trkpt>
      <trkpt lat="44.017" lon="1.55218">
        <ele>205.86</ele>
        <time>2010-09-26T08:56:08Z</time>
      </trkpt>
      <trkpt lat="44.01696" lon="1.55219">
        <ele>205.86</ele>
        <time>2010-09-26T08:56:09Z</time>
      </trkpt>
      <trkpt lat="44.01688" lon="1.55219">
        <ele>204.9</ele>
        <time>2010-09-26T08:56:12Z</time>
      </trkpt>
      <trkpt lat="44.01685" lon="1.55218">
        <ele>205.38</ele>
        <time>2010-09-26T08:56:13Z</time>
      </trkpt>
      <trkpt lat="44.01683" lon="1.55216">
        <ele>204.9</ele>
        <time>2010-09-26T08:56:14Z</time>
      </trkpt>
      <trkpt lat="44.01681" lon="1.55212">
        <ele>204.9</ele>
        <time>2010-09-26T08:56:15Z</time>
      </trkpt>
      <trkpt lat="44.01678" lon="1.55209">
        <ele>204.42</ele>
        <time>2010-09-26T08:56:16Z</time>
      </trkpt>
      <trkpt lat="44.01641" lon="1.55147">
        <ele>201.05</ele>
        <time>2010-09-26T08:56:28Z</time>
      </trkpt>
      <trkpt lat="44.01614" lon="1.55101">
        <ele>199.61</ele>
        <time>2010-09-26T08:56:35Z</time>
      </trkpt>
      <trkpt lat="44.01603" lon="1.55084">
        <ele>199.61</ele>
        <time>2010-09-26T08:56:38Z</time>
      </trkpt>
      <trkpt lat="44.01601" lon="1.55079">
        <ele>199.13</ele>
        <time>2010-09-26T08:56:39Z</time>
      </trkpt>
      <trkpt lat="44.01597" lon="1.55075">
        <ele>198.65</ele>
        <time>2010-09-26T08:56:40Z</time>
      </trkpt>
      <trkpt lat="44.01593" lon="1.55074">
        <ele>199.13</ele>
        <time>2010-09-26T08:56:41Z</time>
      </trkpt>
      <trkpt lat="44.01589" lon="1.55075">
        <ele>198.65</ele>
        <time>2010-09-26T08:56:42Z</time>
      </trkpt>
      <trkpt lat="44.01586" lon="1.55077">
        <ele>199.13</ele>
        <time>2010-09-26T08:56:43Z</time>
      </trkpt>
      <trkpt lat="44.01583" lon="1.55079">
        <ele>199.13</ele>
        <time>2010-09-26T08:56:44Z</time>
      </trkpt>
      <trkpt lat="44.01538" lon="1.55095">
        <ele>200.09</ele>
        <time>2010-09-26T08:56:57Z</time>
      </trkpt>
      <trkpt lat="44.01517" lon="1.55087">
        <ele>199.13</ele>
        <time>2010-09-26T08:57:02Z</time>
      </trkpt>
      <trkpt lat="44.01513" lon="1.55086">
        <ele>198.65</ele>
        <time>2010-09-26T08:57:03Z</time>
      </trkpt>
      <trkpt lat="44.01504" lon="1.55084">
        <ele>199.13</ele>
        <time>2010-09-26T08:57:05Z</time>
      </trkpt>
      <trkpt lat="44.015" lon="1.55084">
        <ele>198.65</ele>
        <time>2010-09-26T08:57:06Z</time>
      </trkpt>
      <trkpt lat="44.01495" lon="1.55084">
        <ele>198.17</ele>
        <time>2010-09-26T08:57:07Z</time>
      </trkpt>
      <trkpt lat="44.01491" lon="1.55085">
        <ele>198.17</ele>
        <time>2010-09-26T08:57:08Z</time>
      </trkpt>
      <trkpt lat="44.01486" lon="1.55087">
        <ele>198.17</ele>
        <time>2010-09-26T08:57:09Z</time>
      </trkpt>
      <trkpt lat="44.0147" lon="1.55093">
        <ele>196.73</ele>
        <time>2010-09-26T08:57:12Z</time>
      </trkpt>
      <trkpt lat="44.01465" lon="1.55095">
        <ele>196.25</ele>
        <time>2010-09-26T08:57:13Z</time>
      </trkpt>
      <trkpt lat="44.01441" lon="1.55104">
        <ele>193.36</ele>
        <time>2010-09-26T08:57:17Z</time>
      </trkpt>
      <trkpt lat="44.01411" lon="1.5512">
        <ele>190.48</ele>
        <time>2010-09-26T08:57:22Z</time>
      </trkpt>
      <trkpt lat="44.01406" lon="1.55124">
        <ele>189.52</ele>
        <time>2010-09-26T08:57:23Z</time>
      </trkpt>
      <trkpt lat="44.01394" lon="1.55129">
        <ele>188.56</ele>
        <time>2010-09-26T08:57:25Z</time>
      </trkpt>
      <trkpt lat="44.01387" lon="1.55131">
        <ele>188.08</ele>
        <time>2010-09-26T08:57:26Z</time>
      </trkpt>
      <trkpt lat="44.01361" lon="1.55136">
        <ele>185.19</ele>
        <time>2010-09-26T08:57:30Z</time>
      </trkpt>
      <trkpt lat="44.01355" lon="1.55138">
        <ele>184.23</ele>
        <time>2010-09-26T08:57:31Z</time>
      </trkpt>
      <trkpt lat="44.01349" lon="1.55141">
        <ele>183.27</ele>
        <time>2010-09-26T08:57:32Z</time>
      </trkpt>
      <trkpt lat="44.01343" lon="1.55145">
        <ele>182.31</ele>
        <time>2010-09-26T08:57:33Z</time>
      </trkpt>
      <trkpt lat="44.01338" lon="1.5515">
        <ele>182.31</ele>
        <time>2010-09-26T08:57:34Z</time>
      </trkpt>
      <trkpt lat="44.01334" lon="1.55155">
        <ele>181.83</ele>
        <time>2010-09-26T08:57:35Z</time>
      </trkpt>
      <trkpt lat="44.01329" lon="1.5516">
        <ele>181.35</ele>
        <time>2010-09-26T08:57:36Z</time>
      </trkpt>
      <trkpt lat="44.01322" lon="1.5517">
        <ele>179.42</ele>
        <time>2010-09-26T08:57:38Z</time>
      </trkpt>
      <trkpt lat="44.01319" lon="1.55175">
        <ele>178.46</ele>
        <time>2010-09-26T08:57:39Z</time>
      </trkpt>
      <trkpt lat="44.01316" lon="1.55181">
        <ele>178.94</ele>
        <time>2010-09-26T08:57:40Z</time>
      </trkpt>
      <trkpt lat="44.01313" lon="1.55186">
        <ele>177.98</ele>
        <time>2010-09-26T08:57:41Z</time>
      </trkpt>
      <trkpt lat="44.01308" lon="1.55192">
        <ele>177.5</ele>
        <time>2010-09-26T08:57:42Z</time>
      </trkpt>
      <trkpt lat="44.01295" lon="1.5521">
        <ele>175.1</ele>
        <time>2010-09-26T08:57:45Z</time>
      </trkpt>
      <trkpt lat="44.01281" lon="1.55226">
        <ele>172.69</ele>
        <time>2010-09-26T08:57:48Z</time>
      </trkpt>
      <trkpt lat="44.01276" lon="1.55229">
        <ele>171.73</ele>
        <time>2010-09-26T08:57:49Z</time>
      </trkpt>
      <trkpt lat="44.01271" lon="1.55231">
        <ele>171.25</ele>
        <time>2010-09-26T08:57:50Z</time>
      </trkpt>
      <trkpt lat="44.01266" lon="1.55231">
        <ele>169.81</ele>
        <time>2010-09-26T08:57:51Z</time>
      </trkpt>
      <trkpt lat="44.0126" lon="1.55229">
        <ele>169.81</ele>
        <time>2010-09-26T08:57:52Z</time>
      </trkpt>
      <trkpt lat="44.01256" lon="1.55226">
        <ele>168.85</ele>
        <time>2010-09-26T08:57:53Z</time>
      </trkpt>
      <trkpt lat="44.01251" lon="1.5522">
        <ele>168.37</ele>
        <time>2010-09-26T08:57:54Z</time>
      </trkpt>
      <trkpt lat="44.01248" lon="1.55214">
        <ele>167.89</ele>
        <time>2010-09-26T08:57:55Z</time>
      </trkpt>
      <trkpt lat="44.01244" lon="1.55207">
        <ele>166.93</ele>
        <time>2010-09-26T08:57:56Z</time>
      </trkpt>
      <trkpt lat="44.01242" lon="1.55199">
        <ele>166.45</ele>
        <time>2010-09-26T08:57:57Z</time>
      </trkpt>
      <trkpt lat="44.01239" lon="1.5519">
        <ele>165.96</ele>
        <time>2010-09-26T08:57:58Z</time>
      </trkpt>
      <trkpt lat="44.01237" lon="1.55181">
        <ele>165.48</ele>
        <time>2010-09-26T08:57:59Z</time>
      </trkpt>
      <trkpt lat="44.01227" lon="1.55139">
        <ele>162.6</ele>
        <time>2010-09-26T08:58:04Z</time>
      </trkpt>
      <trkpt lat="44.01221" lon="1.55124">
        <ele>161.64</ele>
        <time>2010-09-26T08:58:06Z</time>
      </trkpt>
      <trkpt lat="44.01218" lon="1.55118">
        <ele>161.16</ele>
        <time>2010-09-26T08:58:07Z</time>
      </trkpt>
      <trkpt lat="44.01206" lon="1.55097">
        <ele>159.72</ele>
        <time>2010-09-26T08:58:10Z</time>
      </trkpt>
      <trkpt lat="44.01198" lon="1.55086">
        <ele>159.24</ele>
        <time>2010-09-26T08:58:12Z</time>
      </trkpt>
      <trkpt lat="44.01194" lon="1.55081">
        <ele>159.24</ele>
        <time>2010-09-26T08:58:13Z</time>
      </trkpt>
      <trkpt lat="44.01189" lon="1.55078">
        <ele>158.27</ele>
        <time>2010-09-26T08:58:14Z</time>
      </trkpt>
      <trkpt lat="44.01185" lon="1.55075">
        <ele>158.27</ele>
        <time>2010-09-26T08:58:15Z</time>
      </trkpt>
      <trkpt lat="44.01181" lon="1.55074">
        <ele>158.27</ele>
        <time>2010-09-26T08:58:16Z</time>
      </trkpt>
      <trkpt lat="44.01176" lon="1.55073">
        <ele>157.31</ele>
        <time>2010-09-26T08:58:17Z</time>
      </trkpt>
      <trkpt lat="44.01172" lon="1.55074">
        <ele>157.31</ele>
        <time>2010-09-26T08:58:18Z</time>
      </trkpt>
      <trkpt lat="44.01168" lon="1.55076">
        <ele>156.83</ele>
        <time>2010-09-26T08:58:19Z</time>
      </trkpt>
      <trkpt lat="44.01164" lon="1.55078">
        <ele>156.83</ele>
        <time>2010-09-26T08:58:20Z</time>
      </trkpt>
      <trkpt lat="44.0116" lon="1.5508">
        <ele>156.83</ele>
        <time>2010-09-26T08:58:21Z</time>
      </trkpt>
      <trkpt lat="44.01147" lon="1.55089">
        <ele>155.87</ele>
        <time>2010-09-26T08:58:24Z</time>
      </trkpt>
      <trkpt lat="44.01142" lon="1.55092">
        <ele>155.39</ele>
        <time>2010-09-26T08:58:25Z</time>
      </trkpt>
      <trkpt lat="44.01107" lon="1.55121">
        <ele>153.47</ele>
        <time>2010-09-26T08:58:33Z</time>
      </trkpt>
      <trkpt lat="44.01024" lon="1.55146">
        <ele>151.06</ele>
        <time>2010-09-26T08:58:49Z</time>
      </trkpt>
      <trkpt lat="44.00997" lon="1.55144">
        <ele>150.1</ele>
        <time>2010-09-26T08:58:54Z</time>
      </trkpt>
      <trkpt lat="44.00992" lon="1.55143">
        <ele>150.58</ele>
        <time>2010-09-26T08:58:55Z</time>
      </trkpt>
      <trkpt lat="44.00928" lon="1.55135">
        <ele>149.14</ele>
        <time>2010-09-26T08:59:08Z</time>
      </trkpt>
      <trkpt lat="44.00924" lon="1.55135">
        <ele>149.14</ele>
        <time>2010-09-26T08:59:09Z</time>
      </trkpt>
      <trkpt lat="44.00889" lon="1.55133">
        <ele>147.7</ele>
        <time>2010-09-26T08:59:17Z</time>
      </trkpt>
      <trkpt lat="44.00884" lon="1.55132">
        <ele>147.7</ele>
        <time>2010-09-26T08:59:18Z</time>
      </trkpt>
      <trkpt lat="44.00858" lon="1.55132">
        <ele>147.22</ele>
        <time>2010-09-26T08:59:24Z</time>
      </trkpt>
      <trkpt lat="44.00826" lon="1.55136">
        <ele>146.74</ele>
        <time>2010-09-26T08:59:30Z</time>
      </trkpt>
      <trkpt lat="44.00821" lon="1.55137">
        <ele>146.74</ele>
        <time>2010-09-26T08:59:31Z</time>
      </trkpt>
      <trkpt lat="44.00807" lon="1.55139">
        <ele>146.26</ele>
        <time>2010-09-26T08:59:34Z</time>
      </trkpt>
      <trkpt lat="44.00802" lon="1.55139">
        <ele>146.26</ele>
        <time>2010-09-26T08:59:35Z</time>
      </trkpt>
      <trkpt lat="44.0073" lon="1.55146">
        <ele>143.85</ele>
        <time>2010-09-26T08:59:48Z</time>
      </trkpt>
      <trkpt lat="44.00656" lon="1.55161">
        <ele>140.97</ele>
        <time>2010-09-26T08:59:59Z</time>
      </trkpt>
      <trkpt lat="44.00602" lon="1.55188">
        <ele>139.53</ele>
        <time>2010-09-26T09:00:08Z</time>
      </trkpt>
      <trkpt lat="44.00544" lon="1.55219">
        <ele>140.49</ele>
        <time>2010-09-26T09:00:20Z</time>
      </trkpt>
      <trkpt lat="44.00531" lon="1.55221">
        <ele>141.93</ele>
        <time>2010-09-26T09:00:31Z</time>
      </trkpt>
      <trkpt lat="44.00526" lon="1.55223">
        <ele>141.45</ele>
        <time>2010-09-26T09:00:52Z</time>
      </trkpt>
      <trkpt lat="44.00524" lon="1.55231">
        <ele>141.45</ele>
        <time>2010-09-26T09:00:57Z</time>
      </trkpt>
      <trkpt lat="44.00525" lon="1.55239">
        <ele>141.45</ele>
        <time>2010-09-26T09:01:00Z</time>
      </trkpt>
      <trkpt lat="44.00541" lon="1.55305">
        <ele>142.89</ele>
        <time>2010-09-26T09:01:16Z</time>
      </trkpt>
      <trkpt lat="44.00561" lon="1.5538">
        <ele>145.78</ele>
        <time>2010-09-26T09:01:34Z</time>
      </trkpt>
      <trkpt lat="44.00567" lon="1.55444">
        <ele>148.18</ele>
        <time>2010-09-26T09:01:49Z</time>
      </trkpt>
      <trkpt lat="44.00551" lon="1.5552">
        <ele>147.22</ele>
        <time>2010-09-26T09:02:02Z</time>
      </trkpt>
      <trkpt lat="44.00533" lon="1.55605">
        <ele>145.78</ele>
        <time>2010-09-26T09:02:13Z</time>
      </trkpt>
      <trkpt lat="44.00531" lon="1.55611">
        <ele>145.78</ele>
        <time>2010-09-26T09:02:14Z</time>
      </trkpt>
      <trkpt lat="44.00519" lon="1.55667">
        <ele>148.66</ele>
        <time>2010-09-26T09:02:26Z</time>
      </trkpt>
      <trkpt lat="44.00506" lon="1.55728">
        <ele>151.54</ele>
        <time>2010-09-26T09:02:40Z</time>
      </trkpt>
      <trkpt lat="44.0047" lon="1.55767">
        <ele>153.95</ele>
        <time>2010-09-26T09:02:54Z</time>
      </trkpt>
      <trkpt lat="44.00418" lon="1.55794">
        <ele>157.31</ele>
        <time>2010-09-26T09:03:12Z</time>
      </trkpt>
      <trkpt lat="44.00409" lon="1.55841">
        <ele>159.24</ele>
        <time>2010-09-26T09:03:24Z</time>
      </trkpt>
      <trkpt lat="44.0042" lon="1.55925">
        <ele>162.6</ele>
        <time>2010-09-26T09:03:43Z</time>
      </trkpt>
      <trkpt lat="44.00399" lon="1.55962">
        <ele>164.52</ele>
        <time>2010-09-26T09:03:54Z</time>
      </trkpt>
      <trkpt lat="44.00353" lon="1.55962">
        <ele>166.93</ele>
        <time>2010-09-26T09:04:09Z</time>
      </trkpt>
      <trkpt lat="44.00319" lon="1.55946">
        <ele>169.33</ele>
        <time>2010-09-26T09:04:24Z</time>
      </trkpt>
      <trkpt lat="44.00321" lon="1.55945">
        <ele>169.33</ele>
        <time>2010-09-26T09:04:29Z</time>
      </trkpt>
      <trkpt lat="44.00322" lon="1.55946">
        <ele>169.33</ele>
        <time>2010-09-26T09:04:30Z</time>
      </trkpt>
      <trkpt lat="44.00324" lon="1.55947">
        <ele>169.33</ele>
        <time>2010-09-26T09:04:31Z</time>
      </trkpt>
      <trkpt lat="44.00326" lon="1.55948">
        <ele>169.33</ele>
        <time>2010-09-26T09:04:33Z</time>
      </trkpt>
      <trkpt lat="44.00327" lon="1.55948">
        <ele>169.33</ele>
        <time>2010-09-26T09:04:49Z</time>
      </trkpt>
      <trkpt lat="44.00327" lon="1.55948">
        <ele>169.33</ele>
        <time>2010-09-26T09:05:34Z</time>
      </trkpt>
      <trkpt lat="44.00324" lon="1.55947">
        <ele>169.81</ele>
        <time>2010-09-26T09:05:57Z</time>
      </trkpt>
      <trkpt lat="44.00323" lon="1.55947">
        <ele>170.29</ele>
        <time>2010-09-26T09:06:13Z</time>
      </trkpt>
      <trkpt lat="44.00322" lon="1.55947">
        <ele>169.81</ele>
        <time>2010-09-26T09:06:14Z</time>
      </trkpt>
      <trkpt lat="44.0032" lon="1.55946">
        <ele>170.29</ele>
        <time>2010-09-26T09:06:15Z</time>
      </trkpt>
      <trkpt lat="44.00289" lon="1.55937">
        <ele>172.21</ele>
        <time>2010-09-26T09:06:28Z</time>
      </trkpt>
      <trkpt lat="44.00258" lon="1.55926">
        <ele>174.14</ele>
        <time>2010-09-26T09:06:41Z</time>
      </trkpt>
      <trkpt lat="44.00218" lon="1.55922">
        <ele>177.02</ele>
        <time>2010-09-26T09:06:55Z</time>
      </trkpt>
      <trkpt lat="44.00183" lon="1.55917">
        <ele>179.42</ele>
        <time>2010-09-26T09:07:08Z</time>
      </trkpt>
      <trkpt lat="44.00152" lon="1.55914">
        <ele>181.83</ele>
        <time>2010-09-26T09:07:20Z</time>
      </trkpt>
      <trkpt lat="44.00119" lon="1.55916">
        <ele>183.27</ele>
        <time>2010-09-26T09:07:32Z</time>
      </trkpt>
      <trkpt lat="44.00086" lon="1.55924">
        <ele>185.67</ele>
        <time>2010-09-26T09:07:44Z</time>
      </trkpt>
      <trkpt lat="44.00046" lon="1.55942">
        <ele>188.56</ele>
        <time>2010-09-26T09:07:59Z</time>
      </trkpt>
      <trkpt lat="44.00009" lon="1.55969">
        <ele>191.44</ele>
        <time>2010-09-26T09:08:14Z</time>
      </trkpt>
      <trkpt lat="43.99974" lon="1.55998">
        <ele>194.8</ele>
        <time>2010-09-26T09:08:28Z</time>
      </trkpt>
      <trkpt lat="43.99939" lon="1.56024">
        <ele>197.21</ele>
        <time>2010-09-26T09:08:41Z</time>
      </trkpt>
      <trkpt lat="43.9992" lon="1.56051">
        <ele>199.13</ele>
        <time>2010-09-26T09:08:50Z</time>
      </trkpt>
      <trkpt lat="43.99886" lon="1.56093">
        <ele>201.53</ele>
        <time>2010-09-26T09:09:04Z</time>
      </trkpt>
      <trkpt lat="43.99858" lon="1.56135">
        <ele>203.94</ele>
        <time>2010-09-26T09:09:17Z</time>
      </trkpt>
      <trkpt lat="43.99834" lon="1.56159">
        <ele>205.38</ele>
        <time>2010-09-26T09:09:29Z</time>
      </trkpt>
      <trkpt lat="43.99801" lon="1.56188">
        <ele>206.82</ele>
        <time>2010-09-26T09:09:42Z</time>
      </trkpt>
      <trkpt lat="43.99768" lon="1.56213">
        <ele>208.26</ele>
        <time>2010-09-26T09:09:53Z</time>
      </trkpt>
      <trkpt lat="43.99721" lon="1.56252">
        <ele>210.19</ele>
        <time>2010-09-26T09:10:09Z</time>
      </trkpt>
      <trkpt lat="43.99668" lon="1.56296">
        <ele>213.55</ele>
        <time>2010-09-26T09:10:26Z</time>
      </trkpt>
      <trkpt lat="43.99619" lon="1.56335">
        <ele>213.55</ele>
        <time>2010-09-26T09:10:41Z</time>
      </trkpt>
      <trkpt lat="43.99604" lon="1.56346">
        <ele>213.55</ele>
        <time>2010-09-26T09:10:45Z</time>
      </trkpt>
      <trkpt lat="43.996" lon="1.56348">
        <ele>214.03</ele>
        <time>2010-09-26T09:10:46Z</time>
      </trkpt>
      <trkpt lat="43.99596" lon="1.56351">
        <ele>214.03</ele>
        <time>2010-09-26T09:10:47Z</time>
      </trkpt>
      <trkpt lat="43.9957" lon="1.56361">
        <ele>214.03</ele>
        <time>2010-09-26T09:10:53Z</time>
      </trkpt>
      <trkpt lat="43.99507" lon="1.56365">
        <ele>213.55</ele>
        <time>2010-09-26T09:11:07Z</time>
      </trkpt>
      <trkpt lat="43.99503" lon="1.56365">
        <ele>213.55</ele>
        <time>2010-09-26T09:11:08Z</time>
      </trkpt>
      <trkpt lat="43.9942" lon="1.5637">
        <ele>212.11</ele>
        <time>2010-09-26T09:11:23Z</time>
      </trkpt>
      <trkpt lat="43.99358" lon="1.56395">
        <ele>214.99</ele>
        <time>2010-09-26T09:11:37Z</time>
      </trkpt>
      <trkpt lat="43.99305" lon="1.56398">
        <ele>216.91</ele>
        <time>2010-09-26T09:11:51Z</time>
      </trkpt>
      <trkpt lat="43.9927" lon="1.56382">
        <ele>215.95</ele>
        <time>2010-09-26T09:12:04Z</time>
      </trkpt>
      <trkpt lat="43.99266" lon="1.56383">
        <ele>215.95</ele>
        <time>2010-09-26T09:12:05Z</time>
      </trkpt>
      <trkpt lat="43.99262" lon="1.56385">
        <ele>215.47</ele>
        <time>2010-09-26T09:12:06Z</time>
      </trkpt>
      <trkpt lat="43.99191" lon="1.56424">
        <ele>213.55</ele>
        <time>2010-09-26T09:12:20Z</time>
      </trkpt>
      <trkpt lat="43.99123" lon="1.56453">
        <ele>212.11</ele>
        <time>2010-09-26T09:12:32Z</time>
      </trkpt>
      <trkpt lat="43.9905" lon="1.56455">
        <ele>213.55</ele>
        <time>2010-09-26T09:12:45Z</time>
      </trkpt>
      <trkpt lat="43.98973" lon="1.56437">
        <ele>213.55</ele>
        <time>2010-09-26T09:13:00Z</time>
      </trkpt>
      <trkpt lat="43.98919" lon="1.56421">
        <ele>214.99</ele>
        <time>2010-09-26T09:13:12Z</time>
      </trkpt>
      <trkpt lat="43.98907" lon="1.56417">
        <ele>214.99</ele>
        <time>2010-09-26T09:13:15Z</time>
      </trkpt>
      <trkpt lat="43.98902" lon="1.56416">
        <ele>214.51</ele>
        <time>2010-09-26T09:13:16Z</time>
      </trkpt>
      <trkpt lat="43.98898" lon="1.56414">
        <ele>214.51</ele>
        <time>2010-09-26T09:13:17Z</time>
      </trkpt>
      <trkpt lat="43.98873" lon="1.56406">
        <ele>213.07</ele>
        <time>2010-09-26T09:13:22Z</time>
      </trkpt>
      <trkpt lat="43.98816" lon="1.56385">
        <ele>209.7</ele>
        <time>2010-09-26T09:13:32Z</time>
      </trkpt>
      <trkpt lat="43.98788" lon="1.56376">
        <ele>208.26</ele>
        <time>2010-09-26T09:13:36Z</time>
      </trkpt>
      <trkpt lat="43.98761" lon="1.56369">
        <ele>206.34</ele>
        <time>2010-09-26T09:13:40Z</time>
      </trkpt>
      <trkpt lat="43.98743" lon="1.56367">
        <ele>205.86</ele>
        <time>2010-09-26T09:13:44Z</time>
      </trkpt>
      <trkpt lat="43.98665" lon="1.56376">
        <ele>204.42</ele>
        <time>2010-09-26T09:13:58Z</time>
      </trkpt>
      <trkpt lat="43.98571" lon="1.5641">
        <ele>202.98</ele>
        <time>2010-09-26T09:14:14Z</time>
      </trkpt>
      <trkpt lat="43.98471" lon="1.56449">
        <ele>201.53</ele>
        <time>2010-09-26T09:14:31Z</time>
      </trkpt>
      <trkpt lat="43.98375" lon="1.56488">
        <ele>201.53</ele>
        <time>2010-09-26T09:14:48Z</time>
      </trkpt>
      <trkpt lat="43.98341" lon="1.56502">
        <ele>202.49</ele>
        <time>2010-09-26T09:14:55Z</time>
      </trkpt>
      <trkpt lat="43.98337" lon="1.56504">
        <ele>202.49</ele>
        <time>2010-09-26T09:14:56Z</time>
      </trkpt>
      <trkpt lat="43.98302" lon="1.56524">
        <ele>202.98</ele>
        <time>2010-09-26T09:15:06Z</time>
      </trkpt>
      <trkpt lat="43.983" lon="1.56527">
        <ele>202.49</ele>
        <time>2010-09-26T09:15:23Z</time>
      </trkpt>
      <trkpt lat="43.983" lon="1.56527">
        <ele>204.42</ele>
        <time>2010-09-26T09:15:35Z</time>
      </trkpt>
      <trkpt lat="43.983" lon="1.56527">
        <ele>202.98</ele>
        <time>2010-09-26T09:16:02Z</time>
      </trkpt>
      <trkpt lat="43.983" lon="1.56528">
        <ele>202.98</ele>
        <time>2010-09-26T09:16:28Z</time>
      </trkpt>
      <trkpt lat="43.98299" lon="1.56529">
        <ele>202.49</ele>
        <time>2010-09-26T09:17:05Z</time>
      </trkpt>
      <trkpt lat="43.98299" lon="1.56529">
        <ele>203.46</ele>
        <time>2010-09-26T09:17:42Z</time>
      </trkpt>
      <trkpt lat="43.98296" lon="1.56535">
        <ele>204.42</ele>
        <time>2010-09-26T09:20:47Z</time>
      </trkpt>
      <trkpt lat="43.98296" lon="1.56536">
        <ele>204.9</ele>
        <time>2010-09-26T09:21:35Z</time>
      </trkpt>
      <trkpt lat="43.98296" lon="1.56537">
        <ele>205.38</ele>
        <time>2010-09-26T09:22:14Z</time>
      </trkpt>
      <trkpt lat="43.98294" lon="1.56526">
        <ele>205.38</ele>
        <time>2010-09-26T09:22:36Z</time>
      </trkpt>
      <trkpt lat="43.98293" lon="1.56526">
        <ele>205.38</ele>
        <time>2010-09-26T09:22:37Z</time>
      </trkpt>
      <trkpt lat="43.98291" lon="1.56527">
        <ele>205.86</ele>
        <time>2010-09-26T09:22:38Z</time>
      </trkpt>
      <trkpt lat="43.98289" lon="1.56528">
        <ele>205.38</ele>
        <time>2010-09-26T09:22:39Z</time>
      </trkpt>
      <trkpt lat="43.98287" lon="1.56529">
        <ele>205.86</ele>
        <time>2010-09-26T09:22:40Z</time>
      </trkpt>
      <trkpt lat="43.98285" lon="1.5653">
        <ele>205.38</ele>
        <time>2010-09-26T09:22:41Z</time>
      </trkpt>
      <trkpt lat="43.98283" lon="1.56531">
        <ele>205.38</ele>
        <time>2010-09-26T09:22:42Z</time>
      </trkpt>
      <trkpt lat="43.9828" lon="1.56531">
        <ele>205.86</ele>
        <time>2010-09-26T09:22:43Z</time>
      </trkpt>
      <trkpt lat="43.98278" lon="1.56532">
        <ele>204.9</ele>
        <time>2010-09-26T09:22:44Z</time>
      </trkpt>
      <trkpt lat="43.98243" lon="1.5655">
        <ele>207.3</ele>
        <time>2010-09-26T09:22:58Z</time>
      </trkpt>
      <trkpt lat="43.98207" lon="1.56566">
        <ele>207.78</ele>
        <time>2010-09-26T09:23:10Z</time>
      </trkpt>
      <trkpt lat="43.98163" lon="1.56584">
        <ele>209.7</ele>
        <time>2010-09-26T09:23:23Z</time>
      </trkpt>
      <trkpt lat="43.98135" lon="1.56604">
        <ele>210.67</ele>
        <time>2010-09-26T09:23:32Z</time>
      </trkpt>
      <trkpt lat="43.98101" lon="1.5663">
        <ele>210.19</ele>
        <time>2010-09-26T09:23:42Z</time>
      </trkpt>
      <trkpt lat="43.98071" lon="1.56657">
        <ele>207.3</ele>
        <time>2010-09-26T09:23:49Z</time>
      </trkpt>
      <trkpt lat="43.98028" lon="1.56696">
        <ele>204.42</ele>
        <time>2010-09-26T09:23:57Z</time>
      </trkpt>
      <trkpt lat="43.97957" lon="1.56779">
        <ele>201.53</ele>
        <time>2010-09-26T09:24:13Z</time>
      </trkpt>
      <trkpt lat="43.97908" lon="1.56837">
        <ele>199.61</ele>
        <time>2010-09-26T09:24:24Z</time>
      </trkpt>
      <trkpt lat="43.97843" lon="1.56894">
        <ele>196.25</ele>
        <time>2010-09-26T09:24:37Z</time>
      </trkpt>
      <trkpt lat="43.97819" lon="1.56917">
        <ele>194.32</ele>
        <time>2010-09-26T09:24:42Z</time>
      </trkpt>
      <trkpt lat="43.97779" lon="1.56961">
        <ele>190.96</ele>
        <time>2010-09-26T09:24:50Z</time>
      </trkpt>
      <trkpt lat="43.97773" lon="1.56967">
        <ele>190.96</ele>
        <time>2010-09-26T09:24:51Z</time>
      </trkpt>
      <trkpt lat="43.97756" lon="1.56984">
        <ele>189.52</ele>
        <time>2010-09-26T09:24:54Z</time>
      </trkpt>
      <trkpt lat="43.97697" lon="1.57048">
        <ele>186.15</ele>
        <time>2010-09-26T09:25:04Z</time>
      </trkpt>
      <trkpt lat="43.97656" lon="1.57097">
        <ele>183.75</ele>
        <time>2010-09-26T09:25:13Z</time>
      </trkpt>
      <trkpt lat="43.97652" lon="1.57102">
        <ele>183.75</ele>
        <time>2010-09-26T09:25:14Z</time>
      </trkpt>
      <trkpt lat="43.97648" lon="1.57107">
        <ele>183.27</ele>
        <time>2010-09-26T09:25:15Z</time>
      </trkpt>
      <trkpt lat="43.97644" lon="1.57112">
        <ele>183.27</ele>
        <time>2010-09-26T09:25:16Z</time>
      </trkpt>
      <trkpt lat="43.9764" lon="1.57118">
        <ele>183.27</ele>
        <time>2010-09-26T09:25:17Z</time>
      </trkpt>
      <trkpt lat="43.97637" lon="1.57124">
        <ele>182.31</ele>
        <time>2010-09-26T09:25:18Z</time>
      </trkpt>
      <trkpt lat="43.97634" lon="1.5713">
        <ele>182.31</ele>
        <time>2010-09-26T09:25:19Z</time>
      </trkpt>
      <trkpt lat="43.97631" lon="1.57136">
        <ele>181.83</ele>
        <time>2010-09-26T09:25:20Z</time>
      </trkpt>
      <trkpt lat="43.97626" lon="1.57149">
        <ele>181.35</ele>
        <time>2010-09-26T09:25:22Z</time>
      </trkpt>
      <trkpt lat="43.97623" lon="1.57155">
        <ele>180.87</ele>
        <time>2010-09-26T09:25:23Z</time>
      </trkpt>
      <trkpt lat="43.97614" lon="1.5718">
        <ele>179.42</ele>
        <time>2010-09-26T09:25:27Z</time>
      </trkpt>
      <trkpt lat="43.976" lon="1.57214">
        <ele>177.5</ele>
        <time>2010-09-26T09:25:32Z</time>
      </trkpt>
      <trkpt lat="43.97597" lon="1.57222">
        <ele>176.54</ele>
        <time>2010-09-26T09:25:33Z</time>
      </trkpt>
      <trkpt lat="43.97591" lon="1.57237">
        <ele>175.1</ele>
        <time>2010-09-26T09:25:35Z</time>
      </trkpt>
      <trkpt lat="43.97585" lon="1.57251">
        <ele>174.62</ele>
        <time>2010-09-26T09:25:37Z</time>
      </trkpt>
      <trkpt lat="43.97577" lon="1.57264">
        <ele>173.66</ele>
        <time>2010-09-26T09:25:39Z</time>
      </trkpt>
      <trkpt lat="43.97557" lon="1.57294">
        <ele>170.77</ele>
        <time>2010-09-26T09:25:44Z</time>
      </trkpt>
      <trkpt lat="43.97553" lon="1.573">
        <ele>169.81</ele>
        <time>2010-09-26T09:25:45Z</time>
      </trkpt>
      <trkpt lat="43.97532" lon="1.57332">
        <ele>166.93</ele>
        <time>2010-09-26T09:25:50Z</time>
      </trkpt>
      <trkpt lat="43.97514" lon="1.57347">
        <ele>164.04</ele>
        <time>2010-09-26T09:25:53Z</time>
      </trkpt>
      <trkpt lat="43.97508" lon="1.57351">
        <ele>163.08</ele>
        <time>2010-09-26T09:25:54Z</time>
      </trkpt>
      <trkpt lat="43.97502" lon="1.57355">
        <ele>163.08</ele>
        <time>2010-09-26T09:25:55Z</time>
      </trkpt>
      <trkpt lat="43.97479" lon="1.57374">
        <ele>160.68</ele>
        <time>2010-09-26T09:25:59Z</time>
      </trkpt>
      <trkpt lat="43.97456" lon="1.57398">
        <ele>157.31</ele>
        <time>2010-09-26T09:26:03Z</time>
      </trkpt>
      <trkpt lat="43.9745" lon="1.57405">
        <ele>156.83</ele>
        <time>2010-09-26T09:26:04Z</time>
      </trkpt>
      <trkpt lat="43.97428" lon="1.57425">
        <ele>154.43</ele>
        <time>2010-09-26T09:26:08Z</time>
      </trkpt>
      <trkpt lat="43.97423" lon="1.57429">
        <ele>153.95</ele>
        <time>2010-09-26T09:26:09Z</time>
      </trkpt>
      <trkpt lat="43.97418" lon="1.57434">
        <ele>152.99</ele>
        <time>2010-09-26T09:26:10Z</time>
      </trkpt>
      <trkpt lat="43.974" lon="1.57448">
        <ele>151.54</ele>
        <time>2010-09-26T09:26:14Z</time>
      </trkpt>
      <trkpt lat="43.97395" lon="1.57451">
        <ele>151.06</ele>
        <time>2010-09-26T09:26:15Z</time>
      </trkpt>
      <trkpt lat="43.97371" lon="1.5747">
        <ele>148.66</ele>
        <time>2010-09-26T09:26:20Z</time>
      </trkpt>
      <trkpt lat="43.97349" lon="1.57494">
        <ele>147.22</ele>
        <time>2010-09-26T09:26:25Z</time>
      </trkpt>
      <trkpt lat="43.97339" lon="1.57509">
        <ele>146.74</ele>
        <time>2010-09-26T09:26:28Z</time>
      </trkpt>
      <trkpt lat="43.97335" lon="1.57513">
        <ele>146.26</ele>
        <time>2010-09-26T09:26:29Z</time>
      </trkpt>
      <trkpt lat="43.97331" lon="1.57516">
        <ele>145.78</ele>
        <time>2010-09-26T09:26:30Z</time>
      </trkpt>
      <trkpt lat="43.97311" lon="1.57538">
        <ele>143.85</ele>
        <time>2010-09-26T09:26:35Z</time>
      </trkpt>
      <trkpt lat="43.97273" lon="1.57578">
        <ele>140.49</ele>
        <time>2010-09-26T09:26:42Z</time>
      </trkpt>
      <trkpt lat="43.97208" lon="1.57642">
        <ele>136.16</ele>
        <time>2010-09-26T09:26:54Z</time>
      </trkpt>
      <trkpt lat="43.9715" lon="1.57698">
        <ele>136.16</ele>
        <time>2010-09-26T09:27:06Z</time>
      </trkpt>
      <trkpt lat="43.97138" lon="1.57709">
        <ele>136.16</ele>
        <time>2010-09-26T09:27:10Z</time>
      </trkpt>
      <trkpt lat="43.97136" lon="1.57712">
        <ele>136.16</ele>
        <time>2010-09-26T09:27:11Z</time>
      </trkpt>
      <trkpt lat="43.97134" lon="1.57715">
        <ele>136.16</ele>
        <time>2010-09-26T09:27:12Z</time>
      </trkpt>
      <trkpt lat="43.97133" lon="1.57718">
        <ele>136.16</ele>
        <time>2010-09-26T09:27:13Z</time>
      </trkpt>
      <trkpt lat="43.97131" lon="1.57722">
        <ele>136.16</ele>
        <time>2010-09-26T09:27:14Z</time>
      </trkpt>
      <trkpt lat="43.9713" lon="1.57727">
        <ele>136.16</ele>
        <time>2010-09-26T09:27:15Z</time>
      </trkpt>
      <trkpt lat="43.9713" lon="1.57731">
        <ele>136.16</ele>
        <time>2010-09-26T09:27:16Z</time>
      </trkpt>
      <trkpt lat="43.9713" lon="1.57734">
        <ele>136.16</ele>
        <time>2010-09-26T09:27:17Z</time>
      </trkpt>
      <trkpt lat="43.9713" lon="1.57737">
        <ele>135.68</ele>
        <time>2010-09-26T09:27:18Z</time>
      </trkpt>
      <trkpt lat="43.97131" lon="1.57741">
        <ele>136.64</ele>
        <time>2010-09-26T09:27:20Z</time>
      </trkpt>
      <trkpt lat="43.97131" lon="1.57741">
        <ele>136.16</ele>
        <time>2010-09-26T09:27:21Z</time>
      </trkpt>
      <trkpt lat="43.97131" lon="1.5774">
        <ele>136.16</ele>
        <time>2010-09-26T09:27:22Z</time>
      </trkpt>
      <trkpt lat="43.97131" lon="1.57738">
        <ele>136.16</ele>
        <time>2010-09-26T09:27:23Z</time>
      </trkpt>
      <trkpt lat="43.97129" lon="1.57735">
        <ele>136.64</ele>
        <time>2010-09-26T09:27:24Z</time>
      </trkpt>
      <trkpt lat="43.97128" lon="1.57733">
        <ele>136.16</ele>
        <time>2010-09-26T09:27:25Z</time>
      </trkpt>
      <trkpt lat="43.97126" lon="1.5773">
        <ele>135.68</ele>
        <time>2010-09-26T09:27:26Z</time>
      </trkpt>
      <trkpt lat="43.97125" lon="1.57727">
        <ele>136.16</ele>
        <time>2010-09-26T09:27:27Z</time>
      </trkpt>
      <trkpt lat="43.97124" lon="1.57723">
        <ele>136.16</ele>
        <time>2010-09-26T09:27:28Z</time>
      </trkpt>
      <trkpt lat="43.97123" lon="1.5772">
        <ele>136.16</ele>
        <time>2010-09-26T09:27:29Z</time>
      </trkpt>
      <trkpt lat="43.97121" lon="1.57717">
        <ele>136.16</ele>
        <time>2010-09-26T09:27:30Z</time>
      </trkpt>
      <trkpt lat="43.97118" lon="1.57715">
        <ele>135.68</ele>
        <time>2010-09-26T09:27:31Z</time>
      </trkpt>
      <trkpt lat="43.97115" lon="1.57712">
        <ele>135.68</ele>
        <time>2010-09-26T09:27:32Z</time>
      </trkpt>
      <trkpt lat="43.97074" lon="1.5771">
        <ele>135.2</ele>
        <time>2010-09-26T09:27:43Z</time>
      </trkpt>
      <trkpt lat="43.97056" lon="1.57721">
        <ele>134.72</ele>
        <time>2010-09-26T09:27:48Z</time>
      </trkpt>
      <trkpt lat="43.9698" lon="1.57746">
        <ele>134.24</ele>
        <time>2010-09-26T09:28:04Z</time>
      </trkpt>
      <trkpt lat="43.96942" lon="1.57753">
        <ele>133.76</ele>
        <time>2010-09-26T09:28:12Z</time>
      </trkpt>
      <trkpt lat="43.96937" lon="1.57754">
        <ele>133.28</ele>
        <time>2010-09-26T09:28:13Z</time>
      </trkpt>
      <trkpt lat="43.96914" lon="1.57759">
        <ele>133.28</ele>
        <time>2010-09-26T09:28:18Z</time>
      </trkpt>
      <trkpt lat="43.96882" lon="1.57766">
        <ele>133.28</ele>
        <time>2010-09-26T09:28:25Z</time>
      </trkpt>
      <trkpt lat="43.96878" lon="1.57768">
        <ele>133.28</ele>
        <time>2010-09-26T09:28:26Z</time>
      </trkpt>
      <trkpt lat="43.96874" lon="1.5777">
        <ele>133.28</ele>
        <time>2010-09-26T09:28:27Z</time>
      </trkpt>
      <trkpt lat="43.96871" lon="1.57773">
        <ele>133.28</ele>
        <time>2010-09-26T09:28:28Z</time>
      </trkpt>
      <trkpt lat="43.96868" lon="1.57776">
        <ele>133.76</ele>
        <time>2010-09-26T09:28:29Z</time>
      </trkpt>
      <trkpt lat="43.96865" lon="1.57779">
        <ele>133.28</ele>
        <time>2010-09-26T09:28:30Z</time>
      </trkpt>
      <trkpt lat="43.96862" lon="1.57783">
        <ele>133.76</ele>
        <time>2010-09-26T09:28:31Z</time>
      </trkpt>
      <trkpt lat="43.96843" lon="1.57822">
        <ele>132.8</ele>
        <time>2010-09-26T09:28:38Z</time>
      </trkpt>
      <trkpt lat="43.96836" lon="1.57864">
        <ele>132.8</ele>
        <time>2010-09-26T09:28:44Z</time>
      </trkpt>
      <trkpt lat="43.96828" lon="1.57913">
        <ele>135.68</ele>
        <time>2010-09-26T09:28:57Z</time>
      </trkpt>
      <trkpt lat="43.96815" lon="1.57982">
        <ele>138.57</ele>
        <time>2010-09-26T09:29:16Z</time>
      </trkpt>
      <trkpt lat="43.96808" lon="1.58023">
        <ele>141.45</ele>
        <time>2010-09-26T09:29:29Z</time>
      </trkpt>
      <trkpt lat="43.96803" lon="1.58048">
        <ele>144.34</ele>
        <time>2010-09-26T09:29:39Z</time>
      </trkpt>
      <trkpt lat="43.96798" lon="1.58068">
        <ele>147.7</ele>
        <time>2010-09-26T09:29:48Z</time>
      </trkpt>
      <trkpt lat="43.96797" lon="1.5807">
        <ele>147.7</ele>
        <time>2010-09-26T09:29:49Z</time>
      </trkpt>
      <trkpt lat="43.96797" lon="1.58072">
        <ele>147.7</ele>
        <time>2010-09-26T09:29:50Z</time>
      </trkpt>
      <trkpt lat="43.96796" lon="1.58074">
        <ele>148.18</ele>
        <time>2010-09-26T09:29:51Z</time>
      </trkpt>
      <trkpt lat="43.96788" lon="1.58091">
        <ele>151.54</ele>
        <time>2010-09-26T09:30:01Z</time>
      </trkpt>
      <trkpt lat="43.96786" lon="1.58096">
        <ele>152.99</ele>
        <time>2010-09-26T09:30:04Z</time>
      </trkpt>
      <trkpt lat="43.96785" lon="1.58098">
        <ele>152.99</ele>
        <time>2010-09-26T09:30:05Z</time>
      </trkpt>
      <trkpt lat="43.96783" lon="1.58099">
        <ele>153.47</ele>
        <time>2010-09-26T09:30:06Z</time>
      </trkpt>
      <trkpt lat="43.96782" lon="1.581">
        <ele>153.47</ele>
        <time>2010-09-26T09:30:07Z</time>
      </trkpt>
      <trkpt lat="43.96773" lon="1.5811">
        <ele>156.35</ele>
        <time>2010-09-26T09:30:15Z</time>
      </trkpt>
      <trkpt lat="43.96769" lon="1.58115">
        <ele>158.27</ele>
        <time>2010-09-26T09:30:18Z</time>
      </trkpt>
      <trkpt lat="43.96752" lon="1.58129">
        <ele>160.2</ele>
        <time>2010-09-26T09:30:29Z</time>
      </trkpt>
      <trkpt lat="43.9675" lon="1.58131">
        <ele>159.72</ele>
        <time>2010-09-26T09:30:30Z</time>
      </trkpt>
      <trkpt lat="43.96748" lon="1.58132">
        <ele>160.2</ele>
        <time>2010-09-26T09:30:31Z</time>
      </trkpt>
      <trkpt lat="43.96747" lon="1.58132">
        <ele>160.2</ele>
        <time>2010-09-26T09:30:32Z</time>
      </trkpt>
      <trkpt lat="43.96745" lon="1.58134">
        <ele>160.2</ele>
        <time>2010-09-26T09:30:33Z</time>
      </trkpt>
      <trkpt lat="43.96744" lon="1.58136">
        <ele>160.2</ele>
        <time>2010-09-26T09:30:34Z</time>
      </trkpt>
      <trkpt lat="43.9673" lon="1.5815">
        <ele>161.64</ele>
        <time>2010-09-26T09:30:43Z</time>
      </trkpt>
      <trkpt lat="43.96729" lon="1.58152">
        <ele>161.64</ele>
        <time>2010-09-26T09:30:44Z</time>
      </trkpt>
      <trkpt lat="43.96729" lon="1.58153">
        <ele>161.64</ele>
        <time>2010-09-26T09:30:45Z</time>
      </trkpt>
      <trkpt lat="43.9673" lon="1.58155">
        <ele>162.12</ele>
        <time>2010-09-26T09:30:46Z</time>
      </trkpt>
      <trkpt lat="43.96731" lon="1.58158">
        <ele>161.64</ele>
        <time>2010-09-26T09:30:47Z</time>
      </trkpt>
      <trkpt lat="43.96732" lon="1.5816">
        <ele>162.12</ele>
        <time>2010-09-26T09:30:48Z</time>
      </trkpt>
      <trkpt lat="43.96733" lon="1.58163">
        <ele>162.6</ele>
        <time>2010-09-26T09:30:49Z</time>
      </trkpt>
      <trkpt lat="43.96734" lon="1.58166">
        <ele>162.6</ele>
        <time>2010-09-26T09:30:50Z</time>
      </trkpt>
      <trkpt lat="43.96734" lon="1.58168">
        <ele>163.08</ele>
        <time>2010-09-26T09:30:51Z</time>
      </trkpt>
      <trkpt lat="43.96734" lon="1.58171">
        <ele>163.56</ele>
        <time>2010-09-26T09:30:52Z</time>
      </trkpt>
      <trkpt lat="43.96734" lon="1.58174">
        <ele>163.08</ele>
        <time>2010-09-26T09:30:53Z</time>
      </trkpt>
      <trkpt lat="43.96735" lon="1.58176">
        <ele>163.56</ele>
        <time>2010-09-26T09:30:54Z</time>
      </trkpt>
      <trkpt lat="43.96735" lon="1.58179">
        <ele>164.04</ele>
        <time>2010-09-26T09:30:55Z</time>
      </trkpt>
      <trkpt lat="43.96736" lon="1.58181">
        <ele>164.04</ele>
        <time>2010-09-26T09:30:56Z</time>
      </trkpt>
      <trkpt lat="43.9674" lon="1.58205">
        <ele>166.45</ele>
        <time>2010-09-26T09:31:07Z</time>
      </trkpt>
      <trkpt lat="43.96739" lon="1.58206">
        <ele>166.93</ele>
        <time>2010-09-26T09:31:08Z</time>
      </trkpt>
      <trkpt lat="43.9674" lon="1.58208">
        <ele>166.93</ele>
        <time>2010-09-26T09:31:09Z</time>
      </trkpt>
      <trkpt lat="43.96741" lon="1.5821">
        <ele>167.41</ele>
        <time>2010-09-26T09:31:10Z</time>
      </trkpt>
      <trkpt lat="43.96741" lon="1.58212">
        <ele>167.41</ele>
        <time>2010-09-26T09:31:11Z</time>
      </trkpt>
      <trkpt lat="43.96742" lon="1.58214">
        <ele>167.89</ele>
        <time>2010-09-26T09:31:12Z</time>
      </trkpt>
      <trkpt lat="43.96742" lon="1.58216">
        <ele>168.37</ele>
        <time>2010-09-26T09:31:13Z</time>
      </trkpt>
      <trkpt lat="43.96743" lon="1.58218">
        <ele>168.85</ele>
        <time>2010-09-26T09:31:14Z</time>
      </trkpt>
      <trkpt lat="43.96745" lon="1.58234">
        <ele>169.81</ele>
        <time>2010-09-26T09:31:20Z</time>
      </trkpt>
      <trkpt lat="43.96746" lon="1.58236">
        <ele>169.81</ele>
        <time>2010-09-26T09:31:21Z</time>
      </trkpt>
      <trkpt lat="43.96747" lon="1.58238">
        <ele>170.29</ele>
        <time>2010-09-26T09:31:22Z</time>
      </trkpt>
      <trkpt lat="43.96747" lon="1.5824">
        <ele>170.77</ele>
        <time>2010-09-26T09:31:23Z</time>
      </trkpt>
      <trkpt lat="43.96748" lon="1.58243">
        <ele>170.77</ele>
        <time>2010-09-26T09:31:24Z</time>
      </trkpt>
      <trkpt lat="43.96753" lon="1.58268">
        <ele>173.66</ele>
        <time>2010-09-26T09:31:34Z</time>
      </trkpt>
      <trkpt lat="43.96754" lon="1.58295">
        <ele>175.58</ele>
        <time>2010-09-26T09:31:44Z</time>
      </trkpt>
      <trkpt lat="43.96752" lon="1.58299">
        <ele>175.58</ele>
        <time>2010-09-26T09:31:46Z</time>
      </trkpt>
      <trkpt lat="43.9675" lon="1.58301">
        <ele>176.06</ele>
        <time>2010-09-26T09:31:47Z</time>
      </trkpt>
      <trkpt lat="43.96749" lon="1.58303">
        <ele>176.54</ele>
        <time>2010-09-26T09:31:48Z</time>
      </trkpt>
      <trkpt lat="43.96747" lon="1.58306">
        <ele>177.02</ele>
        <time>2010-09-26T09:31:49Z</time>
      </trkpt>
      <trkpt lat="43.96746" lon="1.58308">
        <ele>177.02</ele>
        <time>2010-09-26T09:31:50Z</time>
      </trkpt>
      <trkpt lat="43.96745" lon="1.5831">
        <ele>177.02</ele>
        <time>2010-09-26T09:31:51Z</time>
      </trkpt>
      <trkpt lat="43.96744" lon="1.58312">
        <ele>177.02</ele>
        <time>2010-09-26T09:31:52Z</time>
      </trkpt>
      <trkpt lat="43.96744" lon="1.58313">
        <ele>177.5</ele>
        <time>2010-09-26T09:31:53Z</time>
      </trkpt>
      <trkpt lat="43.96742" lon="1.58315">
        <ele>177.98</ele>
        <time>2010-09-26T09:31:54Z</time>
      </trkpt>
      <trkpt lat="43.96741" lon="1.58317">
        <ele>177.98</ele>
        <time>2010-09-26T09:31:55Z</time>
      </trkpt>
      <trkpt lat="43.96739" lon="1.58318">
        <ele>177.98</ele>
        <time>2010-09-26T09:31:56Z</time>
      </trkpt>
      <trkpt lat="43.96738" lon="1.58319">
        <ele>177.98</ele>
        <time>2010-09-26T09:31:57Z</time>
      </trkpt>
      <trkpt lat="43.96736" lon="1.5832">
        <ele>177.98</ele>
        <time>2010-09-26T09:31:58Z</time>
      </trkpt>
      <trkpt lat="43.96735" lon="1.5832">
        <ele>177.5</ele>
        <time>2010-09-26T09:31:59Z</time>
      </trkpt>
      <trkpt lat="43.96734" lon="1.58321">
        <ele>178.46</ele>
        <time>2010-09-26T09:32:00Z</time>
      </trkpt>
      <trkpt lat="43.96733" lon="1.58322">
        <ele>178.46</ele>
        <time>2010-09-26T09:32:01Z</time>
      </trkpt>
      <trkpt lat="43.96732" lon="1.58323">
        <ele>178.46</ele>
        <time>2010-09-26T09:32:02Z</time>
      </trkpt>
      <trkpt lat="43.96732" lon="1.58325">
        <ele>178.94</ele>
        <time>2010-09-26T09:32:03Z</time>
      </trkpt>
      <trkpt lat="43.96731" lon="1.58327">
        <ele>179.42</ele>
        <time>2010-09-26T09:32:04Z</time>
      </trkpt>
      <trkpt lat="43.9673" lon="1.58328">
        <ele>178.46</ele>
        <time>2010-09-26T09:32:05Z</time>
      </trkpt>
      <trkpt lat="43.96729" lon="1.5833">
        <ele>179.42</ele>
        <time>2010-09-26T09:32:06Z</time>
      </trkpt>
      <trkpt lat="43.96727" lon="1.58332">
        <ele>178.94</ele>
        <time>2010-09-26T09:32:07Z</time>
      </trkpt>
      <trkpt lat="43.96726" lon="1.58334">
        <ele>178.46</ele>
        <time>2010-09-26T09:32:08Z</time>
      </trkpt>
      <trkpt lat="43.96725" lon="1.58335">
        <ele>178.94</ele>
        <time>2010-09-26T09:32:09Z</time>
      </trkpt>
      <trkpt lat="43.96724" lon="1.58337">
        <ele>178.94</ele>
        <time>2010-09-26T09:32:10Z</time>
      </trkpt>
      <trkpt lat="43.96722" lon="1.58338">
        <ele>179.42</ele>
        <time>2010-09-26T09:32:11Z</time>
      </trkpt>
      <trkpt lat="43.96712" lon="1.58351">
        <ele>179.9</ele>
        <time>2010-09-26T09:32:20Z</time>
      </trkpt>
      <trkpt lat="43.96688" lon="1.58376">
        <ele>180.87</ele>
        <time>2010-09-26T09:32:35Z</time>
      </trkpt>
      <trkpt lat="43.96662" lon="1.58391">
        <ele>180.38</ele>
        <time>2010-09-26T09:32:47Z</time>
      </trkpt>
      <trkpt lat="43.96661" lon="1.58394">
        <ele>180.87</ele>
        <time>2010-09-26T09:32:48Z</time>
      </trkpt>
      <trkpt lat="43.9666" lon="1.58397">
        <ele>180.87</ele>
        <time>2010-09-26T09:32:49Z</time>
      </trkpt>
      <trkpt lat="43.9666" lon="1.584">
        <ele>180.38</ele>
        <time>2010-09-26T09:32:50Z</time>
      </trkpt>
      <trkpt lat="43.9666" lon="1.58403">
        <ele>180.87</ele>
        <time>2010-09-26T09:32:51Z</time>
      </trkpt>
      <trkpt lat="43.96661" lon="1.58406">
        <ele>180.87</ele>
        <time>2010-09-26T09:32:52Z</time>
      </trkpt>
      <trkpt lat="43.96662" lon="1.58409">
        <ele>180.38</ele>
        <time>2010-09-26T09:32:53Z</time>
      </trkpt>
      <trkpt lat="43.96663" lon="1.58412">
        <ele>180.87</ele>
        <time>2010-09-26T09:32:54Z</time>
      </trkpt>
      <trkpt lat="43.96664" lon="1.58416">
        <ele>180.87</ele>
        <time>2010-09-26T09:32:56Z</time>
      </trkpt>
      <trkpt lat="43.96675" lon="1.58428">
        <ele>181.83</ele>
        <time>2010-09-26T09:33:04Z</time>
      </trkpt>
      <trkpt lat="43.96674" lon="1.58438">
        <ele>181.35</ele>
        <time>2010-09-26T09:33:08Z</time>
      </trkpt>
      <trkpt lat="43.96672" lon="1.58441">
        <ele>181.35</ele>
        <time>2010-09-26T09:33:09Z</time>
      </trkpt>
      <trkpt lat="43.96671" lon="1.58442">
        <ele>181.35</ele>
        <time>2010-09-26T09:33:10Z</time>
      </trkpt>
      <trkpt lat="43.96649" lon="1.58447">
        <ele>179.9</ele>
        <time>2010-09-26T09:33:19Z</time>
      </trkpt>
      <trkpt lat="43.96648" lon="1.58449">
        <ele>179.9</ele>
        <time>2010-09-26T09:33:20Z</time>
      </trkpt>
      <trkpt lat="43.96647" lon="1.58451">
        <ele>179.42</ele>
        <time>2010-09-26T09:33:21Z</time>
      </trkpt>
      <trkpt lat="43.96648" lon="1.58453">
        <ele>179.42</ele>
        <time>2010-09-26T09:33:22Z</time>
      </trkpt>
      <trkpt lat="43.96651" lon="1.58459">
        <ele>180.38</ele>
        <time>2010-09-26T09:33:25Z</time>
      </trkpt>
      <trkpt lat="43.96652" lon="1.58462">
        <ele>180.38</ele>
        <time>2010-09-26T09:33:26Z</time>
      </trkpt>
      <trkpt lat="43.96653" lon="1.58464">
        <ele>179.9</ele>
        <time>2010-09-26T09:33:27Z</time>
      </trkpt>
      <trkpt lat="43.96654" lon="1.58467">
        <ele>180.38</ele>
        <time>2010-09-26T09:33:28Z</time>
      </trkpt>
      <trkpt lat="43.96655" lon="1.5847">
        <ele>180.87</ele>
        <time>2010-09-26T09:33:29Z</time>
      </trkpt>
      <trkpt lat="43.96656" lon="1.58473">
        <ele>180.87</ele>
        <time>2010-09-26T09:33:30Z</time>
      </trkpt>
      <trkpt lat="43.9667" lon="1.58506">
        <ele>183.27</ele>
        <time>2010-09-26T09:33:42Z</time>
      </trkpt>
      <trkpt lat="43.96669" lon="1.58509">
        <ele>183.27</ele>
        <time>2010-09-26T09:33:43Z</time>
      </trkpt>
      <trkpt lat="43.9667" lon="1.58511">
        <ele>183.27</ele>
        <time>2010-09-26T09:33:44Z</time>
      </trkpt>
      <trkpt lat="43.96673" lon="1.58518">
        <ele>183.75</ele>
        <time>2010-09-26T09:33:47Z</time>
      </trkpt>
      <trkpt lat="43.96675" lon="1.5852">
        <ele>184.23</ele>
        <time>2010-09-26T09:33:48Z</time>
      </trkpt>
      <trkpt lat="43.96682" lon="1.58532">
        <ele>185.67</ele>
        <time>2010-09-26T09:33:54Z</time>
      </trkpt>
      <trkpt lat="43.96684" lon="1.58533">
        <ele>187.11</ele>
        <time>2010-09-26T09:33:55Z</time>
      </trkpt>
      <trkpt lat="43.96706" lon="1.58566">
        <ele>190</ele>
        <time>2010-09-26T09:34:06Z</time>
      </trkpt>
      <trkpt lat="43.96729" lon="1.58577">
        <ele>189.04</ele>
        <time>2010-09-26T09:34:19Z</time>
      </trkpt>
      <trkpt lat="43.96772" lon="1.58577">
        <ele>186.63</ele>
        <time>2010-09-26T09:34:30Z</time>
      </trkpt>
      <trkpt lat="43.96791" lon="1.58579">
        <ele>184.71</ele>
        <time>2010-09-26T09:34:34Z</time>
      </trkpt>
      <trkpt lat="43.96815" lon="1.58591">
        <ele>181.35</ele>
        <time>2010-09-26T09:34:42Z</time>
      </trkpt>
      <trkpt lat="43.96826" lon="1.58623">
        <ele>180.87</ele>
        <time>2010-09-26T09:34:52Z</time>
      </trkpt>
      <trkpt lat="43.96832" lon="1.58628">
        <ele>180.87</ele>
        <time>2010-09-26T09:34:54Z</time>
      </trkpt>
      <trkpt lat="43.96836" lon="1.58628">
        <ele>180.38</ele>
        <time>2010-09-26T09:34:55Z</time>
      </trkpt>
      <trkpt lat="43.9684" lon="1.58627">
        <ele>179.9</ele>
        <time>2010-09-26T09:34:56Z</time>
      </trkpt>
      <trkpt lat="43.96844" lon="1.58624">
        <ele>180.38</ele>
        <time>2010-09-26T09:34:57Z</time>
      </trkpt>
      <trkpt lat="43.96847" lon="1.58621">
        <ele>180.87</ele>
        <time>2010-09-26T09:34:58Z</time>
      </trkpt>
      <trkpt lat="43.9685" lon="1.58619">
        <ele>180.38</ele>
        <time>2010-09-26T09:34:59Z</time>
      </trkpt>
      <trkpt lat="43.96854" lon="1.58618">
        <ele>180.38</ele>
        <time>2010-09-26T09:35:00Z</time>
      </trkpt>
      <trkpt lat="43.96858" lon="1.58618">
        <ele>179.9</ele>
        <time>2010-09-26T09:35:01Z</time>
      </trkpt>
      <trkpt lat="43.96863" lon="1.58618">
        <ele>180.38</ele>
        <time>2010-09-26T09:35:02Z</time>
      </trkpt>
      <trkpt lat="43.96867" lon="1.58619">
        <ele>179.42</ele>
        <time>2010-09-26T09:35:03Z</time>
      </trkpt>
      <trkpt lat="43.96871" lon="1.58621">
        <ele>179.42</ele>
        <time>2010-09-26T09:35:04Z</time>
      </trkpt>
      <trkpt lat="43.96875" lon="1.58623">
        <ele>180.38</ele>
        <time>2010-09-26T09:35:05Z</time>
      </trkpt>
      <trkpt lat="43.96879" lon="1.58626">
        <ele>179.9</ele>
        <time>2010-09-26T09:35:06Z</time>
      </trkpt>
      <trkpt lat="43.96893" lon="1.58638">
        <ele>180.87</ele>
        <time>2010-09-26T09:35:10Z</time>
      </trkpt>
      <trkpt lat="43.96897" lon="1.5864">
        <ele>179.9</ele>
        <time>2010-09-26T09:35:11Z</time>
      </trkpt>
      <trkpt lat="43.96901" lon="1.58642">
        <ele>180.38</ele>
        <time>2010-09-26T09:35:12Z</time>
      </trkpt>
      <trkpt lat="43.96942" lon="1.58665">
        <ele>182.79</ele>
        <time>2010-09-26T09:35:25Z</time>
      </trkpt>
      <trkpt lat="43.96977" lon="1.58693">
        <ele>185.19</ele>
        <time>2010-09-26T09:35:39Z</time>
      </trkpt>
      <trkpt lat="43.97017" lon="1.58735">
        <ele>188.08</ele>
        <time>2010-09-26T09:35:55Z</time>
      </trkpt>
      <trkpt lat="43.97045" lon="1.58782">
        <ele>190.48</ele>
        <time>2010-09-26T09:36:10Z</time>
      </trkpt>
      <trkpt lat="43.97069" lon="1.58811">
        <ele>191.92</ele>
        <time>2010-09-26T09:36:20Z</time>
      </trkpt>
      <trkpt lat="43.97093" lon="1.58847">
        <ele>193.84</ele>
        <time>2010-09-26T09:36:31Z</time>
      </trkpt>
      <trkpt lat="43.9713" lon="1.58909">
        <ele>195.28</ele>
        <time>2010-09-26T09:36:46Z</time>
      </trkpt>
      <trkpt lat="43.97168" lon="1.5898">
        <ele>193.36</ele>
        <time>2010-09-26T09:36:59Z</time>
      </trkpt>
      <trkpt lat="43.97219" lon="1.59086">
        <ele>193.36</ele>
        <time>2010-09-26T09:37:15Z</time>
      </trkpt>
      <trkpt lat="43.97246" lon="1.59154">
        <ele>196.73</ele>
        <time>2010-09-26T09:37:29Z</time>
      </trkpt>
      <trkpt lat="43.97253" lon="1.59205">
        <ele>198.65</ele>
        <time>2010-09-26T09:37:41Z</time>
      </trkpt>
      <trkpt lat="43.97253" lon="1.59209">
        <ele>199.13</ele>
        <time>2010-09-26T09:37:42Z</time>
      </trkpt>
      <trkpt lat="43.97253" lon="1.59213">
        <ele>199.61</ele>
        <time>2010-09-26T09:37:43Z</time>
      </trkpt>
      <trkpt lat="43.97253" lon="1.59217">
        <ele>199.61</ele>
        <time>2010-09-26T09:37:44Z</time>
      </trkpt>
      <trkpt lat="43.97253" lon="1.59221">
        <ele>200.09</ele>
        <time>2010-09-26T09:37:45Z</time>
      </trkpt>
      <trkpt lat="43.97254" lon="1.59225">
        <ele>200.57</ele>
        <time>2010-09-26T09:37:46Z</time>
      </trkpt>
      <trkpt lat="43.97255" lon="1.59229">
        <ele>200.57</ele>
        <time>2010-09-26T09:37:47Z</time>
      </trkpt>
      <trkpt lat="43.97257" lon="1.59284">
        <ele>203.94</ele>
        <time>2010-09-26T09:38:00Z</time>
      </trkpt>
      <trkpt lat="43.97266" lon="1.59334">
        <ele>205.86</ele>
        <time>2010-09-26T09:38:12Z</time>
      </trkpt>
      <trkpt lat="43.97284" lon="1.59402">
        <ele>208.26</ele>
        <time>2010-09-26T09:38:28Z</time>
      </trkpt>
      <trkpt lat="43.97305" lon="1.59485">
        <ele>209.7</ele>
        <time>2010-09-26T09:38:46Z</time>
      </trkpt>
      <trkpt lat="43.97311" lon="1.59513">
        <ele>209.7</ele>
        <time>2010-09-26T09:38:51Z</time>
      </trkpt>
      <trkpt lat="43.97327" lon="1.59572">
        <ele>209.7</ele>
        <time>2010-09-26T09:39:01Z</time>
      </trkpt>
      <trkpt lat="43.97329" lon="1.59578">
        <ele>210.19</ele>
        <time>2010-09-26T09:39:02Z</time>
      </trkpt>
      <trkpt lat="43.97345" lon="1.59635">
        <ele>210.19</ele>
        <time>2010-09-26T09:39:11Z</time>
      </trkpt>
      <trkpt lat="43.97346" lon="1.59642">
        <ele>210.19</ele>
        <time>2010-09-26T09:39:12Z</time>
      </trkpt>
      <trkpt lat="43.97362" lon="1.59748">
        <ele>209.7</ele>
        <time>2010-09-26T09:39:27Z</time>
      </trkpt>
      <trkpt lat="43.9736" lon="1.59763">
        <ele>210.19</ele>
        <time>2010-09-26T09:39:29Z</time>
      </trkpt>
      <trkpt lat="43.97356" lon="1.59783">
        <ele>210.19</ele>
        <time>2010-09-26T09:39:32Z</time>
      </trkpt>
      <trkpt lat="43.97353" lon="1.5979">
        <ele>210.19</ele>
        <time>2010-09-26T09:39:33Z</time>
      </trkpt>
      <trkpt lat="43.97347" lon="1.59808">
        <ele>210.67</ele>
        <time>2010-09-26T09:39:36Z</time>
      </trkpt>
      <trkpt lat="43.97341" lon="1.59819">
        <ele>211.15</ele>
        <time>2010-09-26T09:39:38Z</time>
      </trkpt>
      <trkpt lat="43.97332" lon="1.59836">
        <ele>211.63</ele>
        <time>2010-09-26T09:39:41Z</time>
      </trkpt>
      <trkpt lat="43.97281" lon="1.59921">
        <ele>214.03</ele>
        <time>2010-09-26T09:39:58Z</time>
      </trkpt>
      <trkpt lat="43.97267" lon="1.59948">
        <ele>214.03</ele>
        <time>2010-09-26T09:40:03Z</time>
      </trkpt>
      <trkpt lat="43.97257" lon="1.59979">
        <ele>214.99</ele>
        <time>2010-09-26T09:40:08Z</time>
      </trkpt>
      <trkpt lat="43.97241" lon="1.60043">
        <ele>215.47</ele>
        <time>2010-09-26T09:40:18Z</time>
      </trkpt>
      <trkpt lat="43.9724" lon="1.60049">
        <ele>215.47</ele>
        <time>2010-09-26T09:40:19Z</time>
      </trkpt>
      <trkpt lat="43.97226" lon="1.60118">
        <ele>216.91</ele>
        <time>2010-09-26T09:40:30Z</time>
      </trkpt>
      <trkpt lat="43.97226" lon="1.60125">
        <ele>216.91</ele>
        <time>2010-09-26T09:40:31Z</time>
      </trkpt>
      <trkpt lat="43.97232" lon="1.60232">
        <ele>217.88</ele>
        <time>2010-09-26T09:40:47Z</time>
      </trkpt>
      <trkpt lat="43.97234" lon="1.6026">
        <ele>217.88</ele>
        <time>2010-09-26T09:40:51Z</time>
      </trkpt>
      <trkpt lat="43.97235" lon="1.60267">
        <ele>217.88</ele>
        <time>2010-09-26T09:40:52Z</time>
      </trkpt>
      <trkpt lat="43.97245" lon="1.60374">
        <ele>218.84</ele>
        <time>2010-09-26T09:41:08Z</time>
      </trkpt>
      <trkpt lat="43.97266" lon="1.60498">
        <ele>221.24</ele>
        <time>2010-09-26T09:41:27Z</time>
      </trkpt>
      <trkpt lat="43.97294" lon="1.60633">
        <ele>222.2</ele>
        <time>2010-09-26T09:41:47Z</time>
      </trkpt>
      <trkpt lat="43.973" lon="1.60662">
        <ele>221.72</ele>
        <time>2010-09-26T09:41:51Z</time>
      </trkpt>
      <trkpt lat="43.97301" lon="1.60669">
        <ele>221.72</ele>
        <time>2010-09-26T09:41:52Z</time>
      </trkpt>
      <trkpt lat="43.97323" lon="1.60761">
        <ele>221.24</ele>
        <time>2010-09-26T09:42:04Z</time>
      </trkpt>
      <trkpt lat="43.97326" lon="1.60768">
        <ele>221.24</ele>
        <time>2010-09-26T09:42:05Z</time>
      </trkpt>
      <trkpt lat="43.9733" lon="1.60775">
        <ele>221.24</ele>
        <time>2010-09-26T09:42:06Z</time>
      </trkpt>
      <trkpt lat="43.97339" lon="1.60788">
        <ele>221.24</ele>
        <time>2010-09-26T09:42:08Z</time>
      </trkpt>
      <trkpt lat="43.97433" lon="1.60895">
        <ele>220.76</ele>
        <time>2010-09-26T09:42:28Z</time>
      </trkpt>
      <trkpt lat="43.97508" lon="1.60983">
        <ele>221.72</ele>
        <time>2010-09-26T09:42:46Z</time>
      </trkpt>
      <trkpt lat="43.97597" lon="1.61072">
        <ele>223.16</ele>
        <time>2010-09-26T09:43:06Z</time>
      </trkpt>
      <trkpt lat="43.97669" lon="1.61123">
        <ele>221.72</ele>
        <time>2010-09-26T09:43:20Z</time>
      </trkpt>
      <trkpt lat="43.97674" lon="1.61127">
        <ele>221.24</ele>
        <time>2010-09-26T09:43:21Z</time>
      </trkpt>
      <trkpt lat="43.97679" lon="1.61132">
        <ele>221.24</ele>
        <time>2010-09-26T09:43:22Z</time>
      </trkpt>
      <trkpt lat="43.97697" lon="1.61154">
        <ele>219.8</ele>
        <time>2010-09-26T09:43:26Z</time>
      </trkpt>
      <trkpt lat="43.97702" lon="1.61161">
        <ele>219.8</ele>
        <time>2010-09-26T09:43:27Z</time>
      </trkpt>
      <trkpt lat="43.97724" lon="1.61196">
        <ele>218.36</ele>
        <time>2010-09-26T09:43:32Z</time>
      </trkpt>
      <trkpt lat="43.97729" lon="1.61204">
        <ele>217.88</ele>
        <time>2010-09-26T09:43:33Z</time>
      </trkpt>
      <trkpt lat="43.97784" lon="1.61274">
        <ele>215.47</ele>
        <time>2010-09-26T09:43:44Z</time>
      </trkpt>
      <trkpt lat="43.9779" lon="1.61277">
        <ele>215.47</ele>
        <time>2010-09-26T09:43:45Z</time>
      </trkpt>
      <trkpt lat="43.97796" lon="1.6128">
        <ele>215.47</ele>
        <time>2010-09-26T09:43:46Z</time>
      </trkpt>
      <trkpt lat="43.97879" lon="1.61285">
        <ele>214.51</ele>
        <time>2010-09-26T09:43:59Z</time>
      </trkpt>
      <trkpt lat="43.97981" lon="1.61253">
        <ele>215.95</ele>
        <time>2010-09-26T09:44:16Z</time>
      </trkpt>
      <trkpt lat="43.98066" lon="1.61225">
        <ele>216.91</ele>
        <time>2010-09-26T09:44:32Z</time>
      </trkpt>
      <trkpt lat="43.98089" lon="1.61222">
        <ele>217.4</ele>
        <time>2010-09-26T09:44:36Z</time>
      </trkpt>
      <trkpt lat="43.98095" lon="1.61223">
        <ele>217.4</ele>
        <time>2010-09-26T09:44:37Z</time>
      </trkpt>
      <trkpt lat="43.981" lon="1.61224">
        <ele>217.4</ele>
        <time>2010-09-26T09:44:38Z</time>
      </trkpt>
      <trkpt lat="43.98126" lon="1.61237">
        <ele>217.88</ele>
        <time>2010-09-26T09:44:43Z</time>
      </trkpt>
      <trkpt lat="43.98188" lon="1.61295">
        <ele>219.32</ele>
        <time>2010-09-26T09:44:58Z</time>
      </trkpt>
      <trkpt lat="43.9819" lon="1.61301">
        <ele>219.32</ele>
        <time>2010-09-26T09:44:59Z</time>
      </trkpt>
      <trkpt lat="43.98202" lon="1.6133">
        <ele>220.76</ele>
        <time>2010-09-26T09:45:04Z</time>
      </trkpt>
      <trkpt lat="43.98204" lon="1.61336">
        <ele>220.76</ele>
        <time>2010-09-26T09:45:05Z</time>
      </trkpt>
      <trkpt lat="43.98206" lon="1.61342">
        <ele>221.24</ele>
        <time>2010-09-26T09:45:06Z</time>
      </trkpt>
      <trkpt lat="43.98208" lon="1.61348">
        <ele>221.24</ele>
        <time>2010-09-26T09:45:07Z</time>
      </trkpt>
      <trkpt lat="43.9821" lon="1.61354">
        <ele>221.72</ele>
        <time>2010-09-26T09:45:08Z</time>
      </trkpt>
      <trkpt lat="43.98213" lon="1.61359">
        <ele>221.24</ele>
        <time>2010-09-26T09:45:09Z</time>
      </trkpt>
      <trkpt lat="43.98235" lon="1.61411">
        <ele>222.68</ele>
        <time>2010-09-26T09:45:18Z</time>
      </trkpt>
      <trkpt lat="43.98264" lon="1.61459">
        <ele>223.16</ele>
        <time>2010-09-26T09:45:29Z</time>
      </trkpt>
      <trkpt lat="43.98267" lon="1.61464">
        <ele>223.64</ele>
        <time>2010-09-26T09:45:30Z</time>
      </trkpt>
      <trkpt lat="43.98291" lon="1.61504">
        <ele>223.64</ele>
        <time>2010-09-26T09:45:38Z</time>
      </trkpt>
      <trkpt lat="43.98295" lon="1.61509">
        <ele>223.64</ele>
        <time>2010-09-26T09:45:39Z</time>
      </trkpt>
      <trkpt lat="43.98298" lon="1.61515">
        <ele>223.64</ele>
        <time>2010-09-26T09:45:40Z</time>
      </trkpt>
      <trkpt lat="43.98353" lon="1.61601">
        <ele>224.61</ele>
        <time>2010-09-26T09:45:56Z</time>
      </trkpt>
      <trkpt lat="43.98378" lon="1.61641">
        <ele>224.12</ele>
        <time>2010-09-26T09:46:03Z</time>
      </trkpt>
      <trkpt lat="43.98414" lon="1.61737">
        <ele>224.61</ele>
        <time>2010-09-26T09:46:17Z</time>
      </trkpt>
      <trkpt lat="43.98423" lon="1.61767">
        <ele>225.09</ele>
        <time>2010-09-26T09:46:21Z</time>
      </trkpt>
      <trkpt lat="43.98467" lon="1.61904">
        <ele>225.09</ele>
        <time>2010-09-26T09:46:39Z</time>
      </trkpt>
      <trkpt lat="43.98517" lon="1.62061">
        <ele>225.09</ele>
        <time>2010-09-26T09:46:59Z</time>
      </trkpt>
      <trkpt lat="43.9856" lon="1.62197">
        <ele>226.05</ele>
        <time>2010-09-26T09:47:16Z</time>
      </trkpt>
      <trkpt lat="43.98587" lon="1.62275">
        <ele>226.05</ele>
        <time>2010-09-26T09:47:26Z</time>
      </trkpt>
      <trkpt lat="43.98591" lon="1.62281">
        <ele>226.05</ele>
        <time>2010-09-26T09:47:27Z</time>
      </trkpt>
      <trkpt lat="43.98595" lon="1.62287">
        <ele>225.57</ele>
        <time>2010-09-26T09:47:28Z</time>
      </trkpt>
      <trkpt lat="43.986" lon="1.62293">
        <ele>226.05</ele>
        <time>2010-09-26T09:47:29Z</time>
      </trkpt>
      <trkpt lat="43.98605" lon="1.62298">
        <ele>225.57</ele>
        <time>2010-09-26T09:47:30Z</time>
      </trkpt>
      <trkpt lat="43.9861" lon="1.62302">
        <ele>225.57</ele>
        <time>2010-09-26T09:47:31Z</time>
      </trkpt>
      <trkpt lat="43.98678" lon="1.62339">
        <ele>227.97</ele>
        <time>2010-09-26T09:47:45Z</time>
      </trkpt>
      <trkpt lat="43.98736" lon="1.62368">
        <ele>229.41</ele>
        <time>2010-09-26T09:47:58Z</time>
      </trkpt>
      <trkpt lat="43.98786" lon="1.62396">
        <ele>231.33</ele>
        <time>2010-09-26T09:48:10Z</time>
      </trkpt>
      <trkpt lat="43.98854" lon="1.62432">
        <ele>233.74</ele>
        <time>2010-09-26T09:48:25Z</time>
      </trkpt>
      <trkpt lat="43.98892" lon="1.62452">
        <ele>234.22</ele>
        <time>2010-09-26T09:48:34Z</time>
      </trkpt>
      <trkpt lat="43.98897" lon="1.62454">
        <ele>233.74</ele>
        <time>2010-09-26T09:48:35Z</time>
      </trkpt>
      <trkpt lat="43.9892" lon="1.62467">
        <ele>233.26</ele>
        <time>2010-09-26T09:48:40Z</time>
      </trkpt>
      <trkpt lat="43.98962" lon="1.62491">
        <ele>232.78</ele>
        <time>2010-09-26T09:48:49Z</time>
      </trkpt>
      <trkpt lat="43.98966" lon="1.62494">
        <ele>232.3</ele>
        <time>2010-09-26T09:48:50Z</time>
      </trkpt>
      <trkpt lat="43.99022" lon="1.62555">
        <ele>230.85</ele>
        <time>2010-09-26T09:49:03Z</time>
      </trkpt>
      <trkpt lat="43.99096" lon="1.62649">
        <ele>228.93</ele>
        <time>2010-09-26T09:49:18Z</time>
      </trkpt>
      <trkpt lat="43.99166" lon="1.62699">
        <ele>228.93</ele>
        <time>2010-09-26T09:49:30Z</time>
      </trkpt>
      <trkpt lat="43.99221" lon="1.62736">
        <ele>229.89</ele>
        <time>2010-09-26T09:49:41Z</time>
      </trkpt>
      <trkpt lat="43.99232" lon="1.62743">
        <ele>229.89</ele>
        <time>2010-09-26T09:49:43Z</time>
      </trkpt>
      <trkpt lat="43.99301" lon="1.62788">
        <ele>233.26</ele>
        <time>2010-09-26T09:49:56Z</time>
      </trkpt>
      <trkpt lat="43.9935" lon="1.62817">
        <ele>234.22</ele>
        <time>2010-09-26T09:50:06Z</time>
      </trkpt>
      <trkpt lat="43.99423" lon="1.62821">
        <ele>235.18</ele>
        <time>2010-09-26T09:50:21Z</time>
      </trkpt>
      <trkpt lat="43.99451" lon="1.62828">
        <ele>236.14</ele>
        <time>2010-09-26T09:50:27Z</time>
      </trkpt>
      <trkpt lat="43.99464" lon="1.62834">
        <ele>236.62</ele>
        <time>2010-09-26T09:50:30Z</time>
      </trkpt>
      <trkpt lat="43.99468" lon="1.62836">
        <ele>237.1</ele>
        <time>2010-09-26T09:50:31Z</time>
      </trkpt>
      <trkpt lat="43.99471" lon="1.62839">
        <ele>237.1</ele>
        <time>2010-09-26T09:50:32Z</time>
      </trkpt>
      <trkpt lat="43.99474" lon="1.62841">
        <ele>237.1</ele>
        <time>2010-09-26T09:50:33Z</time>
      </trkpt>
      <trkpt lat="43.99477" lon="1.62843">
        <ele>237.58</ele>
        <time>2010-09-26T09:50:34Z</time>
      </trkpt>
      <trkpt lat="43.99513" lon="1.62874">
        <ele>238.54</ele>
        <time>2010-09-26T09:50:46Z</time>
      </trkpt>
      <trkpt lat="43.99517" lon="1.62878">
        <ele>238.54</ele>
        <time>2010-09-26T09:50:47Z</time>
      </trkpt>
      <trkpt lat="43.9952" lon="1.62881">
        <ele>238.54</ele>
        <time>2010-09-26T09:50:48Z</time>
      </trkpt>
      <trkpt lat="43.99543" lon="1.629">
        <ele>239.99</ele>
        <time>2010-09-26T09:50:54Z</time>
      </trkpt>
      <trkpt lat="43.99562" lon="1.62914">
        <ele>239.99</ele>
        <time>2010-09-26T09:50:59Z</time>
      </trkpt>
      <trkpt lat="43.99602" lon="1.62948">
        <ele>241.43</ele>
        <time>2010-09-26T09:51:11Z</time>
      </trkpt>
      <trkpt lat="43.99606" lon="1.62951">
        <ele>241.43</ele>
        <time>2010-09-26T09:51:12Z</time>
      </trkpt>
      <trkpt lat="43.99635" lon="1.62977">
        <ele>241.91</ele>
        <time>2010-09-26T09:51:20Z</time>
      </trkpt>
      <trkpt lat="43.99638" lon="1.62981">
        <ele>242.39</ele>
        <time>2010-09-26T09:51:21Z</time>
      </trkpt>
      <trkpt lat="43.99642" lon="1.62984">
        <ele>242.39</ele>
        <time>2010-09-26T09:51:22Z</time>
      </trkpt>
      <trkpt lat="43.99681" lon="1.63018">
        <ele>243.83</ele>
        <time>2010-09-26T09:51:32Z</time>
      </trkpt>
      <trkpt lat="43.99684" lon="1.63022">
        <ele>244.31</ele>
        <time>2010-09-26T09:51:33Z</time>
      </trkpt>
      <trkpt lat="43.99694" lon="1.63037">
        <ele>244.31</ele>
        <time>2010-09-26T09:51:36Z</time>
      </trkpt>
      <trkpt lat="43.99697" lon="1.63042">
        <ele>244.79</ele>
        <time>2010-09-26T09:51:37Z</time>
      </trkpt>
      <trkpt lat="43.99719" lon="1.63137">
        <ele>246.72</ele>
        <time>2010-09-26T09:51:52Z</time>
      </trkpt>
      <trkpt lat="43.99733" lon="1.63203">
        <ele>246.72</ele>
        <time>2010-09-26T09:52:05Z</time>
      </trkpt>
      <trkpt lat="43.99734" lon="1.63209">
        <ele>246.72</ele>
        <time>2010-09-26T09:52:06Z</time>
      </trkpt>
      <trkpt lat="43.99745" lon="1.63254">
        <ele>245.75</ele>
        <time>2010-09-26T09:52:13Z</time>
      </trkpt>
      <trkpt lat="43.99746" lon="1.63261">
        <ele>245.75</ele>
        <time>2010-09-26T09:52:14Z</time>
      </trkpt>
      <trkpt lat="43.99748" lon="1.63267">
        <ele>245.75</ele>
        <time>2010-09-26T09:52:15Z</time>
      </trkpt>
      <trkpt lat="43.99762" lon="1.63344">
        <ele>242.39</ele>
        <time>2010-09-26T09:52:25Z</time>
      </trkpt>
      <trkpt lat="43.99764" lon="1.63353">
        <ele>241.91</ele>
        <time>2010-09-26T09:52:26Z</time>
      </trkpt>
      <trkpt lat="43.99769" lon="1.63379">
        <ele>241.43</ele>
        <time>2010-09-26T09:52:29Z</time>
      </trkpt>
      <trkpt lat="43.99771" lon="1.63388">
        <ele>240.95</ele>
        <time>2010-09-26T09:52:30Z</time>
      </trkpt>
      <trkpt lat="43.99774" lon="1.63397">
        <ele>240.47</ele>
        <time>2010-09-26T09:52:31Z</time>
      </trkpt>
      <trkpt lat="43.99785" lon="1.63422">
        <ele>239.51</ele>
        <time>2010-09-26T09:52:34Z</time>
      </trkpt>
      <trkpt lat="43.9979" lon="1.6343">
        <ele>239.51</ele>
        <time>2010-09-26T09:52:35Z</time>
      </trkpt>
      <trkpt lat="43.99795" lon="1.63436">
        <ele>239.02</ele>
        <time>2010-09-26T09:52:36Z</time>
      </trkpt>
      <trkpt lat="43.99801" lon="1.63442">
        <ele>238.54</ele>
        <time>2010-09-26T09:52:37Z</time>
      </trkpt>
      <trkpt lat="43.99808" lon="1.63446">
        <ele>238.54</ele>
        <time>2010-09-26T09:52:38Z</time>
      </trkpt>
      <trkpt lat="43.99815" lon="1.63449">
        <ele>238.54</ele>
        <time>2010-09-26T09:52:39Z</time>
      </trkpt>
      <trkpt lat="43.99821" lon="1.63451">
        <ele>238.54</ele>
        <time>2010-09-26T09:52:40Z</time>
      </trkpt>
      <trkpt lat="43.99828" lon="1.63453">
        <ele>237.58</ele>
        <time>2010-09-26T09:52:41Z</time>
      </trkpt>
      <trkpt lat="43.99899" lon="1.63456">
        <ele>238.54</ele>
        <time>2010-09-26T09:52:52Z</time>
      </trkpt>
      <trkpt lat="44.00014" lon="1.63456">
        <ele>235.18</ele>
        <time>2010-09-26T09:53:06Z</time>
      </trkpt>
      <trkpt lat="44.00058" lon="1.63461">
        <ele>236.14</ele>
        <time>2010-09-26T09:53:12Z</time>
      </trkpt>
      <trkpt lat="44.00065" lon="1.63463">
        <ele>236.62</ele>
        <time>2010-09-26T09:53:13Z</time>
      </trkpt>
      <trkpt lat="44.00071" lon="1.63466">
        <ele>236.62</ele>
        <time>2010-09-26T09:53:14Z</time>
      </trkpt>
      <trkpt lat="44.00077" lon="1.63469">
        <ele>236.62</ele>
        <time>2010-09-26T09:53:15Z</time>
      </trkpt>
      <trkpt lat="44.00082" lon="1.63472">
        <ele>237.1</ele>
        <time>2010-09-26T09:53:16Z</time>
      </trkpt>
      <trkpt lat="44.00088" lon="1.63477">
        <ele>237.1</ele>
        <time>2010-09-26T09:53:17Z</time>
      </trkpt>
      <trkpt lat="44.00099" lon="1.63486">
        <ele>237.1</ele>
        <time>2010-09-26T09:53:19Z</time>
      </trkpt>
      <trkpt lat="44.00105" lon="1.63492">
        <ele>237.1</ele>
        <time>2010-09-26T09:53:20Z</time>
      </trkpt>
      <trkpt lat="44.00182" lon="1.6358">
        <ele>235.66</ele>
        <time>2010-09-26T09:53:34Z</time>
      </trkpt>
      <trkpt lat="44.00236" lon="1.63642">
        <ele>235.18</ele>
        <time>2010-09-26T09:53:44Z</time>
      </trkpt>
      <trkpt lat="44.00242" lon="1.63647">
        <ele>235.18</ele>
        <time>2010-09-26T09:53:45Z</time>
      </trkpt>
      <trkpt lat="44.00249" lon="1.63651">
        <ele>235.18</ele>
        <time>2010-09-26T09:53:46Z</time>
      </trkpt>
      <trkpt lat="44.00256" lon="1.63656">
        <ele>234.22</ele>
        <time>2010-09-26T09:53:47Z</time>
      </trkpt>
      <trkpt lat="44.00263" lon="1.63659">
        <ele>233.74</ele>
        <time>2010-09-26T09:53:48Z</time>
      </trkpt>
      <trkpt lat="44.00271" lon="1.63661">
        <ele>233.26</ele>
        <time>2010-09-26T09:53:49Z</time>
      </trkpt>
      <trkpt lat="44.0028" lon="1.63662">
        <ele>233.26</ele>
        <time>2010-09-26T09:53:50Z</time>
      </trkpt>
      <trkpt lat="44.00341" lon="1.63666">
        <ele>230.37</ele>
        <time>2010-09-26T09:53:57Z</time>
      </trkpt>
      <trkpt lat="44.00417" lon="1.63676">
        <ele>229.89</ele>
        <time>2010-09-26T09:54:06Z</time>
      </trkpt>
      <trkpt lat="44.00493" lon="1.6372">
        <ele>232.3</ele>
        <time>2010-09-26T09:54:18Z</time>
      </trkpt>
      <trkpt lat="44.00556" lon="1.6375">
        <ele>234.22</ele>
        <time>2010-09-26T09:54:31Z</time>
      </trkpt>
      <trkpt lat="44.00571" lon="1.63753">
        <ele>234.7</ele>
        <time>2010-09-26T09:54:34Z</time>
      </trkpt>
      <trkpt lat="44.00648" lon="1.63754">
        <ele>234.22</ele>
        <time>2010-09-26T09:54:48Z</time>
      </trkpt>
      <trkpt lat="44.0071" lon="1.63756">
        <ele>231.81</ele>
        <time>2010-09-26T09:54:58Z</time>
      </trkpt>
      <trkpt lat="44.0074" lon="1.6376">
        <ele>230.37</ele>
        <time>2010-09-26T09:55:02Z</time>
      </trkpt>
      <trkpt lat="44.00804" lon="1.63773">
        <ele>227.01</ele>
        <time>2010-09-26T09:55:10Z</time>
      </trkpt>
      <trkpt lat="44.00813" lon="1.63774">
        <ele>226.53</ele>
        <time>2010-09-26T09:55:11Z</time>
      </trkpt>
      <trkpt lat="44.00857" lon="1.63779">
        <ele>224.12</ele>
        <time>2010-09-26T09:55:16Z</time>
      </trkpt>
      <trkpt lat="44.00866" lon="1.63778">
        <ele>223.64</ele>
        <time>2010-09-26T09:55:17Z</time>
      </trkpt>
      <trkpt lat="44.0095" lon="1.6374">
        <ele>223.64</ele>
        <time>2010-09-26T09:55:26Z</time>
      </trkpt>
      <trkpt lat="44.00973" lon="1.63727">
        <ele>224.12</ele>
        <time>2010-09-26T09:55:29Z</time>
      </trkpt>
      <trkpt lat="44.01034" lon="1.63699">
        <ele>227.49</ele>
        <time>2010-09-26T09:55:38Z</time>
      </trkpt>
      <trkpt lat="44.01055" lon="1.6369">
        <ele>228.45</ele>
        <time>2010-09-26T09:55:42Z</time>
      </trkpt>
      <trkpt lat="44.01064" lon="1.63687">
        <ele>228.45</ele>
        <time>2010-09-26T09:55:44Z</time>
      </trkpt>
      <trkpt lat="44.01069" lon="1.63685">
        <ele>228.93</ele>
        <time>2010-09-26T09:55:45Z</time>
      </trkpt>
      <trkpt lat="44.01074" lon="1.63683">
        <ele>228.93</ele>
        <time>2010-09-26T09:55:46Z</time>
      </trkpt>
      <trkpt lat="44.01099" lon="1.63676">
        <ele>228.93</ele>
        <time>2010-09-26T09:55:51Z</time>
      </trkpt>
      <trkpt lat="44.0113" lon="1.63666">
        <ele>227.49</ele>
        <time>2010-09-26T09:55:57Z</time>
      </trkpt>
      <trkpt lat="44.01182" lon="1.63651">
        <ele>225.57</ele>
        <time>2010-09-26T09:56:05Z</time>
      </trkpt>
      <trkpt lat="44.01189" lon="1.6365">
        <ele>225.57</ele>
        <time>2010-09-26T09:56:06Z</time>
      </trkpt>
      <trkpt lat="44.01204" lon="1.63645">
        <ele>224.61</ele>
        <time>2010-09-26T09:56:08Z</time>
      </trkpt>
      <trkpt lat="44.01211" lon="1.63641">
        <ele>224.61</ele>
        <time>2010-09-26T09:56:09Z</time>
      </trkpt>
      <trkpt lat="44.01219" lon="1.63635">
        <ele>224.12</ele>
        <time>2010-09-26T09:56:10Z</time>
      </trkpt>
      <trkpt lat="44.01226" lon="1.63629">
        <ele>224.12</ele>
        <time>2010-09-26T09:56:11Z</time>
      </trkpt>
      <trkpt lat="44.01232" lon="1.63622">
        <ele>223.16</ele>
        <time>2010-09-26T09:56:12Z</time>
      </trkpt>
      <trkpt lat="44.01237" lon="1.63613">
        <ele>223.16</ele>
        <time>2010-09-26T09:56:13Z</time>
      </trkpt>
      <trkpt lat="44.01243" lon="1.63604">
        <ele>223.16</ele>
        <time>2010-09-26T09:56:14Z</time>
      </trkpt>
      <trkpt lat="44.01247" lon="1.63594">
        <ele>222.68</ele>
        <time>2010-09-26T09:56:15Z</time>
      </trkpt>
      <trkpt lat="44.01251" lon="1.63584">
        <ele>222.2</ele>
        <time>2010-09-26T09:56:16Z</time>
      </trkpt>
      <trkpt lat="44.01255" lon="1.63573">
        <ele>221.72</ele>
        <time>2010-09-26T09:56:17Z</time>
      </trkpt>
      <trkpt lat="44.01257" lon="1.63561">
        <ele>221.72</ele>
        <time>2010-09-26T09:56:18Z</time>
      </trkpt>
      <trkpt lat="44.01258" lon="1.63549">
        <ele>220.76</ele>
        <time>2010-09-26T09:56:19Z</time>
      </trkpt>
      <trkpt lat="44.01257" lon="1.63537">
        <ele>219.8</ele>
        <time>2010-09-26T09:56:20Z</time>
      </trkpt>
      <trkpt lat="44.01256" lon="1.63524">
        <ele>219.8</ele>
        <time>2010-09-26T09:56:21Z</time>
      </trkpt>
      <trkpt lat="44.01255" lon="1.63512">
        <ele>219.8</ele>
        <time>2010-09-26T09:56:22Z</time>
      </trkpt>
      <trkpt lat="44.01253" lon="1.635">
        <ele>219.32</ele>
        <time>2010-09-26T09:56:23Z</time>
      </trkpt>
      <trkpt lat="44.0124" lon="1.63436">
        <ele>215.95</ele>
        <time>2010-09-26T09:56:28Z</time>
      </trkpt>
      <trkpt lat="44.01239" lon="1.63422">
        <ele>214.99</ele>
        <time>2010-09-26T09:56:29Z</time>
      </trkpt>
      <trkpt lat="44.01239" lon="1.63408">
        <ele>214.51</ele>
        <time>2010-09-26T09:56:30Z</time>
      </trkpt>
      <trkpt lat="44.01241" lon="1.63394">
        <ele>213.55</ele>
        <time>2010-09-26T09:56:31Z</time>
      </trkpt>
      <trkpt lat="44.01246" lon="1.63381">
        <ele>212.59</ele>
        <time>2010-09-26T09:56:32Z</time>
      </trkpt>
      <trkpt lat="44.01253" lon="1.63371">
        <ele>212.11</ele>
        <time>2010-09-26T09:56:33Z</time>
      </trkpt>
      <trkpt lat="44.01262" lon="1.63363">
        <ele>212.11</ele>
        <time>2010-09-26T09:56:34Z</time>
      </trkpt>
      <trkpt lat="44.01271" lon="1.63357">
        <ele>211.63</ele>
        <time>2010-09-26T09:56:35Z</time>
      </trkpt>
      <trkpt lat="44.01281" lon="1.63351">
        <ele>211.15</ele>
        <time>2010-09-26T09:56:36Z</time>
      </trkpt>
      <trkpt lat="44.0129" lon="1.63344">
        <ele>210.67</ele>
        <time>2010-09-26T09:56:37Z</time>
      </trkpt>
      <trkpt lat="44.01298" lon="1.63334">
        <ele>209.22</ele>
        <time>2010-09-26T09:56:38Z</time>
      </trkpt>
      <trkpt lat="44.01304" lon="1.63322">
        <ele>209.22</ele>
        <time>2010-09-26T09:56:39Z</time>
      </trkpt>
      <trkpt lat="44.01309" lon="1.6331">
        <ele>208.26</ele>
        <time>2010-09-26T09:56:40Z</time>
      </trkpt>
      <trkpt lat="44.01313" lon="1.63298">
        <ele>208.26</ele>
        <time>2010-09-26T09:56:41Z</time>
      </trkpt>
      <trkpt lat="44.01319" lon="1.63286">
        <ele>207.3</ele>
        <time>2010-09-26T09:56:42Z</time>
      </trkpt>
      <trkpt lat="44.01326" lon="1.63276">
        <ele>207.3</ele>
        <time>2010-09-26T09:56:43Z</time>
      </trkpt>
      <trkpt lat="44.01334" lon="1.63269">
        <ele>206.82</ele>
        <time>2010-09-26T09:56:44Z</time>
      </trkpt>
      <trkpt lat="44.01343" lon="1.63265">
        <ele>206.34</ele>
        <time>2010-09-26T09:56:45Z</time>
      </trkpt>
      <trkpt lat="44.01353" lon="1.63265">
        <ele>205.86</ele>
        <time>2010-09-26T09:56:46Z</time>
      </trkpt>
      <trkpt lat="44.01363" lon="1.63269">
        <ele>205.38</ele>
        <time>2010-09-26T09:56:47Z</time>
      </trkpt>
      <trkpt lat="44.01373" lon="1.63275">
        <ele>203.94</ele>
        <time>2010-09-26T09:56:48Z</time>
      </trkpt>
      <trkpt lat="44.01382" lon="1.63282">
        <ele>203.94</ele>
        <time>2010-09-26T09:56:49Z</time>
      </trkpt>
      <trkpt lat="44.01391" lon="1.63291">
        <ele>202.98</ele>
        <time>2010-09-26T09:56:50Z</time>
      </trkpt>
      <trkpt lat="44.01399" lon="1.63301">
        <ele>202.98</ele>
        <time>2010-09-26T09:56:51Z</time>
      </trkpt>
      <trkpt lat="44.01405" lon="1.63311">
        <ele>202.01</ele>
        <time>2010-09-26T09:56:52Z</time>
      </trkpt>
      <trkpt lat="44.01411" lon="1.63323">
        <ele>201.53</ele>
        <time>2010-09-26T09:56:53Z</time>
      </trkpt>
      <trkpt lat="44.01417" lon="1.63334">
        <ele>201.05</ele>
        <time>2010-09-26T09:56:54Z</time>
      </trkpt>
      <trkpt lat="44.01424" lon="1.63345">
        <ele>200.57</ele>
        <time>2010-09-26T09:56:55Z</time>
      </trkpt>
      <trkpt lat="44.01431" lon="1.63354">
        <ele>200.09</ele>
        <time>2010-09-26T09:56:56Z</time>
      </trkpt>
      <trkpt lat="44.01439" lon="1.63362">
        <ele>199.61</ele>
        <time>2010-09-26T09:56:57Z</time>
      </trkpt>
      <trkpt lat="44.01447" lon="1.63369">
        <ele>198.65</ele>
        <time>2010-09-26T09:56:58Z</time>
      </trkpt>
      <trkpt lat="44.01457" lon="1.63373">
        <ele>198.17</ele>
        <time>2010-09-26T09:56:59Z</time>
      </trkpt>
      <trkpt lat="44.01467" lon="1.63375">
        <ele>197.69</ele>
        <time>2010-09-26T09:57:00Z</time>
      </trkpt>
      <trkpt lat="44.01478" lon="1.63375">
        <ele>197.21</ele>
        <time>2010-09-26T09:57:01Z</time>
      </trkpt>
      <trkpt lat="44.01487" lon="1.63372">
        <ele>196.25</ele>
        <time>2010-09-26T09:57:02Z</time>
      </trkpt>
      <trkpt lat="44.01496" lon="1.63367">
        <ele>195.77</ele>
        <time>2010-09-26T09:57:03Z</time>
      </trkpt>
      <trkpt lat="44.01505" lon="1.6336">
        <ele>195.28</ele>
        <time>2010-09-26T09:57:04Z</time>
      </trkpt>
      <trkpt lat="44.01513" lon="1.63351">
        <ele>194.8</ele>
        <time>2010-09-26T09:57:05Z</time>
      </trkpt>
      <trkpt lat="44.01521" lon="1.63341">
        <ele>193.84</ele>
        <time>2010-09-26T09:57:06Z</time>
      </trkpt>
      <trkpt lat="44.01528" lon="1.63331">
        <ele>193.84</ele>
        <time>2010-09-26T09:57:07Z</time>
      </trkpt>
      <trkpt lat="44.01547" lon="1.63298">
        <ele>192.4</ele>
        <time>2010-09-26T09:57:10Z</time>
      </trkpt>
      <trkpt lat="44.01562" lon="1.6328">
        <ele>191.44</ele>
        <time>2010-09-26T09:57:12Z</time>
      </trkpt>
      <trkpt lat="44.01571" lon="1.63273">
        <ele>190.96</ele>
        <time>2010-09-26T09:57:13Z</time>
      </trkpt>
      <trkpt lat="44.01581" lon="1.6327">
        <ele>190</ele>
        <time>2010-09-26T09:57:14Z</time>
      </trkpt>
      <trkpt lat="44.01591" lon="1.63268">
        <ele>189.52</ele>
        <time>2010-09-26T09:57:15Z</time>
      </trkpt>
      <trkpt lat="44.01602" lon="1.63269">
        <ele>188.56</ele>
        <time>2010-09-26T09:57:16Z</time>
      </trkpt>
      <trkpt lat="44.01612" lon="1.6327">
        <ele>187.59</ele>
        <time>2010-09-26T09:57:17Z</time>
      </trkpt>
      <trkpt lat="44.01632" lon="1.63269">
        <ele>186.63</ele>
        <time>2010-09-26T09:57:19Z</time>
      </trkpt>
      <trkpt lat="44.01641" lon="1.63265">
        <ele>186.63</ele>
        <time>2010-09-26T09:57:20Z</time>
      </trkpt>
      <trkpt lat="44.01649" lon="1.63257">
        <ele>186.63</ele>
        <time>2010-09-26T09:57:21Z</time>
      </trkpt>
      <trkpt lat="44.01655" lon="1.63246">
        <ele>185.67</ele>
        <time>2010-09-26T09:57:22Z</time>
      </trkpt>
      <trkpt lat="44.01658" lon="1.63234">
        <ele>185.19</ele>
        <time>2010-09-26T09:57:23Z</time>
      </trkpt>
      <trkpt lat="44.01659" lon="1.63221">
        <ele>184.71</ele>
        <time>2010-09-26T09:57:24Z</time>
      </trkpt>
      <trkpt lat="44.0166" lon="1.63208">
        <ele>184.71</ele>
        <time>2010-09-26T09:57:25Z</time>
      </trkpt>
      <trkpt lat="44.01658" lon="1.63128">
        <ele>181.83</ele>
        <time>2010-09-26T09:57:31Z</time>
      </trkpt>
      <trkpt lat="44.01658" lon="1.63115">
        <ele>181.35</ele>
        <time>2010-09-26T09:57:32Z</time>
      </trkpt>
      <trkpt lat="44.0166" lon="1.63102">
        <ele>180.38</ele>
        <time>2010-09-26T09:57:33Z</time>
      </trkpt>
      <trkpt lat="44.01663" lon="1.6309">
        <ele>180.38</ele>
        <time>2010-09-26T09:57:34Z</time>
      </trkpt>
      <trkpt lat="44.01666" lon="1.63078">
        <ele>179.42</ele>
        <time>2010-09-26T09:57:35Z</time>
      </trkpt>
      <trkpt lat="44.0167" lon="1.63066">
        <ele>178.94</ele>
        <time>2010-09-26T09:57:36Z</time>
      </trkpt>
      <trkpt lat="44.01675" lon="1.63056">
        <ele>178.46</ele>
        <time>2010-09-26T09:57:37Z</time>
      </trkpt>
      <trkpt lat="44.01681" lon="1.63046">
        <ele>177.98</ele>
        <time>2010-09-26T09:57:38Z</time>
      </trkpt>
      <trkpt lat="44.01688" lon="1.63037">
        <ele>177.02</ele>
        <time>2010-09-26T09:57:39Z</time>
      </trkpt>
      <trkpt lat="44.01695" lon="1.63029">
        <ele>177.02</ele>
        <time>2010-09-26T09:57:40Z</time>
      </trkpt>
      <trkpt lat="44.01703" lon="1.63022">
        <ele>176.54</ele>
        <time>2010-09-26T09:57:41Z</time>
      </trkpt>
      <trkpt lat="44.01711" lon="1.63017">
        <ele>175.58</ele>
        <time>2010-09-26T09:57:42Z</time>
      </trkpt>
      <trkpt lat="44.01719" lon="1.63012">
        <ele>175.58</ele>
        <time>2010-09-26T09:57:43Z</time>
      </trkpt>
      <trkpt lat="44.01728" lon="1.63009">
        <ele>174.62</ele>
        <time>2010-09-26T09:57:44Z</time>
      </trkpt>
      <trkpt lat="44.01737" lon="1.63008">
        <ele>174.62</ele>
        <time>2010-09-26T09:57:45Z</time>
      </trkpt>
      <trkpt lat="44.01746" lon="1.63007">
        <ele>173.66</ele>
        <time>2010-09-26T09:57:46Z</time>
      </trkpt>
      <trkpt lat="44.01755" lon="1.63008">
        <ele>173.66</ele>
        <time>2010-09-26T09:57:47Z</time>
      </trkpt>
      <trkpt lat="44.01764" lon="1.63011">
        <ele>172.69</ele>
        <time>2010-09-26T09:57:48Z</time>
      </trkpt>
      <trkpt lat="44.01773" lon="1.63015">
        <ele>172.21</ele>
        <time>2010-09-26T09:57:49Z</time>
      </trkpt>
      <trkpt lat="44.01817" lon="1.63048">
        <ele>168.37</ele>
        <time>2010-09-26T09:57:54Z</time>
      </trkpt>
      <trkpt lat="44.01834" lon="1.63062">
        <ele>166.93</ele>
        <time>2010-09-26T09:57:56Z</time>
      </trkpt>
      <trkpt lat="44.01843" lon="1.63067">
        <ele>166.93</ele>
        <time>2010-09-26T09:57:57Z</time>
      </trkpt>
      <trkpt lat="44.01853" lon="1.63071">
        <ele>165.96</ele>
        <time>2010-09-26T09:57:58Z</time>
      </trkpt>
      <trkpt lat="44.01863" lon="1.63073">
        <ele>165.48</ele>
        <time>2010-09-26T09:57:59Z</time>
      </trkpt>
      <trkpt lat="44.01873" lon="1.63074">
        <ele>164.52</ele>
        <time>2010-09-26T09:58:00Z</time>
      </trkpt>
      <trkpt lat="44.01896" lon="1.63079">
        <ele>164.04</ele>
        <time>2010-09-26T09:58:02Z</time>
      </trkpt>
      <trkpt lat="44.01907" lon="1.63084">
        <ele>163.08</ele>
        <time>2010-09-26T09:58:03Z</time>
      </trkpt>
      <trkpt lat="44.01917" lon="1.63089">
        <ele>162.12</ele>
        <time>2010-09-26T09:58:04Z</time>
      </trkpt>
      <trkpt lat="44.01927" lon="1.63096">
        <ele>161.64</ele>
        <time>2010-09-26T09:58:05Z</time>
      </trkpt>
      <trkpt lat="44.01937" lon="1.63103">
        <ele>161.16</ele>
        <time>2010-09-26T09:58:06Z</time>
      </trkpt>
      <trkpt lat="44.01947" lon="1.63109">
        <ele>159.72</ele>
        <time>2010-09-26T09:58:07Z</time>
      </trkpt>
      <trkpt lat="44.01958" lon="1.63114">
        <ele>158.75</ele>
        <time>2010-09-26T09:58:08Z</time>
      </trkpt>
      <trkpt lat="44.0197" lon="1.63117">
        <ele>157.31</ele>
        <time>2010-09-26T09:58:09Z</time>
      </trkpt>
      <trkpt lat="44.01981" lon="1.63118">
        <ele>156.83</ele>
        <time>2010-09-26T09:58:10Z</time>
      </trkpt>
      <trkpt lat="44.01993" lon="1.63116">
        <ele>156.35</ele>
        <time>2010-09-26T09:58:11Z</time>
      </trkpt>
      <trkpt lat="44.02006" lon="1.63113">
        <ele>156.35</ele>
        <time>2010-09-26T09:58:12Z</time>
      </trkpt>
      <trkpt lat="44.02018" lon="1.63109">
        <ele>157.31</ele>
        <time>2010-09-26T09:58:13Z</time>
      </trkpt>
      <trkpt lat="44.02042" lon="1.63103">
        <ele>156.83</ele>
        <time>2010-09-26T09:58:15Z</time>
      </trkpt>
      <trkpt lat="44.02054" lon="1.63102">
        <ele>155.39</ele>
        <time>2010-09-26T09:58:16Z</time>
      </trkpt>
      <trkpt lat="44.02065" lon="1.63104">
        <ele>154.43</ele>
        <time>2010-09-26T09:58:17Z</time>
      </trkpt>
      <trkpt lat="44.02077" lon="1.63107">
        <ele>153.47</ele>
        <time>2010-09-26T09:58:18Z</time>
      </trkpt>
      <trkpt lat="44.02087" lon="1.63111">
        <ele>153.47</ele>
        <time>2010-09-26T09:58:19Z</time>
      </trkpt>
      <trkpt lat="44.02097" lon="1.63118">
        <ele>152.99</ele>
        <time>2010-09-26T09:58:20Z</time>
      </trkpt>
      <trkpt lat="44.02107" lon="1.63126">
        <ele>152.51</ele>
        <time>2010-09-26T09:58:21Z</time>
      </trkpt>
      <trkpt lat="44.02124" lon="1.63141">
        <ele>151.54</ele>
        <time>2010-09-26T09:58:23Z</time>
      </trkpt>
      <trkpt lat="44.02165" lon="1.63178">
        <ele>149.14</ele>
        <time>2010-09-26T09:58:28Z</time>
      </trkpt>
      <trkpt lat="44.02189" lon="1.632">
        <ele>147.7</ele>
        <time>2010-09-26T09:58:31Z</time>
      </trkpt>
      <trkpt lat="44.02269" lon="1.63276">
        <ele>144.34</ele>
        <time>2010-09-26T09:58:42Z</time>
      </trkpt>
      <trkpt lat="44.02385" lon="1.6338">
        <ele>143.37</ele>
        <time>2010-09-26T09:58:58Z</time>
      </trkpt>
      <trkpt lat="44.02458" lon="1.6345">
        <ele>143.37</ele>
        <time>2010-09-26T09:59:11Z</time>
      </trkpt>
      <trkpt lat="44.02462" lon="1.63455">
        <ele>143.85</ele>
        <time>2010-09-26T09:59:12Z</time>
      </trkpt>
      <trkpt lat="44.02467" lon="1.63459">
        <ele>143.85</ele>
        <time>2010-09-26T09:59:13Z</time>
      </trkpt>
      <trkpt lat="44.02471" lon="1.63464">
        <ele>143.37</ele>
        <time>2010-09-26T09:59:14Z</time>
      </trkpt>
      <trkpt lat="44.0248" lon="1.63473">
        <ele>143.85</ele>
        <time>2010-09-26T09:59:16Z</time>
      </trkpt>
      <trkpt lat="44.02543" lon="1.63539">
        <ele>143.85</ele>
        <time>2010-09-26T09:59:30Z</time>
      </trkpt>
      <trkpt lat="44.02594" lon="1.63595">
        <ele>143.85</ele>
        <time>2010-09-26T09:59:42Z</time>
      </trkpt>
      <trkpt lat="44.0262" lon="1.63627">
        <ele>143.85</ele>
        <time>2010-09-26T09:59:48Z</time>
      </trkpt>
      <trkpt lat="44.02624" lon="1.63633">
        <ele>144.34</ele>
        <time>2010-09-26T09:59:49Z</time>
      </trkpt>
      <trkpt lat="44.02657" lon="1.63729">
        <ele>144.82</ele>
        <time>2010-09-26T10:00:03Z</time>
      </trkpt>
      <trkpt lat="44.02658" lon="1.63735">
        <ele>145.3</ele>
        <time>2010-09-26T10:00:04Z</time>
      </trkpt>
      <trkpt lat="44.02665" lon="1.63758">
        <ele>145.78</ele>
        <time>2010-09-26T10:00:08Z</time>
      </trkpt>
      <trkpt lat="44.02685" lon="1.63834">
        <ele>149.14</ele>
        <time>2010-09-26T10:00:23Z</time>
      </trkpt>
      <trkpt lat="44.02698" lon="1.6389">
        <ele>150.58</ele>
        <time>2010-09-26T10:00:35Z</time>
      </trkpt>
      <trkpt lat="44.02718" lon="1.63962">
        <ele>153.47</ele>
        <time>2010-09-26T10:00:50Z</time>
      </trkpt>
      <trkpt lat="44.02729" lon="1.64029">
        <ele>156.83</ele>
        <time>2010-09-26T10:01:04Z</time>
      </trkpt>
      <trkpt lat="44.02723" lon="1.64097">
        <ele>159.24</ele>
        <time>2010-09-26T10:01:18Z</time>
      </trkpt>
      <trkpt lat="44.02746" lon="1.6413">
        <ele>161.16</ele>
        <time>2010-09-26T10:01:28Z</time>
      </trkpt>
      <trkpt lat="44.0278" lon="1.64114">
        <ele>163.08</ele>
        <time>2010-09-26T10:01:39Z</time>
      </trkpt>
      <trkpt lat="44.02825" lon="1.6404">
        <ele>165.96</ele>
        <time>2010-09-26T10:01:57Z</time>
      </trkpt>
      <trkpt lat="44.0285" lon="1.64001">
        <ele>165.96</ele>
        <time>2010-09-26T10:02:06Z</time>
      </trkpt>
      <trkpt lat="44.02853" lon="1.63997">
        <ele>165.96</ele>
        <time>2010-09-26T10:02:07Z</time>
      </trkpt>
      <trkpt lat="44.02855" lon="1.63992">
        <ele>165.96</ele>
        <time>2010-09-26T10:02:08Z</time>
      </trkpt>
      <trkpt lat="44.02858" lon="1.63988">
        <ele>165.48</ele>
        <time>2010-09-26T10:02:09Z</time>
      </trkpt>
      <trkpt lat="44.0286" lon="1.63984">
        <ele>165.96</ele>
        <time>2010-09-26T10:02:10Z</time>
      </trkpt>
      <trkpt lat="44.02898" lon="1.63924">
        <ele>168.85</ele>
        <time>2010-09-26T10:02:26Z</time>
      </trkpt>
      <trkpt lat="44.02935" lon="1.63907">
        <ele>170.77</ele>
        <time>2010-09-26T10:02:38Z</time>
      </trkpt>
      <trkpt lat="44.02969" lon="1.63954">
        <ele>173.17</ele>
        <time>2010-09-26T10:02:51Z</time>
      </trkpt>
      <trkpt lat="44.02998" lon="1.64015">
        <ele>176.54</ele>
        <time>2010-09-26T10:03:06Z</time>
      </trkpt>
      <trkpt lat="44.03029" lon="1.64091">
        <ele>178.46</ele>
        <time>2010-09-26T10:03:23Z</time>
      </trkpt>
      <trkpt lat="44.03047" lon="1.64141">
        <ele>179.42</ele>
        <time>2010-09-26T10:03:33Z</time>
      </trkpt>
      <trkpt lat="44.03049" lon="1.64146">
        <ele>180.38</ele>
        <time>2010-09-26T10:03:34Z</time>
      </trkpt>
      <trkpt lat="44.0307" lon="1.64182">
        <ele>180.87</ele>
        <time>2010-09-26T10:03:42Z</time>
      </trkpt>
      <trkpt lat="44.03073" lon="1.64185">
        <ele>180.87</ele>
        <time>2010-09-26T10:03:43Z</time>
      </trkpt>
      <trkpt lat="44.03077" lon="1.64187">
        <ele>181.35</ele>
        <time>2010-09-26T10:03:44Z</time>
      </trkpt>
      <trkpt lat="44.03081" lon="1.64189">
        <ele>180.87</ele>
        <time>2010-09-26T10:03:45Z</time>
      </trkpt>
      <trkpt lat="44.03086" lon="1.6419">
        <ele>181.35</ele>
        <time>2010-09-26T10:03:46Z</time>
      </trkpt>
      <trkpt lat="44.0309" lon="1.64191">
        <ele>181.35</ele>
        <time>2010-09-26T10:03:47Z</time>
      </trkpt>
      <trkpt lat="44.03094" lon="1.64191">
        <ele>181.35</ele>
        <time>2010-09-26T10:03:48Z</time>
      </trkpt>
      <trkpt lat="44.03103" lon="1.64191">
        <ele>181.83</ele>
        <time>2010-09-26T10:03:50Z</time>
      </trkpt>
      <trkpt lat="44.03107" lon="1.64189">
        <ele>181.83</ele>
        <time>2010-09-26T10:03:51Z</time>
      </trkpt>
      <trkpt lat="44.03111" lon="1.64187">
        <ele>181.83</ele>
        <time>2010-09-26T10:03:52Z</time>
      </trkpt>
      <trkpt lat="44.03124" lon="1.6418">
        <ele>182.31</ele>
        <time>2010-09-26T10:03:55Z</time>
      </trkpt>
      <trkpt lat="44.03151" lon="1.64166">
        <ele>182.31</ele>
        <time>2010-09-26T10:04:01Z</time>
      </trkpt>
      <trkpt lat="44.03156" lon="1.64164">
        <ele>182.79</ele>
        <time>2010-09-26T10:04:02Z</time>
      </trkpt>
      <trkpt lat="44.03232" lon="1.64126">
        <ele>183.75</ele>
        <time>2010-09-26T10:04:18Z</time>
      </trkpt>
      <trkpt lat="44.03251" lon="1.64117">
        <ele>184.23</ele>
        <time>2010-09-26T10:04:22Z</time>
      </trkpt>
      <trkpt lat="44.03266" lon="1.64109">
        <ele>185.19</ele>
        <time>2010-09-26T10:04:25Z</time>
      </trkpt>
      <trkpt lat="44.03326" lon="1.64076">
        <ele>186.63</ele>
        <time>2010-09-26T10:04:38Z</time>
      </trkpt>
      <trkpt lat="44.03365" lon="1.64056">
        <ele>186.63</ele>
        <time>2010-09-26T10:04:49Z</time>
      </trkpt>
      <trkpt lat="44.03376" lon="1.64055">
        <ele>186.15</ele>
        <time>2010-09-26T10:04:54Z</time>
      </trkpt>
      <trkpt lat="44.03376" lon="1.64055">
        <ele>186.15</ele>
        <time>2010-09-26T10:05:08Z</time>
      </trkpt>
      <trkpt lat="44.03376" lon="1.64055">
        <ele>186.15</ele>
        <time>2010-09-26T10:05:46Z</time>
      </trkpt>
      <trkpt lat="44.03376" lon="1.64055">
        <ele>186.63</ele>
        <time>2010-09-26T10:06:28Z</time>
      </trkpt>
      <trkpt lat="44.03387" lon="1.64043">
        <ele>186.15</ele>
        <time>2010-09-26T10:07:05Z</time>
      </trkpt>
      <trkpt lat="44.03448" lon="1.63996">
        <ele>187.11</ele>
        <time>2010-09-26T10:07:22Z</time>
      </trkpt>
      <trkpt lat="44.03493" lon="1.63942">
        <ele>188.08</ele>
        <time>2010-09-26T10:07:36Z</time>
      </trkpt>
      <trkpt lat="44.03513" lon="1.63917">
        <ele>188.08</ele>
        <time>2010-09-26T10:07:42Z</time>
      </trkpt>
      <trkpt lat="44.03516" lon="1.63912">
        <ele>187.59</ele>
        <time>2010-09-26T10:07:43Z</time>
      </trkpt>
      <trkpt lat="44.03521" lon="1.63907">
        <ele>187.59</ele>
        <time>2010-09-26T10:07:44Z</time>
      </trkpt>
      <trkpt lat="44.03581" lon="1.63834">
        <ele>186.15</ele>
        <time>2010-09-26T10:07:59Z</time>
      </trkpt>
      <trkpt lat="44.03661" lon="1.63734">
        <ele>186.15</ele>
        <time>2010-09-26T10:08:19Z</time>
      </trkpt>
      <trkpt lat="44.03719" lon="1.63659">
        <ele>184.71</ele>
        <time>2010-09-26T10:08:33Z</time>
      </trkpt>
      <trkpt lat="44.03787" lon="1.63577">
        <ele>185.19</ele>
        <time>2010-09-26T10:08:50Z</time>
      </trkpt>
      <trkpt lat="44.03844" lon="1.63517">
        <ele>187.11</ele>
        <time>2010-09-26T10:09:05Z</time>
      </trkpt>
      <trkpt lat="44.03913" lon="1.63464">
        <ele>183.75</ele>
        <time>2010-09-26T10:09:18Z</time>
      </trkpt>
      <trkpt lat="44.03947" lon="1.63439">
        <ele>182.31</ele>
        <time>2010-09-26T10:09:23Z</time>
      </trkpt>
      <trkpt lat="44.04009" lon="1.6339">
        <ele>178.94</ele>
        <time>2010-09-26T10:09:32Z</time>
      </trkpt>
      <trkpt lat="44.04023" lon="1.63379">
        <ele>177.98</ele>
        <time>2010-09-26T10:09:34Z</time>
      </trkpt>
      <trkpt lat="44.04124" lon="1.63302">
        <ele>174.62</ele>
        <time>2010-09-26T10:09:48Z</time>
      </trkpt>
      <trkpt lat="44.04216" lon="1.6323">
        <ele>171.73</ele>
        <time>2010-09-26T10:10:02Z</time>
      </trkpt>
      <trkpt lat="44.04316" lon="1.63152">
        <ele>171.25</ele>
        <time>2010-09-26T10:10:19Z</time>
      </trkpt>
      <trkpt lat="44.04402" lon="1.63086">
        <ele>167.89</ele>
        <time>2010-09-26T10:10:33Z</time>
      </trkpt>
      <trkpt lat="44.04505" lon="1.63006">
        <ele>165</ele>
        <time>2010-09-26T10:10:50Z</time>
      </trkpt>
      <trkpt lat="44.04619" lon="1.62917">
        <ele>162.12</ele>
        <time>2010-09-26T10:11:09Z</time>
      </trkpt>
      <trkpt lat="44.04736" lon="1.62827">
        <ele>158.27</ele>
        <time>2010-09-26T10:11:27Z</time>
      </trkpt>
      <trkpt lat="44.04847" lon="1.6274">
        <ele>156.83</ele>
        <time>2010-09-26T10:11:45Z</time>
      </trkpt>
      <trkpt lat="44.04959" lon="1.62653">
        <ele>155.39</ele>
        <time>2010-09-26T10:12:04Z</time>
      </trkpt>
      <trkpt lat="44.05071" lon="1.62565">
        <ele>154.91</ele>
        <time>2010-09-26T10:12:23Z</time>
      </trkpt>
      <trkpt lat="44.05187" lon="1.62476">
        <ele>154.43</ele>
        <time>2010-09-26T10:12:43Z</time>
      </trkpt>
      <trkpt lat="44.05271" lon="1.6241">
        <ele>155.87</ele>
        <time>2010-09-26T10:13:00Z</time>
      </trkpt>
      <trkpt lat="44.05334" lon="1.62362">
        <ele>156.83</ele>
        <time>2010-09-26T10:13:13Z</time>
      </trkpt>
      <trkpt lat="44.05418" lon="1.62298">
        <ele>156.35</ele>
        <time>2010-09-26T10:13:30Z</time>
      </trkpt>
      <trkpt lat="44.05474" lon="1.62254">
        <ele>155.39</ele>
        <time>2010-09-26T10:13:41Z</time>
      </trkpt>
      <trkpt lat="44.05479" lon="1.6225">
        <ele>154.91</ele>
        <time>2010-09-26T10:13:42Z</time>
      </trkpt>
      <trkpt lat="44.05555" lon="1.62191">
        <ele>152.99</ele>
        <time>2010-09-26T10:13:56Z</time>
      </trkpt>
      <trkpt lat="44.05651" lon="1.62116">
        <ele>150.1</ele>
        <time>2010-09-26T10:14:12Z</time>
      </trkpt>
      <trkpt lat="44.05711" lon="1.62069">
        <ele>148.18</ele>
        <time>2010-09-26T10:14:22Z</time>
      </trkpt>
      <trkpt lat="44.05717" lon="1.62064">
        <ele>148.18</ele>
        <time>2010-09-26T10:14:23Z</time>
      </trkpt>
      <trkpt lat="44.05723" lon="1.62059">
        <ele>147.7</ele>
        <time>2010-09-26T10:14:24Z</time>
      </trkpt>
      <trkpt lat="44.05815" lon="1.6199">
        <ele>148.18</ele>
        <time>2010-09-26T10:14:39Z</time>
      </trkpt>
      <trkpt lat="44.05903" lon="1.6192">
        <ele>149.14</ele>
        <time>2010-09-26T10:14:55Z</time>
      </trkpt>
      <trkpt lat="44.05992" lon="1.6185">
        <ele>148.66</ele>
        <time>2010-09-26T10:15:11Z</time>
      </trkpt>
      <trkpt lat="44.06073" lon="1.61805">
        <ele>147.7</ele>
        <time>2010-09-26T10:15:25Z</time>
      </trkpt>
      <trkpt lat="44.0616" lon="1.618">
        <ele>148.18</ele>
        <time>2010-09-26T10:15:41Z</time>
      </trkpt>
      <trkpt lat="44.06251" lon="1.61795">
        <ele>149.14</ele>
        <time>2010-09-26T10:15:59Z</time>
      </trkpt>
      <trkpt lat="44.06358" lon="1.61789">
        <ele>149.14</ele>
        <time>2010-09-26T10:16:19Z</time>
      </trkpt>
      <trkpt lat="44.06489" lon="1.61783">
        <ele>149.62</ele>
        <time>2010-09-26T10:16:42Z</time>
      </trkpt>
      <trkpt lat="44.06523" lon="1.61781">
        <ele>148.66</ele>
        <time>2010-09-26T10:16:48Z</time>
      </trkpt>
      <trkpt lat="44.06636" lon="1.61776">
        <ele>145.3</ele>
        <time>2010-09-26T10:17:06Z</time>
      </trkpt>
      <trkpt lat="44.0673" lon="1.6177">
        <ele>141.93</ele>
        <time>2010-09-26T10:17:20Z</time>
      </trkpt>
      <trkpt lat="44.06801" lon="1.61766">
        <ele>140.97</ele>
        <time>2010-09-26T10:17:31Z</time>
      </trkpt>
      <trkpt lat="44.06807" lon="1.61767">
        <ele>140.97</ele>
        <time>2010-09-26T10:17:32Z</time>
      </trkpt>
      <trkpt lat="44.06858" lon="1.61788">
        <ele>140.97</ele>
        <time>2010-09-26T10:17:41Z</time>
      </trkpt>
      <trkpt lat="44.06873" lon="1.61794">
        <ele>140.49</ele>
        <time>2010-09-26T10:17:44Z</time>
      </trkpt>
      <trkpt lat="44.06877" lon="1.61795">
        <ele>140.01</ele>
        <time>2010-09-26T10:17:45Z</time>
      </trkpt>
      <trkpt lat="44.06882" lon="1.61795">
        <ele>140.01</ele>
        <time>2010-09-26T10:17:46Z</time>
      </trkpt>
      <trkpt lat="44.06886" lon="1.61796">
        <ele>140.01</ele>
        <time>2010-09-26T10:17:47Z</time>
      </trkpt>
      <trkpt lat="44.0689" lon="1.61797">
        <ele>140.01</ele>
        <time>2010-09-26T10:17:48Z</time>
      </trkpt>
      <trkpt lat="44.06895" lon="1.61797">
        <ele>140.01</ele>
        <time>2010-09-26T10:17:49Z</time>
      </trkpt>
      <trkpt lat="44.06899" lon="1.61797">
        <ele>139.53</ele>
        <time>2010-09-26T10:17:50Z</time>
      </trkpt>
      <trkpt lat="44.06904" lon="1.61796">
        <ele>139.05</ele>
        <time>2010-09-26T10:17:51Z</time>
      </trkpt>
      <trkpt lat="44.06948" lon="1.61786">
        <ele>136.16</ele>
        <time>2010-09-26T10:17:59Z</time>
      </trkpt>
      <trkpt lat="44.06953" lon="1.61784">
        <ele>136.16</ele>
        <time>2010-09-26T10:18:00Z</time>
      </trkpt>
      <trkpt lat="44.06958" lon="1.61782">
        <ele>135.68</ele>
        <time>2010-09-26T10:18:01Z</time>
      </trkpt>
      <trkpt lat="44.06963" lon="1.6178">
        <ele>135.2</ele>
        <time>2010-09-26T10:18:02Z</time>
      </trkpt>
      <trkpt lat="44.06974" lon="1.61775">
        <ele>134.24</ele>
        <time>2010-09-26T10:18:04Z</time>
      </trkpt>
      <trkpt lat="44.06998" lon="1.61764">
        <ele>132.8</ele>
        <time>2010-09-26T10:18:09Z</time>
      </trkpt>
      <trkpt lat="44.07046" lon="1.61737">
        <ele>129.92</ele>
        <time>2010-09-26T10:18:19Z</time>
      </trkpt>
      <trkpt lat="44.07054" lon="1.61728">
        <ele>128.95</ele>
        <time>2010-09-26T10:18:21Z</time>
      </trkpt>
      <trkpt lat="44.07059" lon="1.61723">
        <ele>127.99</ele>
        <time>2010-09-26T10:18:22Z</time>
      </trkpt>
      <trkpt lat="44.07063" lon="1.61718">
        <ele>127.51</ele>
        <time>2010-09-26T10:18:23Z</time>
      </trkpt>
      <trkpt lat="44.07067" lon="1.61714">
        <ele>127.03</ele>
        <time>2010-09-26T10:18:24Z</time>
      </trkpt>
      <trkpt lat="44.07071" lon="1.61709">
        <ele>127.03</ele>
        <time>2010-09-26T10:18:25Z</time>
      </trkpt>
      <trkpt lat="44.07079" lon="1.61699">
        <ele>125.59</ele>
        <time>2010-09-26T10:18:27Z</time>
      </trkpt>
      <trkpt lat="44.07083" lon="1.61695">
        <ele>125.11</ele>
        <time>2010-09-26T10:18:28Z</time>
      </trkpt>
      <trkpt lat="44.07087" lon="1.6169">
        <ele>125.11</ele>
        <time>2010-09-26T10:18:29Z</time>
      </trkpt>
      <trkpt lat="44.07092" lon="1.61686">
        <ele>124.63</ele>
        <time>2010-09-26T10:18:30Z</time>
      </trkpt>
      <trkpt lat="44.07096" lon="1.61683">
        <ele>123.67</ele>
        <time>2010-09-26T10:18:31Z</time>
      </trkpt>
      <trkpt lat="44.071" lon="1.61679">
        <ele>122.22</ele>
        <time>2010-09-26T10:18:32Z</time>
      </trkpt>
      <trkpt lat="44.07103" lon="1.61677">
        <ele>121.74</ele>
        <time>2010-09-26T10:18:33Z</time>
      </trkpt>
      <trkpt lat="44.07106" lon="1.61675">
        <ele>121.74</ele>
        <time>2010-09-26T10:18:34Z</time>
      </trkpt>
      <trkpt lat="44.07108" lon="1.61674">
        <ele>121.26</ele>
        <time>2010-09-26T10:18:35Z</time>
      </trkpt>
      <trkpt lat="44.0711" lon="1.61673">
        <ele>121.26</ele>
        <time>2010-09-26T10:18:36Z</time>
      </trkpt>
      <trkpt lat="44.07113" lon="1.61671">
        <ele>121.26</ele>
        <time>2010-09-26T10:18:37Z</time>
      </trkpt>
      <trkpt lat="44.07115" lon="1.61668">
        <ele>120.78</ele>
        <time>2010-09-26T10:18:38Z</time>
      </trkpt>
      <trkpt lat="44.07118" lon="1.61664">
        <ele>120.3</ele>
        <time>2010-09-26T10:18:39Z</time>
      </trkpt>
      <trkpt lat="44.07121" lon="1.61659">
        <ele>119.82</ele>
        <time>2010-09-26T10:18:40Z</time>
      </trkpt>
      <trkpt lat="44.07123" lon="1.61653">
        <ele>119.82</ele>
        <time>2010-09-26T10:18:41Z</time>
      </trkpt>
      <trkpt lat="44.07124" lon="1.61647">
        <ele>119.82</ele>
        <time>2010-09-26T10:18:42Z</time>
      </trkpt>
      <trkpt lat="44.07126" lon="1.61641">
        <ele>118.86</ele>
        <time>2010-09-26T10:18:43Z</time>
      </trkpt>
      <trkpt lat="44.07129" lon="1.61635">
        <ele>119.34</ele>
        <time>2010-09-26T10:18:44Z</time>
      </trkpt>
      <trkpt lat="44.07137" lon="1.61616">
        <ele>117.9</ele>
        <time>2010-09-26T10:18:47Z</time>
      </trkpt>
      <trkpt lat="44.07166" lon="1.61542">
        <ele>114.05</ele>
        <time>2010-09-26T10:18:56Z</time>
      </trkpt>
      <trkpt lat="44.07174" lon="1.61525">
        <ele>113.57</ele>
        <time>2010-09-26T10:18:58Z</time>
      </trkpt>
      <trkpt lat="44.07192" lon="1.61484">
        <ele>112.13</ele>
        <time>2010-09-26T10:19:06Z</time>
      </trkpt>
      <trkpt lat="44.07196" lon="1.61481">
        <ele>111.65</ele>
        <time>2010-09-26T10:19:08Z</time>
      </trkpt>
      <trkpt lat="44.07226" lon="1.61478">
        <ele>109.73</ele>
        <time>2010-09-26T10:19:15Z</time>
      </trkpt>
      <trkpt lat="44.07231" lon="1.61478">
        <ele>109.73</ele>
        <time>2010-09-26T10:19:16Z</time>
      </trkpt>
      <trkpt lat="44.07236" lon="1.6148">
        <ele>109.25</ele>
        <time>2010-09-26T10:19:17Z</time>
      </trkpt>
      <trkpt lat="44.07241" lon="1.61484">
        <ele>108.77</ele>
        <time>2010-09-26T10:19:18Z</time>
      </trkpt>
      <trkpt lat="44.07246" lon="1.61487">
        <ele>108.29</ele>
        <time>2010-09-26T10:19:19Z</time>
      </trkpt>
      <trkpt lat="44.0725" lon="1.61491">
        <ele>107.81</ele>
        <time>2010-09-26T10:19:20Z</time>
      </trkpt>
      <trkpt lat="44.07254" lon="1.61496">
        <ele>107.81</ele>
        <time>2010-09-26T10:19:21Z</time>
      </trkpt>
      <trkpt lat="44.07257" lon="1.61502">
        <ele>107.32</ele>
        <time>2010-09-26T10:19:22Z</time>
      </trkpt>
      <trkpt lat="44.07258" lon="1.61509">
        <ele>106.84</ele>
        <time>2010-09-26T10:19:23Z</time>
      </trkpt>
      <trkpt lat="44.07258" lon="1.61517">
        <ele>106.36</ele>
        <time>2010-09-26T10:19:24Z</time>
      </trkpt>
      <trkpt lat="44.07256" lon="1.61526">
        <ele>106.84</ele>
        <time>2010-09-26T10:19:25Z</time>
      </trkpt>
      <trkpt lat="44.07255" lon="1.61534">
        <ele>106.36</ele>
        <time>2010-09-26T10:19:26Z</time>
      </trkpt>
      <trkpt lat="44.07253" lon="1.61543">
        <ele>105.88</ele>
        <time>2010-09-26T10:19:27Z</time>
      </trkpt>
      <trkpt lat="44.07239" lon="1.61623">
        <ele>103</ele>
        <time>2010-09-26T10:19:35Z</time>
      </trkpt>
      <trkpt lat="44.0724" lon="1.61633">
        <ele>102.04</ele>
        <time>2010-09-26T10:19:36Z</time>
      </trkpt>
      <trkpt lat="44.07242" lon="1.61643">
        <ele>102.52</ele>
        <time>2010-09-26T10:19:37Z</time>
      </trkpt>
      <trkpt lat="44.07246" lon="1.61651">
        <ele>102.04</ele>
        <time>2010-09-26T10:19:38Z</time>
      </trkpt>
      <trkpt lat="44.07252" lon="1.61657">
        <ele>101.56</ele>
        <time>2010-09-26T10:19:39Z</time>
      </trkpt>
      <trkpt lat="44.07259" lon="1.61662">
        <ele>101.08</ele>
        <time>2010-09-26T10:19:40Z</time>
      </trkpt>
      <trkpt lat="44.07266" lon="1.61665">
        <ele>101.56</ele>
        <time>2010-09-26T10:19:41Z</time>
      </trkpt>
      <trkpt lat="44.07273" lon="1.61669">
        <ele>101.56</ele>
        <time>2010-09-26T10:19:42Z</time>
      </trkpt>
      <trkpt lat="44.07372" lon="1.6171">
        <ele>100.6</ele>
        <time>2010-09-26T10:19:57Z</time>
      </trkpt>
      <trkpt lat="44.07454" lon="1.61742">
        <ele>101.08</ele>
        <time>2010-09-26T10:20:12Z</time>
      </trkpt>
      <trkpt lat="44.07459" lon="1.61743">
        <ele>101.08</ele>
        <time>2010-09-26T10:20:13Z</time>
      </trkpt>
      <trkpt lat="44.07464" lon="1.61743">
        <ele>101.56</ele>
        <time>2010-09-26T10:20:14Z</time>
      </trkpt>
      <trkpt lat="44.07468" lon="1.61741">
        <ele>101.56</ele>
        <time>2010-09-26T10:20:15Z</time>
      </trkpt>
      <trkpt lat="44.07473" lon="1.61738">
        <ele>102.04</ele>
        <time>2010-09-26T10:20:16Z</time>
      </trkpt>
      <trkpt lat="44.07477" lon="1.61734">
        <ele>102.04</ele>
        <time>2010-09-26T10:20:17Z</time>
      </trkpt>
      <trkpt lat="44.0748" lon="1.6173">
        <ele>102.52</ele>
        <time>2010-09-26T10:20:18Z</time>
      </trkpt>
      <trkpt lat="44.07483" lon="1.61725">
        <ele>102.52</ele>
        <time>2010-09-26T10:20:19Z</time>
      </trkpt>
      <trkpt lat="44.07488" lon="1.61715">
        <ele>102.52</ele>
        <time>2010-09-26T10:20:21Z</time>
      </trkpt>
      <trkpt lat="44.07491" lon="1.61711">
        <ele>103</ele>
        <time>2010-09-26T10:20:22Z</time>
      </trkpt>
      <trkpt lat="44.07497" lon="1.61702">
        <ele>103.48</ele>
        <time>2010-09-26T10:20:24Z</time>
      </trkpt>
      <trkpt lat="44.075" lon="1.61698">
        <ele>103.48</ele>
        <time>2010-09-26T10:20:25Z</time>
      </trkpt>
      <trkpt lat="44.07544" lon="1.61658">
        <ele>106.84</ele>
        <time>2010-09-26T10:20:39Z</time>
      </trkpt>
      <trkpt lat="44.07589" lon="1.61629">
        <ele>109.25</ele>
        <time>2010-09-26T10:20:52Z</time>
      </trkpt>
      <trkpt lat="44.07631" lon="1.61598">
        <ele>111.17</ele>
        <time>2010-09-26T10:21:05Z</time>
      </trkpt>
      <trkpt lat="44.07647" lon="1.61586">
        <ele>111.65</ele>
        <time>2010-09-26T10:21:10Z</time>
      </trkpt>
      <trkpt lat="44.07648" lon="1.61581">
        <ele>111.65</ele>
        <time>2010-09-26T10:21:11Z</time>
      </trkpt>
      <trkpt lat="44.07649" lon="1.61577">
        <ele>111.65</ele>
        <time>2010-09-26T10:21:12Z</time>
      </trkpt>
      <trkpt lat="44.07652" lon="1.61573">
        <ele>111.17</ele>
        <time>2010-09-26T10:21:13Z</time>
      </trkpt>
      <trkpt lat="44.07655" lon="1.61569">
        <ele>111.17</ele>
        <time>2010-09-26T10:21:14Z</time>
      </trkpt>
      <trkpt lat="44.07658" lon="1.61565">
        <ele>111.17</ele>
        <time>2010-09-26T10:21:15Z</time>
      </trkpt>
      <trkpt lat="44.0767" lon="1.61551">
        <ele>110.21</ele>
        <time>2010-09-26T10:21:18Z</time>
      </trkpt>
      <trkpt lat="44.07691" lon="1.61524">
        <ele>108.29</ele>
        <time>2010-09-26T10:21:23Z</time>
      </trkpt>
      <trkpt lat="44.07704" lon="1.61503">
        <ele>106.36</ele>
        <time>2010-09-26T10:21:26Z</time>
      </trkpt>
      <trkpt lat="44.07708" lon="1.61494">
        <ele>105.88</ele>
        <time>2010-09-26T10:21:27Z</time>
      </trkpt>
      <trkpt lat="44.07715" lon="1.61474">
        <ele>104.92</ele>
        <time>2010-09-26T10:21:29Z</time>
      </trkpt>
      <trkpt lat="44.07717" lon="1.61462">
        <ele>103.96</ele>
        <time>2010-09-26T10:21:30Z</time>
      </trkpt>
      <trkpt lat="44.07718" lon="1.6145">
        <ele>103.48</ele>
        <time>2010-09-26T10:21:31Z</time>
      </trkpt>
      <trkpt lat="44.07718" lon="1.61438">
        <ele>103.48</ele>
        <time>2010-09-26T10:21:32Z</time>
      </trkpt>
      <trkpt lat="44.07717" lon="1.61426">
        <ele>103</ele>
        <time>2010-09-26T10:21:33Z</time>
      </trkpt>
      <trkpt lat="44.07716" lon="1.61415">
        <ele>102.52</ele>
        <time>2010-09-26T10:21:34Z</time>
      </trkpt>
      <trkpt lat="44.07716" lon="1.61404">
        <ele>102.52</ele>
        <time>2010-09-26T10:21:35Z</time>
      </trkpt>
      <trkpt lat="44.07723" lon="1.61333">
        <ele>101.08</ele>
        <time>2010-09-26T10:21:42Z</time>
      </trkpt>
      <trkpt lat="44.0773" lon="1.61296">
        <ele>100.11</ele>
        <time>2010-09-26T10:21:46Z</time>
      </trkpt>
      <trkpt lat="44.07756" lon="1.61171">
        <ele>99.63</ele>
        <time>2010-09-26T10:22:01Z</time>
      </trkpt>
      <trkpt lat="44.07792" lon="1.61087">
        <ele>99.63</ele>
        <time>2010-09-26T10:22:14Z</time>
      </trkpt>
      <trkpt lat="44.07838" lon="1.60984">
        <ele>99.63</ele>
        <time>2010-09-26T10:22:30Z</time>
      </trkpt>
      <trkpt lat="44.07862" lon="1.60929">
        <ele>99.15</ele>
        <time>2010-09-26T10:22:38Z</time>
      </trkpt>
      <trkpt lat="44.07874" lon="1.60902">
        <ele>99.63</ele>
        <time>2010-09-26T10:22:42Z</time>
      </trkpt>
      <trkpt lat="44.07879" lon="1.60889">
        <ele>99.15</ele>
        <time>2010-09-26T10:22:44Z</time>
      </trkpt>
      <trkpt lat="44.07926" lon="1.60783">
        <ele>99.15</ele>
        <time>2010-09-26T10:23:01Z</time>
      </trkpt>
      <trkpt lat="44.07952" lon="1.60707">
        <ele>99.15</ele>
        <time>2010-09-26T10:23:12Z</time>
      </trkpt>
      <trkpt lat="44.0799" lon="1.60616">
        <ele>98.67</ele>
        <time>2010-09-26T10:23:25Z</time>
      </trkpt>
      <trkpt lat="44.08012" lon="1.60571">
        <ele>97.71</ele>
        <time>2010-09-26T10:23:32Z</time>
      </trkpt>
      <trkpt lat="44.08015" lon="1.60564">
        <ele>97.71</ele>
        <time>2010-09-26T10:23:33Z</time>
      </trkpt>
      <trkpt lat="44.08077" lon="1.60467">
        <ele>97.71</ele>
        <time>2010-09-26T10:23:49Z</time>
      </trkpt>
      <trkpt lat="44.08171" lon="1.60388">
        <ele>98.67</ele>
        <time>2010-09-26T10:24:09Z</time>
      </trkpt>
      <trkpt lat="44.08213" lon="1.60351">
        <ele>98.67</ele>
        <time>2010-09-26T10:24:19Z</time>
      </trkpt>
      <trkpt lat="44.08224" lon="1.60337">
        <ele>98.19</ele>
        <time>2010-09-26T10:24:22Z</time>
      </trkpt>
      <trkpt lat="44.08271" lon="1.60265">
        <ele>97.71</ele>
        <time>2010-09-26T10:24:36Z</time>
      </trkpt>
      <trkpt lat="44.08274" lon="1.6026">
        <ele>97.71</ele>
        <time>2010-09-26T10:24:37Z</time>
      </trkpt>
      <trkpt lat="44.08312" lon="1.60183">
        <ele>98.19</ele>
        <time>2010-09-26T10:24:50Z</time>
      </trkpt>
      <trkpt lat="44.08352" lon="1.60096">
        <ele>98.19</ele>
        <time>2010-09-26T10:25:04Z</time>
      </trkpt>
      <trkpt lat="44.08408" lon="1.59976">
        <ele>98.19</ele>
        <time>2010-09-26T10:25:23Z</time>
      </trkpt>
      <trkpt lat="44.08414" lon="1.59964">
        <ele>98.19</ele>
        <time>2010-09-26T10:25:25Z</time>
      </trkpt>
      <trkpt lat="44.08418" lon="1.59958">
        <ele>98.19</ele>
        <time>2010-09-26T10:25:26Z</time>
      </trkpt>
      <trkpt lat="44.08421" lon="1.59952">
        <ele>98.19</ele>
        <time>2010-09-26T10:25:27Z</time>
      </trkpt>
      <trkpt lat="44.08483" lon="1.59864">
        <ele>96.75</ele>
        <time>2010-09-26T10:25:43Z</time>
      </trkpt>
      <trkpt lat="44.08555" lon="1.59773">
        <ele>97.23</ele>
        <time>2010-09-26T10:26:01Z</time>
      </trkpt>
      <trkpt lat="44.08614" lon="1.59705">
        <ele>96.75</ele>
        <time>2010-09-26T10:26:15Z</time>
      </trkpt>
      <trkpt lat="44.08672" lon="1.59634">
        <ele>98.19</ele>
        <time>2010-09-26T10:26:30Z</time>
      </trkpt>
      <trkpt lat="44.0872" lon="1.59545">
        <ele>97.23</ele>
        <time>2010-09-26T10:26:45Z</time>
      </trkpt>
      <trkpt lat="44.08723" lon="1.59539">
        <ele>97.23</ele>
        <time>2010-09-26T10:26:46Z</time>
      </trkpt>
      <trkpt lat="44.08727" lon="1.59532">
        <ele>97.23</ele>
        <time>2010-09-26T10:26:47Z</time>
      </trkpt>
      <trkpt lat="44.0878" lon="1.59444">
        <ele>96.75</ele>
        <time>2010-09-26T10:27:02Z</time>
      </trkpt>
      <trkpt lat="44.08786" lon="1.59433">
        <ele>96.27</ele>
        <time>2010-09-26T10:27:04Z</time>
      </trkpt>
      <trkpt lat="44.08789" lon="1.59428">
        <ele>96.27</ele>
        <time>2010-09-26T10:27:05Z</time>
      </trkpt>
      <trkpt lat="44.08839" lon="1.59331">
        <ele>95.31</ele>
        <time>2010-09-26T10:27:21Z</time>
      </trkpt>
      <trkpt lat="44.08887" lon="1.59238">
        <ele>95.31</ele>
        <time>2010-09-26T10:27:36Z</time>
      </trkpt>
      <trkpt lat="44.0892" lon="1.59181">
        <ele>95.31</ele>
        <time>2010-09-26T10:27:46Z</time>
      </trkpt>
      <trkpt lat="44.08923" lon="1.59176">
        <ele>95.31</ele>
        <time>2010-09-26T10:27:47Z</time>
      </trkpt>
      <trkpt lat="44.08975" lon="1.59112">
        <ele>95.79</ele>
        <time>2010-09-26T10:28:00Z</time>
      </trkpt>
      <trkpt lat="44.09045" lon="1.59029">
        <ele>94.83</ele>
        <time>2010-09-26T10:28:17Z</time>
      </trkpt>
      <trkpt lat="44.09114" lon="1.5898">
        <ele>94.83</ele>
        <time>2010-09-26T10:28:31Z</time>
      </trkpt>
      <trkpt lat="44.09208" lon="1.58912">
        <ele>94.35</ele>
        <time>2010-09-26T10:28:50Z</time>
      </trkpt>
      <trkpt lat="44.09226" lon="1.58897">
        <ele>94.83</ele>
        <time>2010-09-26T10:28:54Z</time>
      </trkpt>
      <trkpt lat="44.09281" lon="1.58812">
        <ele>95.79</ele>
        <time>2010-09-26T10:29:10Z</time>
      </trkpt>
      <trkpt lat="44.09315" lon="1.5875">
        <ele>95.31</ele>
        <time>2010-09-26T10:29:22Z</time>
      </trkpt>
      <trkpt lat="44.09346" lon="1.58695">
        <ele>94.35</ele>
        <time>2010-09-26T10:29:31Z</time>
      </trkpt>
      <trkpt lat="44.09348" lon="1.58687">
        <ele>94.83</ele>
        <time>2010-09-26T10:29:32Z</time>
      </trkpt>
      <trkpt lat="44.09349" lon="1.58679">
        <ele>93.87</ele>
        <time>2010-09-26T10:29:33Z</time>
      </trkpt>
      <trkpt lat="44.09349" lon="1.58671">
        <ele>93.39</ele>
        <time>2010-09-26T10:29:34Z</time>
      </trkpt>
      <trkpt lat="44.09348" lon="1.58663">
        <ele>93.39</ele>
        <time>2010-09-26T10:29:35Z</time>
      </trkpt>
      <trkpt lat="44.09346" lon="1.58655">
        <ele>93.39</ele>
        <time>2010-09-26T10:29:36Z</time>
      </trkpt>
      <trkpt lat="44.09344" lon="1.58647">
        <ele>93.39</ele>
        <time>2010-09-26T10:29:37Z</time>
      </trkpt>
      <trkpt lat="44.09327" lon="1.58593">
        <ele>93.39</ele>
        <time>2010-09-26T10:29:44Z</time>
      </trkpt>
      <trkpt lat="44.09326" lon="1.58586">
        <ele>93.39</ele>
        <time>2010-09-26T10:29:45Z</time>
      </trkpt>
      <trkpt lat="44.09323" lon="1.58558">
        <ele>94.35</ele>
        <time>2010-09-26T10:29:49Z</time>
      </trkpt>
      <trkpt lat="44.09325" lon="1.58545">
        <ele>94.35</ele>
        <time>2010-09-26T10:29:51Z</time>
      </trkpt>
      <trkpt lat="44.09329" lon="1.58528">
        <ele>94.83</ele>
        <time>2010-09-26T10:29:54Z</time>
      </trkpt>
      <trkpt lat="44.09331" lon="1.58522">
        <ele>95.79</ele>
        <time>2010-09-26T10:29:55Z</time>
      </trkpt>
      <trkpt lat="44.09359" lon="1.5843">
        <ele>95.79</ele>
        <time>2010-09-26T10:30:12Z</time>
      </trkpt>
      <trkpt lat="44.0938" lon="1.58363">
        <ele>95.79</ele>
        <time>2010-09-26T10:30:24Z</time>
      </trkpt>
      <trkpt lat="44.09382" lon="1.58357">
        <ele>95.79</ele>
        <time>2010-09-26T10:30:25Z</time>
      </trkpt>
      <trkpt lat="44.09383" lon="1.58351">
        <ele>95.79</ele>
        <time>2010-09-26T10:30:26Z</time>
      </trkpt>
      <trkpt lat="44.09395" lon="1.58307">
        <ele>95.79</ele>
        <time>2010-09-26T10:30:33Z</time>
      </trkpt>
      <trkpt lat="44.094" lon="1.58288">
        <ele>95.79</ele>
        <time>2010-09-26T10:30:36Z</time>
      </trkpt>
      <trkpt lat="44.09402" lon="1.58282">
        <ele>95.31</ele>
        <time>2010-09-26T10:30:37Z</time>
      </trkpt>
      <trkpt lat="44.0942" lon="1.58226">
        <ele>95.31</ele>
        <time>2010-09-26T10:30:46Z</time>
      </trkpt>
      <trkpt lat="44.09448" lon="1.5811">
        <ele>94.83</ele>
        <time>2010-09-26T10:31:03Z</time>
      </trkpt>
      <trkpt lat="44.09469" lon="1.57975">
        <ele>93.39</ele>
        <time>2010-09-26T10:31:21Z</time>
      </trkpt>
      <trkpt lat="44.09514" lon="1.57854">
        <ele>92.9</ele>
        <time>2010-09-26T10:31:38Z</time>
      </trkpt>
      <trkpt lat="44.09522" lon="1.57728">
        <ele>93.87</ele>
        <time>2010-09-26T10:31:55Z</time>
      </trkpt>
      <trkpt lat="44.09521" lon="1.57605">
        <ele>92.9</ele>
        <time>2010-09-26T10:32:10Z</time>
      </trkpt>
      <trkpt lat="44.09522" lon="1.57497">
        <ele>92.9</ele>
        <time>2010-09-26T10:32:23Z</time>
      </trkpt>
      <trkpt lat="44.09515" lon="1.57431">
        <ele>93.39</ele>
        <time>2010-09-26T10:32:32Z</time>
      </trkpt>
      <trkpt lat="44.09513" lon="1.57423">
        <ele>93.39</ele>
        <time>2010-09-26T10:32:33Z</time>
      </trkpt>
      <trkpt lat="44.09476" lon="1.57328">
        <ele>93.39</ele>
        <time>2010-09-26T10:32:47Z</time>
      </trkpt>
      <trkpt lat="44.09421" lon="1.57215">
        <ele>93.87</ele>
        <time>2010-09-26T10:33:04Z</time>
      </trkpt>
      <trkpt lat="44.09396" lon="1.57143">
        <ele>94.83</ele>
        <time>2010-09-26T10:33:15Z</time>
      </trkpt>
      <trkpt lat="44.09391" lon="1.57115">
        <ele>94.35</ele>
        <time>2010-09-26T10:33:19Z</time>
      </trkpt>
      <trkpt lat="44.09388" lon="1.57081">
        <ele>94.35</ele>
        <time>2010-09-26T10:33:24Z</time>
      </trkpt>
      <trkpt lat="44.09387" lon="1.57074">
        <ele>93.87</ele>
        <time>2010-09-26T10:33:25Z</time>
      </trkpt>
      <trkpt lat="44.09376" lon="1.56955">
        <ele>93.87</ele>
        <time>2010-09-26T10:33:41Z</time>
      </trkpt>
      <trkpt lat="44.09367" lon="1.56823">
        <ele>93.87</ele>
        <time>2010-09-26T10:33:58Z</time>
      </trkpt>
      <trkpt lat="44.09361" lon="1.56701">
        <ele>94.35</ele>
        <time>2010-09-26T10:34:14Z</time>
      </trkpt>
      <trkpt lat="44.09357" lon="1.56616">
        <ele>93.87</ele>
        <time>2010-09-26T10:34:25Z</time>
      </trkpt>
      <trkpt lat="44.09352" lon="1.56506">
        <ele>94.35</ele>
        <time>2010-09-26T10:34:39Z</time>
      </trkpt>
      <trkpt lat="44.0935" lon="1.5643">
        <ele>93.39</ele>
        <time>2010-09-26T10:34:49Z</time>
      </trkpt>
      <trkpt lat="44.0935" lon="1.56423">
        <ele>93.87</ele>
        <time>2010-09-26T10:34:50Z</time>
      </trkpt>
      <trkpt lat="44.09343" lon="1.56313">
        <ele>93.87</ele>
        <time>2010-09-26T10:35:06Z</time>
      </trkpt>
      <trkpt lat="44.09324" lon="1.56194">
        <ele>93.39</ele>
        <time>2010-09-26T10:35:22Z</time>
      </trkpt>
      <trkpt lat="44.09304" lon="1.56084">
        <ele>93.87</ele>
        <time>2010-09-26T10:35:37Z</time>
      </trkpt>
      <trkpt lat="44.09303" lon="1.56076">
        <ele>93.87</ele>
        <time>2010-09-26T10:35:38Z</time>
      </trkpt>
      <trkpt lat="44.09288" lon="1.55948">
        <ele>93.39</ele>
        <time>2010-09-26T10:35:54Z</time>
      </trkpt>
      <trkpt lat="44.0928" lon="1.55831">
        <ele>92.9</ele>
        <time>2010-09-26T10:36:09Z</time>
      </trkpt>
      <trkpt lat="44.0928" lon="1.55824">
        <ele>93.39</ele>
        <time>2010-09-26T10:36:10Z</time>
      </trkpt>
      <trkpt lat="44.09277" lon="1.55706">
        <ele>93.39</ele>
        <time>2010-09-26T10:36:25Z</time>
      </trkpt>
      <trkpt lat="44.09306" lon="1.55584">
        <ele>93.87</ele>
        <time>2010-09-26T10:36:41Z</time>
      </trkpt>
      <trkpt lat="44.0931" lon="1.55561">
        <ele>93.87</ele>
        <time>2010-09-26T10:36:44Z</time>
      </trkpt>
      <trkpt lat="44.09312" lon="1.55553">
        <ele>93.87</ele>
        <time>2010-09-26T10:36:45Z</time>
      </trkpt>
      <trkpt lat="44.09321" lon="1.55421">
        <ele>93.87</ele>
        <time>2010-09-26T10:37:01Z</time>
      </trkpt>
      <trkpt lat="44.09327" lon="1.55271">
        <ele>93.39</ele>
        <time>2010-09-26T10:37:18Z</time>
      </trkpt>
      <trkpt lat="44.09321" lon="1.55216">
        <ele>92.9</ele>
        <time>2010-09-26T10:37:24Z</time>
      </trkpt>
      <trkpt lat="44.09278" lon="1.55114">
        <ele>92.42</ele>
        <time>2010-09-26T10:37:37Z</time>
      </trkpt>
      <trkpt lat="44.09243" lon="1.55052">
        <ele>91.94</ele>
        <time>2010-09-26T10:37:46Z</time>
      </trkpt>
      <trkpt lat="44.09231" lon="1.55004">
        <ele>92.42</ele>
        <time>2010-09-26T10:37:52Z</time>
      </trkpt>
      <trkpt lat="44.09232" lon="1.54971">
        <ele>92.42</ele>
        <time>2010-09-26T10:37:56Z</time>
      </trkpt>
      <trkpt lat="44.09254" lon="1.54862">
        <ele>92.42</ele>
        <time>2010-09-26T10:38:11Z</time>
      </trkpt>
      <trkpt lat="44.09263" lon="1.54818">
        <ele>92.42</ele>
        <time>2010-09-26T10:38:17Z</time>
      </trkpt>
      <trkpt lat="44.09264" lon="1.54811">
        <ele>92.42</ele>
        <time>2010-09-26T10:38:18Z</time>
      </trkpt>
      <trkpt lat="44.09287" lon="1.54668">
        <ele>91.94</ele>
        <time>2010-09-26T10:38:35Z</time>
      </trkpt>
      <trkpt lat="44.09301" lon="1.54532">
        <ele>91.94</ele>
        <time>2010-09-26T10:38:51Z</time>
      </trkpt>
      <trkpt lat="44.09288" lon="1.54408">
        <ele>91.94</ele>
        <time>2010-09-26T10:39:06Z</time>
      </trkpt>
      <trkpt lat="44.0927" lon="1.54264">
        <ele>91.46</ele>
        <time>2010-09-26T10:39:24Z</time>
      </trkpt>
      <trkpt lat="44.09268" lon="1.5425">
        <ele>91.46</ele>
        <time>2010-09-26T10:39:26Z</time>
      </trkpt>
      <trkpt lat="44.0926" lon="1.54175">
        <ele>91.94</ele>
        <time>2010-09-26T10:39:36Z</time>
      </trkpt>
      <trkpt lat="44.09268" lon="1.54066">
        <ele>91.46</ele>
        <time>2010-09-26T10:39:50Z</time>
      </trkpt>
      <trkpt lat="44.09294" lon="1.53936">
        <ele>91.46</ele>
        <time>2010-09-26T10:40:06Z</time>
      </trkpt>
      <trkpt lat="44.09315" lon="1.53823">
        <ele>91.46</ele>
        <time>2010-09-26T10:40:20Z</time>
      </trkpt>
      <trkpt lat="44.09314" lon="1.53815">
        <ele>90.98</ele>
        <time>2010-09-26T10:40:21Z</time>
      </trkpt>
      <trkpt lat="44.09312" lon="1.538">
        <ele>91.46</ele>
        <time>2010-09-26T10:40:23Z</time>
      </trkpt>
      <trkpt lat="44.09311" lon="1.53792">
        <ele>91.46</ele>
        <time>2010-09-26T10:40:24Z</time>
      </trkpt>
      <trkpt lat="44.09284" lon="1.53709">
        <ele>90.98</ele>
        <time>2010-09-26T10:40:35Z</time>
      </trkpt>
      <trkpt lat="44.09281" lon="1.53702">
        <ele>90.98</ele>
        <time>2010-09-26T10:40:36Z</time>
      </trkpt>
      <trkpt lat="44.09243" lon="1.53633">
        <ele>89.06</ele>
        <time>2010-09-26T10:40:47Z</time>
      </trkpt>
      <trkpt lat="44.09241" lon="1.53626">
        <ele>88.58</ele>
        <time>2010-09-26T10:40:48Z</time>
      </trkpt>
      <trkpt lat="44.09239" lon="1.53619">
        <ele>89.06</ele>
        <time>2010-09-26T10:40:49Z</time>
      </trkpt>
      <trkpt lat="44.09237" lon="1.53611">
        <ele>89.06</ele>
        <time>2010-09-26T10:40:50Z</time>
      </trkpt>
      <trkpt lat="44.09236" lon="1.53604">
        <ele>89.06</ele>
        <time>2010-09-26T10:40:51Z</time>
      </trkpt>
      <trkpt lat="44.09236" lon="1.53588">
        <ele>89.54</ele>
        <time>2010-09-26T10:40:53Z</time>
      </trkpt>
      <trkpt lat="44.09236" lon="1.53581">
        <ele>89.54</ele>
        <time>2010-09-26T10:40:54Z</time>
      </trkpt>
      <trkpt lat="44.09251" lon="1.53487">
        <ele>90.02</ele>
        <time>2010-09-26T10:41:07Z</time>
      </trkpt>
      <trkpt lat="44.09253" lon="1.5348">
        <ele>89.54</ele>
        <time>2010-09-26T10:41:08Z</time>
      </trkpt>
      <trkpt lat="44.09256" lon="1.53474">
        <ele>89.54</ele>
        <time>2010-09-26T10:41:09Z</time>
      </trkpt>
      <trkpt lat="44.09259" lon="1.53468">
        <ele>90.02</ele>
        <time>2010-09-26T10:41:10Z</time>
      </trkpt>
      <trkpt lat="44.09263" lon="1.53462">
        <ele>90.02</ele>
        <time>2010-09-26T10:41:11Z</time>
      </trkpt>
      <trkpt lat="44.09267" lon="1.53457">
        <ele>90.02</ele>
        <time>2010-09-26T10:41:12Z</time>
      </trkpt>
      <trkpt lat="44.09274" lon="1.53445">
        <ele>90.5</ele>
        <time>2010-09-26T10:41:14Z</time>
      </trkpt>
      <trkpt lat="44.09276" lon="1.53439">
        <ele>90.02</ele>
        <time>2010-09-26T10:41:15Z</time>
      </trkpt>
      <trkpt lat="44.09278" lon="1.53432">
        <ele>90.02</ele>
        <time>2010-09-26T10:41:16Z</time>
      </trkpt>
      <trkpt lat="44.09279" lon="1.53425">
        <ele>90.02</ele>
        <time>2010-09-26T10:41:17Z</time>
      </trkpt>
      <trkpt lat="44.0928" lon="1.53418">
        <ele>90.02</ele>
        <time>2010-09-26T10:41:18Z</time>
      </trkpt>
      <trkpt lat="44.0928" lon="1.5341">
        <ele>90.5</ele>
        <time>2010-09-26T10:41:19Z</time>
      </trkpt>
      <trkpt lat="44.0928" lon="1.53404">
        <ele>90.5</ele>
        <time>2010-09-26T10:41:20Z</time>
      </trkpt>
      <trkpt lat="44.09278" lon="1.53397">
        <ele>90.02</ele>
        <time>2010-09-26T10:41:21Z</time>
      </trkpt>
      <trkpt lat="44.09276" lon="1.53391">
        <ele>90.02</ele>
        <time>2010-09-26T10:41:22Z</time>
      </trkpt>
      <trkpt lat="44.09274" lon="1.53379">
        <ele>89.54</ele>
        <time>2010-09-26T10:41:24Z</time>
      </trkpt>
      <trkpt lat="44.09274" lon="1.53373">
        <ele>89.54</ele>
        <time>2010-09-26T10:41:25Z</time>
      </trkpt>
      <trkpt lat="44.09275" lon="1.53367">
        <ele>89.54</ele>
        <time>2010-09-26T10:41:26Z</time>
      </trkpt>
      <trkpt lat="44.09277" lon="1.53363">
        <ele>89.54</ele>
        <time>2010-09-26T10:41:27Z</time>
      </trkpt>
      <trkpt lat="44.0928" lon="1.53359">
        <ele>89.54</ele>
        <time>2010-09-26T10:41:28Z</time>
      </trkpt>
      <trkpt lat="44.09282" lon="1.53355">
        <ele>90.02</ele>
        <time>2010-09-26T10:41:29Z</time>
      </trkpt>
      <trkpt lat="44.09285" lon="1.53352">
        <ele>90.02</ele>
        <time>2010-09-26T10:41:30Z</time>
      </trkpt>
      <trkpt lat="44.09288" lon="1.53348">
        <ele>90.02</ele>
        <time>2010-09-26T10:41:31Z</time>
      </trkpt>
      <trkpt lat="44.0929" lon="1.53343">
        <ele>90.02</ele>
        <time>2010-09-26T10:41:32Z</time>
      </trkpt>
      <trkpt lat="44.09292" lon="1.53338">
        <ele>90.02</ele>
        <time>2010-09-26T10:41:33Z</time>
      </trkpt>
      <trkpt lat="44.09296" lon="1.53328">
        <ele>89.54</ele>
        <time>2010-09-26T10:41:35Z</time>
      </trkpt>
      <trkpt lat="44.09326" lon="1.53227">
        <ele>90.02</ele>
        <time>2010-09-26T10:41:50Z</time>
      </trkpt>
      <trkpt lat="44.09339" lon="1.53187">
        <ele>90.5</ele>
        <time>2010-09-26T10:41:56Z</time>
      </trkpt>
      <trkpt lat="44.09341" lon="1.5318">
        <ele>90.5</ele>
        <time>2010-09-26T10:41:57Z</time>
      </trkpt>
      <trkpt lat="44.0937" lon="1.53103">
        <ele>90.5</ele>
        <time>2010-09-26T10:42:08Z</time>
      </trkpt>
      <trkpt lat="44.09423" lon="1.52963">
        <ele>89.54</ele>
        <time>2010-09-26T10:42:27Z</time>
      </trkpt>
      <trkpt lat="44.09426" lon="1.52955">
        <ele>90.02</ele>
        <time>2010-09-26T10:42:28Z</time>
      </trkpt>
      <trkpt lat="44.09435" lon="1.52931">
        <ele>90.02</ele>
        <time>2010-09-26T10:42:31Z</time>
      </trkpt>
      <trkpt lat="44.09437" lon="1.52923">
        <ele>90.02</ele>
        <time>2010-09-26T10:42:32Z</time>
      </trkpt>
      <trkpt lat="44.09453" lon="1.52882">
        <ele>89.54</ele>
        <time>2010-09-26T10:42:38Z</time>
      </trkpt>
      <trkpt lat="44.09459" lon="1.52868">
        <ele>89.54</ele>
        <time>2010-09-26T10:42:40Z</time>
      </trkpt>
      <trkpt lat="44.09466" lon="1.52855">
        <ele>90.02</ele>
        <time>2010-09-26T10:42:42Z</time>
      </trkpt>
      <trkpt lat="44.09532" lon="1.52761">
        <ele>90.5</ele>
        <time>2010-09-26T10:42:58Z</time>
      </trkpt>
      <trkpt lat="44.09592" lon="1.52677">
        <ele>90.5</ele>
        <time>2010-09-26T10:43:13Z</time>
      </trkpt>
      <trkpt lat="44.09596" lon="1.52671">
        <ele>90.5</ele>
        <time>2010-09-26T10:43:14Z</time>
      </trkpt>
      <trkpt lat="44.09655" lon="1.52584">
        <ele>90.02</ele>
        <time>2010-09-26T10:43:29Z</time>
      </trkpt>
      <trkpt lat="44.09684" lon="1.52535">
        <ele>90.02</ele>
        <time>2010-09-26T10:43:37Z</time>
      </trkpt>
      <trkpt lat="44.09687" lon="1.5253">
        <ele>90.02</ele>
        <time>2010-09-26T10:43:38Z</time>
      </trkpt>
      <trkpt lat="44.09719" lon="1.5243">
        <ele>89.54</ele>
        <time>2010-09-26T10:43:52Z</time>
      </trkpt>
      <trkpt lat="44.09721" lon="1.52325">
        <ele>89.54</ele>
        <time>2010-09-26T10:44:05Z</time>
      </trkpt>
      <trkpt lat="44.09724" lon="1.52268">
        <ele>89.06</ele>
        <time>2010-09-26T10:44:12Z</time>
      </trkpt>
      <trkpt lat="44.09745" lon="1.52105">
        <ele>88.58</ele>
        <time>2010-09-26T10:44:32Z</time>
      </trkpt>
      <trkpt lat="44.09752" lon="1.51969">
        <ele>88.58</ele>
        <time>2010-09-26T10:44:49Z</time>
      </trkpt>
      <trkpt lat="44.09761" lon="1.51908">
        <ele>88.58</ele>
        <time>2010-09-26T10:44:57Z</time>
      </trkpt>
      <trkpt lat="44.09774" lon="1.51796">
        <ele>88.1</ele>
        <time>2010-09-26T10:45:11Z</time>
      </trkpt>
      <trkpt lat="44.09774" lon="1.51761">
        <ele>87.62</ele>
        <time>2010-09-26T10:45:15Z</time>
      </trkpt>
      <trkpt lat="44.09773" lon="1.51753">
        <ele>87.62</ele>
        <time>2010-09-26T10:45:16Z</time>
      </trkpt>
      <trkpt lat="44.09772" lon="1.51744">
        <ele>88.1</ele>
        <time>2010-09-26T10:45:17Z</time>
      </trkpt>
      <trkpt lat="44.0977" lon="1.51736">
        <ele>88.1</ele>
        <time>2010-09-26T10:45:18Z</time>
      </trkpt>
      <trkpt lat="44.09768" lon="1.51728">
        <ele>87.62</ele>
        <time>2010-09-26T10:45:19Z</time>
      </trkpt>
      <trkpt lat="44.09765" lon="1.51721">
        <ele>88.1</ele>
        <time>2010-09-26T10:45:20Z</time>
      </trkpt>
      <trkpt lat="44.09721" lon="1.51596">
        <ele>88.1</ele>
        <time>2010-09-26T10:45:36Z</time>
      </trkpt>
      <trkpt lat="44.09715" lon="1.51561">
        <ele>88.1</ele>
        <time>2010-09-26T10:45:40Z</time>
      </trkpt>
      <trkpt lat="44.09706" lon="1.51413">
        <ele>88.1</ele>
        <time>2010-09-26T10:45:57Z</time>
      </trkpt>
      <trkpt lat="44.09708" lon="1.51394">
        <ele>88.58</ele>
        <time>2010-09-26T10:45:59Z</time>
      </trkpt>
      <trkpt lat="44.09711" lon="1.51386">
        <ele>88.1</ele>
        <time>2010-09-26T10:46:00Z</time>
      </trkpt>
      <trkpt lat="44.09713" lon="1.51378">
        <ele>88.58</ele>
        <time>2010-09-26T10:46:01Z</time>
      </trkpt>
      <trkpt lat="44.09716" lon="1.51369">
        <ele>88.58</ele>
        <time>2010-09-26T10:46:02Z</time>
      </trkpt>
      <trkpt lat="44.0972" lon="1.51361">
        <ele>89.06</ele>
        <time>2010-09-26T10:46:03Z</time>
      </trkpt>
      <trkpt lat="44.09734" lon="1.51323">
        <ele>88.58</ele>
        <time>2010-09-26T10:46:08Z</time>
      </trkpt>
      <trkpt lat="44.09737" lon="1.51315">
        <ele>89.06</ele>
        <time>2010-09-26T10:46:09Z</time>
      </trkpt>
      <trkpt lat="44.0974" lon="1.51308">
        <ele>88.58</ele>
        <time>2010-09-26T10:46:10Z</time>
      </trkpt>
      <trkpt lat="44.09782" lon="1.51178">
        <ele>88.58</ele>
        <time>2010-09-26T10:46:26Z</time>
      </trkpt>
      <trkpt lat="44.09794" lon="1.51058">
        <ele>88.1</ele>
        <time>2010-09-26T10:46:39Z</time>
      </trkpt>
      <trkpt lat="44.09798" lon="1.50984">
        <ele>88.1</ele>
        <time>2010-09-26T10:46:48Z</time>
      </trkpt>
      <trkpt lat="44.09798" lon="1.50976">
        <ele>88.1</ele>
        <time>2010-09-26T10:46:49Z</time>
      </trkpt>
      <trkpt lat="44.09806" lon="1.50839">
        <ele>87.14</ele>
        <time>2010-09-26T10:47:05Z</time>
      </trkpt>
      <trkpt lat="44.09813" lon="1.50775">
        <ele>87.14</ele>
        <time>2010-09-26T10:47:13Z</time>
      </trkpt>
      <trkpt lat="44.09814" lon="1.50767">
        <ele>87.62</ele>
        <time>2010-09-26T10:47:14Z</time>
      </trkpt>
      <trkpt lat="44.09837" lon="1.50643">
        <ele>87.14</ele>
        <time>2010-09-26T10:47:30Z</time>
      </trkpt>
      <trkpt lat="44.09889" lon="1.50553">
        <ele>87.62</ele>
        <time>2010-09-26T10:47:44Z</time>
      </trkpt>
      <trkpt lat="44.09965" lon="1.50466">
        <ele>87.14</ele>
        <time>2010-09-26T10:48:00Z</time>
      </trkpt>
      <trkpt lat="44.10054" lon="1.50426">
        <ele>88.1</ele>
        <time>2010-09-26T10:48:16Z</time>
      </trkpt>
      <trkpt lat="44.10065" lon="1.50421">
        <ele>88.58</ele>
        <time>2010-09-26T10:48:18Z</time>
      </trkpt>
      <trkpt lat="44.1007" lon="1.50418">
        <ele>88.58</ele>
        <time>2010-09-26T10:48:19Z</time>
      </trkpt>
      <trkpt lat="44.10094" lon="1.50397">
        <ele>90.02</ele>
        <time>2010-09-26T10:48:24Z</time>
      </trkpt>
      <trkpt lat="44.10113" lon="1.50372">
        <ele>91.46</ele>
        <time>2010-09-26T10:48:29Z</time>
      </trkpt>
      <trkpt lat="44.10122" lon="1.50356">
        <ele>91.94</ele>
        <time>2010-09-26T10:48:32Z</time>
      </trkpt>
      <trkpt lat="44.10143" lon="1.5031">
        <ele>91.46</ele>
        <time>2010-09-26T10:48:44Z</time>
      </trkpt>
      <trkpt lat="44.10159" lon="1.50275">
        <ele>92.9</ele>
        <time>2010-09-26T10:48:51Z</time>
      </trkpt>
      <trkpt lat="44.10177" lon="1.50221">
        <ele>92.42</ele>
        <time>2010-09-26T10:49:00Z</time>
      </trkpt>
      <trkpt lat="44.10198" lon="1.50164">
        <ele>92.42</ele>
        <time>2010-09-26T10:49:10Z</time>
      </trkpt>
      <trkpt lat="44.10204" lon="1.50147">
        <ele>92.42</ele>
        <time>2010-09-26T10:49:13Z</time>
      </trkpt>
      <trkpt lat="44.10229" lon="1.501">
        <ele>92.9</ele>
        <time>2010-09-26T10:49:25Z</time>
      </trkpt>
      <trkpt lat="44.10236" lon="1.50088">
        <ele>92.9</ele>
        <time>2010-09-26T10:49:28Z</time>
      </trkpt>
      <trkpt lat="44.10288" lon="1.49995">
        <ele>92.42</ele>
        <time>2010-09-26T10:49:45Z</time>
      </trkpt>
      <trkpt lat="44.10351" lon="1.49879">
        <ele>91.94</ele>
        <time>2010-09-26T10:50:05Z</time>
      </trkpt>
      <trkpt lat="44.10422" lon="1.49762">
        <ele>92.42</ele>
        <time>2010-09-26T10:50:25Z</time>
      </trkpt>
      <trkpt lat="44.10451" lon="1.49727">
        <ele>92.42</ele>
        <time>2010-09-26T10:50:32Z</time>
      </trkpt>
      <trkpt lat="44.10483" lon="1.49696">
        <ele>92.9</ele>
        <time>2010-09-26T10:50:39Z</time>
      </trkpt>
      <trkpt lat="44.10487" lon="1.49691">
        <ele>92.42</ele>
        <time>2010-09-26T10:50:40Z</time>
      </trkpt>
      <trkpt lat="44.10499" lon="1.49679">
        <ele>92.42</ele>
        <time>2010-09-26T10:50:43Z</time>
      </trkpt>
      <trkpt lat="44.10502" lon="1.49675">
        <ele>92.42</ele>
        <time>2010-09-26T10:50:44Z</time>
      </trkpt>
      <trkpt lat="44.10515" lon="1.49659">
        <ele>92.9</ele>
        <time>2010-09-26T10:50:48Z</time>
      </trkpt>
      <trkpt lat="44.10532" lon="1.49636">
        <ele>92.9</ele>
        <time>2010-09-26T10:50:53Z</time>
      </trkpt>
      <trkpt lat="44.10535" lon="1.49631">
        <ele>92.9</ele>
        <time>2010-09-26T10:50:54Z</time>
      </trkpt>
      <trkpt lat="44.1055" lon="1.49612">
        <ele>92.42</ele>
        <time>2010-09-26T10:50:58Z</time>
      </trkpt>
      <trkpt lat="44.10557" lon="1.49602">
        <ele>92.42</ele>
        <time>2010-09-26T10:51:00Z</time>
      </trkpt>
      <trkpt lat="44.10563" lon="1.49592">
        <ele>92.42</ele>
        <time>2010-09-26T10:51:02Z</time>
      </trkpt>
      <trkpt lat="44.10598" lon="1.49545">
        <ele>91.94</ele>
        <time>2010-09-26T10:51:15Z</time>
      </trkpt>
      <trkpt lat="44.10608" lon="1.4953">
        <ele>92.42</ele>
        <time>2010-09-26T10:51:19Z</time>
      </trkpt>
      <trkpt lat="44.10611" lon="1.49526">
        <ele>92.42</ele>
        <time>2010-09-26T10:51:20Z</time>
      </trkpt>
      <trkpt lat="44.10624" lon="1.49506">
        <ele>91.94</ele>
        <time>2010-09-26T10:51:24Z</time>
      </trkpt>
      <trkpt lat="44.10627" lon="1.495">
        <ele>91.94</ele>
        <time>2010-09-26T10:51:25Z</time>
      </trkpt>
      <trkpt lat="44.10644" lon="1.49474">
        <ele>91.46</ele>
        <time>2010-09-26T10:51:30Z</time>
      </trkpt>
      <trkpt lat="44.10692" lon="1.49404">
        <ele>90.98</ele>
        <time>2010-09-26T10:51:43Z</time>
      </trkpt>
      <trkpt lat="44.10696" lon="1.494">
        <ele>91.46</ele>
        <time>2010-09-26T10:51:44Z</time>
      </trkpt>
      <trkpt lat="44.10707" lon="1.49394">
        <ele>91.46</ele>
        <time>2010-09-26T10:51:46Z</time>
      </trkpt>
      <trkpt lat="44.10712" lon="1.49392">
        <ele>91.46</ele>
        <time>2010-09-26T10:51:47Z</time>
      </trkpt>
      <trkpt lat="44.10788" lon="1.494">
        <ele>91.46</ele>
        <time>2010-09-26T10:52:01Z</time>
      </trkpt>
      <trkpt lat="44.1088" lon="1.49427">
        <ele>90.98</ele>
        <time>2010-09-26T10:52:18Z</time>
      </trkpt>
      <trkpt lat="44.10908" lon="1.49423">
        <ele>91.46</ele>
        <time>2010-09-26T10:52:23Z</time>
      </trkpt>
      <trkpt lat="44.10918" lon="1.49419">
        <ele>91.46</ele>
        <time>2010-09-26T10:52:25Z</time>
      </trkpt>
      <trkpt lat="44.10942" lon="1.49404">
        <ele>91.46</ele>
        <time>2010-09-26T10:52:30Z</time>
      </trkpt>
      <trkpt lat="44.10946" lon="1.49399">
        <ele>90.98</ele>
        <time>2010-09-26T10:52:31Z</time>
      </trkpt>
      <trkpt lat="44.10953" lon="1.49392">
        <ele>93.87</ele>
        <time>2010-09-26T10:52:33Z</time>
      </trkpt>
      <trkpt lat="44.10957" lon="1.49387">
        <ele>93.39</ele>
        <time>2010-09-26T10:52:34Z</time>
      </trkpt>
      <trkpt lat="44.10963" lon="1.4938">
        <ele>91.94</ele>
        <time>2010-09-26T10:52:36Z</time>
      </trkpt>
      <trkpt lat="44.11007" lon="1.49326">
        <ele>91.94</ele>
        <time>2010-09-26T10:52:49Z</time>
      </trkpt>
      <trkpt lat="44.11016" lon="1.49312">
        <ele>91.94</ele>
        <time>2010-09-26T10:52:52Z</time>
      </trkpt>
      <trkpt lat="44.11018" lon="1.49306">
        <ele>92.42</ele>
        <time>2010-09-26T10:52:53Z</time>
      </trkpt>
      <trkpt lat="44.1102" lon="1.49301">
        <ele>91.94</ele>
        <time>2010-09-26T10:52:54Z</time>
      </trkpt>
      <trkpt lat="44.11022" lon="1.49296">
        <ele>91.94</ele>
        <time>2010-09-26T10:52:55Z</time>
      </trkpt>
      <trkpt lat="44.11024" lon="1.49289">
        <ele>91.94</ele>
        <time>2010-09-26T10:52:56Z</time>
      </trkpt>
      <trkpt lat="44.11026" lon="1.49282">
        <ele>91.94</ele>
        <time>2010-09-26T10:52:57Z</time>
      </trkpt>
      <trkpt lat="44.11028" lon="1.49275">
        <ele>91.94</ele>
        <time>2010-09-26T10:52:58Z</time>
      </trkpt>
      <trkpt lat="44.1103" lon="1.49267">
        <ele>92.42</ele>
        <time>2010-09-26T10:52:59Z</time>
      </trkpt>
      <trkpt lat="44.11032" lon="1.4926">
        <ele>92.42</ele>
        <time>2010-09-26T10:53:00Z</time>
      </trkpt>
      <trkpt lat="44.11035" lon="1.49246">
        <ele>91.94</ele>
        <time>2010-09-26T10:53:02Z</time>
      </trkpt>
      <trkpt lat="44.11039" lon="1.49228">
        <ele>92.42</ele>
        <time>2010-09-26T10:53:05Z</time>
      </trkpt>
      <trkpt lat="44.11041" lon="1.49223">
        <ele>91.94</ele>
        <time>2010-09-26T10:53:06Z</time>
      </trkpt>
      <trkpt lat="44.11043" lon="1.49217">
        <ele>92.42</ele>
        <time>2010-09-26T10:53:07Z</time>
      </trkpt>
      <trkpt lat="44.11048" lon="1.49188">
        <ele>92.42</ele>
        <time>2010-09-26T10:53:12Z</time>
      </trkpt>
      <trkpt lat="44.11052" lon="1.49175">
        <ele>91.94</ele>
        <time>2010-09-26T10:53:14Z</time>
      </trkpt>
      <trkpt lat="44.11058" lon="1.49144">
        <ele>92.42</ele>
        <time>2010-09-26T10:53:18Z</time>
      </trkpt>
      <trkpt lat="44.11081" lon="1.49064">
        <ele>93.39</ele>
        <time>2010-09-26T10:53:31Z</time>
      </trkpt>
      <trkpt lat="44.11089" lon="1.49035">
        <ele>93.39</ele>
        <time>2010-09-26T10:53:36Z</time>
      </trkpt>
      <trkpt lat="44.11094" lon="1.49012">
        <ele>93.39</ele>
        <time>2010-09-26T10:53:40Z</time>
      </trkpt>
      <trkpt lat="44.11095" lon="1.49006">
        <ele>93.87</ele>
        <time>2010-09-26T10:53:41Z</time>
      </trkpt>
      <trkpt lat="44.11096" lon="1.49">
        <ele>93.39</ele>
        <time>2010-09-26T10:53:42Z</time>
      </trkpt>
      <trkpt lat="44.11103" lon="1.48952">
        <ele>93.87</ele>
        <time>2010-09-26T10:53:50Z</time>
      </trkpt>
      <trkpt lat="44.11104" lon="1.48945">
        <ele>93.39</ele>
        <time>2010-09-26T10:53:51Z</time>
      </trkpt>
      <trkpt lat="44.11104" lon="1.48939">
        <ele>93.87</ele>
        <time>2010-09-26T10:53:52Z</time>
      </trkpt>
      <trkpt lat="44.11116" lon="1.48859">
        <ele>94.35</ele>
        <time>2010-09-26T10:54:05Z</time>
      </trkpt>
      <trkpt lat="44.11121" lon="1.48828">
        <ele>94.83</ele>
        <time>2010-09-26T10:54:10Z</time>
      </trkpt>
      <trkpt lat="44.11123" lon="1.48823">
        <ele>94.35</ele>
        <time>2010-09-26T10:54:11Z</time>
      </trkpt>
      <trkpt lat="44.1113" lon="1.48792">
        <ele>94.35</ele>
        <time>2010-09-26T10:54:16Z</time>
      </trkpt>
      <trkpt lat="44.11131" lon="1.48787">
        <ele>94.35</ele>
        <time>2010-09-26T10:54:17Z</time>
      </trkpt>
      <trkpt lat="44.11131" lon="1.48781">
        <ele>94.35</ele>
        <time>2010-09-26T10:54:18Z</time>
      </trkpt>
      <trkpt lat="44.11132" lon="1.48776">
        <ele>94.35</ele>
        <time>2010-09-26T10:54:19Z</time>
      </trkpt>
      <trkpt lat="44.11134" lon="1.48771">
        <ele>94.35</ele>
        <time>2010-09-26T10:54:20Z</time>
      </trkpt>
      <trkpt lat="44.11134" lon="1.48766">
        <ele>94.35</ele>
        <time>2010-09-26T10:54:21Z</time>
      </trkpt>
      <trkpt lat="44.11138" lon="1.48749">
        <ele>94.83</ele>
        <time>2010-09-26T10:54:24Z</time>
      </trkpt>
      <trkpt lat="44.11147" lon="1.48707">
        <ele>94.83</ele>
        <time>2010-09-26T10:54:31Z</time>
      </trkpt>
      <trkpt lat="44.11149" lon="1.48701">
        <ele>94.83</ele>
        <time>2010-09-26T10:54:32Z</time>
      </trkpt>
      <trkpt lat="44.11163" lon="1.4865">
        <ele>94.83</ele>
        <time>2010-09-26T10:54:40Z</time>
      </trkpt>
      <trkpt lat="44.11182" lon="1.486">
        <ele>95.31</ele>
        <time>2010-09-26T10:54:50Z</time>
      </trkpt>
      <trkpt lat="44.11217" lon="1.48514">
        <ele>96.27</ele>
        <time>2010-09-26T10:55:06Z</time>
      </trkpt>
      <trkpt lat="44.11224" lon="1.48496">
        <ele>96.75</ele>
        <time>2010-09-26T10:55:09Z</time>
      </trkpt>
      <trkpt lat="44.11225" lon="1.48491">
        <ele>97.23</ele>
        <time>2010-09-26T10:55:10Z</time>
      </trkpt>
      <trkpt lat="44.11227" lon="1.48485">
        <ele>97.71</ele>
        <time>2010-09-26T10:55:11Z</time>
      </trkpt>
      <trkpt lat="44.11233" lon="1.4846">
        <ele>97.71</ele>
        <time>2010-09-26T10:55:15Z</time>
      </trkpt>
      <trkpt lat="44.11233" lon="1.48454">
        <ele>97.71</ele>
        <time>2010-09-26T10:55:16Z</time>
      </trkpt>
      <trkpt lat="44.11232" lon="1.48448">
        <ele>97.71</ele>
        <time>2010-09-26T10:55:17Z</time>
      </trkpt>
      <trkpt lat="44.1123" lon="1.48443">
        <ele>97.71</ele>
        <time>2010-09-26T10:55:18Z</time>
      </trkpt>
      <trkpt lat="44.11228" lon="1.48437">
        <ele>97.23</ele>
        <time>2010-09-26T10:55:19Z</time>
      </trkpt>
      <trkpt lat="44.11225" lon="1.48432">
        <ele>97.23</ele>
        <time>2010-09-26T10:55:20Z</time>
      </trkpt>
      <trkpt lat="44.11221" lon="1.48427">
        <ele>96.75</ele>
        <time>2010-09-26T10:55:21Z</time>
      </trkpt>
      <trkpt lat="44.11217" lon="1.48421">
        <ele>96.27</ele>
        <time>2010-09-26T10:55:22Z</time>
      </trkpt>
      <trkpt lat="44.11184" lon="1.48382">
        <ele>92.9</ele>
        <time>2010-09-26T10:55:29Z</time>
      </trkpt>
      <trkpt lat="44.11116" lon="1.483">
        <ele>90.98</ele>
        <time>2010-09-26T10:55:44Z</time>
      </trkpt>
      <trkpt lat="44.11081" lon="1.48256">
        <ele>90.5</ele>
        <time>2010-09-26T10:55:53Z</time>
      </trkpt>
      <trkpt lat="44.11077" lon="1.48252">
        <ele>90.5</ele>
        <time>2010-09-26T10:55:54Z</time>
      </trkpt>
      <trkpt lat="44.11073" lon="1.48248">
        <ele>90.5</ele>
        <time>2010-09-26T10:55:55Z</time>
      </trkpt>
      <trkpt lat="44.11067" lon="1.48245">
        <ele>89.06</ele>
        <time>2010-09-26T10:55:56Z</time>
      </trkpt>
      <trkpt lat="44.11061" lon="1.48242">
        <ele>89.06</ele>
        <time>2010-09-26T10:55:57Z</time>
      </trkpt>
      <trkpt lat="44.11042" lon="1.48234">
        <ele>87.62</ele>
        <time>2010-09-26T10:56:00Z</time>
      </trkpt>
      <trkpt lat="44.11035" lon="1.48231">
        <ele>87.62</ele>
        <time>2010-09-26T10:56:01Z</time>
      </trkpt>
      <trkpt lat="44.10951" lon="1.48193">
        <ele>85.21</ele>
        <time>2010-09-26T10:56:14Z</time>
      </trkpt>
      <trkpt lat="44.10939" lon="1.48185">
        <ele>85.21</ele>
        <time>2010-09-26T10:56:16Z</time>
      </trkpt>
      <trkpt lat="44.10919" lon="1.48169">
        <ele>85.21</ele>
        <time>2010-09-26T10:56:20Z</time>
      </trkpt>
      <trkpt lat="44.10915" lon="1.48165">
        <ele>84.73</ele>
        <time>2010-09-26T10:56:21Z</time>
      </trkpt>
      <trkpt lat="44.10911" lon="1.48163">
        <ele>84.73</ele>
        <time>2010-09-26T10:56:22Z</time>
      </trkpt>
      <trkpt lat="44.10906" lon="1.48161">
        <ele>84.73</ele>
        <time>2010-09-26T10:56:23Z</time>
      </trkpt>
      <trkpt lat="44.10902" lon="1.48159">
        <ele>85.21</ele>
        <time>2010-09-26T10:56:24Z</time>
      </trkpt>
      <trkpt lat="44.10898" lon="1.48157">
        <ele>85.21</ele>
        <time>2010-09-26T10:56:25Z</time>
      </trkpt>
      <trkpt lat="44.10873" lon="1.48142">
        <ele>85.69</ele>
        <time>2010-09-26T10:56:32Z</time>
      </trkpt>
      <trkpt lat="44.10871" lon="1.48138">
        <ele>85.21</ele>
        <time>2010-09-26T10:56:33Z</time>
      </trkpt>
      <trkpt lat="44.10867" lon="1.48134">
        <ele>85.21</ele>
        <time>2010-09-26T10:56:34Z</time>
      </trkpt>
      <trkpt lat="44.10852" lon="1.48118">
        <ele>85.21</ele>
        <time>2010-09-26T10:56:38Z</time>
      </trkpt>
      <trkpt lat="44.10843" lon="1.4811">
        <ele>85.21</ele>
        <time>2010-09-26T10:56:40Z</time>
      </trkpt>
      <trkpt lat="44.1083" lon="1.48096">
        <ele>85.21</ele>
        <time>2010-09-26T10:56:43Z</time>
      </trkpt>
      <trkpt lat="44.10826" lon="1.48093">
        <ele>85.21</ele>
        <time>2010-09-26T10:56:44Z</time>
      </trkpt>
      <trkpt lat="44.10821" lon="1.48089">
        <ele>85.69</ele>
        <time>2010-09-26T10:56:45Z</time>
      </trkpt>
      <trkpt lat="44.10813" lon="1.48081">
        <ele>85.21</ele>
        <time>2010-09-26T10:56:47Z</time>
      </trkpt>
      <trkpt lat="44.10809" lon="1.48077">
        <ele>85.21</ele>
        <time>2010-09-26T10:56:48Z</time>
      </trkpt>
      <trkpt lat="44.10755" lon="1.48006">
        <ele>84.73</ele>
        <time>2010-09-26T10:57:01Z</time>
      </trkpt>
      <trkpt lat="44.10692" lon="1.47937">
        <ele>84.25</ele>
        <time>2010-09-26T10:57:15Z</time>
      </trkpt>
      <trkpt lat="44.10684" lon="1.47929">
        <ele>85.21</ele>
        <time>2010-09-26T10:57:17Z</time>
      </trkpt>
      <trkpt lat="44.10648" lon="1.47901">
        <ele>84.73</ele>
        <time>2010-09-26T10:57:24Z</time>
      </trkpt>
      <trkpt lat="44.10644" lon="1.47897">
        <ele>84.73</ele>
        <time>2010-09-26T10:57:25Z</time>
      </trkpt>
      <trkpt lat="44.10638" lon="1.47893">
        <ele>84.73</ele>
        <time>2010-09-26T10:57:26Z</time>
      </trkpt>
      <trkpt lat="44.10633" lon="1.47889">
        <ele>85.21</ele>
        <time>2010-09-26T10:57:27Z</time>
      </trkpt>
      <trkpt lat="44.10627" lon="1.47885">
        <ele>84.73</ele>
        <time>2010-09-26T10:57:28Z</time>
      </trkpt>
      <trkpt lat="44.10563" lon="1.47849">
        <ele>84.73</ele>
        <time>2010-09-26T10:57:40Z</time>
      </trkpt>
      <trkpt lat="44.10547" lon="1.47839">
        <ele>84.73</ele>
        <time>2010-09-26T10:57:43Z</time>
      </trkpt>
      <trkpt lat="44.10498" lon="1.4781">
        <ele>84.73</ele>
        <time>2010-09-26T10:57:53Z</time>
      </trkpt>
      <trkpt lat="44.10493" lon="1.47806">
        <ele>84.73</ele>
        <time>2010-09-26T10:57:54Z</time>
      </trkpt>
      <trkpt lat="44.10488" lon="1.47803">
        <ele>84.73</ele>
        <time>2010-09-26T10:57:55Z</time>
      </trkpt>
      <trkpt lat="44.1043" lon="1.4777">
        <ele>84.73</ele>
        <time>2010-09-26T10:58:06Z</time>
      </trkpt>
      <trkpt lat="44.10403" lon="1.47752">
        <ele>84.25</ele>
        <time>2010-09-26T10:58:12Z</time>
      </trkpt>
      <trkpt lat="44.10389" lon="1.47741">
        <ele>83.77</ele>
        <time>2010-09-26T10:58:15Z</time>
      </trkpt>
      <trkpt lat="44.10384" lon="1.47737">
        <ele>83.29</ele>
        <time>2010-09-26T10:58:16Z</time>
      </trkpt>
      <trkpt lat="44.10359" lon="1.4772">
        <ele>83.77</ele>
        <time>2010-09-26T10:58:21Z</time>
      </trkpt>
      <trkpt lat="44.10355" lon="1.47716">
        <ele>83.77</ele>
        <time>2010-09-26T10:58:22Z</time>
      </trkpt>
      <trkpt lat="44.1035" lon="1.47713">
        <ele>83.77</ele>
        <time>2010-09-26T10:58:23Z</time>
      </trkpt>
      <trkpt lat="44.10319" lon="1.47686">
        <ele>83.29</ele>
        <time>2010-09-26T10:58:29Z</time>
      </trkpt>
      <trkpt lat="44.10286" lon="1.47664">
        <ele>82.81</ele>
        <time>2010-09-26T10:58:36Z</time>
      </trkpt>
      <trkpt lat="44.10282" lon="1.4766">
        <ele>83.29</ele>
        <time>2010-09-26T10:58:37Z</time>
      </trkpt>
      <trkpt lat="44.10277" lon="1.47656">
        <ele>83.29</ele>
        <time>2010-09-26T10:58:38Z</time>
      </trkpt>
      <trkpt lat="44.10272" lon="1.47653">
        <ele>82.81</ele>
        <time>2010-09-26T10:58:39Z</time>
      </trkpt>
      <trkpt lat="44.10266" lon="1.4765">
        <ele>82.81</ele>
        <time>2010-09-26T10:58:40Z</time>
      </trkpt>
      <trkpt lat="44.10256" lon="1.47643">
        <ele>82.81</ele>
        <time>2010-09-26T10:58:42Z</time>
      </trkpt>
      <trkpt lat="44.10228" lon="1.47619">
        <ele>82.81</ele>
        <time>2010-09-26T10:58:48Z</time>
      </trkpt>
      <trkpt lat="44.10224" lon="1.47615">
        <ele>82.33</ele>
        <time>2010-09-26T10:58:49Z</time>
      </trkpt>
      <trkpt lat="44.10216" lon="1.47607">
        <ele>82.33</ele>
        <time>2010-09-26T10:58:51Z</time>
      </trkpt>
      <trkpt lat="44.10203" lon="1.47597">
        <ele>82.33</ele>
        <time>2010-09-26T10:58:54Z</time>
      </trkpt>
      <trkpt lat="44.10198" lon="1.47593">
        <ele>82.81</ele>
        <time>2010-09-26T10:58:55Z</time>
      </trkpt>
      <trkpt lat="44.10194" lon="1.47588">
        <ele>82.33</ele>
        <time>2010-09-26T10:58:56Z</time>
      </trkpt>
      <trkpt lat="44.10189" lon="1.47584">
        <ele>82.33</ele>
        <time>2010-09-26T10:58:57Z</time>
      </trkpt>
      <trkpt lat="44.10184" lon="1.4758">
        <ele>82.33</ele>
        <time>2010-09-26T10:58:58Z</time>
      </trkpt>
      <trkpt lat="44.1018" lon="1.47575">
        <ele>82.33</ele>
        <time>2010-09-26T10:58:59Z</time>
      </trkpt>
      <trkpt lat="44.10176" lon="1.47571">
        <ele>82.33</ele>
        <time>2010-09-26T10:59:00Z</time>
      </trkpt>
      <trkpt lat="44.10172" lon="1.47566">
        <ele>82.33</ele>
        <time>2010-09-26T10:59:01Z</time>
      </trkpt>
      <trkpt lat="44.10153" lon="1.47539">
        <ele>81.85</ele>
        <time>2010-09-26T10:59:06Z</time>
      </trkpt>
      <trkpt lat="44.1015" lon="1.47534">
        <ele>81.37</ele>
        <time>2010-09-26T10:59:07Z</time>
      </trkpt>
      <trkpt lat="44.10147" lon="1.4753">
        <ele>81.85</ele>
        <time>2010-09-26T10:59:08Z</time>
      </trkpt>
      <trkpt lat="44.10139" lon="1.47522">
        <ele>81.85</ele>
        <time>2010-09-26T10:59:10Z</time>
      </trkpt>
      <trkpt lat="44.10135" lon="1.47517">
        <ele>81.85</ele>
        <time>2010-09-26T10:59:11Z</time>
      </trkpt>
      <trkpt lat="44.10124" lon="1.47501">
        <ele>81.37</ele>
        <time>2010-09-26T10:59:14Z</time>
      </trkpt>
      <trkpt lat="44.10103" lon="1.47457">
        <ele>81.37</ele>
        <time>2010-09-26T10:59:21Z</time>
      </trkpt>
      <trkpt lat="44.10086" lon="1.47408">
        <ele>80.89</ele>
        <time>2010-09-26T10:59:28Z</time>
      </trkpt>
      <trkpt lat="44.10065" lon="1.47351">
        <ele>80.89</ele>
        <time>2010-09-26T10:59:36Z</time>
      </trkpt>
      <trkpt lat="44.10032" lon="1.47254">
        <ele>80.41</ele>
        <time>2010-09-26T10:59:49Z</time>
      </trkpt>
      <trkpt lat="44.10005" lon="1.47143">
        <ele>80.89</ele>
        <time>2010-09-26T11:00:03Z</time>
      </trkpt>
      <trkpt lat="44.0999" lon="1.47075">
        <ele>80.41</ele>
        <time>2010-09-26T11:00:12Z</time>
      </trkpt>
      <trkpt lat="44.09983" lon="1.47052">
        <ele>79.93</ele>
        <time>2010-09-26T11:00:15Z</time>
      </trkpt>
      <trkpt lat="44.09982" lon="1.47045">
        <ele>79.93</ele>
        <time>2010-09-26T11:00:16Z</time>
      </trkpt>
      <trkpt lat="44.0998" lon="1.47039">
        <ele>79.93</ele>
        <time>2010-09-26T11:00:17Z</time>
      </trkpt>
      <trkpt lat="44.09979" lon="1.47032">
        <ele>80.41</ele>
        <time>2010-09-26T11:00:18Z</time>
      </trkpt>
      <trkpt lat="44.09978" lon="1.47025">
        <ele>79.93</ele>
        <time>2010-09-26T11:00:19Z</time>
      </trkpt>
      <trkpt lat="44.09977" lon="1.47019">
        <ele>79.93</ele>
        <time>2010-09-26T11:00:20Z</time>
      </trkpt>
      <trkpt lat="44.09975" lon="1.47013">
        <ele>80.41</ele>
        <time>2010-09-26T11:00:21Z</time>
      </trkpt>
      <trkpt lat="44.09973" lon="1.47007">
        <ele>80.41</ele>
        <time>2010-09-26T11:00:22Z</time>
      </trkpt>
      <trkpt lat="44.09971" lon="1.47001">
        <ele>79.93</ele>
        <time>2010-09-26T11:00:23Z</time>
      </trkpt>
      <trkpt lat="44.09971" lon="1.46996">
        <ele>80.41</ele>
        <time>2010-09-26T11:00:24Z</time>
      </trkpt>
      <trkpt lat="44.0997" lon="1.46989">
        <ele>80.41</ele>
        <time>2010-09-26T11:00:25Z</time>
      </trkpt>
      <trkpt lat="44.09969" lon="1.46985">
        <ele>80.41</ele>
        <time>2010-09-26T11:00:26Z</time>
      </trkpt>
      <trkpt lat="44.09968" lon="1.4698">
        <ele>79.93</ele>
        <time>2010-09-26T11:00:27Z</time>
      </trkpt>
      <trkpt lat="44.09967" lon="1.46975">
        <ele>80.41</ele>
        <time>2010-09-26T11:00:28Z</time>
      </trkpt>
      <trkpt lat="44.09966" lon="1.46969">
        <ele>80.41</ele>
        <time>2010-09-26T11:00:29Z</time>
      </trkpt>
      <trkpt lat="44.09964" lon="1.46963">
        <ele>79.93</ele>
        <time>2010-09-26T11:00:30Z</time>
      </trkpt>
      <trkpt lat="44.09963" lon="1.46957">
        <ele>79.93</ele>
        <time>2010-09-26T11:00:31Z</time>
      </trkpt>
      <trkpt lat="44.09963" lon="1.46951">
        <ele>79.93</ele>
        <time>2010-09-26T11:00:32Z</time>
      </trkpt>
      <trkpt lat="44.09962" lon="1.46943">
        <ele>79.93</ele>
        <time>2010-09-26T11:00:33Z</time>
      </trkpt>
      <trkpt lat="44.0996" lon="1.46936">
        <ele>79.45</ele>
        <time>2010-09-26T11:00:34Z</time>
      </trkpt>
      <trkpt lat="44.09957" lon="1.46915">
        <ele>78.97</ele>
        <time>2010-09-26T11:00:37Z</time>
      </trkpt>
      <trkpt lat="44.09953" lon="1.4689">
        <ele>78.48</ele>
        <time>2010-09-26T11:00:41Z</time>
      </trkpt>
      <trkpt lat="44.09945" lon="1.46854">
        <ele>78.97</ele>
        <time>2010-09-26T11:00:47Z</time>
      </trkpt>
      <trkpt lat="44.09943" lon="1.46848">
        <ele>78.48</ele>
        <time>2010-09-26T11:00:48Z</time>
      </trkpt>
      <trkpt lat="44.09941" lon="1.46843">
        <ele>78.97</ele>
        <time>2010-09-26T11:00:49Z</time>
      </trkpt>
      <trkpt lat="44.09939" lon="1.46838">
        <ele>78.48</ele>
        <time>2010-09-26T11:00:50Z</time>
      </trkpt>
      <trkpt lat="44.09938" lon="1.46833">
        <ele>78.97</ele>
        <time>2010-09-26T11:00:51Z</time>
      </trkpt>
      <trkpt lat="44.09937" lon="1.46827">
        <ele>78.97</ele>
        <time>2010-09-26T11:00:52Z</time>
      </trkpt>
      <trkpt lat="44.09925" lon="1.46784">
        <ele>81.37</ele>
        <time>2010-09-26T11:01:01Z</time>
      </trkpt>
      <trkpt lat="44.09921" lon="1.46767">
        <ele>81.37</ele>
        <time>2010-09-26T11:01:04Z</time>
      </trkpt>
      <trkpt lat="44.09921" lon="1.46761">
        <ele>81.37</ele>
        <time>2010-09-26T11:01:05Z</time>
      </trkpt>
      <trkpt lat="44.09921" lon="1.46755">
        <ele>81.85</ele>
        <time>2010-09-26T11:01:06Z</time>
      </trkpt>
      <trkpt lat="44.09921" lon="1.46749">
        <ele>81.85</ele>
        <time>2010-09-26T11:01:07Z</time>
      </trkpt>
      <trkpt lat="44.09922" lon="1.46744">
        <ele>81.85</ele>
        <time>2010-09-26T11:01:08Z</time>
      </trkpt>
      <trkpt lat="44.09937" lon="1.46691">
        <ele>81.37</ele>
        <time>2010-09-26T11:01:20Z</time>
      </trkpt>
      <trkpt lat="44.0996" lon="1.4662">
        <ele>80.89</ele>
        <time>2010-09-26T11:01:34Z</time>
      </trkpt>
      <trkpt lat="44.09971" lon="1.46586">
        <ele>80.41</ele>
        <time>2010-09-26T11:01:42Z</time>
      </trkpt>
      <trkpt lat="44.0997" lon="1.46582">
        <ele>80.41</ele>
        <time>2010-09-26T11:01:43Z</time>
      </trkpt>
      <trkpt lat="44.09968" lon="1.46579">
        <ele>80.41</ele>
        <time>2010-09-26T11:01:44Z</time>
      </trkpt>
      <trkpt lat="44.09966" lon="1.46575">
        <ele>80.41</ele>
        <time>2010-09-26T11:01:45Z</time>
      </trkpt>
      <trkpt lat="44.09963" lon="1.46572">
        <ele>80.41</ele>
        <time>2010-09-26T11:01:46Z</time>
      </trkpt>
      <trkpt lat="44.09961" lon="1.46568">
        <ele>80.41</ele>
        <time>2010-09-26T11:01:47Z</time>
      </trkpt>
      <trkpt lat="44.09959" lon="1.46565">
        <ele>79.93</ele>
        <time>2010-09-26T11:01:48Z</time>
      </trkpt>
      <trkpt lat="44.09947" lon="1.46546">
        <ele>79.45</ele>
        <time>2010-09-26T11:01:54Z</time>
      </trkpt>
      <trkpt lat="44.09908" lon="1.46501">
        <ele>79.45</ele>
        <time>2010-09-26T11:02:06Z</time>
      </trkpt>
      <trkpt lat="44.09905" lon="1.46497">
        <ele>79.45</ele>
        <time>2010-09-26T11:02:07Z</time>
      </trkpt>
      <trkpt lat="44.09901" lon="1.46493">
        <ele>79.45</ele>
        <time>2010-09-26T11:02:08Z</time>
      </trkpt>
      <trkpt lat="44.09898" lon="1.46489">
        <ele>79.45</ele>
        <time>2010-09-26T11:02:09Z</time>
      </trkpt>
      <trkpt lat="44.09894" lon="1.46485">
        <ele>79.45</ele>
        <time>2010-09-26T11:02:10Z</time>
      </trkpt>
      <trkpt lat="44.09891" lon="1.46481">
        <ele>79.45</ele>
        <time>2010-09-26T11:02:11Z</time>
      </trkpt>
      <trkpt lat="44.0988" lon="1.46467">
        <ele>79.93</ele>
        <time>2010-09-26T11:02:15Z</time>
      </trkpt>
      <trkpt lat="44.09866" lon="1.46457">
        <ele>79.93</ele>
        <time>2010-09-26T11:02:19Z</time>
      </trkpt>
      <trkpt lat="44.09862" lon="1.46455">
        <ele>79.93</ele>
        <time>2010-09-26T11:02:20Z</time>
      </trkpt>
      <trkpt lat="44.09817" lon="1.46452">
        <ele>79.45</ele>
        <time>2010-09-26T11:02:30Z</time>
      </trkpt>
      <trkpt lat="44.09813" lon="1.46451">
        <ele>79.45</ele>
        <time>2010-09-26T11:02:31Z</time>
      </trkpt>
      <trkpt lat="44.09808" lon="1.4645">
        <ele>79.45</ele>
        <time>2010-09-26T11:02:32Z</time>
      </trkpt>
      <trkpt lat="44.09804" lon="1.46447">
        <ele>78.97</ele>
        <time>2010-09-26T11:02:33Z</time>
      </trkpt>
      <trkpt lat="44.098" lon="1.46444">
        <ele>79.45</ele>
        <time>2010-09-26T11:02:34Z</time>
      </trkpt>
      <trkpt lat="44.09796" lon="1.46441">
        <ele>79.45</ele>
        <time>2010-09-26T11:02:35Z</time>
      </trkpt>
      <trkpt lat="44.09789" lon="1.46433">
        <ele>79.45</ele>
        <time>2010-09-26T11:02:37Z</time>
      </trkpt>
      <trkpt lat="44.09786" lon="1.46428">
        <ele>78.97</ele>
        <time>2010-09-26T11:02:38Z</time>
      </trkpt>
      <trkpt lat="44.0978" lon="1.46416">
        <ele>78.97</ele>
        <time>2010-09-26T11:02:40Z</time>
      </trkpt>
      <trkpt lat="44.09778" lon="1.4641">
        <ele>78.97</ele>
        <time>2010-09-26T11:02:41Z</time>
      </trkpt>
      <trkpt lat="44.09776" lon="1.46404">
        <ele>78.97</ele>
        <time>2010-09-26T11:02:42Z</time>
      </trkpt>
      <trkpt lat="44.09776" lon="1.46397">
        <ele>78.97</ele>
        <time>2010-09-26T11:02:43Z</time>
      </trkpt>
      <trkpt lat="44.09776" lon="1.4639">
        <ele>78.97</ele>
        <time>2010-09-26T11:02:44Z</time>
      </trkpt>
      <trkpt lat="44.09778" lon="1.46383">
        <ele>79.45</ele>
        <time>2010-09-26T11:02:45Z</time>
      </trkpt>
      <trkpt lat="44.0978" lon="1.46377">
        <ele>78.97</ele>
        <time>2010-09-26T11:02:46Z</time>
      </trkpt>
      <trkpt lat="44.09783" lon="1.46371">
        <ele>78.97</ele>
        <time>2010-09-26T11:02:47Z</time>
      </trkpt>
      <trkpt lat="44.09787" lon="1.46366">
        <ele>78.97</ele>
        <time>2010-09-26T11:02:48Z</time>
      </trkpt>
      <trkpt lat="44.0979" lon="1.46362">
        <ele>78.97</ele>
        <time>2010-09-26T11:02:49Z</time>
      </trkpt>
      <trkpt lat="44.09793" lon="1.46357">
        <ele>78.97</ele>
        <time>2010-09-26T11:02:50Z</time>
      </trkpt>
      <trkpt lat="44.09801" lon="1.46342">
        <ele>78.48</ele>
        <time>2010-09-26T11:02:53Z</time>
      </trkpt>
      <trkpt lat="44.09801" lon="1.46335">
        <ele>78</ele>
        <time>2010-09-26T11:02:54Z</time>
      </trkpt>
      <trkpt lat="44.09801" lon="1.46328">
        <ele>78.48</ele>
        <time>2010-09-26T11:02:55Z</time>
      </trkpt>
      <trkpt lat="44.09799" lon="1.46321">
        <ele>78.48</ele>
        <time>2010-09-26T11:02:56Z</time>
      </trkpt>
      <trkpt lat="44.09797" lon="1.46315">
        <ele>78</ele>
        <time>2010-09-26T11:02:57Z</time>
      </trkpt>
      <trkpt lat="44.09794" lon="1.4631">
        <ele>78</ele>
        <time>2010-09-26T11:02:58Z</time>
      </trkpt>
      <trkpt lat="44.09791" lon="1.46304">
        <ele>78</ele>
        <time>2010-09-26T11:02:59Z</time>
      </trkpt>
      <trkpt lat="44.09787" lon="1.46299">
        <ele>78</ele>
        <time>2010-09-26T11:03:00Z</time>
      </trkpt>
      <trkpt lat="44.09783" lon="1.46294">
        <ele>78</ele>
        <time>2010-09-26T11:03:01Z</time>
      </trkpt>
      <trkpt lat="44.09774" lon="1.46284">
        <ele>78.48</ele>
        <time>2010-09-26T11:03:03Z</time>
      </trkpt>
      <trkpt lat="44.09758" lon="1.46266">
        <ele>78</ele>
        <time>2010-09-26T11:03:07Z</time>
      </trkpt>
      <trkpt lat="44.09754" lon="1.46262">
        <ele>77.52</ele>
        <time>2010-09-26T11:03:08Z</time>
      </trkpt>
      <trkpt lat="44.09703" lon="1.46191">
        <ele>78</ele>
        <time>2010-09-26T11:03:22Z</time>
      </trkpt>
      <trkpt lat="44.09641" lon="1.46106">
        <ele>78</ele>
        <time>2010-09-26T11:03:39Z</time>
      </trkpt>
      <trkpt lat="44.09624" lon="1.46083">
        <ele>78</ele>
        <time>2010-09-26T11:03:44Z</time>
      </trkpt>
      <trkpt lat="44.0962" lon="1.46078">
        <ele>78</ele>
        <time>2010-09-26T11:03:45Z</time>
      </trkpt>
      <trkpt lat="44.09586" lon="1.46037">
        <ele>77.52</ele>
        <time>2010-09-26T11:03:54Z</time>
      </trkpt>
      <trkpt lat="44.09582" lon="1.46032">
        <ele>77.52</ele>
        <time>2010-09-26T11:03:55Z</time>
      </trkpt>
      <trkpt lat="44.09532" lon="1.45975">
        <ele>78</ele>
        <time>2010-09-26T11:04:07Z</time>
      </trkpt>
      <trkpt lat="44.09529" lon="1.4597">
        <ele>78</ele>
        <time>2010-09-26T11:04:08Z</time>
      </trkpt>
      <trkpt lat="44.09468" lon="1.45902">
        <ele>78</ele>
        <time>2010-09-26T11:04:23Z</time>
      </trkpt>
      <trkpt lat="44.09427" lon="1.45855">
        <ele>78</ele>
        <time>2010-09-26T11:04:33Z</time>
      </trkpt>
      <trkpt lat="44.09423" lon="1.45851">
        <ele>78</ele>
        <time>2010-09-26T11:04:34Z</time>
      </trkpt>
      <trkpt lat="44.09351" lon="1.4577">
        <ele>78</ele>
        <time>2010-09-26T11:04:51Z</time>
      </trkpt>
      <trkpt lat="44.09282" lon="1.45692">
        <ele>78.48</ele>
        <time>2010-09-26T11:05:07Z</time>
      </trkpt>
      <trkpt lat="44.09267" lon="1.45668">
        <ele>78.48</ele>
        <time>2010-09-26T11:05:11Z</time>
      </trkpt>
      <trkpt lat="44.09238" lon="1.45583">
        <ele>77.52</ele>
        <time>2010-09-26T11:05:24Z</time>
      </trkpt>
      <trkpt lat="44.09235" lon="1.45568">
        <ele>77.52</ele>
        <time>2010-09-26T11:05:26Z</time>
      </trkpt>
      <trkpt lat="44.09234" lon="1.45561">
        <ele>78</ele>
        <time>2010-09-26T11:05:27Z</time>
      </trkpt>
      <trkpt lat="44.09233" lon="1.45554">
        <ele>78.48</ele>
        <time>2010-09-26T11:05:28Z</time>
      </trkpt>
      <trkpt lat="44.09231" lon="1.45547">
        <ele>78.97</ele>
        <time>2010-09-26T11:05:29Z</time>
      </trkpt>
      <trkpt lat="44.09229" lon="1.4554">
        <ele>78.97</ele>
        <time>2010-09-26T11:05:30Z</time>
      </trkpt>
      <trkpt lat="44.09228" lon="1.45533">
        <ele>78.48</ele>
        <time>2010-09-26T11:05:31Z</time>
      </trkpt>
      <trkpt lat="44.09214" lon="1.45439">
        <ele>78</ele>
        <time>2010-09-26T11:05:44Z</time>
      </trkpt>
      <trkpt lat="44.09222" lon="1.45358">
        <ele>78</ele>
        <time>2010-09-26T11:05:57Z</time>
      </trkpt>
      <trkpt lat="44.09225" lon="1.45315">
        <ele>77.52</ele>
        <time>2010-09-26T11:06:04Z</time>
      </trkpt>
      <trkpt lat="44.09228" lon="1.45311">
        <ele>77.04</ele>
        <time>2010-09-26T11:06:05Z</time>
      </trkpt>
      <trkpt lat="44.09232" lon="1.45309">
        <ele>77.52</ele>
        <time>2010-09-26T11:06:06Z</time>
      </trkpt>
      <trkpt lat="44.09237" lon="1.45309">
        <ele>77.04</ele>
        <time>2010-09-26T11:06:07Z</time>
      </trkpt>
      <trkpt lat="44.09242" lon="1.4531">
        <ele>77.52</ele>
        <time>2010-09-26T11:06:08Z</time>
      </trkpt>
      <trkpt lat="44.09247" lon="1.45311">
        <ele>77.52</ele>
        <time>2010-09-26T11:06:09Z</time>
      </trkpt>
      <trkpt lat="44.09306" lon="1.45335">
        <ele>77.52</ele>
        <time>2010-09-26T11:06:22Z</time>
      </trkpt>
      <trkpt lat="44.0931" lon="1.45337">
        <ele>77.52</ele>
        <time>2010-09-26T11:06:23Z</time>
      </trkpt>
      <trkpt lat="44.09345" lon="1.45353">
        <ele>77.52</ele>
        <time>2010-09-26T11:06:31Z</time>
      </trkpt>
      <trkpt lat="44.09365" lon="1.45348">
        <ele>78.48</ele>
        <time>2010-09-26T11:06:36Z</time>
      </trkpt>
      <trkpt lat="44.09369" lon="1.45344">
        <ele>78.48</ele>
        <time>2010-09-26T11:06:37Z</time>
      </trkpt>
      <trkpt lat="44.09376" lon="1.45335">
        <ele>78.97</ele>
        <time>2010-09-26T11:06:39Z</time>
      </trkpt>
      <trkpt lat="44.09406" lon="1.45283">
        <ele>78.97</ele>
        <time>2010-09-26T11:06:50Z</time>
      </trkpt>
      <trkpt lat="44.09409" lon="1.45279">
        <ele>78.97</ele>
        <time>2010-09-26T11:06:51Z</time>
      </trkpt>
      <trkpt lat="44.09413" lon="1.45275">
        <ele>78.97</ele>
        <time>2010-09-26T11:06:52Z</time>
      </trkpt>
      <trkpt lat="44.09417" lon="1.45273">
        <ele>78.97</ele>
        <time>2010-09-26T11:06:53Z</time>
      </trkpt>
      <trkpt lat="44.09421" lon="1.45271">
        <ele>78.97</ele>
        <time>2010-09-26T11:06:54Z</time>
      </trkpt>
      <trkpt lat="44.09425" lon="1.4527">
        <ele>78.97</ele>
        <time>2010-09-26T11:06:55Z</time>
      </trkpt>
      <trkpt lat="44.09429" lon="1.45268">
        <ele>78.48</ele>
        <time>2010-09-26T11:06:56Z</time>
      </trkpt>
      <trkpt lat="44.09433" lon="1.45265">
        <ele>78.97</ele>
        <time>2010-09-26T11:06:57Z</time>
      </trkpt>
      <trkpt lat="44.09437" lon="1.45261">
        <ele>78.97</ele>
        <time>2010-09-26T11:06:58Z</time>
      </trkpt>
      <trkpt lat="44.09454" lon="1.45247">
        <ele>80.89</ele>
        <time>2010-09-26T11:07:03Z</time>
      </trkpt>
      <trkpt lat="44.0947" lon="1.45236">
        <ele>80.89</ele>
        <time>2010-09-26T11:07:07Z</time>
      </trkpt>
      <trkpt lat="44.09473" lon="1.45232">
        <ele>80.41</ele>
        <time>2010-09-26T11:07:08Z</time>
      </trkpt>
      <trkpt lat="44.09476" lon="1.45227">
        <ele>80.41</ele>
        <time>2010-09-26T11:07:09Z</time>
      </trkpt>
      <trkpt lat="44.09479" lon="1.45222">
        <ele>80.41</ele>
        <time>2010-09-26T11:07:10Z</time>
      </trkpt>
      <trkpt lat="44.09481" lon="1.45216">
        <ele>80.89</ele>
        <time>2010-09-26T11:07:11Z</time>
      </trkpt>
      <trkpt lat="44.09482" lon="1.4521">
        <ele>80.89</ele>
        <time>2010-09-26T11:07:12Z</time>
      </trkpt>
      <trkpt lat="44.09483" lon="1.45203">
        <ele>80.89</ele>
        <time>2010-09-26T11:07:13Z</time>
      </trkpt>
      <trkpt lat="44.09483" lon="1.45197">
        <ele>80.89</ele>
        <time>2010-09-26T11:07:14Z</time>
      </trkpt>
      <trkpt lat="44.09482" lon="1.4519">
        <ele>80.41</ele>
        <time>2010-09-26T11:07:15Z</time>
      </trkpt>
      <trkpt lat="44.0948" lon="1.45184">
        <ele>80.41</ele>
        <time>2010-09-26T11:07:16Z</time>
      </trkpt>
      <trkpt lat="44.09477" lon="1.45178">
        <ele>81.37</ele>
        <time>2010-09-26T11:07:17Z</time>
      </trkpt>
      <trkpt lat="44.09474" lon="1.45173">
        <ele>81.37</ele>
        <time>2010-09-26T11:07:18Z</time>
      </trkpt>
      <trkpt lat="44.0947" lon="1.4517">
        <ele>80.89</ele>
        <time>2010-09-26T11:07:19Z</time>
      </trkpt>
      <trkpt lat="44.09466" lon="1.45166">
        <ele>80.89</ele>
        <time>2010-09-26T11:07:20Z</time>
      </trkpt>
      <trkpt lat="44.09461" lon="1.45164">
        <ele>81.37</ele>
        <time>2010-09-26T11:07:21Z</time>
      </trkpt>
      <trkpt lat="44.09456" lon="1.45163">
        <ele>80.89</ele>
        <time>2010-09-26T11:07:22Z</time>
      </trkpt>
      <trkpt lat="44.09451" lon="1.45163">
        <ele>80.89</ele>
        <time>2010-09-26T11:07:23Z</time>
      </trkpt>
      <trkpt lat="44.09446" lon="1.45163">
        <ele>80.89</ele>
        <time>2010-09-26T11:07:24Z</time>
      </trkpt>
      <trkpt lat="44.0943" lon="1.45163">
        <ele>81.37</ele>
        <time>2010-09-26T11:07:27Z</time>
      </trkpt>
      <trkpt lat="44.09425" lon="1.45161">
        <ele>80.89</ele>
        <time>2010-09-26T11:07:28Z</time>
      </trkpt>
      <trkpt lat="44.0942" lon="1.45159">
        <ele>80.89</ele>
        <time>2010-09-26T11:07:29Z</time>
      </trkpt>
      <trkpt lat="44.09347" lon="1.4509">
        <ele>81.37</ele>
        <time>2010-09-26T11:07:46Z</time>
      </trkpt>
      <trkpt lat="44.09294" lon="1.45025">
        <ele>82.81</ele>
        <time>2010-09-26T11:08:00Z</time>
      </trkpt>
      <trkpt lat="44.09275" lon="1.45001">
        <ele>83.29</ele>
        <time>2010-09-26T11:08:05Z</time>
      </trkpt>
      <trkpt lat="44.09237" lon="1.44956">
        <ele>84.25</ele>
        <time>2010-09-26T11:08:15Z</time>
      </trkpt>
      <trkpt lat="44.09234" lon="1.44952">
        <ele>84.73</ele>
        <time>2010-09-26T11:08:16Z</time>
      </trkpt>
      <trkpt lat="44.09231" lon="1.44947">
        <ele>85.21</ele>
        <time>2010-09-26T11:08:17Z</time>
      </trkpt>
      <trkpt lat="44.09228" lon="1.44942">
        <ele>84.73</ele>
        <time>2010-09-26T11:08:18Z</time>
      </trkpt>
      <trkpt lat="44.09224" lon="1.44938">
        <ele>84.25</ele>
        <time>2010-09-26T11:08:19Z</time>
      </trkpt>
      <trkpt lat="44.09162" lon="1.44861">
        <ele>83.29</ele>
        <time>2010-09-26T11:08:35Z</time>
      </trkpt>
      <trkpt lat="44.09151" lon="1.44847">
        <ele>83.29</ele>
        <time>2010-09-26T11:08:38Z</time>
      </trkpt>
      <trkpt lat="44.09147" lon="1.44841">
        <ele>82.81</ele>
        <time>2010-09-26T11:08:39Z</time>
      </trkpt>
      <trkpt lat="44.09143" lon="1.44836">
        <ele>82.81</ele>
        <time>2010-09-26T11:08:40Z</time>
      </trkpt>
      <trkpt lat="44.09139" lon="1.44831">
        <ele>82.81</ele>
        <time>2010-09-26T11:08:41Z</time>
      </trkpt>
      <trkpt lat="44.09135" lon="1.44826">
        <ele>83.29</ele>
        <time>2010-09-26T11:08:42Z</time>
      </trkpt>
      <trkpt lat="44.09086" lon="1.44766">
        <ele>82.81</ele>
        <time>2010-09-26T11:08:54Z</time>
      </trkpt>
      <trkpt lat="44.09028" lon="1.44697">
        <ele>82.33</ele>
        <time>2010-09-26T11:09:07Z</time>
      </trkpt>
      <trkpt lat="44.09023" lon="1.44693">
        <ele>82.81</ele>
        <time>2010-09-26T11:09:08Z</time>
      </trkpt>
      <trkpt lat="44.09018" lon="1.4469">
        <ele>82.81</ele>
        <time>2010-09-26T11:09:09Z</time>
      </trkpt>
      <trkpt lat="44.09014" lon="1.4469">
        <ele>82.81</ele>
        <time>2010-09-26T11:09:10Z</time>
      </trkpt>
      <trkpt lat="44.09009" lon="1.44692">
        <ele>82.81</ele>
        <time>2010-09-26T11:09:11Z</time>
      </trkpt>
      <trkpt lat="44.09005" lon="1.44696">
        <ele>82.81</ele>
        <time>2010-09-26T11:09:12Z</time>
      </trkpt>
      <trkpt lat="44.09002" lon="1.44702">
        <ele>82.81</ele>
        <time>2010-09-26T11:09:13Z</time>
      </trkpt>
      <trkpt lat="44.08999" lon="1.44707">
        <ele>82.33</ele>
        <time>2010-09-26T11:09:14Z</time>
      </trkpt>
      <trkpt lat="44.08995" lon="1.4471">
        <ele>82.33</ele>
        <time>2010-09-26T11:09:15Z</time>
      </trkpt>
      <trkpt lat="44.0899" lon="1.44711">
        <ele>82.33</ele>
        <time>2010-09-26T11:09:16Z</time>
      </trkpt>
      <trkpt lat="44.08986" lon="1.44709">
        <ele>82.33</ele>
        <time>2010-09-26T11:09:17Z</time>
      </trkpt>
      <trkpt lat="44.08982" lon="1.44705">
        <ele>82.33</ele>
        <time>2010-09-26T11:09:18Z</time>
      </trkpt>
      <trkpt lat="44.08978" lon="1.447">
        <ele>82.33</ele>
        <time>2010-09-26T11:09:19Z</time>
      </trkpt>
      <trkpt lat="44.08975" lon="1.44694">
        <ele>82.33</ele>
        <time>2010-09-26T11:09:20Z</time>
      </trkpt>
      <trkpt lat="44.08931" lon="1.44627">
        <ele>82.33</ele>
        <time>2010-09-26T11:09:33Z</time>
      </trkpt>
      <trkpt lat="44.08928" lon="1.44622">
        <ele>82.33</ele>
        <time>2010-09-26T11:09:34Z</time>
      </trkpt>
      <trkpt lat="44.08891" lon="1.4457">
        <ele>82.81</ele>
        <time>2010-09-26T11:09:47Z</time>
      </trkpt>
      <trkpt lat="44.08882" lon="1.44554">
        <ele>82.81</ele>
        <time>2010-09-26T11:09:52Z</time>
      </trkpt>
      <trkpt lat="44.08876" lon="1.44545">
        <ele>82.81</ele>
        <time>2010-09-26T11:09:54Z</time>
      </trkpt>
      <trkpt lat="44.08858" lon="1.44516">
        <ele>82.81</ele>
        <time>2010-09-26T11:10:01Z</time>
      </trkpt>
      <trkpt lat="44.08855" lon="1.4451">
        <ele>83.29</ele>
        <time>2010-09-26T11:10:02Z</time>
      </trkpt>
      <trkpt lat="44.08833" lon="1.44475">
        <ele>83.77</ele>
        <time>2010-09-26T11:10:10Z</time>
      </trkpt>
      <trkpt lat="44.08828" lon="1.44467">
        <ele>83.77</ele>
        <time>2010-09-26T11:10:12Z</time>
      </trkpt>
      <trkpt lat="44.08825" lon="1.44463">
        <ele>83.77</ele>
        <time>2010-09-26T11:10:13Z</time>
      </trkpt>
      <trkpt lat="44.08799" lon="1.44426">
        <ele>83.77</ele>
        <time>2010-09-26T11:10:24Z</time>
      </trkpt>
      <trkpt lat="44.08791" lon="1.44421">
        <ele>84.25</ele>
        <time>2010-09-26T11:10:30Z</time>
      </trkpt>
      <trkpt lat="44.08789" lon="1.44421">
        <ele>83.77</ele>
        <time>2010-09-26T11:10:31Z</time>
      </trkpt>
      <trkpt lat="44.08787" lon="1.44422">
        <ele>84.25</ele>
        <time>2010-09-26T11:10:32Z</time>
      </trkpt>
      <trkpt lat="44.08784" lon="1.44424">
        <ele>83.77</ele>
        <time>2010-09-26T11:10:33Z</time>
      </trkpt>
      <trkpt lat="44.08782" lon="1.44427">
        <ele>83.77</ele>
        <time>2010-09-26T11:10:34Z</time>
      </trkpt>
      <trkpt lat="44.08779" lon="1.4443">
        <ele>84.25</ele>
        <time>2010-09-26T11:10:35Z</time>
      </trkpt>
      <trkpt lat="44.08754" lon="1.4446">
        <ele>83.77</ele>
        <time>2010-09-26T11:10:43Z</time>
      </trkpt>
      <trkpt lat="44.0875" lon="1.44464">
        <ele>83.77</ele>
        <time>2010-09-26T11:10:44Z</time>
      </trkpt>
      <trkpt lat="44.08722" lon="1.44496">
        <ele>83.29</ele>
        <time>2010-09-26T11:10:52Z</time>
      </trkpt>
      <trkpt lat="44.08655" lon="1.44556">
        <ele>84.25</ele>
        <time>2010-09-26T11:11:07Z</time>
      </trkpt>
      <trkpt lat="44.0864" lon="1.44577">
        <ele>83.77</ele>
        <time>2010-09-26T11:11:11Z</time>
      </trkpt>
      <trkpt lat="44.08616" lon="1.44621">
        <ele>84.73</ele>
        <time>2010-09-26T11:11:19Z</time>
      </trkpt>
      <trkpt lat="44.08605" lon="1.44644">
        <ele>85.21</ele>
        <time>2010-09-26T11:11:23Z</time>
      </trkpt>
      <trkpt lat="44.08602" lon="1.44649">
        <ele>85.21</ele>
        <time>2010-09-26T11:11:24Z</time>
      </trkpt>
      <trkpt lat="44.08599" lon="1.44654">
        <ele>85.21</ele>
        <time>2010-09-26T11:11:25Z</time>
      </trkpt>
      <trkpt lat="44.08596" lon="1.4466">
        <ele>84.73</ele>
        <time>2010-09-26T11:11:26Z</time>
      </trkpt>
      <trkpt lat="44.08593" lon="1.44666">
        <ele>85.21</ele>
        <time>2010-09-26T11:11:27Z</time>
      </trkpt>
      <trkpt lat="44.0859" lon="1.44672">
        <ele>84.73</ele>
        <time>2010-09-26T11:11:28Z</time>
      </trkpt>
      <trkpt lat="44.08586" lon="1.44678">
        <ele>85.21</ele>
        <time>2010-09-26T11:11:29Z</time>
      </trkpt>
      <trkpt lat="44.08578" lon="1.44698">
        <ele>85.21</ele>
        <time>2010-09-26T11:11:32Z</time>
      </trkpt>
      <trkpt lat="44.08576" lon="1.44704">
        <ele>84.73</ele>
        <time>2010-09-26T11:11:33Z</time>
      </trkpt>
      <trkpt lat="44.08575" lon="1.44711">
        <ele>84.73</ele>
        <time>2010-09-26T11:11:34Z</time>
      </trkpt>
      <trkpt lat="44.08575" lon="1.44717">
        <ele>85.21</ele>
        <time>2010-09-26T11:11:35Z</time>
      </trkpt>
      <trkpt lat="44.08574" lon="1.44724">
        <ele>84.73</ele>
        <time>2010-09-26T11:11:36Z</time>
      </trkpt>
      <trkpt lat="44.08583" lon="1.44825">
        <ele>85.21</ele>
        <time>2010-09-26T11:11:49Z</time>
      </trkpt>
      <trkpt lat="44.08584" lon="1.44857">
        <ele>85.21</ele>
        <time>2010-09-26T11:11:53Z</time>
      </trkpt>
      <trkpt lat="44.08583" lon="1.44865">
        <ele>85.21</ele>
        <time>2010-09-26T11:11:54Z</time>
      </trkpt>
      <trkpt lat="44.08578" lon="1.4492">
        <ele>85.21</ele>
        <time>2010-09-26T11:12:01Z</time>
      </trkpt>
      <trkpt lat="44.0857" lon="1.44971">
        <ele>84.73</ele>
        <time>2010-09-26T11:12:08Z</time>
      </trkpt>
      <trkpt lat="44.08567" lon="1.4501">
        <ele>84.73</ele>
        <time>2010-09-26T11:12:13Z</time>
      </trkpt>
      <trkpt lat="44.08568" lon="1.45017">
        <ele>84.73</ele>
        <time>2010-09-26T11:12:14Z</time>
      </trkpt>
      <trkpt lat="44.08569" lon="1.45025">
        <ele>84.73</ele>
        <time>2010-09-26T11:12:15Z</time>
      </trkpt>
      <trkpt lat="44.08571" lon="1.45032">
        <ele>84.73</ele>
        <time>2010-09-26T11:12:16Z</time>
      </trkpt>
      <trkpt lat="44.08573" lon="1.45039">
        <ele>84.73</ele>
        <time>2010-09-26T11:12:17Z</time>
      </trkpt>
      <trkpt lat="44.08575" lon="1.45045">
        <ele>84.73</ele>
        <time>2010-09-26T11:12:18Z</time>
      </trkpt>
      <trkpt lat="44.086" lon="1.45107">
        <ele>84.25</ele>
        <time>2010-09-26T11:12:28Z</time>
      </trkpt>
      <trkpt lat="44.08601" lon="1.45113">
        <ele>84.25</ele>
        <time>2010-09-26T11:12:29Z</time>
      </trkpt>
      <trkpt lat="44.08601" lon="1.45119">
        <ele>84.25</ele>
        <time>2010-09-26T11:12:30Z</time>
      </trkpt>
      <trkpt lat="44.08599" lon="1.45124">
        <ele>84.25</ele>
        <time>2010-09-26T11:12:31Z</time>
      </trkpt>
      <trkpt lat="44.08595" lon="1.45128">
        <ele>84.25</ele>
        <time>2010-09-26T11:12:32Z</time>
      </trkpt>
      <trkpt lat="44.08592" lon="1.45132">
        <ele>84.25</ele>
        <time>2010-09-26T11:12:33Z</time>
      </trkpt>
      <trkpt lat="44.08539" lon="1.45179">
        <ele>85.69</ele>
        <time>2010-09-26T11:12:46Z</time>
      </trkpt>
      <trkpt lat="44.08505" lon="1.45198">
        <ele>86.66</ele>
        <time>2010-09-26T11:12:54Z</time>
      </trkpt>
      <trkpt lat="44.08501" lon="1.45198">
        <ele>86.66</ele>
        <time>2010-09-26T11:12:55Z</time>
      </trkpt>
      <trkpt lat="44.08496" lon="1.45199">
        <ele>86.66</ele>
        <time>2010-09-26T11:12:56Z</time>
      </trkpt>
      <trkpt lat="44.08492" lon="1.452">
        <ele>86.66</ele>
        <time>2010-09-26T11:12:57Z</time>
      </trkpt>
      <trkpt lat="44.08487" lon="1.45201">
        <ele>86.66</ele>
        <time>2010-09-26T11:12:58Z</time>
      </trkpt>
      <trkpt lat="44.08482" lon="1.45202">
        <ele>87.14</ele>
        <time>2010-09-26T11:12:59Z</time>
      </trkpt>
      <trkpt lat="44.08433" lon="1.45208">
        <ele>86.66</ele>
        <time>2010-09-26T11:13:09Z</time>
      </trkpt>
      <trkpt lat="44.08428" lon="1.45208">
        <ele>86.66</ele>
        <time>2010-09-26T11:13:10Z</time>
      </trkpt>
      <trkpt lat="44.08424" lon="1.45206">
        <ele>86.66</ele>
        <time>2010-09-26T11:13:11Z</time>
      </trkpt>
      <trkpt lat="44.08419" lon="1.45205">
        <ele>86.66</ele>
        <time>2010-09-26T11:13:12Z</time>
      </trkpt>
      <trkpt lat="44.08415" lon="1.45202">
        <ele>86.66</ele>
        <time>2010-09-26T11:13:13Z</time>
      </trkpt>
      <trkpt lat="44.0841" lon="1.45199">
        <ele>86.66</ele>
        <time>2010-09-26T11:13:14Z</time>
      </trkpt>
      <trkpt lat="44.08406" lon="1.45195">
        <ele>86.66</ele>
        <time>2010-09-26T11:13:15Z</time>
      </trkpt>
      <trkpt lat="44.08402" lon="1.45191">
        <ele>86.18</ele>
        <time>2010-09-26T11:13:16Z</time>
      </trkpt>
      <trkpt lat="44.08398" lon="1.45187">
        <ele>87.14</ele>
        <time>2010-09-26T11:13:17Z</time>
      </trkpt>
      <trkpt lat="44.08395" lon="1.45182">
        <ele>86.66</ele>
        <time>2010-09-26T11:13:18Z</time>
      </trkpt>
      <trkpt lat="44.08391" lon="1.45177">
        <ele>87.14</ele>
        <time>2010-09-26T11:13:19Z</time>
      </trkpt>
      <trkpt lat="44.08387" lon="1.45172">
        <ele>86.66</ele>
        <time>2010-09-26T11:13:20Z</time>
      </trkpt>
      <trkpt lat="44.08384" lon="1.45167">
        <ele>87.14</ele>
        <time>2010-09-26T11:13:21Z</time>
      </trkpt>
      <trkpt lat="44.08352" lon="1.45122">
        <ele>86.66</ele>
        <time>2010-09-26T11:13:30Z</time>
      </trkpt>
      <trkpt lat="44.08349" lon="1.45117">
        <ele>86.66</ele>
        <time>2010-09-26T11:13:31Z</time>
      </trkpt>
      <trkpt lat="44.08345" lon="1.45112">
        <ele>86.66</ele>
        <time>2010-09-26T11:13:32Z</time>
      </trkpt>
      <trkpt lat="44.08304" lon="1.45034">
        <ele>86.66</ele>
        <time>2010-09-26T11:13:46Z</time>
      </trkpt>
      <trkpt lat="44.08282" lon="1.44973">
        <ele>86.18</ele>
        <time>2010-09-26T11:13:58Z</time>
      </trkpt>
      <trkpt lat="44.08282" lon="1.44969">
        <ele>86.66</ele>
        <time>2010-09-26T11:13:59Z</time>
      </trkpt>
      <trkpt lat="44.08282" lon="1.44966">
        <ele>86.66</ele>
        <time>2010-09-26T11:14:00Z</time>
      </trkpt>
      <trkpt lat="44.08284" lon="1.44964">
        <ele>86.66</ele>
        <time>2010-09-26T11:14:01Z</time>
      </trkpt>
      <trkpt lat="44.08285" lon="1.44962">
        <ele>86.66</ele>
        <time>2010-09-26T11:14:02Z</time>
      </trkpt>
      <trkpt lat="44.08287" lon="1.4496">
        <ele>86.66</ele>
        <time>2010-09-26T11:14:03Z</time>
      </trkpt>
      <trkpt lat="44.08289" lon="1.44958">
        <ele>86.18</ele>
        <time>2010-09-26T11:14:04Z</time>
      </trkpt>
      <trkpt lat="44.08292" lon="1.44957">
        <ele>87.14</ele>
        <time>2010-09-26T11:14:05Z</time>
      </trkpt>
      <trkpt lat="44.08335" lon="1.4493">
        <ele>86.66</ele>
        <time>2010-09-26T11:14:19Z</time>
      </trkpt>
      <trkpt lat="44.0837" lon="1.44909">
        <ele>87.14</ele>
        <time>2010-09-26T11:14:32Z</time>
      </trkpt>
      <trkpt lat="44.0838" lon="1.44902">
        <ele>87.62</ele>
        <time>2010-09-26T11:14:43Z</time>
      </trkpt>
      <trkpt lat="44.0838" lon="1.44902">
        <ele>83.29</ele>
        <time>2010-09-26T11:14:48Z</time>
      </trkpt>
      <trkpt lat="44.0838" lon="1.44902">
        <ele>89.54</ele>
        <time>2010-09-26T11:14:49Z</time>
      </trkpt>
      <trkpt lat="44.0838" lon="1.44902">
        <ele>88.1</ele>
        <time>2010-09-26T11:14:50Z</time>
      </trkpt>
      <trkpt lat="44.0838" lon="1.44902">
        <ele>87.14</ele>
        <time>2010-09-26T11:15:22Z</time>
      </trkpt>
      <trkpt lat="44.0838" lon="1.44902">
        <ele>86.66</ele>
        <time>2010-09-26T11:15:33Z</time>
      </trkpt>
      <trkpt lat="44.0838" lon="1.44902">
        <ele>88.58</ele>
        <time>2010-09-26T12:34:23Z</time>
      </trkpt>
      <trkpt lat="44.0838" lon="1.44902">
        <ele>90.5</ele>
        <time>2010-09-26T12:34:26Z</time>
      </trkpt>
      <trkpt lat="44.08399" lon="1.44927">
        <ele>90.02</ele>
        <time>2010-09-26T12:34:40Z</time>
      </trkpt>
      <trkpt lat="44.08392" lon="1.44931">
        <ele>90.02</ele>
        <time>2010-09-26T12:34:44Z</time>
      </trkpt>
      <trkpt lat="44.08392" lon="1.44931">
        <ele>88.58</ele>
        <time>2010-09-26T11:09:58Z</time>
      </trkpt>
      <trkpt lat="44.08392" lon="1.44931">
        <ele>199.13</ele>
        <time>2010-09-26T11:10:01Z</time>
      </trkpt>
      <trkpt lat="44.08392" lon="1.44931">
        <ele>196.25</ele>
        <time>2010-09-26T11:12:20Z</time>
      </trkpt>
      <trkpt lat="44.08392" lon="1.44931">
        <ele>196.25</ele>
        <time>2010-09-26T11:12:21Z</time>
      </trkpt>
      <trkpt lat="44.08392" lon="1.44931">
        <ele>200.57</ele>
        <time>2010-09-26T11:12:22Z</time>
      </trkpt>
      <trkpt lat="44.08392" lon="1.44931">
        <ele>194.32</ele>
        <time>2010-09-26T11:12:46Z</time>
      </trkpt>
      <trkpt lat="44.08392" lon="1.44931">
        <ele>194.8</ele>
        <time>2010-09-26T11:12:47Z</time>
      </trkpt>
      <trkpt lat="44.08392" lon="1.44931">
        <ele>196.25</ele>
        <time>2010-09-26T11:12:48Z</time>
      </trkpt>
      <trkpt lat="44.08392" lon="1.44931">
        <ele>200.57</ele>
        <time>2010-09-26T11:12:50Z</time>
      </trkpt>
      <trkpt lat="44.08392" lon="1.44931">
        <ele>198.65</ele>
        <time>2010-09-26T11:13:43Z</time>
      </trkpt>
      <trkpt lat="44.08392" lon="1.44931">
        <ele>199.61</ele>
        <time>2010-09-26T11:14:43Z</time>
      </trkpt>
      <trkpt lat="44.08358" lon="1.44943">
        <ele>199.13</ele>
        <time>2010-11-28T14:21:20Z</time>
      </trkpt>
      <trkpt lat="44.0834" lon="1.44947">
        <ele>200.09</ele>
        <time>2010-11-28T14:21:32Z</time>
      </trkpt>
      <trkpt lat="44.08337" lon="1.4495">
        <ele>200.09</ele>
        <time>2010-11-28T14:21:36Z</time>
      </trkpt>
      <trkpt lat="44.08314" lon="1.44957">
        <ele>199.13</ele>
        <time>2010-11-28T14:21:51Z</time>
      </trkpt>
      <trkpt lat="44.08307" lon="1.4496">
        <ele>198.65</ele>
        <time>2010-11-28T14:21:57Z</time>
      </trkpt>
      <trkpt lat="44.08296" lon="1.44967">
        <ele>198.17</ele>
        <time>2010-11-28T14:22:08Z</time>
      </trkpt>
      <trkpt lat="44.08294" lon="1.44991">
        <ele>196.73</ele>
        <time>2010-11-28T14:22:24Z</time>
      </trkpt>
      <trkpt lat="44.08298" lon="1.45015">
        <ele>195.77</ele>
        <time>2010-11-28T14:22:42Z</time>
      </trkpt>
      <trkpt lat="44.083" lon="1.4502">
        <ele>195.77</ele>
        <time>2010-11-28T14:22:46Z</time>
      </trkpt>
      <trkpt lat="44.08303" lon="1.45025">
        <ele>195.28</ele>
        <time>2010-11-28T14:22:50Z</time>
      </trkpt>
      <trkpt lat="44.08311" lon="1.45048">
        <ele>194.32</ele>
        <time>2010-11-28T14:23:07Z</time>
      </trkpt>
      <trkpt lat="44.08322" lon="1.4507">
        <ele>193.36</ele>
        <time>2010-11-28T14:23:22Z</time>
      </trkpt>
      <trkpt lat="44.08334" lon="1.45095">
        <ele>192.4</ele>
        <time>2010-11-28T14:23:38Z</time>
      </trkpt>
      <trkpt lat="44.08348" lon="1.45116">
        <ele>190.48</ele>
        <time>2010-11-28T14:23:55Z</time>
      </trkpt>
      <trkpt lat="44.08362" lon="1.45137">
        <ele>189.04</ele>
        <time>2010-11-28T14:24:12Z</time>
      </trkpt>
      <trkpt lat="44.08375" lon="1.45155">
        <ele>189.04</ele>
        <time>2010-11-28T14:24:26Z</time>
      </trkpt>
      <trkpt lat="44.08389" lon="1.45176">
        <ele>187.59</ele>
        <time>2010-11-28T14:24:42Z</time>
      </trkpt>
      <trkpt lat="44.08393" lon="1.45185">
        <ele>187.59</ele>
        <time>2010-11-28T14:24:48Z</time>
      </trkpt>
      <trkpt lat="44.08403" lon="1.45209">
        <ele>186.15</ele>
        <time>2010-11-28T14:25:03Z</time>
      </trkpt>
      <trkpt lat="44.08392" lon="1.45231">
        <ele>185.19</ele>
        <time>2010-11-28T14:25:20Z</time>
      </trkpt>
      <trkpt lat="44.08378" lon="1.4524">
        <ele>184.23</ele>
        <time>2010-11-28T14:25:32Z</time>
      </trkpt>
      <trkpt lat="44.08367" lon="1.45249">
        <ele>183.75</ele>
        <time>2010-11-28T14:25:43Z</time>
      </trkpt>
      <trkpt lat="44.08348" lon="1.45262">
        <ele>182.31</ele>
        <time>2010-11-28T14:25:59Z</time>
      </trkpt>
      <trkpt lat="44.08328" lon="1.45271">
        <ele>181.35</ele>
        <time>2010-11-28T14:26:14Z</time>
      </trkpt>
      <trkpt lat="44.08319" lon="1.45279">
        <ele>181.35</ele>
        <time>2010-11-28T14:26:22Z</time>
      </trkpt>
      <trkpt lat="44.08309" lon="1.45304">
        <ele>179.42</ele>
        <time>2010-11-28T14:26:39Z</time>
      </trkpt>
      <trkpt lat="44.08303" lon="1.45326">
        <ele>178.94</ele>
        <time>2010-11-28T14:26:53Z</time>
      </trkpt>
      <trkpt lat="44.08301" lon="1.45331">
        <ele>179.42</ele>
        <time>2010-11-28T14:26:57Z</time>
      </trkpt>
      <trkpt lat="44.08295" lon="1.45358">
        <ele>177.98</ele>
        <time>2010-11-28T14:27:12Z</time>
      </trkpt>
      <trkpt lat="44.08289" lon="1.45384">
        <ele>177.02</ele>
        <time>2010-11-28T14:27:28Z</time>
      </trkpt>
      <trkpt lat="44.08281" lon="1.45409">
        <ele>176.54</ele>
        <time>2010-11-28T14:27:43Z</time>
      </trkpt>
      <trkpt lat="44.08274" lon="1.45438">
        <ele>175.1</ele>
        <time>2010-11-28T14:28:01Z</time>
      </trkpt>
      <trkpt lat="44.0827" lon="1.45466">
        <ele>174.14</ele>
        <time>2010-11-28T14:28:17Z</time>
      </trkpt>
      <trkpt lat="44.08266" lon="1.4549">
        <ele>173.66</ele>
        <time>2010-11-28T14:28:32Z</time>
      </trkpt>
      <trkpt lat="44.08261" lon="1.45515">
        <ele>173.17</ele>
        <time>2010-11-28T14:28:47Z</time>
      </trkpt>
      <trkpt lat="44.08257" lon="1.45534">
        <ele>171.73</ele>
        <time>2010-11-28T14:28:58Z</time>
      </trkpt>
      <trkpt lat="44.08255" lon="1.45546">
        <ele>172.21</ele>
        <time>2010-11-28T14:29:05Z</time>
      </trkpt>
      <trkpt lat="44.08249" lon="1.4558">
        <ele>171.73</ele>
        <time>2010-11-28T14:29:24Z</time>
      </trkpt>
      <trkpt lat="44.08245" lon="1.45612">
        <ele>170.29</ele>
        <time>2010-11-28T14:29:43Z</time>
      </trkpt>
      <trkpt lat="44.08244" lon="1.4563">
        <ele>166.45</ele>
        <time>2010-11-28T14:29:53Z</time>
      </trkpt>
      <trkpt lat="44.08244" lon="1.45631">
        <ele>171.25</ele>
        <time>2010-11-28T14:29:54Z</time>
      </trkpt>
      <trkpt lat="44.08243" lon="1.45647">
        <ele>167.41</ele>
        <time>2010-11-28T14:30:04Z</time>
      </trkpt>
      <trkpt lat="44.08243" lon="1.45652">
        <ele>169.81</ele>
        <time>2010-11-28T14:30:07Z</time>
      </trkpt>
      <trkpt lat="44.08246" lon="1.45676">
        <ele>167.89</ele>
        <time>2010-11-28T14:30:22Z</time>
      </trkpt>
      <trkpt lat="44.08247" lon="1.45709">
        <ele>166.93</ele>
        <time>2010-11-28T14:30:40Z</time>
      </trkpt>
      <trkpt lat="44.08248" lon="1.45739">
        <ele>166.93</ele>
        <time>2010-11-28T14:30:58Z</time>
      </trkpt>
      <trkpt lat="44.08247" lon="1.45756">
        <ele>165.96</ele>
        <time>2010-11-28T14:31:20Z</time>
      </trkpt>
      <trkpt lat="44.08247" lon="1.45774">
        <ele>164.52</ele>
        <time>2010-11-28T14:31:32Z</time>
      </trkpt>
      <trkpt lat="44.08247" lon="1.45776">
        <ele>165</ele>
        <time>2010-11-28T14:31:33Z</time>
      </trkpt>
      <trkpt lat="44.08247" lon="1.45782">
        <ele>159.24</ele>
        <time>2010-11-28T14:31:36Z</time>
      </trkpt>
      <trkpt lat="44.08248" lon="1.45784">
        <ele>164.52</ele>
        <time>2010-11-28T14:31:37Z</time>
      </trkpt>
      <trkpt lat="44.08247" lon="1.45786">
        <ele>165</ele>
        <time>2010-11-28T14:31:39Z</time>
      </trkpt>
      <trkpt lat="44.08248" lon="1.45803">
        <ele>163.56</ele>
        <time>2010-11-28T14:31:52Z</time>
      </trkpt>
      <trkpt lat="44.08248" lon="1.45825">
        <ele>162.6</ele>
        <time>2010-11-28T14:32:06Z</time>
      </trkpt>
      <trkpt lat="44.08249" lon="1.45861">
        <ele>162.12</ele>
        <time>2010-11-28T14:32:26Z</time>
      </trkpt>
      <trkpt lat="44.08248" lon="1.45889">
        <ele>161.16</ele>
        <time>2010-11-28T14:32:43Z</time>
      </trkpt>
      <trkpt lat="44.08247" lon="1.45903">
        <ele>160.68</ele>
        <time>2010-11-28T14:32:52Z</time>
      </trkpt>
      <trkpt lat="44.08248" lon="1.45924">
        <ele>160.2</ele>
        <time>2010-11-28T14:33:04Z</time>
      </trkpt>
      <trkpt lat="44.08248" lon="1.45943">
        <ele>160.2</ele>
        <time>2010-11-28T14:33:15Z</time>
      </trkpt>
      <trkpt lat="44.08247" lon="1.45963">
        <ele>159.24</ele>
        <time>2010-11-28T14:33:28Z</time>
      </trkpt>
      <trkpt lat="44.08246" lon="1.45993">
        <ele>158.75</ele>
        <time>2010-11-28T14:33:48Z</time>
      </trkpt>
      <trkpt lat="44.08243" lon="1.46018">
        <ele>158.27</ele>
        <time>2010-11-28T14:34:01Z</time>
      </trkpt>
      <trkpt lat="44.08237" lon="1.46048">
        <ele>157.79</ele>
        <time>2010-11-28T14:34:18Z</time>
      </trkpt>
      <trkpt lat="44.08228" lon="1.46072">
        <ele>156.83</ele>
        <time>2010-11-28T14:34:33Z</time>
      </trkpt>
      <trkpt lat="44.0822" lon="1.46098">
        <ele>156.35</ele>
        <time>2010-11-28T14:34:50Z</time>
      </trkpt>
      <trkpt lat="44.08213" lon="1.46121">
        <ele>155.87</ele>
        <time>2010-11-28T14:35:06Z</time>
      </trkpt>
      <trkpt lat="44.08213" lon="1.46126">
        <ele>155.39</ele>
        <time>2010-11-28T14:35:09Z</time>
      </trkpt>
      <trkpt lat="44.08204" lon="1.46153">
        <ele>154.91</ele>
        <time>2010-11-28T14:35:27Z</time>
      </trkpt>
      <trkpt lat="44.08199" lon="1.46168">
        <ele>154.43</ele>
        <time>2010-11-28T14:35:38Z</time>
      </trkpt>
      <trkpt lat="44.08195" lon="1.46181">
        <ele>154.43</ele>
        <time>2010-11-28T14:35:49Z</time>
      </trkpt>
      <trkpt lat="44.08186" lon="1.462">
        <ele>153.47</ele>
        <time>2010-11-28T14:36:03Z</time>
      </trkpt>
      <trkpt lat="44.08176" lon="1.46228">
        <ele>152.99</ele>
        <time>2010-11-28T14:36:21Z</time>
      </trkpt>
      <trkpt lat="44.08166" lon="1.4625">
        <ele>152.99</ele>
        <time>2010-11-28T14:36:37Z</time>
      </trkpt>
      <trkpt lat="44.08156" lon="1.46274">
        <ele>151.54</ele>
        <time>2010-11-28T14:36:54Z</time>
      </trkpt>
      <trkpt lat="44.08149" lon="1.4629">
        <ele>151.06</ele>
        <time>2010-11-28T14:37:05Z</time>
      </trkpt>
      <trkpt lat="44.08138" lon="1.46315">
        <ele>150.58</ele>
        <time>2010-11-28T14:37:22Z</time>
      </trkpt>
      <trkpt lat="44.08133" lon="1.46331">
        <ele>149.62</ele>
        <time>2010-11-28T14:37:35Z</time>
      </trkpt>
      <trkpt lat="44.08123" lon="1.4636">
        <ele>149.62</ele>
        <time>2010-11-28T14:37:53Z</time>
      </trkpt>
      <trkpt lat="44.08115" lon="1.46384">
        <ele>148.18</ele>
        <time>2010-11-28T14:38:10Z</time>
      </trkpt>
      <trkpt lat="44.08108" lon="1.46408">
        <ele>148.66</ele>
        <time>2010-11-28T14:38:24Z</time>
      </trkpt>
      <trkpt lat="44.08104" lon="1.46419">
        <ele>147.7</ele>
        <time>2010-11-28T14:38:36Z</time>
      </trkpt>
      <trkpt lat="44.08096" lon="1.46439">
        <ele>147.7</ele>
        <time>2010-11-28T14:38:51Z</time>
      </trkpt>
      <trkpt lat="44.08092" lon="1.4645">
        <ele>148.18</ele>
        <time>2010-11-28T14:38:57Z</time>
      </trkpt>
      <trkpt lat="44.08087" lon="1.46459">
        <ele>146.74</ele>
        <time>2010-11-28T14:39:06Z</time>
      </trkpt>
      <trkpt lat="44.08071" lon="1.46464">
        <ele>145.78</ele>
        <time>2010-11-28T14:39:20Z</time>
      </trkpt>
      <trkpt lat="44.08051" lon="1.46461">
        <ele>145.78</ele>
        <time>2010-11-28T14:39:38Z</time>
      </trkpt>
      <trkpt lat="44.08031" lon="1.46456">
        <ele>145.3</ele>
        <time>2010-11-28T14:39:55Z</time>
      </trkpt>
      <trkpt lat="44.0801" lon="1.46449">
        <ele>144.34</ele>
        <time>2010-11-28T14:40:13Z</time>
      </trkpt>
      <trkpt lat="44.07991" lon="1.46443">
        <ele>144.34</ele>
        <time>2010-11-28T14:40:28Z</time>
      </trkpt>
      <trkpt lat="44.07969" lon="1.46436">
        <ele>143.37</ele>
        <time>2010-11-28T14:40:47Z</time>
      </trkpt>
      <trkpt lat="44.07958" lon="1.46433">
        <ele>142.41</ele>
        <time>2010-11-28T14:41:03Z</time>
      </trkpt>
      <trkpt lat="44.0794" lon="1.46428">
        <ele>142.41</ele>
        <time>2010-11-28T14:41:18Z</time>
      </trkpt>
      <trkpt lat="44.0792" lon="1.46424">
        <ele>141.45</ele>
        <time>2010-11-28T14:41:34Z</time>
      </trkpt>
      <trkpt lat="44.07904" lon="1.46423">
        <ele>141.45</ele>
        <time>2010-11-28T14:41:47Z</time>
      </trkpt>
      <trkpt lat="44.07886" lon="1.4643">
        <ele>141.45</ele>
        <time>2010-11-28T14:42:03Z</time>
      </trkpt>
      <trkpt lat="44.07866" lon="1.46442">
        <ele>140.01</ele>
        <time>2010-11-28T14:42:21Z</time>
      </trkpt>
      <trkpt lat="44.07848" lon="1.46459">
        <ele>140.01</ele>
        <time>2010-11-28T14:42:37Z</time>
      </trkpt>
      <trkpt lat="44.07833" lon="1.46475">
        <ele>139.53</ele>
        <time>2010-11-28T14:42:53Z</time>
      </trkpt>
      <trkpt lat="44.07814" lon="1.46494">
        <ele>138.57</ele>
        <time>2010-11-28T14:43:12Z</time>
      </trkpt>
      <trkpt lat="44.07797" lon="1.4651">
        <ele>138.57</ele>
        <time>2010-11-28T14:43:29Z</time>
      </trkpt>
      <trkpt lat="44.07781" lon="1.46525">
        <ele>135.68</ele>
        <time>2010-11-28T14:43:44Z</time>
      </trkpt>
      <trkpt lat="44.0778" lon="1.46526">
        <ele>140.49</ele>
        <time>2010-11-28T14:43:45Z</time>
      </trkpt>
      <trkpt lat="44.0777" lon="1.46534">
        <ele>137.61</ele>
        <time>2010-11-28T14:43:56Z</time>
      </trkpt>
      <trkpt lat="44.07767" lon="1.46539">
        <ele>137.61</ele>
        <time>2010-11-28T14:44:00Z</time>
      </trkpt>
      <trkpt lat="44.07747" lon="1.46561">
        <ele>137.13</ele>
        <time>2010-11-28T14:44:21Z</time>
      </trkpt>
      <trkpt lat="44.07729" lon="1.46578">
        <ele>136.64</ele>
        <time>2010-11-28T14:44:38Z</time>
      </trkpt>
      <trkpt lat="44.0771" lon="1.46597">
        <ele>135.68</ele>
        <time>2010-11-28T14:44:57Z</time>
      </trkpt>
      <trkpt lat="44.07689" lon="1.46618">
        <ele>135.68</ele>
        <time>2010-11-28T14:45:17Z</time>
      </trkpt>
      <trkpt lat="44.07681" lon="1.46625">
        <ele>135.2</ele>
        <time>2010-11-28T14:45:28Z</time>
      </trkpt>
      <trkpt lat="44.07665" lon="1.46639">
        <ele>135.2</ele>
        <time>2010-11-28T14:45:43Z</time>
      </trkpt>
      <trkpt lat="44.07648" lon="1.46655">
        <ele>134.72</ele>
        <time>2010-11-28T14:46:00Z</time>
      </trkpt>
      <trkpt lat="44.07626" lon="1.46668">
        <ele>133.76</ele>
        <time>2010-11-28T14:46:19Z</time>
      </trkpt>
      <trkpt lat="44.07607" lon="1.46676">
        <ele>134.24</ele>
        <time>2010-11-28T14:46:35Z</time>
      </trkpt>
      <trkpt lat="44.07586" lon="1.46681">
        <ele>133.76</ele>
        <time>2010-11-28T14:46:51Z</time>
      </trkpt>
      <trkpt lat="44.07576" lon="1.46685">
        <ele>133.28</ele>
        <time>2010-11-28T14:46:59Z</time>
      </trkpt>
      <trkpt lat="44.07551" lon="1.46695">
        <ele>132.8</ele>
        <time>2010-11-28T14:47:20Z</time>
      </trkpt>
      <trkpt lat="44.07528" lon="1.46704">
        <ele>132.8</ele>
        <time>2010-11-28T14:47:39Z</time>
      </trkpt>
      <trkpt lat="44.07509" lon="1.4671">
        <ele>132.32</ele>
        <time>2010-11-28T14:47:56Z</time>
      </trkpt>
      <trkpt lat="44.07489" lon="1.46719">
        <ele>131.84</ele>
        <time>2010-11-28T14:48:14Z</time>
      </trkpt>
      <trkpt lat="44.07469" lon="1.46723">
        <ele>131.36</ele>
        <time>2010-11-28T14:48:31Z</time>
      </trkpt>
      <trkpt lat="44.07453" lon="1.46722">
        <ele>131.36</ele>
        <time>2010-11-28T14:48:45Z</time>
      </trkpt>
      <trkpt lat="44.07433" lon="1.46727">
        <ele>130.88</ele>
        <time>2010-11-28T14:49:01Z</time>
      </trkpt>
      <trkpt lat="44.07419" lon="1.4673">
        <ele>130.88</ele>
        <time>2010-11-28T14:49:15Z</time>
      </trkpt>
      <trkpt lat="44.07396" lon="1.46733">
        <ele>129.43</ele>
        <time>2010-11-28T14:49:36Z</time>
      </trkpt>
      <trkpt lat="44.07372" lon="1.46738">
        <ele>129.43</ele>
        <time>2010-11-28T14:49:54Z</time>
      </trkpt>
      <trkpt lat="44.07353" lon="1.4674">
        <ele>128.95</ele>
        <time>2010-11-28T14:50:09Z</time>
      </trkpt>
      <trkpt lat="44.07328" lon="1.46744">
        <ele>127.99</ele>
        <time>2010-11-28T14:50:28Z</time>
      </trkpt>
      <trkpt lat="44.07308" lon="1.46749">
        <ele>127.99</ele>
        <time>2010-11-28T14:50:45Z</time>
      </trkpt>
      <trkpt lat="44.073" lon="1.46751">
        <ele>127.99</ele>
        <time>2010-11-28T14:50:55Z</time>
      </trkpt>
      <trkpt lat="44.07277" lon="1.46756">
        <ele>127.51</ele>
        <time>2010-11-28T14:51:11Z</time>
      </trkpt>
      <trkpt lat="44.07265" lon="1.46758">
        <ele>127.51</ele>
        <time>2010-11-28T14:51:20Z</time>
      </trkpt>
      <trkpt lat="44.07264" lon="1.46758">
        <ele>127.99</ele>
        <time>2010-11-28T14:51:24Z</time>
      </trkpt>
      <trkpt lat="44.07258" lon="1.46759">
        <ele>127.99</ele>
        <time>2010-11-28T14:51:34Z</time>
      </trkpt>
      <trkpt lat="44.07254" lon="1.4676">
        <ele>127.03</ele>
        <time>2010-11-28T14:51:45Z</time>
      </trkpt>
      <trkpt lat="44.07238" lon="1.46764">
        <ele>126.07</ele>
        <time>2010-11-28T14:51:59Z</time>
      </trkpt>
      <trkpt lat="44.07217" lon="1.46768">
        <ele>125.59</ele>
        <time>2010-11-28T14:52:15Z</time>
      </trkpt>
      <trkpt lat="44.07192" lon="1.4678">
        <ele>125.59</ele>
        <time>2010-11-28T14:52:35Z</time>
      </trkpt>
      <trkpt lat="44.07173" lon="1.46796">
        <ele>124.63</ele>
        <time>2010-11-28T14:52:54Z</time>
      </trkpt>
      <trkpt lat="44.07158" lon="1.46814">
        <ele>124.63</ele>
        <time>2010-11-28T14:53:09Z</time>
      </trkpt>
      <trkpt lat="44.07142" lon="1.4683">
        <ele>124.63</ele>
        <time>2010-11-28T14:53:26Z</time>
      </trkpt>
      <trkpt lat="44.07135" lon="1.46835">
        <ele>124.15</ele>
        <time>2010-11-28T14:53:44Z</time>
      </trkpt>
      <trkpt lat="44.07124" lon="1.46848">
        <ele>123.67</ele>
        <time>2010-11-28T14:53:57Z</time>
      </trkpt>
      <trkpt lat="44.07109" lon="1.46863">
        <ele>123.67</ele>
        <time>2010-11-28T14:54:14Z</time>
      </trkpt>
      <trkpt lat="44.07092" lon="1.46879">
        <ele>123.19</ele>
        <time>2010-11-28T14:54:31Z</time>
      </trkpt>
      <trkpt lat="44.07076" lon="1.46899">
        <ele>122.71</ele>
        <time>2010-11-28T14:54:49Z</time>
      </trkpt>
      <trkpt lat="44.07083" lon="1.46919">
        <ele>122.22</ele>
        <time>2010-11-28T14:55:05Z</time>
      </trkpt>
      <trkpt lat="44.07096" lon="1.46928">
        <ele>121.74</ele>
        <time>2010-11-28T14:55:18Z</time>
      </trkpt>
      <trkpt lat="44.07112" lon="1.46937">
        <ele>121.26</ele>
        <time>2010-11-28T14:55:33Z</time>
      </trkpt>
      <trkpt lat="44.0713" lon="1.46946">
        <ele>120.3</ele>
        <time>2010-11-28T14:55:49Z</time>
      </trkpt>
      <trkpt lat="44.0715" lon="1.46957">
        <ele>120.3</ele>
        <time>2010-11-28T14:56:06Z</time>
      </trkpt>
      <trkpt lat="44.07162" lon="1.46964">
        <ele>119.34</ele>
        <time>2010-11-28T14:56:18Z</time>
      </trkpt>
      <trkpt lat="44.07177" lon="1.46971">
        <ele>119.34</ele>
        <time>2010-11-28T14:56:32Z</time>
      </trkpt>
      <trkpt lat="44.07188" lon="1.46975">
        <ele>119.34</ele>
        <time>2010-11-28T14:56:42Z</time>
      </trkpt>
      <trkpt lat="44.0721" lon="1.46981">
        <ele>117.9</ele>
        <time>2010-11-28T14:57:00Z</time>
      </trkpt>
      <trkpt lat="44.07225" lon="1.46985">
        <ele>117.9</ele>
        <time>2010-11-28T14:57:14Z</time>
      </trkpt>
      <trkpt lat="44.0724" lon="1.46988">
        <ele>117.9</ele>
        <time>2010-11-28T14:57:28Z</time>
      </trkpt>
      <trkpt lat="44.07265" lon="1.46993">
        <ele>117.42</ele>
        <time>2010-11-28T14:57:46Z</time>
      </trkpt>
      <trkpt lat="44.07283" lon="1.46995">
        <ele>117.9</ele>
        <time>2010-11-28T14:58:01Z</time>
      </trkpt>
      <trkpt lat="44.07299" lon="1.46996">
        <ele>115.98</ele>
        <time>2010-11-28T14:58:14Z</time>
      </trkpt>
      <trkpt lat="44.07301" lon="1.46996">
        <ele>84.73</ele>
        <time>2010-11-28T14:51:12Z</time>
      </trkpt>
      <trkpt lat="44.07301" lon="1.46996">
        <ele>-8.03</ele>
        <time>2010-11-28T14:51:13Z</time>
      </trkpt>
      <trkpt lat="44.07301" lon="1.46996">
        <ele>-8.03</ele>
        <time>2010-11-28T14:51:14Z</time>
      </trkpt>
      <trkpt lat="44.07301" lon="1.46996">
        <ele>-8.03</ele>
        <time>2010-11-28T14:52:03Z</time>
      </trkpt>
      <trkpt lat="44.07301" lon="1.46996">
        <ele>84.73</ele>
        <time>2010-11-28T15:00:03Z</time>
      </trkpt>
      <trkpt lat="44.07301" lon="1.46996">
        <ele>-87.82</ele>
        <time>2010-11-28T15:00:06Z</time>
      </trkpt>
      <trkpt lat="44.08392" lon="1.44923">
        <ele>-87.82</ele>
        <time>2011-01-15T15:27:35Z</time>
      </trkpt>
      <trkpt lat="44.08397" lon="1.44916">
        <ele>-88.3</ele>
        <time>2011-01-15T15:29:58Z</time>
      </trkpt>
      <trkpt lat="44.08397" lon="1.44916">
        <ele>72.72</ele>
        <time>2011-01-15T17:52:24Z</time>
      </trkpt>
      <trkpt lat="44.08397" lon="1.44916">
        <ele>-85.9</ele>
        <time>2011-01-15T17:52:25Z</time>
      </trkpt>
      <trkpt lat="44.08397" lon="1.44916">
        <ele>-85.9</ele>
        <time>2011-01-15T17:52:26Z</time>
      </trkpt>
      <trkpt lat="44.08397" lon="1.44916">
        <ele>-85.9</ele>
        <time>2011-01-15T17:53:17Z</time>
      </trkpt>
      <trkpt lat="44.08397" lon="1.44916">
        <ele>72.72</ele>
        <time>2011-01-15T15:27:42Z</time>
      </trkpt>
      <trkpt lat="44.08397" lon="1.44916">
        <ele>34.74</ele>
        <time>2011-01-15T15:27:45Z</time>
      </trkpt>
      <trkpt lat="44.08397" lon="1.44916">
        <ele>29.94</ele>
        <time>2011-01-15T15:29:21Z</time>
      </trkpt>
      <trkpt lat="44.08397" lon="1.44916">
        <ele>32.82</ele>
        <time>2011-01-15T15:30:24Z</time>
      </trkpt>
      <trkpt lat="11.56654" lon="43.14762">
        <ele>33.78</ele>
        <time>2011-12-06T13:27:37Z</time>
      </trkpt>
      <trkpt lat="11.56676" lon="43.14755">
        <ele>33.78</ele>
        <time>2011-12-06T13:27:59Z</time>
      </trkpt>
      <trkpt lat="11.56648" lon="43.1475">
        <ele>34.26</ele>
        <time>2011-12-06T13:28:14Z</time>
      </trkpt>
      <trkpt lat="11.56641" lon="43.14752">
        <ele>33.78</ele>
        <time>2011-12-06T13:28:36Z</time>
      </trkpt>
      <trkpt lat="11.56641" lon="43.14751">
        <ele>33.78</ele>
        <time>2011-12-06T13:28:53Z</time>
      </trkpt>
      <trkpt lat="11.56612" lon="43.14748">
        <ele>33.78</ele>
        <time>2011-12-06T13:29:04Z</time>
      </trkpt>
      <trkpt lat="11.56604" lon="43.14764">
        <ele>32.34</ele>
        <time>2011-12-06T13:29:22Z</time>
      </trkpt>
      <trkpt lat="11.56604" lon="43.14764">
        <ele>45.8</ele>
        <time>2011-12-06T13:27:44Z</time>
      </trkpt>
      <trkpt lat="11.56604" lon="43.14764">
        <ele>16.48</ele>
        <time>2011-12-06T13:27:47Z</time>
      </trkpt>
      <trkpt lat="11.56604" lon="43.14764">
        <ele>15.04</ele>
        <time>2011-12-06T13:28:37Z</time>
      </trkpt>
      <trkpt lat="11.56604" lon="43.14764">
        <ele>15.04</ele>
        <time>2011-12-06T13:28:44Z</time>
      </trkpt>
      <trkpt lat="11.56604" lon="43.14764">
        <ele>19.84</ele>
        <time>2011-12-06T14:15:36Z</time>
      </trkpt>
      <trkpt lat="11.56604" lon="43.14764">
        <ele>20.32</ele>
        <time>2011-12-06T14:15:37Z</time>
      </trkpt>
      <trkpt lat="11.5657" lon="43.14798">
        <ele>18.88</ele>
        <time>2011-12-20T12:38:58Z</time>
      </trkpt>
      <trkpt lat="11.56583" lon="43.14826">
        <ele>20.32</ele>
        <time>2011-12-20T12:39:27Z</time>
      </trkpt>
      <trkpt lat="11.56574" lon="43.14761">
        <ele>20.81</ele>
        <time>2011-12-20T12:39:34Z</time>
      </trkpt>
      <trkpt lat="11.56555" lon="43.14802">
        <ele>19.84</ele>
        <time>2011-12-20T12:40:45Z</time>
      </trkpt>
      <trkpt lat="11.56554" lon="43.14804">
        <ele>18.88</ele>
        <time>2011-12-20T12:40:48Z</time>
      </trkpt>
      <trkpt lat="11.56549" lon="43.14787">
        <ele>20.81</ele>
        <time>2011-12-20T12:40:59Z</time>
      </trkpt>
      <trkpt lat="11.56569" lon="43.14783">
        <ele>17.44</ele>
        <time>2011-12-20T12:43:07Z</time>
      </trkpt>
      <trkpt lat="11.56569" lon="43.14783">
        <ele>20.81</ele>
        <time>2011-12-20T12:43:09Z</time>
      </trkpt>
      <trkpt lat="11.56569" lon="43.14783">
        <ele>16.96</ele>
        <time>2011-12-20T12:43:12Z</time>
      </trkpt>
      <trkpt lat="11.56569" lon="43.14783">
        <ele>19.84</ele>
        <time>2011-12-20T12:43:15Z</time>
      </trkpt>
      <trkpt lat="11.56569" lon="43.14783">
        <ele>16.96</ele>
        <time>2011-12-20T12:43:24Z</time>
      </trkpt>
      <trkpt lat="11.56569" lon="43.14783">
        <ele>20.81</ele>
        <time>2011-12-20T12:43:27Z</time>
      </trkpt>
      <trkpt lat="11.56569" lon="43.14783">
        <ele>19.84</ele>
        <time>2011-12-20T12:43:28Z</time>
      </trkpt>
      <trkpt lat="11.56569" lon="43.14783">
        <ele>21.29</ele>
        <time>2011-12-20T12:43:32Z</time>
      </trkpt>
      <trkpt lat="11.56569" lon="43.14783">
        <ele>19.84</ele>
        <time>2011-12-20T12:43:34Z</time>
      </trkpt>
      <trkpt lat="11.56572" lon="43.14786">
        <ele>18.88</ele>
        <time>2011-12-20T12:43:59Z</time>
      </trkpt>
      <trkpt lat="11.56583" lon="43.14791">
        <ele>20.81</ele>
        <time>2011-12-20T12:44:09Z</time>
      </trkpt>
      <trkpt lat="11.56593" lon="43.14798">
        <ele>16</ele>
        <time>2011-12-20T12:44:19Z</time>
      </trkpt>
      <trkpt lat="11.56593" lon="43.14799">
        <ele>16</ele>
        <time>2011-12-20T12:44:20Z</time>
      </trkpt>
      <trkpt lat="11.56592" lon="43.14799">
        <ele>18.88</ele>
        <time>2011-12-20T12:44:21Z</time>
      </trkpt>
      <trkpt lat="11.56591" lon="43.148">
        <ele>18.88</ele>
        <time>2011-12-20T12:44:22Z</time>
      </trkpt>
      <trkpt lat="11.56587" lon="43.1482">
        <ele>18.4</ele>
        <time>2011-12-20T12:44:52Z</time>
      </trkpt>
      <trkpt lat="11.56587" lon="43.1482">
        <ele>17.44</ele>
        <time>2011-12-20T12:44:57Z</time>
      </trkpt>
      <trkpt lat="11.56587" lon="43.1482">
        <ele>15.52</ele>
        <time>2011-12-20T12:45:01Z</time>
      </trkpt>
      <trkpt lat="11.56587" lon="43.1482">
        <ele>18.4</ele>
        <time>2011-12-20T12:45:05Z</time>
      </trkpt>
      <trkpt lat="11.56587" lon="43.1482">
        <ele>19.84</ele>
        <time>2011-12-20T12:45:19Z</time>
      </trkpt>
      <trkpt lat="11.56587" lon="43.1482">
        <ele>16</ele>
        <time>2011-12-20T12:45:42Z</time>
      </trkpt>
      <trkpt lat="11.56587" lon="43.1482">
        <ele>15.52</ele>
        <time>2011-12-20T12:45:57Z</time>
      </trkpt>
      <trkpt lat="11.56587" lon="43.1482">
        <ele>18.88</ele>
        <time>2011-12-20T12:45:59Z</time>
      </trkpt>
      <trkpt lat="11.56587" lon="43.1482">
        <ele>15.52</ele>
        <time>2011-12-20T12:46:13Z</time>
      </trkpt>
      <trkpt lat="11.56587" lon="43.1482">
        <ele>16</ele>
        <time>2011-12-20T12:46:15Z</time>
      </trkpt>
      <trkpt lat="11.56587" lon="43.1482">
        <ele>16.96</ele>
        <time>2011-12-20T12:46:28Z</time>
      </trkpt>
      <trkpt lat="11.56587" lon="43.1482">
        <ele>18.88</ele>
        <time>2011-12-20T12:46:29Z</time>
      </trkpt>
      <trkpt lat="11.56587" lon="43.1482">
        <ele>16.96</ele>
        <time>2011-12-20T12:46:36Z</time>
      </trkpt>
      <trkpt lat="11.56587" lon="43.1482">
        <ele>17.44</ele>
        <time>2011-12-20T12:46:56Z</time>
      </trkpt>
      <trkpt lat="11.56587" lon="43.1482">
        <ele>16.48</ele>
        <time>2011-12-20T12:48:31Z</time>
      </trkpt>
      <trkpt lat="11.56586" lon="43.14757">
        <ele>18.4</ele>
        <time>2011-12-20T12:49:36Z</time>
      </trkpt>
      <trkpt lat="11.56586" lon="43.14757">
        <ele>18.88</ele>
        <time>2011-12-20T12:49:45Z</time>
      </trkpt>
      <trkpt lat="11.56577" lon="43.14775">
        <ele>18.88</ele>
        <time>2011-12-20T12:50:16Z</time>
      </trkpt>
      <trkpt lat="11.56574" lon="43.14777">
        <ele>19.36</ele>
        <time>2011-12-20T12:50:21Z</time>
      </trkpt>
      <trkpt lat="11.56572" lon="43.1478">
        <ele>13.12</ele>
        <time>2011-12-20T12:50:26Z</time>
      </trkpt>
      <trkpt lat="11.56571" lon="43.14781">
        <ele>13.12</ele>
        <time>2011-12-20T12:50:27Z</time>
      </trkpt>
      <trkpt lat="11.56571" lon="43.14781">
        <ele>18.88</ele>
        <time>2011-12-20T12:50:28Z</time>
      </trkpt>
      <trkpt lat="11.56569" lon="43.14783">
        <ele>16</ele>
        <time>2011-12-20T12:50:31Z</time>
      </trkpt>
      <trkpt lat="11.56569" lon="43.14784">
        <ele>19.36</ele>
        <time>2011-12-20T12:50:32Z</time>
      </trkpt>
      <trkpt lat="11.56565" lon="43.14787">
        <ele>18.4</ele>
        <time>2011-12-20T12:50:39Z</time>
      </trkpt>
      <trkpt lat="11.56565" lon="43.14787">
        <ele>20.81</ele>
        <time>2011-12-20T12:50:41Z</time>
      </trkpt>
      <trkpt lat="11.56565" lon="43.14787">
        <ele>17.92</ele>
        <time>2011-12-20T12:50:47Z</time>
      </trkpt>
      <trkpt lat="11.56565" lon="43.14787">
        <ele>12.63</ele>
        <time>2011-12-20T12:54:41Z</time>
      </trkpt>
      <trkpt lat="11.56565" lon="43.14787">
        <ele>19.84</ele>
        <time>2011-12-20T12:54:44Z</time>
      </trkpt>
      <trkpt lat="11.56565" lon="43.14787">
        <ele>16.96</ele>
        <time>2011-12-20T12:54:55Z</time>
      </trkpt>
      <trkpt lat="11.56565" lon="43.14787">
        <ele>21.77</ele>
        <time>2011-12-20T12:54:56Z</time>
      </trkpt>
      <trkpt lat="11.56565" lon="43.14787">
        <ele>18.4</ele>
        <time>2011-12-20T12:56:23Z</time>
      </trkpt>
      <trkpt lat="11.56582" lon="43.14763">
        <ele>19.36</ele>
        <time>2011-12-20T12:59:29Z</time>
      </trkpt>
      <trkpt lat="11.56572" lon="43.1478">
        <ele>19.36</ele>
        <time>2011-12-20T13:03:41Z</time>
      </trkpt>
      <trkpt lat="11.56572" lon="43.1478">
        <ele>20.32</ele>
        <time>2011-12-20T13:05:03Z</time>
      </trkpt>
      <trkpt lat="11.56572" lon="43.1478">
        <ele>21.29</ele>
        <time>2011-12-20T13:05:06Z</time>
      </trkpt>
      <trkpt lat="11.56572" lon="43.1478">
        <ele>19.36</ele>
        <time>2011-12-20T13:05:07Z</time>
      </trkpt>
      <trkpt lat="11.56572" lon="43.1478">
        <ele>18.4</ele>
        <time>2011-12-20T13:05:12Z</time>
      </trkpt>
      <trkpt lat="11.56572" lon="43.1478">
        <ele>3.98</ele>
        <time>2011-12-29T12:54:13Z</time>
      </trkpt>
      <trkpt lat="11.56572" lon="43.1478">
        <ele>2.06</ele>
        <time>2011-12-29T12:54:16Z</time>
      </trkpt>
      <trkpt lat="11.56572" lon="43.1478">
        <ele>0.62</ele>
        <time>2011-12-29T12:54:32Z</time>
      </trkpt>
      <trkpt lat="11.56572" lon="43.1478">
        <ele>3.98</ele>
        <time>2011-12-29T12:55:11Z</time>
      </trkpt>
      <trkpt lat="11.56572" lon="43.1478">
        <ele>2.06</ele>
        <time>2011-12-29T12:55:14Z</time>
      </trkpt>
      <trkpt lat="11.56572" lon="43.1478">
        <ele>2.06</ele>
        <time>2011-12-29T13:00:37Z</time>
      </trkpt>
      <trkpt lat="11.56572" lon="43.1478">
        <ele>1.58</ele>
        <time>2011-12-29T13:00:38Z</time>
      </trkpt>
      <trkpt lat="11.56572" lon="43.1478">
        <ele>1.1</ele>
        <time>2011-12-29T13:00:42Z</time>
      </trkpt>
      <trkpt lat="11.56572" lon="43.1478">
        <ele>3.98</ele>
        <time>2011-12-30T05:43:16Z</time>
      </trkpt>
      <trkpt lat="11.56572" lon="43.1478">
        <ele>632.2</ele>
        <time>2011-12-30T05:43:19Z</time>
      </trkpt>
      <trkpt lat="11.56572" lon="43.1478">
        <ele>634.61</ele>
        <time>2011-12-30T05:44:13Z</time>
      </trkpt>
      <trkpt lat="11.56572" lon="43.1478">
        <ele>631.72</ele>
        <time>2011-12-30T05:44:26Z</time>
      </trkpt>
      <trkpt lat="11.56572" lon="43.1478">
        <ele>631.24</ele>
        <time>2011-12-30T05:44:32Z</time>
      </trkpt>
      <trkpt lat="11.56572" lon="43.1478">
        <ele>630.28</ele>
        <time>2011-12-30T05:45:00Z</time>
      </trkpt>
      <trkpt lat="11.56572" lon="43.1478">
        <ele>631.72</ele>
        <time>2011-12-30T05:45:12Z</time>
      </trkpt>
      <trkpt lat="11.52486" lon="42.8432">
        <ele>632.68</ele>
        <time>2011-12-30T05:45:03Z</time>
      </trkpt>
      <trkpt lat="11.52487" lon="42.84319">
        <ele>624.03</ele>
        <time>2011-12-30T05:45:04Z</time>
      </trkpt>
      <trkpt lat="11.52488" lon="42.84318">
        <ele>624.03</ele>
        <time>2011-12-30T05:45:05Z</time>
      </trkpt>
      <trkpt lat="11.5249" lon="42.84317">
        <ele>631.24</ele>
        <time>2011-12-30T05:45:06Z</time>
      </trkpt>
      <trkpt lat="11.52491" lon="42.84315">
        <ele>627.88</ele>
        <time>2011-12-30T05:45:08Z</time>
      </trkpt>
      <trkpt lat="11.52491" lon="42.84314">
        <ele>631.24</ele>
        <time>2011-12-30T05:45:09Z</time>
      </trkpt>
      <trkpt lat="11.52499" lon="42.84299">
        <ele>630.76</ele>
        <time>2011-12-30T05:45:23Z</time>
      </trkpt>
      <trkpt lat="11.52506" lon="42.84286">
        <ele>629.8</ele>
        <time>2011-12-30T05:45:34Z</time>
      </trkpt>
      <trkpt lat="11.52513" lon="42.84272">
        <ele>630.76</ele>
        <time>2011-12-30T05:45:46Z</time>
      </trkpt>
      <trkpt lat="11.52516" lon="42.84267">
        <ele>630.76</ele>
        <time>2011-12-30T05:45:50Z</time>
      </trkpt>
      <trkpt lat="11.5252" lon="42.8426">
        <ele>630.28</ele>
        <time>2011-12-30T05:45:56Z</time>
      </trkpt>
      <trkpt lat="11.52521" lon="42.84253">
        <ele>630.28</ele>
        <time>2011-12-30T05:46:00Z</time>
      </trkpt>
      <trkpt lat="11.52523" lon="42.8424">
        <ele>629.32</ele>
        <time>2011-12-30T05:46:09Z</time>
      </trkpt>
      <trkpt lat="11.52528" lon="42.84227">
        <ele>629.8</ele>
        <time>2011-12-30T05:46:21Z</time>
      </trkpt>
      <trkpt lat="11.52534" lon="42.84209">
        <ele>629.8</ele>
        <time>2011-12-30T05:46:32Z</time>
      </trkpt>
      <trkpt lat="11.5254" lon="42.84198">
        <ele>629.8</ele>
        <time>2011-12-30T05:46:42Z</time>
      </trkpt>
      <trkpt lat="11.52544" lon="42.84191">
        <ele>629.8</ele>
        <time>2011-12-30T05:46:48Z</time>
      </trkpt>
      <trkpt lat="11.52551" lon="42.84178">
        <ele>630.76</ele>
        <time>2011-12-30T05:46:58Z</time>
      </trkpt>
      <trkpt lat="11.52556" lon="42.84167">
        <ele>630.28</ele>
        <time>2011-12-30T05:47:07Z</time>
      </trkpt>
      <trkpt lat="11.52566" lon="42.84167">
        <ele>631.24</ele>
        <time>2011-12-30T05:47:14Z</time>
      </trkpt>
      <trkpt lat="11.52583" lon="42.8417">
        <ele>631.72</ele>
        <time>2011-12-30T05:47:27Z</time>
      </trkpt>
      <trkpt lat="11.52596" lon="42.84173">
        <ele>631.24</ele>
        <time>2011-12-30T05:47:38Z</time>
      </trkpt>
      <trkpt lat="11.52604" lon="42.84174">
        <ele>631.24</ele>
        <time>2011-12-30T05:47:48Z</time>
      </trkpt>
      <trkpt lat="11.52613" lon="42.8417">
        <ele>630.76</ele>
        <time>2011-12-30T05:48:02Z</time>
      </trkpt>
      <trkpt lat="11.52619" lon="42.84161">
        <ele>627.88</ele>
        <time>2011-12-30T05:48:26Z</time>
      </trkpt>
      <trkpt lat="11.5262" lon="42.84156">
        <ele>626.44</ele>
        <time>2011-12-30T05:48:30Z</time>
      </trkpt>
      <trkpt lat="11.5262" lon="42.84151">
        <ele>623.55</ele>
        <time>2011-12-30T05:48:34Z</time>
      </trkpt>
      <trkpt lat="11.5262" lon="42.8415">
        <ele>629.32</ele>
        <time>2011-12-30T05:48:35Z</time>
      </trkpt>
      <trkpt lat="11.5262" lon="42.84145">
        <ele>624.99</ele>
        <time>2011-12-30T05:48:42Z</time>
      </trkpt>
      <trkpt lat="11.52626" lon="42.84135">
        <ele>624.99</ele>
        <time>2011-12-30T05:48:58Z</time>
      </trkpt>
      <trkpt lat="11.52626" lon="42.8413">
        <ele>622.11</ele>
        <time>2011-12-30T05:49:07Z</time>
      </trkpt>
      <trkpt lat="11.52626" lon="42.84128">
        <ele>622.11</ele>
        <time>2011-12-30T05:49:08Z</time>
      </trkpt>
      <trkpt lat="11.52628" lon="42.84122">
        <ele>624.03</ele>
        <time>2011-12-30T05:49:13Z</time>
      </trkpt>
      <trkpt lat="11.52632" lon="42.8412">
        <ele>621.15</ele>
        <time>2011-12-30T05:49:17Z</time>
      </trkpt>
      <trkpt lat="11.52635" lon="42.84098">
        <ele>623.07</ele>
        <time>2011-12-30T05:49:21Z</time>
      </trkpt>
      <trkpt lat="11.52636" lon="42.84098">
        <ele>621.63</ele>
        <time>2011-12-30T05:49:23Z</time>
      </trkpt>
      <trkpt lat="11.52637" lon="42.84061">
        <ele>621.15</ele>
        <time>2011-12-30T05:49:30Z</time>
      </trkpt>
      <trkpt lat="11.52639" lon="42.84008">
        <ele>620.67</ele>
        <time>2011-12-30T05:49:40Z</time>
      </trkpt>
      <trkpt lat="11.5264" lon="42.84004">
        <ele>620.67</ele>
        <time>2011-12-30T05:49:44Z</time>
      </trkpt>
      <trkpt lat="11.52642" lon="42.84005">
        <ele>619.23</ele>
        <time>2011-12-30T05:49:46Z</time>
      </trkpt>
      <trkpt lat="11.52644" lon="42.83982">
        <ele>610.57</ele>
        <time>2011-12-30T05:49:53Z</time>
      </trkpt>
      <trkpt lat="11.52644" lon="42.83979">
        <ele>618.26</ele>
        <time>2011-12-30T05:49:54Z</time>
      </trkpt>
      <trkpt lat="11.52645" lon="42.83971">
        <ele>622.11</ele>
        <time>2011-12-30T05:49:56Z</time>
      </trkpt>
      <trkpt lat="11.5265" lon="42.83946">
        <ele>619.23</ele>
        <time>2011-12-30T05:50:04Z</time>
      </trkpt>
      <trkpt lat="11.52652" lon="42.83931">
        <ele>620.67</ele>
        <time>2011-12-30T05:50:09Z</time>
      </trkpt>
      <trkpt lat="11.52652" lon="42.83922">
        <ele>618.75</ele>
        <time>2011-12-30T05:50:12Z</time>
      </trkpt>
      <trkpt lat="11.52651" lon="42.83877">
        <ele>621.15</ele>
        <time>2011-12-30T05:50:20Z</time>
      </trkpt>
      <trkpt lat="11.5265" lon="42.83863">
        <ele>621.15</ele>
        <time>2011-12-30T05:50:22Z</time>
      </trkpt>
      <trkpt lat="11.52648" lon="42.83851">
        <ele>617.78</ele>
        <time>2011-12-30T05:50:24Z</time>
      </trkpt>
      <trkpt lat="11.52647" lon="42.8384">
        <ele>622.11</ele>
        <time>2011-12-30T05:50:26Z</time>
      </trkpt>
      <trkpt lat="11.52647" lon="42.83831">
        <ele>618.26</ele>
        <time>2011-12-30T05:50:28Z</time>
      </trkpt>
      <trkpt lat="11.52647" lon="42.83827">
        <ele>618.26</ele>
        <time>2011-12-30T05:50:29Z</time>
      </trkpt>
      <trkpt lat="11.5265" lon="42.83777">
        <ele>617.3</ele>
        <time>2011-12-30T05:50:46Z</time>
      </trkpt>
      <trkpt lat="11.52652" lon="42.83763">
        <ele>616.34</ele>
        <time>2011-12-30T05:50:53Z</time>
      </trkpt>
      <trkpt lat="11.52653" lon="42.83759">
        <ele>617.3</ele>
        <time>2011-12-30T05:50:55Z</time>
      </trkpt>
      <trkpt lat="11.52656" lon="42.83754">
        <ele>621.15</ele>
        <time>2011-12-30T05:50:59Z</time>
      </trkpt>
      <trkpt lat="11.52657" lon="42.83753">
        <ele>617.3</ele>
        <time>2011-12-30T05:51:00Z</time>
      </trkpt>
      <trkpt lat="11.52657" lon="42.83752">
        <ele>616.82</ele>
        <time>2011-12-30T05:51:01Z</time>
      </trkpt>
      <trkpt lat="11.52659" lon="42.83749">
        <ele>615.38</ele>
        <time>2011-12-30T05:51:03Z</time>
      </trkpt>
      <trkpt lat="11.52659" lon="42.83743">
        <ele>608.65</ele>
        <time>2011-12-30T05:51:08Z</time>
      </trkpt>
      <trkpt lat="11.52659" lon="42.83741">
        <ele>613.46</ele>
        <time>2011-12-30T05:51:09Z</time>
      </trkpt>
      <trkpt lat="11.52661" lon="42.83736">
        <ele>607.21</ele>
        <time>2011-12-30T05:51:12Z</time>
      </trkpt>
      <trkpt lat="11.52663" lon="42.83733">
        <ele>606.25</ele>
        <time>2011-12-30T05:51:14Z</time>
      </trkpt>
      <trkpt lat="11.52666" lon="42.83728">
        <ele>602.88</ele>
        <time>2011-12-30T05:51:18Z</time>
      </trkpt>
      <trkpt lat="11.52672" lon="42.83715">
        <ele>600.48</ele>
        <time>2011-12-30T05:51:28Z</time>
      </trkpt>
      <trkpt lat="11.52661" lon="42.83682">
        <ele>602.4</ele>
        <time>2011-12-30T05:51:38Z</time>
      </trkpt>
      <trkpt lat="11.52664" lon="42.83673">
        <ele>600</ele>
        <time>2011-12-30T05:51:49Z</time>
      </trkpt>
      <trkpt lat="11.52668" lon="42.83672">
        <ele>602.88</ele>
        <time>2011-12-30T05:51:52Z</time>
      </trkpt>
      <trkpt lat="11.52677" lon="42.8367">
        <ele>602.88</ele>
        <time>2011-12-30T05:52:00Z</time>
      </trkpt>
      <trkpt lat="11.52686" lon="42.8367">
        <ele>599.52</ele>
        <time>2011-12-30T05:52:16Z</time>
      </trkpt>
      <trkpt lat="11.52695" lon="42.83669">
        <ele>600</ele>
        <time>2011-12-30T05:52:26Z</time>
      </trkpt>
      <trkpt lat="11.527" lon="42.83669">
        <ele>600</ele>
        <time>2011-12-30T05:52:31Z</time>
      </trkpt>
      <trkpt lat="11.52718" lon="42.83668">
        <ele>597.12</ele>
        <time>2011-12-30T05:52:45Z</time>
      </trkpt>
      <trkpt lat="11.52719" lon="42.83668">
        <ele>597.12</ele>
        <time>2011-12-30T05:52:49Z</time>
      </trkpt>
      <trkpt lat="11.52724" lon="42.83668">
        <ele>596.15</ele>
        <time>2011-12-30T05:52:54Z</time>
      </trkpt>
      <trkpt lat="11.52733" lon="42.83668">
        <ele>595.19</ele>
        <time>2011-12-30T05:53:05Z</time>
      </trkpt>
      <trkpt lat="11.52742" lon="42.83667">
        <ele>593.75</ele>
        <time>2011-12-30T05:53:24Z</time>
      </trkpt>
      <trkpt lat="11.52744" lon="42.83666">
        <ele>593.75</ele>
        <time>2011-12-30T05:53:26Z</time>
      </trkpt>
      <trkpt lat="11.52747" lon="42.83665">
        <ele>591.83</ele>
        <time>2011-12-30T05:53:29Z</time>
      </trkpt>
      <trkpt lat="11.52757" lon="42.83661">
        <ele>591.83</ele>
        <time>2011-12-30T05:53:39Z</time>
      </trkpt>
      <trkpt lat="11.52767" lon="42.83654">
        <ele>589.43</ele>
        <time>2011-12-30T05:53:50Z</time>
      </trkpt>
      <trkpt lat="11.52768" lon="42.83653">
        <ele>589.91</ele>
        <time>2011-12-30T05:53:51Z</time>
      </trkpt>
      <trkpt lat="11.5278" lon="42.83645">
        <ele>588.95</ele>
        <time>2011-12-30T05:54:03Z</time>
      </trkpt>
      <trkpt lat="11.52783" lon="42.83641">
        <ele>587.5</ele>
        <time>2011-12-30T05:54:07Z</time>
      </trkpt>
      <trkpt lat="11.5279" lon="42.83631">
        <ele>589.43</ele>
        <time>2011-12-30T05:54:18Z</time>
      </trkpt>
      <trkpt lat="11.52791" lon="42.83628">
        <ele>587.5</ele>
        <time>2011-12-30T05:54:21Z</time>
      </trkpt>
      <trkpt lat="11.52793" lon="42.83624">
        <ele>587.02</ele>
        <time>2011-12-30T05:54:25Z</time>
      </trkpt>
      <trkpt lat="11.52798" lon="42.83609">
        <ele>586.54</ele>
        <time>2011-12-30T05:54:38Z</time>
      </trkpt>
      <trkpt lat="11.52798" lon="42.83606">
        <ele>584.62</ele>
        <time>2011-12-30T05:54:40Z</time>
      </trkpt>
      <trkpt lat="11.52799" lon="42.83603">
        <ele>585.1</ele>
        <time>2011-12-30T05:54:44Z</time>
      </trkpt>
      <trkpt lat="11.52802" lon="42.83593">
        <ele>587.02</ele>
        <time>2011-12-30T05:54:53Z</time>
      </trkpt>
      <trkpt lat="11.52804" lon="42.83588">
        <ele>586.54</ele>
        <time>2011-12-30T05:54:58Z</time>
      </trkpt>
      <trkpt lat="11.52807" lon="42.83582">
        <ele>582.22</ele>
        <time>2011-12-30T05:55:03Z</time>
      </trkpt>
      <trkpt lat="11.52807" lon="42.83582">
        <ele>582.22</ele>
        <time>2011-12-30T05:55:04Z</time>
      </trkpt>
      <trkpt lat="11.52808" lon="42.8358">
        <ele>584.62</ele>
        <time>2011-12-30T05:55:06Z</time>
      </trkpt>
      <trkpt lat="11.5281" lon="42.83578">
        <ele>586.06</ele>
        <time>2011-12-30T05:55:08Z</time>
      </trkpt>
      <trkpt lat="11.52811" lon="42.83576">
        <ele>584.62</ele>
        <time>2011-12-30T05:55:11Z</time>
      </trkpt>
      <trkpt lat="11.52819" lon="42.83574">
        <ele>582.7</ele>
        <time>2011-12-30T05:55:19Z</time>
      </trkpt>
      <trkpt lat="11.52822" lon="42.83575">
        <ele>584.14</ele>
        <time>2011-12-30T05:55:22Z</time>
      </trkpt>
      <trkpt lat="11.52822" lon="42.83575">
        <ele>583.66</ele>
        <time>2011-12-30T05:55:37Z</time>
      </trkpt>
      <trkpt lat="11.52826" lon="42.83578">
        <ele>585.58</ele>
        <time>2011-12-30T05:55:42Z</time>
      </trkpt>
      <trkpt lat="11.5283" lon="42.83579">
        <ele>583.66</ele>
        <time>2011-12-30T05:55:47Z</time>
      </trkpt>
      <trkpt lat="11.52833" lon="42.8358">
        <ele>587.02</ele>
        <time>2011-12-30T05:55:50Z</time>
      </trkpt>
      <trkpt lat="11.52834" lon="42.8358">
        <ele>586.54</ele>
        <time>2011-12-30T05:55:51Z</time>
      </trkpt>
      <trkpt lat="11.52835" lon="42.83579">
        <ele>583.18</ele>
        <time>2011-12-30T05:55:52Z</time>
      </trkpt>
      <trkpt lat="11.52839" lon="42.83575">
        <ele>584.62</ele>
        <time>2011-12-30T05:56:02Z</time>
      </trkpt>
      <trkpt lat="11.52838" lon="42.83574">
        <ele>584.14</ele>
        <time>2011-12-30T05:56:12Z</time>
      </trkpt>
      <trkpt lat="11.52837" lon="42.83574">
        <ele>582.7</ele>
        <time>2011-12-30T05:56:14Z</time>
      </trkpt>
      <trkpt lat="11.52835" lon="42.83574">
        <ele>588.95</ele>
        <time>2011-12-30T05:56:16Z</time>
      </trkpt>
      <trkpt lat="11.52835" lon="42.83575">
        <ele>585.58</ele>
        <time>2011-12-30T05:56:17Z</time>
      </trkpt>
      <trkpt lat="11.52831" lon="42.83576">
        <ele>588.95</ele>
        <time>2011-12-30T05:56:24Z</time>
      </trkpt>
      <trkpt lat="11.52831" lon="42.83576">
        <ele>583.66</ele>
        <time>2011-12-30T05:56:25Z</time>
      </trkpt>
      <trkpt lat="11.5283" lon="42.83575">
        <ele>587.5</ele>
        <time>2011-12-30T05:56:26Z</time>
      </trkpt>
      <trkpt lat="11.5283" lon="42.83575">
        <ele>585.58</ele>
        <time>2011-12-30T05:56:27Z</time>
      </trkpt>
      <trkpt lat="11.52829" lon="42.83574">
        <ele>590.39</ele>
        <time>2011-12-30T05:56:38Z</time>
      </trkpt>
      <trkpt lat="11.52829" lon="42.83575">
        <ele>588.46</ele>
        <time>2011-12-30T05:56:39Z</time>
      </trkpt>
      <trkpt lat="11.52829" lon="42.83575">
        <ele>586.54</ele>
        <time>2011-12-30T05:56:41Z</time>
      </trkpt>
      <trkpt lat="11.52832" lon="42.83576">
        <ele>588.46</ele>
        <time>2011-12-30T05:56:44Z</time>
      </trkpt>
      <trkpt lat="11.52835" lon="42.83575">
        <ele>584.62</ele>
        <time>2011-12-30T05:57:03Z</time>
      </trkpt>
      <trkpt lat="11.52837" lon="42.83574">
        <ele>585.1</ele>
        <time>2011-12-30T05:57:05Z</time>
      </trkpt>
      <trkpt lat="11.52839" lon="42.83573">
        <ele>587.98</ele>
        <time>2011-12-30T05:57:08Z</time>
      </trkpt>
      <trkpt lat="11.5284" lon="42.83574">
        <ele>589.43</ele>
        <time>2011-12-30T05:57:13Z</time>
      </trkpt>
      <trkpt lat="11.5284" lon="42.83574">
        <ele>588.46</ele>
        <time>2011-12-30T05:57:15Z</time>
      </trkpt>
      <trkpt lat="11.52841" lon="42.83573">
        <ele>587.02</ele>
        <time>2011-12-30T05:57:24Z</time>
      </trkpt>
      <trkpt lat="11.52841" lon="42.83573">
        <ele>587.98</ele>
        <time>2011-12-30T05:57:41Z</time>
      </trkpt>
      <trkpt lat="11.5284" lon="42.83573">
        <ele>585.58</ele>
        <time>2011-12-30T05:57:43Z</time>
      </trkpt>
      <trkpt lat="11.52839" lon="42.83573">
        <ele>588.46</ele>
        <time>2011-12-30T05:57:44Z</time>
      </trkpt>
      <trkpt lat="11.52833" lon="42.83575">
        <ele>590.39</ele>
        <time>2011-12-30T05:57:52Z</time>
      </trkpt>
      <trkpt lat="11.52824" lon="42.83578">
        <ele>592.79</ele>
        <time>2011-12-30T05:58:02Z</time>
      </trkpt>
      <trkpt lat="11.52824" lon="42.83579">
        <ele>591.35</ele>
        <time>2011-12-30T05:58:07Z</time>
      </trkpt>
      <trkpt lat="11.52827" lon="42.83578">
        <ele>590.87</ele>
        <time>2011-12-30T05:58:17Z</time>
      </trkpt>
      <trkpt lat="11.52832" lon="42.83576">
        <ele>590.87</ele>
        <time>2011-12-30T05:58:25Z</time>
      </trkpt>
      <trkpt lat="11.52837" lon="42.83577">
        <ele>591.35</ele>
        <time>2011-12-30T05:58:29Z</time>
      </trkpt>
      <trkpt lat="11.52844" lon="42.83574">
        <ele>590.39</ele>
        <time>2011-12-30T05:58:34Z</time>
      </trkpt>
      <trkpt lat="11.52846" lon="42.83572">
        <ele>586.06</ele>
        <time>2011-12-30T05:58:37Z</time>
      </trkpt>
      <trkpt lat="11.52847" lon="42.83572">
        <ele>589.43</ele>
        <time>2011-12-30T05:58:38Z</time>
      </trkpt>
      <trkpt lat="11.52848" lon="42.83572">
        <ele>589.43</ele>
        <time>2011-12-30T05:58:39Z</time>
      </trkpt>
      <trkpt lat="11.52854" lon="42.83562">
        <ele>589.43</ele>
        <time>2011-12-30T05:58:51Z</time>
      </trkpt>
      <trkpt lat="11.52855" lon="42.83561">
        <ele>587.98</ele>
        <time>2011-12-30T05:58:53Z</time>
      </trkpt>
      <trkpt lat="11.5286" lon="42.83559">
        <ele>587.98</ele>
        <time>2011-12-30T05:58:58Z</time>
      </trkpt>
      <trkpt lat="11.52864" lon="42.83557">
        <ele>590.39</ele>
        <time>2011-12-30T05:59:01Z</time>
      </trkpt>
      <trkpt lat="11.52866" lon="42.83557">
        <ele>588.95</ele>
        <time>2011-12-30T05:59:02Z</time>
      </trkpt>
      <trkpt lat="11.52869" lon="42.83556">
        <ele>587.5</ele>
        <time>2011-12-30T05:59:05Z</time>
      </trkpt>
      <trkpt lat="11.52877" lon="42.83553">
        <ele>589.91</ele>
        <time>2011-12-30T05:59:11Z</time>
      </trkpt>
      <trkpt lat="11.52882" lon="42.8355">
        <ele>588.46</ele>
        <time>2011-12-30T05:59:15Z</time>
      </trkpt>
      <trkpt lat="11.52896" lon="42.83548">
        <ele>587.02</ele>
        <time>2011-12-30T05:59:26Z</time>
      </trkpt>
      <trkpt lat="11.52898" lon="42.83547">
        <ele>585.1</ele>
        <time>2011-12-30T05:59:28Z</time>
      </trkpt>
      <trkpt lat="11.52904" lon="42.83549">
        <ele>581.25</ele>
        <time>2011-12-30T05:59:33Z</time>
      </trkpt>
      <trkpt lat="11.52905" lon="42.83549">
        <ele>585.58</ele>
        <time>2011-12-30T05:59:34Z</time>
      </trkpt>
      <trkpt lat="11.52906" lon="42.83549">
        <ele>586.06</ele>
        <time>2011-12-30T05:59:35Z</time>
      </trkpt>
      <trkpt lat="11.5291" lon="42.83548">
        <ele>587.98</ele>
        <time>2011-12-30T05:59:38Z</time>
      </trkpt>
      <trkpt lat="11.52911" lon="42.83548">
        <ele>583.18</ele>
        <time>2011-12-30T05:59:39Z</time>
      </trkpt>
      <trkpt lat="11.52912" lon="42.83548">
        <ele>585.1</ele>
        <time>2011-12-30T05:59:40Z</time>
      </trkpt>
      <trkpt lat="11.5292" lon="42.83548">
        <ele>581.25</ele>
        <time>2011-12-30T05:59:46Z</time>
      </trkpt>
      <trkpt lat="11.52923" lon="42.83547">
        <ele>587.5</ele>
        <time>2011-12-30T05:59:49Z</time>
      </trkpt>
      <trkpt lat="11.52931" lon="42.83544">
        <ele>585.1</ele>
        <time>2011-12-30T05:59:56Z</time>
      </trkpt>
      <trkpt lat="11.52932" lon="42.83543">
        <ele>588.46</ele>
        <time>2011-12-30T05:59:58Z</time>
      </trkpt>
      <trkpt lat="11.52933" lon="42.83543">
        <ele>589.91</ele>
        <time>2011-12-30T06:00:00Z</time>
      </trkpt>
      <trkpt lat="11.52934" lon="42.83541">
        <ele>589.91</ele>
        <time>2011-12-30T06:00:05Z</time>
      </trkpt>
      <trkpt lat="11.52937" lon="42.8354">
        <ele>587.02</ele>
        <time>2011-12-30T06:00:08Z</time>
      </trkpt>
      <trkpt lat="11.52938" lon="42.83539">
        <ele>591.35</ele>
        <time>2011-12-30T06:00:10Z</time>
      </trkpt>
      <trkpt lat="11.52938" lon="42.83539">
        <ele>591.83</ele>
        <time>2011-12-30T06:00:11Z</time>
      </trkpt>
      <trkpt lat="11.52938" lon="42.83539">
        <ele>590.87</ele>
        <time>2011-12-30T06:00:32Z</time>
      </trkpt>
      <trkpt lat="11.5294" lon="42.83537">
        <ele>586.54</ele>
        <time>2011-12-30T06:00:34Z</time>
      </trkpt>
      <trkpt lat="11.52941" lon="42.83537">
        <ele>588.46</ele>
        <time>2011-12-30T06:00:35Z</time>
      </trkpt>
      <trkpt lat="11.52941" lon="42.83536">
        <ele>590.39</ele>
        <time>2011-12-30T06:00:36Z</time>
      </trkpt>
      <trkpt lat="11.52943" lon="42.83532">
        <ele>593.75</ele>
        <time>2011-12-30T06:00:39Z</time>
      </trkpt>
      <trkpt lat="11.52947" lon="42.83529">
        <ele>587.02</ele>
        <time>2011-12-30T06:00:42Z</time>
      </trkpt>
      <trkpt lat="11.52947" lon="42.83528">
        <ele>593.75</ele>
        <time>2011-12-30T06:00:43Z</time>
      </trkpt>
      <trkpt lat="11.52952" lon="42.83525">
        <ele>599.04</ele>
        <time>2011-12-30T06:00:47Z</time>
      </trkpt>
      <trkpt lat="11.52954" lon="42.83524">
        <ele>599.04</ele>
        <time>2011-12-30T06:00:48Z</time>
      </trkpt>
      <trkpt lat="11.52955" lon="42.83523">
        <ele>591.35</ele>
        <time>2011-12-30T06:00:49Z</time>
      </trkpt>
      <trkpt lat="11.52956" lon="42.83522">
        <ele>595.19</ele>
        <time>2011-12-30T06:00:51Z</time>
      </trkpt>
      <trkpt lat="11.52958" lon="42.8352">
        <ele>596.15</ele>
        <time>2011-12-30T06:00:53Z</time>
      </trkpt>
      <trkpt lat="11.5296" lon="42.8352">
        <ele>592.79</ele>
        <time>2011-12-30T06:00:55Z</time>
      </trkpt>
      <trkpt lat="11.52961" lon="42.8352">
        <ele>596.15</ele>
        <time>2011-12-30T06:00:56Z</time>
      </trkpt>
      <trkpt lat="11.52965" lon="42.83519">
        <ele>598.08</ele>
        <time>2011-12-30T06:00:58Z</time>
      </trkpt>
      <trkpt lat="11.52971" lon="42.83518">
        <ele>596.64</ele>
        <time>2011-12-30T06:01:03Z</time>
      </trkpt>
      <trkpt lat="11.52976" lon="42.83514">
        <ele>599.04</ele>
        <time>2011-12-30T06:01:07Z</time>
      </trkpt>
      <trkpt lat="11.52976" lon="42.83511">
        <ele>596.64</ele>
        <time>2011-12-30T06:01:10Z</time>
      </trkpt>
      <trkpt lat="11.52977" lon="42.8351">
        <ele>595.67</ele>
        <time>2011-12-30T06:01:15Z</time>
      </trkpt>
      <trkpt lat="11.52976" lon="42.8351">
        <ele>600.48</ele>
        <time>2011-12-30T06:01:17Z</time>
      </trkpt>
      <trkpt lat="11.52975" lon="42.83511">
        <ele>598.56</ele>
        <time>2011-12-30T06:01:18Z</time>
      </trkpt>
      <trkpt lat="11.52974" lon="42.83515">
        <ele>597.12</ele>
        <time>2011-12-30T06:01:28Z</time>
      </trkpt>
      <trkpt lat="11.52974" lon="42.83514">
        <ele>600</ele>
        <time>2011-12-30T06:01:49Z</time>
      </trkpt>
      <trkpt lat="11.52974" lon="42.83513">
        <ele>595.67</ele>
        <time>2011-12-30T06:01:50Z</time>
      </trkpt>
      <trkpt lat="11.52974" lon="42.83512">
        <ele>600.96</ele>
        <time>2011-12-30T06:01:55Z</time>
      </trkpt>
      <trkpt lat="11.52974" lon="42.83512">
        <ele>597.12</ele>
        <time>2011-12-30T06:01:58Z</time>
      </trkpt>
      <trkpt lat="11.52974" lon="42.83512">
        <ele>600</ele>
        <time>2011-12-30T06:02:01Z</time>
      </trkpt>
      <trkpt lat="11.52976" lon="42.83511">
        <ele>599.04</ele>
        <time>2011-12-30T06:02:20Z</time>
      </trkpt>
      <trkpt lat="11.52982" lon="42.83507">
        <ele>596.15</ele>
        <time>2011-12-30T06:02:33Z</time>
      </trkpt>
      <trkpt lat="11.52987" lon="42.83505">
        <ele>592.79</ele>
        <time>2011-12-30T06:02:40Z</time>
      </trkpt>
      <trkpt lat="11.52992" lon="42.83504">
        <ele>592.79</ele>
        <time>2011-12-30T06:02:56Z</time>
      </trkpt>
      <trkpt lat="11.52996" lon="42.83504">
        <ele>592.79</ele>
        <time>2011-12-30T06:03:01Z</time>
      </trkpt>
      <trkpt lat="11.53" lon="42.83503">
        <ele>590.39</ele>
        <time>2011-12-30T06:03:05Z</time>
      </trkpt>
      <trkpt lat="11.53004" lon="42.83502">
        <ele>588.95</ele>
        <time>2011-12-30T06:03:15Z</time>
      </trkpt>
      <trkpt lat="11.53006" lon="42.83501">
        <ele>587.98</ele>
        <time>2011-12-30T06:03:17Z</time>
      </trkpt>
      <trkpt lat="11.53009" lon="42.83501">
        <ele>587.5</ele>
        <time>2011-12-30T06:03:26Z</time>
      </trkpt>
      <trkpt lat="11.53009" lon="42.83501">
        <ele>591.83</ele>
        <time>2011-12-30T06:03:31Z</time>
      </trkpt>
      <trkpt lat="11.53009" lon="42.83501">
        <ele>588.95</ele>
        <time>2011-12-30T06:03:32Z</time>
      </trkpt>
      <trkpt lat="11.53009" lon="42.83501">
        <ele>592.79</ele>
        <time>2011-12-30T06:03:35Z</time>
      </trkpt>
      <trkpt lat="11.53009" lon="42.83501">
        <ele>588.46</ele>
        <time>2011-12-30T06:03:36Z</time>
      </trkpt>
      <trkpt lat="11.53014" lon="42.83496">
        <ele>586.54</ele>
        <time>2011-12-30T06:03:47Z</time>
      </trkpt>
      <trkpt lat="11.53016" lon="42.83494">
        <ele>585.1</ele>
        <time>2011-12-30T06:03:50Z</time>
      </trkpt>
      <trkpt lat="11.53025" lon="42.83485">
        <ele>582.22</ele>
        <time>2011-12-30T06:04:05Z</time>
      </trkpt>
      <trkpt lat="11.53026" lon="42.83484">
        <ele>582.7</ele>
        <time>2011-12-30T06:04:10Z</time>
      </trkpt>
      <trkpt lat="11.53033" lon="42.83477">
        <ele>579.33</ele>
        <time>2011-12-30T06:04:21Z</time>
      </trkpt>
      <trkpt lat="11.53045" lon="42.83472">
        <ele>577.41</ele>
        <time>2011-12-30T06:04:35Z</time>
      </trkpt>
      <trkpt lat="11.53047" lon="42.83469">
        <ele>576.93</ele>
        <time>2011-12-30T06:04:39Z</time>
      </trkpt>
      <trkpt lat="11.53049" lon="42.83468">
        <ele>576.45</ele>
        <time>2011-12-30T06:04:41Z</time>
      </trkpt>
      <trkpt lat="11.53052" lon="42.83461">
        <ele>572.6</ele>
        <time>2011-12-30T06:04:50Z</time>
      </trkpt>
      <trkpt lat="11.53054" lon="42.83457">
        <ele>572.6</ele>
        <time>2011-12-30T06:05:04Z</time>
      </trkpt>
      <trkpt lat="11.53058" lon="42.83454">
        <ele>569.24</ele>
        <time>2011-12-30T06:05:15Z</time>
      </trkpt>
      <trkpt lat="11.53062" lon="42.83452">
        <ele>569.24</ele>
        <time>2011-12-30T06:05:20Z</time>
      </trkpt>
      <trkpt lat="11.53064" lon="42.83448">
        <ele>568.76</ele>
        <time>2011-12-30T06:05:27Z</time>
      </trkpt>
      <trkpt lat="11.53067" lon="42.83446">
        <ele>568.28</ele>
        <time>2011-12-30T06:05:34Z</time>
      </trkpt>
      <trkpt lat="11.53068" lon="42.83447">
        <ele>566.83</ele>
        <time>2011-12-30T06:05:36Z</time>
      </trkpt>
      <trkpt lat="11.53073" lon="42.83443">
        <ele>565.39</ele>
        <time>2011-12-30T06:05:46Z</time>
      </trkpt>
      <trkpt lat="11.53077" lon="42.83446">
        <ele>564.91</ele>
        <time>2011-12-30T06:06:10Z</time>
      </trkpt>
      <trkpt lat="11.53077" lon="42.83446">
        <ele>563.95</ele>
        <time>2011-12-30T06:06:23Z</time>
      </trkpt>
      <trkpt lat="11.53079" lon="42.83449">
        <ele>563.95</ele>
        <time>2011-12-30T06:06:27Z</time>
      </trkpt>
      <trkpt lat="11.53081" lon="42.83455">
        <ele>563.47</ele>
        <time>2011-12-30T06:06:32Z</time>
      </trkpt>
      <trkpt lat="11.53085" lon="42.83462">
        <ele>561.07</ele>
        <time>2011-12-30T06:06:39Z</time>
      </trkpt>
      <trkpt lat="11.53086" lon="42.83466">
        <ele>559.62</ele>
        <time>2011-12-30T06:06:55Z</time>
      </trkpt>
      <trkpt lat="11.53086" lon="42.83472">
        <ele>559.14</ele>
        <time>2011-12-30T06:07:16Z</time>
      </trkpt>
      <trkpt lat="11.53086" lon="42.83475">
        <ele>557.7</ele>
        <time>2011-12-30T06:07:21Z</time>
      </trkpt>
      <trkpt lat="11.53086" lon="42.83476">
        <ele>557.22</ele>
        <time>2011-12-30T06:07:22Z</time>
      </trkpt>
      <trkpt lat="11.53087" lon="42.83481">
        <ele>554.34</ele>
        <time>2011-12-30T06:07:29Z</time>
      </trkpt>
      <trkpt lat="11.53089" lon="42.83485">
        <ele>555.3</ele>
        <time>2011-12-30T06:07:40Z</time>
      </trkpt>
      <trkpt lat="11.53088" lon="42.83493">
        <ele>553.86</ele>
        <time>2011-12-30T06:07:48Z</time>
      </trkpt>
      <trkpt lat="11.53088" lon="42.835">
        <ele>551.93</ele>
        <time>2011-12-30T06:07:53Z</time>
      </trkpt>
      <trkpt lat="11.53089" lon="42.83506">
        <ele>548.09</ele>
        <time>2011-12-30T06:08:03Z</time>
      </trkpt>
      <trkpt lat="11.53089" lon="42.83507">
        <ele>550.97</ele>
        <time>2011-12-30T06:08:05Z</time>
      </trkpt>
      <trkpt lat="11.53094" lon="42.83511">
        <ele>548.57</ele>
        <time>2011-12-30T06:08:16Z</time>
      </trkpt>
      <trkpt lat="11.531" lon="42.83512">
        <ele>548.09</ele>
        <time>2011-12-30T06:08:27Z</time>
      </trkpt>
      <trkpt lat="11.531" lon="42.83512">
        <ele>548.09</ele>
        <time>2011-12-30T06:08:28Z</time>
      </trkpt>
      <trkpt lat="11.53105" lon="42.83514">
        <ele>546.17</ele>
        <time>2011-12-30T06:08:39Z</time>
      </trkpt>
      <trkpt lat="11.53106" lon="42.83514">
        <ele>547.13</ele>
        <time>2011-12-30T06:08:40Z</time>
      </trkpt>
      <trkpt lat="11.53108" lon="42.83515">
        <ele>547.61</ele>
        <time>2011-12-30T06:09:04Z</time>
      </trkpt>
      <trkpt lat="11.53107" lon="42.83514">
        <ele>543.76</ele>
        <time>2011-12-30T06:09:20Z</time>
      </trkpt>
      <trkpt lat="11.53107" lon="42.83514">
        <ele>549.05</ele>
        <time>2011-12-30T06:09:21Z</time>
      </trkpt>
      <trkpt lat="11.53107" lon="42.83514">
        <ele>549.05</ele>
        <time>2011-12-30T06:09:22Z</time>
      </trkpt>
      <trkpt lat="11.53107" lon="42.83514">
        <ele>549.53</ele>
        <time>2011-12-30T06:09:27Z</time>
      </trkpt>
      <trkpt lat="11.53107" lon="42.83514">
        <ele>546.17</ele>
        <time>2011-12-30T06:09:34Z</time>
      </trkpt>
      <trkpt lat="11.53107" lon="42.83514">
        <ele>550.01</ele>
        <time>2011-12-30T06:09:35Z</time>
      </trkpt>
      <trkpt lat="11.53107" lon="42.83514">
        <ele>550.01</ele>
        <time>2011-12-30T06:09:36Z</time>
      </trkpt>
      <trkpt lat="11.53107" lon="42.83514">
        <ele>543.28</ele>
        <time>2011-12-30T06:09:54Z</time>
      </trkpt>
      <trkpt lat="11.53106" lon="42.83513">
        <ele>550.97</ele>
        <time>2011-12-30T06:09:55Z</time>
      </trkpt>
      <trkpt lat="11.53106" lon="42.83513">
        <ele>547.13</ele>
        <time>2011-12-30T06:10:06Z</time>
      </trkpt>
      <trkpt lat="11.53106" lon="42.83513">
        <ele>551.45</ele>
        <time>2011-12-30T06:10:07Z</time>
      </trkpt>
      <trkpt lat="11.53105" lon="42.83512">
        <ele>547.13</ele>
        <time>2011-12-30T06:10:14Z</time>
      </trkpt>
      <trkpt lat="11.53105" lon="42.83512">
        <ele>551.93</ele>
        <time>2011-12-30T06:10:15Z</time>
      </trkpt>
      <trkpt lat="11.53103" lon="42.83512">
        <ele>554.82</ele>
        <time>2011-12-30T06:10:18Z</time>
      </trkpt>
      <trkpt lat="11.531" lon="42.83511">
        <ele>551.93</ele>
        <time>2011-12-30T06:10:21Z</time>
      </trkpt>
      <trkpt lat="11.531" lon="42.8351">
        <ele>553.38</ele>
        <time>2011-12-30T06:10:22Z</time>
      </trkpt>
      <trkpt lat="11.53097" lon="42.83508">
        <ele>554.82</ele>
        <time>2011-12-30T06:10:25Z</time>
      </trkpt>
      <trkpt lat="11.53096" lon="42.83507">
        <ele>554.82</ele>
        <time>2011-12-30T06:10:26Z</time>
      </trkpt>
      <trkpt lat="11.53094" lon="42.83507">
        <ele>552.9</ele>
        <time>2011-12-30T06:10:28Z</time>
      </trkpt>
      <trkpt lat="11.53092" lon="42.83506">
        <ele>547.13</ele>
        <time>2011-12-30T06:10:30Z</time>
      </trkpt>
      <trkpt lat="11.53091" lon="42.83506">
        <ele>557.22</ele>
        <time>2011-12-30T06:10:31Z</time>
      </trkpt>
      <trkpt lat="11.5309" lon="42.83505">
        <ele>550.97</ele>
        <time>2011-12-30T06:10:33Z</time>
      </trkpt>
      <trkpt lat="11.5309" lon="42.83504">
        <ele>556.26</ele>
        <time>2011-12-30T06:10:34Z</time>
      </trkpt>
      <trkpt lat="11.5309" lon="42.83503">
        <ele>546.65</ele>
        <time>2011-12-30T06:10:35Z</time>
      </trkpt>
      <trkpt lat="11.53089" lon="42.83502">
        <ele>551.93</ele>
        <time>2011-12-30T06:10:36Z</time>
      </trkpt>
      <trkpt lat="11.53089" lon="42.835">
        <ele>557.7</ele>
        <time>2011-12-30T06:10:38Z</time>
      </trkpt>
      <trkpt lat="11.53088" lon="42.83498">
        <ele>557.22</ele>
        <time>2011-12-30T06:10:39Z</time>
      </trkpt>
      <trkpt lat="11.53089" lon="42.83496">
        <ele>558.18</ele>
        <time>2011-12-30T06:10:40Z</time>
      </trkpt>
      <trkpt lat="11.53088" lon="42.83491">
        <ele>558.66</ele>
        <time>2011-12-30T06:10:44Z</time>
      </trkpt>
      <trkpt lat="11.53088" lon="42.8349">
        <ele>555.3</ele>
        <time>2011-12-30T06:10:45Z</time>
      </trkpt>
      <trkpt lat="11.53087" lon="42.83487">
        <ele>557.7</ele>
        <time>2011-12-30T06:10:47Z</time>
      </trkpt>
      <trkpt lat="11.53085" lon="42.83485">
        <ele>561.07</ele>
        <time>2011-12-30T06:10:50Z</time>
      </trkpt>
      <trkpt lat="11.53085" lon="42.83484">
        <ele>566.83</ele>
        <time>2011-12-30T06:10:51Z</time>
      </trkpt>
      <trkpt lat="11.53085" lon="42.83483">
        <ele>564.43</ele>
        <time>2011-12-30T06:10:52Z</time>
      </trkpt>
      <trkpt lat="11.53085" lon="42.8348">
        <ele>562.51</ele>
        <time>2011-12-30T06:10:54Z</time>
      </trkpt>
      <trkpt lat="11.53084" lon="42.83475">
        <ele>564.91</ele>
        <time>2011-12-30T06:10:57Z</time>
      </trkpt>
      <trkpt lat="11.53085" lon="42.8347">
        <ele>565.87</ele>
        <time>2011-12-30T06:10:59Z</time>
      </trkpt>
      <trkpt lat="11.53084" lon="42.83463">
        <ele>569.24</ele>
        <time>2011-12-30T06:11:03Z</time>
      </trkpt>
      <trkpt lat="11.53084" lon="42.83461">
        <ele>569.24</ele>
        <time>2011-12-30T06:11:05Z</time>
      </trkpt>
      <trkpt lat="11.53082" lon="42.83459">
        <ele>566.83</ele>
        <time>2011-12-30T06:11:07Z</time>
      </trkpt>
      <trkpt lat="11.53082" lon="42.83454">
        <ele>570.2</ele>
        <time>2011-12-30T06:11:12Z</time>
      </trkpt>
      <trkpt lat="11.53081" lon="42.83451">
        <ele>573.08</ele>
        <time>2011-12-30T06:11:15Z</time>
      </trkpt>
      <trkpt lat="11.53082" lon="42.83449">
        <ele>574.04</ele>
        <time>2011-12-30T06:11:17Z</time>
      </trkpt>
      <trkpt lat="11.53082" lon="42.83448">
        <ele>572.6</ele>
        <time>2011-12-30T06:11:24Z</time>
      </trkpt>
      <trkpt lat="11.53081" lon="42.83446">
        <ele>575.01</ele>
        <time>2011-12-30T06:11:26Z</time>
      </trkpt>
      <trkpt lat="11.53081" lon="42.83444">
        <ele>573.56</ele>
        <time>2011-12-30T06:11:33Z</time>
      </trkpt>
      <trkpt lat="11.53081" lon="42.83442">
        <ele>580.29</ele>
        <time>2011-12-30T06:11:35Z</time>
      </trkpt>
      <trkpt lat="11.53081" lon="42.83441">
        <ele>571.64</ele>
        <time>2011-12-30T06:11:36Z</time>
      </trkpt>
      <trkpt lat="11.53081" lon="42.83441">
        <ele>576.45</ele>
        <time>2011-12-30T06:11:37Z</time>
      </trkpt>
      <trkpt lat="11.53081" lon="42.83441">
        <ele>575.01</ele>
        <time>2011-12-30T06:11:40Z</time>
      </trkpt>
      <trkpt lat="11.5308" lon="42.83441">
        <ele>575.49</ele>
        <time>2011-12-30T06:12:11Z</time>
      </trkpt>
      <trkpt lat="11.53081" lon="42.8344">
        <ele>576.93</ele>
        <time>2011-12-30T06:13:01Z</time>
      </trkpt>
      <trkpt lat="11.53081" lon="42.83441">
        <ele>576.93</ele>
        <time>2011-12-30T06:13:03Z</time>
      </trkpt>
      <trkpt lat="11.53083" lon="42.83443">
        <ele>575.01</ele>
        <time>2011-12-30T06:13:14Z</time>
      </trkpt>
      <trkpt lat="11.53082" lon="42.83446">
        <ele>576.45</ele>
        <time>2011-12-30T06:13:54Z</time>
      </trkpt>
      <trkpt lat="11.53081" lon="42.83451">
        <ele>575.49</ele>
        <time>2011-12-30T06:14:05Z</time>
      </trkpt>
      <trkpt lat="11.53083" lon="42.83457">
        <ele>572.12</ele>
        <time>2011-12-30T06:14:14Z</time>
      </trkpt>
      <trkpt lat="11.53083" lon="42.8346">
        <ele>572.6</ele>
        <time>2011-12-30T06:14:18Z</time>
      </trkpt>
      <trkpt lat="11.53083" lon="42.83465">
        <ele>571.16</ele>
        <time>2011-12-30T06:14:23Z</time>
      </trkpt>
      <trkpt lat="11.53083" lon="42.83468">
        <ele>572.12</ele>
        <time>2011-12-30T06:14:28Z</time>
      </trkpt>
      <trkpt lat="11.53082" lon="42.83473">
        <ele>569.24</ele>
        <time>2011-12-30T06:14:35Z</time>
      </trkpt>
      <trkpt lat="11.53082" lon="42.83476">
        <ele>565.39</ele>
        <time>2011-12-30T06:14:42Z</time>
      </trkpt>
      <trkpt lat="11.53083" lon="42.83477">
        <ele>568.76</ele>
        <time>2011-12-30T06:14:45Z</time>
      </trkpt>
      <trkpt lat="11.53084" lon="42.83482">
        <ele>565.39</ele>
        <time>2011-12-30T06:14:54Z</time>
      </trkpt>
      <trkpt lat="11.53084" lon="42.83484">
        <ele>565.87</ele>
        <time>2011-12-30T06:14:56Z</time>
      </trkpt>
      <trkpt lat="11.53083" lon="42.8349">
        <ele>562.99</ele>
        <time>2011-12-30T06:15:02Z</time>
      </trkpt>
      <trkpt lat="11.53084" lon="42.83499">
        <ele>562.03</ele>
        <time>2011-12-30T06:15:11Z</time>
      </trkpt>
      <trkpt lat="11.53085" lon="42.83504">
        <ele>562.51</ele>
        <time>2011-12-30T06:15:16Z</time>
      </trkpt>
      <trkpt lat="11.53085" lon="42.83508">
        <ele>559.62</ele>
        <time>2011-12-30T06:15:22Z</time>
      </trkpt>
      <trkpt lat="11.53089" lon="42.83509">
        <ele>562.03</ele>
        <time>2011-12-30T06:15:26Z</time>
      </trkpt>
      <trkpt lat="11.53093" lon="42.83508">
        <ele>559.14</ele>
        <time>2011-12-30T06:15:29Z</time>
      </trkpt>
      <trkpt lat="11.53096" lon="42.83507">
        <ele>558.18</ele>
        <time>2011-12-30T06:15:31Z</time>
      </trkpt>
      <trkpt lat="11.53099" lon="42.83507">
        <ele>558.66</ele>
        <time>2011-12-30T06:15:34Z</time>
      </trkpt>
      <trkpt lat="11.53101" lon="42.83509">
        <ele>559.62</ele>
        <time>2011-12-30T06:15:36Z</time>
      </trkpt>
      <trkpt lat="11.53106" lon="42.83509">
        <ele>556.74</ele>
        <time>2011-12-30T06:15:43Z</time>
      </trkpt>
      <trkpt lat="11.53107" lon="42.8351">
        <ele>558.66</ele>
        <time>2011-12-30T06:15:45Z</time>
      </trkpt>
      <trkpt lat="11.53109" lon="42.83511">
        <ele>557.22</ele>
        <time>2011-12-30T06:16:05Z</time>
      </trkpt>
      <trkpt lat="11.53109" lon="42.83511">
        <ele>558.66</ele>
        <time>2011-12-30T06:16:23Z</time>
      </trkpt>
      <trkpt lat="11.53108" lon="42.83512">
        <ele>562.03</ele>
        <time>2011-12-30T06:16:25Z</time>
      </trkpt>
      <trkpt lat="11.53108" lon="42.83512">
        <ele>558.66</ele>
        <time>2011-12-30T06:16:26Z</time>
      </trkpt>
      <trkpt lat="11.53108" lon="42.83512">
        <ele>558.18</ele>
        <time>2011-12-30T06:16:28Z</time>
      </trkpt>
      <trkpt lat="11.53111" lon="42.83513">
        <ele>558.66</ele>
        <time>2011-12-30T06:17:13Z</time>
      </trkpt>
      <trkpt lat="11.53114" lon="42.83516">
        <ele>557.7</ele>
        <time>2011-12-30T06:17:19Z</time>
      </trkpt>
      <trkpt lat="11.53116" lon="42.83518">
        <ele>557.7</ele>
        <time>2011-12-30T06:17:22Z</time>
      </trkpt>
      <trkpt lat="11.53117" lon="42.83519">
        <ele>556.74</ele>
        <time>2011-12-30T06:17:24Z</time>
      </trkpt>
      <trkpt lat="11.53121" lon="42.83521">
        <ele>556.74</ele>
        <time>2011-12-30T06:17:30Z</time>
      </trkpt>
      <trkpt lat="11.53125" lon="42.83522">
        <ele>555.3</ele>
        <time>2011-12-30T06:17:35Z</time>
      </trkpt>
      <trkpt lat="11.53127" lon="42.83525">
        <ele>556.26</ele>
        <time>2011-12-30T06:17:38Z</time>
      </trkpt>
      <trkpt lat="11.5313" lon="42.83526">
        <ele>554.82</ele>
        <time>2011-12-30T06:17:44Z</time>
      </trkpt>
      <trkpt lat="11.53135" lon="42.83531">
        <ele>552.9</ele>
        <time>2011-12-30T06:17:50Z</time>
      </trkpt>
      <trkpt lat="11.53136" lon="42.83533">
        <ele>553.38</ele>
        <time>2011-12-30T06:18:04Z</time>
      </trkpt>
      <trkpt lat="11.53147" lon="42.83542">
        <ele>551.93</ele>
        <time>2011-12-30T06:18:17Z</time>
      </trkpt>
      <trkpt lat="11.53151" lon="42.83545">
        <ele>548.09</ele>
        <time>2011-12-30T06:18:22Z</time>
      </trkpt>
      <trkpt lat="11.53156" lon="42.8355">
        <ele>547.61</ele>
        <time>2011-12-30T06:18:30Z</time>
      </trkpt>
      <trkpt lat="11.53165" lon="42.83555">
        <ele>545.69</ele>
        <time>2011-12-30T06:18:42Z</time>
      </trkpt>
      <trkpt lat="11.53163" lon="42.83556">
        <ele>546.65</ele>
        <time>2011-12-30T06:18:50Z</time>
      </trkpt>
      <trkpt lat="11.53164" lon="42.83557">
        <ele>545.2</ele>
        <time>2011-12-30T06:18:53Z</time>
      </trkpt>
      <trkpt lat="11.53165" lon="42.83561">
        <ele>543.76</ele>
        <time>2011-12-30T06:19:03Z</time>
      </trkpt>
      <trkpt lat="11.53166" lon="42.83567">
        <ele>539.92</ele>
        <time>2011-12-30T06:19:13Z</time>
      </trkpt>
      <trkpt lat="11.5317" lon="42.83569">
        <ele>539.44</ele>
        <time>2011-12-30T06:19:26Z</time>
      </trkpt>
      <trkpt lat="11.53174" lon="42.83573">
        <ele>536.07</ele>
        <time>2011-12-30T06:19:41Z</time>
      </trkpt>
      <trkpt lat="11.53174" lon="42.83573">
        <ele>537.03</ele>
        <time>2011-12-30T06:19:42Z</time>
      </trkpt>
      <trkpt lat="11.53176" lon="42.83576">
        <ele>536.07</ele>
        <time>2011-12-30T06:19:54Z</time>
      </trkpt>
      <trkpt lat="11.53182" lon="42.83573">
        <ele>533.19</ele>
        <time>2011-12-30T06:20:10Z</time>
      </trkpt>
      <trkpt lat="11.53187" lon="42.83575">
        <ele>533.19</ele>
        <time>2011-12-30T06:20:18Z</time>
      </trkpt>
      <trkpt lat="11.53188" lon="42.83575">
        <ele>531.75</ele>
        <time>2011-12-30T06:20:20Z</time>
      </trkpt>
      <trkpt lat="11.53191" lon="42.83574">
        <ele>531.27</ele>
        <time>2011-12-30T06:20:23Z</time>
      </trkpt>
      <trkpt lat="11.53197" lon="42.83572">
        <ele>529.34</ele>
        <time>2011-12-30T06:20:32Z</time>
      </trkpt>
      <trkpt lat="11.53202" lon="42.83571">
        <ele>528.86</ele>
        <time>2011-12-30T06:20:41Z</time>
      </trkpt>
      <trkpt lat="11.53208" lon="42.83571">
        <ele>525.5</ele>
        <time>2011-12-30T06:20:52Z</time>
      </trkpt>
      <trkpt lat="11.53211" lon="42.83572">
        <ele>524.54</ele>
        <time>2011-12-30T06:20:56Z</time>
      </trkpt>
      <trkpt lat="11.53216" lon="42.83572">
        <ele>521.65</ele>
        <time>2011-12-30T06:21:03Z</time>
      </trkpt>
      <trkpt lat="11.53225" lon="42.83572">
        <ele>523.09</ele>
        <time>2011-12-30T06:21:11Z</time>
      </trkpt>
      <trkpt lat="11.53228" lon="42.83572">
        <ele>519.73</ele>
        <time>2011-12-30T06:21:14Z</time>
      </trkpt>
      <trkpt lat="11.53231" lon="42.83572">
        <ele>522.61</ele>
        <time>2011-12-30T06:21:17Z</time>
      </trkpt>
      <trkpt lat="11.53237" lon="42.83572">
        <ele>522.13</ele>
        <time>2011-12-30T06:21:27Z</time>
      </trkpt>
      <trkpt lat="11.53239" lon="42.83575">
        <ele>520.21</ele>
        <time>2011-12-30T06:21:46Z</time>
      </trkpt>
      <trkpt lat="11.53243" lon="42.83576">
        <ele>518.29</ele>
        <time>2011-12-30T06:22:01Z</time>
      </trkpt>
      <trkpt lat="11.53244" lon="42.83576">
        <ele>517.33</ele>
        <time>2011-12-30T06:22:06Z</time>
      </trkpt>
      <trkpt lat="11.53243" lon="42.83577">
        <ele>520.69</ele>
        <time>2011-12-30T06:22:07Z</time>
      </trkpt>
      <trkpt lat="11.53243" lon="42.83577">
        <ele>521.65</ele>
        <time>2011-12-30T06:22:08Z</time>
      </trkpt>
      <trkpt lat="11.53243" lon="42.83579">
        <ele>517.81</ele>
        <time>2011-12-30T06:22:10Z</time>
      </trkpt>
      <trkpt lat="11.53242" lon="42.83582">
        <ele>515.88</ele>
        <time>2011-12-30T06:22:14Z</time>
      </trkpt>
      <trkpt lat="11.53245" lon="42.83581">
        <ele>514.92</ele>
        <time>2011-12-30T06:22:26Z</time>
      </trkpt>
      <trkpt lat="11.53245" lon="42.83581">
        <ele>515.88</ele>
        <time>2011-12-30T06:23:06Z</time>
      </trkpt>
      <trkpt lat="11.53244" lon="42.83581">
        <ele>517.81</ele>
        <time>2011-12-30T06:23:17Z</time>
      </trkpt>
      <trkpt lat="11.53241" lon="42.83581">
        <ele>512.52</ele>
        <time>2011-12-30T06:23:20Z</time>
      </trkpt>
      <trkpt lat="11.53241" lon="42.83581">
        <ele>518.29</ele>
        <time>2011-12-30T06:23:21Z</time>
      </trkpt>
      <trkpt lat="11.53239" lon="42.83583">
        <ele>518.29</ele>
        <time>2011-12-30T06:23:35Z</time>
      </trkpt>
      <trkpt lat="11.53239" lon="42.83582">
        <ele>521.17</ele>
        <time>2011-12-30T06:24:58Z</time>
      </trkpt>
      <trkpt lat="11.53239" lon="42.83582">
        <ele>518.29</ele>
        <time>2011-12-30T06:25:10Z</time>
      </trkpt>
      <trkpt lat="11.53241" lon="42.83582">
        <ele>517.81</ele>
        <time>2011-12-30T06:25:13Z</time>
      </trkpt>
      <trkpt lat="11.53245" lon="42.83582">
        <ele>516.85</ele>
        <time>2011-12-30T06:25:26Z</time>
      </trkpt>
      <trkpt lat="11.53245" lon="42.83584">
        <ele>515.4</ele>
        <time>2011-12-30T06:25:35Z</time>
      </trkpt>
      <trkpt lat="11.53245" lon="42.83585">
        <ele>514.44</ele>
        <time>2011-12-30T06:25:54Z</time>
      </trkpt>
      <trkpt lat="11.53245" lon="42.83588">
        <ele>512.04</ele>
        <time>2011-12-30T06:26:03Z</time>
      </trkpt>
      <trkpt lat="11.53246" lon="42.83587">
        <ele>512.52</ele>
        <time>2011-12-30T06:26:04Z</time>
      </trkpt>
      <trkpt lat="11.53246" lon="42.83586">
        <ele>514.44</ele>
        <time>2011-12-30T06:26:06Z</time>
      </trkpt>
      <trkpt lat="11.53247" lon="42.83588">
        <ele>511.56</ele>
        <time>2011-12-30T06:26:15Z</time>
      </trkpt>
      <trkpt lat="11.53247" lon="42.83593">
        <ele>510.12</ele>
        <time>2011-12-30T06:26:29Z</time>
      </trkpt>
      <trkpt lat="11.53246" lon="42.83595">
        <ele>508.67</ele>
        <time>2011-12-30T06:26:39Z</time>
      </trkpt>
      <trkpt lat="11.53246" lon="42.83595">
        <ele>507.71</ele>
        <time>2011-12-30T06:26:57Z</time>
      </trkpt>
      <trkpt lat="11.53246" lon="42.83599">
        <ele>506.27</ele>
        <time>2011-12-30T06:27:21Z</time>
      </trkpt>
      <trkpt lat="11.53247" lon="42.83601">
        <ele>506.27</ele>
        <time>2011-12-30T06:27:31Z</time>
      </trkpt>
      <trkpt lat="11.5325" lon="42.83607">
        <ele>504.35</ele>
        <time>2011-12-30T06:27:43Z</time>
      </trkpt>
      <trkpt lat="11.53249" lon="42.8361">
        <ele>503.87</ele>
        <time>2011-12-30T06:27:46Z</time>
      </trkpt>
      <trkpt lat="11.53247" lon="42.83613">
        <ele>503.39</ele>
        <time>2011-12-30T06:27:52Z</time>
      </trkpt>
      <trkpt lat="11.53246" lon="42.83616">
        <ele>501.95</ele>
        <time>2011-12-30T06:27:56Z</time>
      </trkpt>
      <trkpt lat="11.53246" lon="42.83618">
        <ele>500.98</ele>
        <time>2011-12-30T06:27:58Z</time>
      </trkpt>
      <trkpt lat="11.53245" lon="42.83624">
        <ele>500.02</ele>
        <time>2011-12-30T06:28:05Z</time>
      </trkpt>
      <trkpt lat="11.53243" lon="42.83628">
        <ele>499.54</ele>
        <time>2011-12-30T06:28:21Z</time>
      </trkpt>
      <trkpt lat="11.53243" lon="42.83628">
        <ele>496.18</ele>
        <time>2011-12-30T06:28:27Z</time>
      </trkpt>
      <trkpt lat="11.53243" lon="42.83628">
        <ele>500.98</ele>
        <time>2011-12-30T06:28:28Z</time>
      </trkpt>
      <trkpt lat="11.53243" lon="42.83627">
        <ele>500.02</ele>
        <time>2011-12-30T06:28:29Z</time>
      </trkpt>
      <trkpt lat="11.53245" lon="42.83629">
        <ele>498.1</ele>
        <time>2011-12-30T06:28:35Z</time>
      </trkpt>
      <trkpt lat="11.53247" lon="42.8363">
        <ele>497.14</ele>
        <time>2011-12-30T06:28:48Z</time>
      </trkpt>
      <trkpt lat="11.53246" lon="42.8364">
        <ele>495.7</ele>
        <time>2011-12-30T06:29:00Z</time>
      </trkpt>
      <trkpt lat="11.53248" lon="42.83644">
        <ele>494.26</ele>
        <time>2011-12-30T06:29:08Z</time>
      </trkpt>
      <trkpt lat="11.53249" lon="42.83643">
        <ele>492.33</ele>
        <time>2011-12-30T06:29:11Z</time>
      </trkpt>
      <trkpt lat="11.53252" lon="42.83647">
        <ele>490.89</ele>
        <time>2011-12-30T06:29:20Z</time>
      </trkpt>
      <trkpt lat="11.53252" lon="42.83647">
        <ele>490.41</ele>
        <time>2011-12-30T06:29:22Z</time>
      </trkpt>
      <trkpt lat="11.53252" lon="42.83651">
        <ele>486.56</ele>
        <time>2011-12-30T06:29:30Z</time>
      </trkpt>
      <trkpt lat="11.53252" lon="42.83651">
        <ele>489.93</ele>
        <time>2011-12-30T06:29:31Z</time>
      </trkpt>
      <trkpt lat="11.53254" lon="42.83654">
        <ele>488.97</ele>
        <time>2011-12-30T06:29:42Z</time>
      </trkpt>
      <trkpt lat="11.53257" lon="42.83658">
        <ele>487.05</ele>
        <time>2011-12-30T06:29:53Z</time>
      </trkpt>
      <trkpt lat="11.53259" lon="42.83654">
        <ele>484.64</ele>
        <time>2011-12-30T06:30:00Z</time>
      </trkpt>
      <trkpt lat="11.53263" lon="42.83652">
        <ele>481.76</ele>
        <time>2011-12-30T06:30:09Z</time>
      </trkpt>
      <trkpt lat="11.53263" lon="42.83652">
        <ele>485.6</ele>
        <time>2011-12-30T06:30:10Z</time>
      </trkpt>
      <trkpt lat="11.53263" lon="42.83653">
        <ele>485.12</ele>
        <time>2011-12-30T06:30:18Z</time>
      </trkpt>
      <trkpt lat="11.53265" lon="42.83654">
        <ele>479.84</ele>
        <time>2011-12-30T06:30:25Z</time>
      </trkpt>
      <trkpt lat="11.53265" lon="42.83654">
        <ele>483.68</ele>
        <time>2011-12-30T06:30:26Z</time>
      </trkpt>
      <trkpt lat="11.53268" lon="42.83655">
        <ele>482.72</ele>
        <time>2011-12-30T06:30:36Z</time>
      </trkpt>
      <trkpt lat="11.53273" lon="42.83659">
        <ele>478.87</ele>
        <time>2011-12-30T06:30:47Z</time>
      </trkpt>
      <trkpt lat="11.53274" lon="42.8366">
        <ele>479.84</ele>
        <time>2011-12-30T06:30:48Z</time>
      </trkpt>
      <trkpt lat="11.53275" lon="42.83662">
        <ele>479.35</ele>
        <time>2011-12-30T06:31:14Z</time>
      </trkpt>
      <trkpt lat="11.53278" lon="42.83665">
        <ele>477.43</ele>
        <time>2011-12-30T06:31:24Z</time>
      </trkpt>
      <trkpt lat="11.5328" lon="42.83665">
        <ele>475.99</ele>
        <time>2011-12-30T06:31:26Z</time>
      </trkpt>
      <trkpt lat="11.53283" lon="42.83666">
        <ele>475.03</ele>
        <time>2011-12-30T06:31:31Z</time>
      </trkpt>
      <trkpt lat="11.53284" lon="42.83667">
        <ele>476.95</ele>
        <time>2011-12-30T06:31:33Z</time>
      </trkpt>
      <trkpt lat="11.53285" lon="42.83669">
        <ele>474.07</ele>
        <time>2011-12-30T06:31:36Z</time>
      </trkpt>
      <trkpt lat="11.53286" lon="42.83676">
        <ele>470.7</ele>
        <time>2011-12-30T06:31:43Z</time>
      </trkpt>
      <trkpt lat="11.53284" lon="42.83677">
        <ele>477.43</ele>
        <time>2011-12-30T06:31:46Z</time>
      </trkpt>
      <trkpt lat="11.53284" lon="42.83677">
        <ele>475.99</ele>
        <time>2011-12-30T06:31:47Z</time>
      </trkpt>
      <trkpt lat="11.53284" lon="42.83677">
        <ele>472.63</ele>
        <time>2011-12-30T06:31:50Z</time>
      </trkpt>
      <trkpt lat="11.53286" lon="42.83677">
        <ele>472.14</ele>
        <time>2011-12-30T06:31:56Z</time>
      </trkpt>
      <trkpt lat="11.53291" lon="42.83679">
        <ele>470.22</ele>
        <time>2011-12-30T06:32:03Z</time>
      </trkpt>
      <trkpt lat="11.53293" lon="42.83679">
        <ele>469.74</ele>
        <time>2011-12-30T06:32:06Z</time>
      </trkpt>
      <trkpt lat="11.53295" lon="42.83678">
        <ele>469.74</ele>
        <time>2011-12-30T06:32:08Z</time>
      </trkpt>
      <trkpt lat="11.53297" lon="42.83679">
        <ele>464.93</ele>
        <time>2011-12-30T06:32:10Z</time>
      </trkpt>
      <trkpt lat="11.53297" lon="42.83679">
        <ele>469.26</ele>
        <time>2011-12-30T06:32:11Z</time>
      </trkpt>
      <trkpt lat="11.533" lon="42.83685">
        <ele>468.3</ele>
        <time>2011-12-30T06:32:17Z</time>
      </trkpt>
      <trkpt lat="11.53301" lon="42.83689">
        <ele>467.34</ele>
        <time>2011-12-30T06:32:22Z</time>
      </trkpt>
      <trkpt lat="11.53299" lon="42.83692">
        <ele>464.93</ele>
        <time>2011-12-30T06:32:26Z</time>
      </trkpt>
      <trkpt lat="11.53296" lon="42.83694">
        <ele>464.93</ele>
        <time>2011-12-30T06:32:34Z</time>
      </trkpt>
      <trkpt lat="11.53295" lon="42.83695">
        <ele>463.97</ele>
        <time>2011-12-30T06:32:36Z</time>
      </trkpt>
      <trkpt lat="11.53295" lon="42.83696">
        <ele>463.49</ele>
        <time>2011-12-30T06:32:38Z</time>
      </trkpt>
      <trkpt lat="11.53294" lon="42.83698">
        <ele>462.53</ele>
        <time>2011-12-30T06:32:40Z</time>
      </trkpt>
      <trkpt lat="11.5329" lon="42.83705">
        <ele>461.57</ele>
        <time>2011-12-30T06:32:47Z</time>
      </trkpt>
      <trkpt lat="11.53288" lon="42.83709">
        <ele>460.61</ele>
        <time>2011-12-30T06:32:51Z</time>
      </trkpt>
      <trkpt lat="11.53286" lon="42.83713">
        <ele>458.69</ele>
        <time>2011-12-30T06:32:56Z</time>
      </trkpt>
      <trkpt lat="11.53288" lon="42.83716">
        <ele>458.69</ele>
        <time>2011-12-30T06:33:00Z</time>
      </trkpt>
      <trkpt lat="11.53293" lon="42.8372">
        <ele>457.24</ele>
        <time>2011-12-30T06:33:06Z</time>
      </trkpt>
      <trkpt lat="11.53293" lon="42.8372">
        <ele>458.21</ele>
        <time>2011-12-30T06:33:07Z</time>
      </trkpt>
      <trkpt lat="11.53293" lon="42.83723">
        <ele>456.28</ele>
        <time>2011-12-30T06:33:12Z</time>
      </trkpt>
      <trkpt lat="11.53293" lon="42.83725">
        <ele>455.32</ele>
        <time>2011-12-30T06:33:15Z</time>
      </trkpt>
      <trkpt lat="11.53293" lon="42.83727">
        <ele>454.84</ele>
        <time>2011-12-30T06:33:17Z</time>
      </trkpt>
      <trkpt lat="11.5329" lon="42.83731">
        <ele>453.4</ele>
        <time>2011-12-30T06:33:22Z</time>
      </trkpt>
      <trkpt lat="11.53287" lon="42.83736">
        <ele>452.44</ele>
        <time>2011-12-30T06:33:33Z</time>
      </trkpt>
      <trkpt lat="11.53288" lon="42.83739">
        <ele>452.44</ele>
        <time>2011-12-30T06:33:39Z</time>
      </trkpt>
      <trkpt lat="11.5329" lon="42.83742">
        <ele>448.11</ele>
        <time>2011-12-30T06:33:46Z</time>
      </trkpt>
      <trkpt lat="11.53291" lon="42.83747">
        <ele>449.07</ele>
        <time>2011-12-30T06:33:51Z</time>
      </trkpt>
      <trkpt lat="11.53295" lon="42.83755">
        <ele>451.48</ele>
        <time>2011-12-30T06:33:59Z</time>
      </trkpt>
      <trkpt lat="11.53301" lon="42.83757">
        <ele>448.59</ele>
        <time>2011-12-30T06:34:08Z</time>
      </trkpt>
      <trkpt lat="11.53305" lon="42.83757">
        <ele>448.59</ele>
        <time>2011-12-30T06:34:12Z</time>
      </trkpt>
      <trkpt lat="11.53309" lon="42.83759">
        <ele>452.44</ele>
        <time>2011-12-30T06:34:16Z</time>
      </trkpt>
      <trkpt lat="11.53313" lon="42.83759">
        <ele>450.03</ele>
        <time>2011-12-30T06:34:23Z</time>
      </trkpt>
      <trkpt lat="11.53314" lon="42.83759">
        <ele>452.44</ele>
        <time>2011-12-30T06:34:25Z</time>
      </trkpt>
      <trkpt lat="11.53315" lon="42.8376">
        <ele>451.48</ele>
        <time>2011-12-30T06:34:26Z</time>
      </trkpt>
      <trkpt lat="11.53317" lon="42.8376">
        <ele>450.03</ele>
        <time>2011-12-30T06:34:28Z</time>
      </trkpt>
      <trkpt lat="11.53319" lon="42.83761">
        <ele>453.88</ele>
        <time>2011-12-30T06:34:31Z</time>
      </trkpt>
      <trkpt lat="11.5332" lon="42.83761">
        <ele>447.15</ele>
        <time>2011-12-30T06:34:32Z</time>
      </trkpt>
      <trkpt lat="11.5332" lon="42.8376">
        <ele>451</ele>
        <time>2011-12-30T06:34:33Z</time>
      </trkpt>
      <trkpt lat="11.53321" lon="42.83761">
        <ele>451</ele>
        <time>2011-12-30T06:34:57Z</time>
      </trkpt>
      <trkpt lat="11.53321" lon="42.8376">
        <ele>460.61</ele>
        <time>2011-12-30T06:34:59Z</time>
      </trkpt>
      <trkpt lat="11.53321" lon="42.8376">
        <ele>452.44</ele>
        <time>2011-12-30T06:35:00Z</time>
      </trkpt>
      <trkpt lat="11.53321" lon="42.8376">
        <ele>449.55</ele>
        <time>2011-12-30T06:35:01Z</time>
      </trkpt>
      <trkpt lat="11.53321" lon="42.8376">
        <ele>451.96</ele>
        <time>2011-12-30T06:35:02Z</time>
      </trkpt>
      <trkpt lat="11.53321" lon="42.8376">
        <ele>450.52</ele>
        <time>2011-12-30T06:35:25Z</time>
      </trkpt>
      <trkpt lat="11.53321" lon="42.83761">
        <ele>451.96</ele>
        <time>2011-12-30T06:36:09Z</time>
      </trkpt>
      <trkpt lat="11.5332" lon="42.83761">
        <ele>451.96</ele>
        <time>2011-12-30T06:37:04Z</time>
      </trkpt>
      <trkpt lat="11.53318" lon="42.83763">
        <ele>450.03</ele>
        <time>2011-12-30T06:37:07Z</time>
      </trkpt>
      <trkpt lat="11.53315" lon="42.83764">
        <ele>449.55</ele>
        <time>2011-12-30T06:37:22Z</time>
      </trkpt>
      <trkpt lat="11.53315" lon="42.83763">
        <ele>451</ele>
        <time>2011-12-30T06:37:56Z</time>
      </trkpt>
      <trkpt lat="11.53315" lon="42.83763">
        <ele>454.84</ele>
        <time>2011-12-30T06:38:56Z</time>
      </trkpt>
      <trkpt lat="11.53316" lon="42.83763">
        <ele>449.07</ele>
        <time>2011-12-30T06:38:57Z</time>
      </trkpt>
      <trkpt lat="11.5332" lon="42.83761">
        <ele>453.4</ele>
        <time>2011-12-30T06:39:07Z</time>
      </trkpt>
      <trkpt lat="11.53321" lon="42.8376">
        <ele>453.4</ele>
        <time>2011-12-30T06:39:37Z</time>
      </trkpt>
      <trkpt lat="11.5332" lon="42.8376">
        <ele>453.88</ele>
        <time>2011-12-30T06:39:49Z</time>
      </trkpt>
      <trkpt lat="11.53321" lon="42.8376">
        <ele>453.88</ele>
        <time>2011-12-30T06:40:08Z</time>
      </trkpt>
      <trkpt lat="11.53321" lon="42.8376">
        <ele>453.88</ele>
        <time>2011-12-30T06:40:33Z</time>
      </trkpt>
      <trkpt lat="11.5332" lon="42.8376">
        <ele>454.36</ele>
        <time>2011-12-30T06:40:56Z</time>
      </trkpt>
      <trkpt lat="11.5332" lon="42.8376">
        <ele>453.88</ele>
        <time>2011-12-30T06:41:33Z</time>
      </trkpt>
      <trkpt lat="11.5332" lon="42.83761">
        <ele>454.84</ele>
        <time>2011-12-30T06:42:08Z</time>
      </trkpt>
      <trkpt lat="11.5332" lon="42.83762">
        <ele>453.88</ele>
        <time>2011-12-30T06:42:24Z</time>
      </trkpt>
      <trkpt lat="11.53319" lon="42.83763">
        <ele>452.92</ele>
        <time>2011-12-30T06:43:04Z</time>
      </trkpt>
      <trkpt lat="11.53314" lon="42.83765">
        <ele>452.92</ele>
        <time>2011-12-30T06:43:16Z</time>
      </trkpt>
      <trkpt lat="11.53312" lon="42.83767">
        <ele>451</ele>
        <time>2011-12-30T06:43:27Z</time>
      </trkpt>
      <trkpt lat="11.5331" lon="42.83769">
        <ele>449.55</ele>
        <time>2011-12-30T06:43:32Z</time>
      </trkpt>
      <trkpt lat="11.53307" lon="42.83774">
        <ele>447.15</ele>
        <time>2011-12-30T06:43:43Z</time>
      </trkpt>
      <trkpt lat="11.53307" lon="42.83774">
        <ele>447.15</ele>
        <time>2011-12-30T06:43:44Z</time>
      </trkpt>
      <trkpt lat="11.53308" lon="42.83779">
        <ele>445.23</ele>
        <time>2011-12-30T06:44:06Z</time>
      </trkpt>
      <trkpt lat="11.53309" lon="42.8378">
        <ele>444.75</ele>
        <time>2011-12-30T06:44:21Z</time>
      </trkpt>
      <trkpt lat="11.53312" lon="42.83783">
        <ele>441.38</ele>
        <time>2011-12-30T06:44:35Z</time>
      </trkpt>
      <trkpt lat="11.53315" lon="42.8379">
        <ele>438.5</ele>
        <time>2011-12-30T06:45:02Z</time>
      </trkpt>
      <trkpt lat="11.53313" lon="42.83793">
        <ele>437.54</ele>
        <time>2011-12-30T06:45:13Z</time>
      </trkpt>
      <trkpt lat="11.5331" lon="42.838">
        <ele>435.13</ele>
        <time>2011-12-30T06:45:28Z</time>
      </trkpt>
      <trkpt lat="11.53309" lon="42.83802">
        <ele>434.65</ele>
        <time>2011-12-30T06:45:40Z</time>
      </trkpt>
      <trkpt lat="11.53307" lon="42.83806">
        <ele>433.21</ele>
        <time>2011-12-30T06:45:55Z</time>
      </trkpt>
      <trkpt lat="11.53303" lon="42.83811">
        <ele>431.77</ele>
        <time>2011-12-30T06:46:12Z</time>
      </trkpt>
      <trkpt lat="11.53304" lon="42.83812">
        <ele>430.33</ele>
        <time>2011-12-30T06:46:21Z</time>
      </trkpt>
      <trkpt lat="11.53305" lon="42.83819">
        <ele>427.44</ele>
        <time>2011-12-30T06:46:39Z</time>
      </trkpt>
      <trkpt lat="11.53304" lon="42.83819">
        <ele>428.89</ele>
        <time>2011-12-30T06:46:40Z</time>
      </trkpt>
      <trkpt lat="11.53305" lon="42.83827">
        <ele>428.4</ele>
        <time>2011-12-30T06:46:47Z</time>
      </trkpt>
      <trkpt lat="11.53306" lon="42.83832">
        <ele>427.44</ele>
        <time>2011-12-30T06:46:58Z</time>
      </trkpt>
      <trkpt lat="11.53307" lon="42.83832">
        <ele>426.48</ele>
        <time>2011-12-30T06:47:03Z</time>
      </trkpt>
      <trkpt lat="11.53311" lon="42.83838">
        <ele>426.96</ele>
        <time>2011-12-30T06:47:11Z</time>
      </trkpt>
      <trkpt lat="11.53311" lon="42.83845">
        <ele>425.04</ele>
        <time>2011-12-30T06:47:22Z</time>
      </trkpt>
      <trkpt lat="11.53313" lon="42.83848">
        <ele>423.6</ele>
        <time>2011-12-30T06:47:30Z</time>
      </trkpt>
      <trkpt lat="11.53313" lon="42.83849">
        <ele>425.04</ele>
        <time>2011-12-30T06:47:32Z</time>
      </trkpt>
      <trkpt lat="11.53314" lon="42.83851">
        <ele>422.16</ele>
        <time>2011-12-30T06:47:39Z</time>
      </trkpt>
      <trkpt lat="11.53313" lon="42.83852">
        <ele>425.04</ele>
        <time>2011-12-30T06:47:40Z</time>
      </trkpt>
      <trkpt lat="11.53313" lon="42.83854">
        <ele>426</ele>
        <time>2011-12-30T06:47:42Z</time>
      </trkpt>
      <trkpt lat="11.53313" lon="42.83855">
        <ele>424.08</ele>
        <time>2011-12-30T06:47:43Z</time>
      </trkpt>
      <trkpt lat="11.53314" lon="42.83859">
        <ele>426.96</ele>
        <time>2011-12-30T06:47:46Z</time>
      </trkpt>
      <trkpt lat="11.53314" lon="42.8386">
        <ele>424.56</ele>
        <time>2011-12-30T06:47:47Z</time>
      </trkpt>
      <trkpt lat="11.53315" lon="42.83863">
        <ele>426</ele>
        <time>2011-12-30T06:47:50Z</time>
      </trkpt>
      <trkpt lat="11.53317" lon="42.83872">
        <ele>423.12</ele>
        <time>2011-12-30T06:47:59Z</time>
      </trkpt>
      <trkpt lat="11.53322" lon="42.83872">
        <ele>421.68</ele>
        <time>2011-12-30T06:48:08Z</time>
      </trkpt>
      <trkpt lat="11.53323" lon="42.83872">
        <ele>422.16</ele>
        <time>2011-12-30T06:48:09Z</time>
      </trkpt>
      <trkpt lat="11.53327" lon="42.83867">
        <ele>420.23</ele>
        <time>2011-12-30T06:48:16Z</time>
      </trkpt>
      <trkpt lat="11.53332" lon="42.83862">
        <ele>419.27</ele>
        <time>2011-12-30T06:48:24Z</time>
      </trkpt>
      <trkpt lat="11.53339" lon="42.83859">
        <ele>418.31</ele>
        <time>2011-12-30T06:48:37Z</time>
      </trkpt>
      <trkpt lat="11.5335" lon="42.83855">
        <ele>414.95</ele>
        <time>2011-12-30T06:48:56Z</time>
      </trkpt>
      <trkpt lat="11.53352" lon="42.83854">
        <ele>415.43</ele>
        <time>2011-12-30T06:49:01Z</time>
      </trkpt>
      <trkpt lat="11.53356" lon="42.83853">
        <ele>412.54</ele>
        <time>2011-12-30T06:49:06Z</time>
      </trkpt>
      <trkpt lat="11.5336" lon="42.83853">
        <ele>413.5</ele>
        <time>2011-12-30T06:49:26Z</time>
      </trkpt>
      <trkpt lat="11.53364" lon="42.83851">
        <ele>406.29</ele>
        <time>2011-12-30T06:49:47Z</time>
      </trkpt>
      <trkpt lat="11.53364" lon="42.83851">
        <ele>412.54</ele>
        <time>2011-12-30T06:49:48Z</time>
      </trkpt>
      <trkpt lat="11.53364" lon="42.83851">
        <ele>413.5</ele>
        <time>2011-12-30T06:49:50Z</time>
      </trkpt>
      <trkpt lat="11.53366" lon="42.8385">
        <ele>413.98</ele>
        <time>2011-12-30T06:50:05Z</time>
      </trkpt>
      <trkpt lat="11.53365" lon="42.8385">
        <ele>404.85</ele>
        <time>2011-12-30T06:50:16Z</time>
      </trkpt>
      <trkpt lat="11.53365" lon="42.8385">
        <ele>415.43</ele>
        <time>2011-12-30T06:50:17Z</time>
      </trkpt>
      <trkpt lat="11.53365" lon="42.83849">
        <ele>412.06</ele>
        <time>2011-12-30T06:50:32Z</time>
      </trkpt>
      <trkpt lat="11.53365" lon="42.83849">
        <ele>413.02</ele>
        <time>2011-12-30T06:50:40Z</time>
      </trkpt>
      <trkpt lat="11.53365" lon="42.83849">
        <ele>413.5</ele>
        <time>2011-12-30T06:50:49Z</time>
      </trkpt>
      <trkpt lat="11.53369" lon="42.83845">
        <ele>412.06</ele>
        <time>2011-12-30T06:51:02Z</time>
      </trkpt>
      <trkpt lat="11.5337" lon="42.83842">
        <ele>410.14</ele>
        <time>2011-12-30T06:51:05Z</time>
      </trkpt>
      <trkpt lat="11.53371" lon="42.83841">
        <ele>411.1</ele>
        <time>2011-12-30T06:51:06Z</time>
      </trkpt>
      <trkpt lat="11.53372" lon="42.83839">
        <ele>412.06</ele>
        <time>2011-12-30T06:51:08Z</time>
      </trkpt>
      <trkpt lat="11.53373" lon="42.83838">
        <ele>412.54</ele>
        <time>2011-12-30T06:51:10Z</time>
      </trkpt>
      <trkpt lat="11.5338" lon="42.83832">
        <ele>410.14</ele>
        <time>2011-12-30T06:51:18Z</time>
      </trkpt>
      <trkpt lat="11.53389" lon="42.83829">
        <ele>410.62</ele>
        <time>2011-12-30T06:51:28Z</time>
      </trkpt>
      <trkpt lat="11.53395" lon="42.8383">
        <ele>408.22</ele>
        <time>2011-12-30T06:51:42Z</time>
      </trkpt>
      <trkpt lat="11.53398" lon="42.83827">
        <ele>408.7</ele>
        <time>2011-12-30T06:51:46Z</time>
      </trkpt>
      <trkpt lat="11.534" lon="42.83826">
        <ele>410.14</ele>
        <time>2011-12-30T06:51:48Z</time>
      </trkpt>
      <trkpt lat="11.53404" lon="42.83821">
        <ele>408.22</ele>
        <time>2011-12-30T06:51:58Z</time>
      </trkpt>
      <trkpt lat="11.53406" lon="42.83819">
        <ele>408.22</ele>
        <time>2011-12-30T06:52:03Z</time>
      </trkpt>
      <trkpt lat="11.53409" lon="42.83816">
        <ele>407.26</ele>
        <time>2011-12-30T06:52:09Z</time>
      </trkpt>
      <trkpt lat="11.53418" lon="42.83812">
        <ele>406.29</ele>
        <time>2011-12-30T06:52:25Z</time>
      </trkpt>
      <trkpt lat="11.53424" lon="42.83813">
        <ele>405.33</ele>
        <time>2011-12-30T06:52:29Z</time>
      </trkpt>
      <trkpt lat="11.53426" lon="42.83812">
        <ele>404.37</ele>
        <time>2011-12-30T06:52:31Z</time>
      </trkpt>
      <trkpt lat="11.53432" lon="42.8381">
        <ele>402.93</ele>
        <time>2011-12-30T06:52:41Z</time>
      </trkpt>
      <trkpt lat="11.5344" lon="42.83809">
        <ele>403.89</ele>
        <time>2011-12-30T06:52:52Z</time>
      </trkpt>
      <trkpt lat="11.53449" lon="42.83803">
        <ele>403.41</ele>
        <time>2011-12-30T06:53:05Z</time>
      </trkpt>
      <trkpt lat="11.53458" lon="42.83812">
        <ele>401.97</ele>
        <time>2011-12-30T06:53:26Z</time>
      </trkpt>
      <trkpt lat="11.53461" lon="42.83815">
        <ele>399.08</ele>
        <time>2011-12-30T06:53:36Z</time>
      </trkpt>
      <trkpt lat="11.53462" lon="42.83815">
        <ele>402.45</ele>
        <time>2011-12-30T06:53:37Z</time>
      </trkpt>
      <trkpt lat="11.53463" lon="42.83815">
        <ele>398.6</ele>
        <time>2011-12-30T06:53:38Z</time>
      </trkpt>
      <trkpt lat="11.53464" lon="42.83815">
        <ele>402.93</ele>
        <time>2011-12-30T06:53:39Z</time>
      </trkpt>
      <trkpt lat="11.53465" lon="42.83815">
        <ele>408.22</ele>
        <time>2011-12-30T06:53:40Z</time>
      </trkpt>
      <trkpt lat="11.53465" lon="42.83815">
        <ele>404.37</ele>
        <time>2011-12-30T06:53:41Z</time>
      </trkpt>
      <trkpt lat="11.53467" lon="42.83815">
        <ele>395.24</ele>
        <time>2011-12-30T06:53:50Z</time>
      </trkpt>
      <trkpt lat="11.53468" lon="42.83814">
        <ele>402.93</ele>
        <time>2011-12-30T06:53:51Z</time>
      </trkpt>
      <trkpt lat="11.53472" lon="42.83811">
        <ele>400.05</ele>
        <time>2011-12-30T06:53:57Z</time>
      </trkpt>
      <trkpt lat="11.53473" lon="42.8381">
        <ele>401.49</ele>
        <time>2011-12-30T06:53:58Z</time>
      </trkpt>
      <trkpt lat="11.53475" lon="42.83809">
        <ele>402.45</ele>
        <time>2011-12-30T06:54:01Z</time>
      </trkpt>
      <trkpt lat="11.53487" lon="42.83806">
        <ele>401.01</ele>
        <time>2011-12-30T06:54:14Z</time>
      </trkpt>
      <trkpt lat="11.53488" lon="42.83806">
        <ele>401.01</ele>
        <time>2011-12-30T06:54:37Z</time>
      </trkpt>
      <trkpt lat="11.5349" lon="42.83804">
        <ele>396.2</ele>
        <time>2011-12-30T06:55:14Z</time>
      </trkpt>
      <trkpt lat="11.53491" lon="42.83804">
        <ele>400.53</ele>
        <time>2011-12-30T06:55:15Z</time>
      </trkpt>
      <trkpt lat="11.53493" lon="42.83802">
        <ele>400.05</ele>
        <time>2011-12-30T06:55:25Z</time>
      </trkpt>
      <trkpt lat="11.53492" lon="42.838">
        <ele>399.57</ele>
        <time>2011-12-30T06:55:28Z</time>
      </trkpt>
      <trkpt lat="11.53491" lon="42.83798">
        <ele>398.6</ele>
        <time>2011-12-30T06:55:47Z</time>
      </trkpt>
      <trkpt lat="11.53494" lon="42.83792">
        <ele>394.28</ele>
        <time>2011-12-30T06:55:55Z</time>
      </trkpt>
      <trkpt lat="11.53494" lon="42.83787">
        <ele>392.84</ele>
        <time>2011-12-30T06:56:02Z</time>
      </trkpt>
      <trkpt lat="11.53495" lon="42.83786">
        <ele>398.12</ele>
        <time>2011-12-30T06:56:03Z</time>
      </trkpt>
      <trkpt lat="11.53495" lon="42.83784">
        <ele>397.64</ele>
        <time>2011-12-30T06:56:06Z</time>
      </trkpt>
      <trkpt lat="11.53497" lon="42.83777">
        <ele>399.57</ele>
        <time>2011-12-30T06:56:19Z</time>
      </trkpt>
      <trkpt lat="11.53498" lon="42.83774">
        <ele>395.72</ele>
        <time>2011-12-30T06:56:23Z</time>
      </trkpt>
      <trkpt lat="11.53499" lon="42.83774">
        <ele>395.72</ele>
        <time>2011-12-30T06:56:24Z</time>
      </trkpt>
      <trkpt lat="11.53501" lon="42.83769">
        <ele>395.72</ele>
        <time>2011-12-30T06:56:32Z</time>
      </trkpt>
      <trkpt lat="11.53503" lon="42.83765">
        <ele>396.68</ele>
        <time>2011-12-30T06:56:37Z</time>
      </trkpt>
      <trkpt lat="11.53503" lon="42.83764">
        <ele>393.8</ele>
        <time>2011-12-30T06:56:39Z</time>
      </trkpt>
      <trkpt lat="11.53499" lon="42.83761">
        <ele>395.24</ele>
        <time>2011-12-30T06:56:49Z</time>
      </trkpt>
      <trkpt lat="11.53498" lon="42.83757">
        <ele>393.32</ele>
        <time>2011-12-30T06:57:00Z</time>
      </trkpt>
      <trkpt lat="11.53499" lon="42.83755">
        <ele>396.68</ele>
        <time>2011-12-30T06:57:03Z</time>
      </trkpt>
      <trkpt lat="11.53499" lon="42.83755">
        <ele>394.76</ele>
        <time>2011-12-30T06:57:04Z</time>
      </trkpt>
      <trkpt lat="11.53499" lon="42.83754">
        <ele>392.84</ele>
        <time>2011-12-30T06:57:06Z</time>
      </trkpt>
      <trkpt lat="11.535" lon="42.83754">
        <ele>394.76</ele>
        <time>2011-12-30T06:57:09Z</time>
      </trkpt>
      <trkpt lat="11.53501" lon="42.83753">
        <ele>390.91</ele>
        <time>2011-12-30T06:57:23Z</time>
      </trkpt>
      <trkpt lat="11.535" lon="42.83753">
        <ele>396.2</ele>
        <time>2011-12-30T06:57:25Z</time>
      </trkpt>
      <trkpt lat="11.535" lon="42.83752">
        <ele>395.72</ele>
        <time>2011-12-30T06:57:26Z</time>
      </trkpt>
      <trkpt lat="11.535" lon="42.83751">
        <ele>394.28</ele>
        <time>2011-12-30T06:57:29Z</time>
      </trkpt>
      <trkpt lat="11.535" lon="42.83748">
        <ele>392.84</ele>
        <time>2011-12-30T06:57:39Z</time>
      </trkpt>
      <trkpt lat="11.535" lon="42.83748">
        <ele>388.99</ele>
        <time>2011-12-30T06:57:42Z</time>
      </trkpt>
      <trkpt lat="11.535" lon="42.83749">
        <ele>394.76</ele>
        <time>2011-12-30T06:57:43Z</time>
      </trkpt>
      <trkpt lat="11.53499" lon="42.83749">
        <ele>392.84</ele>
        <time>2011-12-30T06:57:48Z</time>
      </trkpt>
      <trkpt lat="11.53501" lon="42.83743">
        <ele>393.8</ele>
        <time>2011-12-30T06:58:04Z</time>
      </trkpt>
      <trkpt lat="11.53501" lon="42.83741">
        <ele>389.95</ele>
        <time>2011-12-30T06:58:26Z</time>
      </trkpt>
      <trkpt lat="11.53502" lon="42.8374">
        <ele>392.36</ele>
        <time>2011-12-30T06:58:27Z</time>
      </trkpt>
      <trkpt lat="11.53503" lon="42.83739">
        <ele>391.39</ele>
        <time>2011-12-30T06:58:29Z</time>
      </trkpt>
      <trkpt lat="11.53507" lon="42.83735">
        <ele>395.24</ele>
        <time>2011-12-30T06:58:33Z</time>
      </trkpt>
      <trkpt lat="11.53509" lon="42.83734">
        <ele>388.03</ele>
        <time>2011-12-30T06:58:35Z</time>
      </trkpt>
      <trkpt lat="11.5351" lon="42.83734">
        <ele>390.43</ele>
        <time>2011-12-30T06:58:36Z</time>
      </trkpt>
      <trkpt lat="11.53513" lon="42.83733">
        <ele>394.28</ele>
        <time>2011-12-30T06:58:38Z</time>
      </trkpt>
      <trkpt lat="11.53515" lon="42.83732">
        <ele>391.87</ele>
        <time>2011-12-30T06:58:40Z</time>
      </trkpt>
      <trkpt lat="11.53519" lon="42.83728">
        <ele>394.28</ele>
        <time>2011-12-30T06:58:45Z</time>
      </trkpt>
      <trkpt lat="11.5352" lon="42.83727">
        <ele>390.91</ele>
        <time>2011-12-30T06:58:47Z</time>
      </trkpt>
      <trkpt lat="11.53528" lon="42.83725">
        <ele>391.39</ele>
        <time>2011-12-30T06:59:00Z</time>
      </trkpt>
      <trkpt lat="11.53528" lon="42.83723">
        <ele>394.28</ele>
        <time>2011-12-30T06:59:02Z</time>
      </trkpt>
      <trkpt lat="11.53528" lon="42.83722">
        <ele>391.87</ele>
        <time>2011-12-30T06:59:03Z</time>
      </trkpt>
      <trkpt lat="11.5353" lon="42.8372">
        <ele>389.95</ele>
        <time>2011-12-30T06:59:06Z</time>
      </trkpt>
      <trkpt lat="11.53532" lon="42.83717">
        <ele>390.91</ele>
        <time>2011-12-30T06:59:12Z</time>
      </trkpt>
      <trkpt lat="11.53535" lon="42.83714">
        <ele>387.55</ele>
        <time>2011-12-30T06:59:19Z</time>
      </trkpt>
      <trkpt lat="11.53536" lon="42.83713">
        <ele>390.43</ele>
        <time>2011-12-30T06:59:21Z</time>
      </trkpt>
      <trkpt lat="11.53537" lon="42.8371">
        <ele>391.87</ele>
        <time>2011-12-30T06:59:23Z</time>
      </trkpt>
      <trkpt lat="11.5354" lon="42.83704">
        <ele>389.95</ele>
        <time>2011-12-30T06:59:28Z</time>
      </trkpt>
      <trkpt lat="11.53542" lon="42.837">
        <ele>385.15</ele>
        <time>2011-12-30T06:59:31Z</time>
      </trkpt>
      <trkpt lat="11.53545" lon="42.83697">
        <ele>388.99</ele>
        <time>2011-12-30T06:59:35Z</time>
      </trkpt>
      <trkpt lat="11.53549" lon="42.83691">
        <ele>389.95</ele>
        <time>2011-12-30T06:59:41Z</time>
      </trkpt>
      <trkpt lat="11.53551" lon="42.8369">
        <ele>381.78</ele>
        <time>2011-12-30T06:59:43Z</time>
      </trkpt>
      <trkpt lat="11.53552" lon="42.83689">
        <ele>388.03</ele>
        <time>2011-12-30T06:59:44Z</time>
      </trkpt>
      <trkpt lat="11.53554" lon="42.83688">
        <ele>388.99</ele>
        <time>2011-12-30T06:59:46Z</time>
      </trkpt>
      <trkpt lat="11.5356" lon="42.83686">
        <ele>385.63</ele>
        <time>2011-12-30T06:59:52Z</time>
      </trkpt>
      <trkpt lat="11.53562" lon="42.83685">
        <ele>388.99</ele>
        <time>2011-12-30T06:59:55Z</time>
      </trkpt>
      <trkpt lat="11.53564" lon="42.83681">
        <ele>389.95</ele>
        <time>2011-12-30T07:00:00Z</time>
      </trkpt>
      <trkpt lat="11.53565" lon="42.83679">
        <ele>387.55</ele>
        <time>2011-12-30T07:00:02Z</time>
      </trkpt>
      <trkpt lat="11.53568" lon="42.83676">
        <ele>383.22</ele>
        <time>2011-12-30T07:00:10Z</time>
      </trkpt>
      <trkpt lat="11.53569" lon="42.83676">
        <ele>387.07</ele>
        <time>2011-12-30T07:00:11Z</time>
      </trkpt>
      <trkpt lat="11.53574" lon="42.83668">
        <ele>385.63</ele>
        <time>2011-12-30T07:00:22Z</time>
      </trkpt>
      <trkpt lat="11.53574" lon="42.83664">
        <ele>385.63</ele>
        <time>2011-12-30T07:00:28Z</time>
      </trkpt>
      <trkpt lat="11.53574" lon="42.83659">
        <ele>386.59</ele>
        <time>2011-12-30T07:00:33Z</time>
      </trkpt>
      <trkpt lat="11.53572" lon="42.83653">
        <ele>385.63</ele>
        <time>2011-12-30T07:00:38Z</time>
      </trkpt>
      <trkpt lat="11.53564" lon="42.83646">
        <ele>382.74</ele>
        <time>2011-12-30T07:00:50Z</time>
      </trkpt>
      <trkpt lat="11.53564" lon="42.83643">
        <ele>380.34</ele>
        <time>2011-12-30T07:00:55Z</time>
      </trkpt>
      <trkpt lat="11.53566" lon="42.83637">
        <ele>380.34</ele>
        <time>2011-12-30T07:01:00Z</time>
      </trkpt>
      <trkpt lat="11.53566" lon="42.83636">
        <ele>380.82</ele>
        <time>2011-12-30T07:01:01Z</time>
      </trkpt>
      <trkpt lat="11.53568" lon="42.83632">
        <ele>383.22</ele>
        <time>2011-12-30T07:01:05Z</time>
      </trkpt>
      <trkpt lat="11.5357" lon="42.83623">
        <ele>382.26</ele>
        <time>2011-12-30T07:01:14Z</time>
      </trkpt>
      <trkpt lat="11.53571" lon="42.83619">
        <ele>382.74</ele>
        <time>2011-12-30T07:01:17Z</time>
      </trkpt>
      <trkpt lat="11.53574" lon="42.83616">
        <ele>380.34</ele>
        <time>2011-12-30T07:01:22Z</time>
      </trkpt>
      <trkpt lat="11.53577" lon="42.83616">
        <ele>383.7</ele>
        <time>2011-12-30T07:01:24Z</time>
      </trkpt>
      <trkpt lat="11.53578" lon="42.83616">
        <ele>381.3</ele>
        <time>2011-12-30T07:01:26Z</time>
      </trkpt>
      <trkpt lat="11.53586" lon="42.83618">
        <ele>378.42</ele>
        <time>2011-12-30T07:01:31Z</time>
      </trkpt>
      <trkpt lat="11.53591" lon="42.83619">
        <ele>382.74</ele>
        <time>2011-12-30T07:01:35Z</time>
      </trkpt>
      <trkpt lat="11.53592" lon="42.83618">
        <ele>383.7</ele>
        <time>2011-12-30T07:01:37Z</time>
      </trkpt>
      <trkpt lat="11.53593" lon="42.83616">
        <ele>382.26</ele>
        <time>2011-12-30T07:01:39Z</time>
      </trkpt>
      <trkpt lat="11.53596" lon="42.83611">
        <ele>381.78</ele>
        <time>2011-12-30T07:01:45Z</time>
      </trkpt>
      <trkpt lat="11.536" lon="42.83607">
        <ele>381.3</ele>
        <time>2011-12-30T07:01:59Z</time>
      </trkpt>
      <trkpt lat="11.53602" lon="42.83604">
        <ele>381.3</ele>
        <time>2011-12-30T07:02:03Z</time>
      </trkpt>
      <trkpt lat="11.53604" lon="42.83602">
        <ele>377.45</ele>
        <time>2011-12-30T07:02:05Z</time>
      </trkpt>
      <trkpt lat="11.53606" lon="42.836">
        <ele>378.9</ele>
        <time>2011-12-30T07:02:08Z</time>
      </trkpt>
      <trkpt lat="11.53607" lon="42.83598">
        <ele>380.82</ele>
        <time>2011-12-30T07:02:10Z</time>
      </trkpt>
      <trkpt lat="11.53607" lon="42.83595">
        <ele>382.74</ele>
        <time>2011-12-30T07:02:12Z</time>
      </trkpt>
      <trkpt lat="11.53608" lon="42.83595">
        <ele>382.26</ele>
        <time>2011-12-30T07:02:13Z</time>
      </trkpt>
      <trkpt lat="11.53609" lon="42.83593">
        <ele>380.82</ele>
        <time>2011-12-30T07:02:15Z</time>
      </trkpt>
      <trkpt lat="11.5361" lon="42.83589">
        <ele>376.97</ele>
        <time>2011-12-30T07:02:18Z</time>
      </trkpt>
      <trkpt lat="11.53612" lon="42.83585">
        <ele>380.34</ele>
        <time>2011-12-30T07:02:22Z</time>
      </trkpt>
      <trkpt lat="11.53613" lon="42.83584">
        <ele>379.86</ele>
        <time>2011-12-30T07:02:23Z</time>
      </trkpt>
      <trkpt lat="11.53613" lon="42.83579">
        <ele>379.38</ele>
        <time>2011-12-30T07:02:27Z</time>
      </trkpt>
      <trkpt lat="11.53615" lon="42.83577">
        <ele>379.86</ele>
        <time>2011-12-30T07:02:29Z</time>
      </trkpt>
      <trkpt lat="11.53621" lon="42.83575">
        <ele>377.45</ele>
        <time>2011-12-30T07:02:35Z</time>
      </trkpt>
      <trkpt lat="11.53631" lon="42.83573">
        <ele>376.49</ele>
        <time>2011-12-30T07:02:45Z</time>
      </trkpt>
      <trkpt lat="11.53631" lon="42.83573">
        <ele>376.49</ele>
        <time>2011-12-30T07:02:46Z</time>
      </trkpt>
      <trkpt lat="11.53631" lon="42.83573">
        <ele>372.17</ele>
        <time>2011-12-30T07:02:52Z</time>
      </trkpt>
      <trkpt lat="11.53631" lon="42.83573">
        <ele>375.05</ele>
        <time>2011-12-30T07:02:53Z</time>
      </trkpt>
      <trkpt lat="11.53632" lon="42.83572">
        <ele>366.88</ele>
        <time>2011-12-30T07:02:58Z</time>
      </trkpt>
      <trkpt lat="11.53632" lon="42.83572">
        <ele>378.9</ele>
        <time>2011-12-30T07:02:59Z</time>
      </trkpt>
      <trkpt lat="11.53632" lon="42.83572">
        <ele>370.73</ele>
        <time>2011-12-30T07:03:00Z</time>
      </trkpt>
      <trkpt lat="11.53631" lon="42.83573">
        <ele>377.94</ele>
        <time>2011-12-30T07:03:01Z</time>
      </trkpt>
      <trkpt lat="11.53631" lon="42.83573">
        <ele>372.65</ele>
        <time>2011-12-30T07:03:03Z</time>
      </trkpt>
      <trkpt lat="11.53631" lon="42.83573">
        <ele>377.94</ele>
        <time>2011-12-30T07:03:04Z</time>
      </trkpt>
      <trkpt lat="11.53631" lon="42.83573">
        <ele>376.49</ele>
        <time>2011-12-30T07:03:05Z</time>
      </trkpt>
      <trkpt lat="11.53635" lon="42.83572">
        <ele>375.53</ele>
        <time>2011-12-30T07:03:16Z</time>
      </trkpt>
      <trkpt lat="11.53635" lon="42.83572">
        <ele>374.57</ele>
        <time>2011-12-30T07:03:28Z</time>
      </trkpt>
      <trkpt lat="11.5364" lon="42.83572">
        <ele>377.45</ele>
        <time>2011-12-30T07:03:32Z</time>
      </trkpt>
      <trkpt lat="11.53643" lon="42.83572">
        <ele>379.38</ele>
        <time>2011-12-30T07:03:34Z</time>
      </trkpt>
      <trkpt lat="11.53647" lon="42.83574">
        <ele>376.49</ele>
        <time>2011-12-30T07:03:38Z</time>
      </trkpt>
      <trkpt lat="11.53655" lon="42.83575">
        <ele>371.21</ele>
        <time>2011-12-30T07:03:47Z</time>
      </trkpt>
      <trkpt lat="11.53656" lon="42.83576">
        <ele>375.05</ele>
        <time>2011-12-30T07:03:48Z</time>
      </trkpt>
      <trkpt lat="11.53659" lon="42.83576">
        <ele>375.05</ele>
        <time>2011-12-30T07:03:50Z</time>
      </trkpt>
      <trkpt lat="11.53661" lon="42.83578">
        <ele>376.97</ele>
        <time>2011-12-30T07:03:52Z</time>
      </trkpt>
      <trkpt lat="11.53664" lon="42.83579">
        <ele>375.53</ele>
        <time>2011-12-30T07:03:55Z</time>
      </trkpt>
      <trkpt lat="11.53669" lon="42.83582">
        <ele>375.53</ele>
        <time>2011-12-30T07:04:00Z</time>
      </trkpt>
      <trkpt lat="11.53671" lon="42.83587">
        <ele>374.09</ele>
        <time>2011-12-30T07:04:05Z</time>
      </trkpt>
      <trkpt lat="11.53675" lon="42.83587">
        <ele>377.45</ele>
        <time>2011-12-30T07:04:08Z</time>
      </trkpt>
      <trkpt lat="11.53678" lon="42.83587">
        <ele>372.17</ele>
        <time>2011-12-30T07:04:11Z</time>
      </trkpt>
      <trkpt lat="11.53679" lon="42.83587">
        <ele>371.69</ele>
        <time>2011-12-30T07:04:12Z</time>
      </trkpt>
      <trkpt lat="11.53684" lon="42.83589">
        <ele>373.61</ele>
        <time>2011-12-30T07:04:16Z</time>
      </trkpt>
      <trkpt lat="11.53685" lon="42.83592">
        <ele>370.73</ele>
        <time>2011-12-30T07:04:19Z</time>
      </trkpt>
      <trkpt lat="11.53688" lon="42.83593">
        <ele>371.21</ele>
        <time>2011-12-30T07:04:22Z</time>
      </trkpt>
      <trkpt lat="11.53689" lon="42.83592">
        <ele>372.17</ele>
        <time>2011-12-30T07:04:23Z</time>
      </trkpt>
      <trkpt lat="11.53695" lon="42.83595">
        <ele>374.57</ele>
        <time>2011-12-30T07:04:30Z</time>
      </trkpt>
      <trkpt lat="11.53697" lon="42.83595">
        <ele>372.17</ele>
        <time>2011-12-30T07:04:32Z</time>
      </trkpt>
      <trkpt lat="11.53701" lon="42.83596">
        <ele>373.61</ele>
        <time>2011-12-30T07:04:35Z</time>
      </trkpt>
      <trkpt lat="11.53702" lon="42.83596">
        <ele>370.73</ele>
        <time>2011-12-30T07:04:36Z</time>
      </trkpt>
      <trkpt lat="11.53704" lon="42.83596">
        <ele>369.76</ele>
        <time>2011-12-30T07:04:38Z</time>
      </trkpt>
      <trkpt lat="11.53707" lon="42.83595">
        <ele>372.17</ele>
        <time>2011-12-30T07:04:42Z</time>
      </trkpt>
      <trkpt lat="11.53709" lon="42.83594">
        <ele>373.61</ele>
        <time>2011-12-30T07:04:44Z</time>
      </trkpt>
      <trkpt lat="11.5371" lon="42.83593">
        <ele>370.73</ele>
        <time>2011-12-30T07:04:46Z</time>
      </trkpt>
      <trkpt lat="11.53711" lon="42.83593">
        <ele>370.73</ele>
        <time>2011-12-30T07:04:47Z</time>
      </trkpt>
      <trkpt lat="11.53713" lon="42.83591">
        <ele>369.76</ele>
        <time>2011-12-30T07:04:53Z</time>
      </trkpt>
      <trkpt lat="11.53713" lon="42.8359">
        <ele>365.92</ele>
        <time>2011-12-30T07:04:54Z</time>
      </trkpt>
      <trkpt lat="11.53714" lon="42.83589">
        <ele>370.24</ele>
        <time>2011-12-30T07:04:55Z</time>
      </trkpt>
      <trkpt lat="11.53714" lon="42.83586">
        <ele>373.61</ele>
        <time>2011-12-30T07:04:57Z</time>
      </trkpt>
      <trkpt lat="11.53714" lon="42.83585">
        <ele>370.24</ele>
        <time>2011-12-30T07:04:58Z</time>
      </trkpt>
      <trkpt lat="11.53714" lon="42.83583">
        <ele>368.8</ele>
        <time>2011-12-30T07:05:00Z</time>
      </trkpt>
      <trkpt lat="11.53719" lon="42.83577">
        <ele>366.4</ele>
        <time>2011-12-30T07:05:08Z</time>
      </trkpt>
      <trkpt lat="11.5372" lon="42.83576">
        <ele>366.4</ele>
        <time>2011-12-30T07:05:09Z</time>
      </trkpt>
      <trkpt lat="11.53721" lon="42.83574">
        <ele>369.28</ele>
        <time>2011-12-30T07:05:11Z</time>
      </trkpt>
      <trkpt lat="11.53724" lon="42.83568">
        <ele>367.36</ele>
        <time>2011-12-30T07:05:21Z</time>
      </trkpt>
      <trkpt lat="11.53727" lon="42.83565">
        <ele>370.24</ele>
        <time>2011-12-30T07:05:25Z</time>
      </trkpt>
      <trkpt lat="11.53729" lon="42.83564">
        <ele>367.84</ele>
        <time>2011-12-30T07:05:27Z</time>
      </trkpt>
      <trkpt lat="11.53729" lon="42.83564">
        <ele>367.36</ele>
        <time>2011-12-30T07:05:29Z</time>
      </trkpt>
      <trkpt lat="11.53738" lon="42.83558">
        <ele>367.84</ele>
        <time>2011-12-30T07:05:39Z</time>
      </trkpt>
      <trkpt lat="11.53742" lon="42.83556">
        <ele>365.44</ele>
        <time>2011-12-30T07:05:44Z</time>
      </trkpt>
      <trkpt lat="11.53745" lon="42.83554">
        <ele>372.17</ele>
        <time>2011-12-30T07:05:47Z</time>
      </trkpt>
      <trkpt lat="11.53746" lon="42.83554">
        <ele>365.44</ele>
        <time>2011-12-30T07:05:48Z</time>
      </trkpt>
      <trkpt lat="11.53747" lon="42.83554">
        <ele>362.55</ele>
        <time>2011-12-30T07:05:49Z</time>
      </trkpt>
      <trkpt lat="11.53751" lon="42.83553">
        <ele>366.4</ele>
        <time>2011-12-30T07:05:52Z</time>
      </trkpt>
      <trkpt lat="11.53753" lon="42.83552">
        <ele>366.4</ele>
        <time>2011-12-30T07:05:54Z</time>
      </trkpt>
      <trkpt lat="11.53755" lon="42.83552">
        <ele>365.44</ele>
        <time>2011-12-30T07:05:56Z</time>
      </trkpt>
      <trkpt lat="11.53757" lon="42.83551">
        <ele>368.32</ele>
        <time>2011-12-30T07:05:58Z</time>
      </trkpt>
      <trkpt lat="11.53759" lon="42.83551">
        <ele>360.15</ele>
        <time>2011-12-30T07:06:00Z</time>
      </trkpt>
      <trkpt lat="11.53761" lon="42.83551">
        <ele>368.32</ele>
        <time>2011-12-30T07:06:02Z</time>
      </trkpt>
      <trkpt lat="11.53762" lon="42.8355">
        <ele>363.52</ele>
        <time>2011-12-30T07:06:03Z</time>
      </trkpt>
      <trkpt lat="11.53762" lon="42.8355">
        <ele>367.36</ele>
        <time>2011-12-30T07:06:04Z</time>
      </trkpt>
      <trkpt lat="11.53764" lon="42.83551">
        <ele>366.88</ele>
        <time>2011-12-30T07:06:07Z</time>
      </trkpt>
      <trkpt lat="11.53765" lon="42.83552">
        <ele>375.05</ele>
        <time>2011-12-30T07:06:09Z</time>
      </trkpt>
      <trkpt lat="11.53766" lon="42.83552">
        <ele>367.84</ele>
        <time>2011-12-30T07:06:10Z</time>
      </trkpt>
      <trkpt lat="11.53766" lon="42.83553">
        <ele>359.67</ele>
        <time>2011-12-30T07:06:11Z</time>
      </trkpt>
      <trkpt lat="11.53767" lon="42.83553">
        <ele>366.88</ele>
        <time>2011-12-30T07:06:12Z</time>
      </trkpt>
      <trkpt lat="11.53768" lon="42.83553">
        <ele>371.21</ele>
        <time>2011-12-30T07:06:13Z</time>
      </trkpt>
      <trkpt lat="11.53769" lon="42.83553">
        <ele>365.44</ele>
        <time>2011-12-30T07:06:14Z</time>
      </trkpt>
      <trkpt lat="11.53771" lon="42.83554">
        <ele>365.44</ele>
        <time>2011-12-30T07:06:16Z</time>
      </trkpt>
      <trkpt lat="11.53772" lon="42.83554">
        <ele>364.96</ele>
        <time>2011-12-30T07:06:17Z</time>
      </trkpt>
      <trkpt lat="11.53774" lon="42.83553">
        <ele>368.32</ele>
        <time>2011-12-30T07:06:19Z</time>
      </trkpt>
      <trkpt lat="11.53775" lon="42.83553">
        <ele>372.65</ele>
        <time>2011-12-30T07:06:20Z</time>
      </trkpt>
      <trkpt lat="11.53776" lon="42.83553">
        <ele>372.65</ele>
        <time>2011-12-30T07:06:21Z</time>
      </trkpt>
      <trkpt lat="11.53778" lon="42.83551">
        <ele>369.76</ele>
        <time>2011-12-30T07:06:23Z</time>
      </trkpt>
      <trkpt lat="11.53779" lon="42.8355">
        <ele>367.84</ele>
        <time>2011-12-30T07:06:25Z</time>
      </trkpt>
      <trkpt lat="11.53784" lon="42.83541">
        <ele>367.36</ele>
        <time>2011-12-30T07:06:34Z</time>
      </trkpt>
      <trkpt lat="11.53787" lon="42.83536">
        <ele>368.32</ele>
        <time>2011-12-30T07:06:39Z</time>
      </trkpt>
      <trkpt lat="11.53793" lon="42.83525">
        <ele>366.4</ele>
        <time>2011-12-30T07:06:48Z</time>
      </trkpt>
      <trkpt lat="11.53797" lon="42.8352">
        <ele>367.84</ele>
        <time>2011-12-30T07:06:55Z</time>
      </trkpt>
      <trkpt lat="11.53798" lon="42.83519">
        <ele>366.88</ele>
        <time>2011-12-30T07:06:57Z</time>
      </trkpt>
      <trkpt lat="11.53799" lon="42.83516">
        <ele>367.36</ele>
        <time>2011-12-30T07:07:01Z</time>
      </trkpt>
      <trkpt lat="11.53801" lon="42.83512">
        <ele>363.04</ele>
        <time>2011-12-30T07:07:04Z</time>
      </trkpt>
      <trkpt lat="11.53802" lon="42.83511">
        <ele>363.04</ele>
        <time>2011-12-30T07:07:05Z</time>
      </trkpt>
      <trkpt lat="11.53803" lon="42.8351">
        <ele>364.48</ele>
        <time>2011-12-30T07:07:06Z</time>
      </trkpt>
      <trkpt lat="11.53803" lon="42.83506">
        <ele>367.84</ele>
        <time>2011-12-30T07:07:09Z</time>
      </trkpt>
      <trkpt lat="11.53803" lon="42.83504">
        <ele>364</ele>
        <time>2011-12-30T07:07:11Z</time>
      </trkpt>
      <trkpt lat="11.538" lon="42.8349">
        <ele>362.55</ele>
        <time>2011-12-30T07:07:22Z</time>
      </trkpt>
      <trkpt lat="11.53799" lon="42.83488">
        <ele>361.59</ele>
        <time>2011-12-30T07:07:24Z</time>
      </trkpt>
      <trkpt lat="11.53797" lon="42.83486">
        <ele>365.44</ele>
        <time>2011-12-30T07:07:27Z</time>
      </trkpt>
      <trkpt lat="11.53796" lon="42.83485">
        <ele>364.96</ele>
        <time>2011-12-30T07:07:28Z</time>
      </trkpt>
      <trkpt lat="11.53794" lon="42.83484">
        <ele>361.11</ele>
        <time>2011-12-30T07:07:30Z</time>
      </trkpt>
      <trkpt lat="11.53793" lon="42.83484">
        <ele>362.55</ele>
        <time>2011-12-30T07:07:31Z</time>
      </trkpt>
      <trkpt lat="11.5379" lon="42.8348">
        <ele>362.07</ele>
        <time>2011-12-30T07:07:36Z</time>
      </trkpt>
      <trkpt lat="11.53786" lon="42.83473">
        <ele>362.07</ele>
        <time>2011-12-30T07:07:49Z</time>
      </trkpt>
      <trkpt lat="11.53787" lon="42.83471">
        <ele>360.63</ele>
        <time>2011-12-30T07:07:52Z</time>
      </trkpt>
      <trkpt lat="11.53787" lon="42.8347">
        <ele>361.59</ele>
        <time>2011-12-30T07:07:53Z</time>
      </trkpt>
      <trkpt lat="11.53788" lon="42.8346">
        <ele>361.11</ele>
        <time>2011-12-30T07:08:03Z</time>
      </trkpt>
      <trkpt lat="11.53789" lon="42.83457">
        <ele>359.19</ele>
        <time>2011-12-30T07:08:06Z</time>
      </trkpt>
      <trkpt lat="11.53791" lon="42.8345">
        <ele>358.71</ele>
        <time>2011-12-30T07:08:16Z</time>
      </trkpt>
      <trkpt lat="11.53791" lon="42.83447">
        <ele>358.23</ele>
        <time>2011-12-30T07:08:20Z</time>
      </trkpt>
      <trkpt lat="11.53787" lon="42.8344">
        <ele>357.75</ele>
        <time>2011-12-30T07:08:30Z</time>
      </trkpt>
      <trkpt lat="11.53784" lon="42.83436">
        <ele>356.31</ele>
        <time>2011-12-30T07:08:41Z</time>
      </trkpt>
      <trkpt lat="11.53785" lon="42.83435">
        <ele>356.79</ele>
        <time>2011-12-30T07:09:17Z</time>
      </trkpt>
      <trkpt lat="11.53785" lon="42.83434">
        <ele>355.83</ele>
        <time>2011-12-30T07:09:27Z</time>
      </trkpt>
      <trkpt lat="11.53786" lon="42.8343">
        <ele>353.9</ele>
        <time>2011-12-30T07:09:30Z</time>
      </trkpt>
      <trkpt lat="11.53787" lon="42.8343">
        <ele>354.86</ele>
        <time>2011-12-30T07:09:31Z</time>
      </trkpt>
      <trkpt lat="11.53787" lon="42.83429">
        <ele>356.79</ele>
        <time>2011-12-30T07:09:32Z</time>
      </trkpt>
      <trkpt lat="11.53789" lon="42.83424">
        <ele>352.94</ele>
        <time>2011-12-30T07:09:36Z</time>
      </trkpt>
      <trkpt lat="11.53789" lon="42.83423">
        <ele>354.86</ele>
        <time>2011-12-30T07:09:37Z</time>
      </trkpt>
      <trkpt lat="11.53794" lon="42.83414">
        <ele>352.94</ele>
        <time>2011-12-30T07:09:47Z</time>
      </trkpt>
      <trkpt lat="11.53794" lon="42.83414">
        <ele>354.86</ele>
        <time>2011-12-30T07:09:48Z</time>
      </trkpt>
      <trkpt lat="11.53793" lon="42.83407">
        <ele>354.38</ele>
        <time>2011-12-30T07:09:54Z</time>
      </trkpt>
      <trkpt lat="11.53792" lon="42.83397">
        <ele>348.13</ele>
        <time>2011-12-30T07:10:04Z</time>
      </trkpt>
      <trkpt lat="11.53792" lon="42.83396">
        <ele>351.02</ele>
        <time>2011-12-30T07:10:05Z</time>
      </trkpt>
      <trkpt lat="11.53791" lon="42.83392">
        <ele>353.9</ele>
        <time>2011-12-30T07:10:08Z</time>
      </trkpt>
      <trkpt lat="11.5379" lon="42.83385">
        <ele>349.1</ele>
        <time>2011-12-30T07:10:14Z</time>
      </trkpt>
      <trkpt lat="11.5379" lon="42.83384">
        <ele>351.5</ele>
        <time>2011-12-30T07:10:15Z</time>
      </trkpt>
      <trkpt lat="11.53789" lon="42.83382">
        <ele>352.94</ele>
        <time>2011-12-30T07:10:17Z</time>
      </trkpt>
      <trkpt lat="11.53789" lon="42.83379">
        <ele>355.34</ele>
        <time>2011-12-30T07:10:19Z</time>
      </trkpt>
      <trkpt lat="11.53788" lon="42.83376">
        <ele>350.06</ele>
        <time>2011-12-30T07:10:21Z</time>
      </trkpt>
      <trkpt lat="11.53788" lon="42.83374">
        <ele>352.46</ele>
        <time>2011-12-30T07:10:24Z</time>
      </trkpt>
      <trkpt lat="11.53788" lon="42.83372">
        <ele>351.98</ele>
        <time>2011-12-30T07:10:26Z</time>
      </trkpt>
      <trkpt lat="11.53789" lon="42.83368">
        <ele>349.58</ele>
        <time>2011-12-30T07:10:30Z</time>
      </trkpt>
      <trkpt lat="11.53788" lon="42.83365">
        <ele>353.42</ele>
        <time>2011-12-30T07:10:33Z</time>
      </trkpt>
      <trkpt lat="11.53788" lon="42.83363">
        <ele>351.98</ele>
        <time>2011-12-30T07:10:36Z</time>
      </trkpt>
      <trkpt lat="11.53788" lon="42.83359">
        <ele>354.86</ele>
        <time>2011-12-30T07:10:44Z</time>
      </trkpt>
      <trkpt lat="11.53788" lon="42.83357">
        <ele>351.5</ele>
        <time>2011-12-30T07:10:46Z</time>
      </trkpt>
      <trkpt lat="11.53788" lon="42.83356">
        <ele>351.5</ele>
        <time>2011-12-30T07:10:47Z</time>
      </trkpt>
      <trkpt lat="11.5379" lon="42.83351">
        <ele>351.02</ele>
        <time>2011-12-30T07:11:05Z</time>
      </trkpt>
      <trkpt lat="11.53791" lon="42.83347">
        <ele>350.54</ele>
        <time>2011-12-30T07:11:13Z</time>
      </trkpt>
      <trkpt lat="11.53794" lon="42.8334">
        <ele>348.62</ele>
        <time>2011-12-30T07:11:21Z</time>
      </trkpt>
      <trkpt lat="11.53795" lon="42.83338">
        <ele>350.54</ele>
        <time>2011-12-30T07:11:23Z</time>
      </trkpt>
      <trkpt lat="11.53795" lon="42.83335">
        <ele>347.17</ele>
        <time>2011-12-30T07:11:26Z</time>
      </trkpt>
      <trkpt lat="11.53795" lon="42.83332">
        <ele>351.02</ele>
        <time>2011-12-30T07:11:29Z</time>
      </trkpt>
      <trkpt lat="11.53794" lon="42.83329">
        <ele>347.65</ele>
        <time>2011-12-30T07:11:32Z</time>
      </trkpt>
      <trkpt lat="11.53794" lon="42.83328">
        <ele>349.1</ele>
        <time>2011-12-30T07:11:33Z</time>
      </trkpt>
      <trkpt lat="11.53792" lon="42.83319">
        <ele>350.06</ele>
        <time>2011-12-30T07:11:44Z</time>
      </trkpt>
      <trkpt lat="11.53791" lon="42.83312">
        <ele>351.02</ele>
        <time>2011-12-30T07:11:52Z</time>
      </trkpt>
      <trkpt lat="11.5379" lon="42.83308">
        <ele>348.13</ele>
        <time>2011-12-30T07:11:56Z</time>
      </trkpt>
      <trkpt lat="11.53794" lon="42.83301">
        <ele>348.62</ele>
        <time>2011-12-30T07:12:03Z</time>
      </trkpt>
      <trkpt lat="11.53795" lon="42.83299">
        <ele>347.17</ele>
        <time>2011-12-30T07:12:05Z</time>
      </trkpt>
      <trkpt lat="11.53798" lon="42.8329">
        <ele>346.69</ele>
        <time>2011-12-30T07:12:16Z</time>
      </trkpt>
      <trkpt lat="11.53799" lon="42.83288">
        <ele>349.58</ele>
        <time>2011-12-30T07:12:18Z</time>
      </trkpt>
      <trkpt lat="11.53799" lon="42.83284">
        <ele>345.73</ele>
        <time>2011-12-30T07:12:21Z</time>
      </trkpt>
      <trkpt lat="11.53799" lon="42.83283">
        <ele>346.21</ele>
        <time>2011-12-30T07:12:22Z</time>
      </trkpt>
      <trkpt lat="11.538" lon="42.8328">
        <ele>349.58</ele>
        <time>2011-12-30T07:12:25Z</time>
      </trkpt>
      <trkpt lat="11.538" lon="42.83278">
        <ele>349.1</ele>
        <time>2011-12-30T07:12:26Z</time>
      </trkpt>
      <trkpt lat="11.538" lon="42.83277">
        <ele>347.65</ele>
        <time>2011-12-30T07:12:28Z</time>
      </trkpt>
      <trkpt lat="11.53801" lon="42.83274">
        <ele>346.69</ele>
        <time>2011-12-30T07:12:30Z</time>
      </trkpt>
      <trkpt lat="11.53801" lon="42.83271">
        <ele>343.81</ele>
        <time>2011-12-30T07:12:33Z</time>
      </trkpt>
      <trkpt lat="11.53801" lon="42.83269">
        <ele>346.69</ele>
        <time>2011-12-30T07:12:35Z</time>
      </trkpt>
      <trkpt lat="11.53802" lon="42.83268">
        <ele>346.21</ele>
        <time>2011-12-30T07:12:36Z</time>
      </trkpt>
      <trkpt lat="11.53802" lon="42.83268">
        <ele>341.89</ele>
        <time>2011-12-30T07:12:38Z</time>
      </trkpt>
      <trkpt lat="11.53802" lon="42.83268">
        <ele>345.25</ele>
        <time>2011-12-30T07:12:39Z</time>
      </trkpt>
      <trkpt lat="11.53802" lon="42.83264">
        <ele>348.13</ele>
        <time>2011-12-30T07:12:42Z</time>
      </trkpt>
      <trkpt lat="11.53802" lon="42.83259">
        <ele>345.25</ele>
        <time>2011-12-30T07:12:47Z</time>
      </trkpt>
      <trkpt lat="11.53802" lon="42.83255">
        <ele>341.89</ele>
        <time>2011-12-30T07:12:50Z</time>
      </trkpt>
      <trkpt lat="11.53802" lon="42.83253">
        <ele>344.29</ele>
        <time>2011-12-30T07:12:52Z</time>
      </trkpt>
      <trkpt lat="11.53804" lon="42.8325">
        <ele>349.1</ele>
        <time>2011-12-30T07:12:55Z</time>
      </trkpt>
      <trkpt lat="11.53804" lon="42.83248">
        <ele>347.65</ele>
        <time>2011-12-30T07:12:56Z</time>
      </trkpt>
      <trkpt lat="11.53805" lon="42.83246">
        <ele>343.81</ele>
        <time>2011-12-30T07:12:58Z</time>
      </trkpt>
      <trkpt lat="11.53805" lon="42.83246">
        <ele>344.29</ele>
        <time>2011-12-30T07:12:59Z</time>
      </trkpt>
      <trkpt lat="11.53806" lon="42.83243">
        <ele>345.25</ele>
        <time>2011-12-30T07:13:01Z</time>
      </trkpt>
      <trkpt lat="11.53807" lon="42.83243">
        <ele>344.77</ele>
        <time>2011-12-30T07:13:02Z</time>
      </trkpt>
      <trkpt lat="11.53807" lon="42.8324">
        <ele>343.81</ele>
        <time>2011-12-30T07:13:04Z</time>
      </trkpt>
      <trkpt lat="11.53809" lon="42.83237">
        <ele>341.89</ele>
        <time>2011-12-30T07:13:07Z</time>
      </trkpt>
      <trkpt lat="11.53811" lon="42.83234">
        <ele>345.25</ele>
        <time>2011-12-30T07:13:10Z</time>
      </trkpt>
      <trkpt lat="11.53818" lon="42.83226">
        <ele>342.37</ele>
        <time>2011-12-30T07:13:18Z</time>
      </trkpt>
      <trkpt lat="11.5382" lon="42.83223">
        <ele>341.89</ele>
        <time>2011-12-30T07:13:22Z</time>
      </trkpt>
      <trkpt lat="11.53823" lon="42.8322">
        <ele>343.33</ele>
        <time>2011-12-30T07:13:25Z</time>
      </trkpt>
      <trkpt lat="11.53824" lon="42.83218">
        <ele>340.92</ele>
        <time>2011-12-30T07:13:27Z</time>
      </trkpt>
      <trkpt lat="11.53827" lon="42.83215">
        <ele>344.77</ele>
        <time>2011-12-30T07:13:30Z</time>
      </trkpt>
      <trkpt lat="11.53827" lon="42.83215">
        <ele>344.77</ele>
        <time>2011-12-30T07:13:31Z</time>
      </trkpt>
      <trkpt lat="11.53827" lon="42.83214">
        <ele>341.41</ele>
        <time>2011-12-30T07:13:32Z</time>
      </trkpt>
      <trkpt lat="11.53828" lon="42.83213">
        <ele>342.37</ele>
        <time>2011-12-30T07:13:33Z</time>
      </trkpt>
      <trkpt lat="11.53829" lon="42.83212">
        <ele>342.37</ele>
        <time>2011-12-30T07:13:35Z</time>
      </trkpt>
      <trkpt lat="11.53829" lon="42.8321">
        <ele>341.89</ele>
        <time>2011-12-30T07:13:37Z</time>
      </trkpt>
      <trkpt lat="11.53831" lon="42.83205">
        <ele>344.29</ele>
        <time>2011-12-30T07:13:41Z</time>
      </trkpt>
      <trkpt lat="11.53831" lon="42.83202">
        <ele>341.41</ele>
        <time>2011-12-30T07:13:44Z</time>
      </trkpt>
      <trkpt lat="11.53831" lon="42.83193">
        <ele>338.04</ele>
        <time>2011-12-30T07:13:52Z</time>
      </trkpt>
      <trkpt lat="11.53831" lon="42.83192">
        <ele>338.04</ele>
        <time>2011-12-30T07:13:53Z</time>
      </trkpt>
      <trkpt lat="11.53832" lon="42.8319">
        <ele>341.41</ele>
        <time>2011-12-30T07:13:55Z</time>
      </trkpt>
      <trkpt lat="11.53832" lon="42.83189">
        <ele>339.96</ele>
        <time>2011-12-30T07:13:56Z</time>
      </trkpt>
      <trkpt lat="11.53834" lon="42.83179">
        <ele>342.85</ele>
        <time>2011-12-30T07:14:05Z</time>
      </trkpt>
      <trkpt lat="11.53834" lon="42.83177">
        <ele>340.44</ele>
        <time>2011-12-30T07:14:08Z</time>
      </trkpt>
      <trkpt lat="11.5384" lon="42.83169">
        <ele>339.96</ele>
        <time>2011-12-30T07:14:16Z</time>
      </trkpt>
      <trkpt lat="11.53842" lon="42.83166">
        <ele>341.89</ele>
        <time>2011-12-30T07:14:18Z</time>
      </trkpt>
      <trkpt lat="11.53844" lon="42.83163">
        <ele>339</ele>
        <time>2011-12-30T07:14:22Z</time>
      </trkpt>
      <trkpt lat="11.5385" lon="42.83161">
        <ele>336.12</ele>
        <time>2011-12-30T07:14:27Z</time>
      </trkpt>
      <trkpt lat="11.53853" lon="42.8316">
        <ele>338.04</ele>
        <time>2011-12-30T07:14:30Z</time>
      </trkpt>
      <trkpt lat="11.53861" lon="42.83159">
        <ele>338.52</ele>
        <time>2011-12-30T07:14:36Z</time>
      </trkpt>
      <trkpt lat="11.53868" lon="42.83154">
        <ele>339</ele>
        <time>2011-12-30T07:14:44Z</time>
      </trkpt>
      <trkpt lat="11.53869" lon="42.83152">
        <ele>338.52</ele>
        <time>2011-12-30T07:14:46Z</time>
      </trkpt>
      <trkpt lat="11.53873" lon="42.8315">
        <ele>339.48</ele>
        <time>2011-12-30T07:14:49Z</time>
      </trkpt>
      <trkpt lat="11.53876" lon="42.83147">
        <ele>337.56</ele>
        <time>2011-12-30T07:14:53Z</time>
      </trkpt>
      <trkpt lat="11.53877" lon="42.83146">
        <ele>337.08</ele>
        <time>2011-12-30T07:14:54Z</time>
      </trkpt>
      <trkpt lat="11.53883" lon="42.83143">
        <ele>333.71</ele>
        <time>2011-12-30T07:14:59Z</time>
      </trkpt>
      <trkpt lat="11.53885" lon="42.83142">
        <ele>337.08</ele>
        <time>2011-12-30T07:15:01Z</time>
      </trkpt>
      <trkpt lat="11.53886" lon="42.83141">
        <ele>337.56</ele>
        <time>2011-12-30T07:15:02Z</time>
      </trkpt>
      <trkpt lat="11.53894" lon="42.83135">
        <ele>333.71</ele>
        <time>2011-12-30T07:15:11Z</time>
      </trkpt>
      <trkpt lat="11.53894" lon="42.83134">
        <ele>334.68</ele>
        <time>2011-12-30T07:15:12Z</time>
      </trkpt>
      <trkpt lat="11.53894" lon="42.8313">
        <ele>338.04</ele>
        <time>2011-12-30T07:15:15Z</time>
      </trkpt>
      <trkpt lat="11.53893" lon="42.83129">
        <ele>338.04</ele>
        <time>2011-12-30T07:15:16Z</time>
      </trkpt>
      <trkpt lat="11.53891" lon="42.83116">
        <ele>336.12</ele>
        <time>2011-12-30T07:15:27Z</time>
      </trkpt>
      <trkpt lat="11.53895" lon="42.83106">
        <ele>335.64</ele>
        <time>2011-12-30T07:15:38Z</time>
      </trkpt>
      <trkpt lat="11.53899" lon="42.83102">
        <ele>331.79</ele>
        <time>2011-12-30T07:15:42Z</time>
      </trkpt>
      <trkpt lat="11.53899" lon="42.83101">
        <ele>331.79</ele>
        <time>2011-12-30T07:15:43Z</time>
      </trkpt>
      <trkpt lat="11.539" lon="42.83098">
        <ele>334.68</ele>
        <time>2011-12-30T07:15:46Z</time>
      </trkpt>
      <trkpt lat="11.53901" lon="42.83097">
        <ele>329.39</ele>
        <time>2011-12-30T07:15:48Z</time>
      </trkpt>
      <trkpt lat="11.53905" lon="42.83096">
        <ele>333.23</ele>
        <time>2011-12-30T07:15:51Z</time>
      </trkpt>
      <trkpt lat="11.53908" lon="42.83095">
        <ele>333.23</ele>
        <time>2011-12-30T07:15:54Z</time>
      </trkpt>
      <trkpt lat="11.53914" lon="42.83088">
        <ele>333.71</ele>
        <time>2011-12-30T07:16:02Z</time>
      </trkpt>
      <trkpt lat="11.53916" lon="42.8308">
        <ele>329.39</ele>
        <time>2011-12-30T07:16:10Z</time>
      </trkpt>
      <trkpt lat="11.53916" lon="42.83079">
        <ele>330.35</ele>
        <time>2011-12-30T07:16:11Z</time>
      </trkpt>
      <trkpt lat="11.53917" lon="42.83075">
        <ele>333.23</ele>
        <time>2011-12-30T07:16:14Z</time>
      </trkpt>
      <trkpt lat="11.53917" lon="42.83072">
        <ele>331.79</ele>
        <time>2011-12-30T07:16:18Z</time>
      </trkpt>
      <trkpt lat="11.53917" lon="42.83067">
        <ele>332.75</ele>
        <time>2011-12-30T07:16:23Z</time>
      </trkpt>
      <trkpt lat="11.5392" lon="42.83063">
        <ele>328.91</ele>
        <time>2011-12-30T07:16:27Z</time>
      </trkpt>
      <trkpt lat="11.5392" lon="42.83062">
        <ele>329.39</ele>
        <time>2011-12-30T07:16:28Z</time>
      </trkpt>
      <trkpt lat="11.53921" lon="42.83061">
        <ele>331.31</ele>
        <time>2011-12-30T07:16:30Z</time>
      </trkpt>
      <trkpt lat="11.53921" lon="42.8306">
        <ele>331.79</ele>
        <time>2011-12-30T07:16:32Z</time>
      </trkpt>
      <trkpt lat="11.5392" lon="42.83058">
        <ele>331.31</ele>
        <time>2011-12-30T07:16:38Z</time>
      </trkpt>
      <trkpt lat="11.53919" lon="42.83052">
        <ele>326.5</ele>
        <time>2011-12-30T07:16:45Z</time>
      </trkpt>
      <trkpt lat="11.53919" lon="42.83052">
        <ele>329.87</ele>
        <time>2011-12-30T07:16:46Z</time>
      </trkpt>
      <trkpt lat="11.53917" lon="42.83043">
        <ele>329.39</ele>
        <time>2011-12-30T07:16:57Z</time>
      </trkpt>
      <trkpt lat="11.53917" lon="42.83038">
        <ele>329.39</ele>
        <time>2011-12-30T07:17:02Z</time>
      </trkpt>
      <trkpt lat="11.5392" lon="42.83035">
        <ele>326.02</ele>
        <time>2011-12-30T07:17:06Z</time>
      </trkpt>
      <trkpt lat="11.53922" lon="42.83033">
        <ele>329.39</ele>
        <time>2011-12-30T07:17:13Z</time>
      </trkpt>
      <trkpt lat="11.53923" lon="42.83032">
        <ele>328.91</ele>
        <time>2011-12-30T07:17:14Z</time>
      </trkpt>
      <trkpt lat="11.53928" lon="42.83026">
        <ele>327.95</ele>
        <time>2011-12-30T07:17:24Z</time>
      </trkpt>
      <trkpt lat="11.53933" lon="42.83018">
        <ele>325.54</ele>
        <time>2011-12-30T07:17:33Z</time>
      </trkpt>
      <trkpt lat="11.53934" lon="42.83017">
        <ele>325.54</ele>
        <time>2011-12-30T07:17:34Z</time>
      </trkpt>
      <trkpt lat="11.53937" lon="42.83015">
        <ele>325.06</ele>
        <time>2011-12-30T07:17:38Z</time>
      </trkpt>
      <trkpt lat="11.53938" lon="42.83011">
        <ele>326.99</ele>
        <time>2011-12-30T07:17:41Z</time>
      </trkpt>
      <trkpt lat="11.53944" lon="42.83006">
        <ele>325.54</ele>
        <time>2011-12-30T07:17:50Z</time>
      </trkpt>
      <trkpt lat="11.5395" lon="42.83002">
        <ele>324.58</ele>
        <time>2011-12-30T07:17:57Z</time>
      </trkpt>
      <trkpt lat="11.53953" lon="42.83">
        <ele>326.02</ele>
        <time>2011-12-30T07:18:00Z</time>
      </trkpt>
      <trkpt lat="11.53955" lon="42.82999">
        <ele>322.66</ele>
        <time>2011-12-30T07:18:02Z</time>
      </trkpt>
      <trkpt lat="11.53956" lon="42.82998">
        <ele>323.14</ele>
        <time>2011-12-30T07:18:03Z</time>
      </trkpt>
      <trkpt lat="11.53958" lon="42.82997">
        <ele>326.02</ele>
        <time>2011-12-30T07:18:06Z</time>
      </trkpt>
      <trkpt lat="11.53961" lon="42.82996">
        <ele>324.1</ele>
        <time>2011-12-30T07:18:22Z</time>
      </trkpt>
      <trkpt lat="11.53963" lon="42.82994">
        <ele>319.78</ele>
        <time>2011-12-30T07:18:32Z</time>
      </trkpt>
      <trkpt lat="11.53963" lon="42.82993">
        <ele>322.18</ele>
        <time>2011-12-30T07:18:33Z</time>
      </trkpt>
      <trkpt lat="11.53966" lon="42.82993">
        <ele>321.7</ele>
        <time>2011-12-30T07:18:42Z</time>
      </trkpt>
      <trkpt lat="11.53966" lon="42.82993">
        <ele>319.78</ele>
        <time>2011-12-30T07:18:43Z</time>
      </trkpt>
      <trkpt lat="11.53965" lon="42.82994">
        <ele>326.02</ele>
        <time>2011-12-30T07:18:45Z</time>
      </trkpt>
      <trkpt lat="11.53965" lon="42.82994">
        <ele>326.02</ele>
        <time>2011-12-30T07:18:46Z</time>
      </trkpt>
      <trkpt lat="11.53965" lon="42.82994">
        <ele>322.66</ele>
        <time>2011-12-30T07:18:47Z</time>
      </trkpt>
      <trkpt lat="11.53965" lon="42.82994">
        <ele>322.66</ele>
        <time>2011-12-30T07:18:48Z</time>
      </trkpt>
      <trkpt lat="11.53966" lon="42.82994">
        <ele>326.99</ele>
        <time>2011-12-30T07:18:50Z</time>
      </trkpt>
      <trkpt lat="11.53966" lon="42.82993">
        <ele>323.14</ele>
        <time>2011-12-30T07:18:51Z</time>
      </trkpt>
      <trkpt lat="11.53965" lon="42.82989">
        <ele>319.78</ele>
        <time>2011-12-30T07:18:57Z</time>
      </trkpt>
      <trkpt lat="11.53965" lon="42.82989">
        <ele>320.26</ele>
        <time>2011-12-30T07:18:58Z</time>
      </trkpt>
      <trkpt lat="11.53964" lon="42.82985">
        <ele>322.18</ele>
        <time>2011-12-30T07:19:42Z</time>
      </trkpt>
      <trkpt lat="11.53964" lon="42.82986">
        <ele>322.18</ele>
        <time>2011-12-30T07:19:52Z</time>
      </trkpt>
      <trkpt lat="11.53963" lon="42.82983">
        <ele>318.81</ele>
        <time>2011-12-30T07:20:36Z</time>
      </trkpt>
      <trkpt lat="11.53959" lon="42.82975">
        <ele>318.33</ele>
        <time>2011-12-30T07:21:13Z</time>
      </trkpt>
      <trkpt lat="11.53957" lon="42.82972">
        <ele>322.18</ele>
        <time>2011-12-30T07:21:17Z</time>
      </trkpt>
      <trkpt lat="11.53957" lon="42.82968">
        <ele>319.3</ele>
        <time>2011-12-30T07:21:20Z</time>
      </trkpt>
      <trkpt lat="11.53956" lon="42.82967">
        <ele>315.45</ele>
        <time>2011-12-30T07:21:21Z</time>
      </trkpt>
      <trkpt lat="11.53957" lon="42.82966">
        <ele>318.81</ele>
        <time>2011-12-30T07:21:22Z</time>
      </trkpt>
      <trkpt lat="11.53957" lon="42.82966">
        <ele>319.3</ele>
        <time>2011-12-30T07:21:23Z</time>
      </trkpt>
      <trkpt lat="11.53961" lon="42.8296">
        <ele>320.26</ele>
        <time>2011-12-30T07:21:34Z</time>
      </trkpt>
      <trkpt lat="11.53963" lon="42.82959">
        <ele>316.41</ele>
        <time>2011-12-30T07:22:03Z</time>
      </trkpt>
      <trkpt lat="11.53963" lon="42.82957">
        <ele>321.22</ele>
        <time>2011-12-30T07:22:16Z</time>
      </trkpt>
      <trkpt lat="11.53962" lon="42.82954">
        <ele>318.81</ele>
        <time>2011-12-30T07:22:18Z</time>
      </trkpt>
      <trkpt lat="11.53954" lon="42.82953">
        <ele>319.3</ele>
        <time>2011-12-30T07:22:32Z</time>
      </trkpt>
      <trkpt lat="11.53976" lon="42.82961">
        <ele>318.81</ele>
        <time>2011-12-30T07:23:22Z</time>
      </trkpt>
      <trkpt lat="11.53979" lon="42.82962">
        <ele>318.81</ele>
        <time>2011-12-30T07:23:41Z</time>
      </trkpt>
      <trkpt lat="11.53984" lon="42.82959">
        <ele>317.85</ele>
        <time>2011-12-30T07:23:52Z</time>
      </trkpt>
      <trkpt lat="11.53985" lon="42.82955">
        <ele>318.33</ele>
        <time>2011-12-30T07:24:17Z</time>
      </trkpt>
      <trkpt lat="11.53994" lon="42.82947">
        <ele>316.89</ele>
        <time>2011-12-30T07:24:53Z</time>
      </trkpt>
      <trkpt lat="11.54001" lon="42.82945">
        <ele>316.89</ele>
        <time>2011-12-30T07:25:05Z</time>
      </trkpt>
      <trkpt lat="11.54004" lon="42.82945">
        <ele>316.41</ele>
        <time>2011-12-30T07:25:17Z</time>
      </trkpt>
      <trkpt lat="11.54004" lon="42.82945">
        <ele>313.05</ele>
        <time>2011-12-30T07:25:24Z</time>
      </trkpt>
      <trkpt lat="11.54005" lon="42.82944">
        <ele>313.53</ele>
        <time>2011-12-30T07:25:27Z</time>
      </trkpt>
      <trkpt lat="11.54007" lon="42.82942">
        <ele>315.45</ele>
        <time>2011-12-30T07:25:31Z</time>
      </trkpt>
      <trkpt lat="11.54007" lon="42.8294">
        <ele>312.57</ele>
        <time>2011-12-30T07:25:33Z</time>
      </trkpt>
      <trkpt lat="11.54007" lon="42.82937">
        <ele>316.41</ele>
        <time>2011-12-30T07:25:36Z</time>
      </trkpt>
      <trkpt lat="11.54008" lon="42.82936">
        <ele>315.45</ele>
        <time>2011-12-30T07:25:38Z</time>
      </trkpt>
      <trkpt lat="11.54009" lon="42.8293">
        <ele>314.49</ele>
        <time>2011-12-30T07:25:50Z</time>
      </trkpt>
      <trkpt lat="11.54009" lon="42.8293">
        <ele>311.12</ele>
        <time>2011-12-30T07:25:51Z</time>
      </trkpt>
      <trkpt lat="11.54009" lon="42.8293">
        <ele>313.05</ele>
        <time>2011-12-30T07:25:52Z</time>
      </trkpt>
      <trkpt lat="11.5401" lon="42.82931">
        <ele>318.33</ele>
        <time>2011-12-30T07:25:53Z</time>
      </trkpt>
      <trkpt lat="11.5401" lon="42.82931">
        <ele>314.97</ele>
        <time>2011-12-30T07:25:54Z</time>
      </trkpt>
      <trkpt lat="11.5401" lon="42.82931">
        <ele>314.01</ele>
        <time>2011-12-30T07:25:56Z</time>
      </trkpt>
      <trkpt lat="11.5401" lon="42.82933">
        <ele>314.01</ele>
        <time>2011-12-30T07:26:14Z</time>
      </trkpt>
      <trkpt lat="11.54011" lon="42.82935">
        <ele>316.41</ele>
        <time>2011-12-30T07:26:16Z</time>
      </trkpt>
      <trkpt lat="11.54012" lon="42.82937">
        <ele>312.09</ele>
        <time>2011-12-30T07:26:18Z</time>
      </trkpt>
      <trkpt lat="11.54011" lon="42.8294">
        <ele>317.37</ele>
        <time>2011-12-30T07:26:21Z</time>
      </trkpt>
      <trkpt lat="11.54009" lon="42.82942">
        <ele>312.57</ele>
        <time>2011-12-30T07:26:23Z</time>
      </trkpt>
      <trkpt lat="11.54008" lon="42.82942">
        <ele>316.41</ele>
        <time>2011-12-30T07:26:24Z</time>
      </trkpt>
      <trkpt lat="11.54006" lon="42.82944">
        <ele>311.12</ele>
        <time>2011-12-30T07:26:27Z</time>
      </trkpt>
      <trkpt lat="11.54005" lon="42.82944">
        <ele>315.45</ele>
        <time>2011-12-30T07:26:28Z</time>
      </trkpt>
      <trkpt lat="11.53997" lon="42.82947">
        <ele>318.33</ele>
        <time>2011-12-30T07:26:35Z</time>
      </trkpt>
      <trkpt lat="11.53994" lon="42.8295">
        <ele>321.22</ele>
        <time>2011-12-30T07:26:38Z</time>
      </trkpt>
      <trkpt lat="11.5399" lon="42.82953">
        <ele>318.33</ele>
        <time>2011-12-30T07:26:43Z</time>
      </trkpt>
      <trkpt lat="11.53981" lon="42.82954">
        <ele>318.81</ele>
        <time>2011-12-30T07:26:53Z</time>
      </trkpt>
      <trkpt lat="11.53979" lon="42.82954">
        <ele>313.05</ele>
        <time>2011-12-30T07:26:57Z</time>
      </trkpt>
      <trkpt lat="11.53978" lon="42.82954">
        <ele>320.26</ele>
        <time>2011-12-30T07:26:58Z</time>
      </trkpt>
      <trkpt lat="11.53978" lon="42.82954">
        <ele>316.89</ele>
        <time>2011-12-30T07:26:59Z</time>
      </trkpt>
      <trkpt lat="11.53977" lon="42.82954">
        <ele>312.57</ele>
        <time>2011-12-30T07:27:00Z</time>
      </trkpt>
      <trkpt lat="11.53976" lon="42.82954">
        <ele>320.26</ele>
        <time>2011-12-30T07:27:01Z</time>
      </trkpt>
      <trkpt lat="11.53975" lon="42.82955">
        <ele>318.81</ele>
        <time>2011-12-30T07:27:02Z</time>
      </trkpt>
      <trkpt lat="11.53974" lon="42.82955">
        <ele>315.45</ele>
        <time>2011-12-30T07:27:03Z</time>
      </trkpt>
      <trkpt lat="11.53973" lon="42.82955">
        <ele>319.3</ele>
        <time>2011-12-30T07:27:04Z</time>
      </trkpt>
      <trkpt lat="11.5397" lon="42.82957">
        <ele>315.93</ele>
        <time>2011-12-30T07:27:07Z</time>
      </trkpt>
      <trkpt lat="11.53969" lon="42.82958">
        <ele>319.3</ele>
        <time>2011-12-30T07:27:08Z</time>
      </trkpt>
      <trkpt lat="11.53965" lon="42.82962">
        <ele>319.78</ele>
        <time>2011-12-30T07:27:19Z</time>
      </trkpt>
      <trkpt lat="11.53964" lon="42.82966">
        <ele>319.3</ele>
        <time>2011-12-30T07:27:26Z</time>
      </trkpt>
      <trkpt lat="11.53964" lon="42.82974">
        <ele>323.62</ele>
        <time>2011-12-30T07:27:36Z</time>
      </trkpt>
      <trkpt lat="11.53964" lon="42.82976">
        <ele>317.85</ele>
        <time>2011-12-30T07:27:38Z</time>
      </trkpt>
      <trkpt lat="11.53964" lon="42.82977">
        <ele>320.74</ele>
        <time>2011-12-30T07:27:39Z</time>
      </trkpt>
      <trkpt lat="11.53966" lon="42.82982">
        <ele>324.1</ele>
        <time>2011-12-30T07:27:47Z</time>
      </trkpt>
      <trkpt lat="11.53966" lon="42.82985">
        <ele>321.22</ele>
        <time>2011-12-30T07:27:50Z</time>
      </trkpt>
      <trkpt lat="11.53967" lon="42.82987">
        <ele>322.18</ele>
        <time>2011-12-30T07:27:52Z</time>
      </trkpt>
      <trkpt lat="11.53966" lon="42.82988">
        <ele>322.66</ele>
        <time>2011-12-30T07:27:53Z</time>
      </trkpt>
      <trkpt lat="11.53962" lon="42.82995">
        <ele>319.78</ele>
        <time>2011-12-30T07:28:03Z</time>
      </trkpt>
      <trkpt lat="11.53962" lon="42.82995">
        <ele>324.58</ele>
        <time>2011-12-30T07:28:04Z</time>
      </trkpt>
      <trkpt lat="11.53962" lon="42.82995">
        <ele>323.62</ele>
        <time>2011-12-30T07:28:05Z</time>
      </trkpt>
      <trkpt lat="11.53962" lon="42.82996">
        <ele>310.64</ele>
        <time>2011-12-30T07:28:07Z</time>
      </trkpt>
      <trkpt lat="11.53961" lon="42.82996">
        <ele>327.47</ele>
        <time>2011-12-30T07:28:08Z</time>
      </trkpt>
      <trkpt lat="11.53961" lon="42.82996">
        <ele>316.41</ele>
        <time>2011-12-30T07:28:09Z</time>
      </trkpt>
      <trkpt lat="11.53961" lon="42.82997">
        <ele>328.43</ele>
        <time>2011-12-30T07:28:10Z</time>
      </trkpt>
      <trkpt lat="11.53961" lon="42.82997">
        <ele>324.58</ele>
        <time>2011-12-30T07:28:11Z</time>
      </trkpt>
      <trkpt lat="11.53961" lon="42.82998">
        <ele>330.83</ele>
        <time>2011-12-30T07:28:12Z</time>
      </trkpt>
      <trkpt lat="11.53961" lon="42.82998">
        <ele>319.3</ele>
        <time>2011-12-30T07:28:13Z</time>
      </trkpt>
      <trkpt lat="11.53961" lon="42.82999">
        <ele>325.06</ele>
        <time>2011-12-30T07:28:14Z</time>
      </trkpt>
      <trkpt lat="11.53964" lon="42.82998">
        <ele>316.41</ele>
        <time>2011-12-30T07:28:24Z</time>
      </trkpt>
      <trkpt lat="11.53965" lon="42.82998">
        <ele>320.74</ele>
        <time>2011-12-30T07:28:25Z</time>
      </trkpt>
      <trkpt lat="11.53965" lon="42.82997">
        <ele>325.54</ele>
        <time>2011-12-30T07:28:26Z</time>
      </trkpt>
      <trkpt lat="11.53966" lon="42.82997">
        <ele>329.39</ele>
        <time>2011-12-30T07:28:27Z</time>
      </trkpt>
      <trkpt lat="11.53966" lon="42.82997">
        <ele>324.58</ele>
        <time>2011-12-30T07:28:28Z</time>
      </trkpt>
      <trkpt lat="11.53967" lon="42.82997">
        <ele>327.95</ele>
        <time>2011-12-30T07:28:29Z</time>
      </trkpt>
      <trkpt lat="11.53969" lon="42.82993">
        <ele>328.43</ele>
        <time>2011-12-30T07:28:37Z</time>
      </trkpt>
      <trkpt lat="11.5397" lon="42.82989">
        <ele>329.39</ele>
        <time>2011-12-30T07:28:39Z</time>
      </trkpt>
      <trkpt lat="11.5397" lon="42.82984">
        <ele>327.95</ele>
        <time>2011-12-30T07:28:43Z</time>
      </trkpt>
      <trkpt lat="11.5397" lon="42.82983">
        <ele>332.27</ele>
        <time>2011-12-30T07:28:44Z</time>
      </trkpt>
      <trkpt lat="11.5397" lon="42.82982">
        <ele>330.83</ele>
        <time>2011-12-30T07:28:45Z</time>
      </trkpt>
      <trkpt lat="11.53973" lon="42.8298">
        <ele>331.79</ele>
        <time>2011-12-30T07:28:49Z</time>
      </trkpt>
      <trkpt lat="11.53978" lon="42.82977">
        <ele>333.23</ele>
        <time>2011-12-30T07:29:00Z</time>
      </trkpt>
      <trkpt lat="11.53975" lon="42.82981">
        <ele>330.83</ele>
        <time>2011-12-30T07:29:21Z</time>
      </trkpt>
      <trkpt lat="11.53972" lon="42.82989">
        <ele>328.91</ele>
        <time>2011-12-30T07:29:34Z</time>
      </trkpt>
      <trkpt lat="11.53972" lon="42.82992">
        <ele>326.5</ele>
        <time>2011-12-30T07:29:36Z</time>
      </trkpt>
      <trkpt lat="11.53971" lon="42.82993">
        <ele>328.91</ele>
        <time>2011-12-30T07:29:37Z</time>
      </trkpt>
      <trkpt lat="11.53962" lon="42.82999">
        <ele>326.5</ele>
        <time>2011-12-30T07:29:47Z</time>
      </trkpt>
      <trkpt lat="11.53959" lon="42.82997">
        <ele>325.54</ele>
        <time>2011-12-30T07:29:55Z</time>
      </trkpt>
      <trkpt lat="11.53958" lon="42.82996">
        <ele>326.99</ele>
        <time>2011-12-30T07:30:24Z</time>
      </trkpt>
      <trkpt lat="11.53956" lon="42.82998">
        <ele>327.47</ele>
        <time>2011-12-30T07:31:19Z</time>
      </trkpt>
      <trkpt lat="11.53955" lon="42.82999">
        <ele>327.95</ele>
        <time>2011-12-30T07:31:34Z</time>
      </trkpt>
      <trkpt lat="11.53952" lon="42.83003">
        <ele>324.1</ele>
        <time>2011-12-30T07:32:24Z</time>
      </trkpt>
      <trkpt lat="11.53951" lon="42.83004">
        <ele>327.47</ele>
        <time>2011-12-30T07:32:25Z</time>
      </trkpt>
      <trkpt lat="11.53949" lon="42.83007">
        <ele>327.95</ele>
        <time>2011-12-30T07:32:38Z</time>
      </trkpt>
      <trkpt lat="11.53945" lon="42.83011">
        <ele>328.91</ele>
        <time>2011-12-30T07:32:43Z</time>
      </trkpt>
      <trkpt lat="11.53938" lon="42.83015">
        <ele>327.47</ele>
        <time>2011-12-30T07:32:50Z</time>
      </trkpt>
      <trkpt lat="11.53937" lon="42.83016">
        <ele>330.83</ele>
        <time>2011-12-30T07:32:52Z</time>
      </trkpt>
      <trkpt lat="11.53936" lon="42.83016">
        <ele>326.99</ele>
        <time>2011-12-30T07:32:53Z</time>
      </trkpt>
      <trkpt lat="11.53935" lon="42.83017">
        <ele>327.95</ele>
        <time>2011-12-30T07:32:54Z</time>
      </trkpt>
      <trkpt lat="11.53933" lon="42.83018">
        <ele>330.83</ele>
        <time>2011-12-30T07:32:57Z</time>
      </trkpt>
      <trkpt lat="11.53932" lon="42.83018">
        <ele>327.47</ele>
        <time>2011-12-30T07:32:58Z</time>
      </trkpt>
      <trkpt lat="11.53931" lon="42.83019">
        <ele>328.43</ele>
        <time>2011-12-30T07:33:00Z</time>
      </trkpt>
      <trkpt lat="11.53927" lon="42.83024">
        <ele>330.83</ele>
        <time>2011-12-30T07:33:06Z</time>
      </trkpt>
      <trkpt lat="11.53926" lon="42.83028">
        <ele>328.91</ele>
        <time>2011-12-30T07:33:10Z</time>
      </trkpt>
      <trkpt lat="11.53925" lon="42.83029">
        <ele>329.39</ele>
        <time>2011-12-30T07:33:11Z</time>
      </trkpt>
      <trkpt lat="11.53922" lon="42.83033">
        <ele>332.27</ele>
        <time>2011-12-30T07:33:15Z</time>
      </trkpt>
      <trkpt lat="11.5392" lon="42.83033">
        <ele>327.47</ele>
        <time>2011-12-30T07:33:17Z</time>
      </trkpt>
      <trkpt lat="11.53919" lon="42.83034">
        <ele>330.83</ele>
        <time>2011-12-30T07:33:19Z</time>
      </trkpt>
      <trkpt lat="11.53919" lon="42.83036">
        <ele>335.64</ele>
        <time>2011-12-30T07:33:22Z</time>
      </trkpt>
      <trkpt lat="11.53919" lon="42.83037">
        <ele>328.43</ele>
        <time>2011-12-30T07:33:23Z</time>
      </trkpt>
      <trkpt lat="11.53919" lon="42.83038">
        <ele>330.35</ele>
        <time>2011-12-30T07:33:24Z</time>
      </trkpt>
      <trkpt lat="11.53918" lon="42.83042">
        <ele>328.91</ele>
        <time>2011-12-30T07:33:27Z</time>
      </trkpt>
      <trkpt lat="11.53918" lon="42.83044">
        <ele>331.79</ele>
        <time>2011-12-30T07:33:29Z</time>
      </trkpt>
      <trkpt lat="11.53918" lon="42.83046">
        <ele>327.47</ele>
        <time>2011-12-30T07:33:42Z</time>
      </trkpt>
      <trkpt lat="11.53919" lon="42.83047">
        <ele>331.79</ele>
        <time>2011-12-30T07:33:43Z</time>
      </trkpt>
      <trkpt lat="11.53919" lon="42.83047">
        <ele>328.43</ele>
        <time>2011-12-30T07:33:44Z</time>
      </trkpt>
      <trkpt lat="11.53921" lon="42.8305">
        <ele>332.27</ele>
        <time>2011-12-30T07:33:47Z</time>
      </trkpt>
      <trkpt lat="11.5392" lon="42.83052">
        <ele>328.91</ele>
        <time>2011-12-30T07:33:49Z</time>
      </trkpt>
      <trkpt lat="11.5392" lon="42.83054">
        <ele>332.75</ele>
        <time>2011-12-30T07:33:51Z</time>
      </trkpt>
      <trkpt lat="11.53922" lon="42.83058">
        <ele>330.35</ele>
        <time>2011-12-30T07:33:55Z</time>
      </trkpt>
      <trkpt lat="11.53921" lon="42.83061">
        <ele>330.35</ele>
        <time>2011-12-30T07:33:58Z</time>
      </trkpt>
      <trkpt lat="11.53921" lon="42.83061">
        <ele>334.2</ele>
        <time>2011-12-30T07:33:59Z</time>
      </trkpt>
      <trkpt lat="11.53921" lon="42.83061">
        <ele>339</ele>
        <time>2011-12-30T07:34:07Z</time>
      </trkpt>
      <trkpt lat="11.53921" lon="42.83062">
        <ele>330.83</ele>
        <time>2011-12-30T07:34:08Z</time>
      </trkpt>
      <trkpt lat="11.53922" lon="42.83064">
        <ele>333.71</ele>
        <time>2011-12-30T07:34:11Z</time>
      </trkpt>
      <trkpt lat="11.53922" lon="42.83066">
        <ele>328.91</ele>
        <time>2011-12-30T07:34:16Z</time>
      </trkpt>
      <trkpt lat="11.53921" lon="42.83066">
        <ele>331.79</ele>
        <time>2011-12-30T07:34:17Z</time>
      </trkpt>
      <trkpt lat="11.53921" lon="42.83068">
        <ele>336.6</ele>
        <time>2011-12-30T07:34:19Z</time>
      </trkpt>
      <trkpt lat="11.5392" lon="42.83069">
        <ele>331.31</ele>
        <time>2011-12-30T07:34:20Z</time>
      </trkpt>
      <trkpt lat="11.5392" lon="42.83071">
        <ele>331.79</ele>
        <time>2011-12-30T07:34:21Z</time>
      </trkpt>
      <trkpt lat="11.53919" lon="42.83072">
        <ele>333.71</ele>
        <time>2011-12-30T07:34:22Z</time>
      </trkpt>
      <trkpt lat="11.53919" lon="42.83075">
        <ele>331.79</ele>
        <time>2011-12-30T07:34:25Z</time>
      </trkpt>
      <trkpt lat="11.53919" lon="42.83076">
        <ele>329.39</ele>
        <time>2011-12-30T07:34:26Z</time>
      </trkpt>
      <trkpt lat="11.53917" lon="42.8308">
        <ele>335.64</ele>
        <time>2011-12-30T07:34:29Z</time>
      </trkpt>
      <trkpt lat="11.53914" lon="42.83089">
        <ele>335.16</ele>
        <time>2011-12-30T07:34:38Z</time>
      </trkpt>
      <trkpt lat="11.5391" lon="42.83093">
        <ele>337.08</ele>
        <time>2011-12-30T07:34:43Z</time>
      </trkpt>
      <trkpt lat="11.53909" lon="42.83094">
        <ele>332.27</ele>
        <time>2011-12-30T07:34:45Z</time>
      </trkpt>
      <trkpt lat="11.53907" lon="42.83095">
        <ele>337.08</ele>
        <time>2011-12-30T07:34:47Z</time>
      </trkpt>
      <trkpt lat="11.53905" lon="42.83098">
        <ele>335.16</ele>
        <time>2011-12-30T07:34:51Z</time>
      </trkpt>
      <trkpt lat="11.53903" lon="42.83101">
        <ele>336.6</ele>
        <time>2011-12-30T07:34:55Z</time>
      </trkpt>
      <trkpt lat="11.53899" lon="42.83104">
        <ele>332.27</ele>
        <time>2011-12-30T07:35:00Z</time>
      </trkpt>
      <trkpt lat="11.53899" lon="42.83104">
        <ele>337.08</ele>
        <time>2011-12-30T07:35:01Z</time>
      </trkpt>
      <trkpt lat="11.53896" lon="42.83107">
        <ele>332.75</ele>
        <time>2011-12-30T07:35:07Z</time>
      </trkpt>
      <trkpt lat="11.53894" lon="42.83116">
        <ele>338.52</ele>
        <time>2011-12-30T07:35:16Z</time>
      </trkpt>
      <trkpt lat="11.53895" lon="42.83119">
        <ele>334.2</ele>
        <time>2011-12-30T07:35:18Z</time>
      </trkpt>
      <trkpt lat="11.53895" lon="42.8312">
        <ele>335.64</ele>
        <time>2011-12-30T07:35:19Z</time>
      </trkpt>
      <trkpt lat="11.53896" lon="42.83122">
        <ele>339</ele>
        <time>2011-12-30T07:35:21Z</time>
      </trkpt>
      <trkpt lat="11.53896" lon="42.83125">
        <ele>340.44</ele>
        <time>2011-12-30T07:35:23Z</time>
      </trkpt>
      <trkpt lat="11.53896" lon="42.83126">
        <ele>336.6</ele>
        <time>2011-12-30T07:35:24Z</time>
      </trkpt>
      <trkpt lat="11.53896" lon="42.83127">
        <ele>337.56</ele>
        <time>2011-12-30T07:35:25Z</time>
      </trkpt>
      <trkpt lat="11.53897" lon="42.83132">
        <ele>339</ele>
        <time>2011-12-30T07:35:30Z</time>
      </trkpt>
      <trkpt lat="11.53894" lon="42.83138">
        <ele>339</ele>
        <time>2011-12-30T07:35:36Z</time>
      </trkpt>
      <trkpt lat="11.53891" lon="42.83141">
        <ele>341.89</ele>
        <time>2011-12-30T07:35:40Z</time>
      </trkpt>
      <trkpt lat="11.53891" lon="42.83141">
        <ele>338.52</ele>
        <time>2011-12-30T07:35:41Z</time>
      </trkpt>
      <trkpt lat="11.53889" lon="42.83143">
        <ele>343.81</ele>
        <time>2011-12-30T07:35:43Z</time>
      </trkpt>
      <trkpt lat="11.53888" lon="42.83144">
        <ele>343.33</ele>
        <time>2011-12-30T07:35:44Z</time>
      </trkpt>
      <trkpt lat="11.53886" lon="42.83145">
        <ele>339.48</ele>
        <time>2011-12-30T07:35:46Z</time>
      </trkpt>
      <trkpt lat="11.53884" lon="42.83146">
        <ele>339</ele>
        <time>2011-12-30T07:35:48Z</time>
      </trkpt>
      <trkpt lat="11.53876" lon="42.8315">
        <ele>338.04</ele>
        <time>2011-12-30T07:35:57Z</time>
      </trkpt>
      <trkpt lat="11.53875" lon="42.8315">
        <ele>339.96</ele>
        <time>2011-12-30T07:35:58Z</time>
      </trkpt>
      <trkpt lat="11.53871" lon="42.83152">
        <ele>336.12</ele>
        <time>2011-12-30T07:36:01Z</time>
      </trkpt>
      <trkpt lat="11.53871" lon="42.83152">
        <ele>337.56</ele>
        <time>2011-12-30T07:36:02Z</time>
      </trkpt>
      <trkpt lat="11.53868" lon="42.83153">
        <ele>342.37</ele>
        <time>2011-12-30T07:36:04Z</time>
      </trkpt>
      <trkpt lat="11.53864" lon="42.83156">
        <ele>340.92</ele>
        <time>2011-12-30T07:36:08Z</time>
      </trkpt>
      <trkpt lat="11.53862" lon="42.83158">
        <ele>340.44</ele>
        <time>2011-12-30T07:36:10Z</time>
      </trkpt>
      <trkpt lat="11.53859" lon="42.8316">
        <ele>341.41</ele>
        <time>2011-12-30T07:36:14Z</time>
      </trkpt>
      <trkpt lat="11.53851" lon="42.83168">
        <ele>345.25</ele>
        <time>2011-12-30T07:36:25Z</time>
      </trkpt>
      <trkpt lat="11.53851" lon="42.83169">
        <ele>338.52</ele>
        <time>2011-12-30T07:36:26Z</time>
      </trkpt>
      <trkpt lat="11.53851" lon="42.8317">
        <ele>341.89</ele>
        <time>2011-12-30T07:36:27Z</time>
      </trkpt>
      <trkpt lat="11.53851" lon="42.83172">
        <ele>338.52</ele>
        <time>2011-12-30T07:36:29Z</time>
      </trkpt>
      <trkpt lat="11.5385" lon="42.83174">
        <ele>343.33</ele>
        <time>2011-12-30T07:36:31Z</time>
      </trkpt>
      <trkpt lat="11.5385" lon="42.83176">
        <ele>338.52</ele>
        <time>2011-12-30T07:36:32Z</time>
      </trkpt>
      <trkpt lat="11.53851" lon="42.83176">
        <ele>342.37</ele>
        <time>2011-12-30T07:36:33Z</time>
      </trkpt>
      <trkpt lat="11.53852" lon="42.83177">
        <ele>338.52</ele>
        <time>2011-12-30T07:36:41Z</time>
      </trkpt>
      <trkpt lat="11.53852" lon="42.83177">
        <ele>340.92</ele>
        <time>2011-12-30T07:36:42Z</time>
      </trkpt>
      <trkpt lat="11.53853" lon="42.83178">
        <ele>342.85</ele>
        <time>2011-12-30T07:36:44Z</time>
      </trkpt>
      <trkpt lat="11.53854" lon="42.83179">
        <ele>338.04</ele>
        <time>2011-12-30T07:36:48Z</time>
      </trkpt>
      <trkpt lat="11.53854" lon="42.8318">
        <ele>342.37</ele>
        <time>2011-12-30T07:36:49Z</time>
      </trkpt>
      <trkpt lat="11.53856" lon="42.83183">
        <ele>341.41</ele>
        <time>2011-12-30T07:36:52Z</time>
      </trkpt>
      <trkpt lat="11.53859" lon="42.83189">
        <ele>341.89</ele>
        <time>2011-12-30T07:37:01Z</time>
      </trkpt>
      <trkpt lat="11.53858" lon="42.83194">
        <ele>340.92</ele>
        <time>2011-12-30T07:37:05Z</time>
      </trkpt>
      <trkpt lat="11.53858" lon="42.83195">
        <ele>342.85</ele>
        <time>2011-12-30T07:37:06Z</time>
      </trkpt>
      <trkpt lat="11.53859" lon="42.83198">
        <ele>340.92</ele>
        <time>2011-12-30T07:37:09Z</time>
      </trkpt>
      <trkpt lat="11.53859" lon="42.83199">
        <ele>342.37</ele>
        <time>2011-12-30T07:37:10Z</time>
      </trkpt>
      <trkpt lat="11.53859" lon="42.83201">
        <ele>343.81</ele>
        <time>2011-12-30T07:37:12Z</time>
      </trkpt>
      <trkpt lat="11.53859" lon="42.83202">
        <ele>339.96</ele>
        <time>2011-12-30T07:37:13Z</time>
      </trkpt>
      <trkpt lat="11.53859" lon="42.83203">
        <ele>344.77</ele>
        <time>2011-12-30T07:37:14Z</time>
      </trkpt>
      <trkpt lat="11.53858" lon="42.83205">
        <ele>340.92</ele>
        <time>2011-12-30T07:37:16Z</time>
      </trkpt>
      <trkpt lat="11.53857" lon="42.83206">
        <ele>341.89</ele>
        <time>2011-12-30T07:37:17Z</time>
      </trkpt>
      <trkpt lat="11.53857" lon="42.83207">
        <ele>347.65</ele>
        <time>2011-12-30T07:37:18Z</time>
      </trkpt>
      <trkpt lat="11.53857" lon="42.83208">
        <ele>344.77</ele>
        <time>2011-12-30T07:37:19Z</time>
      </trkpt>
      <trkpt lat="11.53857" lon="42.8321">
        <ele>346.21</ele>
        <time>2011-12-30T07:37:23Z</time>
      </trkpt>
      <trkpt lat="11.53855" lon="42.83215">
        <ele>342.37</ele>
        <time>2011-12-30T07:37:30Z</time>
      </trkpt>
      <trkpt lat="11.53855" lon="42.83215">
        <ele>346.21</ele>
        <time>2011-12-30T07:37:31Z</time>
      </trkpt>
      <trkpt lat="11.53855" lon="42.83216">
        <ele>347.65</ele>
        <time>2011-12-30T07:37:33Z</time>
      </trkpt>
      <trkpt lat="11.53855" lon="42.83219">
        <ele>346.21</ele>
        <time>2011-12-30T07:37:37Z</time>
      </trkpt>
      <trkpt lat="11.53855" lon="42.8322">
        <ele>346.69</ele>
        <time>2011-12-30T07:37:38Z</time>
      </trkpt>
      <trkpt lat="11.53857" lon="42.83225">
        <ele>345.25</ele>
        <time>2011-12-30T07:37:44Z</time>
      </trkpt>
      <trkpt lat="11.53857" lon="42.83226">
        <ele>346.69</ele>
        <time>2011-12-30T07:37:45Z</time>
      </trkpt>
      <trkpt lat="11.53856" lon="42.83228">
        <ele>345.25</ele>
        <time>2011-12-30T07:37:47Z</time>
      </trkpt>
      <trkpt lat="11.53855" lon="42.8323">
        <ele>348.62</ele>
        <time>2011-12-30T07:37:49Z</time>
      </trkpt>
      <trkpt lat="11.53854" lon="42.83233">
        <ele>343.81</ele>
        <time>2011-12-30T07:37:51Z</time>
      </trkpt>
      <trkpt lat="11.53854" lon="42.83234">
        <ele>349.1</ele>
        <time>2011-12-30T07:37:52Z</time>
      </trkpt>
      <trkpt lat="11.53852" lon="42.83238">
        <ele>350.54</ele>
        <time>2011-12-30T07:37:57Z</time>
      </trkpt>
      <trkpt lat="11.53852" lon="42.83238">
        <ele>347.65</ele>
        <time>2011-12-30T07:37:58Z</time>
      </trkpt>
      <trkpt lat="11.53851" lon="42.83239">
        <ele>347.65</ele>
        <time>2011-12-30T07:37:59Z</time>
      </trkpt>
      <trkpt lat="11.5385" lon="42.83241">
        <ele>346.69</ele>
        <time>2011-12-30T07:38:01Z</time>
      </trkpt>
      <trkpt lat="11.53851" lon="42.83241">
        <ele>350.06</ele>
        <time>2011-12-30T07:38:02Z</time>
      </trkpt>
      <trkpt lat="11.53853" lon="42.83243">
        <ele>350.54</ele>
        <time>2011-12-30T07:38:05Z</time>
      </trkpt>
      <trkpt lat="11.53853" lon="42.83247">
        <ele>351.5</ele>
        <time>2011-12-30T07:38:09Z</time>
      </trkpt>
      <trkpt lat="11.53853" lon="42.83251">
        <ele>351.98</ele>
        <time>2011-12-30T07:38:13Z</time>
      </trkpt>
      <trkpt lat="11.53854" lon="42.83253">
        <ele>353.9</ele>
        <time>2011-12-30T07:38:15Z</time>
      </trkpt>
      <trkpt lat="11.53855" lon="42.83255">
        <ele>350.54</ele>
        <time>2011-12-30T07:38:17Z</time>
      </trkpt>
      <trkpt lat="11.53855" lon="42.83257">
        <ele>346.21</ele>
        <time>2011-12-30T07:38:19Z</time>
      </trkpt>
      <trkpt lat="11.53855" lon="42.83258">
        <ele>350.54</ele>
        <time>2011-12-30T07:38:20Z</time>
      </trkpt>
      <trkpt lat="11.53855" lon="42.8326">
        <ele>352.94</ele>
        <time>2011-12-30T07:38:22Z</time>
      </trkpt>
      <trkpt lat="11.53856" lon="42.83261">
        <ele>347.17</ele>
        <time>2011-12-30T07:38:23Z</time>
      </trkpt>
      <trkpt lat="11.53856" lon="42.83262">
        <ele>351.98</ele>
        <time>2011-12-30T07:38:24Z</time>
      </trkpt>
      <trkpt lat="11.53857" lon="42.83265">
        <ele>350.06</ele>
        <time>2011-12-30T07:38:27Z</time>
      </trkpt>
      <trkpt lat="11.53857" lon="42.83266">
        <ele>353.42</ele>
        <time>2011-12-30T07:38:28Z</time>
      </trkpt>
      <trkpt lat="11.53857" lon="42.83268">
        <ele>352.94</ele>
        <time>2011-12-30T07:38:29Z</time>
      </trkpt>
      <trkpt lat="11.53857" lon="42.83269">
        <ele>349.58</ele>
        <time>2011-12-30T07:38:30Z</time>
      </trkpt>
      <trkpt lat="11.53857" lon="42.8327">
        <ele>353.42</ele>
        <time>2011-12-30T07:38:31Z</time>
      </trkpt>
      <trkpt lat="11.53857" lon="42.83271">
        <ele>353.9</ele>
        <time>2011-12-30T07:38:32Z</time>
      </trkpt>
      <trkpt lat="11.5386" lon="42.83277">
        <ele>347.17</ele>
        <time>2011-12-30T07:38:38Z</time>
      </trkpt>
      <trkpt lat="11.5386" lon="42.83278">
        <ele>353.9</ele>
        <time>2011-12-30T07:38:39Z</time>
      </trkpt>
      <trkpt lat="11.53859" lon="42.8328">
        <ele>351.98</ele>
        <time>2011-12-30T07:38:41Z</time>
      </trkpt>
      <trkpt lat="11.53859" lon="42.83283">
        <ele>352.46</ele>
        <time>2011-12-30T07:38:44Z</time>
      </trkpt>
      <trkpt lat="11.5386" lon="42.83289">
        <ele>360.15</ele>
        <time>2011-12-30T07:38:51Z</time>
      </trkpt>
      <trkpt lat="11.5386" lon="42.83289">
        <ele>357.27</ele>
        <time>2011-12-30T07:38:52Z</time>
      </trkpt>
      <trkpt lat="11.5386" lon="42.8329">
        <ele>365.92</ele>
        <time>2011-12-30T07:38:53Z</time>
      </trkpt>
      <trkpt lat="11.5386" lon="42.8329">
        <ele>352.46</ele>
        <time>2011-12-30T07:38:54Z</time>
      </trkpt>
      <trkpt lat="11.53859" lon="42.83293">
        <ele>352.94</ele>
        <time>2011-12-30T07:38:57Z</time>
      </trkpt>
      <trkpt lat="11.53859" lon="42.83294">
        <ele>356.79</ele>
        <time>2011-12-30T07:38:58Z</time>
      </trkpt>
      <trkpt lat="11.5386" lon="42.83297">
        <ele>354.86</ele>
        <time>2011-12-30T07:39:01Z</time>
      </trkpt>
      <trkpt lat="11.53861" lon="42.83301">
        <ele>356.31</ele>
        <time>2011-12-30T07:39:05Z</time>
      </trkpt>
      <trkpt lat="11.53861" lon="42.83304">
        <ele>352.46</ele>
        <time>2011-12-30T07:39:08Z</time>
      </trkpt>
      <trkpt lat="11.53862" lon="42.83306">
        <ele>357.75</ele>
        <time>2011-12-30T07:39:10Z</time>
      </trkpt>
      <trkpt lat="11.53863" lon="42.83307">
        <ele>353.42</ele>
        <time>2011-12-30T07:39:12Z</time>
      </trkpt>
      <trkpt lat="11.53863" lon="42.83308">
        <ele>357.75</ele>
        <time>2011-12-30T07:39:13Z</time>
      </trkpt>
      <trkpt lat="11.53863" lon="42.83309">
        <ele>362.07</ele>
        <time>2011-12-30T07:39:14Z</time>
      </trkpt>
      <trkpt lat="11.53864" lon="42.8331">
        <ele>354.86</ele>
        <time>2011-12-30T07:39:15Z</time>
      </trkpt>
      <trkpt lat="11.53864" lon="42.8331">
        <ele>356.31</ele>
        <time>2011-12-30T07:39:16Z</time>
      </trkpt>
      <trkpt lat="11.53864" lon="42.83312">
        <ele>357.27</ele>
        <time>2011-12-30T07:39:18Z</time>
      </trkpt>
      <trkpt lat="11.53865" lon="42.83313">
        <ele>352.94</ele>
        <time>2011-12-30T07:39:21Z</time>
      </trkpt>
      <trkpt lat="11.53865" lon="42.83313">
        <ele>354.38</ele>
        <time>2011-12-30T07:39:22Z</time>
      </trkpt>
      <trkpt lat="11.53866" lon="42.83314">
        <ele>359.19</ele>
        <time>2011-12-30T07:39:23Z</time>
      </trkpt>
      <trkpt lat="11.53867" lon="42.83317">
        <ele>352.94</ele>
        <time>2011-12-30T07:39:25Z</time>
      </trkpt>
      <trkpt lat="11.53866" lon="42.83319">
        <ele>359.67</ele>
        <time>2011-12-30T07:39:27Z</time>
      </trkpt>
      <trkpt lat="11.53866" lon="42.83321">
        <ele>359.19</ele>
        <time>2011-12-30T07:39:28Z</time>
      </trkpt>
      <trkpt lat="11.53866" lon="42.83322">
        <ele>353.42</ele>
        <time>2011-12-30T07:39:29Z</time>
      </trkpt>
      <trkpt lat="11.53866" lon="42.83325">
        <ele>359.67</ele>
        <time>2011-12-30T07:39:32Z</time>
      </trkpt>
      <trkpt lat="11.53866" lon="42.83327">
        <ele>352.94</ele>
        <time>2011-12-30T07:39:33Z</time>
      </trkpt>
      <trkpt lat="11.53866" lon="42.83327">
        <ele>358.23</ele>
        <time>2011-12-30T07:39:34Z</time>
      </trkpt>
      <trkpt lat="11.53866" lon="42.83329">
        <ele>360.15</ele>
        <time>2011-12-30T07:39:35Z</time>
      </trkpt>
      <trkpt lat="11.53866" lon="42.83331">
        <ele>355.34</ele>
        <time>2011-12-30T07:39:37Z</time>
      </trkpt>
      <trkpt lat="11.53867" lon="42.83331">
        <ele>359.67</ele>
        <time>2011-12-30T07:39:38Z</time>
      </trkpt>
      <trkpt lat="11.53871" lon="42.83334">
        <ele>360.63</ele>
        <time>2011-12-30T07:39:43Z</time>
      </trkpt>
      <trkpt lat="11.53871" lon="42.83334">
        <ele>363.04</ele>
        <time>2011-12-30T07:39:44Z</time>
      </trkpt>
      <trkpt lat="11.53876" lon="42.83332">
        <ele>355.34</ele>
        <time>2011-12-30T07:39:51Z</time>
      </trkpt>
      <trkpt lat="11.53877" lon="42.83332">
        <ele>362.07</ele>
        <time>2011-12-30T07:39:52Z</time>
      </trkpt>
      <trkpt lat="11.53878" lon="42.83331">
        <ele>361.59</ele>
        <time>2011-12-30T07:39:53Z</time>
      </trkpt>
      <trkpt lat="11.5388" lon="42.83332">
        <ele>360.63</ele>
        <time>2011-12-30T07:39:55Z</time>
      </trkpt>
      <trkpt lat="11.53884" lon="42.83334">
        <ele>356.31</ele>
        <time>2011-12-30T07:39:59Z</time>
      </trkpt>
      <trkpt lat="11.53885" lon="42.83335">
        <ele>360.63</ele>
        <time>2011-12-30T07:40:00Z</time>
      </trkpt>
      <trkpt lat="11.53887" lon="42.83338">
        <ele>356.31</ele>
        <time>2011-12-30T07:40:03Z</time>
      </trkpt>
      <trkpt lat="11.53888" lon="42.83338">
        <ele>359.67</ele>
        <time>2011-12-30T07:40:04Z</time>
      </trkpt>
      <trkpt lat="11.53889" lon="42.8334">
        <ele>362.07</ele>
        <time>2011-12-30T07:40:06Z</time>
      </trkpt>
      <trkpt lat="11.5389" lon="42.83342">
        <ele>358.71</ele>
        <time>2011-12-30T07:40:08Z</time>
      </trkpt>
      <trkpt lat="11.53891" lon="42.83343">
        <ele>363.04</ele>
        <time>2011-12-30T07:40:09Z</time>
      </trkpt>
      <trkpt lat="11.53892" lon="42.83344">
        <ele>363.04</ele>
        <time>2011-12-30T07:40:10Z</time>
      </trkpt>
      <trkpt lat="11.53892" lon="42.83344">
        <ele>358.23</ele>
        <time>2011-12-30T07:40:11Z</time>
      </trkpt>
      <trkpt lat="11.53893" lon="42.83345">
        <ele>360.15</ele>
        <time>2011-12-30T07:40:12Z</time>
      </trkpt>
      <trkpt lat="11.53894" lon="42.83346">
        <ele>363.52</ele>
        <time>2011-12-30T07:40:13Z</time>
      </trkpt>
      <trkpt lat="11.53897" lon="42.83349">
        <ele>355.83</ele>
        <time>2011-12-30T07:40:19Z</time>
      </trkpt>
      <trkpt lat="11.53899" lon="42.83351">
        <ele>366.88</ele>
        <time>2011-12-30T07:40:21Z</time>
      </trkpt>
      <trkpt lat="11.539" lon="42.83351">
        <ele>358.23</ele>
        <time>2011-12-30T07:40:22Z</time>
      </trkpt>
      <trkpt lat="11.539" lon="42.83352">
        <ele>361.11</ele>
        <time>2011-12-30T07:40:23Z</time>
      </trkpt>
      <trkpt lat="11.53903" lon="42.83352">
        <ele>365.44</ele>
        <time>2011-12-30T07:40:25Z</time>
      </trkpt>
      <trkpt lat="11.53904" lon="42.83352">
        <ele>357.75</ele>
        <time>2011-12-30T07:40:26Z</time>
      </trkpt>
      <trkpt lat="11.53904" lon="42.83351">
        <ele>362.55</ele>
        <time>2011-12-30T07:40:27Z</time>
      </trkpt>
      <trkpt lat="11.53909" lon="42.83351">
        <ele>365.44</ele>
        <time>2011-12-30T07:40:32Z</time>
      </trkpt>
      <trkpt lat="11.5391" lon="42.83353">
        <ele>369.76</ele>
        <time>2011-12-30T07:40:36Z</time>
      </trkpt>
      <trkpt lat="11.5391" lon="42.83354">
        <ele>363.04</ele>
        <time>2011-12-30T07:40:37Z</time>
      </trkpt>
      <trkpt lat="11.53912" lon="42.83355">
        <ele>361.59</ele>
        <time>2011-12-30T07:40:39Z</time>
      </trkpt>
      <trkpt lat="11.53915" lon="42.83355">
        <ele>361.11</ele>
        <time>2011-12-30T07:40:42Z</time>
      </trkpt>
      <trkpt lat="11.53916" lon="42.83355">
        <ele>367.36</ele>
        <time>2011-12-30T07:40:43Z</time>
      </trkpt>
      <trkpt lat="11.53918" lon="42.83355">
        <ele>368.32</ele>
        <time>2011-12-30T07:40:45Z</time>
      </trkpt>
      <trkpt lat="11.53921" lon="42.83355">
        <ele>371.21</ele>
        <time>2011-12-30T07:40:49Z</time>
      </trkpt>
      <trkpt lat="11.53922" lon="42.83355">
        <ele>363.04</ele>
        <time>2011-12-30T07:40:50Z</time>
      </trkpt>
      <trkpt lat="11.53923" lon="42.83356">
        <ele>367.84</ele>
        <time>2011-12-30T07:40:51Z</time>
      </trkpt>
      <trkpt lat="11.53924" lon="42.83356">
        <ele>375.05</ele>
        <time>2011-12-30T07:40:52Z</time>
      </trkpt>
      <trkpt lat="11.53924" lon="42.83356">
        <ele>361.59</ele>
        <time>2011-12-30T07:40:53Z</time>
      </trkpt>
      <trkpt lat="11.53925" lon="42.83356">
        <ele>367.84</ele>
        <time>2011-12-30T07:40:54Z</time>
      </trkpt>
      <trkpt lat="11.53927" lon="42.83357">
        <ele>364.48</ele>
        <time>2011-12-30T07:40:56Z</time>
      </trkpt>
      <trkpt lat="11.53927" lon="42.83358">
        <ele>364.96</ele>
        <time>2011-12-30T07:40:57Z</time>
      </trkpt>
      <trkpt lat="11.53928" lon="42.83358">
        <ele>369.76</ele>
        <time>2011-12-30T07:40:58Z</time>
      </trkpt>
      <trkpt lat="11.5393" lon="42.83359">
        <ele>361.11</ele>
        <time>2011-12-30T07:41:00Z</time>
      </trkpt>
      <trkpt lat="11.5393" lon="42.83359">
        <ele>368.32</ele>
        <time>2011-12-30T07:41:01Z</time>
      </trkpt>
      <trkpt lat="11.53934" lon="42.8336">
        <ele>371.21</ele>
        <time>2011-12-30T07:41:06Z</time>
      </trkpt>
      <trkpt lat="11.53938" lon="42.83363">
        <ele>364</ele>
        <time>2011-12-30T07:41:12Z</time>
      </trkpt>
      <trkpt lat="11.53938" lon="42.83364">
        <ele>372.17</ele>
        <time>2011-12-30T07:41:13Z</time>
      </trkpt>
      <trkpt lat="11.53939" lon="42.83364">
        <ele>366.4</ele>
        <time>2011-12-30T07:41:14Z</time>
      </trkpt>
      <trkpt lat="11.5394" lon="42.83365">
        <ele>371.69</ele>
        <time>2011-12-30T07:41:15Z</time>
      </trkpt>
      <trkpt lat="11.53941" lon="42.83365">
        <ele>363.04</ele>
        <time>2011-12-30T07:41:17Z</time>
      </trkpt>
      <trkpt lat="11.53942" lon="42.83368">
        <ele>364.96</ele>
        <time>2011-12-30T07:41:19Z</time>
      </trkpt>
      <trkpt lat="11.53942" lon="42.83368">
        <ele>371.21</ele>
        <time>2011-12-30T07:41:20Z</time>
      </trkpt>
      <trkpt lat="11.53943" lon="42.8337">
        <ele>372.17</ele>
        <time>2011-12-30T07:41:22Z</time>
      </trkpt>
      <trkpt lat="11.53945" lon="42.83373">
        <ele>370.73</ele>
        <time>2011-12-30T07:41:27Z</time>
      </trkpt>
      <trkpt lat="11.53949" lon="42.83382">
        <ele>374.09</ele>
        <time>2011-12-30T07:41:38Z</time>
      </trkpt>
      <trkpt lat="11.53951" lon="42.83385">
        <ele>366.4</ele>
        <time>2011-12-30T07:41:42Z</time>
      </trkpt>
      <trkpt lat="11.53951" lon="42.83386">
        <ele>374.09</ele>
        <time>2011-12-30T07:41:43Z</time>
      </trkpt>
      <trkpt lat="11.53951" lon="42.83387">
        <ele>372.17</ele>
        <time>2011-12-30T07:41:45Z</time>
      </trkpt>
      <trkpt lat="11.53952" lon="42.83389">
        <ele>374.57</ele>
        <time>2011-12-30T07:41:47Z</time>
      </trkpt>
      <trkpt lat="11.53954" lon="42.83392">
        <ele>371.69</ele>
        <time>2011-12-30T07:41:51Z</time>
      </trkpt>
      <trkpt lat="11.53956" lon="42.83393">
        <ele>367.36</ele>
        <time>2011-12-30T07:41:53Z</time>
      </trkpt>
      <trkpt lat="11.53956" lon="42.83394">
        <ele>375.05</ele>
        <time>2011-12-30T07:41:54Z</time>
      </trkpt>
      <trkpt lat="11.53957" lon="42.83396">
        <ele>381.3</ele>
        <time>2011-12-30T07:41:56Z</time>
      </trkpt>
      <trkpt lat="11.53958" lon="42.83396">
        <ele>376.97</ele>
        <time>2011-12-30T07:41:57Z</time>
      </trkpt>
      <trkpt lat="11.53959" lon="42.83397">
        <ele>374.57</ele>
        <time>2011-12-30T07:41:59Z</time>
      </trkpt>
      <trkpt lat="11.5396" lon="42.834">
        <ele>380.34</ele>
        <time>2011-12-30T07:42:02Z</time>
      </trkpt>
      <trkpt lat="11.5396" lon="42.83401">
        <ele>367.84</ele>
        <time>2011-12-30T07:42:03Z</time>
      </trkpt>
      <trkpt lat="11.53961" lon="42.83402">
        <ele>376.49</ele>
        <time>2011-12-30T07:42:04Z</time>
      </trkpt>
      <trkpt lat="11.53961" lon="42.83405">
        <ele>372.65</ele>
        <time>2011-12-30T07:42:08Z</time>
      </trkpt>
      <trkpt lat="11.53961" lon="42.83406">
        <ele>378.42</ele>
        <time>2011-12-30T07:42:09Z</time>
      </trkpt>
      <trkpt lat="11.53962" lon="42.83408">
        <ele>371.21</ele>
        <time>2011-12-30T07:42:12Z</time>
      </trkpt>
      <trkpt lat="11.53963" lon="42.83409">
        <ele>378.42</ele>
        <time>2011-12-30T07:42:13Z</time>
      </trkpt>
      <trkpt lat="11.53965" lon="42.83411">
        <ele>369.28</ele>
        <time>2011-12-30T07:42:17Z</time>
      </trkpt>
      <trkpt lat="11.53965" lon="42.83411">
        <ele>378.9</ele>
        <time>2011-12-30T07:42:18Z</time>
      </trkpt>
      <trkpt lat="11.53966" lon="42.83412">
        <ele>374.57</ele>
        <time>2011-12-30T07:42:19Z</time>
      </trkpt>
      <trkpt lat="11.53966" lon="42.83412">
        <ele>378.9</ele>
        <time>2011-12-30T07:42:20Z</time>
      </trkpt>
      <trkpt lat="11.53966" lon="42.83413">
        <ele>375.53</ele>
        <time>2011-12-30T07:42:21Z</time>
      </trkpt>
      <trkpt lat="11.53966" lon="42.83413">
        <ele>379.38</ele>
        <time>2011-12-30T07:42:22Z</time>
      </trkpt>
      <trkpt lat="11.53967" lon="42.83414">
        <ele>383.22</ele>
        <time>2011-12-30T07:42:23Z</time>
      </trkpt>
      <trkpt lat="11.53967" lon="42.83414">
        <ele>381.3</ele>
        <time>2011-12-30T07:42:24Z</time>
      </trkpt>
      <trkpt lat="11.53968" lon="42.83414">
        <ele>378.9</ele>
        <time>2011-12-30T07:42:27Z</time>
      </trkpt>
      <trkpt lat="11.53968" lon="42.83415">
        <ele>369.76</ele>
        <time>2011-12-30T07:42:28Z</time>
      </trkpt>
      <trkpt lat="11.53971" lon="42.83418">
        <ele>381.78</ele>
        <time>2011-12-30T07:42:31Z</time>
      </trkpt>
      <trkpt lat="11.53977" lon="42.83422">
        <ele>383.7</ele>
        <time>2011-12-30T07:42:39Z</time>
      </trkpt>
      <trkpt lat="11.53978" lon="42.83423">
        <ele>376.01</ele>
        <time>2011-12-30T07:42:40Z</time>
      </trkpt>
      <trkpt lat="11.53979" lon="42.83423">
        <ele>381.78</ele>
        <time>2011-12-30T07:42:41Z</time>
      </trkpt>
      <trkpt lat="11.53982" lon="42.83426">
        <ele>382.74</ele>
        <time>2011-12-30T07:42:45Z</time>
      </trkpt>
      <trkpt lat="11.53983" lon="42.83426">
        <ele>382.74</ele>
        <time>2011-12-30T07:42:46Z</time>
      </trkpt>
      <trkpt lat="11.53986" lon="42.83426">
        <ele>377.94</ele>
        <time>2011-12-30T07:42:49Z</time>
      </trkpt>
      <trkpt lat="11.53987" lon="42.83427">
        <ele>384.66</ele>
        <time>2011-12-30T07:42:50Z</time>
      </trkpt>
      <trkpt lat="11.53988" lon="42.83427">
        <ele>375.05</ele>
        <time>2011-12-30T07:42:51Z</time>
      </trkpt>
      <trkpt lat="11.53991" lon="42.83427">
        <ele>385.63</ele>
        <time>2011-12-30T07:42:54Z</time>
      </trkpt>
      <trkpt lat="11.53993" lon="42.83427">
        <ele>376.97</ele>
        <time>2011-12-30T07:42:57Z</time>
      </trkpt>
      <trkpt lat="11.53995" lon="42.83427">
        <ele>383.22</ele>
        <time>2011-12-30T07:42:58Z</time>
      </trkpt>
      <trkpt lat="11.53996" lon="42.83428">
        <ele>377.94</ele>
        <time>2011-12-30T07:42:59Z</time>
      </trkpt>
      <trkpt lat="11.53997" lon="42.83428">
        <ele>383.22</ele>
        <time>2011-12-30T07:43:00Z</time>
      </trkpt>
      <trkpt lat="11.53999" lon="42.83428">
        <ele>386.11</ele>
        <time>2011-12-30T07:43:02Z</time>
      </trkpt>
      <trkpt lat="11.54" lon="42.83428">
        <ele>384.66</ele>
        <time>2011-12-30T07:43:03Z</time>
      </trkpt>
      <trkpt lat="11.54002" lon="42.83429">
        <ele>389.95</ele>
        <time>2011-12-30T07:43:05Z</time>
      </trkpt>
      <trkpt lat="11.54003" lon="42.83429">
        <ele>380.82</ele>
        <time>2011-12-30T07:43:06Z</time>
      </trkpt>
      <trkpt lat="11.54004" lon="42.8343">
        <ele>386.59</ele>
        <time>2011-12-30T07:43:07Z</time>
      </trkpt>
      <trkpt lat="11.54005" lon="42.8343">
        <ele>382.26</ele>
        <time>2011-12-30T07:43:08Z</time>
      </trkpt>
      <trkpt lat="11.54005" lon="42.8343">
        <ele>385.15</ele>
        <time>2011-12-30T07:43:09Z</time>
      </trkpt>
      <trkpt lat="11.54007" lon="42.8343">
        <ele>381.3</ele>
        <time>2011-12-30T07:43:11Z</time>
      </trkpt>
      <trkpt lat="11.54007" lon="42.8343">
        <ele>385.63</ele>
        <time>2011-12-30T07:43:12Z</time>
      </trkpt>
      <trkpt lat="11.54008" lon="42.83431">
        <ele>388.51</ele>
        <time>2011-12-30T07:43:13Z</time>
      </trkpt>
      <trkpt lat="11.54009" lon="42.83431">
        <ele>381.3</ele>
        <time>2011-12-30T07:43:14Z</time>
      </trkpt>
      <trkpt lat="11.5401" lon="42.83432">
        <ele>386.11</ele>
        <time>2011-12-30T07:43:15Z</time>
      </trkpt>
      <trkpt lat="11.54011" lon="42.83433">
        <ele>379.86</ele>
        <time>2011-12-30T07:43:16Z</time>
      </trkpt>
      <trkpt lat="11.54011" lon="42.83433">
        <ele>386.59</ele>
        <time>2011-12-30T07:43:17Z</time>
      </trkpt>
      <trkpt lat="11.54014" lon="42.83435">
        <ele>380.34</ele>
        <time>2011-12-30T07:43:20Z</time>
      </trkpt>
      <trkpt lat="11.54015" lon="42.83436">
        <ele>386.59</ele>
        <time>2011-12-30T07:43:21Z</time>
      </trkpt>
      <trkpt lat="11.54016" lon="42.83436">
        <ele>386.11</ele>
        <time>2011-12-30T07:43:23Z</time>
      </trkpt>
      <trkpt lat="11.54022" lon="42.83437">
        <ele>383.22</ele>
        <time>2011-12-30T07:43:29Z</time>
      </trkpt>
      <trkpt lat="11.54023" lon="42.83438">
        <ele>387.55</ele>
        <time>2011-12-30T07:43:30Z</time>
      </trkpt>
      <trkpt lat="11.54024" lon="42.83438">
        <ele>392.36</ele>
        <time>2011-12-30T07:43:31Z</time>
      </trkpt>
      <trkpt lat="11.54025" lon="42.83438">
        <ele>379.38</ele>
        <time>2011-12-30T07:43:32Z</time>
      </trkpt>
      <trkpt lat="11.54025" lon="42.83438">
        <ele>386.59</ele>
        <time>2011-12-30T07:43:33Z</time>
      </trkpt>
      <trkpt lat="11.54026" lon="42.83438">
        <ele>393.32</ele>
        <time>2011-12-30T07:43:34Z</time>
      </trkpt>
      <trkpt lat="11.54027" lon="42.83439">
        <ele>379.38</ele>
        <time>2011-12-30T07:43:35Z</time>
      </trkpt>
      <trkpt lat="11.54028" lon="42.83439">
        <ele>385.63</ele>
        <time>2011-12-30T07:43:36Z</time>
      </trkpt>
      <trkpt lat="11.54029" lon="42.8344">
        <ele>389.47</ele>
        <time>2011-12-30T07:43:37Z</time>
      </trkpt>
      <trkpt lat="11.5403" lon="42.8344">
        <ele>389.47</ele>
        <time>2011-12-30T07:43:38Z</time>
      </trkpt>
      <trkpt lat="11.54031" lon="42.8344">
        <ele>385.15</ele>
        <time>2011-12-30T07:43:39Z</time>
      </trkpt>
      <trkpt lat="11.54032" lon="42.8344">
        <ele>389.95</ele>
        <time>2011-12-30T07:43:40Z</time>
      </trkpt>
      <trkpt lat="11.54042" lon="42.83442">
        <ele>387.55</ele>
        <time>2011-12-30T07:43:51Z</time>
      </trkpt>
      <trkpt lat="11.54044" lon="42.83441">
        <ele>386.59</ele>
        <time>2011-12-30T07:43:56Z</time>
      </trkpt>
      <trkpt lat="11.54044" lon="42.83441">
        <ele>386.59</ele>
        <time>2011-12-30T07:44:13Z</time>
      </trkpt>
      <trkpt lat="11.54048" lon="42.83439">
        <ele>384.66</ele>
        <time>2011-12-30T07:44:35Z</time>
      </trkpt>
      <trkpt lat="11.5405" lon="42.83438">
        <ele>384.66</ele>
        <time>2011-12-30T07:44:38Z</time>
      </trkpt>
      <trkpt lat="11.54054" lon="42.83436">
        <ele>384.18</ele>
        <time>2011-12-30T07:44:42Z</time>
      </trkpt>
      <trkpt lat="11.54061" lon="42.83431">
        <ele>381.3</ele>
        <time>2011-12-30T07:44:51Z</time>
      </trkpt>
      <trkpt lat="11.54063" lon="42.83429">
        <ele>380.82</ele>
        <time>2011-12-30T07:44:53Z</time>
      </trkpt>
      <trkpt lat="11.54067" lon="42.83428">
        <ele>380.34</ele>
        <time>2011-12-30T07:44:57Z</time>
      </trkpt>
      <trkpt lat="11.54071" lon="42.83426">
        <ele>379.86</ele>
        <time>2011-12-30T07:45:01Z</time>
      </trkpt>
      <trkpt lat="11.54076" lon="42.83422">
        <ele>379.38</ele>
        <time>2011-12-30T07:45:07Z</time>
      </trkpt>
      <trkpt lat="11.5408" lon="42.83418">
        <ele>375.53</ele>
        <time>2011-12-30T07:45:13Z</time>
      </trkpt>
      <trkpt lat="11.54081" lon="42.83418">
        <ele>375.53</ele>
        <time>2011-12-30T07:45:14Z</time>
      </trkpt>
      <trkpt lat="11.54083" lon="42.83416">
        <ele>376.01</ele>
        <time>2011-12-30T07:45:17Z</time>
      </trkpt>
      <trkpt lat="11.54086" lon="42.83417">
        <ele>376.97</ele>
        <time>2011-12-30T07:45:20Z</time>
      </trkpt>
      <trkpt lat="11.54088" lon="42.83418">
        <ele>376.01</ele>
        <time>2011-12-30T07:45:22Z</time>
      </trkpt>
      <trkpt lat="11.54093" lon="42.8342">
        <ele>378.42</ele>
        <time>2011-12-30T07:45:26Z</time>
      </trkpt>
      <trkpt lat="11.541" lon="42.83422">
        <ele>375.53</ele>
        <time>2011-12-30T07:45:37Z</time>
      </trkpt>
      <trkpt lat="11.54108" lon="42.83421">
        <ele>374.09</ele>
        <time>2011-12-30T07:45:57Z</time>
      </trkpt>
      <trkpt lat="11.54109" lon="42.83421">
        <ele>370.73</ele>
        <time>2011-12-30T07:45:58Z</time>
      </trkpt>
      <trkpt lat="11.5411" lon="42.83421">
        <ele>372.17</ele>
        <time>2011-12-30T07:45:59Z</time>
      </trkpt>
      <trkpt lat="11.54114" lon="42.83421">
        <ele>373.61</ele>
        <time>2011-12-30T07:46:02Z</time>
      </trkpt>
      <trkpt lat="11.54115" lon="42.83421">
        <ele>369.76</ele>
        <time>2011-12-30T07:46:03Z</time>
      </trkpt>
      <trkpt lat="11.54116" lon="42.83421">
        <ele>372.17</ele>
        <time>2011-12-30T07:46:04Z</time>
      </trkpt>
      <trkpt lat="11.54118" lon="42.8342">
        <ele>375.05</ele>
        <time>2011-12-30T07:46:06Z</time>
      </trkpt>
      <trkpt lat="11.54121" lon="42.83419">
        <ele>372.17</ele>
        <time>2011-12-30T07:46:09Z</time>
      </trkpt>
      <trkpt lat="11.54132" lon="42.83412">
        <ele>372.65</ele>
        <time>2011-12-30T07:46:19Z</time>
      </trkpt>
      <trkpt lat="11.54135" lon="42.8341">
        <ele>368.32</ele>
        <time>2011-12-30T07:46:22Z</time>
      </trkpt>
      <trkpt lat="11.54136" lon="42.83409">
        <ele>370.73</ele>
        <time>2011-12-30T07:46:23Z</time>
      </trkpt>
      <trkpt lat="11.5414" lon="42.83404">
        <ele>369.28</ele>
        <time>2011-12-30T07:46:29Z</time>
      </trkpt>
      <trkpt lat="11.54141" lon="42.83403">
        <ele>371.21</ele>
        <time>2011-12-30T07:46:31Z</time>
      </trkpt>
      <trkpt lat="11.54142" lon="42.834">
        <ele>373.13</ele>
        <time>2011-12-30T07:46:34Z</time>
      </trkpt>
      <trkpt lat="11.54142" lon="42.83399">
        <ele>371.69</ele>
        <time>2011-12-30T07:46:35Z</time>
      </trkpt>
      <trkpt lat="11.54144" lon="42.83397">
        <ele>370.73</ele>
        <time>2011-12-30T07:46:37Z</time>
      </trkpt>
      <trkpt lat="11.54147" lon="42.83391">
        <ele>373.61</ele>
        <time>2011-12-30T07:46:43Z</time>
      </trkpt>
      <trkpt lat="11.54147" lon="42.83388">
        <ele>369.76</ele>
        <time>2011-12-30T07:46:46Z</time>
      </trkpt>
      <trkpt lat="11.54147" lon="42.83387">
        <ele>372.17</ele>
        <time>2011-12-30T07:46:47Z</time>
      </trkpt>
      <trkpt lat="11.54148" lon="42.83385">
        <ele>369.76</ele>
        <time>2011-12-30T07:46:49Z</time>
      </trkpt>
      <trkpt lat="11.54152" lon="42.83382">
        <ele>370.24</ele>
        <time>2011-12-30T07:46:53Z</time>
      </trkpt>
      <trkpt lat="11.54153" lon="42.83372">
        <ele>370.73</ele>
        <time>2011-12-30T07:47:03Z</time>
      </trkpt>
      <trkpt lat="11.54152" lon="42.83371">
        <ele>371.69</ele>
        <time>2011-12-30T07:47:05Z</time>
      </trkpt>
      <trkpt lat="11.54153" lon="42.83367">
        <ele>368.8</ele>
        <time>2011-12-30T07:47:08Z</time>
      </trkpt>
      <trkpt lat="11.54152" lon="42.83365">
        <ele>368.8</ele>
        <time>2011-12-30T07:47:10Z</time>
      </trkpt>
      <trkpt lat="11.54152" lon="42.83363">
        <ele>369.76</ele>
        <time>2011-12-30T07:47:12Z</time>
      </trkpt>
      <trkpt lat="11.5415" lon="42.8336">
        <ele>364.48</ele>
        <time>2011-12-30T07:47:14Z</time>
      </trkpt>
      <trkpt lat="11.5415" lon="42.8336">
        <ele>368.32</ele>
        <time>2011-12-30T07:47:15Z</time>
      </trkpt>
      <trkpt lat="11.5415" lon="42.83358">
        <ele>369.76</ele>
        <time>2011-12-30T07:47:17Z</time>
      </trkpt>
      <trkpt lat="11.5415" lon="42.83359">
        <ele>370.24</ele>
        <time>2011-12-30T07:47:26Z</time>
      </trkpt>
      <trkpt lat="11.54159" lon="42.83366">
        <ele>366.4</ele>
        <time>2011-12-30T07:47:36Z</time>
      </trkpt>
      <trkpt lat="11.54162" lon="42.83368">
        <ele>359.19</ele>
        <time>2011-12-30T07:47:39Z</time>
      </trkpt>
      <trkpt lat="11.54163" lon="42.83368">
        <ele>366.88</ele>
        <time>2011-12-30T07:47:40Z</time>
      </trkpt>
      <trkpt lat="11.54164" lon="42.83369">
        <ele>369.76</ele>
        <time>2011-12-30T07:47:41Z</time>
      </trkpt>
      <trkpt lat="11.5417" lon="42.83373">
        <ele>365.92</ele>
        <time>2011-12-30T07:47:57Z</time>
      </trkpt>
      <trkpt lat="11.5417" lon="42.83373">
        <ele>365.92</ele>
        <time>2011-12-30T07:47:58Z</time>
      </trkpt>
      <trkpt lat="11.5417" lon="42.83373">
        <ele>364.48</ele>
        <time>2011-12-30T07:48:01Z</time>
      </trkpt>
      <trkpt lat="11.5417" lon="42.83373">
        <ele>363.52</ele>
        <time>2011-12-30T07:48:14Z</time>
      </trkpt>
      <trkpt lat="11.54171" lon="42.83383">
        <ele>362.07</ele>
        <time>2011-12-30T07:48:22Z</time>
      </trkpt>
      <trkpt lat="11.54174" lon="42.83386">
        <ele>361.59</ele>
        <time>2011-12-30T07:48:29Z</time>
      </trkpt>
      <trkpt lat="11.54177" lon="42.83385">
        <ele>360.63</ele>
        <time>2011-12-30T07:48:32Z</time>
      </trkpt>
      <trkpt lat="11.54182" lon="42.83383">
        <ele>358.23</ele>
        <time>2011-12-30T07:48:37Z</time>
      </trkpt>
      <trkpt lat="11.54184" lon="42.83384">
        <ele>358.71</ele>
        <time>2011-12-30T07:48:39Z</time>
      </trkpt>
      <trkpt lat="11.54186" lon="42.83384">
        <ele>359.67</ele>
        <time>2011-12-30T07:49:00Z</time>
      </trkpt>
      <trkpt lat="11.54185" lon="42.83384">
        <ele>359.67</ele>
        <time>2011-12-30T07:49:19Z</time>
      </trkpt>
      <trkpt lat="11.54187" lon="42.83384">
        <ele>358.23</ele>
        <time>2011-12-30T07:49:24Z</time>
      </trkpt>
      <trkpt lat="11.54194" lon="42.83381">
        <ele>357.27</ele>
        <time>2011-12-30T07:49:32Z</time>
      </trkpt>
      <trkpt lat="11.54201" lon="42.83378">
        <ele>355.34</ele>
        <time>2011-12-30T07:49:43Z</time>
      </trkpt>
      <trkpt lat="11.54202" lon="42.83375">
        <ele>354.38</ele>
        <time>2011-12-30T07:49:46Z</time>
      </trkpt>
      <trkpt lat="11.54201" lon="42.83373">
        <ele>352.46</ele>
        <time>2011-12-30T07:49:48Z</time>
      </trkpt>
      <trkpt lat="11.54199" lon="42.8337">
        <ele>353.42</ele>
        <time>2011-12-30T07:50:04Z</time>
      </trkpt>
      <trkpt lat="11.54198" lon="42.83367">
        <ele>352.46</ele>
        <time>2011-12-30T07:50:33Z</time>
      </trkpt>
      <trkpt lat="11.54197" lon="42.83361">
        <ele>349.58</ele>
        <time>2011-12-30T07:50:39Z</time>
      </trkpt>
      <trkpt lat="11.54195" lon="42.83355">
        <ele>347.17</ele>
        <time>2011-12-30T07:50:52Z</time>
      </trkpt>
      <trkpt lat="11.54198" lon="42.83355">
        <ele>344.77</ele>
        <time>2011-12-30T07:51:01Z</time>
      </trkpt>
      <trkpt lat="11.54199" lon="42.83354">
        <ele>342.37</ele>
        <time>2011-12-30T07:51:07Z</time>
      </trkpt>
      <trkpt lat="11.54203" lon="42.83354">
        <ele>340.92</ele>
        <time>2011-12-30T07:51:19Z</time>
      </trkpt>
      <trkpt lat="11.54208" lon="42.83355">
        <ele>340.92</ele>
        <time>2011-12-30T07:51:27Z</time>
      </trkpt>
      <trkpt lat="11.5422" lon="42.8336">
        <ele>338.04</ele>
        <time>2011-12-30T07:51:37Z</time>
      </trkpt>
      <trkpt lat="11.5423" lon="42.83359">
        <ele>335.64</ele>
        <time>2011-12-30T07:51:54Z</time>
      </trkpt>
      <trkpt lat="11.54231" lon="42.83361">
        <ele>334.2</ele>
        <time>2011-12-30T07:52:02Z</time>
      </trkpt>
      <trkpt lat="11.54237" lon="42.83364">
        <ele>330.83</ele>
        <time>2011-12-30T07:52:14Z</time>
      </trkpt>
      <trkpt lat="11.54246" lon="42.83364">
        <ele>329.87</ele>
        <time>2011-12-30T07:52:24Z</time>
      </trkpt>
      <trkpt lat="11.54248" lon="42.83365">
        <ele>328.43</ele>
        <time>2011-12-30T07:52:27Z</time>
      </trkpt>
      <trkpt lat="11.54253" lon="42.83364">
        <ele>334.2</ele>
        <time>2011-12-30T07:52:32Z</time>
      </trkpt>
      <trkpt lat="11.54253" lon="42.83364">
        <ele>330.35</ele>
        <time>2011-12-30T07:52:33Z</time>
      </trkpt>
      <trkpt lat="11.54253" lon="42.83364">
        <ele>328.43</ele>
        <time>2011-12-30T07:52:35Z</time>
      </trkpt>
      <trkpt lat="11.54257" lon="42.83365">
        <ele>326.5</ele>
        <time>2011-12-30T07:52:40Z</time>
      </trkpt>
      <trkpt lat="11.54258" lon="42.83365">
        <ele>327.47</ele>
        <time>2011-12-30T07:52:42Z</time>
      </trkpt>
      <trkpt lat="11.54263" lon="42.83365">
        <ele>326.5</ele>
        <time>2011-12-30T07:53:06Z</time>
      </trkpt>
      <trkpt lat="11.54264" lon="42.83365">
        <ele>324.1</ele>
        <time>2011-12-30T07:54:08Z</time>
      </trkpt>
      <trkpt lat="11.54266" lon="42.83363">
        <ele>326.99</ele>
        <time>2011-12-30T07:54:13Z</time>
      </trkpt>
      <trkpt lat="11.54267" lon="42.83362">
        <ele>327.47</ele>
        <time>2011-12-30T07:54:17Z</time>
      </trkpt>
      <trkpt lat="11.54278" lon="42.83357">
        <ele>324.1</ele>
        <time>2011-12-30T07:54:27Z</time>
      </trkpt>
      <trkpt lat="11.54279" lon="42.83356">
        <ele>326.99</ele>
        <time>2011-12-30T07:54:29Z</time>
      </trkpt>
      <trkpt lat="11.54282" lon="42.83356">
        <ele>324.1</ele>
        <time>2011-12-30T07:54:32Z</time>
      </trkpt>
      <trkpt lat="11.54288" lon="42.83354">
        <ele>326.5</ele>
        <time>2011-12-30T07:54:41Z</time>
      </trkpt>
      <trkpt lat="11.54298" lon="42.83352">
        <ele>325.54</ele>
        <time>2011-12-30T07:54:51Z</time>
      </trkpt>
      <trkpt lat="11.54301" lon="42.83351">
        <ele>323.62</ele>
        <time>2011-12-30T07:54:54Z</time>
      </trkpt>
      <trkpt lat="11.54306" lon="42.83351">
        <ele>325.54</ele>
        <time>2011-12-30T07:54:59Z</time>
      </trkpt>
      <trkpt lat="11.54314" lon="42.83348">
        <ele>322.66</ele>
        <time>2011-12-30T07:55:06Z</time>
      </trkpt>
      <trkpt lat="11.54318" lon="42.83346">
        <ele>324.1</ele>
        <time>2011-12-30T07:55:11Z</time>
      </trkpt>
      <trkpt lat="11.5432" lon="42.83344">
        <ele>325.06</ele>
        <time>2011-12-30T07:55:13Z</time>
      </trkpt>
      <trkpt lat="11.54321" lon="42.83344">
        <ele>323.62</ele>
        <time>2011-12-30T07:55:14Z</time>
      </trkpt>
      <trkpt lat="11.54324" lon="42.83342">
        <ele>322.18</ele>
        <time>2011-12-30T07:55:17Z</time>
      </trkpt>
      <trkpt lat="11.54325" lon="42.83339">
        <ele>323.14</ele>
        <time>2011-12-30T07:55:19Z</time>
      </trkpt>
      <trkpt lat="11.54327" lon="42.83337">
        <ele>321.7</ele>
        <time>2011-12-30T07:55:22Z</time>
      </trkpt>
      <trkpt lat="11.54331" lon="42.83327">
        <ele>323.14</ele>
        <time>2011-12-30T07:55:31Z</time>
      </trkpt>
      <trkpt lat="11.54336" lon="42.83324">
        <ele>319.78</ele>
        <time>2011-12-30T07:55:39Z</time>
      </trkpt>
      <trkpt lat="11.54344" lon="42.83326">
        <ele>319.78</ele>
        <time>2011-12-30T07:55:47Z</time>
      </trkpt>
      <trkpt lat="11.54347" lon="42.83326">
        <ele>318.81</ele>
        <time>2011-12-30T07:55:51Z</time>
      </trkpt>
      <trkpt lat="11.54353" lon="42.83326">
        <ele>317.37</ele>
        <time>2011-12-30T07:55:56Z</time>
      </trkpt>
      <trkpt lat="11.54354" lon="42.83326">
        <ele>319.3</ele>
        <time>2011-12-30T07:55:58Z</time>
      </trkpt>
      <trkpt lat="11.54358" lon="42.83325">
        <ele>317.85</ele>
        <time>2011-12-30T07:56:03Z</time>
      </trkpt>
      <trkpt lat="11.54359" lon="42.83325">
        <ele>317.85</ele>
        <time>2011-12-30T07:56:04Z</time>
      </trkpt>
      <trkpt lat="11.54365" lon="42.83325">
        <ele>315.93</ele>
        <time>2011-12-30T07:56:08Z</time>
      </trkpt>
      <trkpt lat="11.54367" lon="42.83326">
        <ele>317.85</ele>
        <time>2011-12-30T07:56:10Z</time>
      </trkpt>
      <trkpt lat="11.54368" lon="42.83327">
        <ele>318.33</ele>
        <time>2011-12-30T07:56:11Z</time>
      </trkpt>
      <trkpt lat="11.54369" lon="42.83328">
        <ele>320.74</ele>
        <time>2011-12-30T07:56:13Z</time>
      </trkpt>
      <trkpt lat="11.54369" lon="42.83328">
        <ele>317.37</ele>
        <time>2011-12-30T07:56:15Z</time>
      </trkpt>
      <trkpt lat="11.54372" lon="42.8333">
        <ele>317.37</ele>
        <time>2011-12-30T07:56:23Z</time>
      </trkpt>
      <trkpt lat="11.54377" lon="42.83329">
        <ele>320.26</ele>
        <time>2011-12-30T07:56:27Z</time>
      </trkpt>
      <trkpt lat="11.54386" lon="42.83331">
        <ele>315.45</ele>
        <time>2011-12-30T07:56:34Z</time>
      </trkpt>
      <trkpt lat="11.54392" lon="42.83333">
        <ele>313.53</ele>
        <time>2011-12-30T07:56:39Z</time>
      </trkpt>
      <trkpt lat="11.54396" lon="42.83335">
        <ele>317.85</ele>
        <time>2011-12-30T07:56:43Z</time>
      </trkpt>
      <trkpt lat="11.544" lon="42.83337">
        <ele>315.93</ele>
        <time>2011-12-30T07:56:47Z</time>
      </trkpt>
      <trkpt lat="11.54405" lon="42.83342">
        <ele>314.01</ele>
        <time>2011-12-30T07:56:54Z</time>
      </trkpt>
      <trkpt lat="11.5441" lon="42.83345">
        <ele>317.85</ele>
        <time>2011-12-30T07:56:58Z</time>
      </trkpt>
      <trkpt lat="11.54413" lon="42.83348">
        <ele>315.45</ele>
        <time>2011-12-30T07:57:02Z</time>
      </trkpt>
      <trkpt lat="11.54418" lon="42.83354">
        <ele>312.09</ele>
        <time>2011-12-30T07:57:11Z</time>
      </trkpt>
      <trkpt lat="11.5442" lon="42.83355">
        <ele>312.57</ele>
        <time>2011-12-30T07:57:13Z</time>
      </trkpt>
      <trkpt lat="11.5443" lon="42.83359">
        <ele>313.53</ele>
        <time>2011-12-30T07:57:21Z</time>
      </trkpt>
      <trkpt lat="11.54442" lon="42.8336">
        <ele>310.16</ele>
        <time>2011-12-30T07:57:29Z</time>
      </trkpt>
      <trkpt lat="11.54444" lon="42.8336">
        <ele>311.6</ele>
        <time>2011-12-30T07:57:30Z</time>
      </trkpt>
      <trkpt lat="11.54457" lon="42.83355">
        <ele>313.05</ele>
        <time>2011-12-30T07:57:40Z</time>
      </trkpt>
      <trkpt lat="11.54463" lon="42.83354">
        <ele>309.68</ele>
        <time>2011-12-30T07:57:43Z</time>
      </trkpt>
      <trkpt lat="11.54471" lon="42.8335">
        <ele>309.68</ele>
        <time>2011-12-30T07:57:51Z</time>
      </trkpt>
      <trkpt lat="11.54475" lon="42.83346">
        <ele>308.72</ele>
        <time>2011-12-30T07:57:55Z</time>
      </trkpt>
      <trkpt lat="11.54479" lon="42.83344">
        <ele>310.64</ele>
        <time>2011-12-30T07:57:58Z</time>
      </trkpt>
      <trkpt lat="11.54481" lon="42.83343">
        <ele>311.12</ele>
        <time>2011-12-30T07:58:00Z</time>
      </trkpt>
      <trkpt lat="11.54487" lon="42.8334">
        <ele>308.72</ele>
        <time>2011-12-30T07:58:07Z</time>
      </trkpt>
      <trkpt lat="11.54488" lon="42.83339">
        <ele>307.76</ele>
        <time>2011-12-30T07:58:09Z</time>
      </trkpt>
      <trkpt lat="11.54491" lon="42.83338">
        <ele>310.16</ele>
        <time>2011-12-30T07:58:12Z</time>
      </trkpt>
      <trkpt lat="11.54491" lon="42.83337">
        <ele>307.28</ele>
        <time>2011-12-30T07:58:13Z</time>
      </trkpt>
      <trkpt lat="11.54496" lon="42.83333">
        <ele>309.2</ele>
        <time>2011-12-30T07:58:18Z</time>
      </trkpt>
      <trkpt lat="11.54498" lon="42.83332">
        <ele>308.72</ele>
        <time>2011-12-30T07:58:20Z</time>
      </trkpt>
      <trkpt lat="11.54502" lon="42.83331">
        <ele>305.84</ele>
        <time>2011-12-30T07:58:26Z</time>
      </trkpt>
      <trkpt lat="11.54505" lon="42.8333">
        <ele>306.8</ele>
        <time>2011-12-30T07:58:29Z</time>
      </trkpt>
      <trkpt lat="11.5451" lon="42.8333">
        <ele>307.76</ele>
        <time>2011-12-30T07:58:33Z</time>
      </trkpt>
      <trkpt lat="11.54515" lon="42.8333">
        <ele>308.72</ele>
        <time>2011-12-30T07:58:37Z</time>
      </trkpt>
      <trkpt lat="11.54519" lon="42.83329">
        <ele>306.8</ele>
        <time>2011-12-30T07:58:41Z</time>
      </trkpt>
      <trkpt lat="11.54526" lon="42.8333">
        <ele>303.91</ele>
        <time>2011-12-30T07:58:47Z</time>
      </trkpt>
      <trkpt lat="11.54532" lon="42.83333">
        <ele>305.36</ele>
        <time>2011-12-30T07:58:52Z</time>
      </trkpt>
      <trkpt lat="11.54536" lon="42.83335">
        <ele>302.95</ele>
        <time>2011-12-30T07:58:56Z</time>
      </trkpt>
      <trkpt lat="11.54545" lon="42.83338">
        <ele>305.36</ele>
        <time>2011-12-30T07:59:06Z</time>
      </trkpt>
      <trkpt lat="11.54548" lon="42.8334">
        <ele>301.51</ele>
        <time>2011-12-30T07:59:09Z</time>
      </trkpt>
      <trkpt lat="11.54549" lon="42.8334">
        <ele>302.95</ele>
        <time>2011-12-30T07:59:10Z</time>
      </trkpt>
      <trkpt lat="11.54556" lon="42.83342">
        <ele>304.88</ele>
        <time>2011-12-30T07:59:19Z</time>
      </trkpt>
      <trkpt lat="11.54558" lon="42.83343">
        <ele>302.47</ele>
        <time>2011-12-30T07:59:21Z</time>
      </trkpt>
      <trkpt lat="11.5456" lon="42.83343">
        <ele>300.07</ele>
        <time>2011-12-30T07:59:23Z</time>
      </trkpt>
      <trkpt lat="11.54563" lon="42.83345">
        <ele>306.8</ele>
        <time>2011-12-30T07:59:26Z</time>
      </trkpt>
      <trkpt lat="11.54563" lon="42.83345">
        <ele>304.88</ele>
        <time>2011-12-30T07:59:27Z</time>
      </trkpt>
      <trkpt lat="11.54566" lon="42.83347">
        <ele>301.03</ele>
        <time>2011-12-30T07:59:29Z</time>
      </trkpt>
      <trkpt lat="11.54568" lon="42.83347">
        <ele>302.95</ele>
        <time>2011-12-30T07:59:31Z</time>
      </trkpt>
      <trkpt lat="11.54572" lon="42.8335">
        <ele>301.51</ele>
        <time>2011-12-30T07:59:35Z</time>
      </trkpt>
      <trkpt lat="11.54584" lon="42.83357">
        <ele>301.51</ele>
        <time>2011-12-30T07:59:46Z</time>
      </trkpt>
      <trkpt lat="11.54591" lon="42.83362">
        <ele>302.47</ele>
        <time>2011-12-30T07:59:53Z</time>
      </trkpt>
      <trkpt lat="11.54603" lon="42.83363">
        <ele>299.59</ele>
        <time>2011-12-30T08:00:03Z</time>
      </trkpt>
      <trkpt lat="11.54619" lon="42.83364">
        <ele>300.07</ele>
        <time>2011-12-30T08:00:15Z</time>
      </trkpt>
      <trkpt lat="11.5462" lon="42.83364">
        <ele>300.55</ele>
        <time>2011-12-30T08:00:16Z</time>
      </trkpt>
      <trkpt lat="11.5463" lon="42.83357">
        <ele>299.59</ele>
        <time>2011-12-30T08:00:26Z</time>
      </trkpt>
      <trkpt lat="11.54644" lon="42.8335">
        <ele>299.11</ele>
        <time>2011-12-30T08:00:39Z</time>
      </trkpt>
      <trkpt lat="11.54647" lon="42.83347">
        <ele>298.63</ele>
        <time>2011-12-30T08:00:44Z</time>
      </trkpt>
      <trkpt lat="11.54648" lon="42.83346">
        <ele>299.11</ele>
        <time>2011-12-30T08:00:47Z</time>
      </trkpt>
      <trkpt lat="11.54654" lon="42.83344">
        <ele>298.63</ele>
        <time>2011-12-30T08:00:52Z</time>
      </trkpt>
      <trkpt lat="11.54656" lon="42.83339">
        <ele>297.67</ele>
        <time>2011-12-30T08:00:59Z</time>
      </trkpt>
      <trkpt lat="11.54661" lon="42.83335">
        <ele>299.11</ele>
        <time>2011-12-30T08:01:04Z</time>
      </trkpt>
      <trkpt lat="11.54663" lon="42.83332">
        <ele>296.22</ele>
        <time>2011-12-30T08:01:07Z</time>
      </trkpt>
      <trkpt lat="11.54664" lon="42.83332">
        <ele>296.22</ele>
        <time>2011-12-30T08:01:08Z</time>
      </trkpt>
      <trkpt lat="11.54673" lon="42.83324">
        <ele>295.74</ele>
        <time>2011-12-30T08:01:18Z</time>
      </trkpt>
      <trkpt lat="11.54675" lon="42.8332">
        <ele>297.18</ele>
        <time>2011-12-30T08:01:21Z</time>
      </trkpt>
      <trkpt lat="11.54679" lon="42.83316">
        <ele>295.74</ele>
        <time>2011-12-30T08:01:26Z</time>
      </trkpt>
      <trkpt lat="11.54679" lon="42.83315">
        <ele>296.22</ele>
        <time>2011-12-30T08:01:27Z</time>
      </trkpt>
      <trkpt lat="11.54685" lon="42.83309">
        <ele>294.3</ele>
        <time>2011-12-30T08:01:34Z</time>
      </trkpt>
      <trkpt lat="11.54689" lon="42.83304">
        <ele>296.7</ele>
        <time>2011-12-30T08:01:39Z</time>
      </trkpt>
      <trkpt lat="11.54692" lon="42.83302">
        <ele>293.82</ele>
        <time>2011-12-30T08:01:43Z</time>
      </trkpt>
      <trkpt lat="11.54693" lon="42.833">
        <ele>292.86</ele>
        <time>2011-12-30T08:01:45Z</time>
      </trkpt>
      <trkpt lat="11.54695" lon="42.83299">
        <ele>293.34</ele>
        <time>2011-12-30T08:01:50Z</time>
      </trkpt>
      <trkpt lat="11.54701" lon="42.83295">
        <ele>293.34</ele>
        <time>2011-12-30T08:01:57Z</time>
      </trkpt>
      <trkpt lat="11.54704" lon="42.83293">
        <ele>292.86</ele>
        <time>2011-12-30T08:02:00Z</time>
      </trkpt>
      <trkpt lat="11.5471" lon="42.83288">
        <ele>289.97</ele>
        <time>2011-12-30T08:02:07Z</time>
      </trkpt>
      <trkpt lat="11.54714" lon="42.83281">
        <ele>287.09</ele>
        <time>2011-12-30T08:02:13Z</time>
      </trkpt>
      <trkpt lat="11.54715" lon="42.8328">
        <ele>289.01</ele>
        <time>2011-12-30T08:02:14Z</time>
      </trkpt>
      <trkpt lat="11.54716" lon="42.8328">
        <ele>288.05</ele>
        <time>2011-12-30T08:02:15Z</time>
      </trkpt>
      <trkpt lat="11.54718" lon="42.83278">
        <ele>291.42</ele>
        <time>2011-12-30T08:02:17Z</time>
      </trkpt>
      <trkpt lat="11.54718" lon="42.83276">
        <ele>290.94</ele>
        <time>2011-12-30T08:02:18Z</time>
      </trkpt>
      <trkpt lat="11.54723" lon="42.83268">
        <ele>293.34</ele>
        <time>2011-12-30T08:02:27Z</time>
      </trkpt>
      <trkpt lat="11.54729" lon="42.83263">
        <ele>289.49</ele>
        <time>2011-12-30T08:02:32Z</time>
      </trkpt>
      <trkpt lat="11.5473" lon="42.83262">
        <ele>289.97</ele>
        <time>2011-12-30T08:02:33Z</time>
      </trkpt>
      <trkpt lat="11.54731" lon="42.83261">
        <ele>289.49</ele>
        <time>2011-12-30T08:02:34Z</time>
      </trkpt>
      <trkpt lat="11.54735" lon="42.83258">
        <ele>290.46</ele>
        <time>2011-12-30T08:02:38Z</time>
      </trkpt>
      <trkpt lat="11.54737" lon="42.83256">
        <ele>289.97</ele>
        <time>2011-12-30T08:02:40Z</time>
      </trkpt>
      <trkpt lat="11.5474" lon="42.83254">
        <ele>289.49</ele>
        <time>2011-12-30T08:02:43Z</time>
      </trkpt>
      <trkpt lat="11.54747" lon="42.83251">
        <ele>289.97</ele>
        <time>2011-12-30T08:02:49Z</time>
      </trkpt>
      <trkpt lat="11.54761" lon="42.83251">
        <ele>288.05</ele>
        <time>2011-12-30T08:03:00Z</time>
      </trkpt>
      <trkpt lat="11.54766" lon="42.83252">
        <ele>283.73</ele>
        <time>2011-12-30T08:03:04Z</time>
      </trkpt>
      <trkpt lat="11.54767" lon="42.83253">
        <ele>288.53</ele>
        <time>2011-12-30T08:03:05Z</time>
      </trkpt>
      <trkpt lat="11.54771" lon="42.83254">
        <ele>288.05</ele>
        <time>2011-12-30T08:03:09Z</time>
      </trkpt>
      <trkpt lat="11.54773" lon="42.83254">
        <ele>284.21</ele>
        <time>2011-12-30T08:03:11Z</time>
      </trkpt>
      <trkpt lat="11.54774" lon="42.83254">
        <ele>284.21</ele>
        <time>2011-12-30T08:03:12Z</time>
      </trkpt>
      <trkpt lat="11.54778" lon="42.83255">
        <ele>287.57</ele>
        <time>2011-12-30T08:03:16Z</time>
      </trkpt>
      <trkpt lat="11.54778" lon="42.83255">
        <ele>280.84</ele>
        <time>2011-12-30T08:03:23Z</time>
      </trkpt>
      <trkpt lat="11.54777" lon="42.83255">
        <ele>287.09</ele>
        <time>2011-12-30T08:03:24Z</time>
      </trkpt>
      <trkpt lat="11.54777" lon="42.83255">
        <ele>283.25</ele>
        <time>2011-12-30T08:03:25Z</time>
      </trkpt>
      <trkpt lat="11.54777" lon="42.83255">
        <ele>286.61</ele>
        <time>2011-12-30T08:03:26Z</time>
      </trkpt>
      <trkpt lat="11.54778" lon="42.83256">
        <ele>287.09</ele>
        <time>2011-12-30T08:03:31Z</time>
      </trkpt>
      <trkpt lat="11.5478" lon="42.83257">
        <ele>285.65</ele>
        <time>2011-12-30T08:03:34Z</time>
      </trkpt>
      <trkpt lat="11.54781" lon="42.83257">
        <ele>286.13</ele>
        <time>2011-12-30T08:03:35Z</time>
      </trkpt>
      <trkpt lat="11.54782" lon="42.83258">
        <ele>286.13</ele>
        <time>2011-12-30T08:03:37Z</time>
      </trkpt>
      <trkpt lat="11.54789" lon="42.83265">
        <ele>287.09</ele>
        <time>2011-12-30T08:03:47Z</time>
      </trkpt>
      <trkpt lat="11.5479" lon="42.83266">
        <ele>284.69</ele>
        <time>2011-12-30T08:03:49Z</time>
      </trkpt>
      <trkpt lat="11.54798" lon="42.83269">
        <ele>284.69</ele>
        <time>2011-12-30T08:03:58Z</time>
      </trkpt>
      <trkpt lat="11.54799" lon="42.83271">
        <ele>283.73</ele>
        <time>2011-12-30T08:04:00Z</time>
      </trkpt>
      <trkpt lat="11.54803" lon="42.83274">
        <ele>284.21</ele>
        <time>2011-12-30T08:04:04Z</time>
      </trkpt>
      <trkpt lat="11.54809" lon="42.83279">
        <ele>282.77</ele>
        <time>2011-12-30T08:04:10Z</time>
      </trkpt>
      <trkpt lat="11.54815" lon="42.83281">
        <ele>283.25</ele>
        <time>2011-12-30T08:04:15Z</time>
      </trkpt>
      <trkpt lat="11.54819" lon="42.83282">
        <ele>282.28</ele>
        <time>2011-12-30T08:04:18Z</time>
      </trkpt>
      <trkpt lat="11.54822" lon="42.83282">
        <ele>283.25</ele>
        <time>2011-12-30T08:04:20Z</time>
      </trkpt>
      <trkpt lat="11.54827" lon="42.8328">
        <ele>281.8</ele>
        <time>2011-12-30T08:04:24Z</time>
      </trkpt>
      <trkpt lat="11.54831" lon="42.83281">
        <ele>283.73</ele>
        <time>2011-12-30T08:04:27Z</time>
      </trkpt>
      <trkpt lat="11.54834" lon="42.83282">
        <ele>282.77</ele>
        <time>2011-12-30T08:04:29Z</time>
      </trkpt>
      <trkpt lat="11.54835" lon="42.83283">
        <ele>277.96</ele>
        <time>2011-12-30T08:04:31Z</time>
      </trkpt>
      <trkpt lat="11.54836" lon="42.83283">
        <ele>277.96</ele>
        <time>2011-12-30T08:04:32Z</time>
      </trkpt>
      <trkpt lat="11.54839" lon="42.83284">
        <ele>281.32</ele>
        <time>2011-12-30T08:04:35Z</time>
      </trkpt>
      <trkpt lat="11.5484" lon="42.83284">
        <ele>276.04</ele>
        <time>2011-12-30T08:04:36Z</time>
      </trkpt>
      <trkpt lat="11.54841" lon="42.83283">
        <ele>277</ele>
        <time>2011-12-30T08:04:37Z</time>
      </trkpt>
      <trkpt lat="11.54842" lon="42.83283">
        <ele>282.77</ele>
        <time>2011-12-30T08:04:38Z</time>
      </trkpt>
      <trkpt lat="11.54843" lon="42.83284">
        <ele>283.73</ele>
        <time>2011-12-30T08:04:39Z</time>
      </trkpt>
      <trkpt lat="11.54852" lon="42.83285">
        <ele>281.8</ele>
        <time>2011-12-30T08:04:49Z</time>
      </trkpt>
      <trkpt lat="11.54855" lon="42.83284">
        <ele>283.73</ele>
        <time>2011-12-30T08:04:53Z</time>
      </trkpt>
      <trkpt lat="11.54858" lon="42.83284">
        <ele>280.36</ele>
        <time>2011-12-30T08:04:56Z</time>
      </trkpt>
      <trkpt lat="11.54859" lon="42.83284">
        <ele>283.25</ele>
        <time>2011-12-30T08:04:57Z</time>
      </trkpt>
      <trkpt lat="11.54861" lon="42.83285">
        <ele>285.17</ele>
        <time>2011-12-30T08:04:59Z</time>
      </trkpt>
      <trkpt lat="11.54866" lon="42.83285">
        <ele>286.61</ele>
        <time>2011-12-30T08:05:04Z</time>
      </trkpt>
      <trkpt lat="11.5487" lon="42.83285">
        <ele>282.77</ele>
        <time>2011-12-30T08:05:08Z</time>
      </trkpt>
      <trkpt lat="11.54872" lon="42.83285">
        <ele>289.49</ele>
        <time>2011-12-30T08:05:10Z</time>
      </trkpt>
      <trkpt lat="11.54873" lon="42.83285">
        <ele>277.48</ele>
        <time>2011-12-30T08:05:11Z</time>
      </trkpt>
      <trkpt lat="11.54873" lon="42.83285">
        <ele>282.28</ele>
        <time>2011-12-30T08:05:12Z</time>
      </trkpt>
      <trkpt lat="11.54875" lon="42.83286">
        <ele>287.09</ele>
        <time>2011-12-30T08:05:13Z</time>
      </trkpt>
      <trkpt lat="11.54877" lon="42.83286">
        <ele>280.84</ele>
        <time>2011-12-30T08:05:15Z</time>
      </trkpt>
      <trkpt lat="11.54878" lon="42.83286">
        <ele>281.8</ele>
        <time>2011-12-30T08:05:16Z</time>
      </trkpt>
      <trkpt lat="11.54879" lon="42.83286">
        <ele>289.49</ele>
        <time>2011-12-30T08:05:17Z</time>
      </trkpt>
      <trkpt lat="11.5488" lon="42.83286">
        <ele>277.96</ele>
        <time>2011-12-30T08:05:18Z</time>
      </trkpt>
      <trkpt lat="11.54881" lon="42.83286">
        <ele>283.73</ele>
        <time>2011-12-30T08:05:19Z</time>
      </trkpt>
      <trkpt lat="11.54882" lon="42.83287">
        <ele>288.53</ele>
        <time>2011-12-30T08:05:20Z</time>
      </trkpt>
      <trkpt lat="11.54883" lon="42.83287">
        <ele>288.05</ele>
        <time>2011-12-30T08:05:21Z</time>
      </trkpt>
      <trkpt lat="11.54884" lon="42.83288">
        <ele>281.32</ele>
        <time>2011-12-30T08:05:22Z</time>
      </trkpt>
      <trkpt lat="11.54886" lon="42.83288">
        <ele>284.21</ele>
        <time>2011-12-30T08:05:23Z</time>
      </trkpt>
      <trkpt lat="11.54886" lon="42.83289">
        <ele>288.05</ele>
        <time>2011-12-30T08:05:24Z</time>
      </trkpt>
      <trkpt lat="11.54887" lon="42.83289">
        <ele>288.05</ele>
        <time>2011-12-30T08:05:25Z</time>
      </trkpt>
      <trkpt lat="11.54889" lon="42.83291">
        <ele>283.25</ele>
        <time>2011-12-30T08:05:27Z</time>
      </trkpt>
      <trkpt lat="11.5489" lon="42.83291">
        <ele>286.61</ele>
        <time>2011-12-30T08:05:28Z</time>
      </trkpt>
      <trkpt lat="11.54892" lon="42.83293">
        <ele>288.05</ele>
        <time>2011-12-30T08:05:30Z</time>
      </trkpt>
      <trkpt lat="11.54894" lon="42.83293">
        <ele>282.77</ele>
        <time>2011-12-30T08:05:31Z</time>
      </trkpt>
      <trkpt lat="11.54895" lon="42.83293">
        <ele>287.09</ele>
        <time>2011-12-30T08:05:32Z</time>
      </trkpt>
      <trkpt lat="11.54898" lon="42.83294">
        <ele>283.73</ele>
        <time>2011-12-30T08:05:35Z</time>
      </trkpt>
      <trkpt lat="11.54898" lon="42.83294">
        <ele>289.01</ele>
        <time>2011-12-30T08:05:36Z</time>
      </trkpt>
      <trkpt lat="11.54902" lon="42.83295">
        <ele>292.38</ele>
        <time>2011-12-30T08:05:39Z</time>
      </trkpt>
      <trkpt lat="11.54904" lon="42.83296">
        <ele>288.05</ele>
        <time>2011-12-30T08:05:41Z</time>
      </trkpt>
      <trkpt lat="11.54905" lon="42.83297">
        <ele>288.05</ele>
        <time>2011-12-30T08:05:42Z</time>
      </trkpt>
      <trkpt lat="11.54907" lon="42.83298">
        <ele>291.9</ele>
        <time>2011-12-30T08:05:44Z</time>
      </trkpt>
      <trkpt lat="11.5491" lon="42.833">
        <ele>292.38</ele>
        <time>2011-12-30T08:05:48Z</time>
      </trkpt>
      <trkpt lat="11.54914" lon="42.83301">
        <ele>293.34</ele>
        <time>2011-12-30T08:05:52Z</time>
      </trkpt>
      <trkpt lat="11.54915" lon="42.83301">
        <ele>290.94</ele>
        <time>2011-12-30T08:05:53Z</time>
      </trkpt>
      <trkpt lat="11.54918" lon="42.83302">
        <ele>293.34</ele>
        <time>2011-12-30T08:05:56Z</time>
      </trkpt>
      <trkpt lat="11.5492" lon="42.83302">
        <ele>290.46</ele>
        <time>2011-12-30T08:05:58Z</time>
      </trkpt>
      <trkpt lat="11.54921" lon="42.83303">
        <ele>293.34</ele>
        <time>2011-12-30T08:05:59Z</time>
      </trkpt>
      <trkpt lat="11.54922" lon="42.83303">
        <ele>287.09</ele>
        <time>2011-12-30T08:06:00Z</time>
      </trkpt>
      <trkpt lat="11.54922" lon="42.83304">
        <ele>288.05</ele>
        <time>2011-12-30T08:06:01Z</time>
      </trkpt>
      <trkpt lat="11.54925" lon="42.83306">
        <ele>285.65</ele>
        <time>2011-12-30T08:06:04Z</time>
      </trkpt>
      <trkpt lat="11.54926" lon="42.83307">
        <ele>289.01</ele>
        <time>2011-12-30T08:06:05Z</time>
      </trkpt>
      <trkpt lat="11.54927" lon="42.83308">
        <ele>293.82</ele>
        <time>2011-12-30T08:06:06Z</time>
      </trkpt>
      <trkpt lat="11.54928" lon="42.83308">
        <ele>287.57</ele>
        <time>2011-12-30T08:06:07Z</time>
      </trkpt>
      <trkpt lat="11.54929" lon="42.8331">
        <ele>291.42</ele>
        <time>2011-12-30T08:06:09Z</time>
      </trkpt>
      <trkpt lat="11.5493" lon="42.83311">
        <ele>284.69</ele>
        <time>2011-12-30T08:06:11Z</time>
      </trkpt>
      <trkpt lat="11.54931" lon="42.83312">
        <ele>288.53</ele>
        <time>2011-12-30T08:06:12Z</time>
      </trkpt>
      <trkpt lat="11.54932" lon="42.83312">
        <ele>292.86</ele>
        <time>2011-12-30T08:06:13Z</time>
      </trkpt>
      <trkpt lat="11.54933" lon="42.83314">
        <ele>289.01</ele>
        <time>2011-12-30T08:06:15Z</time>
      </trkpt>
      <trkpt lat="11.54934" lon="42.83314">
        <ele>288.05</ele>
        <time>2011-12-30T08:06:16Z</time>
      </trkpt>
      <trkpt lat="11.54936" lon="42.83316">
        <ele>292.86</ele>
        <time>2011-12-30T08:06:18Z</time>
      </trkpt>
      <trkpt lat="11.54937" lon="42.83317">
        <ele>288.53</ele>
        <time>2011-12-30T08:06:20Z</time>
      </trkpt>
      <trkpt lat="11.54939" lon="42.83321">
        <ele>286.61</ele>
        <time>2011-12-30T08:06:24Z</time>
      </trkpt>
      <trkpt lat="11.54942" lon="42.83324">
        <ele>289.01</ele>
        <time>2011-12-30T08:06:28Z</time>
      </trkpt>
      <trkpt lat="11.54945" lon="42.83326">
        <ele>294.3</ele>
        <time>2011-12-30T08:06:31Z</time>
      </trkpt>
      <trkpt lat="11.54946" lon="42.83328">
        <ele>289.49</ele>
        <time>2011-12-30T08:06:33Z</time>
      </trkpt>
      <trkpt lat="11.54947" lon="42.83329">
        <ele>294.78</ele>
        <time>2011-12-30T08:06:34Z</time>
      </trkpt>
      <trkpt lat="11.5495" lon="42.83331">
        <ele>288.05</ele>
        <time>2011-12-30T08:06:37Z</time>
      </trkpt>
      <trkpt lat="11.5495" lon="42.83332">
        <ele>291.42</ele>
        <time>2011-12-30T08:06:38Z</time>
      </trkpt>
      <trkpt lat="11.54951" lon="42.83332">
        <ele>295.26</ele>
        <time>2011-12-30T08:06:39Z</time>
      </trkpt>
      <trkpt lat="11.54953" lon="42.83342">
        <ele>294.3</ele>
        <time>2011-12-30T08:06:49Z</time>
      </trkpt>
      <trkpt lat="11.54957" lon="42.83349">
        <ele>292.38</ele>
        <time>2011-12-30T08:07:01Z</time>
      </trkpt>
      <trkpt lat="11.54957" lon="42.83349">
        <ele>292.38</ele>
        <time>2011-12-30T08:07:02Z</time>
      </trkpt>
      <trkpt lat="11.54958" lon="42.83352">
        <ele>292.38</ele>
        <time>2011-12-30T08:07:07Z</time>
      </trkpt>
      <trkpt lat="11.54959" lon="42.83358">
        <ele>291.42</ele>
        <time>2011-12-30T08:07:13Z</time>
      </trkpt>
      <trkpt lat="11.5496" lon="42.83361">
        <ele>290.94</ele>
        <time>2011-12-30T08:07:16Z</time>
      </trkpt>
      <trkpt lat="11.54961" lon="42.83364">
        <ele>293.34</ele>
        <time>2011-12-30T08:07:18Z</time>
      </trkpt>
      <trkpt lat="11.54961" lon="42.83369">
        <ele>291.9</ele>
        <time>2011-12-30T08:07:22Z</time>
      </trkpt>
      <trkpt lat="11.54963" lon="42.83376">
        <ele>290.94</ele>
        <time>2011-12-30T08:07:28Z</time>
      </trkpt>
      <trkpt lat="11.54962" lon="42.83378">
        <ele>283.73</ele>
        <time>2011-12-30T08:07:30Z</time>
      </trkpt>
      <trkpt lat="11.54962" lon="42.83379">
        <ele>288.53</ele>
        <time>2011-12-30T08:07:31Z</time>
      </trkpt>
      <trkpt lat="11.54964" lon="42.83384">
        <ele>287.57</ele>
        <time>2011-12-30T08:07:35Z</time>
      </trkpt>
      <trkpt lat="11.54965" lon="42.83384">
        <ele>286.61</ele>
        <time>2011-12-30T08:07:36Z</time>
      </trkpt>
      <trkpt lat="11.54967" lon="42.83387">
        <ele>285.17</ele>
        <time>2011-12-30T08:07:39Z</time>
      </trkpt>
      <trkpt lat="11.54968" lon="42.83387">
        <ele>284.21</ele>
        <time>2011-12-30T08:07:40Z</time>
      </trkpt>
      <trkpt lat="11.5497" lon="42.83388">
        <ele>286.61</ele>
        <time>2011-12-30T08:07:43Z</time>
      </trkpt>
      <trkpt lat="11.54971" lon="42.83388">
        <ele>285.65</ele>
        <time>2011-12-30T08:07:44Z</time>
      </trkpt>
      <trkpt lat="11.54974" lon="42.83388">
        <ele>290.46</ele>
        <time>2011-12-30T08:07:48Z</time>
      </trkpt>
      <trkpt lat="11.54975" lon="42.83388">
        <ele>295.74</ele>
        <time>2011-12-30T08:07:49Z</time>
      </trkpt>
      <trkpt lat="11.54979" lon="42.83391">
        <ele>290.94</ele>
        <time>2011-12-30T08:07:53Z</time>
      </trkpt>
      <trkpt lat="11.5498" lon="42.83391">
        <ele>297.18</ele>
        <time>2011-12-30T08:07:54Z</time>
      </trkpt>
      <trkpt lat="11.54982" lon="42.83393">
        <ele>288.05</ele>
        <time>2011-12-30T08:07:56Z</time>
      </trkpt>
      <trkpt lat="11.54983" lon="42.83394">
        <ele>294.78</ele>
        <time>2011-12-30T08:07:57Z</time>
      </trkpt>
      <trkpt lat="11.54984" lon="42.83395">
        <ele>295.74</ele>
        <time>2011-12-30T08:07:59Z</time>
      </trkpt>
      <trkpt lat="11.54986" lon="42.83397">
        <ele>286.13</ele>
        <time>2011-12-30T08:08:01Z</time>
      </trkpt>
      <trkpt lat="11.54987" lon="42.83398">
        <ele>291.42</ele>
        <time>2011-12-30T08:08:02Z</time>
      </trkpt>
      <trkpt lat="11.54989" lon="42.834">
        <ele>301.03</ele>
        <time>2011-12-30T08:08:05Z</time>
      </trkpt>
      <trkpt lat="11.5499" lon="42.834">
        <ele>298.15</ele>
        <time>2011-12-30T08:08:06Z</time>
      </trkpt>
      <trkpt lat="11.54991" lon="42.83401">
        <ele>291.9</ele>
        <time>2011-12-30T08:08:07Z</time>
      </trkpt>
      <trkpt lat="11.54992" lon="42.83402">
        <ele>288.53</ele>
        <time>2011-12-30T08:08:09Z</time>
      </trkpt>
      <trkpt lat="11.54993" lon="42.83402">
        <ele>296.22</ele>
        <time>2011-12-30T08:08:10Z</time>
      </trkpt>
      <trkpt lat="11.54995" lon="42.83404">
        <ele>302.47</ele>
        <time>2011-12-30T08:08:12Z</time>
      </trkpt>
      <trkpt lat="11.54996" lon="42.83404">
        <ele>301.99</ele>
        <time>2011-12-30T08:08:13Z</time>
      </trkpt>
      <trkpt lat="11.54999" lon="42.83406">
        <ele>303.43</ele>
        <time>2011-12-30T08:08:17Z</time>
      </trkpt>
      <trkpt lat="11.55" lon="42.83407">
        <ele>297.67</ele>
        <time>2011-12-30T08:08:18Z</time>
      </trkpt>
      <trkpt lat="11.55004" lon="42.83407">
        <ele>304.88</ele>
        <time>2011-12-30T08:08:22Z</time>
      </trkpt>
      <trkpt lat="11.55004" lon="42.83407">
        <ele>301.51</ele>
        <time>2011-12-30T08:08:23Z</time>
      </trkpt>
      <trkpt lat="11.55005" lon="42.83408">
        <ele>298.15</ele>
        <time>2011-12-30T08:08:24Z</time>
      </trkpt>
      <trkpt lat="11.55006" lon="42.83408">
        <ele>289.01</ele>
        <time>2011-12-30T08:08:25Z</time>
      </trkpt>
      <trkpt lat="11.55006" lon="42.83408">
        <ele>298.63</ele>
        <time>2011-12-30T08:08:26Z</time>
      </trkpt>
      <trkpt lat="11.55008" lon="42.83408">
        <ele>287.09</ele>
        <time>2011-12-30T08:08:35Z</time>
      </trkpt>
      <trkpt lat="11.5501" lon="42.83407">
        <ele>301.99</ele>
        <time>2011-12-30T08:08:37Z</time>
      </trkpt>
      <trkpt lat="11.55011" lon="42.83406">
        <ele>295.26</ele>
        <time>2011-12-30T08:08:38Z</time>
      </trkpt>
      <trkpt lat="11.55013" lon="42.83406">
        <ele>301.03</ele>
        <time>2011-12-30T08:08:40Z</time>
      </trkpt>
      <trkpt lat="11.55014" lon="42.83406">
        <ele>299.59</ele>
        <time>2011-12-30T08:08:41Z</time>
      </trkpt>
      <trkpt lat="11.55016" lon="42.83407">
        <ele>296.22</ele>
        <time>2011-12-30T08:08:43Z</time>
      </trkpt>
      <trkpt lat="11.55017" lon="42.83407">
        <ele>300.07</ele>
        <time>2011-12-30T08:08:44Z</time>
      </trkpt>
      <trkpt lat="11.55025" lon="42.83411">
        <ele>297.67</ele>
        <time>2011-12-30T08:08:51Z</time>
      </trkpt>
      <trkpt lat="11.55037" lon="42.83415">
        <ele>297.18</ele>
        <time>2011-12-30T08:09:01Z</time>
      </trkpt>
      <trkpt lat="11.55044" lon="42.83417">
        <ele>294.78</ele>
        <time>2011-12-30T08:09:09Z</time>
      </trkpt>
      <trkpt lat="11.55048" lon="42.83417">
        <ele>292.38</ele>
        <time>2011-12-30T08:09:13Z</time>
      </trkpt>
      <trkpt lat="11.55049" lon="42.83416">
        <ele>292.86</ele>
        <time>2011-12-30T08:09:14Z</time>
      </trkpt>
      <trkpt lat="11.55055" lon="42.83413">
        <ele>296.7</ele>
        <time>2011-12-30T08:09:19Z</time>
      </trkpt>
      <trkpt lat="11.55056" lon="42.83413">
        <ele>294.3</ele>
        <time>2011-12-30T08:09:20Z</time>
      </trkpt>
      <trkpt lat="11.55059" lon="42.83413">
        <ele>291.9</ele>
        <time>2011-12-30T08:09:22Z</time>
      </trkpt>
      <trkpt lat="11.55063" lon="42.83414">
        <ele>297.18</ele>
        <time>2011-12-30T08:09:25Z</time>
      </trkpt>
      <trkpt lat="11.55065" lon="42.83415">
        <ele>296.7</ele>
        <time>2011-12-30T08:09:26Z</time>
      </trkpt>
      <trkpt lat="11.55067" lon="42.83415">
        <ele>295.26</ele>
        <time>2011-12-30T08:09:28Z</time>
      </trkpt>
      <trkpt lat="11.55077" lon="42.83413">
        <ele>289.97</ele>
        <time>2011-12-30T08:09:36Z</time>
      </trkpt>
      <trkpt lat="11.55078" lon="42.83414">
        <ele>291.9</ele>
        <time>2011-12-30T08:09:58Z</time>
      </trkpt>
      <trkpt lat="11.55084" lon="42.83412">
        <ele>294.3</ele>
        <time>2011-12-30T08:10:11Z</time>
      </trkpt>
      <trkpt lat="11.55086" lon="42.8341">
        <ele>292.38</ele>
        <time>2011-12-30T08:10:14Z</time>
      </trkpt>
      <trkpt lat="11.55089" lon="42.83409">
        <ele>290.46</ele>
        <time>2011-12-30T08:10:16Z</time>
      </trkpt>
      <trkpt lat="11.55091" lon="42.83407">
        <ele>289.97</ele>
        <time>2011-12-30T08:10:18Z</time>
      </trkpt>
      <trkpt lat="11.55102" lon="42.83404">
        <ele>289.01</ele>
        <time>2011-12-30T08:10:26Z</time>
      </trkpt>
      <trkpt lat="11.55112" lon="42.83401">
        <ele>289.49</ele>
        <time>2011-12-30T08:10:34Z</time>
      </trkpt>
      <trkpt lat="11.55123" lon="42.83399">
        <ele>286.13</ele>
        <time>2011-12-30T08:10:44Z</time>
      </trkpt>
      <trkpt lat="11.55125" lon="42.83399">
        <ele>277.96</ele>
        <time>2011-12-30T08:10:45Z</time>
      </trkpt>
      <trkpt lat="11.55125" lon="42.83399">
        <ele>289.97</ele>
        <time>2011-12-30T08:10:46Z</time>
      </trkpt>
      <trkpt lat="11.55127" lon="42.83399">
        <ele>287.57</ele>
        <time>2011-12-30T08:10:47Z</time>
      </trkpt>
      <trkpt lat="11.55134" lon="42.834">
        <ele>286.61</ele>
        <time>2011-12-30T08:10:55Z</time>
      </trkpt>
      <trkpt lat="11.55136" lon="42.834">
        <ele>282.77</ele>
        <time>2011-12-30T08:11:05Z</time>
      </trkpt>
      <trkpt lat="11.55136" lon="42.83399">
        <ele>283.73</ele>
        <time>2011-12-30T08:11:06Z</time>
      </trkpt>
      <trkpt lat="11.55141" lon="42.83398">
        <ele>286.13</ele>
        <time>2011-12-30T08:11:10Z</time>
      </trkpt>
      <trkpt lat="11.55145" lon="42.83396">
        <ele>280.84</ele>
        <time>2011-12-30T08:11:14Z</time>
      </trkpt>
      <trkpt lat="11.55146" lon="42.83396">
        <ele>284.21</ele>
        <time>2011-12-30T08:11:15Z</time>
      </trkpt>
      <trkpt lat="11.55147" lon="42.83395">
        <ele>283.25</ele>
        <time>2011-12-30T08:11:16Z</time>
      </trkpt>
      <trkpt lat="11.55153" lon="42.83392">
        <ele>281.8</ele>
        <time>2011-12-30T08:11:20Z</time>
      </trkpt>
      <trkpt lat="11.55159" lon="42.83391">
        <ele>282.77</ele>
        <time>2011-12-30T08:11:25Z</time>
      </trkpt>
      <trkpt lat="11.55166" lon="42.83391">
        <ele>281.8</ele>
        <time>2011-12-30T08:11:32Z</time>
      </trkpt>
      <trkpt lat="11.55173" lon="42.83389">
        <ele>280.84</ele>
        <time>2011-12-30T08:11:44Z</time>
      </trkpt>
      <trkpt lat="11.55173" lon="42.83389">
        <ele>281.8</ele>
        <time>2011-12-30T08:11:55Z</time>
      </trkpt>
      <trkpt lat="11.55171" lon="42.83388">
        <ele>280.84</ele>
        <time>2011-12-30T08:12:00Z</time>
      </trkpt>
      <trkpt lat="11.55171" lon="42.83388">
        <ele>277.48</ele>
        <time>2011-12-30T08:12:26Z</time>
      </trkpt>
      <trkpt lat="11.55172" lon="42.83389">
        <ele>280.84</ele>
        <time>2011-12-30T08:12:27Z</time>
      </trkpt>
      <trkpt lat="11.55173" lon="42.8339">
        <ele>280.84</ele>
        <time>2011-12-30T08:12:29Z</time>
      </trkpt>
      <trkpt lat="11.55175" lon="42.8339">
        <ele>279.4</ele>
        <time>2011-12-30T08:12:31Z</time>
      </trkpt>
      <trkpt lat="11.5518" lon="42.83391">
        <ele>278.92</ele>
        <time>2011-12-30T08:12:42Z</time>
      </trkpt>
      <trkpt lat="11.55182" lon="42.83391">
        <ele>278.44</ele>
        <time>2011-12-30T08:12:47Z</time>
      </trkpt>
      <trkpt lat="11.55184" lon="42.83391">
        <ele>277.96</ele>
        <time>2011-12-30T08:12:54Z</time>
      </trkpt>
      <trkpt lat="11.55188" lon="42.83391">
        <ele>276.04</ele>
        <time>2011-12-30T08:12:58Z</time>
      </trkpt>
      <trkpt lat="11.55192" lon="42.83392">
        <ele>275.56</ele>
        <time>2011-12-30T08:13:03Z</time>
      </trkpt>
      <trkpt lat="11.55204" lon="42.83392">
        <ele>272.19</ele>
        <time>2011-12-30T08:13:13Z</time>
      </trkpt>
      <trkpt lat="11.55207" lon="42.83394">
        <ele>274.59</ele>
        <time>2011-12-30T08:13:15Z</time>
      </trkpt>
      <trkpt lat="11.55208" lon="42.83394">
        <ele>272.19</ele>
        <time>2011-12-30T08:13:17Z</time>
      </trkpt>
      <trkpt lat="11.55212" lon="42.83397">
        <ele>270.75</ele>
        <time>2011-12-30T08:13:35Z</time>
      </trkpt>
      <trkpt lat="11.55218" lon="42.83397">
        <ele>271.23</ele>
        <time>2011-12-30T08:13:41Z</time>
      </trkpt>
      <trkpt lat="11.55225" lon="42.83398">
        <ele>267.86</ele>
        <time>2011-12-30T08:13:46Z</time>
      </trkpt>
      <trkpt lat="11.55226" lon="42.83398">
        <ele>264.02</ele>
        <time>2011-12-30T08:13:47Z</time>
      </trkpt>
      <trkpt lat="11.55228" lon="42.83398">
        <ele>272.19</ele>
        <time>2011-12-30T08:13:49Z</time>
      </trkpt>
      <trkpt lat="11.55229" lon="42.83399">
        <ele>272.19</ele>
        <time>2011-12-30T08:13:50Z</time>
      </trkpt>
      <trkpt lat="11.5523" lon="42.83399">
        <ele>276.04</ele>
        <time>2011-12-30T08:13:51Z</time>
      </trkpt>
      <trkpt lat="11.55231" lon="42.83399">
        <ele>274.59</ele>
        <time>2011-12-30T08:13:52Z</time>
      </trkpt>
      <trkpt lat="11.55235" lon="42.83399">
        <ele>270.75</ele>
        <time>2011-12-30T08:13:56Z</time>
      </trkpt>
      <trkpt lat="11.55237" lon="42.83399">
        <ele>272.67</ele>
        <time>2011-12-30T08:13:59Z</time>
      </trkpt>
      <trkpt lat="11.55244" lon="42.83402">
        <ele>271.71</ele>
        <time>2011-12-30T08:14:07Z</time>
      </trkpt>
      <trkpt lat="11.55248" lon="42.83404">
        <ele>271.23</ele>
        <time>2011-12-30T08:14:11Z</time>
      </trkpt>
      <trkpt lat="11.55254" lon="42.83405">
        <ele>269.79</ele>
        <time>2011-12-30T08:14:16Z</time>
      </trkpt>
      <trkpt lat="11.55257" lon="42.83404">
        <ele>272.19</ele>
        <time>2011-12-30T08:14:19Z</time>
      </trkpt>
      <trkpt lat="11.55261" lon="42.83404">
        <ele>267.38</ele>
        <time>2011-12-30T08:14:22Z</time>
      </trkpt>
      <trkpt lat="11.55264" lon="42.83404">
        <ele>273.63</ele>
        <time>2011-12-30T08:14:24Z</time>
      </trkpt>
      <trkpt lat="11.55267" lon="42.83403">
        <ele>274.59</ele>
        <time>2011-12-30T08:14:26Z</time>
      </trkpt>
      <trkpt lat="11.55267" lon="42.83403">
        <ele>271.71</ele>
        <time>2011-12-30T08:14:29Z</time>
      </trkpt>
      <trkpt lat="11.55267" lon="42.83403">
        <ele>271.71</ele>
        <time>2011-12-30T08:14:30Z</time>
      </trkpt>
      <trkpt lat="11.55267" lon="42.83403">
        <ele>265.46</ele>
        <time>2011-12-30T08:14:31Z</time>
      </trkpt>
      <trkpt lat="11.55268" lon="42.83402">
        <ele>273.15</ele>
        <time>2011-12-30T08:14:32Z</time>
      </trkpt>
      <trkpt lat="11.55271" lon="42.83401">
        <ele>269.79</ele>
        <time>2011-12-30T08:14:35Z</time>
      </trkpt>
      <trkpt lat="11.55275" lon="42.834">
        <ele>272.19</ele>
        <time>2011-12-30T08:14:38Z</time>
      </trkpt>
      <trkpt lat="11.55277" lon="42.834">
        <ele>270.75</ele>
        <time>2011-12-30T08:14:39Z</time>
      </trkpt>
      <trkpt lat="11.55279" lon="42.83399">
        <ele>272.19</ele>
        <time>2011-12-30T08:14:42Z</time>
      </trkpt>
      <trkpt lat="11.5528" lon="42.83397">
        <ele>271.23</ele>
        <time>2011-12-30T08:14:44Z</time>
      </trkpt>
      <trkpt lat="11.55284" lon="42.83394">
        <ele>267.86</ele>
        <time>2011-12-30T08:14:48Z</time>
      </trkpt>
      <trkpt lat="11.55287" lon="42.83391">
        <ele>270.27</ele>
        <time>2011-12-30T08:14:52Z</time>
      </trkpt>
      <trkpt lat="11.5529" lon="42.83389">
        <ele>269.31</ele>
        <time>2011-12-30T08:14:55Z</time>
      </trkpt>
      <trkpt lat="11.55297" lon="42.8338">
        <ele>267.38</ele>
        <time>2011-12-30T08:15:06Z</time>
      </trkpt>
      <trkpt lat="11.55305" lon="42.83374">
        <ele>264.5</ele>
        <time>2011-12-30T08:15:16Z</time>
      </trkpt>
      <trkpt lat="11.55309" lon="42.83373">
        <ele>262.1</ele>
        <time>2011-12-30T08:15:20Z</time>
      </trkpt>
      <trkpt lat="11.55312" lon="42.83372">
        <ele>265.46</ele>
        <time>2011-12-30T08:15:23Z</time>
      </trkpt>
      <trkpt lat="11.55315" lon="42.83373">
        <ele>263.54</ele>
        <time>2011-12-30T08:15:26Z</time>
      </trkpt>
      <trkpt lat="11.55322" lon="42.83373">
        <ele>262.58</ele>
        <time>2011-12-30T08:15:33Z</time>
      </trkpt>
      <trkpt lat="11.55324" lon="42.83374">
        <ele>260.17</ele>
        <time>2011-12-30T08:15:36Z</time>
      </trkpt>
      <trkpt lat="11.55325" lon="42.83374">
        <ele>260.17</ele>
        <time>2011-12-30T08:15:37Z</time>
      </trkpt>
      <trkpt lat="11.55327" lon="42.83374">
        <ele>260.65</ele>
        <time>2011-12-30T08:15:39Z</time>
      </trkpt>
      <trkpt lat="11.55332" lon="42.83373">
        <ele>262.58</ele>
        <time>2011-12-30T08:15:43Z</time>
      </trkpt>
      <trkpt lat="11.55338" lon="42.83372">
        <ele>257.29</ele>
        <time>2011-12-30T08:15:48Z</time>
      </trkpt>
      <trkpt lat="11.55341" lon="42.83369">
        <ele>259.69</ele>
        <time>2011-12-30T08:15:51Z</time>
      </trkpt>
      <trkpt lat="11.55344" lon="42.83366">
        <ele>256.81</ele>
        <time>2011-12-30T08:15:55Z</time>
      </trkpt>
      <trkpt lat="11.55349" lon="42.83366">
        <ele>259.69</ele>
        <time>2011-12-30T08:15:59Z</time>
      </trkpt>
      <trkpt lat="11.55352" lon="42.83368">
        <ele>257.77</ele>
        <time>2011-12-30T08:16:02Z</time>
      </trkpt>
      <trkpt lat="11.55356" lon="42.83369">
        <ele>255.37</ele>
        <time>2011-12-30T08:16:06Z</time>
      </trkpt>
      <trkpt lat="11.5536" lon="42.83371">
        <ele>255.85</ele>
        <time>2011-12-30T08:16:22Z</time>
      </trkpt>
      <trkpt lat="11.5536" lon="42.83372">
        <ele>255.37</ele>
        <time>2011-12-30T08:16:23Z</time>
      </trkpt>
      <trkpt lat="11.55363" lon="42.83373">
        <ele>257.29</ele>
        <time>2011-12-30T08:16:29Z</time>
      </trkpt>
      <trkpt lat="11.55363" lon="42.83373">
        <ele>255.85</ele>
        <time>2011-12-30T08:16:31Z</time>
      </trkpt>
      <trkpt lat="11.55368" lon="42.83376">
        <ele>253.44</ele>
        <time>2011-12-30T08:16:43Z</time>
      </trkpt>
      <trkpt lat="11.55369" lon="42.83376">
        <ele>254.89</ele>
        <time>2011-12-30T08:16:46Z</time>
      </trkpt>
      <trkpt lat="11.55369" lon="42.83376">
        <ele>254.89</ele>
        <time>2011-12-30T08:16:48Z</time>
      </trkpt>
      <trkpt lat="11.55374" lon="42.83378">
        <ele>259.21</ele>
        <time>2011-12-30T08:16:52Z</time>
      </trkpt>
      <trkpt lat="11.55375" lon="42.83379">
        <ele>254.89</ele>
        <time>2011-12-30T08:16:53Z</time>
      </trkpt>
      <trkpt lat="11.55386" lon="42.83382">
        <ele>254.89</ele>
        <time>2011-12-30T08:17:03Z</time>
      </trkpt>
      <trkpt lat="11.55388" lon="42.83382">
        <ele>253.93</ele>
        <time>2011-12-30T08:17:04Z</time>
      </trkpt>
      <trkpt lat="11.55393" lon="42.83382">
        <ele>250.56</ele>
        <time>2011-12-30T08:17:07Z</time>
      </trkpt>
      <trkpt lat="11.55394" lon="42.83382">
        <ele>252</ele>
        <time>2011-12-30T08:17:08Z</time>
      </trkpt>
      <trkpt lat="11.554" lon="42.8338">
        <ele>250.08</ele>
        <time>2011-12-30T08:17:22Z</time>
      </trkpt>
      <trkpt lat="11.554" lon="42.8338">
        <ele>241.43</ele>
        <time>2011-12-30T08:17:30Z</time>
      </trkpt>
      <trkpt lat="11.55399" lon="42.83381">
        <ele>253.93</ele>
        <time>2011-12-30T08:17:32Z</time>
      </trkpt>
      <trkpt lat="11.55398" lon="42.83382">
        <ele>246.23</ele>
        <time>2011-12-30T08:17:33Z</time>
      </trkpt>
      <trkpt lat="11.55397" lon="42.83382">
        <ele>249.12</ele>
        <time>2011-12-30T08:17:34Z</time>
      </trkpt>
      <trkpt lat="11.55396" lon="42.83383">
        <ele>246.23</ele>
        <time>2011-12-30T08:17:35Z</time>
      </trkpt>
      <trkpt lat="11.55395" lon="42.83383">
        <ele>252.48</ele>
        <time>2011-12-30T08:17:36Z</time>
      </trkpt>
      <trkpt lat="11.55393" lon="42.83383">
        <ele>254.41</ele>
        <time>2011-12-30T08:17:38Z</time>
      </trkpt>
      <trkpt lat="11.55392" lon="42.83384">
        <ele>246.72</ele>
        <time>2011-12-30T08:17:39Z</time>
      </trkpt>
      <trkpt lat="11.55389" lon="42.83384">
        <ele>255.37</ele>
        <time>2011-12-30T08:17:42Z</time>
      </trkpt>
      <trkpt lat="11.55388" lon="42.83384">
        <ele>251.52</ele>
        <time>2011-12-30T08:17:43Z</time>
      </trkpt>
      <trkpt lat="11.55387" lon="42.83384">
        <ele>246.23</ele>
        <time>2011-12-30T08:17:44Z</time>
      </trkpt>
      <trkpt lat="11.55386" lon="42.83383">
        <ele>255.37</ele>
        <time>2011-12-30T08:17:45Z</time>
      </trkpt>
      <trkpt lat="11.55385" lon="42.83383">
        <ele>254.41</ele>
        <time>2011-12-30T08:17:46Z</time>
      </trkpt>
      <trkpt lat="11.55383" lon="42.83383">
        <ele>246.72</ele>
        <time>2011-12-30T08:17:47Z</time>
      </trkpt>
      <trkpt lat="11.55383" lon="42.83383">
        <ele>252.48</ele>
        <time>2011-12-30T08:17:48Z</time>
      </trkpt>
      <trkpt lat="11.55382" lon="42.83382">
        <ele>255.85</ele>
        <time>2011-12-30T08:17:49Z</time>
      </trkpt>
      <trkpt lat="11.55381" lon="42.83382">
        <ele>255.37</ele>
        <time>2011-12-30T08:17:50Z</time>
      </trkpt>
      <trkpt lat="11.55378" lon="42.83381">
        <ele>248.64</ele>
        <time>2011-12-30T08:17:52Z</time>
      </trkpt>
      <trkpt lat="11.55378" lon="42.83381">
        <ele>253.44</ele>
        <time>2011-12-30T08:17:53Z</time>
      </trkpt>
      <trkpt lat="11.55377" lon="42.83381">
        <ele>254.41</ele>
        <time>2011-12-30T08:17:55Z</time>
      </trkpt>
      <trkpt lat="11.55376" lon="42.8338">
        <ele>249.12</ele>
        <time>2011-12-30T08:18:12Z</time>
      </trkpt>
      <trkpt lat="11.55375" lon="42.8338">
        <ele>255.37</ele>
        <time>2011-12-30T08:18:13Z</time>
      </trkpt>
      <trkpt lat="11.55372" lon="42.83379">
        <ele>249.6</ele>
        <time>2011-12-30T08:18:16Z</time>
      </trkpt>
      <trkpt lat="11.55371" lon="42.83379">
        <ele>253.44</ele>
        <time>2011-12-30T08:18:17Z</time>
      </trkpt>
      <trkpt lat="11.55369" lon="42.83378">
        <ele>256.81</ele>
        <time>2011-12-30T08:18:18Z</time>
      </trkpt>
      <trkpt lat="11.55366" lon="42.83377">
        <ele>250.08</ele>
        <time>2011-12-30T08:18:21Z</time>
      </trkpt>
      <trkpt lat="11.55365" lon="42.83376">
        <ele>260.17</ele>
        <time>2011-12-30T08:18:23Z</time>
      </trkpt>
      <trkpt lat="11.55364" lon="42.83375">
        <ele>253.44</ele>
        <time>2011-12-30T08:18:24Z</time>
      </trkpt>
      <trkpt lat="11.55363" lon="42.83375">
        <ele>257.29</ele>
        <time>2011-12-30T08:18:26Z</time>
      </trkpt>
      <trkpt lat="11.55363" lon="42.83374">
        <ele>255.37</ele>
        <time>2011-12-30T08:18:27Z</time>
      </trkpt>
      <trkpt lat="11.55365" lon="42.83372">
        <ele>253.93</ele>
        <time>2011-12-30T08:19:43Z</time>
      </trkpt>
      <trkpt lat="11.55374" lon="42.83369">
        <ele>252</ele>
        <time>2011-12-30T08:19:54Z</time>
      </trkpt>
      <trkpt lat="11.55375" lon="42.83366">
        <ele>251.52</ele>
        <time>2011-12-30T08:20:09Z</time>
      </trkpt>
      <trkpt lat="11.5538" lon="42.83362">
        <ele>248.64</ele>
        <time>2011-12-30T08:20:20Z</time>
      </trkpt>
      <trkpt lat="11.55381" lon="42.83361">
        <ele>248.16</ele>
        <time>2011-12-30T08:20:22Z</time>
      </trkpt>
      <trkpt lat="11.55382" lon="42.8336">
        <ele>247.2</ele>
        <time>2011-12-30T08:20:25Z</time>
      </trkpt>
      <trkpt lat="11.55386" lon="42.83359">
        <ele>247.2</ele>
        <time>2011-12-30T08:20:31Z</time>
      </trkpt>
      <trkpt lat="11.55389" lon="42.83357">
        <ele>245.27</ele>
        <time>2011-12-30T08:20:34Z</time>
      </trkpt>
      <trkpt lat="11.55399" lon="42.83349">
        <ele>242.87</ele>
        <time>2011-12-30T08:20:43Z</time>
      </trkpt>
      <trkpt lat="11.55401" lon="42.83348">
        <ele>241.43</ele>
        <time>2011-12-30T08:20:45Z</time>
      </trkpt>
      <trkpt lat="11.55409" lon="42.83345">
        <ele>239.99</ele>
        <time>2011-12-30T08:20:55Z</time>
      </trkpt>
      <trkpt lat="11.55412" lon="42.83346">
        <ele>240.95</ele>
        <time>2011-12-30T08:21:04Z</time>
      </trkpt>
      <trkpt lat="11.55413" lon="42.83346">
        <ele>241.43</ele>
        <time>2011-12-30T08:21:05Z</time>
      </trkpt>
      <trkpt lat="11.55418" lon="42.83343">
        <ele>240.47</ele>
        <time>2011-12-30T08:21:10Z</time>
      </trkpt>
      <trkpt lat="11.55421" lon="42.83342">
        <ele>242.87</ele>
        <time>2011-12-30T08:21:13Z</time>
      </trkpt>
      <trkpt lat="11.55425" lon="42.83343">
        <ele>241.91</ele>
        <time>2011-12-30T08:21:17Z</time>
      </trkpt>
      <trkpt lat="11.55435" lon="42.83343">
        <ele>238.06</ele>
        <time>2011-12-30T08:21:25Z</time>
      </trkpt>
      <trkpt lat="11.5545" lon="42.83345">
        <ele>239.99</ele>
        <time>2011-12-30T08:21:37Z</time>
      </trkpt>
      <trkpt lat="11.55452" lon="42.83345">
        <ele>236.62</ele>
        <time>2011-12-30T08:21:39Z</time>
      </trkpt>
      <trkpt lat="11.55453" lon="42.83345">
        <ele>236.62</ele>
        <time>2011-12-30T08:21:40Z</time>
      </trkpt>
      <trkpt lat="11.55455" lon="42.83346">
        <ele>240.47</ele>
        <time>2011-12-30T08:21:42Z</time>
      </trkpt>
      <trkpt lat="11.55455" lon="42.83346">
        <ele>238.06</ele>
        <time>2011-12-30T08:21:43Z</time>
      </trkpt>
      <trkpt lat="11.55456" lon="42.83345">
        <ele>236.14</ele>
        <time>2011-12-30T08:22:03Z</time>
      </trkpt>
      <trkpt lat="11.55463" lon="42.83342">
        <ele>237.1</ele>
        <time>2011-12-30T08:22:15Z</time>
      </trkpt>
      <trkpt lat="11.55464" lon="42.83341">
        <ele>235.66</ele>
        <time>2011-12-30T08:22:16Z</time>
      </trkpt>
      <trkpt lat="11.55472" lon="42.83338">
        <ele>232.3</ele>
        <time>2011-12-30T08:22:22Z</time>
      </trkpt>
      <trkpt lat="11.55473" lon="42.83337">
        <ele>231.81</ele>
        <time>2011-12-30T08:22:24Z</time>
      </trkpt>
      <trkpt lat="11.55476" lon="42.83336">
        <ele>232.3</ele>
        <time>2011-12-30T08:22:26Z</time>
      </trkpt>
      <trkpt lat="11.55482" lon="42.83333">
        <ele>228.45</ele>
        <time>2011-12-30T08:22:31Z</time>
      </trkpt>
      <trkpt lat="11.55483" lon="42.83333">
        <ele>231.81</ele>
        <time>2011-12-30T08:22:32Z</time>
      </trkpt>
      <trkpt lat="11.55484" lon="42.83332">
        <ele>232.3</ele>
        <time>2011-12-30T08:22:33Z</time>
      </trkpt>
      <trkpt lat="11.55492" lon="42.83329">
        <ele>229.89</ele>
        <time>2011-12-30T08:22:38Z</time>
      </trkpt>
      <trkpt lat="11.55493" lon="42.83328">
        <ele>228.93</ele>
        <time>2011-12-30T08:22:39Z</time>
      </trkpt>
      <trkpt lat="11.55505" lon="42.83326">
        <ele>229.41</ele>
        <time>2011-12-30T08:22:49Z</time>
      </trkpt>
      <trkpt lat="11.5551" lon="42.83324">
        <ele>228.45</ele>
        <time>2011-12-30T08:22:53Z</time>
      </trkpt>
      <trkpt lat="11.55518" lon="42.83326">
        <ele>225.57</ele>
        <time>2011-12-30T08:23:00Z</time>
      </trkpt>
      <trkpt lat="11.55521" lon="42.83329">
        <ele>226.05</ele>
        <time>2011-12-30T08:23:12Z</time>
      </trkpt>
      <trkpt lat="11.55521" lon="42.83328">
        <ele>225.57</ele>
        <time>2011-12-30T08:23:14Z</time>
      </trkpt>
      <trkpt lat="11.55515" lon="42.83322">
        <ele>229.41</ele>
        <time>2011-12-30T08:23:19Z</time>
      </trkpt>
      <trkpt lat="11.55514" lon="42.83322">
        <ele>227.01</ele>
        <time>2011-12-30T08:23:28Z</time>
      </trkpt>
      <trkpt lat="11.55523" lon="42.83332">
        <ele>225.57</ele>
        <time>2011-12-30T08:23:40Z</time>
      </trkpt>
      <trkpt lat="11.55523" lon="42.83333">
        <ele>225.09</ele>
        <time>2011-12-30T08:23:41Z</time>
      </trkpt>
      <trkpt lat="11.55525" lon="42.83333">
        <ele>223.16</ele>
        <time>2011-12-30T08:23:43Z</time>
      </trkpt>
      <trkpt lat="11.55529" lon="42.83336">
        <ele>222.2</ele>
        <time>2011-12-30T08:23:49Z</time>
      </trkpt>
      <trkpt lat="11.55533" lon="42.83342">
        <ele>219.32</ele>
        <time>2011-12-30T08:23:57Z</time>
      </trkpt>
      <trkpt lat="11.55533" lon="42.83342">
        <ele>219.32</ele>
        <time>2011-12-30T08:24:43Z</time>
      </trkpt>
      <trkpt lat="11.55533" lon="42.83343">
        <ele>216.43</ele>
        <time>2011-12-30T08:25:19Z</time>
      </trkpt>
      <trkpt lat="11.55533" lon="42.83343">
        <ele>216.43</ele>
        <time>2011-12-30T08:25:20Z</time>
      </trkpt>
      <trkpt lat="11.55533" lon="42.83343">
        <ele>221.24</ele>
        <time>2011-12-30T08:25:23Z</time>
      </trkpt>
      <trkpt lat="11.55533" lon="42.83342">
        <ele>217.88</ele>
        <time>2011-12-30T08:25:35Z</time>
      </trkpt>
      <trkpt lat="11.55533" lon="42.83342">
        <ele>219.32</ele>
        <time>2011-12-30T08:26:11Z</time>
      </trkpt>
      <trkpt lat="11.55532" lon="42.83342">
        <ele>218.36</ele>
        <time>2011-12-30T08:26:35Z</time>
      </trkpt>
      <trkpt lat="11.55533" lon="42.83341">
        <ele>218.36</ele>
        <time>2011-12-30T08:27:42Z</time>
      </trkpt>
      <trkpt lat="11.55533" lon="42.83341">
        <ele>218.36</ele>
        <time>2011-12-30T08:27:53Z</time>
      </trkpt>
      <trkpt lat="11.55534" lon="42.8334">
        <ele>220.28</ele>
        <time>2011-12-30T08:28:08Z</time>
      </trkpt>
      <trkpt lat="11.55534" lon="42.8334">
        <ele>218.36</ele>
        <time>2011-12-30T08:28:31Z</time>
      </trkpt>
      <trkpt lat="11.55533" lon="42.83341">
        <ele>219.32</ele>
        <time>2011-12-30T08:28:49Z</time>
      </trkpt>
      <trkpt lat="11.55532" lon="42.83341">
        <ele>217.4</ele>
        <time>2011-12-30T08:29:07Z</time>
      </trkpt>
      <trkpt lat="11.55533" lon="42.83341">
        <ele>218.84</ele>
        <time>2011-12-30T08:30:10Z</time>
      </trkpt>
      <trkpt lat="11.55532" lon="42.83342">
        <ele>218.36</ele>
        <time>2011-12-30T08:30:36Z</time>
      </trkpt>
      <trkpt lat="11.55532" lon="42.83342">
        <ele>218.36</ele>
        <time>2011-12-30T08:30:44Z</time>
      </trkpt>
      <trkpt lat="11.55533" lon="42.83342">
        <ele>216.43</ele>
        <time>2011-12-30T08:30:58Z</time>
      </trkpt>
      <trkpt lat="11.55533" lon="42.83342">
        <ele>218.84</ele>
        <time>2011-12-30T08:31:57Z</time>
      </trkpt>
      <trkpt lat="11.55533" lon="42.83342">
        <ele>215.47</ele>
        <time>2011-12-30T08:31:59Z</time>
      </trkpt>
      <trkpt lat="11.55533" lon="42.83342">
        <ele>218.84</ele>
        <time>2011-12-30T08:32:00Z</time>
      </trkpt>
      <trkpt lat="11.55533" lon="42.83342">
        <ele>215.47</ele>
        <time>2011-12-30T08:32:04Z</time>
      </trkpt>
      <trkpt lat="11.55533" lon="42.83343">
        <ele>218.84</ele>
        <time>2011-12-30T08:32:12Z</time>
      </trkpt>
      <trkpt lat="11.55533" lon="42.83343">
        <ele>217.4</ele>
        <time>2011-12-30T08:32:56Z</time>
      </trkpt>
      <trkpt lat="11.5553" lon="42.83344">
        <ele>220.76</ele>
        <time>2011-12-30T08:35:35Z</time>
      </trkpt>
      <trkpt lat="11.5553" lon="42.83344">
        <ele>217.4</ele>
        <time>2011-12-30T08:35:37Z</time>
      </trkpt>
      <trkpt lat="11.5553" lon="42.83344">
        <ele>217.4</ele>
        <time>2011-12-30T08:35:38Z</time>
      </trkpt>
      <trkpt lat="11.55529" lon="42.83344">
        <ele>215.95</ele>
        <time>2011-12-30T08:37:14Z</time>
      </trkpt>
      <trkpt lat="11.55529" lon="42.83344">
        <ele>217.4</ele>
        <time>2011-12-30T08:37:30Z</time>
      </trkpt>
      <trkpt lat="11.5553" lon="42.83344">
        <ele>220.28</ele>
        <time>2011-12-30T08:41:17Z</time>
      </trkpt>
      <trkpt lat="11.5553" lon="42.83344">
        <ele>216.91</ele>
        <time>2011-12-30T08:41:20Z</time>
      </trkpt>
      <trkpt lat="11.5553" lon="42.83343">
        <ele>217.4</ele>
        <time>2011-12-30T08:41:33Z</time>
      </trkpt>
      <trkpt lat="11.5553" lon="42.83343">
        <ele>216.91</ele>
        <time>2011-12-30T08:41:39Z</time>
      </trkpt>
      <trkpt lat="11.55531" lon="42.83343">
        <ele>217.4</ele>
        <time>2011-12-30T08:42:10Z</time>
      </trkpt>
      <trkpt lat="11.5553" lon="42.83343">
        <ele>216.43</ele>
        <time>2011-12-30T08:42:32Z</time>
      </trkpt>
      <trkpt lat="11.5553" lon="42.83343">
        <ele>220.28</ele>
        <time>2011-12-30T08:42:33Z</time>
      </trkpt>
      <trkpt lat="11.5553" lon="42.83343">
        <ele>217.4</ele>
        <time>2011-12-30T08:42:36Z</time>
      </trkpt>
      <trkpt lat="11.55529" lon="42.83343">
        <ele>211.63</ele>
        <time>2011-12-30T08:44:06Z</time>
      </trkpt>
      <trkpt lat="11.55529" lon="42.83343">
        <ele>214.99</ele>
        <time>2011-12-30T08:44:07Z</time>
      </trkpt>
      <trkpt lat="11.55529" lon="42.83343">
        <ele>218.84</ele>
        <time>2011-12-30T08:44:08Z</time>
      </trkpt>
      <trkpt lat="11.55529" lon="42.83343">
        <ele>216.43</ele>
        <time>2011-12-30T08:44:09Z</time>
      </trkpt>
      <trkpt lat="11.55528" lon="42.83343">
        <ele>216.43</ele>
        <time>2011-12-30T08:45:00Z</time>
      </trkpt>
      <trkpt lat="11.55527" lon="42.83342">
        <ele>216.91</ele>
        <time>2011-12-30T08:45:45Z</time>
      </trkpt>
      <trkpt lat="11.55527" lon="42.83342">
        <ele>216.43</ele>
        <time>2011-12-30T08:46:32Z</time>
      </trkpt>
      <trkpt lat="11.55527" lon="42.83343">
        <ele>212.59</ele>
        <time>2011-12-30T08:50:35Z</time>
      </trkpt>
      <trkpt lat="11.55527" lon="42.83343">
        <ele>217.4</ele>
        <time>2011-12-30T08:50:42Z</time>
      </trkpt>
      <trkpt lat="11.55527" lon="42.83343">
        <ele>214.51</ele>
        <time>2011-12-30T08:50:46Z</time>
      </trkpt>
      <trkpt lat="11.55527" lon="42.83343">
        <ele>215.47</ele>
        <time>2011-12-30T08:51:29Z</time>
      </trkpt>
      <trkpt lat="11.55529" lon="42.8334">
        <ele>216.43</ele>
        <time>2011-12-30T08:55:18Z</time>
      </trkpt>
      <trkpt lat="11.55529" lon="42.83341">
        <ele>214.99</ele>
        <time>2011-12-30T08:55:20Z</time>
      </trkpt>
      <trkpt lat="11.55529" lon="42.83341">
        <ele>213.07</ele>
        <time>2011-12-30T08:55:24Z</time>
      </trkpt>
      <trkpt lat="11.55531" lon="42.83342">
        <ele>216.43</ele>
        <time>2011-12-30T08:57:36Z</time>
      </trkpt>
      <trkpt lat="11.55531" lon="42.83342">
        <ele>214.51</ele>
        <time>2011-12-30T08:57:39Z</time>
      </trkpt>
      <trkpt lat="11.55531" lon="42.83343">
        <ele>214.51</ele>
        <time>2011-12-30T08:58:35Z</time>
      </trkpt>
      <trkpt lat="11.5553" lon="42.83343">
        <ele>214.03</ele>
        <time>2011-12-30T08:58:55Z</time>
      </trkpt>
      <trkpt lat="11.5553" lon="42.83343">
        <ele>209.7</ele>
        <time>2011-12-30T08:59:05Z</time>
      </trkpt>
      <trkpt lat="11.5553" lon="42.83342">
        <ele>212.11</ele>
        <time>2011-12-30T08:59:06Z</time>
      </trkpt>
      <trkpt lat="11.5553" lon="42.83342">
        <ele>214.03</ele>
        <time>2011-12-30T08:59:09Z</time>
      </trkpt>
      <trkpt lat="11.55529" lon="42.83344">
        <ele>212.59</ele>
        <time>2011-12-30T09:04:39Z</time>
      </trkpt>
      <trkpt lat="11.5553" lon="42.83344">
        <ele>212.11</ele>
        <time>2011-12-30T09:06:54Z</time>
      </trkpt>
      <trkpt lat="11.5553" lon="42.83344">
        <ele>213.07</ele>
        <time>2011-12-30T09:07:02Z</time>
      </trkpt>
      <trkpt lat="11.5553" lon="42.83343">
        <ele>213.55</ele>
        <time>2011-12-30T09:08:44Z</time>
      </trkpt>
      <trkpt lat="11.5553" lon="42.83343">
        <ele>207.3</ele>
        <time>2011-12-30T09:09:18Z</time>
      </trkpt>
      <trkpt lat="11.5553" lon="42.83343">
        <ele>214.03</ele>
        <time>2011-12-30T09:09:19Z</time>
      </trkpt>
      <trkpt lat="11.55532" lon="42.83345">
        <ele>213.55</ele>
        <time>2011-12-30T09:09:23Z</time>
      </trkpt>
      <trkpt lat="11.55532" lon="42.83348">
        <ele>212.59</ele>
        <time>2011-12-30T09:09:58Z</time>
      </trkpt>
      <trkpt lat="11.55532" lon="42.83348">
        <ele>212.11</ele>
        <time>2011-12-30T09:10:38Z</time>
      </trkpt>
      <trkpt lat="11.55534" lon="42.83349">
        <ele>213.07</ele>
        <time>2011-12-30T09:10:56Z</time>
      </trkpt>
      <trkpt lat="11.55535" lon="42.83349">
        <ele>212.59</ele>
        <time>2011-12-30T09:11:31Z</time>
      </trkpt>
      <trkpt lat="11.55536" lon="42.8335">
        <ele>213.55</ele>
        <time>2011-12-30T09:11:36Z</time>
      </trkpt>
      <trkpt lat="11.55545" lon="42.83359">
        <ele>210.19</ele>
        <time>2011-12-30T09:11:49Z</time>
      </trkpt>
      <trkpt lat="11.55545" lon="42.83363">
        <ele>209.22</ele>
        <time>2011-12-30T09:11:53Z</time>
      </trkpt>
      <trkpt lat="11.55546" lon="42.83364">
        <ele>208.26</ele>
        <time>2011-12-30T09:12:04Z</time>
      </trkpt>
      <trkpt lat="11.55539" lon="42.83356">
        <ele>211.63</ele>
        <time>2011-12-30T09:12:12Z</time>
      </trkpt>
      <trkpt lat="11.55536" lon="42.83349">
        <ele>207.78</ele>
        <time>2011-12-30T09:12:17Z</time>
      </trkpt>
      <trkpt lat="11.55535" lon="42.83348">
        <ele>211.63</ele>
        <time>2011-12-30T09:12:19Z</time>
      </trkpt>
      <trkpt lat="11.55534" lon="42.83347">
        <ele>216.43</ele>
        <time>2011-12-30T09:12:23Z</time>
      </trkpt>
      <trkpt lat="11.55533" lon="42.83346">
        <ele>214.03</ele>
        <time>2011-12-30T09:12:24Z</time>
      </trkpt>
      <trkpt lat="11.55532" lon="42.83346">
        <ele>215.47</ele>
        <time>2011-12-30T09:12:29Z</time>
      </trkpt>
      <trkpt lat="11.55532" lon="42.83346">
        <ele>208.26</ele>
        <time>2011-12-30T09:12:32Z</time>
      </trkpt>
      <trkpt lat="11.55532" lon="42.83346">
        <ele>217.4</ele>
        <time>2011-12-30T09:12:33Z</time>
      </trkpt>
      <trkpt lat="11.55532" lon="42.83346">
        <ele>216.91</ele>
        <time>2011-12-30T09:12:34Z</time>
      </trkpt>
      <trkpt lat="11.55532" lon="42.83346">
        <ele>214.51</ele>
        <time>2011-12-30T09:12:36Z</time>
      </trkpt>
      <trkpt lat="11.55534" lon="42.83347">
        <ele>214.03</ele>
        <time>2011-12-30T09:12:39Z</time>
      </trkpt>
      <trkpt lat="11.5554" lon="42.83354">
        <ele>212.59</ele>
        <time>2011-12-30T09:12:48Z</time>
      </trkpt>
      <trkpt lat="11.55543" lon="42.83356">
        <ele>210.19</ele>
        <time>2011-12-30T09:12:51Z</time>
      </trkpt>
      <trkpt lat="11.55545" lon="42.83359">
        <ele>210.19</ele>
        <time>2011-12-30T09:12:55Z</time>
      </trkpt>
      <trkpt lat="11.55546" lon="42.83361">
        <ele>208.26</ele>
        <time>2011-12-30T09:12:58Z</time>
      </trkpt>
      <trkpt lat="11.55551" lon="42.83369">
        <ele>208.26</ele>
        <time>2011-12-30T09:13:12Z</time>
      </trkpt>
      <trkpt lat="11.55555" lon="42.83372">
        <ele>210.19</ele>
        <time>2011-12-30T09:13:17Z</time>
      </trkpt>
      <trkpt lat="11.55556" lon="42.83372">
        <ele>208.74</ele>
        <time>2011-12-30T09:13:20Z</time>
      </trkpt>
      <trkpt lat="11.55566" lon="42.83377">
        <ele>207.78</ele>
        <time>2011-12-30T09:13:31Z</time>
      </trkpt>
      <trkpt lat="11.55569" lon="42.83378">
        <ele>211.15</ele>
        <time>2011-12-30T09:13:34Z</time>
      </trkpt>
      <trkpt lat="11.55571" lon="42.83381">
        <ele>208.74</ele>
        <time>2011-12-30T09:13:37Z</time>
      </trkpt>
      <trkpt lat="11.55572" lon="42.83381">
        <ele>211.63</ele>
        <time>2011-12-30T09:13:38Z</time>
      </trkpt>
      <trkpt lat="11.55573" lon="42.83383">
        <ele>208.26</ele>
        <time>2011-12-30T09:13:40Z</time>
      </trkpt>
      <trkpt lat="11.55576" lon="42.83385">
        <ele>208.26</ele>
        <time>2011-12-30T09:13:44Z</time>
      </trkpt>
      <trkpt lat="11.55584" lon="42.83387">
        <ele>208.26</ele>
        <time>2011-12-30T09:13:52Z</time>
      </trkpt>
      <trkpt lat="11.55586" lon="42.83399">
        <ele>208.26</ele>
        <time>2011-12-30T09:14:03Z</time>
      </trkpt>
      <trkpt lat="11.55587" lon="42.83412">
        <ele>206.82</ele>
        <time>2011-12-30T09:14:15Z</time>
      </trkpt>
      <trkpt lat="11.55588" lon="42.83412">
        <ele>210.67</ele>
        <time>2011-12-30T09:14:16Z</time>
      </trkpt>
      <trkpt lat="11.55589" lon="42.83413">
        <ele>214.03</ele>
        <time>2011-12-30T09:14:18Z</time>
      </trkpt>
      <trkpt lat="11.55592" lon="42.83414">
        <ele>216.91</ele>
        <time>2011-12-30T09:14:21Z</time>
      </trkpt>
      <trkpt lat="11.55592" lon="42.83415">
        <ele>212.11</ele>
        <time>2011-12-30T09:14:22Z</time>
      </trkpt>
      <trkpt lat="11.55594" lon="42.83416">
        <ele>215.47</ele>
        <time>2011-12-30T09:14:25Z</time>
      </trkpt>
      <trkpt lat="11.55595" lon="42.83417">
        <ele>207.3</ele>
        <time>2011-12-30T09:14:26Z</time>
      </trkpt>
      <trkpt lat="11.55595" lon="42.83417">
        <ele>213.55</ele>
        <time>2011-12-30T09:14:27Z</time>
      </trkpt>
      <trkpt lat="11.55595" lon="42.83418">
        <ele>206.82</ele>
        <time>2011-12-30T09:14:36Z</time>
      </trkpt>
      <trkpt lat="11.55596" lon="42.83417">
        <ele>214.51</ele>
        <time>2011-12-30T09:14:37Z</time>
      </trkpt>
      <trkpt lat="11.55596" lon="42.83417">
        <ele>213.55</ele>
        <time>2011-12-30T09:14:38Z</time>
      </trkpt>
      <trkpt lat="11.55596" lon="42.83417">
        <ele>208.74</ele>
        <time>2011-12-30T09:14:54Z</time>
      </trkpt>
      <trkpt lat="11.55596" lon="42.83417">
        <ele>214.51</ele>
        <time>2011-12-30T09:14:55Z</time>
      </trkpt>
      <trkpt lat="11.55597" lon="42.83417">
        <ele>213.55</ele>
        <time>2011-12-30T09:14:59Z</time>
      </trkpt>
      <trkpt lat="11.55597" lon="42.83417">
        <ele>219.32</ele>
        <time>2011-12-30T09:15:01Z</time>
      </trkpt>
      <trkpt lat="11.55597" lon="42.83417">
        <ele>218.36</ele>
        <time>2011-12-30T09:15:02Z</time>
      </trkpt>
      <trkpt lat="11.55597" lon="42.83417">
        <ele>208.74</ele>
        <time>2011-12-30T09:15:04Z</time>
      </trkpt>
      <trkpt lat="11.55597" lon="42.83417">
        <ele>211.15</ele>
        <time>2011-12-30T09:15:05Z</time>
      </trkpt>
      <trkpt lat="11.55597" lon="42.83417">
        <ele>218.84</ele>
        <time>2011-12-30T09:15:06Z</time>
      </trkpt>
      <trkpt lat="11.55597" lon="42.83417">
        <ele>215.47</ele>
        <time>2011-12-30T09:15:07Z</time>
      </trkpt>
      <trkpt lat="11.55597" lon="42.83417">
        <ele>211.15</ele>
        <time>2011-12-30T09:15:12Z</time>
      </trkpt>
      <trkpt lat="11.55597" lon="42.83417">
        <ele>214.51</ele>
        <time>2011-12-30T09:15:13Z</time>
      </trkpt>
      <trkpt lat="11.55597" lon="42.83417">
        <ele>219.32</ele>
        <time>2011-12-30T09:15:21Z</time>
      </trkpt>
      <trkpt lat="11.55597" lon="42.83417">
        <ele>215.95</ele>
        <time>2011-12-30T09:15:22Z</time>
      </trkpt>
      <trkpt lat="11.55597" lon="42.83417">
        <ele>215.47</ele>
        <time>2011-12-30T09:15:29Z</time>
      </trkpt>
      <trkpt lat="11.55597" lon="42.83417">
        <ele>208.26</ele>
        <time>2011-12-30T09:15:32Z</time>
      </trkpt>
      <trkpt lat="11.55597" lon="42.83417">
        <ele>209.7</ele>
        <time>2011-12-30T09:15:33Z</time>
      </trkpt>
      <trkpt lat="11.55597" lon="42.83417">
        <ele>217.4</ele>
        <time>2011-12-30T09:15:35Z</time>
      </trkpt>
      <trkpt lat="11.55597" lon="42.83417">
        <ele>215.95</ele>
        <time>2011-12-30T09:15:38Z</time>
      </trkpt>
      <trkpt lat="11.55597" lon="42.83414">
        <ele>213.07</ele>
        <time>2011-12-30T09:15:41Z</time>
      </trkpt>
      <trkpt lat="11.55597" lon="42.83414">
        <ele>213.55</ele>
        <time>2011-12-30T09:16:04Z</time>
      </trkpt>
      <trkpt lat="11.55592" lon="42.83412">
        <ele>211.63</ele>
        <time>2011-12-30T09:16:09Z</time>
      </trkpt>
      <trkpt lat="11.55589" lon="42.8341">
        <ele>212.59</ele>
        <time>2011-12-30T09:16:13Z</time>
      </trkpt>
      <trkpt lat="11.55588" lon="42.83408">
        <ele>211.63</ele>
        <time>2011-12-30T09:16:15Z</time>
      </trkpt>
      <trkpt lat="11.55588" lon="42.83405">
        <ele>210.19</ele>
        <time>2011-12-30T09:16:19Z</time>
      </trkpt>
      <trkpt lat="11.55592" lon="42.83401">
        <ele>208.26</ele>
        <time>2011-12-30T09:16:27Z</time>
      </trkpt>
      <trkpt lat="11.55599" lon="42.83402">
        <ele>208.26</ele>
        <time>2011-12-30T09:16:33Z</time>
      </trkpt>
      <trkpt lat="11.55603" lon="42.83402">
        <ele>205.86</ele>
        <time>2011-12-30T09:16:36Z</time>
      </trkpt>
      <trkpt lat="11.55604" lon="42.83402">
        <ele>207.78</ele>
        <time>2011-12-30T09:16:39Z</time>
      </trkpt>
      <trkpt lat="11.55606" lon="42.83403">
        <ele>209.22</ele>
        <time>2011-12-30T09:16:41Z</time>
      </trkpt>
      <trkpt lat="11.5561" lon="42.83407">
        <ele>207.78</ele>
        <time>2011-12-30T09:16:45Z</time>
      </trkpt>
      <trkpt lat="11.55611" lon="42.83409">
        <ele>207.3</ele>
        <time>2011-12-30T09:16:47Z</time>
      </trkpt>
      <trkpt lat="11.55614" lon="42.83418">
        <ele>204.42</ele>
        <time>2011-12-30T09:16:53Z</time>
      </trkpt>
      <trkpt lat="11.55615" lon="42.83419">
        <ele>205.38</ele>
        <time>2011-12-30T09:16:54Z</time>
      </trkpt>
      <trkpt lat="11.55616" lon="42.8342">
        <ele>206.34</ele>
        <time>2011-12-30T09:16:56Z</time>
      </trkpt>
      <trkpt lat="11.55619" lon="42.83422">
        <ele>208.26</ele>
        <time>2011-12-30T09:16:59Z</time>
      </trkpt>
      <trkpt lat="11.5562" lon="42.83423">
        <ele>209.7</ele>
        <time>2011-12-30T09:17:01Z</time>
      </trkpt>
      <trkpt lat="11.55621" lon="42.83424">
        <ele>208.74</ele>
        <time>2011-12-30T09:17:02Z</time>
      </trkpt>
      <trkpt lat="11.55626" lon="42.83427">
        <ele>205.86</ele>
        <time>2011-12-30T09:17:07Z</time>
      </trkpt>
      <trkpt lat="11.55636" lon="42.8343">
        <ele>207.3</ele>
        <time>2011-12-30T09:17:17Z</time>
      </trkpt>
      <trkpt lat="11.55646" lon="42.83432">
        <ele>206.82</ele>
        <time>2011-12-30T09:17:26Z</time>
      </trkpt>
      <trkpt lat="11.55651" lon="42.83434">
        <ele>203.94</ele>
        <time>2011-12-30T09:17:31Z</time>
      </trkpt>
      <trkpt lat="11.55654" lon="42.83436">
        <ele>205.38</ele>
        <time>2011-12-30T09:17:34Z</time>
      </trkpt>
      <trkpt lat="11.5566" lon="42.83442">
        <ele>202.01</ele>
        <time>2011-12-30T09:17:41Z</time>
      </trkpt>
      <trkpt lat="11.55661" lon="42.83443">
        <ele>207.78</ele>
        <time>2011-12-30T09:17:42Z</time>
      </trkpt>
      <trkpt lat="11.55664" lon="42.83444">
        <ele>202.01</ele>
        <time>2011-12-30T09:17:47Z</time>
      </trkpt>
      <trkpt lat="11.55665" lon="42.83445">
        <ele>205.38</ele>
        <time>2011-12-30T09:17:49Z</time>
      </trkpt>
      <trkpt lat="11.55676" lon="42.83448">
        <ele>204.42</ele>
        <time>2011-12-30T09:17:58Z</time>
      </trkpt>
      <trkpt lat="11.5568" lon="42.83449">
        <ele>201.05</ele>
        <time>2011-12-30T09:18:01Z</time>
      </trkpt>
      <trkpt lat="11.55681" lon="42.83449">
        <ele>202.98</ele>
        <time>2011-12-30T09:18:02Z</time>
      </trkpt>
      <trkpt lat="11.55685" lon="42.83449">
        <ele>205.38</ele>
        <time>2011-12-30T09:18:05Z</time>
      </trkpt>
      <trkpt lat="11.55694" lon="42.8345">
        <ele>207.3</ele>
        <time>2011-12-30T09:18:12Z</time>
      </trkpt>
      <trkpt lat="11.557" lon="42.83453">
        <ele>206.34</ele>
        <time>2011-12-30T09:18:17Z</time>
      </trkpt>
      <trkpt lat="11.55707" lon="42.83457">
        <ele>202.98</ele>
        <time>2011-12-30T09:18:24Z</time>
      </trkpt>
      <trkpt lat="11.55714" lon="42.8346">
        <ele>206.34</ele>
        <time>2011-12-30T09:18:33Z</time>
      </trkpt>
      <trkpt lat="11.55719" lon="42.83462">
        <ele>200.57</ele>
        <time>2011-12-30T09:18:37Z</time>
      </trkpt>
      <trkpt lat="11.55721" lon="42.83462">
        <ele>205.86</ele>
        <time>2011-12-30T09:18:39Z</time>
      </trkpt>
      <trkpt lat="11.55722" lon="42.83462">
        <ele>209.7</ele>
        <time>2011-12-30T09:18:40Z</time>
      </trkpt>
      <trkpt lat="11.55724" lon="42.83463">
        <ele>200.09</ele>
        <time>2011-12-30T09:18:42Z</time>
      </trkpt>
      <trkpt lat="11.55725" lon="42.83463">
        <ele>206.34</ele>
        <time>2011-12-30T09:18:43Z</time>
      </trkpt>
      <trkpt lat="11.55727" lon="42.83465">
        <ele>210.19</ele>
        <time>2011-12-30T09:18:45Z</time>
      </trkpt>
      <trkpt lat="11.55728" lon="42.83466">
        <ele>206.82</ele>
        <time>2011-12-30T09:18:47Z</time>
      </trkpt>
      <trkpt lat="11.55729" lon="42.83466">
        <ele>208.26</ele>
        <time>2011-12-30T09:18:48Z</time>
      </trkpt>
      <trkpt lat="11.5573" lon="42.83468">
        <ele>203.94</ele>
        <time>2011-12-30T09:18:51Z</time>
      </trkpt>
      <trkpt lat="11.55734" lon="42.83467">
        <ele>203.94</ele>
        <time>2011-12-30T09:18:55Z</time>
      </trkpt>
      <trkpt lat="11.55735" lon="42.83467">
        <ele>206.82</ele>
        <time>2011-12-30T09:18:56Z</time>
      </trkpt>
      <trkpt lat="11.55737" lon="42.83467">
        <ele>213.07</ele>
        <time>2011-12-30T09:18:58Z</time>
      </trkpt>
      <trkpt lat="11.55738" lon="42.83467">
        <ele>204.9</ele>
        <time>2011-12-30T09:18:59Z</time>
      </trkpt>
      <trkpt lat="11.55739" lon="42.83467">
        <ele>205.86</ele>
        <time>2011-12-30T09:19:00Z</time>
      </trkpt>
      <trkpt lat="11.55743" lon="42.83468">
        <ele>212.11</ele>
        <time>2011-12-30T09:19:03Z</time>
      </trkpt>
      <trkpt lat="11.55743" lon="42.83468">
        <ele>205.86</ele>
        <time>2011-12-30T09:19:04Z</time>
      </trkpt>
      <trkpt lat="11.55744" lon="42.83468">
        <ele>208.74</ele>
        <time>2011-12-30T09:19:05Z</time>
      </trkpt>
      <trkpt lat="11.55744" lon="42.83468">
        <ele>205.86</ele>
        <time>2011-12-30T09:19:10Z</time>
      </trkpt>
      <trkpt lat="11.55745" lon="42.83469">
        <ele>209.22</ele>
        <time>2011-12-30T09:19:11Z</time>
      </trkpt>
      <trkpt lat="11.55749" lon="42.83469">
        <ele>201.05</ele>
        <time>2011-12-30T09:19:16Z</time>
      </trkpt>
      <trkpt lat="11.5575" lon="42.83469">
        <ele>207.78</ele>
        <time>2011-12-30T09:19:17Z</time>
      </trkpt>
      <trkpt lat="11.55752" lon="42.83469">
        <ele>200.09</ele>
        <time>2011-12-30T09:19:19Z</time>
      </trkpt>
      <trkpt lat="11.55752" lon="42.83469">
        <ele>210.67</ele>
        <time>2011-12-30T09:19:20Z</time>
      </trkpt>
      <trkpt lat="11.55758" lon="42.83471">
        <ele>207.78</ele>
        <time>2011-12-30T09:19:25Z</time>
      </trkpt>
      <trkpt lat="11.55759" lon="42.83472">
        <ele>208.74</ele>
        <time>2011-12-30T09:19:26Z</time>
      </trkpt>
      <trkpt lat="11.5576" lon="42.83472">
        <ele>209.22</ele>
        <time>2011-12-30T09:19:28Z</time>
      </trkpt>
      <trkpt lat="11.55764" lon="42.83476">
        <ele>208.26</ele>
        <time>2011-12-30T09:19:39Z</time>
      </trkpt>
      <trkpt lat="11.55764" lon="42.83476">
        <ele>207.3</ele>
        <time>2011-12-30T09:20:00Z</time>
      </trkpt>
      <trkpt lat="11.55764" lon="42.83476">
        <ele>211.15</ele>
        <time>2011-12-30T09:20:04Z</time>
      </trkpt>
      <trkpt lat="11.55764" lon="42.83476">
        <ele>212.11</ele>
        <time>2011-12-30T09:20:16Z</time>
      </trkpt>
      <trkpt lat="11.55765" lon="42.83476">
        <ele>209.7</ele>
        <time>2011-12-30T09:20:18Z</time>
      </trkpt>
      <trkpt lat="11.55765" lon="42.83476">
        <ele>208.26</ele>
        <time>2011-12-30T09:20:51Z</time>
      </trkpt>
      <trkpt lat="11.55765" lon="42.83477">
        <ele>208.26</ele>
        <time>2011-12-30T09:22:06Z</time>
      </trkpt>
      <trkpt lat="11.55765" lon="42.83476">
        <ele>208.74</ele>
        <time>2011-12-30T09:22:34Z</time>
      </trkpt>
      <trkpt lat="11.55764" lon="42.83476">
        <ele>208.26</ele>
        <time>2011-12-30T09:23:10Z</time>
      </trkpt>
      <trkpt lat="11.55765" lon="42.83476">
        <ele>207.78</ele>
        <time>2011-12-30T09:23:40Z</time>
      </trkpt>
      <trkpt lat="11.55765" lon="42.83476">
        <ele>208.26</ele>
        <time>2011-12-30T09:24:06Z</time>
      </trkpt>
      <trkpt lat="11.55764" lon="42.83477">
        <ele>206.82</ele>
        <time>2011-12-30T09:24:42Z</time>
      </trkpt>
      <trkpt lat="11.55763" lon="42.83477">
        <ele>210.19</ele>
        <time>2011-12-30T09:25:22Z</time>
      </trkpt>
      <trkpt lat="11.55763" lon="42.83477">
        <ele>207.78</ele>
        <time>2011-12-30T09:25:23Z</time>
      </trkpt>
      <trkpt lat="11.5576" lon="42.83474">
        <ele>207.3</ele>
        <time>2011-12-30T09:25:41Z</time>
      </trkpt>
      <trkpt lat="11.5576" lon="42.83474">
        <ele>207.3</ele>
        <time>2011-12-30T09:25:53Z</time>
      </trkpt>
      <trkpt lat="11.55759" lon="42.83474">
        <ele>200.57</ele>
        <time>2011-12-30T09:25:55Z</time>
      </trkpt>
      <trkpt lat="11.55758" lon="42.83474">
        <ele>207.78</ele>
        <time>2011-12-30T09:25:56Z</time>
      </trkpt>
      <trkpt lat="11.55755" lon="42.83472">
        <ele>207.78</ele>
        <time>2011-12-30T09:26:00Z</time>
      </trkpt>
      <trkpt lat="11.55747" lon="42.83471">
        <ele>205.86</ele>
        <time>2011-12-30T09:26:10Z</time>
      </trkpt>
      <trkpt lat="11.55741" lon="42.83468">
        <ele>206.34</ele>
        <time>2011-12-30T09:26:22Z</time>
      </trkpt>
      <trkpt lat="11.55733" lon="42.83467">
        <ele>205.86</ele>
        <time>2011-12-30T09:26:43Z</time>
      </trkpt>
      <trkpt lat="11.55733" lon="42.83466">
        <ele>204.9</ele>
        <time>2011-12-30T09:26:44Z</time>
      </trkpt>
      <trkpt lat="11.55725" lon="42.83464">
        <ele>202.98</ele>
        <time>2011-12-30T09:26:51Z</time>
      </trkpt>
      <trkpt lat="11.55719" lon="42.83463">
        <ele>201.53</ele>
        <time>2011-12-30T09:26:58Z</time>
      </trkpt>
      <trkpt lat="11.55714" lon="42.8346">
        <ele>202.98</ele>
        <time>2011-12-30T09:27:03Z</time>
      </trkpt>
      <trkpt lat="11.55711" lon="42.83459">
        <ele>201.05</ele>
        <time>2011-12-30T09:27:06Z</time>
      </trkpt>
      <trkpt lat="11.5571" lon="42.83458">
        <ele>203.46</ele>
        <time>2011-12-30T09:27:08Z</time>
      </trkpt>
      <trkpt lat="11.55703" lon="42.83455">
        <ele>202.49</ele>
        <time>2011-12-30T09:27:18Z</time>
      </trkpt>
      <trkpt lat="11.55699" lon="42.83454">
        <ele>203.46</ele>
        <time>2011-12-30T09:27:24Z</time>
      </trkpt>
      <trkpt lat="11.55697" lon="42.83454">
        <ele>202.49</ele>
        <time>2011-12-30T09:27:26Z</time>
      </trkpt>
      <trkpt lat="11.55687" lon="42.83452">
        <ele>201.05</ele>
        <time>2011-12-30T09:27:35Z</time>
      </trkpt>
      <trkpt lat="11.55682" lon="42.83454">
        <ele>205.86</ele>
        <time>2011-12-30T09:27:40Z</time>
      </trkpt>
      <trkpt lat="11.5568" lon="42.83454">
        <ele>202.49</ele>
        <time>2011-12-30T09:27:42Z</time>
      </trkpt>
      <trkpt lat="11.55676" lon="42.83453">
        <ele>202.98</ele>
        <time>2011-12-30T09:27:46Z</time>
      </trkpt>
      <trkpt lat="11.55673" lon="42.83452">
        <ele>204.42</ele>
        <time>2011-12-30T09:27:49Z</time>
      </trkpt>
      <trkpt lat="11.55669" lon="42.83448">
        <ele>199.13</ele>
        <time>2011-12-30T09:27:54Z</time>
      </trkpt>
      <trkpt lat="11.55667" lon="42.83447">
        <ele>203.46</ele>
        <time>2011-12-30T09:27:56Z</time>
      </trkpt>
      <trkpt lat="11.55664" lon="42.83444">
        <ele>199.13</ele>
        <time>2011-12-30T09:28:00Z</time>
      </trkpt>
      <trkpt lat="11.55662" lon="42.83442">
        <ele>203.94</ele>
        <time>2011-12-30T09:28:02Z</time>
      </trkpt>
      <trkpt lat="11.55661" lon="42.8344">
        <ele>201.53</ele>
        <time>2011-12-30T09:28:04Z</time>
      </trkpt>
      <trkpt lat="11.5566" lon="42.83439">
        <ele>202.49</ele>
        <time>2011-12-30T09:28:06Z</time>
      </trkpt>
      <trkpt lat="11.55658" lon="42.83438">
        <ele>204.42</ele>
        <time>2011-12-30T09:28:08Z</time>
      </trkpt>
      <trkpt lat="11.55657" lon="42.83437">
        <ele>200.57</ele>
        <time>2011-12-30T09:28:09Z</time>
      </trkpt>
      <trkpt lat="11.55656" lon="42.83437">
        <ele>203.46</ele>
        <time>2011-12-30T09:28:10Z</time>
      </trkpt>
      <trkpt lat="11.55653" lon="42.83436">
        <ele>200.57</ele>
        <time>2011-12-30T09:28:13Z</time>
      </trkpt>
      <trkpt lat="11.55651" lon="42.83434">
        <ele>203.46</ele>
        <time>2011-12-30T09:28:15Z</time>
      </trkpt>
      <trkpt lat="11.55649" lon="42.83434">
        <ele>206.34</ele>
        <time>2011-12-30T09:28:17Z</time>
      </trkpt>
      <trkpt lat="11.55648" lon="42.83433">
        <ele>203.46</ele>
        <time>2011-12-30T09:28:18Z</time>
      </trkpt>
      <trkpt lat="11.55647" lon="42.83433">
        <ele>200.09</ele>
        <time>2011-12-30T09:28:19Z</time>
      </trkpt>
      <trkpt lat="11.55646" lon="42.83433">
        <ele>200.09</ele>
        <time>2011-12-30T09:28:20Z</time>
      </trkpt>
      <trkpt lat="11.55645" lon="42.83433">
        <ele>203.94</ele>
        <time>2011-12-30T09:28:21Z</time>
      </trkpt>
      <trkpt lat="11.55643" lon="42.83433">
        <ele>206.34</ele>
        <time>2011-12-30T09:28:23Z</time>
      </trkpt>
      <trkpt lat="11.55641" lon="42.83432">
        <ele>204.42</ele>
        <time>2011-12-30T09:28:25Z</time>
      </trkpt>
      <trkpt lat="11.55636" lon="42.8343">
        <ele>203.94</ele>
        <time>2011-12-30T09:28:30Z</time>
      </trkpt>
      <trkpt lat="11.55628" lon="42.83428">
        <ele>201.05</ele>
        <time>2011-12-30T09:28:38Z</time>
      </trkpt>
      <trkpt lat="11.55627" lon="42.83428">
        <ele>204.42</ele>
        <time>2011-12-30T09:28:39Z</time>
      </trkpt>
      <trkpt lat="11.55624" lon="42.83426">
        <ele>203.94</ele>
        <time>2011-12-30T09:28:43Z</time>
      </trkpt>
      <trkpt lat="11.55623" lon="42.83426">
        <ele>204.9</ele>
        <time>2011-12-30T09:28:44Z</time>
      </trkpt>
      <trkpt lat="11.55619" lon="42.83425">
        <ele>202.01</ele>
        <time>2011-12-30T09:28:48Z</time>
      </trkpt>
      <trkpt lat="11.55616" lon="42.8342">
        <ele>201.05</ele>
        <time>2011-12-30T09:28:53Z</time>
      </trkpt>
      <trkpt lat="11.55615" lon="42.83418">
        <ele>205.86</ele>
        <time>2011-12-30T09:28:55Z</time>
      </trkpt>
      <trkpt lat="11.55614" lon="42.83416">
        <ele>207.3</ele>
        <time>2011-12-30T09:28:57Z</time>
      </trkpt>
      <trkpt lat="11.55614" lon="42.83415">
        <ele>202.01</ele>
        <time>2011-12-30T09:28:58Z</time>
      </trkpt>
      <trkpt lat="11.55614" lon="42.83414">
        <ele>202.98</ele>
        <time>2011-12-30T09:28:59Z</time>
      </trkpt>
      <trkpt lat="11.55613" lon="42.83412">
        <ele>206.34</ele>
        <time>2011-12-30T09:29:00Z</time>
      </trkpt>
      <trkpt lat="11.55612" lon="42.8341">
        <ele>202.01</ele>
        <time>2011-12-30T09:29:02Z</time>
      </trkpt>
      <trkpt lat="11.55612" lon="42.83409">
        <ele>202.98</ele>
        <time>2011-12-30T09:29:03Z</time>
      </trkpt>
      <trkpt lat="11.55611" lon="42.83407">
        <ele>207.3</ele>
        <time>2011-12-30T09:29:05Z</time>
      </trkpt>
      <trkpt lat="11.55609" lon="42.83406">
        <ele>202.49</ele>
        <time>2011-12-30T09:29:07Z</time>
      </trkpt>
      <trkpt lat="11.55608" lon="42.83405">
        <ele>203.94</ele>
        <time>2011-12-30T09:29:08Z</time>
      </trkpt>
      <trkpt lat="11.55606" lon="42.83404">
        <ele>207.78</ele>
        <time>2011-12-30T09:29:10Z</time>
      </trkpt>
      <trkpt lat="11.55603" lon="42.83403">
        <ele>205.38</ele>
        <time>2011-12-30T09:29:14Z</time>
      </trkpt>
      <trkpt lat="11.556" lon="42.83403">
        <ele>207.78</ele>
        <time>2011-12-30T09:29:17Z</time>
      </trkpt>
      <trkpt lat="11.55594" lon="42.83401">
        <ele>206.82</ele>
        <time>2011-12-30T09:29:23Z</time>
      </trkpt>
      <trkpt lat="11.55589" lon="42.83398">
        <ele>205.86</ele>
        <time>2011-12-30T09:29:28Z</time>
      </trkpt>
      <trkpt lat="11.55589" lon="42.83387">
        <ele>205.86</ele>
        <time>2011-12-30T09:29:38Z</time>
      </trkpt>
      <trkpt lat="11.55588" lon="42.83384">
        <ele>206.34</ele>
        <time>2011-12-30T09:29:41Z</time>
      </trkpt>
      <trkpt lat="11.55583" lon="42.83384">
        <ele>205.86</ele>
        <time>2011-12-30T09:29:46Z</time>
      </trkpt>
      <trkpt lat="11.55582" lon="42.83384">
        <ele>209.22</ele>
        <time>2011-12-30T09:29:47Z</time>
      </trkpt>
      <trkpt lat="11.55582" lon="42.83384">
        <ele>209.7</ele>
        <time>2011-12-30T09:29:48Z</time>
      </trkpt>
      <trkpt lat="11.55578" lon="42.83382">
        <ele>202.49</ele>
        <time>2011-12-30T09:29:52Z</time>
      </trkpt>
      <trkpt lat="11.55578" lon="42.83382">
        <ele>209.7</ele>
        <time>2011-12-30T09:29:53Z</time>
      </trkpt>
      <trkpt lat="11.55577" lon="42.83382">
        <ele>204.9</ele>
        <time>2011-12-30T09:29:54Z</time>
      </trkpt>
      <trkpt lat="11.55576" lon="42.83381">
        <ele>207.78</ele>
        <time>2011-12-30T09:29:55Z</time>
      </trkpt>
      <trkpt lat="11.55575" lon="42.83381">
        <ele>206.34</ele>
        <time>2011-12-30T09:29:56Z</time>
      </trkpt>
      <trkpt lat="11.5557" lon="42.83374">
        <ele>208.26</ele>
        <time>2011-12-30T09:30:04Z</time>
      </trkpt>
      <trkpt lat="11.55568" lon="42.83372">
        <ele>207.3</ele>
        <time>2011-12-30T09:30:06Z</time>
      </trkpt>
      <trkpt lat="11.55567" lon="42.83371">
        <ele>210.19</ele>
        <time>2011-12-30T09:30:07Z</time>
      </trkpt>
      <trkpt lat="11.55567" lon="42.8337">
        <ele>205.38</ele>
        <time>2011-12-30T09:30:08Z</time>
      </trkpt>
      <trkpt lat="11.55565" lon="42.83369">
        <ele>207.78</ele>
        <time>2011-12-30T09:30:10Z</time>
      </trkpt>
      <trkpt lat="11.55563" lon="42.83369">
        <ele>211.63</ele>
        <time>2011-12-30T09:30:11Z</time>
      </trkpt>
      <trkpt lat="11.55562" lon="42.83369">
        <ele>211.63</ele>
        <time>2011-12-30T09:30:12Z</time>
      </trkpt>
      <trkpt lat="11.55562" lon="42.83369">
        <ele>208.26</ele>
        <time>2011-12-30T09:30:13Z</time>
      </trkpt>
      <trkpt lat="11.55561" lon="42.83369">
        <ele>199.13</ele>
        <time>2011-12-30T09:30:15Z</time>
      </trkpt>
      <trkpt lat="11.55561" lon="42.83368">
        <ele>205.86</ele>
        <time>2011-12-30T09:30:16Z</time>
      </trkpt>
      <trkpt lat="11.5556" lon="42.83368">
        <ele>211.15</ele>
        <time>2011-12-30T09:30:17Z</time>
      </trkpt>
      <trkpt lat="11.55559" lon="42.83367">
        <ele>209.22</ele>
        <time>2011-12-30T09:30:18Z</time>
      </trkpt>
      <trkpt lat="11.55558" lon="42.83366">
        <ele>203.46</ele>
        <time>2011-12-30T09:30:19Z</time>
      </trkpt>
      <trkpt lat="11.55557" lon="42.83366">
        <ele>206.34</ele>
        <time>2011-12-30T09:30:20Z</time>
      </trkpt>
      <trkpt lat="11.55556" lon="42.83366">
        <ele>209.7</ele>
        <time>2011-12-30T09:30:21Z</time>
      </trkpt>
      <trkpt lat="11.55555" lon="42.83365">
        <ele>209.22</ele>
        <time>2011-12-30T09:30:22Z</time>
      </trkpt>
      <trkpt lat="11.55553" lon="42.83364">
        <ele>204.42</ele>
        <time>2011-12-30T09:30:24Z</time>
      </trkpt>
      <trkpt lat="11.55552" lon="42.83361">
        <ele>209.7</ele>
        <time>2011-12-30T09:30:27Z</time>
      </trkpt>
      <trkpt lat="11.55551" lon="42.8336">
        <ele>202.01</ele>
        <time>2011-12-30T09:30:28Z</time>
      </trkpt>
      <trkpt lat="11.55551" lon="42.83359">
        <ele>207.3</ele>
        <time>2011-12-30T09:30:29Z</time>
      </trkpt>
      <trkpt lat="11.5555" lon="42.83359">
        <ele>210.19</ele>
        <time>2011-12-30T09:30:30Z</time>
      </trkpt>
      <trkpt lat="11.55548" lon="42.83358">
        <ele>202.49</ele>
        <time>2011-12-30T09:30:32Z</time>
      </trkpt>
      <trkpt lat="11.55547" lon="42.83357">
        <ele>205.86</ele>
        <time>2011-12-30T09:30:33Z</time>
      </trkpt>
      <trkpt lat="11.55547" lon="42.83357">
        <ele>211.15</ele>
        <time>2011-12-30T09:30:34Z</time>
      </trkpt>
      <trkpt lat="11.55546" lon="42.83356">
        <ele>209.22</ele>
        <time>2011-12-30T09:30:35Z</time>
      </trkpt>
      <trkpt lat="11.55545" lon="42.83355">
        <ele>206.34</ele>
        <time>2011-12-30T09:30:37Z</time>
      </trkpt>
      <trkpt lat="11.55539" lon="42.8335">
        <ele>205.86</ele>
        <time>2011-12-30T09:30:45Z</time>
      </trkpt>
      <trkpt lat="11.55539" lon="42.8335">
        <ele>206.82</ele>
        <time>2011-12-30T09:30:46Z</time>
      </trkpt>
      <trkpt lat="11.55538" lon="42.8335">
        <ele>213.07</ele>
        <time>2011-12-30T09:30:47Z</time>
      </trkpt>
      <trkpt lat="11.55537" lon="42.83348">
        <ele>214.51</ele>
        <time>2011-12-30T09:30:49Z</time>
      </trkpt>
      <trkpt lat="11.55536" lon="42.83347">
        <ele>207.3</ele>
        <time>2011-12-30T09:30:50Z</time>
      </trkpt>
      <trkpt lat="11.55535" lon="42.83347">
        <ele>208.26</ele>
        <time>2011-12-30T09:30:51Z</time>
      </trkpt>
      <trkpt lat="11.55535" lon="42.83347">
        <ele>213.55</ele>
        <time>2011-12-30T09:30:52Z</time>
      </trkpt>
      <trkpt lat="11.55535" lon="42.83346">
        <ele>213.07</ele>
        <time>2011-12-30T09:30:53Z</time>
      </trkpt>
      <trkpt lat="11.55534" lon="42.83346">
        <ele>216.43</ele>
        <time>2011-12-30T09:30:57Z</time>
      </trkpt>
      <trkpt lat="11.55534" lon="42.83346">
        <ele>206.82</ele>
        <time>2011-12-30T09:30:58Z</time>
      </trkpt>
      <trkpt lat="11.55533" lon="42.83346">
        <ele>214.99</ele>
        <time>2011-12-30T09:30:59Z</time>
      </trkpt>
      <trkpt lat="11.55533" lon="42.83346">
        <ele>207.78</ele>
        <time>2011-12-30T09:31:00Z</time>
      </trkpt>
      <trkpt lat="11.55533" lon="42.83346">
        <ele>211.63</ele>
        <time>2011-12-30T09:31:01Z</time>
      </trkpt>
      <trkpt lat="11.55533" lon="42.83346">
        <ele>214.99</ele>
        <time>2011-12-30T09:31:55Z</time>
      </trkpt>
      <trkpt lat="11.55533" lon="42.83346">
        <ele>214.51</ele>
        <time>2011-12-30T09:31:56Z</time>
      </trkpt>
      <trkpt lat="11.55533" lon="42.83346">
        <ele>211.15</ele>
        <time>2011-12-30T09:32:55Z</time>
      </trkpt>
      <trkpt lat="11.55533" lon="42.83346">
        <ele>211.63</ele>
        <time>2011-12-30T09:33:06Z</time>
      </trkpt>
      <trkpt lat="11.55532" lon="42.83345">
        <ele>208.74</ele>
        <time>2011-12-30T09:36:15Z</time>
      </trkpt>
      <trkpt lat="11.55532" lon="42.83345">
        <ele>210.67</ele>
        <time>2011-12-30T09:36:18Z</time>
      </trkpt>
      <trkpt lat="11.55531" lon="42.83345">
        <ele>214.51</ele>
        <time>2011-12-30T09:36:39Z</time>
      </trkpt>
      <trkpt lat="11.55531" lon="42.83345">
        <ele>211.63</ele>
        <time>2011-12-30T09:36:42Z</time>
      </trkpt>
      <trkpt lat="11.55531" lon="42.83345">
        <ele>207.78</ele>
        <time>2011-12-30T09:39:11Z</time>
      </trkpt>
      <trkpt lat="11.55531" lon="42.83344">
        <ele>216.91</ele>
        <time>2011-12-30T09:39:14Z</time>
      </trkpt>
      <trkpt lat="11.5553" lon="42.83344">
        <ele>201.05</ele>
        <time>2011-12-30T09:39:15Z</time>
      </trkpt>
      <trkpt lat="11.5553" lon="42.83343">
        <ele>213.55</ele>
        <time>2011-12-30T09:39:16Z</time>
      </trkpt>
      <trkpt lat="11.55529" lon="42.83342">
        <ele>204.42</ele>
        <time>2011-12-30T09:39:17Z</time>
      </trkpt>
      <trkpt lat="11.55529" lon="42.83342">
        <ele>213.07</ele>
        <time>2011-12-30T09:39:18Z</time>
      </trkpt>
      <trkpt lat="11.55529" lon="42.83341">
        <ele>217.4</ele>
        <time>2011-12-30T09:39:19Z</time>
      </trkpt>
      <trkpt lat="11.55529" lon="42.8334">
        <ele>208.74</ele>
        <time>2011-12-30T09:39:20Z</time>
      </trkpt>
      <trkpt lat="11.55528" lon="42.8334">
        <ele>217.4</ele>
        <time>2011-12-30T09:39:21Z</time>
      </trkpt>
      <trkpt lat="11.55528" lon="42.83339">
        <ele>207.78</ele>
        <time>2011-12-30T09:39:22Z</time>
      </trkpt>
      <trkpt lat="11.55527" lon="42.83339">
        <ele>214.99</ele>
        <time>2011-12-30T09:39:23Z</time>
      </trkpt>
      <trkpt lat="11.55526" lon="42.83336">
        <ele>205.38</ele>
        <time>2011-12-30T09:39:27Z</time>
      </trkpt>
      <trkpt lat="11.55525" lon="42.83336">
        <ele>214.99</ele>
        <time>2011-12-30T09:39:28Z</time>
      </trkpt>
      <trkpt lat="11.55524" lon="42.83335">
        <ele>204.9</ele>
        <time>2011-12-30T09:39:32Z</time>
      </trkpt>
      <trkpt lat="11.55522" lon="42.83334">
        <ele>210.19</ele>
        <time>2011-12-30T09:39:34Z</time>
      </trkpt>
      <trkpt lat="11.55521" lon="42.83334">
        <ele>216.91</ele>
        <time>2011-12-30T09:39:35Z</time>
      </trkpt>
      <trkpt lat="11.5552" lon="42.83331">
        <ele>217.4</ele>
        <time>2011-12-30T09:39:38Z</time>
      </trkpt>
      <trkpt lat="11.55518" lon="42.8333">
        <ele>212.11</ele>
        <time>2011-12-30T09:39:40Z</time>
      </trkpt>
      <trkpt lat="11.55518" lon="42.83329">
        <ele>217.4</ele>
        <time>2011-12-30T09:39:41Z</time>
      </trkpt>
      <trkpt lat="11.55515" lon="42.83326">
        <ele>221.72</ele>
        <time>2011-12-30T09:39:45Z</time>
      </trkpt>
      <trkpt lat="11.55514" lon="42.83326">
        <ele>213.55</ele>
        <time>2011-12-30T09:39:46Z</time>
      </trkpt>
      <trkpt lat="11.55514" lon="42.83325">
        <ele>220.28</ele>
        <time>2011-12-30T09:39:47Z</time>
      </trkpt>
      <trkpt lat="11.55513" lon="42.83325">
        <ele>212.59</ele>
        <time>2011-12-30T09:39:48Z</time>
      </trkpt>
      <trkpt lat="11.55512" lon="42.83325">
        <ele>217.88</ele>
        <time>2011-12-30T09:39:49Z</time>
      </trkpt>
      <trkpt lat="11.55511" lon="42.83324">
        <ele>222.68</ele>
        <time>2011-12-30T09:39:51Z</time>
      </trkpt>
      <trkpt lat="11.5551" lon="42.83323">
        <ele>220.76</ele>
        <time>2011-12-30T09:39:52Z</time>
      </trkpt>
      <trkpt lat="11.55509" lon="42.83323">
        <ele>213.55</ele>
        <time>2011-12-30T09:39:54Z</time>
      </trkpt>
      <trkpt lat="11.55508" lon="42.83323">
        <ele>216.43</ele>
        <time>2011-12-30T09:39:55Z</time>
      </trkpt>
      <trkpt lat="11.55507" lon="42.83323">
        <ele>220.76</ele>
        <time>2011-12-30T09:39:57Z</time>
      </trkpt>
      <trkpt lat="11.55506" lon="42.83323">
        <ele>216.91</ele>
        <time>2011-12-30T09:39:58Z</time>
      </trkpt>
      <trkpt lat="11.55505" lon="42.83324">
        <ele>220.76</ele>
        <time>2011-12-30T09:39:59Z</time>
      </trkpt>
      <trkpt lat="11.55499" lon="42.83327">
        <ele>214.51</ele>
        <time>2011-12-30T09:40:07Z</time>
      </trkpt>
      <trkpt lat="11.55497" lon="42.83327">
        <ele>216.43</ele>
        <time>2011-12-30T09:40:09Z</time>
      </trkpt>
      <trkpt lat="11.55493" lon="42.83325">
        <ele>220.28</ele>
        <time>2011-12-30T09:40:13Z</time>
      </trkpt>
      <trkpt lat="11.55491" lon="42.83326">
        <ele>206.82</ele>
        <time>2011-12-30T09:40:15Z</time>
      </trkpt>
      <trkpt lat="11.55491" lon="42.83326">
        <ele>220.76</ele>
        <time>2011-12-30T09:40:16Z</time>
      </trkpt>
      <trkpt lat="11.55489" lon="42.83327">
        <ele>219.32</ele>
        <time>2011-12-30T09:40:18Z</time>
      </trkpt>
      <trkpt lat="11.55487" lon="42.83327">
        <ele>208.74</ele>
        <time>2011-12-30T09:40:20Z</time>
      </trkpt>
      <trkpt lat="11.55487" lon="42.83327">
        <ele>221.72</ele>
        <time>2011-12-30T09:40:21Z</time>
      </trkpt>
      <trkpt lat="11.55485" lon="42.83327">
        <ele>222.68</ele>
        <time>2011-12-30T09:40:23Z</time>
      </trkpt>
      <trkpt lat="11.55485" lon="42.83328">
        <ele>221.24</ele>
        <time>2011-12-30T09:40:25Z</time>
      </trkpt>
      <trkpt lat="11.55484" lon="42.83329">
        <ele>220.76</ele>
        <time>2011-12-30T09:40:27Z</time>
      </trkpt>
      <trkpt lat="11.55483" lon="42.83329">
        <ele>225.09</ele>
        <time>2011-12-30T09:40:28Z</time>
      </trkpt>
      <trkpt lat="11.55477" lon="42.83333">
        <ele>221.72</ele>
        <time>2011-12-30T09:40:35Z</time>
      </trkpt>
      <trkpt lat="11.55476" lon="42.83333">
        <ele>225.09</ele>
        <time>2011-12-30T09:40:36Z</time>
      </trkpt>
      <trkpt lat="11.55472" lon="42.83335">
        <ele>222.2</ele>
        <time>2011-12-30T09:40:44Z</time>
      </trkpt>
      <trkpt lat="11.5547" lon="42.83336">
        <ele>220.76</ele>
        <time>2011-12-30T09:40:46Z</time>
      </trkpt>
      <trkpt lat="11.55468" lon="42.83338">
        <ele>226.53</ele>
        <time>2011-12-30T09:40:48Z</time>
      </trkpt>
      <trkpt lat="11.55467" lon="42.83338">
        <ele>215.95</ele>
        <time>2011-12-30T09:40:49Z</time>
      </trkpt>
      <trkpt lat="11.55467" lon="42.83339">
        <ele>226.05</ele>
        <time>2011-12-30T09:40:50Z</time>
      </trkpt>
      <trkpt lat="11.55466" lon="42.8334">
        <ele>221.24</ele>
        <time>2011-12-30T09:40:52Z</time>
      </trkpt>
      <trkpt lat="11.55465" lon="42.8334">
        <ele>226.53</ele>
        <time>2011-12-30T09:40:53Z</time>
      </trkpt>
      <trkpt lat="11.55464" lon="42.8334">
        <ele>220.76</ele>
        <time>2011-12-30T09:40:54Z</time>
      </trkpt>
      <trkpt lat="11.55463" lon="42.8334">
        <ele>227.01</ele>
        <time>2011-12-30T09:40:55Z</time>
      </trkpt>
      <trkpt lat="11.55462" lon="42.8334">
        <ele>231.81</ele>
        <time>2011-12-30T09:40:56Z</time>
      </trkpt>
      <trkpt lat="11.55462" lon="42.83341">
        <ele>222.2</ele>
        <time>2011-12-30T09:40:57Z</time>
      </trkpt>
      <trkpt lat="11.55461" lon="42.83341">
        <ele>229.89</ele>
        <time>2011-12-30T09:40:58Z</time>
      </trkpt>
      <trkpt lat="11.5546" lon="42.83341">
        <ele>220.76</ele>
        <time>2011-12-30T09:40:59Z</time>
      </trkpt>
      <trkpt lat="11.55459" lon="42.83341">
        <ele>228.45</ele>
        <time>2011-12-30T09:41:00Z</time>
      </trkpt>
      <trkpt lat="11.55457" lon="42.83342">
        <ele>226.53</ele>
        <time>2011-12-30T09:41:03Z</time>
      </trkpt>
      <trkpt lat="11.55456" lon="42.83342">
        <ele>222.68</ele>
        <time>2011-12-30T09:41:04Z</time>
      </trkpt>
      <trkpt lat="11.55456" lon="42.83342">
        <ele>226.05</ele>
        <time>2011-12-30T09:41:05Z</time>
      </trkpt>
      <trkpt lat="11.55455" lon="42.83342">
        <ele>229.41</ele>
        <time>2011-12-30T09:41:06Z</time>
      </trkpt>
      <trkpt lat="11.55454" lon="42.83343">
        <ele>219.8</ele>
        <time>2011-12-30T09:41:07Z</time>
      </trkpt>
      <trkpt lat="11.55453" lon="42.83343">
        <ele>227.49</ele>
        <time>2011-12-30T09:41:08Z</time>
      </trkpt>
      <trkpt lat="11.55448" lon="42.83343">
        <ele>226.05</ele>
        <time>2011-12-30T09:41:14Z</time>
      </trkpt>
      <trkpt lat="11.55442" lon="42.83343">
        <ele>219.32</ele>
        <time>2011-12-30T09:41:20Z</time>
      </trkpt>
      <trkpt lat="11.55441" lon="42.83343">
        <ele>227.01</ele>
        <time>2011-12-30T09:41:21Z</time>
      </trkpt>
      <trkpt lat="11.55436" lon="42.83343">
        <ele>231.33</ele>
        <time>2011-12-30T09:41:26Z</time>
      </trkpt>
      <trkpt lat="11.55436" lon="42.83343">
        <ele>227.49</ele>
        <time>2011-12-30T09:41:27Z</time>
      </trkpt>
      <trkpt lat="11.55432" lon="42.83343">
        <ele>232.3</ele>
        <time>2011-12-30T09:41:32Z</time>
      </trkpt>
      <trkpt lat="11.55428" lon="42.83343">
        <ele>227.01</ele>
        <time>2011-12-30T09:41:36Z</time>
      </trkpt>
      <trkpt lat="11.55427" lon="42.83343">
        <ele>231.81</ele>
        <time>2011-12-30T09:41:37Z</time>
      </trkpt>
      <trkpt lat="11.55427" lon="42.83343">
        <ele>224.61</ele>
        <time>2011-12-30T09:41:38Z</time>
      </trkpt>
      <trkpt lat="11.55426" lon="42.83343">
        <ele>232.3</ele>
        <time>2011-12-30T09:41:39Z</time>
      </trkpt>
      <trkpt lat="11.55424" lon="42.83343">
        <ele>230.85</ele>
        <time>2011-12-30T09:41:42Z</time>
      </trkpt>
      <trkpt lat="11.55413" lon="42.83346">
        <ele>231.33</ele>
        <time>2011-12-30T09:41:55Z</time>
      </trkpt>
      <trkpt lat="11.55411" lon="42.83346">
        <ele>228.93</ele>
        <time>2011-12-30T09:41:57Z</time>
      </trkpt>
      <trkpt lat="11.55407" lon="42.83346">
        <ele>224.12</ele>
        <time>2011-12-30T09:42:02Z</time>
      </trkpt>
      <trkpt lat="11.55406" lon="42.83346">
        <ele>231.81</ele>
        <time>2011-12-30T09:42:03Z</time>
      </trkpt>
      <trkpt lat="11.55403" lon="42.83347">
        <ele>224.12</ele>
        <time>2011-12-30T09:42:07Z</time>
      </trkpt>
      <trkpt lat="11.55402" lon="42.83347">
        <ele>231.81</ele>
        <time>2011-12-30T09:42:08Z</time>
      </trkpt>
      <trkpt lat="11.55402" lon="42.83348">
        <ele>225.57</ele>
        <time>2011-12-30T09:42:09Z</time>
      </trkpt>
      <trkpt lat="11.55401" lon="42.83348">
        <ele>231.81</ele>
        <time>2011-12-30T09:42:10Z</time>
      </trkpt>
      <trkpt lat="11.554" lon="42.83349">
        <ele>227.49</ele>
        <time>2011-12-30T09:42:12Z</time>
      </trkpt>
      <trkpt lat="11.55396" lon="42.83351">
        <ele>235.66</ele>
        <time>2011-12-30T09:42:18Z</time>
      </trkpt>
      <trkpt lat="11.55395" lon="42.83352">
        <ele>226.05</ele>
        <time>2011-12-30T09:42:20Z</time>
      </trkpt>
      <trkpt lat="11.55394" lon="42.83353">
        <ele>236.62</ele>
        <time>2011-12-30T09:42:21Z</time>
      </trkpt>
      <trkpt lat="11.55393" lon="42.83353">
        <ele>227.49</ele>
        <time>2011-12-30T09:42:22Z</time>
      </trkpt>
      <trkpt lat="11.55393" lon="42.83353">
        <ele>234.22</ele>
        <time>2011-12-30T09:42:23Z</time>
      </trkpt>
      <trkpt lat="11.55391" lon="42.83354">
        <ele>223.64</ele>
        <time>2011-12-30T09:42:25Z</time>
      </trkpt>
      <trkpt lat="11.5539" lon="42.83355">
        <ele>234.7</ele>
        <time>2011-12-30T09:42:26Z</time>
      </trkpt>
      <trkpt lat="11.5539" lon="42.83356">
        <ele>230.85</ele>
        <time>2011-12-30T09:42:27Z</time>
      </trkpt>
      <trkpt lat="11.5539" lon="42.83356">
        <ele>235.66</ele>
        <time>2011-12-30T09:42:28Z</time>
      </trkpt>
      <trkpt lat="11.55389" lon="42.83356">
        <ele>236.14</ele>
        <time>2011-12-30T09:42:29Z</time>
      </trkpt>
      <trkpt lat="11.55387" lon="42.83358">
        <ele>234.7</ele>
        <time>2011-12-30T09:42:33Z</time>
      </trkpt>
      <trkpt lat="11.55386" lon="42.83359">
        <ele>239.02</ele>
        <time>2011-12-30T09:42:34Z</time>
      </trkpt>
      <trkpt lat="11.55386" lon="42.83359">
        <ele>230.85</ele>
        <time>2011-12-30T09:42:35Z</time>
      </trkpt>
      <trkpt lat="11.55385" lon="42.83359">
        <ele>237.1</ele>
        <time>2011-12-30T09:42:36Z</time>
      </trkpt>
      <trkpt lat="11.55382" lon="42.8336">
        <ele>234.7</ele>
        <time>2011-12-30T09:42:40Z</time>
      </trkpt>
      <trkpt lat="11.5538" lon="42.83361">
        <ele>240.47</ele>
        <time>2011-12-30T09:42:43Z</time>
      </trkpt>
      <trkpt lat="11.55379" lon="42.83361">
        <ele>236.62</ele>
        <time>2011-12-30T09:42:44Z</time>
      </trkpt>
      <trkpt lat="11.55379" lon="42.83361">
        <ele>245.27</ele>
        <time>2011-12-30T09:42:46Z</time>
      </trkpt>
      <trkpt lat="11.55378" lon="42.83362">
        <ele>229.89</ele>
        <time>2011-12-30T09:42:48Z</time>
      </trkpt>
      <trkpt lat="11.55378" lon="42.83362">
        <ele>241.91</ele>
        <time>2011-12-30T09:42:49Z</time>
      </trkpt>
      <trkpt lat="11.55377" lon="42.83363">
        <ele>248.64</ele>
        <time>2011-12-30T09:42:50Z</time>
      </trkpt>
      <trkpt lat="11.55377" lon="42.83363">
        <ele>240.47</ele>
        <time>2011-12-30T09:42:51Z</time>
      </trkpt>
      <trkpt lat="11.55377" lon="42.83364">
        <ele>230.37</ele>
        <time>2011-12-30T09:42:53Z</time>
      </trkpt>
      <trkpt lat="11.55377" lon="42.83364">
        <ele>243.83</ele>
        <time>2011-12-30T09:42:54Z</time>
      </trkpt>
      <trkpt lat="11.55377" lon="42.83364">
        <ele>239.51</ele>
        <time>2011-12-30T09:42:55Z</time>
      </trkpt>
      <trkpt lat="11.55377" lon="42.83363">
        <ele>235.18</ele>
        <time>2011-12-30T09:42:57Z</time>
      </trkpt>
      <trkpt lat="11.55377" lon="42.83363">
        <ele>242.39</ele>
        <time>2011-12-30T09:42:58Z</time>
      </trkpt>
      <trkpt lat="11.55377" lon="42.83364">
        <ele>237.1</ele>
        <time>2011-12-30T09:43:00Z</time>
      </trkpt>
      <trkpt lat="11.55376" lon="42.83364">
        <ele>240.95</ele>
        <time>2011-12-30T09:43:01Z</time>
      </trkpt>
      <trkpt lat="11.55375" lon="42.83365">
        <ele>241.43</ele>
        <time>2011-12-30T09:43:03Z</time>
      </trkpt>
      <trkpt lat="11.55373" lon="42.83367">
        <ele>238.06</ele>
        <time>2011-12-30T09:43:06Z</time>
      </trkpt>
      <trkpt lat="11.55373" lon="42.83368">
        <ele>238.06</ele>
        <time>2011-12-30T09:43:07Z</time>
      </trkpt>
      <trkpt lat="11.55372" lon="42.83369">
        <ele>246.23</ele>
        <time>2011-12-30T09:43:08Z</time>
      </trkpt>
      <trkpt lat="11.55372" lon="42.83369">
        <ele>245.75</ele>
        <time>2011-12-30T09:43:09Z</time>
      </trkpt>
      <trkpt lat="11.5537" lon="42.8337">
        <ele>233.26</ele>
        <time>2011-12-30T09:43:12Z</time>
      </trkpt>
      <trkpt lat="11.55369" lon="42.8337">
        <ele>244.79</ele>
        <time>2011-12-30T09:43:13Z</time>
      </trkpt>
      <trkpt lat="11.55369" lon="42.8337">
        <ele>240.47</ele>
        <time>2011-12-30T09:43:14Z</time>
      </trkpt>
      <trkpt lat="11.55368" lon="42.83371">
        <ele>245.75</ele>
        <time>2011-12-30T09:43:15Z</time>
      </trkpt>
      <trkpt lat="11.55367" lon="42.83371">
        <ele>236.62</ele>
        <time>2011-12-30T09:43:17Z</time>
      </trkpt>
      <trkpt lat="11.55367" lon="42.83371">
        <ele>247.68</ele>
        <time>2011-12-30T09:43:18Z</time>
      </trkpt>
      <trkpt lat="11.55366" lon="42.83371">
        <ele>246.23</ele>
        <time>2011-12-30T09:43:19Z</time>
      </trkpt>
      <trkpt lat="11.55365" lon="42.83373">
        <ele>250.56</ele>
        <time>2011-12-30T09:43:21Z</time>
      </trkpt>
      <trkpt lat="11.55365" lon="42.83373">
        <ele>236.14</ele>
        <time>2011-12-30T09:43:22Z</time>
      </trkpt>
      <trkpt lat="11.55364" lon="42.83373">
        <ele>248.16</ele>
        <time>2011-12-30T09:43:23Z</time>
      </trkpt>
      <trkpt lat="11.55361" lon="42.83373">
        <ele>247.2</ele>
        <time>2011-12-30T09:43:27Z</time>
      </trkpt>
      <trkpt lat="11.5536" lon="42.83372">
        <ele>241.91</ele>
        <time>2011-12-30T09:43:29Z</time>
      </trkpt>
      <trkpt lat="11.55359" lon="42.83371">
        <ele>247.2</ele>
        <time>2011-12-30T09:43:30Z</time>
      </trkpt>
      <trkpt lat="11.55354" lon="42.8337">
        <ele>247.2</ele>
        <time>2011-12-30T09:43:43Z</time>
      </trkpt>
      <trkpt lat="11.55349" lon="42.83368">
        <ele>243.83</ele>
        <time>2011-12-30T09:43:50Z</time>
      </trkpt>
      <trkpt lat="11.55348" lon="42.83368">
        <ele>249.6</ele>
        <time>2011-12-30T09:43:51Z</time>
      </trkpt>
      <trkpt lat="11.55345" lon="42.83368">
        <ele>252.96</ele>
        <time>2011-12-30T09:43:53Z</time>
      </trkpt>
      <trkpt lat="11.55343" lon="42.83368">
        <ele>244.31</ele>
        <time>2011-12-30T09:43:56Z</time>
      </trkpt>
      <trkpt lat="11.55343" lon="42.83369">
        <ele>250.08</ele>
        <time>2011-12-30T09:43:57Z</time>
      </trkpt>
      <trkpt lat="11.55342" lon="42.83369">
        <ele>253.93</ele>
        <time>2011-12-30T09:43:58Z</time>
      </trkpt>
      <trkpt lat="11.55342" lon="42.8337">
        <ele>247.68</ele>
        <time>2011-12-30T09:43:59Z</time>
      </trkpt>
      <trkpt lat="11.55341" lon="42.8337">
        <ele>252.48</ele>
        <time>2011-12-30T09:44:00Z</time>
      </trkpt>
      <trkpt lat="11.5534" lon="42.83371">
        <ele>256.81</ele>
        <time>2011-12-30T09:44:02Z</time>
      </trkpt>
      <trkpt lat="11.55339" lon="42.83372">
        <ele>252.96</ele>
        <time>2011-12-30T09:44:03Z</time>
      </trkpt>
      <trkpt lat="11.55338" lon="42.83373">
        <ele>249.12</ele>
        <time>2011-12-30T09:44:05Z</time>
      </trkpt>
      <trkpt lat="11.55335" lon="42.83374">
        <ele>251.04</ele>
        <time>2011-12-30T09:44:09Z</time>
      </trkpt>
      <trkpt lat="11.55332" lon="42.83374">
        <ele>245.75</ele>
        <time>2011-12-30T09:44:14Z</time>
      </trkpt>
      <trkpt lat="11.55331" lon="42.83374">
        <ele>250.56</ele>
        <time>2011-12-30T09:44:15Z</time>
      </trkpt>
      <trkpt lat="11.55329" lon="42.83374">
        <ele>248.64</ele>
        <time>2011-12-30T09:44:17Z</time>
      </trkpt>
      <trkpt lat="11.55327" lon="42.83374">
        <ele>252.96</ele>
        <time>2011-12-30T09:44:19Z</time>
      </trkpt>
      <trkpt lat="11.55326" lon="42.83374">
        <ele>245.27</ele>
        <time>2011-12-30T09:44:20Z</time>
      </trkpt>
      <trkpt lat="11.55325" lon="42.83374">
        <ele>252</ele>
        <time>2011-12-30T09:44:21Z</time>
      </trkpt>
      <trkpt lat="11.55322" lon="42.83374">
        <ele>248.16</ele>
        <time>2011-12-30T09:44:23Z</time>
      </trkpt>
      <trkpt lat="11.55321" lon="42.83374">
        <ele>252</ele>
        <time>2011-12-30T09:44:24Z</time>
      </trkpt>
      <trkpt lat="11.5532" lon="42.83374">
        <ele>257.77</ele>
        <time>2011-12-30T09:44:25Z</time>
      </trkpt>
      <trkpt lat="11.55319" lon="42.83374">
        <ele>243.83</ele>
        <time>2011-12-30T09:44:26Z</time>
      </trkpt>
      <trkpt lat="11.55318" lon="42.83374">
        <ele>251.04</ele>
        <time>2011-12-30T09:44:27Z</time>
      </trkpt>
      <trkpt lat="11.55317" lon="42.83374">
        <ele>256.81</ele>
        <time>2011-12-30T09:44:28Z</time>
      </trkpt>
      <trkpt lat="11.55316" lon="42.83374">
        <ele>252.48</ele>
        <time>2011-12-30T09:44:29Z</time>
      </trkpt>
      <trkpt lat="11.55314" lon="42.83374">
        <ele>258.25</ele>
        <time>2011-12-30T09:44:32Z</time>
      </trkpt>
      <trkpt lat="11.55312" lon="42.83374">
        <ele>253.93</ele>
        <time>2011-12-30T09:44:34Z</time>
      </trkpt>
      <trkpt lat="11.55308" lon="42.83374">
        <ele>250.56</ele>
        <time>2011-12-30T09:44:38Z</time>
      </trkpt>
      <trkpt lat="11.55308" lon="42.83375">
        <ele>254.89</ele>
        <time>2011-12-30T09:44:39Z</time>
      </trkpt>
      <trkpt lat="11.55306" lon="42.83375">
        <ele>258.25</ele>
        <time>2011-12-30T09:44:41Z</time>
      </trkpt>
      <trkpt lat="11.55303" lon="42.83376">
        <ele>260.17</ele>
        <time>2011-12-30T09:44:44Z</time>
      </trkpt>
      <trkpt lat="11.55302" lon="42.83376">
        <ele>252.48</ele>
        <time>2011-12-30T09:44:45Z</time>
      </trkpt>
      <trkpt lat="11.55302" lon="42.83377">
        <ele>257.29</ele>
        <time>2011-12-30T09:44:46Z</time>
      </trkpt>
      <trkpt lat="11.55301" lon="42.83377">
        <ele>245.75</ele>
        <time>2011-12-30T09:44:47Z</time>
      </trkpt>
      <trkpt lat="11.55301" lon="42.83377">
        <ele>257.77</ele>
        <time>2011-12-30T09:44:48Z</time>
      </trkpt>
      <trkpt lat="11.553" lon="42.83378">
        <ele>247.68</ele>
        <time>2011-12-30T09:44:50Z</time>
      </trkpt>
      <trkpt lat="11.55298" lon="42.83379">
        <ele>251.52</ele>
        <time>2011-12-30T09:44:52Z</time>
      </trkpt>
      <trkpt lat="11.55298" lon="42.83379">
        <ele>257.29</ele>
        <time>2011-12-30T09:44:53Z</time>
      </trkpt>
      <trkpt lat="11.55297" lon="42.83381">
        <ele>254.89</ele>
        <time>2011-12-30T09:44:55Z</time>
      </trkpt>
      <trkpt lat="11.55297" lon="42.83382">
        <ele>258.73</ele>
        <time>2011-12-30T09:44:56Z</time>
      </trkpt>
      <trkpt lat="11.55296" lon="42.83382">
        <ele>262.58</ele>
        <time>2011-12-30T09:44:57Z</time>
      </trkpt>
      <trkpt lat="11.55296" lon="42.83383">
        <ele>259.69</ele>
        <time>2011-12-30T09:44:58Z</time>
      </trkpt>
      <trkpt lat="11.55292" lon="42.83386">
        <ele>262.58</ele>
        <time>2011-12-30T09:45:05Z</time>
      </trkpt>
      <trkpt lat="11.55291" lon="42.83387">
        <ele>254.89</ele>
        <time>2011-12-30T09:45:06Z</time>
      </trkpt>
      <trkpt lat="11.55291" lon="42.83388">
        <ele>260.17</ele>
        <time>2011-12-30T09:45:07Z</time>
      </trkpt>
      <trkpt lat="11.55289" lon="42.83389">
        <ele>260.17</ele>
        <time>2011-12-30T09:45:09Z</time>
      </trkpt>
      <trkpt lat="11.55287" lon="42.83391">
        <ele>249.6</ele>
        <time>2011-12-30T09:45:12Z</time>
      </trkpt>
      <trkpt lat="11.55287" lon="42.83392">
        <ele>262.1</ele>
        <time>2011-12-30T09:45:13Z</time>
      </trkpt>
      <trkpt lat="11.55286" lon="42.83392">
        <ele>253.93</ele>
        <time>2011-12-30T09:45:14Z</time>
      </trkpt>
      <trkpt lat="11.55286" lon="42.83393">
        <ele>261.14</ele>
        <time>2011-12-30T09:45:15Z</time>
      </trkpt>
      <trkpt lat="11.55283" lon="42.83395">
        <ele>256.81</ele>
        <time>2011-12-30T09:45:21Z</time>
      </trkpt>
      <trkpt lat="11.55281" lon="42.83396">
        <ele>264.02</ele>
        <time>2011-12-30T09:45:23Z</time>
      </trkpt>
      <trkpt lat="11.55281" lon="42.83397">
        <ele>258.73</ele>
        <time>2011-12-30T09:45:24Z</time>
      </trkpt>
      <trkpt lat="11.5528" lon="42.83398">
        <ele>262.1</ele>
        <time>2011-12-30T09:45:25Z</time>
      </trkpt>
      <trkpt lat="11.55277" lon="42.834">
        <ele>259.69</ele>
        <time>2011-12-30T09:45:30Z</time>
      </trkpt>
      <trkpt lat="11.55275" lon="42.83401">
        <ele>264.02</ele>
        <time>2011-12-30T09:45:32Z</time>
      </trkpt>
      <trkpt lat="11.55274" lon="42.83401">
        <ele>254.89</ele>
        <time>2011-12-30T09:45:33Z</time>
      </trkpt>
      <trkpt lat="11.55273" lon="42.83401">
        <ele>262.1</ele>
        <time>2011-12-30T09:45:34Z</time>
      </trkpt>
      <trkpt lat="11.55266" lon="42.83405">
        <ele>260.65</ele>
        <time>2011-12-30T09:45:42Z</time>
      </trkpt>
      <trkpt lat="11.55261" lon="42.83406">
        <ele>261.62</ele>
        <time>2011-12-30T09:45:47Z</time>
      </trkpt>
      <trkpt lat="11.55259" lon="42.83406">
        <ele>256.81</ele>
        <time>2011-12-30T09:45:49Z</time>
      </trkpt>
      <trkpt lat="11.55258" lon="42.83406">
        <ele>261.62</ele>
        <time>2011-12-30T09:45:50Z</time>
      </trkpt>
      <trkpt lat="11.55254" lon="42.83406">
        <ele>258.25</ele>
        <time>2011-12-30T09:45:53Z</time>
      </trkpt>
      <trkpt lat="11.55253" lon="42.83406">
        <ele>261.14</ele>
        <time>2011-12-30T09:45:54Z</time>
      </trkpt>
      <trkpt lat="11.55251" lon="42.83405">
        <ele>262.1</ele>
        <time>2011-12-30T09:45:55Z</time>
      </trkpt>
      <trkpt lat="11.55249" lon="42.83405">
        <ele>257.29</ele>
        <time>2011-12-30T09:45:57Z</time>
      </trkpt>
      <trkpt lat="11.55248" lon="42.83404">
        <ele>261.14</ele>
        <time>2011-12-30T09:45:58Z</time>
      </trkpt>
      <trkpt lat="11.55246" lon="42.83404">
        <ele>261.62</ele>
        <time>2011-12-30T09:46:00Z</time>
      </trkpt>
      <trkpt lat="11.55245" lon="42.83404">
        <ele>262.58</ele>
        <time>2011-12-30T09:46:02Z</time>
      </trkpt>
      <trkpt lat="11.55243" lon="42.83403">
        <ele>264.98</ele>
        <time>2011-12-30T09:46:04Z</time>
      </trkpt>
      <trkpt lat="11.55242" lon="42.83403">
        <ele>261.62</ele>
        <time>2011-12-30T09:46:05Z</time>
      </trkpt>
      <trkpt lat="11.55242" lon="42.83403">
        <ele>264.98</ele>
        <time>2011-12-30T09:46:06Z</time>
      </trkpt>
      <trkpt lat="11.55239" lon="42.83402">
        <ele>259.69</ele>
        <time>2011-12-30T09:46:09Z</time>
      </trkpt>
      <trkpt lat="11.55237" lon="42.83401">
        <ele>264.02</ele>
        <time>2011-12-30T09:46:12Z</time>
      </trkpt>
      <trkpt lat="11.55237" lon="42.83401">
        <ele>256.33</ele>
        <time>2011-12-30T09:46:13Z</time>
      </trkpt>
      <trkpt lat="11.55236" lon="42.83402">
        <ele>264.02</ele>
        <time>2011-12-30T09:46:14Z</time>
      </trkpt>
      <trkpt lat="11.55236" lon="42.83402">
        <ele>259.69</ele>
        <time>2011-12-30T09:46:15Z</time>
      </trkpt>
      <trkpt lat="11.55235" lon="42.83402">
        <ele>263.06</ele>
        <time>2011-12-30T09:46:16Z</time>
      </trkpt>
      <trkpt lat="11.55228" lon="42.834">
        <ele>262.58</ele>
        <time>2011-12-30T09:46:26Z</time>
      </trkpt>
      <trkpt lat="11.55223" lon="42.83399">
        <ele>258.73</ele>
        <time>2011-12-30T09:46:31Z</time>
      </trkpt>
      <trkpt lat="11.55221" lon="42.83399">
        <ele>262.1</ele>
        <time>2011-12-30T09:46:32Z</time>
      </trkpt>
      <trkpt lat="11.5522" lon="42.83399">
        <ele>263.54</ele>
        <time>2011-12-30T09:46:33Z</time>
      </trkpt>
      <trkpt lat="11.55217" lon="42.834">
        <ele>257.77</ele>
        <time>2011-12-30T09:46:36Z</time>
      </trkpt>
      <trkpt lat="11.55211" lon="42.83397">
        <ele>262.58</ele>
        <time>2011-12-30T09:46:42Z</time>
      </trkpt>
      <trkpt lat="11.55209" lon="42.83396">
        <ele>261.62</ele>
        <time>2011-12-30T09:46:44Z</time>
      </trkpt>
      <trkpt lat="11.55207" lon="42.83395">
        <ele>264.98</ele>
        <time>2011-12-30T09:46:46Z</time>
      </trkpt>
      <trkpt lat="11.55205" lon="42.83395">
        <ele>257.77</ele>
        <time>2011-12-30T09:46:48Z</time>
      </trkpt>
      <trkpt lat="11.55204" lon="42.83395">
        <ele>263.06</ele>
        <time>2011-12-30T09:46:49Z</time>
      </trkpt>
      <trkpt lat="11.55199" lon="42.83395">
        <ele>259.69</ele>
        <time>2011-12-30T09:46:54Z</time>
      </trkpt>
      <trkpt lat="11.55198" lon="42.83395">
        <ele>264.02</ele>
        <time>2011-12-30T09:46:55Z</time>
      </trkpt>
      <trkpt lat="11.55197" lon="42.83395">
        <ele>267.38</ele>
        <time>2011-12-30T09:46:56Z</time>
      </trkpt>
      <trkpt lat="11.55197" lon="42.83395">
        <ele>264.98</ele>
        <time>2011-12-30T09:46:57Z</time>
      </trkpt>
      <trkpt lat="11.55194" lon="42.83395">
        <ele>256.33</ele>
        <time>2011-12-30T09:47:01Z</time>
      </trkpt>
      <trkpt lat="11.55192" lon="42.83394">
        <ele>253.93</ele>
        <time>2011-12-30T09:47:03Z</time>
      </trkpt>
      <trkpt lat="11.55192" lon="42.83394">
        <ele>266.9</ele>
        <time>2011-12-30T09:47:04Z</time>
      </trkpt>
      <trkpt lat="11.55192" lon="42.83394">
        <ele>272.19</ele>
        <time>2011-12-30T09:47:05Z</time>
      </trkpt>
      <trkpt lat="11.55192" lon="42.83394">
        <ele>267.38</ele>
        <time>2011-12-30T09:47:06Z</time>
      </trkpt>
      <trkpt lat="11.5519" lon="42.83393">
        <ele>258.25</ele>
        <time>2011-12-30T09:47:10Z</time>
      </trkpt>
      <trkpt lat="11.55189" lon="42.83393">
        <ele>267.38</ele>
        <time>2011-12-30T09:47:11Z</time>
      </trkpt>
      <trkpt lat="11.55189" lon="42.83393">
        <ele>262.58</ele>
        <time>2011-12-30T09:47:12Z</time>
      </trkpt>
      <trkpt lat="11.55188" lon="42.83393">
        <ele>267.86</ele>
        <time>2011-12-30T09:47:13Z</time>
      </trkpt>
      <trkpt lat="11.55187" lon="42.83393">
        <ele>278.92</ele>
        <time>2011-12-30T09:47:16Z</time>
      </trkpt>
      <trkpt lat="11.55186" lon="42.83392">
        <ele>273.15</ele>
        <time>2011-12-30T09:47:17Z</time>
      </trkpt>
      <trkpt lat="11.55186" lon="42.83392">
        <ele>266.42</ele>
        <time>2011-12-30T09:47:18Z</time>
      </trkpt>
      <trkpt lat="11.55186" lon="42.83392">
        <ele>267.38</ele>
        <time>2011-12-30T09:47:19Z</time>
      </trkpt>
      <trkpt lat="11.55186" lon="42.83392">
        <ele>272.19</ele>
        <time>2011-12-30T09:47:20Z</time>
      </trkpt>
      <trkpt lat="11.55186" lon="42.83392">
        <ele>269.79</ele>
        <time>2011-12-30T09:47:21Z</time>
      </trkpt>
      <trkpt lat="11.55185" lon="42.83392">
        <ele>261.14</ele>
        <time>2011-12-30T09:47:22Z</time>
      </trkpt>
      <trkpt lat="11.55184" lon="42.83392">
        <ele>270.75</ele>
        <time>2011-12-30T09:47:23Z</time>
      </trkpt>
      <trkpt lat="11.55183" lon="42.83393">
        <ele>265.94</ele>
        <time>2011-12-30T09:47:25Z</time>
      </trkpt>
      <trkpt lat="11.55182" lon="42.83392">
        <ele>272.19</ele>
        <time>2011-12-30T09:47:26Z</time>
      </trkpt>
      <trkpt lat="11.5518" lon="42.83391">
        <ele>275.56</ele>
        <time>2011-12-30T09:47:28Z</time>
      </trkpt>
      <trkpt lat="11.5518" lon="42.83391">
        <ele>267.86</ele>
        <time>2011-12-30T09:47:29Z</time>
      </trkpt>
      <trkpt lat="11.55177" lon="42.83391">
        <ele>264.98</ele>
        <time>2011-12-30T09:47:31Z</time>
      </trkpt>
      <trkpt lat="11.55176" lon="42.83391">
        <ele>271.71</ele>
        <time>2011-12-30T09:47:32Z</time>
      </trkpt>
      <trkpt lat="11.55174" lon="42.83391">
        <ele>271.71</ele>
        <time>2011-12-30T09:47:34Z</time>
      </trkpt>
      <trkpt lat="11.55169" lon="42.83392">
        <ele>266.42</ele>
        <time>2011-12-30T09:47:40Z</time>
      </trkpt>
      <trkpt lat="11.55169" lon="42.83392">
        <ele>269.31</ele>
        <time>2011-12-30T09:47:41Z</time>
      </trkpt>
      <trkpt lat="11.55166" lon="42.83392">
        <ele>271.71</ele>
        <time>2011-12-30T09:47:43Z</time>
      </trkpt>
      <trkpt lat="11.55165" lon="42.83392">
        <ele>274.59</ele>
        <time>2011-12-30T09:47:44Z</time>
      </trkpt>
      <trkpt lat="11.55163" lon="42.83392">
        <ele>270.27</ele>
        <time>2011-12-30T09:47:47Z</time>
      </trkpt>
      <trkpt lat="11.55162" lon="42.83392">
        <ele>274.11</ele>
        <time>2011-12-30T09:47:48Z</time>
      </trkpt>
      <trkpt lat="11.5516" lon="42.83392">
        <ele>275.07</ele>
        <time>2011-12-30T09:47:49Z</time>
      </trkpt>
      <trkpt lat="11.55158" lon="42.83393">
        <ele>274.59</ele>
        <time>2011-12-30T09:47:51Z</time>
      </trkpt>
      <trkpt lat="11.55157" lon="42.83393">
        <ele>268.83</ele>
        <time>2011-12-30T09:47:52Z</time>
      </trkpt>
      <trkpt lat="11.55154" lon="42.83394">
        <ele>277.96</ele>
        <time>2011-12-30T09:47:55Z</time>
      </trkpt>
      <trkpt lat="11.55154" lon="42.83394">
        <ele>275.07</ele>
        <time>2011-12-30T09:47:56Z</time>
      </trkpt>
      <trkpt lat="11.55149" lon="42.83397">
        <ele>271.23</ele>
        <time>2011-12-30T09:48:01Z</time>
      </trkpt>
      <trkpt lat="11.55148" lon="42.83397">
        <ele>275.07</ele>
        <time>2011-12-30T09:48:02Z</time>
      </trkpt>
      <trkpt lat="11.55147" lon="42.83398">
        <ele>269.79</ele>
        <time>2011-12-30T09:48:04Z</time>
      </trkpt>
      <trkpt lat="11.55146" lon="42.83399">
        <ele>275.56</ele>
        <time>2011-12-30T09:48:05Z</time>
      </trkpt>
      <trkpt lat="11.55145" lon="42.83399">
        <ele>269.31</ele>
        <time>2011-12-30T09:48:06Z</time>
      </trkpt>
      <trkpt lat="11.55145" lon="42.83399">
        <ele>276.04</ele>
        <time>2011-12-30T09:48:07Z</time>
      </trkpt>
      <trkpt lat="11.55137" lon="42.83401">
        <ele>267.86</ele>
        <time>2011-12-30T09:48:16Z</time>
      </trkpt>
      <trkpt lat="11.55137" lon="42.83401">
        <ele>276.52</ele>
        <time>2011-12-30T09:48:17Z</time>
      </trkpt>
      <trkpt lat="11.55136" lon="42.83401">
        <ele>279.4</ele>
        <time>2011-12-30T09:48:18Z</time>
      </trkpt>
      <trkpt lat="11.55135" lon="42.83401">
        <ele>273.63</ele>
        <time>2011-12-30T09:48:19Z</time>
      </trkpt>
      <trkpt lat="11.55134" lon="42.83401">
        <ele>277</ele>
        <time>2011-12-30T09:48:20Z</time>
      </trkpt>
      <trkpt lat="11.55129" lon="42.834">
        <ele>274.11</ele>
        <time>2011-12-30T09:48:25Z</time>
      </trkpt>
      <trkpt lat="11.55128" lon="42.834">
        <ele>276.04</ele>
        <time>2011-12-30T09:48:26Z</time>
      </trkpt>
      <trkpt lat="11.55127" lon="42.834">
        <ele>281.32</ele>
        <time>2011-12-30T09:48:27Z</time>
      </trkpt>
      <trkpt lat="11.55126" lon="42.834">
        <ele>275.56</ele>
        <time>2011-12-30T09:48:28Z</time>
      </trkpt>
      <trkpt lat="11.55125" lon="42.834">
        <ele>277.48</ele>
        <time>2011-12-30T09:48:29Z</time>
      </trkpt>
      <trkpt lat="11.55117" lon="42.83401">
        <ele>283.73</ele>
        <time>2011-12-30T09:48:42Z</time>
      </trkpt>
      <trkpt lat="11.55117" lon="42.83401">
        <ele>277</ele>
        <time>2011-12-30T09:48:43Z</time>
      </trkpt>
      <trkpt lat="11.55116" lon="42.83402">
        <ele>284.21</ele>
        <time>2011-12-30T09:48:44Z</time>
      </trkpt>
      <trkpt lat="11.55115" lon="42.83402">
        <ele>276.52</ele>
        <time>2011-12-30T09:48:45Z</time>
      </trkpt>
      <trkpt lat="11.55114" lon="42.83402">
        <ele>279.88</ele>
        <time>2011-12-30T09:48:46Z</time>
      </trkpt>
      <trkpt lat="11.55113" lon="42.83402">
        <ele>272.67</ele>
        <time>2011-12-30T09:48:48Z</time>
      </trkpt>
      <trkpt lat="11.55111" lon="42.83403">
        <ele>279.88</ele>
        <time>2011-12-30T09:48:49Z</time>
      </trkpt>
      <trkpt lat="11.5511" lon="42.83403">
        <ele>276.52</ele>
        <time>2011-12-30T09:48:50Z</time>
      </trkpt>
      <trkpt lat="11.5511" lon="42.83404">
        <ele>276.04</ele>
        <time>2011-12-30T09:48:51Z</time>
      </trkpt>
      <trkpt lat="11.55107" lon="42.83404">
        <ele>271.71</ele>
        <time>2011-12-30T09:48:53Z</time>
      </trkpt>
      <trkpt lat="11.55106" lon="42.83404">
        <ele>277.96</ele>
        <time>2011-12-30T09:48:54Z</time>
      </trkpt>
      <trkpt lat="11.55104" lon="42.83404">
        <ele>280.36</ele>
        <time>2011-12-30T09:48:56Z</time>
      </trkpt>
      <trkpt lat="11.55103" lon="42.83404">
        <ele>277</ele>
        <time>2011-12-30T09:48:57Z</time>
      </trkpt>
      <trkpt lat="11.55102" lon="42.83404">
        <ele>284.21</ele>
        <time>2011-12-30T09:48:59Z</time>
      </trkpt>
      <trkpt lat="11.55101" lon="42.83405">
        <ele>277.48</ele>
        <time>2011-12-30T09:49:00Z</time>
      </trkpt>
      <trkpt lat="11.551" lon="42.83405">
        <ele>281.32</ele>
        <time>2011-12-30T09:49:01Z</time>
      </trkpt>
      <trkpt lat="11.55099" lon="42.83405">
        <ele>275.56</ele>
        <time>2011-12-30T09:49:02Z</time>
      </trkpt>
      <trkpt lat="11.55099" lon="42.83406">
        <ele>280.36</ele>
        <time>2011-12-30T09:49:03Z</time>
      </trkpt>
      <trkpt lat="11.55096" lon="42.83406">
        <ele>281.8</ele>
        <time>2011-12-30T09:49:06Z</time>
      </trkpt>
      <trkpt lat="11.55094" lon="42.83407">
        <ele>273.15</ele>
        <time>2011-12-30T09:49:08Z</time>
      </trkpt>
      <trkpt lat="11.55093" lon="42.83407">
        <ele>281.32</ele>
        <time>2011-12-30T09:49:09Z</time>
      </trkpt>
      <trkpt lat="11.55089" lon="42.83409">
        <ele>285.65</ele>
        <time>2011-12-30T09:49:14Z</time>
      </trkpt>
      <trkpt lat="11.55087" lon="42.8341">
        <ele>281.8</ele>
        <time>2011-12-30T09:49:16Z</time>
      </trkpt>
      <trkpt lat="11.55086" lon="42.83411">
        <ele>286.13</ele>
        <time>2011-12-30T09:49:17Z</time>
      </trkpt>
      <trkpt lat="11.55085" lon="42.83412">
        <ele>277.48</ele>
        <time>2011-12-30T09:49:18Z</time>
      </trkpt>
      <trkpt lat="11.55084" lon="42.83412">
        <ele>281.8</ele>
        <time>2011-12-30T09:49:19Z</time>
      </trkpt>
      <trkpt lat="11.55072" lon="42.83413">
        <ele>283.73</ele>
        <time>2011-12-30T09:49:30Z</time>
      </trkpt>
      <trkpt lat="11.55071" lon="42.83413">
        <ele>279.88</ele>
        <time>2011-12-30T09:49:31Z</time>
      </trkpt>
      <trkpt lat="11.55068" lon="42.83413">
        <ele>282.77</ele>
        <time>2011-12-30T09:49:34Z</time>
      </trkpt>
      <trkpt lat="11.55062" lon="42.83413">
        <ele>280.36</ele>
        <time>2011-12-30T09:49:40Z</time>
      </trkpt>
      <trkpt lat="11.55059" lon="42.83414">
        <ele>284.21</ele>
        <time>2011-12-30T09:49:43Z</time>
      </trkpt>
      <trkpt lat="11.55058" lon="42.83414">
        <ele>279.88</ele>
        <time>2011-12-30T09:49:44Z</time>
      </trkpt>
      <trkpt lat="11.55055" lon="42.83414">
        <ele>277</ele>
        <time>2011-12-30T09:49:47Z</time>
      </trkpt>
      <trkpt lat="11.55054" lon="42.83414">
        <ele>279.88</ele>
        <time>2011-12-30T09:49:48Z</time>
      </trkpt>
      <trkpt lat="11.55053" lon="42.83414">
        <ele>284.21</ele>
        <time>2011-12-30T09:49:49Z</time>
      </trkpt>
      <trkpt lat="11.55051" lon="42.83414">
        <ele>283.25</ele>
        <time>2011-12-30T09:49:50Z</time>
      </trkpt>
      <trkpt lat="11.5505" lon="42.83414">
        <ele>280.36</ele>
        <time>2011-12-30T09:49:51Z</time>
      </trkpt>
      <trkpt lat="11.55049" lon="42.83414">
        <ele>280.84</ele>
        <time>2011-12-30T09:49:52Z</time>
      </trkpt>
      <trkpt lat="11.55048" lon="42.83414">
        <ele>285.65</ele>
        <time>2011-12-30T09:49:53Z</time>
      </trkpt>
      <trkpt lat="11.55048" lon="42.83414">
        <ele>284.21</ele>
        <time>2011-12-30T09:49:54Z</time>
      </trkpt>
      <trkpt lat="11.55048" lon="42.83414">
        <ele>284.69</ele>
        <time>2011-12-30T09:50:04Z</time>
      </trkpt>
      <trkpt lat="11.55046" lon="42.83416">
        <ele>281.32</ele>
        <time>2011-12-30T09:50:06Z</time>
      </trkpt>
      <trkpt lat="11.55046" lon="42.83416">
        <ele>283.25</ele>
        <time>2011-12-30T09:50:07Z</time>
      </trkpt>
      <trkpt lat="11.55037" lon="42.83419">
        <ele>283.25</ele>
        <time>2011-12-30T09:50:20Z</time>
      </trkpt>
      <trkpt lat="11.55029" lon="42.83419">
        <ele>283.25</ele>
        <time>2011-12-30T09:50:29Z</time>
      </trkpt>
      <trkpt lat="11.55022" lon="42.83419">
        <ele>288.05</ele>
        <time>2011-12-30T09:50:36Z</time>
      </trkpt>
      <trkpt lat="11.55021" lon="42.83419">
        <ele>279.88</ele>
        <time>2011-12-30T09:50:37Z</time>
      </trkpt>
      <trkpt lat="11.5502" lon="42.83419">
        <ele>284.69</ele>
        <time>2011-12-30T09:50:38Z</time>
      </trkpt>
      <trkpt lat="11.55019" lon="42.8342">
        <ele>284.21</ele>
        <time>2011-12-30T09:50:40Z</time>
      </trkpt>
      <trkpt lat="11.55013" lon="42.83422">
        <ele>280.84</ele>
        <time>2011-12-30T09:50:46Z</time>
      </trkpt>
      <trkpt lat="11.55012" lon="42.83422">
        <ele>284.69</ele>
        <time>2011-12-30T09:50:47Z</time>
      </trkpt>
      <trkpt lat="11.5501" lon="42.83423">
        <ele>280.84</ele>
        <time>2011-12-30T09:50:49Z</time>
      </trkpt>
      <trkpt lat="11.55009" lon="42.83423">
        <ele>285.17</ele>
        <time>2011-12-30T09:50:50Z</time>
      </trkpt>
      <trkpt lat="11.55008" lon="42.83424">
        <ele>279.88</ele>
        <time>2011-12-30T09:50:52Z</time>
      </trkpt>
      <trkpt lat="11.55008" lon="42.83425">
        <ele>286.61</ele>
        <time>2011-12-30T09:50:53Z</time>
      </trkpt>
      <trkpt lat="11.55006" lon="42.83426">
        <ele>291.42</ele>
        <time>2011-12-30T09:50:55Z</time>
      </trkpt>
      <trkpt lat="11.55006" lon="42.83427">
        <ele>277</ele>
        <time>2011-12-30T09:50:56Z</time>
      </trkpt>
      <trkpt lat="11.55005" lon="42.83428">
        <ele>285.65</ele>
        <time>2011-12-30T09:50:57Z</time>
      </trkpt>
      <trkpt lat="11.55005" lon="42.83428">
        <ele>286.13</ele>
        <time>2011-12-30T09:50:58Z</time>
      </trkpt>
      <trkpt lat="11.55" lon="42.8343">
        <ele>294.78</ele>
        <time>2011-12-30T09:51:03Z</time>
      </trkpt>
      <trkpt lat="11.55" lon="42.83431">
        <ele>280.36</ele>
        <time>2011-12-30T09:51:04Z</time>
      </trkpt>
      <trkpt lat="11.54998" lon="42.83433">
        <ele>289.97</ele>
        <time>2011-12-30T09:51:06Z</time>
      </trkpt>
      <trkpt lat="11.54998" lon="42.83433">
        <ele>280.36</ele>
        <time>2011-12-30T09:51:07Z</time>
      </trkpt>
      <trkpt lat="11.54998" lon="42.83434">
        <ele>287.57</ele>
        <time>2011-12-30T09:51:08Z</time>
      </trkpt>
      <trkpt lat="11.54996" lon="42.83436">
        <ele>296.22</ele>
        <time>2011-12-30T09:51:12Z</time>
      </trkpt>
      <trkpt lat="11.54995" lon="42.83436">
        <ele>287.09</ele>
        <time>2011-12-30T09:51:13Z</time>
      </trkpt>
      <trkpt lat="11.54995" lon="42.83437">
        <ele>292.86</ele>
        <time>2011-12-30T09:51:14Z</time>
      </trkpt>
      <trkpt lat="11.54994" lon="42.83437">
        <ele>274.11</ele>
        <time>2011-12-30T09:51:15Z</time>
      </trkpt>
      <trkpt lat="11.54994" lon="42.83437">
        <ele>289.97</ele>
        <time>2011-12-30T09:51:16Z</time>
      </trkpt>
      <trkpt lat="11.54993" lon="42.83438">
        <ele>277.96</ele>
        <time>2011-12-30T09:51:18Z</time>
      </trkpt>
      <trkpt lat="11.54992" lon="42.83438">
        <ele>289.49</ele>
        <time>2011-12-30T09:51:19Z</time>
      </trkpt>
      <trkpt lat="11.54991" lon="42.8344">
        <ele>290.46</ele>
        <time>2011-12-30T09:51:21Z</time>
      </trkpt>
      <trkpt lat="11.54988" lon="42.83442">
        <ele>293.34</ele>
        <time>2011-12-30T09:51:25Z</time>
      </trkpt>
      <trkpt lat="11.54987" lon="42.83442">
        <ele>288.05</ele>
        <time>2011-12-30T09:51:26Z</time>
      </trkpt>
      <trkpt lat="11.54986" lon="42.83443">
        <ele>291.9</ele>
        <time>2011-12-30T09:51:27Z</time>
      </trkpt>
      <trkpt lat="11.54984" lon="42.83444">
        <ele>293.82</ele>
        <time>2011-12-30T09:51:31Z</time>
      </trkpt>
      <trkpt lat="11.54983" lon="42.83444">
        <ele>291.42</ele>
        <time>2011-12-30T09:51:32Z</time>
      </trkpt>
      <trkpt lat="11.5498" lon="42.83444">
        <ele>284.69</ele>
        <time>2011-12-30T09:51:35Z</time>
      </trkpt>
      <trkpt lat="11.54978" lon="42.83445">
        <ele>288.05</ele>
        <time>2011-12-30T09:51:38Z</time>
      </trkpt>
      <trkpt lat="11.54977" lon="42.83445">
        <ele>292.86</ele>
        <time>2011-12-30T09:51:39Z</time>
      </trkpt>
      <trkpt lat="11.54976" lon="42.83446">
        <ele>285.65</ele>
        <time>2011-12-30T09:51:40Z</time>
      </trkpt>
      <trkpt lat="11.54975" lon="42.83446">
        <ele>291.42</ele>
        <time>2011-12-30T09:51:41Z</time>
      </trkpt>
      <trkpt lat="11.54973" lon="42.83446">
        <ele>295.26</ele>
        <time>2011-12-30T09:51:48Z</time>
      </trkpt>
      <trkpt lat="11.54972" lon="42.83447">
        <ele>289.97</ele>
        <time>2011-12-30T09:51:49Z</time>
      </trkpt>
      <trkpt lat="11.54971" lon="42.83447">
        <ele>290.94</ele>
        <time>2011-12-30T09:51:50Z</time>
      </trkpt>
      <trkpt lat="11.54969" lon="42.83447">
        <ele>298.63</ele>
        <time>2011-12-30T09:51:52Z</time>
      </trkpt>
      <trkpt lat="11.54969" lon="42.83447">
        <ele>287.57</ele>
        <time>2011-12-30T09:51:53Z</time>
      </trkpt>
      <trkpt lat="11.54966" lon="42.83449">
        <ele>298.15</ele>
        <time>2011-12-30T09:51:55Z</time>
      </trkpt>
      <trkpt lat="11.54966" lon="42.83449">
        <ele>288.53</ele>
        <time>2011-12-30T09:51:56Z</time>
      </trkpt>
      <trkpt lat="11.54965" lon="42.8345">
        <ele>294.3</ele>
        <time>2011-12-30T09:51:57Z</time>
      </trkpt>
      <trkpt lat="11.54965" lon="42.8345">
        <ele>285.17</ele>
        <time>2011-12-30T09:51:58Z</time>
      </trkpt>
      <trkpt lat="11.54964" lon="42.83451">
        <ele>293.82</ele>
        <time>2011-12-30T09:51:59Z</time>
      </trkpt>
      <trkpt lat="11.54962" lon="42.83452">
        <ele>297.67</ele>
        <time>2011-12-30T09:52:03Z</time>
      </trkpt>
      <trkpt lat="11.54962" lon="42.83452">
        <ele>289.01</ele>
        <time>2011-12-30T09:52:04Z</time>
      </trkpt>
      <trkpt lat="11.54961" lon="42.83453">
        <ele>296.22</ele>
        <time>2011-12-30T09:52:05Z</time>
      </trkpt>
      <trkpt lat="11.54961" lon="42.83453">
        <ele>300.07</ele>
        <time>2011-12-30T09:52:06Z</time>
      </trkpt>
      <trkpt lat="11.54961" lon="42.83454">
        <ele>297.18</ele>
        <time>2011-12-30T09:52:07Z</time>
      </trkpt>
      <trkpt lat="11.54959" lon="42.83455">
        <ele>290.46</ele>
        <time>2011-12-30T09:52:09Z</time>
      </trkpt>
      <trkpt lat="11.54959" lon="42.83455">
        <ele>296.22</ele>
        <time>2011-12-30T09:52:10Z</time>
      </trkpt>
      <trkpt lat="11.54953" lon="42.83453">
        <ele>301.03</ele>
        <time>2011-12-30T09:52:17Z</time>
      </trkpt>
      <trkpt lat="11.54953" lon="42.83453">
        <ele>288.05</ele>
        <time>2011-12-30T09:52:18Z</time>
      </trkpt>
      <trkpt lat="11.54952" lon="42.83453">
        <ele>297.18</ele>
        <time>2011-12-30T09:52:19Z</time>
      </trkpt>
      <trkpt lat="11.54949" lon="42.83452">
        <ele>292.86</ele>
        <time>2011-12-30T09:52:23Z</time>
      </trkpt>
      <trkpt lat="11.54948" lon="42.83452">
        <ele>298.15</ele>
        <time>2011-12-30T09:52:24Z</time>
      </trkpt>
      <trkpt lat="11.54944" lon="42.83453">
        <ele>301.99</ele>
        <time>2011-12-30T09:52:28Z</time>
      </trkpt>
      <trkpt lat="11.54943" lon="42.83454">
        <ele>298.63</ele>
        <time>2011-12-30T09:52:30Z</time>
      </trkpt>
      <trkpt lat="11.54943" lon="42.83453">
        <ele>293.82</ele>
        <time>2011-12-30T09:52:31Z</time>
      </trkpt>
      <trkpt lat="11.54942" lon="42.83453">
        <ele>299.11</ele>
        <time>2011-12-30T09:52:32Z</time>
      </trkpt>
      <trkpt lat="11.5494" lon="42.83453">
        <ele>295.74</ele>
        <time>2011-12-30T09:52:34Z</time>
      </trkpt>
      <trkpt lat="11.5494" lon="42.83454">
        <ele>303.43</ele>
        <time>2011-12-30T09:52:35Z</time>
      </trkpt>
      <trkpt lat="11.54939" lon="42.83454">
        <ele>291.42</ele>
        <time>2011-12-30T09:52:36Z</time>
      </trkpt>
      <trkpt lat="11.54938" lon="42.83454">
        <ele>293.34</ele>
        <time>2011-12-30T09:52:38Z</time>
      </trkpt>
      <trkpt lat="11.54937" lon="42.83454">
        <ele>298.63</ele>
        <time>2011-12-30T09:52:39Z</time>
      </trkpt>
      <trkpt lat="11.54933" lon="42.83455">
        <ele>296.22</ele>
        <time>2011-12-30T09:52:44Z</time>
      </trkpt>
      <trkpt lat="11.54932" lon="42.83455">
        <ele>301.99</ele>
        <time>2011-12-30T09:52:45Z</time>
      </trkpt>
      <trkpt lat="11.54931" lon="42.83456">
        <ele>301.99</ele>
        <time>2011-12-30T09:52:46Z</time>
      </trkpt>
      <trkpt lat="11.54929" lon="42.83457">
        <ele>299.11</ele>
        <time>2011-12-30T09:52:48Z</time>
      </trkpt>
      <trkpt lat="11.5492" lon="42.83461">
        <ele>297.18</ele>
        <time>2011-12-30T09:52:57Z</time>
      </trkpt>
      <trkpt lat="11.54918" lon="42.83461">
        <ele>300.07</ele>
        <time>2011-12-30T09:52:59Z</time>
      </trkpt>
      <trkpt lat="11.54912" lon="42.83463">
        <ele>306.32</ele>
        <time>2011-12-30T09:53:07Z</time>
      </trkpt>
      <trkpt lat="11.54908" lon="42.83465">
        <ele>306.32</ele>
        <time>2011-12-30T09:53:11Z</time>
      </trkpt>
      <trkpt lat="11.54906" lon="42.83466">
        <ele>300.55</ele>
        <time>2011-12-30T09:53:13Z</time>
      </trkpt>
      <trkpt lat="11.54903" lon="42.83466">
        <ele>297.18</ele>
        <time>2011-12-30T09:53:15Z</time>
      </trkpt>
      <trkpt lat="11.54901" lon="42.83467">
        <ele>302.95</ele>
        <time>2011-12-30T09:53:17Z</time>
      </trkpt>
      <trkpt lat="11.549" lon="42.83467">
        <ele>297.67</ele>
        <time>2011-12-30T09:53:18Z</time>
      </trkpt>
      <trkpt lat="11.54898" lon="42.83467">
        <ele>301.99</ele>
        <time>2011-12-30T09:53:20Z</time>
      </trkpt>
      <trkpt lat="11.54897" lon="42.83467">
        <ele>300.55</ele>
        <time>2011-12-30T09:53:21Z</time>
      </trkpt>
      <trkpt lat="11.54891" lon="42.83466">
        <ele>299.11</ele>
        <time>2011-12-30T09:53:27Z</time>
      </trkpt>
      <trkpt lat="11.5489" lon="42.83466">
        <ele>299.59</ele>
        <time>2011-12-30T09:53:28Z</time>
      </trkpt>
      <trkpt lat="11.54887" lon="42.83467">
        <ele>304.88</ele>
        <time>2011-12-30T09:53:31Z</time>
      </trkpt>
      <trkpt lat="11.54886" lon="42.83467">
        <ele>298.15</ele>
        <time>2011-12-30T09:53:32Z</time>
      </trkpt>
      <trkpt lat="11.54885" lon="42.83467">
        <ele>298.15</ele>
        <time>2011-12-30T09:53:33Z</time>
      </trkpt>
      <trkpt lat="11.54884" lon="42.83467">
        <ele>301.51</ele>
        <time>2011-12-30T09:53:34Z</time>
      </trkpt>
      <trkpt lat="11.54882" lon="42.83468">
        <ele>294.3</ele>
        <time>2011-12-30T09:53:36Z</time>
      </trkpt>
      <trkpt lat="11.54881" lon="42.83468">
        <ele>302.95</ele>
        <time>2011-12-30T09:53:37Z</time>
      </trkpt>
      <trkpt lat="11.54879" lon="42.83469">
        <ele>296.7</ele>
        <time>2011-12-30T09:53:39Z</time>
      </trkpt>
      <trkpt lat="11.54878" lon="42.83469">
        <ele>302.47</ele>
        <time>2011-12-30T09:53:40Z</time>
      </trkpt>
      <trkpt lat="11.54877" lon="42.8347">
        <ele>300.55</ele>
        <time>2011-12-30T09:53:41Z</time>
      </trkpt>
      <trkpt lat="11.54863" lon="42.8348">
        <ele>297.18</ele>
        <time>2011-12-30T09:53:57Z</time>
      </trkpt>
      <trkpt lat="11.54863" lon="42.83481">
        <ele>301.03</ele>
        <time>2011-12-30T09:53:58Z</time>
      </trkpt>
      <trkpt lat="11.54856" lon="42.83485">
        <ele>301.99</ele>
        <time>2011-12-30T09:54:08Z</time>
      </trkpt>
      <trkpt lat="11.54851" lon="42.83486">
        <ele>298.63</ele>
        <time>2011-12-30T09:54:15Z</time>
      </trkpt>
      <trkpt lat="11.54848" lon="42.83492">
        <ele>298.15</ele>
        <time>2011-12-30T09:54:25Z</time>
      </trkpt>
      <trkpt lat="11.5485" lon="42.83503">
        <ele>298.63</ele>
        <time>2011-12-30T09:54:35Z</time>
      </trkpt>
      <trkpt lat="11.54851" lon="42.83516">
        <ele>298.15</ele>
        <time>2011-12-30T09:54:47Z</time>
      </trkpt>
      <trkpt lat="11.54852" lon="42.83524">
        <ele>295.26</ele>
        <time>2011-12-30T09:54:57Z</time>
      </trkpt>
      <trkpt lat="11.54855" lon="42.8353">
        <ele>296.7</ele>
        <time>2011-12-30T09:55:03Z</time>
      </trkpt>
      <trkpt lat="11.54856" lon="42.83533">
        <ele>296.7</ele>
        <time>2011-12-30T09:55:06Z</time>
      </trkpt>
      <trkpt lat="11.54857" lon="42.83538">
        <ele>296.7</ele>
        <time>2011-12-30T09:55:11Z</time>
      </trkpt>
      <trkpt lat="11.54857" lon="42.8354">
        <ele>295.26</ele>
        <time>2011-12-30T09:55:13Z</time>
      </trkpt>
      <trkpt lat="11.54858" lon="42.83544">
        <ele>298.15</ele>
        <time>2011-12-30T09:55:16Z</time>
      </trkpt>
      <trkpt lat="11.54859" lon="42.83552">
        <ele>296.7</ele>
        <time>2011-12-30T09:55:25Z</time>
      </trkpt>
      <trkpt lat="11.54858" lon="42.83554">
        <ele>298.63</ele>
        <time>2011-12-30T09:55:27Z</time>
      </trkpt>
      <trkpt lat="11.54857" lon="42.83555">
        <ele>297.18</ele>
        <time>2011-12-30T09:55:29Z</time>
      </trkpt>
      <trkpt lat="11.54848" lon="42.83566">
        <ele>296.7</ele>
        <time>2011-12-30T09:55:43Z</time>
      </trkpt>
      <trkpt lat="11.54847" lon="42.83567">
        <ele>297.18</ele>
        <time>2011-12-30T09:55:44Z</time>
      </trkpt>
      <trkpt lat="11.54841" lon="42.83572">
        <ele>298.63</ele>
        <time>2011-12-30T09:55:53Z</time>
      </trkpt>
      <trkpt lat="11.54832" lon="42.83576">
        <ele>297.67</ele>
        <time>2011-12-30T09:56:05Z</time>
      </trkpt>
      <trkpt lat="11.54822" lon="42.83577">
        <ele>298.15</ele>
        <time>2011-12-30T09:56:17Z</time>
      </trkpt>
      <trkpt lat="11.54819" lon="42.83578">
        <ele>298.63</ele>
        <time>2011-12-30T09:56:22Z</time>
      </trkpt>
      <trkpt lat="11.54817" lon="42.83579">
        <ele>294.78</ele>
        <time>2011-12-30T09:56:24Z</time>
      </trkpt>
      <trkpt lat="11.54816" lon="42.83579">
        <ele>298.15</ele>
        <time>2011-12-30T09:56:25Z</time>
      </trkpt>
      <trkpt lat="11.54807" lon="42.83583">
        <ele>297.67</ele>
        <time>2011-12-30T09:56:34Z</time>
      </trkpt>
      <trkpt lat="11.54802" lon="42.83586">
        <ele>298.15</ele>
        <time>2011-12-30T09:56:40Z</time>
      </trkpt>
      <trkpt lat="11.54796" lon="42.83589">
        <ele>293.34</ele>
        <time>2011-12-30T09:56:49Z</time>
      </trkpt>
      <trkpt lat="11.54796" lon="42.83588">
        <ele>298.63</ele>
        <time>2011-12-30T09:56:50Z</time>
      </trkpt>
      <trkpt lat="11.54793" lon="42.83589">
        <ele>302.47</ele>
        <time>2011-12-30T09:56:54Z</time>
      </trkpt>
      <trkpt lat="11.54792" lon="42.8359">
        <ele>298.15</ele>
        <time>2011-12-30T09:56:55Z</time>
      </trkpt>
      <trkpt lat="11.5479" lon="42.83591">
        <ele>296.7</ele>
        <time>2011-12-30T09:56:57Z</time>
      </trkpt>
      <trkpt lat="11.5479" lon="42.83591">
        <ele>300.07</ele>
        <time>2011-12-30T09:56:58Z</time>
      </trkpt>
      <trkpt lat="11.54779" lon="42.83595">
        <ele>296.22</ele>
        <time>2011-12-30T09:57:12Z</time>
      </trkpt>
      <trkpt lat="11.54778" lon="42.83595">
        <ele>300.55</ele>
        <time>2011-12-30T09:57:13Z</time>
      </trkpt>
      <trkpt lat="11.54778" lon="42.83596">
        <ele>301.03</ele>
        <time>2011-12-30T09:57:15Z</time>
      </trkpt>
      <trkpt lat="11.54775" lon="42.83597">
        <ele>297.18</ele>
        <time>2011-12-30T09:57:19Z</time>
      </trkpt>
      <trkpt lat="11.54775" lon="42.83598">
        <ele>301.03</ele>
        <time>2011-12-30T09:57:20Z</time>
      </trkpt>
      <trkpt lat="11.54768" lon="42.83604">
        <ele>302.47</ele>
        <time>2011-12-30T09:57:32Z</time>
      </trkpt>
      <trkpt lat="11.54766" lon="42.83605">
        <ele>301.99</ele>
        <time>2011-12-30T09:57:57Z</time>
      </trkpt>
      <trkpt lat="11.54763" lon="42.83607">
        <ele>306.32</ele>
        <time>2011-12-30T09:59:05Z</time>
      </trkpt>
      <trkpt lat="11.54762" lon="42.83608">
        <ele>301.51</ele>
        <time>2011-12-30T09:59:06Z</time>
      </trkpt>
      <trkpt lat="11.54759" lon="42.83611">
        <ele>305.36</ele>
        <time>2011-12-30T09:59:20Z</time>
      </trkpt>
      <trkpt lat="11.54758" lon="42.83611">
        <ele>304.39</ele>
        <time>2011-12-30T09:59:21Z</time>
      </trkpt>
      <trkpt lat="11.54756" lon="42.83613">
        <ele>301.03</ele>
        <time>2011-12-30T09:59:25Z</time>
      </trkpt>
      <trkpt lat="11.54755" lon="42.83613">
        <ele>305.36</ele>
        <time>2011-12-30T09:59:26Z</time>
      </trkpt>
      <trkpt lat="11.54751" lon="42.83617">
        <ele>301.51</ele>
        <time>2011-12-30T09:59:31Z</time>
      </trkpt>
      <trkpt lat="11.5475" lon="42.83618">
        <ele>305.36</ele>
        <time>2011-12-30T09:59:32Z</time>
      </trkpt>
      <trkpt lat="11.54739" lon="42.83625">
        <ele>306.32</ele>
        <time>2011-12-30T09:59:42Z</time>
      </trkpt>
      <trkpt lat="11.54735" lon="42.83629">
        <ele>306.8</ele>
        <time>2011-12-30T09:59:48Z</time>
      </trkpt>
      <trkpt lat="11.54729" lon="42.83632">
        <ele>303.43</ele>
        <time>2011-12-30T09:59:56Z</time>
      </trkpt>
      <trkpt lat="11.54728" lon="42.83633">
        <ele>302.47</ele>
        <time>2011-12-30T09:59:59Z</time>
      </trkpt>
      <trkpt lat="11.54726" lon="42.83634">
        <ele>305.36</ele>
        <time>2011-12-30T10:00:01Z</time>
      </trkpt>
      <trkpt lat="11.54722" lon="42.83638">
        <ele>310.64</ele>
        <time>2011-12-30T10:00:10Z</time>
      </trkpt>
      <trkpt lat="11.54721" lon="42.83639">
        <ele>307.76</ele>
        <time>2011-12-30T10:00:11Z</time>
      </trkpt>
      <trkpt lat="11.54721" lon="42.83639">
        <ele>299.11</ele>
        <time>2011-12-30T10:00:12Z</time>
      </trkpt>
      <trkpt lat="11.5472" lon="42.8364">
        <ele>307.28</ele>
        <time>2011-12-30T10:00:13Z</time>
      </trkpt>
      <trkpt lat="11.54719" lon="42.8364">
        <ele>311.12</ele>
        <time>2011-12-30T10:00:14Z</time>
      </trkpt>
      <trkpt lat="11.54718" lon="42.83642">
        <ele>301.51</ele>
        <time>2011-12-30T10:00:16Z</time>
      </trkpt>
      <trkpt lat="11.54718" lon="42.83642">
        <ele>307.28</ele>
        <time>2011-12-30T10:00:17Z</time>
      </trkpt>
      <trkpt lat="11.54717" lon="42.83643">
        <ele>304.39</ele>
        <time>2011-12-30T10:00:18Z</time>
      </trkpt>
      <trkpt lat="11.54716" lon="42.83644">
        <ele>304.88</ele>
        <time>2011-12-30T10:00:20Z</time>
      </trkpt>
      <trkpt lat="11.54715" lon="42.83645">
        <ele>308.72</ele>
        <time>2011-12-30T10:00:21Z</time>
      </trkpt>
      <trkpt lat="11.54715" lon="42.83645">
        <ele>313.05</ele>
        <time>2011-12-30T10:00:22Z</time>
      </trkpt>
      <trkpt lat="11.54715" lon="42.83645">
        <ele>309.68</ele>
        <time>2011-12-30T10:00:23Z</time>
      </trkpt>
      <trkpt lat="11.54714" lon="42.83646">
        <ele>300.07</ele>
        <time>2011-12-30T10:00:24Z</time>
      </trkpt>
      <trkpt lat="11.54714" lon="42.83646">
        <ele>309.2</ele>
        <time>2011-12-30T10:00:25Z</time>
      </trkpt>
      <trkpt lat="11.54713" lon="42.83647">
        <ele>316.41</ele>
        <time>2011-12-30T10:00:26Z</time>
      </trkpt>
      <trkpt lat="11.54713" lon="42.83647">
        <ele>311.12</ele>
        <time>2011-12-30T10:00:27Z</time>
      </trkpt>
      <trkpt lat="11.54712" lon="42.83648">
        <ele>301.51</ele>
        <time>2011-12-30T10:00:28Z</time>
      </trkpt>
      <trkpt lat="11.54712" lon="42.83648">
        <ele>311.6</ele>
        <time>2011-12-30T10:00:29Z</time>
      </trkpt>
      <trkpt lat="11.54711" lon="42.83649">
        <ele>303.43</ele>
        <time>2011-12-30T10:00:30Z</time>
      </trkpt>
      <trkpt lat="11.54711" lon="42.8365">
        <ele>311.6</ele>
        <time>2011-12-30T10:00:31Z</time>
      </trkpt>
      <trkpt lat="11.5471" lon="42.83651">
        <ele>315.45</ele>
        <time>2011-12-30T10:00:34Z</time>
      </trkpt>
      <trkpt lat="11.5471" lon="42.83652">
        <ele>308.24</ele>
        <time>2011-12-30T10:00:35Z</time>
      </trkpt>
      <trkpt lat="11.54709" lon="42.83653">
        <ele>314.01</ele>
        <time>2011-12-30T10:00:36Z</time>
      </trkpt>
      <trkpt lat="11.54708" lon="42.83655">
        <ele>304.39</ele>
        <time>2011-12-30T10:00:39Z</time>
      </trkpt>
      <trkpt lat="11.54707" lon="42.83656">
        <ele>312.09</ele>
        <time>2011-12-30T10:00:40Z</time>
      </trkpt>
      <trkpt lat="11.54707" lon="42.83657">
        <ele>313.05</ele>
        <time>2011-12-30T10:00:42Z</time>
      </trkpt>
      <trkpt lat="11.54707" lon="42.83659">
        <ele>307.76</ele>
        <time>2011-12-30T10:00:44Z</time>
      </trkpt>
      <trkpt lat="11.54707" lon="42.8366">
        <ele>313.53</ele>
        <time>2011-12-30T10:00:45Z</time>
      </trkpt>
      <trkpt lat="11.54707" lon="42.83661">
        <ele>316.89</ele>
        <time>2011-12-30T10:00:46Z</time>
      </trkpt>
      <trkpt lat="11.54707" lon="42.83662">
        <ele>313.05</ele>
        <time>2011-12-30T10:00:47Z</time>
      </trkpt>
      <trkpt lat="11.54706" lon="42.83663">
        <ele>319.3</ele>
        <time>2011-12-30T10:00:49Z</time>
      </trkpt>
      <trkpt lat="11.54706" lon="42.83664">
        <ele>315.93</ele>
        <time>2011-12-30T10:00:50Z</time>
      </trkpt>
      <trkpt lat="11.54705" lon="42.83666">
        <ele>311.6</ele>
        <time>2011-12-30T10:00:52Z</time>
      </trkpt>
      <trkpt lat="11.54705" lon="42.83667">
        <ele>314.49</ele>
        <time>2011-12-30T10:00:53Z</time>
      </trkpt>
      <trkpt lat="11.54704" lon="42.83671">
        <ele>309.68</ele>
        <time>2011-12-30T10:00:58Z</time>
      </trkpt>
      <trkpt lat="11.54704" lon="42.83672">
        <ele>315.93</ele>
        <time>2011-12-30T10:00:59Z</time>
      </trkpt>
      <trkpt lat="11.54704" lon="42.83673">
        <ele>312.09</ele>
        <time>2011-12-30T10:01:00Z</time>
      </trkpt>
      <trkpt lat="11.54704" lon="42.83673">
        <ele>316.41</ele>
        <time>2011-12-30T10:01:01Z</time>
      </trkpt>
      <trkpt lat="11.54703" lon="42.83677">
        <ele>306.8</ele>
        <time>2011-12-30T10:01:06Z</time>
      </trkpt>
      <trkpt lat="11.54703" lon="42.83678">
        <ele>317.37</ele>
        <time>2011-12-30T10:01:07Z</time>
      </trkpt>
      <trkpt lat="11.54702" lon="42.83679">
        <ele>311.6</ele>
        <time>2011-12-30T10:01:08Z</time>
      </trkpt>
      <trkpt lat="11.54702" lon="42.83679">
        <ele>318.33</ele>
        <time>2011-12-30T10:01:09Z</time>
      </trkpt>
      <trkpt lat="11.54701" lon="42.83682">
        <ele>314.49</ele>
        <time>2011-12-30T10:01:13Z</time>
      </trkpt>
      <trkpt lat="11.54701" lon="42.83683">
        <ele>320.26</ele>
        <time>2011-12-30T10:01:14Z</time>
      </trkpt>
      <trkpt lat="11.54699" lon="42.83685">
        <ele>326.99</ele>
        <time>2011-12-30T10:01:18Z</time>
      </trkpt>
      <trkpt lat="11.54699" lon="42.83685">
        <ele>311.6</ele>
        <time>2011-12-30T10:01:19Z</time>
      </trkpt>
      <trkpt lat="11.54698" lon="42.83686">
        <ele>323.14</ele>
        <time>2011-12-30T10:01:20Z</time>
      </trkpt>
      <trkpt lat="11.54698" lon="42.83686">
        <ele>317.85</ele>
        <time>2011-12-30T10:01:21Z</time>
      </trkpt>
      <trkpt lat="11.54697" lon="42.83687">
        <ele>322.66</ele>
        <time>2011-12-30T10:01:22Z</time>
      </trkpt>
      <trkpt lat="11.54696" lon="42.83689">
        <ele>325.54</ele>
        <time>2011-12-30T10:01:24Z</time>
      </trkpt>
      <trkpt lat="11.54695" lon="42.8369">
        <ele>315.93</ele>
        <time>2011-12-30T10:01:25Z</time>
      </trkpt>
      <trkpt lat="11.54694" lon="42.83692">
        <ele>320.26</ele>
        <time>2011-12-30T10:01:28Z</time>
      </trkpt>
      <trkpt lat="11.54692" lon="42.83692">
        <ele>310.64</ele>
        <time>2011-12-30T10:01:30Z</time>
      </trkpt>
      <trkpt lat="11.54691" lon="42.83691">
        <ele>320.26</ele>
        <time>2011-12-30T10:01:31Z</time>
      </trkpt>
      <trkpt lat="11.5469" lon="42.83691">
        <ele>325.06</ele>
        <time>2011-12-30T10:01:32Z</time>
      </trkpt>
      <trkpt lat="11.54689" lon="42.83691">
        <ele>323.62</ele>
        <time>2011-12-30T10:01:33Z</time>
      </trkpt>
      <trkpt lat="11.54685" lon="42.8369">
        <ele>319.78</ele>
        <time>2011-12-30T10:01:37Z</time>
      </trkpt>
      <trkpt lat="11.54684" lon="42.8369">
        <ele>319.78</ele>
        <time>2011-12-30T10:01:38Z</time>
      </trkpt>
      <trkpt lat="11.54683" lon="42.83689">
        <ele>323.14</ele>
        <time>2011-12-30T10:01:39Z</time>
      </trkpt>
      <trkpt lat="11.54682" lon="42.83689">
        <ele>321.22</ele>
        <time>2011-12-30T10:01:40Z</time>
      </trkpt>
      <trkpt lat="11.54679" lon="42.83688">
        <ele>324.1</ele>
        <time>2011-12-30T10:01:43Z</time>
      </trkpt>
      <trkpt lat="11.54678" lon="42.83688">
        <ele>320.26</ele>
        <time>2011-12-30T10:01:44Z</time>
      </trkpt>
      <trkpt lat="11.54675" lon="42.83687">
        <ele>322.18</ele>
        <time>2011-12-30T10:01:47Z</time>
      </trkpt>
      <trkpt lat="11.54674" lon="42.83686">
        <ele>318.81</ele>
        <time>2011-12-30T10:01:48Z</time>
      </trkpt>
      <trkpt lat="11.54666" lon="42.83684">
        <ele>320.74</ele>
        <time>2011-12-30T10:01:55Z</time>
      </trkpt>
      <trkpt lat="11.54663" lon="42.83684">
        <ele>322.66</ele>
        <time>2011-12-30T10:01:58Z</time>
      </trkpt>
      <trkpt lat="11.54662" lon="42.83684">
        <ele>322.18</ele>
        <time>2011-12-30T10:01:59Z</time>
      </trkpt>
      <trkpt lat="11.5466" lon="42.83684">
        <ele>318.33</ele>
        <time>2011-12-30T10:02:01Z</time>
      </trkpt>
      <trkpt lat="11.54659" lon="42.83684">
        <ele>321.7</ele>
        <time>2011-12-30T10:02:02Z</time>
      </trkpt>
      <trkpt lat="11.54654" lon="42.83682">
        <ele>319.78</ele>
        <time>2011-12-30T10:02:06Z</time>
      </trkpt>
      <trkpt lat="11.54652" lon="42.83681">
        <ele>321.7</ele>
        <time>2011-12-30T10:02:08Z</time>
      </trkpt>
      <trkpt lat="11.54651" lon="42.83681">
        <ele>318.33</ele>
        <time>2011-12-30T10:02:09Z</time>
      </trkpt>
      <trkpt lat="11.54649" lon="42.8368">
        <ele>321.7</ele>
        <time>2011-12-30T10:02:11Z</time>
      </trkpt>
      <trkpt lat="11.54646" lon="42.83678">
        <ele>321.7</ele>
        <time>2011-12-30T10:02:15Z</time>
      </trkpt>
      <trkpt lat="11.54643" lon="42.83676">
        <ele>321.22</ele>
        <time>2011-12-30T10:02:22Z</time>
      </trkpt>
      <trkpt lat="11.5464" lon="42.83673">
        <ele>326.02</ele>
        <time>2011-12-30T10:02:25Z</time>
      </trkpt>
      <trkpt lat="11.5464" lon="42.83673">
        <ele>321.7</ele>
        <time>2011-12-30T10:02:26Z</time>
      </trkpt>
      <trkpt lat="11.5464" lon="42.83672">
        <ele>321.7</ele>
        <time>2011-12-30T10:02:27Z</time>
      </trkpt>
      <trkpt lat="11.54638" lon="42.83671">
        <ele>319.78</ele>
        <time>2011-12-30T10:02:30Z</time>
      </trkpt>
      <trkpt lat="11.54635" lon="42.83668">
        <ele>315.45</ele>
        <time>2011-12-30T10:02:33Z</time>
      </trkpt>
      <trkpt lat="11.54633" lon="42.83665">
        <ele>318.33</ele>
        <time>2011-12-30T10:02:36Z</time>
      </trkpt>
      <trkpt lat="11.54627" lon="42.83661">
        <ele>316.89</ele>
        <time>2011-12-30T10:02:44Z</time>
      </trkpt>
      <trkpt lat="11.54626" lon="42.83658">
        <ele>319.3</ele>
        <time>2011-12-30T10:02:47Z</time>
      </trkpt>
      <trkpt lat="11.54623" lon="42.83656">
        <ele>322.66</ele>
        <time>2011-12-30T10:02:50Z</time>
      </trkpt>
      <trkpt lat="11.54615" lon="42.8365">
        <ele>323.14</ele>
        <time>2011-12-30T10:03:00Z</time>
      </trkpt>
      <trkpt lat="11.54607" lon="42.83641">
        <ele>324.58</ele>
        <time>2011-12-30T10:03:14Z</time>
      </trkpt>
      <trkpt lat="11.54601" lon="42.83632">
        <ele>326.5</ele>
        <time>2011-12-30T10:03:26Z</time>
      </trkpt>
      <trkpt lat="11.54599" lon="42.8363">
        <ele>327.47</ele>
        <time>2011-12-30T10:03:29Z</time>
      </trkpt>
      <trkpt lat="11.54585" lon="42.83626">
        <ele>329.39</ele>
        <time>2011-12-30T10:03:44Z</time>
      </trkpt>
      <trkpt lat="11.54578" lon="42.83625">
        <ele>328.43</ele>
        <time>2011-12-30T10:03:51Z</time>
      </trkpt>
      <trkpt lat="11.54575" lon="42.83623">
        <ele>327.95</ele>
        <time>2011-12-30T10:03:55Z</time>
      </trkpt>
      <trkpt lat="11.54563" lon="42.8362">
        <ele>326.02</ele>
        <time>2011-12-30T10:04:06Z</time>
      </trkpt>
      <trkpt lat="11.54561" lon="42.83619">
        <ele>327.47</ele>
        <time>2011-12-30T10:04:09Z</time>
      </trkpt>
      <trkpt lat="11.54561" lon="42.83619">
        <ele>327.47</ele>
        <time>2011-12-30T10:04:10Z</time>
      </trkpt>
      <trkpt lat="11.54558" lon="42.83618">
        <ele>327.95</ele>
        <time>2011-12-30T10:04:19Z</time>
      </trkpt>
      <trkpt lat="11.54547" lon="42.83619">
        <ele>320.26</ele>
        <time>2011-12-30T10:04:31Z</time>
      </trkpt>
      <trkpt lat="11.54546" lon="42.8362">
        <ele>327.47</ele>
        <time>2011-12-30T10:04:32Z</time>
      </trkpt>
      <trkpt lat="11.54544" lon="42.8362">
        <ele>327.95</ele>
        <time>2011-12-30T10:04:34Z</time>
      </trkpt>
      <trkpt lat="11.54537" lon="42.83624">
        <ele>327.95</ele>
        <time>2011-12-30T10:04:42Z</time>
      </trkpt>
      <trkpt lat="11.54534" lon="42.83627">
        <ele>324.1</ele>
        <time>2011-12-30T10:04:44Z</time>
      </trkpt>
      <trkpt lat="11.54534" lon="42.83628">
        <ele>327.95</ele>
        <time>2011-12-30T10:04:45Z</time>
      </trkpt>
      <trkpt lat="11.54533" lon="42.83629">
        <ele>328.91</ele>
        <time>2011-12-30T10:04:46Z</time>
      </trkpt>
      <trkpt lat="11.54533" lon="42.83633">
        <ele>323.14</ele>
        <time>2011-12-30T10:04:49Z</time>
      </trkpt>
      <trkpt lat="11.54533" lon="42.83633">
        <ele>326.5</ele>
        <time>2011-12-30T10:04:50Z</time>
      </trkpt>
      <trkpt lat="11.54532" lon="42.83636">
        <ele>332.75</ele>
        <time>2011-12-30T10:04:52Z</time>
      </trkpt>
      <trkpt lat="11.54532" lon="42.83637">
        <ele>326.02</ele>
        <time>2011-12-30T10:04:53Z</time>
      </trkpt>
      <trkpt lat="11.54532" lon="42.83638">
        <ele>326.5</ele>
        <time>2011-12-30T10:04:54Z</time>
      </trkpt>
      <trkpt lat="11.54531" lon="42.83638">
        <ele>329.39</ele>
        <time>2011-12-30T10:04:55Z</time>
      </trkpt>
      <trkpt lat="11.54531" lon="42.83639">
        <ele>328.91</ele>
        <time>2011-12-30T10:04:56Z</time>
      </trkpt>
      <trkpt lat="11.54532" lon="42.83639">
        <ele>328.43</ele>
        <time>2011-12-30T10:05:07Z</time>
      </trkpt>
      <trkpt lat="11.5453" lon="42.83641">
        <ele>321.7</ele>
        <time>2011-12-30T10:05:40Z</time>
      </trkpt>
      <trkpt lat="11.54529" lon="42.83641">
        <ele>328.91</ele>
        <time>2011-12-30T10:05:41Z</time>
      </trkpt>
      <trkpt lat="11.54528" lon="42.83643">
        <ele>323.14</ele>
        <time>2011-12-30T10:05:43Z</time>
      </trkpt>
      <trkpt lat="11.54528" lon="42.83644">
        <ele>326.5</ele>
        <time>2011-12-30T10:05:44Z</time>
      </trkpt>
      <trkpt lat="11.54527" lon="42.83645">
        <ele>332.27</ele>
        <time>2011-12-30T10:05:45Z</time>
      </trkpt>
      <trkpt lat="11.54527" lon="42.83646">
        <ele>329.87</ele>
        <time>2011-12-30T10:05:46Z</time>
      </trkpt>
      <trkpt lat="11.54527" lon="42.83647">
        <ele>324.58</ele>
        <time>2011-12-30T10:05:47Z</time>
      </trkpt>
      <trkpt lat="11.54525" lon="42.8365">
        <ele>335.16</ele>
        <time>2011-12-30T10:05:49Z</time>
      </trkpt>
      <trkpt lat="11.54524" lon="42.83651">
        <ele>325.06</ele>
        <time>2011-12-30T10:05:50Z</time>
      </trkpt>
      <trkpt lat="11.54523" lon="42.83651">
        <ele>328.91</ele>
        <time>2011-12-30T10:05:52Z</time>
      </trkpt>
      <trkpt lat="11.54522" lon="42.83652">
        <ele>331.79</ele>
        <time>2011-12-30T10:05:53Z</time>
      </trkpt>
      <trkpt lat="11.54521" lon="42.83653">
        <ele>327.95</ele>
        <time>2011-12-30T10:05:54Z</time>
      </trkpt>
      <trkpt lat="11.5452" lon="42.83654">
        <ele>331.79</ele>
        <time>2011-12-30T10:05:57Z</time>
      </trkpt>
      <trkpt lat="11.54519" lon="42.83655">
        <ele>324.58</ele>
        <time>2011-12-30T10:05:58Z</time>
      </trkpt>
      <trkpt lat="11.54519" lon="42.83655">
        <ele>330.35</ele>
        <time>2011-12-30T10:05:59Z</time>
      </trkpt>
      <trkpt lat="11.54515" lon="42.83656">
        <ele>331.31</ele>
        <time>2011-12-30T10:06:03Z</time>
      </trkpt>
      <trkpt lat="11.54513" lon="42.83656">
        <ele>337.08</ele>
        <time>2011-12-30T10:06:05Z</time>
      </trkpt>
      <trkpt lat="11.54512" lon="42.83656">
        <ele>336.12</ele>
        <time>2011-12-30T10:06:06Z</time>
      </trkpt>
      <trkpt lat="11.54511" lon="42.83656">
        <ele>333.23</ele>
        <time>2011-12-30T10:06:07Z</time>
      </trkpt>
      <trkpt lat="11.54509" lon="42.83656">
        <ele>331.31</ele>
        <time>2011-12-30T10:06:09Z</time>
      </trkpt>
      <trkpt lat="11.54508" lon="42.83655">
        <ele>334.68</ele>
        <time>2011-12-30T10:06:10Z</time>
      </trkpt>
      <trkpt lat="11.54507" lon="42.83655">
        <ele>333.23</ele>
        <time>2011-12-30T10:06:11Z</time>
      </trkpt>
      <trkpt lat="11.54507" lon="42.83654">
        <ele>333.71</ele>
        <time>2011-12-30T10:06:12Z</time>
      </trkpt>
      <trkpt lat="11.54497" lon="42.8365">
        <ele>333.23</ele>
        <time>2011-12-30T10:06:22Z</time>
      </trkpt>
      <trkpt lat="11.54495" lon="42.8365">
        <ele>336.6</ele>
        <time>2011-12-30T10:06:24Z</time>
      </trkpt>
      <trkpt lat="11.54493" lon="42.83649">
        <ele>334.2</ele>
        <time>2011-12-30T10:06:26Z</time>
      </trkpt>
      <trkpt lat="11.5449" lon="42.83648">
        <ele>335.16</ele>
        <time>2011-12-30T10:06:29Z</time>
      </trkpt>
      <trkpt lat="11.54486" lon="42.83648">
        <ele>337.56</ele>
        <time>2011-12-30T10:06:32Z</time>
      </trkpt>
      <trkpt lat="11.54485" lon="42.83648">
        <ele>329.39</ele>
        <time>2011-12-30T10:06:33Z</time>
      </trkpt>
      <trkpt lat="11.54484" lon="42.83648">
        <ele>333.23</ele>
        <time>2011-12-30T10:06:34Z</time>
      </trkpt>
      <trkpt lat="11.54482" lon="42.83648">
        <ele>329.39</ele>
        <time>2011-12-30T10:06:36Z</time>
      </trkpt>
      <trkpt lat="11.54481" lon="42.83649">
        <ele>334.68</ele>
        <time>2011-12-30T10:06:37Z</time>
      </trkpt>
      <trkpt lat="11.54472" lon="42.83651">
        <ele>327.95</ele>
        <time>2011-12-30T10:06:46Z</time>
      </trkpt>
      <trkpt lat="11.54471" lon="42.83651">
        <ele>334.68</ele>
        <time>2011-12-30T10:06:47Z</time>
      </trkpt>
      <trkpt lat="11.54469" lon="42.83652">
        <ele>338.52</ele>
        <time>2011-12-30T10:06:48Z</time>
      </trkpt>
      <trkpt lat="11.54468" lon="42.83652">
        <ele>330.35</ele>
        <time>2011-12-30T10:06:49Z</time>
      </trkpt>
      <trkpt lat="11.54467" lon="42.83652">
        <ele>338.04</ele>
        <time>2011-12-30T10:06:51Z</time>
      </trkpt>
      <trkpt lat="11.54467" lon="42.83651">
        <ele>331.79</ele>
        <time>2011-12-30T10:06:52Z</time>
      </trkpt>
      <trkpt lat="11.54466" lon="42.83651">
        <ele>335.64</ele>
        <time>2011-12-30T10:06:53Z</time>
      </trkpt>
      <trkpt lat="11.54463" lon="42.83652">
        <ele>332.27</ele>
        <time>2011-12-30T10:06:55Z</time>
      </trkpt>
      <trkpt lat="11.54462" lon="42.83652">
        <ele>335.16</ele>
        <time>2011-12-30T10:06:56Z</time>
      </trkpt>
      <trkpt lat="11.5446" lon="42.83652">
        <ele>330.83</ele>
        <time>2011-12-30T10:06:59Z</time>
      </trkpt>
      <trkpt lat="11.54457" lon="42.83652">
        <ele>339</ele>
        <time>2011-12-30T10:07:01Z</time>
      </trkpt>
      <trkpt lat="11.54457" lon="42.83652">
        <ele>332.27</ele>
        <time>2011-12-30T10:07:02Z</time>
      </trkpt>
      <trkpt lat="11.54455" lon="42.83652">
        <ele>339.96</ele>
        <time>2011-12-30T10:07:04Z</time>
      </trkpt>
      <trkpt lat="11.54454" lon="42.83652">
        <ele>330.83</ele>
        <time>2011-12-30T10:07:05Z</time>
      </trkpt>
      <trkpt lat="11.54453" lon="42.83653">
        <ele>337.08</ele>
        <time>2011-12-30T10:07:06Z</time>
      </trkpt>
      <trkpt lat="11.54451" lon="42.83654">
        <ele>331.79</ele>
        <time>2011-12-30T10:07:08Z</time>
      </trkpt>
      <trkpt lat="11.5445" lon="42.83655">
        <ele>337.56</ele>
        <time>2011-12-30T10:07:09Z</time>
      </trkpt>
      <trkpt lat="11.54445" lon="42.83659">
        <ele>340.92</ele>
        <time>2011-12-30T10:07:16Z</time>
      </trkpt>
      <trkpt lat="11.54443" lon="42.8366">
        <ele>337.56</ele>
        <time>2011-12-30T10:07:18Z</time>
      </trkpt>
      <trkpt lat="11.54441" lon="42.83661">
        <ele>333.71</ele>
        <time>2011-12-30T10:07:20Z</time>
      </trkpt>
      <trkpt lat="11.5444" lon="42.83662">
        <ele>335.64</ele>
        <time>2011-12-30T10:07:21Z</time>
      </trkpt>
      <trkpt lat="11.54439" lon="42.83662">
        <ele>340.44</ele>
        <time>2011-12-30T10:07:22Z</time>
      </trkpt>
      <trkpt lat="11.54438" lon="42.83663">
        <ele>337.56</ele>
        <time>2011-12-30T10:07:23Z</time>
      </trkpt>
      <trkpt lat="11.54436" lon="42.83665">
        <ele>340.92</ele>
        <time>2011-12-30T10:07:26Z</time>
      </trkpt>
      <trkpt lat="11.54436" lon="42.83665">
        <ele>334.68</ele>
        <time>2011-12-30T10:07:27Z</time>
      </trkpt>
      <trkpt lat="11.54435" lon="42.83666">
        <ele>339</ele>
        <time>2011-12-30T10:07:28Z</time>
      </trkpt>
      <trkpt lat="11.54425" lon="42.83669">
        <ele>334.2</ele>
        <time>2011-12-30T10:07:38Z</time>
      </trkpt>
      <trkpt lat="11.54424" lon="42.8367">
        <ele>339.48</ele>
        <time>2011-12-30T10:07:39Z</time>
      </trkpt>
      <trkpt lat="11.54423" lon="42.8367">
        <ele>343.33</ele>
        <time>2011-12-30T10:07:40Z</time>
      </trkpt>
      <trkpt lat="11.54422" lon="42.8367">
        <ele>334.2</ele>
        <time>2011-12-30T10:07:41Z</time>
      </trkpt>
      <trkpt lat="11.54422" lon="42.83671">
        <ele>337.56</ele>
        <time>2011-12-30T10:07:42Z</time>
      </trkpt>
      <trkpt lat="11.5442" lon="42.83672">
        <ele>338.04</ele>
        <time>2011-12-30T10:07:44Z</time>
      </trkpt>
      <trkpt lat="11.54419" lon="42.83672">
        <ele>332.75</ele>
        <time>2011-12-30T10:07:45Z</time>
      </trkpt>
      <trkpt lat="11.54418" lon="42.83673">
        <ele>339</ele>
        <time>2011-12-30T10:07:46Z</time>
      </trkpt>
      <trkpt lat="11.54414" lon="42.83676">
        <ele>340.44</ele>
        <time>2011-12-30T10:07:51Z</time>
      </trkpt>
      <trkpt lat="11.54409" lon="42.8368">
        <ele>343.81</ele>
        <time>2011-12-30T10:07:56Z</time>
      </trkpt>
      <trkpt lat="11.54407" lon="42.83682">
        <ele>344.77</ele>
        <time>2011-12-30T10:07:59Z</time>
      </trkpt>
      <trkpt lat="11.54407" lon="42.83683">
        <ele>336.12</ele>
        <time>2011-12-30T10:08:00Z</time>
      </trkpt>
      <trkpt lat="11.54406" lon="42.83684">
        <ele>340.92</ele>
        <time>2011-12-30T10:08:01Z</time>
      </trkpt>
      <trkpt lat="11.54406" lon="42.83685">
        <ele>343.81</ele>
        <time>2011-12-30T10:08:02Z</time>
      </trkpt>
      <trkpt lat="11.54405" lon="42.83686">
        <ele>340.44</ele>
        <time>2011-12-30T10:08:03Z</time>
      </trkpt>
      <trkpt lat="11.54405" lon="42.83687">
        <ele>337.08</ele>
        <time>2011-12-30T10:08:04Z</time>
      </trkpt>
      <trkpt lat="11.54404" lon="42.83689">
        <ele>341.89</ele>
        <time>2011-12-30T10:08:05Z</time>
      </trkpt>
      <trkpt lat="11.54404" lon="42.83691">
        <ele>338.04</ele>
        <time>2011-12-30T10:08:07Z</time>
      </trkpt>
      <trkpt lat="11.54403" lon="42.83692">
        <ele>340.44</ele>
        <time>2011-12-30T10:08:08Z</time>
      </trkpt>
      <trkpt lat="11.54402" lon="42.83694">
        <ele>341.41</ele>
        <time>2011-12-30T10:08:10Z</time>
      </trkpt>
      <trkpt lat="11.544" lon="42.83697">
        <ele>345.73</ele>
        <time>2011-12-30T10:08:14Z</time>
      </trkpt>
      <trkpt lat="11.54399" lon="42.83698">
        <ele>343.81</ele>
        <time>2011-12-30T10:08:15Z</time>
      </trkpt>
      <trkpt lat="11.54397" lon="42.837">
        <ele>339</ele>
        <time>2011-12-30T10:08:18Z</time>
      </trkpt>
      <trkpt lat="11.54396" lon="42.83701">
        <ele>342.85</ele>
        <time>2011-12-30T10:08:19Z</time>
      </trkpt>
      <trkpt lat="11.54395" lon="42.83702">
        <ele>345.73</ele>
        <time>2011-12-30T10:08:20Z</time>
      </trkpt>
      <trkpt lat="11.54395" lon="42.83702">
        <ele>340.44</ele>
        <time>2011-12-30T10:08:21Z</time>
      </trkpt>
      <trkpt lat="11.54394" lon="42.83703">
        <ele>340.92</ele>
        <time>2011-12-30T10:08:22Z</time>
      </trkpt>
      <trkpt lat="11.54394" lon="42.83704">
        <ele>344.77</ele>
        <time>2011-12-30T10:08:23Z</time>
      </trkpt>
      <trkpt lat="11.54393" lon="42.83704">
        <ele>341.41</ele>
        <time>2011-12-30T10:08:24Z</time>
      </trkpt>
      <trkpt lat="11.54392" lon="42.83706">
        <ele>344.77</ele>
        <time>2011-12-30T10:08:26Z</time>
      </trkpt>
      <trkpt lat="11.54391" lon="42.83707">
        <ele>343.81</ele>
        <time>2011-12-30T10:08:27Z</time>
      </trkpt>
      <trkpt lat="11.54391" lon="42.83708">
        <ele>337.56</ele>
        <time>2011-12-30T10:08:28Z</time>
      </trkpt>
      <trkpt lat="11.5439" lon="42.83709">
        <ele>344.29</ele>
        <time>2011-12-30T10:08:29Z</time>
      </trkpt>
      <trkpt lat="11.54384" lon="42.83713">
        <ele>349.1</ele>
        <time>2011-12-30T10:08:38Z</time>
      </trkpt>
      <trkpt lat="11.54383" lon="42.83714">
        <ele>339</ele>
        <time>2011-12-30T10:08:39Z</time>
      </trkpt>
      <trkpt lat="11.54382" lon="42.83714">
        <ele>343.81</ele>
        <time>2011-12-30T10:08:40Z</time>
      </trkpt>
      <trkpt lat="11.54381" lon="42.83714">
        <ele>349.1</ele>
        <time>2011-12-30T10:08:41Z</time>
      </trkpt>
      <trkpt lat="11.5438" lon="42.83715">
        <ele>338.04</ele>
        <time>2011-12-30T10:08:42Z</time>
      </trkpt>
      <trkpt lat="11.54379" lon="42.83715">
        <ele>345.73</ele>
        <time>2011-12-30T10:08:43Z</time>
      </trkpt>
      <trkpt lat="11.54377" lon="42.83715">
        <ele>339.48</ele>
        <time>2011-12-30T10:08:45Z</time>
      </trkpt>
      <trkpt lat="11.54376" lon="42.83716">
        <ele>345.73</ele>
        <time>2011-12-30T10:08:46Z</time>
      </trkpt>
      <trkpt lat="11.54369" lon="42.83719">
        <ele>344.29</ele>
        <time>2011-12-30T10:08:56Z</time>
      </trkpt>
      <trkpt lat="11.54367" lon="42.83719">
        <ele>345.25</ele>
        <time>2011-12-30T10:08:58Z</time>
      </trkpt>
      <trkpt lat="11.54365" lon="42.8372">
        <ele>349.58</ele>
        <time>2011-12-30T10:09:00Z</time>
      </trkpt>
      <trkpt lat="11.54365" lon="42.8372">
        <ele>340.92</ele>
        <time>2011-12-30T10:09:01Z</time>
      </trkpt>
      <trkpt lat="11.54364" lon="42.83721">
        <ele>341.89</ele>
        <time>2011-12-30T10:09:02Z</time>
      </trkpt>
      <trkpt lat="11.54363" lon="42.83721">
        <ele>347.17</ele>
        <time>2011-12-30T10:09:03Z</time>
      </trkpt>
      <trkpt lat="11.54362" lon="42.83722">
        <ele>350.06</ele>
        <time>2011-12-30T10:09:04Z</time>
      </trkpt>
      <trkpt lat="11.5436" lon="42.83723">
        <ele>341.41</ele>
        <time>2011-12-30T10:09:06Z</time>
      </trkpt>
      <trkpt lat="11.54359" lon="42.83724">
        <ele>346.21</ele>
        <time>2011-12-30T10:09:07Z</time>
      </trkpt>
      <trkpt lat="11.54357" lon="42.83725">
        <ele>350.06</ele>
        <time>2011-12-30T10:09:09Z</time>
      </trkpt>
      <trkpt lat="11.54356" lon="42.83726">
        <ele>340.44</ele>
        <time>2011-12-30T10:09:10Z</time>
      </trkpt>
      <trkpt lat="11.54356" lon="42.83727">
        <ele>346.21</ele>
        <time>2011-12-30T10:09:11Z</time>
      </trkpt>
      <trkpt lat="11.54355" lon="42.83728">
        <ele>351.98</ele>
        <time>2011-12-30T10:09:12Z</time>
      </trkpt>
      <trkpt lat="11.54354" lon="42.83729">
        <ele>350.06</ele>
        <time>2011-12-30T10:09:13Z</time>
      </trkpt>
      <trkpt lat="11.54353" lon="42.83729">
        <ele>340.92</ele>
        <time>2011-12-30T10:09:14Z</time>
      </trkpt>
      <trkpt lat="11.54353" lon="42.8373">
        <ele>346.69</ele>
        <time>2011-12-30T10:09:15Z</time>
      </trkpt>
      <trkpt lat="11.54352" lon="42.83731">
        <ele>345.73</ele>
        <time>2011-12-30T10:09:17Z</time>
      </trkpt>
      <trkpt lat="11.5435" lon="42.83732">
        <ele>348.62</ele>
        <time>2011-12-30T10:09:19Z</time>
      </trkpt>
      <trkpt lat="11.54349" lon="42.83733">
        <ele>342.37</ele>
        <time>2011-12-30T10:09:21Z</time>
      </trkpt>
      <trkpt lat="11.54348" lon="42.83734">
        <ele>347.65</ele>
        <time>2011-12-30T10:09:22Z</time>
      </trkpt>
      <trkpt lat="11.54347" lon="42.83734">
        <ele>349.58</ele>
        <time>2011-12-30T10:09:23Z</time>
      </trkpt>
      <trkpt lat="11.54346" lon="42.83736">
        <ele>339</ele>
        <time>2011-12-30T10:09:25Z</time>
      </trkpt>
      <trkpt lat="11.54345" lon="42.83737">
        <ele>347.65</ele>
        <time>2011-12-30T10:09:26Z</time>
      </trkpt>
      <trkpt lat="11.54345" lon="42.83738">
        <ele>351.5</ele>
        <time>2011-12-30T10:09:27Z</time>
      </trkpt>
      <trkpt lat="11.54344" lon="42.83739">
        <ele>350.06</ele>
        <time>2011-12-30T10:09:28Z</time>
      </trkpt>
      <trkpt lat="11.54344" lon="42.83741">
        <ele>351.02</ele>
        <time>2011-12-30T10:09:31Z</time>
      </trkpt>
      <trkpt lat="11.54341" lon="42.83748">
        <ele>354.86</ele>
        <time>2011-12-30T10:09:37Z</time>
      </trkpt>
      <trkpt lat="11.54341" lon="42.83749">
        <ele>352.46</ele>
        <time>2011-12-30T10:09:38Z</time>
      </trkpt>
      <trkpt lat="11.54336" lon="42.83753">
        <ele>346.69</ele>
        <time>2011-12-30T10:09:44Z</time>
      </trkpt>
      <trkpt lat="11.54336" lon="42.83754">
        <ele>349.58</ele>
        <time>2011-12-30T10:09:45Z</time>
      </trkpt>
      <trkpt lat="11.54329" lon="42.83755">
        <ele>354.38</ele>
        <time>2011-12-30T10:09:51Z</time>
      </trkpt>
      <trkpt lat="11.54327" lon="42.83756">
        <ele>348.62</ele>
        <time>2011-12-30T10:09:54Z</time>
      </trkpt>
      <trkpt lat="11.54326" lon="42.83756">
        <ele>351.02</ele>
        <time>2011-12-30T10:09:55Z</time>
      </trkpt>
      <trkpt lat="11.54322" lon="42.83755">
        <ele>351.02</ele>
        <time>2011-12-30T10:09:58Z</time>
      </trkpt>
      <trkpt lat="11.5432" lon="42.83756">
        <ele>348.13</ele>
        <time>2011-12-30T10:10:00Z</time>
      </trkpt>
      <trkpt lat="11.54319" lon="42.83756">
        <ele>352.46</ele>
        <time>2011-12-30T10:10:01Z</time>
      </trkpt>
      <trkpt lat="11.54317" lon="42.83755">
        <ele>353.9</ele>
        <time>2011-12-30T10:10:03Z</time>
      </trkpt>
      <trkpt lat="11.54316" lon="42.83755">
        <ele>348.13</ele>
        <time>2011-12-30T10:10:04Z</time>
      </trkpt>
      <trkpt lat="11.54315" lon="42.83754">
        <ele>352.94</ele>
        <time>2011-12-30T10:10:05Z</time>
      </trkpt>
      <trkpt lat="11.54315" lon="42.83754">
        <ele>357.27</ele>
        <time>2011-12-30T10:10:06Z</time>
      </trkpt>
      <trkpt lat="11.54314" lon="42.83753">
        <ele>348.13</ele>
        <time>2011-12-30T10:10:07Z</time>
      </trkpt>
      <trkpt lat="11.54313" lon="42.83753">
        <ele>353.42</ele>
        <time>2011-12-30T10:10:08Z</time>
      </trkpt>
      <trkpt lat="11.54311" lon="42.83752">
        <ele>352.94</ele>
        <time>2011-12-30T10:10:10Z</time>
      </trkpt>
      <trkpt lat="11.54309" lon="42.83752">
        <ele>353.9</ele>
        <time>2011-12-30T10:10:12Z</time>
      </trkpt>
      <trkpt lat="11.54305" lon="42.83751">
        <ele>353.42</ele>
        <time>2011-12-30T10:10:17Z</time>
      </trkpt>
      <trkpt lat="11.54303" lon="42.8375">
        <ele>348.62</ele>
        <time>2011-12-30T10:10:19Z</time>
      </trkpt>
      <trkpt lat="11.54302" lon="42.83749">
        <ele>354.38</ele>
        <time>2011-12-30T10:10:20Z</time>
      </trkpt>
      <trkpt lat="11.54301" lon="42.83748">
        <ele>349.58</ele>
        <time>2011-12-30T10:10:22Z</time>
      </trkpt>
      <trkpt lat="11.543" lon="42.83748">
        <ele>355.83</ele>
        <time>2011-12-30T10:10:23Z</time>
      </trkpt>
      <trkpt lat="11.54298" lon="42.83745">
        <ele>350.06</ele>
        <time>2011-12-30T10:10:26Z</time>
      </trkpt>
      <trkpt lat="11.54297" lon="42.83744">
        <ele>355.34</ele>
        <time>2011-12-30T10:10:27Z</time>
      </trkpt>
      <trkpt lat="11.54296" lon="42.83743">
        <ele>350.06</ele>
        <time>2011-12-30T10:10:29Z</time>
      </trkpt>
      <trkpt lat="11.54295" lon="42.83743">
        <ele>353.42</ele>
        <time>2011-12-30T10:10:30Z</time>
      </trkpt>
      <trkpt lat="11.54293" lon="42.83744">
        <ele>352.46</ele>
        <time>2011-12-30T10:10:32Z</time>
      </trkpt>
      <trkpt lat="11.54291" lon="42.83744">
        <ele>356.31</ele>
        <time>2011-12-30T10:10:34Z</time>
      </trkpt>
      <trkpt lat="11.5429" lon="42.83744">
        <ele>351.98</ele>
        <time>2011-12-30T10:10:35Z</time>
      </trkpt>
      <trkpt lat="11.54289" lon="42.83744">
        <ele>355.34</ele>
        <time>2011-12-30T10:10:36Z</time>
      </trkpt>
      <trkpt lat="11.54287" lon="42.83741">
        <ele>351.98</ele>
        <time>2011-12-30T10:10:39Z</time>
      </trkpt>
      <trkpt lat="11.54287" lon="42.8374">
        <ele>356.31</ele>
        <time>2011-12-30T10:10:40Z</time>
      </trkpt>
      <trkpt lat="11.54285" lon="42.83737">
        <ele>357.75</ele>
        <time>2011-12-30T10:10:43Z</time>
      </trkpt>
      <trkpt lat="11.54284" lon="42.83735">
        <ele>357.27</ele>
        <time>2011-12-30T10:10:46Z</time>
      </trkpt>
      <trkpt lat="11.54282" lon="42.83734">
        <ele>359.19</ele>
        <time>2011-12-30T10:10:48Z</time>
      </trkpt>
      <trkpt lat="11.54279" lon="42.83731">
        <ele>361.59</ele>
        <time>2011-12-30T10:10:52Z</time>
      </trkpt>
      <trkpt lat="11.54275" lon="42.83728">
        <ele>353.9</ele>
        <time>2011-12-30T10:10:57Z</time>
      </trkpt>
      <trkpt lat="11.54274" lon="42.83726">
        <ele>360.63</ele>
        <time>2011-12-30T10:10:59Z</time>
      </trkpt>
      <trkpt lat="11.54273" lon="42.83725">
        <ele>357.27</ele>
        <time>2011-12-30T10:11:00Z</time>
      </trkpt>
      <trkpt lat="11.54271" lon="42.83723">
        <ele>362.07</ele>
        <time>2011-12-30T10:11:03Z</time>
      </trkpt>
      <trkpt lat="11.5427" lon="42.83723">
        <ele>353.42</ele>
        <time>2011-12-30T10:11:04Z</time>
      </trkpt>
      <trkpt lat="11.54269" lon="42.83723">
        <ele>357.27</ele>
        <time>2011-12-30T10:11:05Z</time>
      </trkpt>
      <trkpt lat="11.54269" lon="42.83722">
        <ele>363.04</ele>
        <time>2011-12-30T10:11:06Z</time>
      </trkpt>
      <trkpt lat="11.54268" lon="42.83721">
        <ele>354.38</ele>
        <time>2011-12-30T10:11:07Z</time>
      </trkpt>
      <trkpt lat="11.54267" lon="42.83719">
        <ele>359.19</ele>
        <time>2011-12-30T10:11:10Z</time>
      </trkpt>
      <trkpt lat="11.54266" lon="42.83719">
        <ele>355.83</ele>
        <time>2011-12-30T10:11:11Z</time>
      </trkpt>
      <trkpt lat="11.54266" lon="42.83718">
        <ele>361.11</ele>
        <time>2011-12-30T10:11:12Z</time>
      </trkpt>
      <trkpt lat="11.54264" lon="42.83717">
        <ele>360.63</ele>
        <time>2011-12-30T10:11:15Z</time>
      </trkpt>
      <trkpt lat="11.54261" lon="42.83714">
        <ele>354.38</ele>
        <time>2011-12-30T10:11:21Z</time>
      </trkpt>
      <trkpt lat="11.54261" lon="42.83714">
        <ele>360.15</ele>
        <time>2011-12-30T10:11:22Z</time>
      </trkpt>
      <trkpt lat="11.54259" lon="42.83712">
        <ele>354.86</ele>
        <time>2011-12-30T10:11:24Z</time>
      </trkpt>
      <trkpt lat="11.54258" lon="42.83712">
        <ele>359.67</ele>
        <time>2011-12-30T10:11:25Z</time>
      </trkpt>
      <trkpt lat="11.54257" lon="42.83711">
        <ele>363.52</ele>
        <time>2011-12-30T10:11:27Z</time>
      </trkpt>
      <trkpt lat="11.54256" lon="42.8371">
        <ele>360.63</ele>
        <time>2011-12-30T10:11:29Z</time>
      </trkpt>
      <trkpt lat="11.54255" lon="42.83709">
        <ele>361.11</ele>
        <time>2011-12-30T10:11:31Z</time>
      </trkpt>
      <trkpt lat="11.54254" lon="42.83708">
        <ele>361.59</ele>
        <time>2011-12-30T10:11:38Z</time>
      </trkpt>
      <trkpt lat="11.54245" lon="42.83705">
        <ele>361.59</ele>
        <time>2011-12-30T10:11:47Z</time>
      </trkpt>
      <trkpt lat="11.54238" lon="42.83704">
        <ele>362.55</ele>
        <time>2011-12-30T10:11:55Z</time>
      </trkpt>
      <trkpt lat="11.54235" lon="42.83705">
        <ele>360.63</ele>
        <time>2011-12-30T10:11:58Z</time>
      </trkpt>
      <trkpt lat="11.54234" lon="42.83706">
        <ele>362.55</ele>
        <time>2011-12-30T10:12:00Z</time>
      </trkpt>
      <trkpt lat="11.54227" lon="42.83703">
        <ele>364.96</ele>
        <time>2011-12-30T10:12:09Z</time>
      </trkpt>
      <trkpt lat="11.54222" lon="42.83702">
        <ele>365.92</ele>
        <time>2011-12-30T10:12:15Z</time>
      </trkpt>
      <trkpt lat="11.5422" lon="42.83701">
        <ele>360.15</ele>
        <time>2011-12-30T10:12:17Z</time>
      </trkpt>
      <trkpt lat="11.5422" lon="42.83701">
        <ele>363.04</ele>
        <time>2011-12-30T10:12:18Z</time>
      </trkpt>
      <trkpt lat="11.54219" lon="42.83701">
        <ele>366.4</ele>
        <time>2011-12-30T10:12:19Z</time>
      </trkpt>
      <trkpt lat="11.54218" lon="42.837">
        <ele>365.44</ele>
        <time>2011-12-30T10:12:20Z</time>
      </trkpt>
      <trkpt lat="11.54217" lon="42.837">
        <ele>360.63</ele>
        <time>2011-12-30T10:12:21Z</time>
      </trkpt>
      <trkpt lat="11.54217" lon="42.837">
        <ele>365.44</ele>
        <time>2011-12-30T10:12:22Z</time>
      </trkpt>
      <trkpt lat="11.54216" lon="42.837">
        <ele>366.4</ele>
        <time>2011-12-30T10:12:23Z</time>
      </trkpt>
      <trkpt lat="11.54215" lon="42.837">
        <ele>358.71</ele>
        <time>2011-12-30T10:12:25Z</time>
      </trkpt>
      <trkpt lat="11.54214" lon="42.83701">
        <ele>363.04</ele>
        <time>2011-12-30T10:12:26Z</time>
      </trkpt>
      <trkpt lat="11.54213" lon="42.83701">
        <ele>366.4</ele>
        <time>2011-12-30T10:12:27Z</time>
      </trkpt>
      <trkpt lat="11.5421" lon="42.83701">
        <ele>361.59</ele>
        <time>2011-12-30T10:12:30Z</time>
      </trkpt>
      <trkpt lat="11.54209" lon="42.83701">
        <ele>366.4</ele>
        <time>2011-12-30T10:12:31Z</time>
      </trkpt>
      <trkpt lat="11.54207" lon="42.83701">
        <ele>367.36</ele>
        <time>2011-12-30T10:12:33Z</time>
      </trkpt>
      <trkpt lat="11.54207" lon="42.83701">
        <ele>361.59</ele>
        <time>2011-12-30T10:12:34Z</time>
      </trkpt>
      <trkpt lat="11.54206" lon="42.83702">
        <ele>366.88</ele>
        <time>2011-12-30T10:12:35Z</time>
      </trkpt>
      <trkpt lat="11.54205" lon="42.83702">
        <ele>368.32</ele>
        <time>2011-12-30T10:12:36Z</time>
      </trkpt>
      <trkpt lat="11.54202" lon="42.83703">
        <ele>368.8</ele>
        <time>2011-12-30T10:12:40Z</time>
      </trkpt>
      <trkpt lat="11.54195" lon="42.83702">
        <ele>369.76</ele>
        <time>2011-12-30T10:12:46Z</time>
      </trkpt>
      <trkpt lat="11.54192" lon="42.83699">
        <ele>364</ele>
        <time>2011-12-30T10:12:50Z</time>
      </trkpt>
      <trkpt lat="11.54192" lon="42.83698">
        <ele>367.84</ele>
        <time>2011-12-30T10:12:51Z</time>
      </trkpt>
      <trkpt lat="11.54191" lon="42.83696">
        <ele>359.67</ele>
        <time>2011-12-30T10:12:53Z</time>
      </trkpt>
      <trkpt lat="11.54191" lon="42.83696">
        <ele>374.09</ele>
        <time>2011-12-30T10:12:54Z</time>
      </trkpt>
      <trkpt lat="11.5419" lon="42.83693">
        <ele>371.21</ele>
        <time>2011-12-30T10:12:57Z</time>
      </trkpt>
      <trkpt lat="11.54185" lon="42.83691">
        <ele>373.61</ele>
        <time>2011-12-30T10:13:02Z</time>
      </trkpt>
      <trkpt lat="11.54185" lon="42.83691">
        <ele>364.48</ele>
        <time>2011-12-30T10:13:03Z</time>
      </trkpt>
      <trkpt lat="11.54184" lon="42.8369">
        <ele>369.76</ele>
        <time>2011-12-30T10:13:04Z</time>
      </trkpt>
      <trkpt lat="11.54183" lon="42.8369">
        <ele>374.57</ele>
        <time>2011-12-30T10:13:05Z</time>
      </trkpt>
      <trkpt lat="11.54183" lon="42.83689">
        <ele>364.48</ele>
        <time>2011-12-30T10:13:06Z</time>
      </trkpt>
      <trkpt lat="11.54182" lon="42.83689">
        <ele>370.73</ele>
        <time>2011-12-30T10:13:07Z</time>
      </trkpt>
      <trkpt lat="11.54181" lon="42.83686">
        <ele>365.44</ele>
        <time>2011-12-30T10:13:09Z</time>
      </trkpt>
      <trkpt lat="11.54177" lon="42.83686">
        <ele>375.53</ele>
        <time>2011-12-30T10:13:13Z</time>
      </trkpt>
      <trkpt lat="11.54175" lon="42.83685">
        <ele>371.69</ele>
        <time>2011-12-30T10:13:15Z</time>
      </trkpt>
      <trkpt lat="11.54172" lon="42.83684">
        <ele>365.92</ele>
        <time>2011-12-30T10:13:19Z</time>
      </trkpt>
      <trkpt lat="11.54171" lon="42.83683">
        <ele>372.65</ele>
        <time>2011-12-30T10:13:20Z</time>
      </trkpt>
      <trkpt lat="11.54167" lon="42.83682">
        <ele>374.57</ele>
        <time>2011-12-30T10:13:24Z</time>
      </trkpt>
      <trkpt lat="11.54161" lon="42.83678">
        <ele>372.65</ele>
        <time>2011-12-30T10:13:31Z</time>
      </trkpt>
      <trkpt lat="11.54159" lon="42.83678">
        <ele>369.28</ele>
        <time>2011-12-30T10:13:33Z</time>
      </trkpt>
      <trkpt lat="11.54158" lon="42.83678">
        <ele>369.28</ele>
        <time>2011-12-30T10:13:34Z</time>
      </trkpt>
      <trkpt lat="11.54157" lon="42.83678">
        <ele>375.53</ele>
        <time>2011-12-30T10:13:35Z</time>
      </trkpt>
      <trkpt lat="11.54156" lon="42.83678">
        <ele>369.76</ele>
        <time>2011-12-30T10:13:36Z</time>
      </trkpt>
      <trkpt lat="11.54155" lon="42.83678">
        <ele>374.09</ele>
        <time>2011-12-30T10:13:37Z</time>
      </trkpt>
      <trkpt lat="11.54152" lon="42.83678">
        <ele>378.9</ele>
        <time>2011-12-30T10:13:40Z</time>
      </trkpt>
      <trkpt lat="11.5415" lon="42.83679">
        <ele>374.09</ele>
        <time>2011-12-30T10:13:43Z</time>
      </trkpt>
      <trkpt lat="11.54149" lon="42.83679">
        <ele>375.05</ele>
        <time>2011-12-30T10:13:44Z</time>
      </trkpt>
      <trkpt lat="11.54147" lon="42.83682">
        <ele>376.01</ele>
        <time>2011-12-30T10:13:50Z</time>
      </trkpt>
      <trkpt lat="11.54146" lon="42.83683">
        <ele>371.21</ele>
        <time>2011-12-30T10:13:51Z</time>
      </trkpt>
      <trkpt lat="11.54145" lon="42.83684">
        <ele>370.73</ele>
        <time>2011-12-30T10:13:53Z</time>
      </trkpt>
      <trkpt lat="11.54145" lon="42.83685">
        <ele>376.49</ele>
        <time>2011-12-30T10:13:54Z</time>
      </trkpt>
      <trkpt lat="11.54144" lon="42.83686">
        <ele>380.34</ele>
        <time>2011-12-30T10:13:56Z</time>
      </trkpt>
      <trkpt lat="11.54143" lon="42.83687">
        <ele>372.17</ele>
        <time>2011-12-30T10:13:57Z</time>
      </trkpt>
      <trkpt lat="11.54142" lon="42.83687">
        <ele>378.42</ele>
        <time>2011-12-30T10:13:58Z</time>
      </trkpt>
      <trkpt lat="11.54142" lon="42.83688">
        <ele>371.69</ele>
        <time>2011-12-30T10:13:59Z</time>
      </trkpt>
      <trkpt lat="11.54141" lon="42.83688">
        <ele>378.42</ele>
        <time>2011-12-30T10:14:00Z</time>
      </trkpt>
      <trkpt lat="11.5414" lon="42.83688">
        <ele>378.9</ele>
        <time>2011-12-30T10:14:02Z</time>
      </trkpt>
      <trkpt lat="11.54138" lon="42.8369">
        <ele>374.09</ele>
        <time>2011-12-30T10:14:06Z</time>
      </trkpt>
      <trkpt lat="11.54138" lon="42.83691">
        <ele>380.34</ele>
        <time>2011-12-30T10:14:07Z</time>
      </trkpt>
      <trkpt lat="11.54138" lon="42.83691">
        <ele>374.57</ele>
        <time>2011-12-30T10:14:08Z</time>
      </trkpt>
      <trkpt lat="11.54138" lon="42.83691">
        <ele>378.9</ele>
        <time>2011-12-30T10:14:09Z</time>
      </trkpt>
      <trkpt lat="11.54133" lon="42.83691">
        <ele>373.61</ele>
        <time>2011-12-30T10:14:14Z</time>
      </trkpt>
      <trkpt lat="11.54132" lon="42.83691">
        <ele>382.26</ele>
        <time>2011-12-30T10:14:15Z</time>
      </trkpt>
      <trkpt lat="11.54131" lon="42.83691">
        <ele>376.01</ele>
        <time>2011-12-30T10:14:16Z</time>
      </trkpt>
      <trkpt lat="11.54131" lon="42.83691">
        <ele>378.9</ele>
        <time>2011-12-30T10:14:17Z</time>
      </trkpt>
      <trkpt lat="11.54128" lon="42.8369">
        <ele>379.86</ele>
        <time>2011-12-30T10:14:19Z</time>
      </trkpt>
      <trkpt lat="11.54125" lon="42.83689">
        <ele>378.42</ele>
        <time>2011-12-30T10:14:22Z</time>
      </trkpt>
      <trkpt lat="11.54123" lon="42.83688">
        <ele>381.78</ele>
        <time>2011-12-30T10:14:26Z</time>
      </trkpt>
      <trkpt lat="11.54122" lon="42.83688">
        <ele>377.45</ele>
        <time>2011-12-30T10:14:27Z</time>
      </trkpt>
      <trkpt lat="11.54122" lon="42.83688">
        <ele>381.78</ele>
        <time>2011-12-30T10:14:28Z</time>
      </trkpt>
      <trkpt lat="11.54122" lon="42.83688">
        <ele>373.13</ele>
        <time>2011-12-30T10:14:29Z</time>
      </trkpt>
      <trkpt lat="11.54122" lon="42.83688">
        <ele>381.78</ele>
        <time>2011-12-30T10:14:30Z</time>
      </trkpt>
      <trkpt lat="11.54121" lon="42.83688">
        <ele>386.59</ele>
        <time>2011-12-30T10:14:32Z</time>
      </trkpt>
      <trkpt lat="11.54121" lon="42.83689">
        <ele>384.18</ele>
        <time>2011-12-30T10:14:33Z</time>
      </trkpt>
      <trkpt lat="11.5412" lon="42.8369">
        <ele>376.49</ele>
        <time>2011-12-30T10:14:35Z</time>
      </trkpt>
      <trkpt lat="11.54119" lon="42.8369">
        <ele>384.18</ele>
        <time>2011-12-30T10:14:36Z</time>
      </trkpt>
      <trkpt lat="11.54119" lon="42.83691">
        <ele>378.42</ele>
        <time>2011-12-30T10:14:37Z</time>
      </trkpt>
      <trkpt lat="11.54118" lon="42.83691">
        <ele>384.66</ele>
        <time>2011-12-30T10:14:38Z</time>
      </trkpt>
      <trkpt lat="11.54118" lon="42.83691">
        <ele>373.61</ele>
        <time>2011-12-30T10:14:39Z</time>
      </trkpt>
      <trkpt lat="11.54117" lon="42.83692">
        <ele>382.74</ele>
        <time>2011-12-30T10:14:40Z</time>
      </trkpt>
      <trkpt lat="11.54117" lon="42.83692">
        <ele>385.63</ele>
        <time>2011-12-30T10:14:41Z</time>
      </trkpt>
      <trkpt lat="11.54117" lon="42.83693">
        <ele>384.66</ele>
        <time>2011-12-30T10:14:42Z</time>
      </trkpt>
      <trkpt lat="11.54116" lon="42.83694">
        <ele>378.9</ele>
        <time>2011-12-30T10:14:44Z</time>
      </trkpt>
      <trkpt lat="11.54116" lon="42.83694">
        <ele>385.15</ele>
        <time>2011-12-30T10:14:45Z</time>
      </trkpt>
      <trkpt lat="11.54115" lon="42.83694">
        <ele>376.97</ele>
        <time>2011-12-30T10:14:46Z</time>
      </trkpt>
      <trkpt lat="11.54114" lon="42.83695">
        <ele>387.07</ele>
        <time>2011-12-30T10:14:48Z</time>
      </trkpt>
      <trkpt lat="11.54113" lon="42.83695">
        <ele>374.09</ele>
        <time>2011-12-30T10:14:49Z</time>
      </trkpt>
      <trkpt lat="11.54113" lon="42.83696">
        <ele>386.11</ele>
        <time>2011-12-30T10:14:50Z</time>
      </trkpt>
      <trkpt lat="11.54113" lon="42.83696">
        <ele>381.3</ele>
        <time>2011-12-30T10:14:51Z</time>
      </trkpt>
      <trkpt lat="11.54112" lon="42.83697">
        <ele>385.63</ele>
        <time>2011-12-30T10:14:52Z</time>
      </trkpt>
      <trkpt lat="11.54112" lon="42.83698">
        <ele>381.78</ele>
        <time>2011-12-30T10:14:56Z</time>
      </trkpt>
      <trkpt lat="11.54112" lon="42.83698">
        <ele>386.59</ele>
        <time>2011-12-30T10:14:57Z</time>
      </trkpt>
      <trkpt lat="11.54112" lon="42.83699">
        <ele>386.59</ele>
        <time>2011-12-30T10:14:58Z</time>
      </trkpt>
      <trkpt lat="11.54112" lon="42.83699">
        <ele>383.22</ele>
        <time>2011-12-30T10:14:59Z</time>
      </trkpt>
      <trkpt lat="11.54112" lon="42.83699">
        <ele>387.55</ele>
        <time>2011-12-30T10:15:00Z</time>
      </trkpt>
      <trkpt lat="11.54111" lon="42.837">
        <ele>380.34</ele>
        <time>2011-12-30T10:15:02Z</time>
      </trkpt>
      <trkpt lat="11.54111" lon="42.837">
        <ele>388.03</ele>
        <time>2011-12-30T10:15:03Z</time>
      </trkpt>
      <trkpt lat="11.54107" lon="42.83699">
        <ele>381.78</ele>
        <time>2011-12-30T10:15:12Z</time>
      </trkpt>
      <trkpt lat="11.54107" lon="42.83699">
        <ele>388.51</ele>
        <time>2011-12-30T10:15:13Z</time>
      </trkpt>
      <trkpt lat="11.54106" lon="42.83698">
        <ele>394.28</ele>
        <time>2011-12-30T10:15:16Z</time>
      </trkpt>
      <trkpt lat="11.54106" lon="42.83698">
        <ele>390.91</ele>
        <time>2011-12-30T10:15:17Z</time>
      </trkpt>
      <trkpt lat="11.54105" lon="42.83698">
        <ele>389.47</ele>
        <time>2011-12-30T10:15:18Z</time>
      </trkpt>
      <trkpt lat="11.54103" lon="42.83697">
        <ele>389.47</ele>
        <time>2011-12-30T10:15:27Z</time>
      </trkpt>
      <trkpt lat="11.54102" lon="42.83696">
        <ele>389.47</ele>
        <time>2011-12-30T10:15:39Z</time>
      </trkpt>
      <trkpt lat="11.54099" lon="42.83696">
        <ele>386.11</ele>
        <time>2011-12-30T10:15:42Z</time>
      </trkpt>
      <trkpt lat="11.54094" lon="42.83695">
        <ele>386.11</ele>
        <time>2011-12-30T10:15:48Z</time>
      </trkpt>
      <trkpt lat="11.54093" lon="42.83695">
        <ele>387.07</ele>
        <time>2011-12-30T10:15:49Z</time>
      </trkpt>
      <trkpt lat="11.54092" lon="42.83695">
        <ele>391.87</ele>
        <time>2011-12-30T10:15:51Z</time>
      </trkpt>
      <trkpt lat="11.54086" lon="42.83695">
        <ele>392.36</ele>
        <time>2011-12-30T10:15:56Z</time>
      </trkpt>
      <trkpt lat="11.54085" lon="42.83696">
        <ele>391.87</ele>
        <time>2011-12-30T10:15:58Z</time>
      </trkpt>
      <trkpt lat="11.5408" lon="42.83698">
        <ele>392.36</ele>
        <time>2011-12-30T10:16:15Z</time>
      </trkpt>
      <trkpt lat="11.54075" lon="42.83694">
        <ele>394.28</ele>
        <time>2011-12-30T10:16:23Z</time>
      </trkpt>
      <trkpt lat="11.54075" lon="42.83694">
        <ele>388.51</ele>
        <time>2011-12-30T10:16:51Z</time>
      </trkpt>
      <trkpt lat="11.54074" lon="42.83693">
        <ele>401.49</ele>
        <time>2011-12-30T10:16:52Z</time>
      </trkpt>
      <trkpt lat="11.5407" lon="42.83693">
        <ele>390.91</ele>
        <time>2011-12-30T10:16:55Z</time>
      </trkpt>
      <trkpt lat="11.5407" lon="42.83693">
        <ele>395.24</ele>
        <time>2011-12-30T10:16:56Z</time>
      </trkpt>
      <trkpt lat="11.54068" lon="42.83693">
        <ele>399.08</ele>
        <time>2011-12-30T10:16:58Z</time>
      </trkpt>
      <trkpt lat="11.54062" lon="42.83691">
        <ele>399.08</ele>
        <time>2011-12-30T10:17:14Z</time>
      </trkpt>
      <trkpt lat="11.54064" lon="42.83692">
        <ele>398.12</ele>
        <time>2011-12-30T10:17:18Z</time>
      </trkpt>
      <trkpt lat="11.5407" lon="42.83699">
        <ele>394.76</ele>
        <time>2011-12-30T10:17:30Z</time>
      </trkpt>
      <trkpt lat="11.54065" lon="42.837">
        <ele>389.95</ele>
        <time>2011-12-30T10:17:42Z</time>
      </trkpt>
      <trkpt lat="11.54065" lon="42.837">
        <ele>394.76</ele>
        <time>2011-12-30T10:17:43Z</time>
      </trkpt>
      <trkpt lat="11.54065" lon="42.83701">
        <ele>395.72</ele>
        <time>2011-12-30T10:17:44Z</time>
      </trkpt>
      <trkpt lat="11.54063" lon="42.83704">
        <ele>394.76</ele>
        <time>2011-12-30T10:17:47Z</time>
      </trkpt>
      <trkpt lat="11.54061" lon="42.83709">
        <ele>396.68</ele>
        <time>2011-12-30T10:17:52Z</time>
      </trkpt>
      <trkpt lat="11.5406" lon="42.83711">
        <ele>402.45</ele>
        <time>2011-12-30T10:17:54Z</time>
      </trkpt>
      <trkpt lat="11.54059" lon="42.83712">
        <ele>400.53</ele>
        <time>2011-12-30T10:17:55Z</time>
      </trkpt>
      <trkpt lat="11.54056" lon="42.83713">
        <ele>390.43</ele>
        <time>2011-12-30T10:18:01Z</time>
      </trkpt>
      <trkpt lat="11.54056" lon="42.83713">
        <ele>401.49</ele>
        <time>2011-12-30T10:18:02Z</time>
      </trkpt>
      <trkpt lat="11.54056" lon="42.83713">
        <ele>401.49</ele>
        <time>2011-12-30T10:18:03Z</time>
      </trkpt>
      <trkpt lat="11.54055" lon="42.83714">
        <ele>396.68</ele>
        <time>2011-12-30T10:18:04Z</time>
      </trkpt>
      <trkpt lat="11.54055" lon="42.83714">
        <ele>400.53</ele>
        <time>2011-12-30T10:18:05Z</time>
      </trkpt>
      <trkpt lat="11.54053" lon="42.83714">
        <ele>402.93</ele>
        <time>2011-12-30T10:18:08Z</time>
      </trkpt>
      <trkpt lat="11.54053" lon="42.83714">
        <ele>397.16</ele>
        <time>2011-12-30T10:18:10Z</time>
      </trkpt>
      <trkpt lat="11.54052" lon="42.83715">
        <ele>400.53</ele>
        <time>2011-12-30T10:18:11Z</time>
      </trkpt>
      <trkpt lat="11.54052" lon="42.83715">
        <ele>403.89</ele>
        <time>2011-12-30T10:18:12Z</time>
      </trkpt>
      <trkpt lat="11.54052" lon="42.83716">
        <ele>404.37</ele>
        <time>2011-12-30T10:18:13Z</time>
      </trkpt>
      <trkpt lat="11.54051" lon="42.83717">
        <ele>404.85</ele>
        <time>2011-12-30T10:18:16Z</time>
      </trkpt>
      <trkpt lat="11.54053" lon="42.83719">
        <ele>399.57</ele>
        <time>2011-12-30T10:18:22Z</time>
      </trkpt>
      <trkpt lat="11.54054" lon="42.8372">
        <ele>404.85</ele>
        <time>2011-12-30T10:18:23Z</time>
      </trkpt>
      <trkpt lat="11.54055" lon="42.83721">
        <ele>401.49</ele>
        <time>2011-12-30T10:18:26Z</time>
      </trkpt>
      <trkpt lat="11.54055" lon="42.83721">
        <ele>405.81</ele>
        <time>2011-12-30T10:18:27Z</time>
      </trkpt>
      <trkpt lat="11.54056" lon="42.83722">
        <ele>410.14</ele>
        <time>2011-12-30T10:18:29Z</time>
      </trkpt>
      <trkpt lat="11.54056" lon="42.83722">
        <ele>408.22</ele>
        <time>2011-12-30T10:18:30Z</time>
      </trkpt>
      <trkpt lat="11.54058" lon="42.83722">
        <ele>403.89</ele>
        <time>2011-12-30T10:18:32Z</time>
      </trkpt>
      <trkpt lat="11.54059" lon="42.83722">
        <ele>407.74</ele>
        <time>2011-12-30T10:18:33Z</time>
      </trkpt>
      <trkpt lat="11.54062" lon="42.83723">
        <ele>403.41</ele>
        <time>2011-12-30T10:18:35Z</time>
      </trkpt>
      <trkpt lat="11.54063" lon="42.83724">
        <ele>406.77</ele>
        <time>2011-12-30T10:18:36Z</time>
      </trkpt>
      <trkpt lat="11.54065" lon="42.83725">
        <ele>401.01</ele>
        <time>2011-12-30T10:18:39Z</time>
      </trkpt>
      <trkpt lat="11.54065" lon="42.83725">
        <ele>407.74</ele>
        <time>2011-12-30T10:18:40Z</time>
      </trkpt>
      <trkpt lat="11.54068" lon="42.83726">
        <ele>408.22</ele>
        <time>2011-12-30T10:18:42Z</time>
      </trkpt>
      <trkpt lat="11.54072" lon="42.83727">
        <ele>404.85</ele>
        <time>2011-12-30T10:18:56Z</time>
      </trkpt>
      <trkpt lat="11.54073" lon="42.83727">
        <ele>408.7</ele>
        <time>2011-12-30T10:18:57Z</time>
      </trkpt>
      <trkpt lat="11.54079" lon="42.83728">
        <ele>408.22</ele>
        <time>2011-12-30T10:19:03Z</time>
      </trkpt>
      <trkpt lat="11.54082" lon="42.83731">
        <ele>401.97</ele>
        <time>2011-12-30T10:19:06Z</time>
      </trkpt>
      <trkpt lat="11.54084" lon="42.83734">
        <ele>407.26</ele>
        <time>2011-12-30T10:19:09Z</time>
      </trkpt>
      <trkpt lat="11.54085" lon="42.83736">
        <ele>409.18</ele>
        <time>2011-12-30T10:19:11Z</time>
      </trkpt>
      <trkpt lat="11.54088" lon="42.83742">
        <ele>403.41</ele>
        <time>2011-12-30T10:19:16Z</time>
      </trkpt>
      <trkpt lat="11.54088" lon="42.83743">
        <ele>405.33</ele>
        <time>2011-12-30T10:19:17Z</time>
      </trkpt>
      <trkpt lat="11.54091" lon="42.83746">
        <ele>408.7</ele>
        <time>2011-12-30T10:19:20Z</time>
      </trkpt>
      <trkpt lat="11.54093" lon="42.83755">
        <ele>411.1</ele>
        <time>2011-12-30T10:19:29Z</time>
      </trkpt>
      <trkpt lat="11.54093" lon="42.83756">
        <ele>407.74</ele>
        <time>2011-12-30T10:19:30Z</time>
      </trkpt>
      <trkpt lat="11.54094" lon="42.8376">
        <ele>407.74</ele>
        <time>2011-12-30T10:19:36Z</time>
      </trkpt>
      <trkpt lat="11.54095" lon="42.83759">
        <ele>403.89</ele>
        <time>2011-12-30T10:19:41Z</time>
      </trkpt>
      <trkpt lat="11.54095" lon="42.83759">
        <ele>406.77</ele>
        <time>2011-12-30T10:19:42Z</time>
      </trkpt>
      <trkpt lat="11.54095" lon="42.8376">
        <ele>402.45</ele>
        <time>2011-12-30T10:19:47Z</time>
      </trkpt>
      <trkpt lat="11.54094" lon="42.83761">
        <ele>407.26</ele>
        <time>2011-12-30T10:19:49Z</time>
      </trkpt>
      <trkpt lat="11.54093" lon="42.83762">
        <ele>399.08</ele>
        <time>2011-12-30T10:19:52Z</time>
      </trkpt>
      <trkpt lat="11.54093" lon="42.83762">
        <ele>386.11</ele>
        <time>2011-12-30T10:19:53Z</time>
      </trkpt>
      <trkpt lat="11.54093" lon="42.83762">
        <ele>389.47</ele>
        <time>2011-12-30T10:19:54Z</time>
      </trkpt>
      <trkpt lat="11.54093" lon="42.83762">
        <ele>424.08</ele>
        <time>2011-12-30T10:19:55Z</time>
      </trkpt>
      <trkpt lat="11.54093" lon="42.83762">
        <ele>415.91</ele>
        <time>2011-12-30T10:19:56Z</time>
      </trkpt>
      <trkpt lat="11.54093" lon="42.83762">
        <ele>407.74</ele>
        <time>2011-12-30T10:19:57Z</time>
      </trkpt>
      <trkpt lat="11.54093" lon="42.83763">
        <ele>413.02</ele>
        <time>2011-12-30T10:19:58Z</time>
      </trkpt>
      <trkpt lat="11.54093" lon="42.83764">
        <ele>406.29</ele>
        <time>2011-12-30T10:19:59Z</time>
      </trkpt>
      <trkpt lat="11.54093" lon="42.83764">
        <ele>411.1</ele>
        <time>2011-12-30T10:20:01Z</time>
      </trkpt>
      <trkpt lat="11.54093" lon="42.83765">
        <ele>411.58</ele>
        <time>2011-12-30T10:20:02Z</time>
      </trkpt>
      <trkpt lat="11.54093" lon="42.83765">
        <ele>409.66</ele>
        <time>2011-12-30T10:20:07Z</time>
      </trkpt>
      <trkpt lat="11.54092" lon="42.83767">
        <ele>413.02</ele>
        <time>2011-12-30T10:20:09Z</time>
      </trkpt>
      <trkpt lat="11.54092" lon="42.83768">
        <ele>406.77</ele>
        <time>2011-12-30T10:20:10Z</time>
      </trkpt>
      <trkpt lat="11.54092" lon="42.83768">
        <ele>412.54</ele>
        <time>2011-12-30T10:20:11Z</time>
      </trkpt>
      <trkpt lat="11.54093" lon="42.83773">
        <ele>414.47</ele>
        <time>2011-12-30T10:20:23Z</time>
      </trkpt>
      <trkpt lat="11.5409" lon="42.83766">
        <ele>411.1</ele>
        <time>2011-12-30T10:21:47Z</time>
      </trkpt>
      <trkpt lat="11.54092" lon="42.8376">
        <ele>409.66</ele>
        <time>2011-12-30T10:21:58Z</time>
      </trkpt>
      <trkpt lat="11.54092" lon="42.83759">
        <ele>409.18</ele>
        <time>2011-12-30T10:22:00Z</time>
      </trkpt>
      <trkpt lat="11.54093" lon="42.83754">
        <ele>401.97</ele>
        <time>2011-12-30T10:22:04Z</time>
      </trkpt>
      <trkpt lat="11.54093" lon="42.83753">
        <ele>405.33</ele>
        <time>2011-12-30T10:22:05Z</time>
      </trkpt>
      <trkpt lat="11.54094" lon="42.83751">
        <ele>409.18</ele>
        <time>2011-12-30T10:22:06Z</time>
      </trkpt>
      <trkpt lat="11.54094" lon="42.8375">
        <ele>410.62</ele>
        <time>2011-12-30T10:22:07Z</time>
      </trkpt>
      <trkpt lat="11.5409" lon="42.83743">
        <ele>408.22</ele>
        <time>2011-12-30T10:22:14Z</time>
      </trkpt>
      <trkpt lat="11.54087" lon="42.83736">
        <ele>408.22</ele>
        <time>2011-12-30T10:22:20Z</time>
      </trkpt>
      <trkpt lat="11.54084" lon="42.83731">
        <ele>404.37</ele>
        <time>2011-12-30T10:22:24Z</time>
      </trkpt>
      <trkpt lat="11.54083" lon="42.8373">
        <ele>405.33</ele>
        <time>2011-12-30T10:22:25Z</time>
      </trkpt>
      <trkpt lat="11.54082" lon="42.8373">
        <ele>407.74</ele>
        <time>2011-12-30T10:22:27Z</time>
      </trkpt>
      <trkpt lat="11.5408" lon="42.83728">
        <ele>410.62</ele>
        <time>2011-12-30T10:22:29Z</time>
      </trkpt>
      <trkpt lat="11.54078" lon="42.83727">
        <ele>408.22</ele>
        <time>2011-12-30T10:22:32Z</time>
      </trkpt>
      <trkpt lat="11.54076" lon="42.83727">
        <ele>407.26</ele>
        <time>2011-12-30T10:22:34Z</time>
      </trkpt>
      <trkpt lat="11.54069" lon="42.83725">
        <ele>405.81</ele>
        <time>2011-12-30T10:22:41Z</time>
      </trkpt>
      <trkpt lat="11.54056" lon="42.83721">
        <ele>406.29</ele>
        <time>2011-12-30T10:22:52Z</time>
      </trkpt>
      <trkpt lat="11.54053" lon="42.8372">
        <ele>404.37</ele>
        <time>2011-12-30T10:22:55Z</time>
      </trkpt>
      <trkpt lat="11.54048" lon="42.83717">
        <ele>403.41</ele>
        <time>2011-12-30T10:23:12Z</time>
      </trkpt>
      <trkpt lat="11.54045" lon="42.83717">
        <ele>402.93</ele>
        <time>2011-12-30T10:23:15Z</time>
      </trkpt>
      <trkpt lat="11.54044" lon="42.83713">
        <ele>405.81</ele>
        <time>2011-12-30T10:23:17Z</time>
      </trkpt>
      <trkpt lat="11.54044" lon="42.8371">
        <ele>402.45</ele>
        <time>2011-12-30T10:23:18Z</time>
      </trkpt>
      <trkpt lat="11.54043" lon="42.83707">
        <ele>405.81</ele>
        <time>2011-12-30T10:23:20Z</time>
      </trkpt>
      <trkpt lat="11.54043" lon="42.83704">
        <ele>408.7</ele>
        <time>2011-12-30T10:23:22Z</time>
      </trkpt>
      <trkpt lat="11.54047" lon="42.83702">
        <ele>406.29</ele>
        <time>2011-12-30T10:23:26Z</time>
      </trkpt>
      <trkpt lat="11.54047" lon="42.83702">
        <ele>404.37</ele>
        <time>2011-12-30T10:23:40Z</time>
      </trkpt>
      <trkpt lat="11.54041" lon="42.83697">
        <ele>403.89</ele>
        <time>2011-12-30T10:23:50Z</time>
      </trkpt>
      <trkpt lat="11.5404" lon="42.8369">
        <ele>401.01</ele>
        <time>2011-12-30T10:23:59Z</time>
      </trkpt>
      <trkpt lat="11.54041" lon="42.8369">
        <ele>404.85</ele>
        <time>2011-12-30T10:24:00Z</time>
      </trkpt>
      <trkpt lat="11.54043" lon="42.83687">
        <ele>408.22</ele>
        <time>2011-12-30T10:24:05Z</time>
      </trkpt>
      <trkpt lat="11.54043" lon="42.83686">
        <ele>401.97</ele>
        <time>2011-12-30T10:24:09Z</time>
      </trkpt>
      <trkpt lat="11.54043" lon="42.83686">
        <ele>406.29</ele>
        <time>2011-12-30T10:24:10Z</time>
      </trkpt>
      <trkpt lat="11.54043" lon="42.83684">
        <ele>406.77</ele>
        <time>2011-12-30T10:24:11Z</time>
      </trkpt>
      <trkpt lat="11.54046" lon="42.83681">
        <ele>405.33</ele>
        <time>2011-12-30T10:24:23Z</time>
      </trkpt>
      <trkpt lat="11.54047" lon="42.83681">
        <ele>403.89</ele>
        <time>2011-12-30T10:24:32Z</time>
      </trkpt>
      <trkpt lat="11.54053" lon="42.83683">
        <ele>402.45</ele>
        <time>2011-12-30T10:24:38Z</time>
      </trkpt>
      <trkpt lat="11.54057" lon="42.83688">
        <ele>401.97</ele>
        <time>2011-12-30T10:24:45Z</time>
      </trkpt>
      <trkpt lat="11.54059" lon="42.83689">
        <ele>401.01</ele>
        <time>2011-12-30T10:24:47Z</time>
      </trkpt>
      <trkpt lat="11.54062" lon="42.83688">
        <ele>399.57</ele>
        <time>2011-12-30T10:24:50Z</time>
      </trkpt>
      <trkpt lat="11.54063" lon="42.83688">
        <ele>399.57</ele>
        <time>2011-12-30T10:24:51Z</time>
      </trkpt>
      <trkpt lat="11.54065" lon="42.83688">
        <ele>403.41</ele>
        <time>2011-12-30T10:24:53Z</time>
      </trkpt>
      <trkpt lat="11.54068" lon="42.83687">
        <ele>401.97</ele>
        <time>2011-12-30T10:24:56Z</time>
      </trkpt>
      <trkpt lat="11.54068" lon="42.83687">
        <ele>399.57</ele>
        <time>2011-12-30T10:24:57Z</time>
      </trkpt>
      <trkpt lat="11.5407" lon="42.83687">
        <ele>397.16</ele>
        <time>2011-12-30T10:25:01Z</time>
      </trkpt>
      <trkpt lat="11.54071" lon="42.83687">
        <ele>401.97</ele>
        <time>2011-12-30T10:25:02Z</time>
      </trkpt>
      <trkpt lat="11.54072" lon="42.83687">
        <ele>398.6</ele>
        <time>2011-12-30T10:25:03Z</time>
      </trkpt>
      <trkpt lat="11.54075" lon="42.83688">
        <ele>398.12</ele>
        <time>2011-12-30T10:25:09Z</time>
      </trkpt>
      <trkpt lat="11.54076" lon="42.83688">
        <ele>401.01</ele>
        <time>2011-12-30T10:25:10Z</time>
      </trkpt>
      <trkpt lat="11.54078" lon="42.83688">
        <ele>399.08</ele>
        <time>2011-12-30T10:25:12Z</time>
      </trkpt>
      <trkpt lat="11.54081" lon="42.83689">
        <ele>400.05</ele>
        <time>2011-12-30T10:25:14Z</time>
      </trkpt>
      <trkpt lat="11.54083" lon="42.83689">
        <ele>403.89</ele>
        <time>2011-12-30T10:25:15Z</time>
      </trkpt>
      <trkpt lat="11.54084" lon="42.83689">
        <ele>397.64</ele>
        <time>2011-12-30T10:25:16Z</time>
      </trkpt>
      <trkpt lat="11.54085" lon="42.83689">
        <ele>400.05</ele>
        <time>2011-12-30T10:25:20Z</time>
      </trkpt>
      <trkpt lat="11.54088" lon="42.83683">
        <ele>400.05</ele>
        <time>2011-12-30T10:25:25Z</time>
      </trkpt>
      <trkpt lat="11.54089" lon="42.8368">
        <ele>400.53</ele>
        <time>2011-12-30T10:25:28Z</time>
      </trkpt>
      <trkpt lat="11.54096" lon="42.83668">
        <ele>396.2</ele>
        <time>2011-12-30T10:25:40Z</time>
      </trkpt>
      <trkpt lat="11.54096" lon="42.83665">
        <ele>395.72</ele>
        <time>2011-12-30T10:25:44Z</time>
      </trkpt>
      <trkpt lat="11.54096" lon="42.83656">
        <ele>391.39</ele>
        <time>2011-12-30T10:25:50Z</time>
      </trkpt>
      <trkpt lat="11.54098" lon="42.83652">
        <ele>394.76</ele>
        <time>2011-12-30T10:25:54Z</time>
      </trkpt>
      <trkpt lat="11.54102" lon="42.83645">
        <ele>391.39</ele>
        <time>2011-12-30T10:26:04Z</time>
      </trkpt>
      <trkpt lat="11.54104" lon="42.83643">
        <ele>393.32</ele>
        <time>2011-12-30T10:26:06Z</time>
      </trkpt>
      <trkpt lat="11.54105" lon="42.83639">
        <ele>396.2</ele>
        <time>2011-12-30T10:26:09Z</time>
      </trkpt>
      <trkpt lat="11.54105" lon="42.83638">
        <ele>390.43</ele>
        <time>2011-12-30T10:26:10Z</time>
      </trkpt>
      <trkpt lat="11.54105" lon="42.83637">
        <ele>392.84</ele>
        <time>2011-12-30T10:26:11Z</time>
      </trkpt>
      <trkpt lat="11.54104" lon="42.83635">
        <ele>394.28</ele>
        <time>2011-12-30T10:26:13Z</time>
      </trkpt>
      <trkpt lat="11.54102" lon="42.83629">
        <ele>391.87</ele>
        <time>2011-12-30T10:26:22Z</time>
      </trkpt>
      <trkpt lat="11.54102" lon="42.83629">
        <ele>395.72</ele>
        <time>2011-12-30T10:26:24Z</time>
      </trkpt>
      <trkpt lat="11.54103" lon="42.83629">
        <ele>392.84</ele>
        <time>2011-12-30T10:26:31Z</time>
      </trkpt>
      <trkpt lat="11.54101" lon="42.83626">
        <ele>394.76</ele>
        <time>2011-12-30T10:26:45Z</time>
      </trkpt>
      <trkpt lat="11.54096" lon="42.83624">
        <ele>394.28</ele>
        <time>2011-12-30T10:26:51Z</time>
      </trkpt>
      <trkpt lat="11.54088" lon="42.83619">
        <ele>392.84</ele>
        <time>2011-12-30T10:27:03Z</time>
      </trkpt>
      <trkpt lat="11.54088" lon="42.83619">
        <ele>392.84</ele>
        <time>2011-12-30T10:27:07Z</time>
      </trkpt>
      <trkpt lat="11.54086" lon="42.83618">
        <ele>392.84</ele>
        <time>2011-12-30T10:27:09Z</time>
      </trkpt>
      <trkpt lat="11.54083" lon="42.83611">
        <ele>395.24</ele>
        <time>2011-12-30T10:27:15Z</time>
      </trkpt>
      <trkpt lat="11.54083" lon="42.8361">
        <ele>387.55</ele>
        <time>2011-12-30T10:27:17Z</time>
      </trkpt>
      <trkpt lat="11.54082" lon="42.83607">
        <ele>392.84</ele>
        <time>2011-12-30T10:27:19Z</time>
      </trkpt>
      <trkpt lat="11.54081" lon="42.83605">
        <ele>397.16</ele>
        <time>2011-12-30T10:27:21Z</time>
      </trkpt>
      <trkpt lat="11.54079" lon="42.83603">
        <ele>393.32</ele>
        <time>2011-12-30T10:27:25Z</time>
      </trkpt>
      <trkpt lat="11.54078" lon="42.83602">
        <ele>393.8</ele>
        <time>2011-12-30T10:27:26Z</time>
      </trkpt>
      <trkpt lat="11.54077" lon="42.83601">
        <ele>390.43</ele>
        <time>2011-12-30T10:27:27Z</time>
      </trkpt>
      <trkpt lat="11.54076" lon="42.836">
        <ele>393.32</ele>
        <time>2011-12-30T10:27:28Z</time>
      </trkpt>
      <trkpt lat="11.54075" lon="42.83598">
        <ele>394.76</ele>
        <time>2011-12-30T10:27:30Z</time>
      </trkpt>
      <trkpt lat="11.54072" lon="42.83596">
        <ele>396.2</ele>
        <time>2011-12-30T10:27:33Z</time>
      </trkpt>
      <trkpt lat="11.54069" lon="42.83594">
        <ele>392.84</ele>
        <time>2011-12-30T10:27:37Z</time>
      </trkpt>
      <trkpt lat="11.5407" lon="42.8359">
        <ele>389.47</ele>
        <time>2011-12-30T10:27:42Z</time>
      </trkpt>
      <trkpt lat="11.54071" lon="42.83588">
        <ele>390.43</ele>
        <time>2011-12-30T10:27:44Z</time>
      </trkpt>
      <trkpt lat="11.54072" lon="42.83587">
        <ele>395.72</ele>
        <time>2011-12-30T10:27:45Z</time>
      </trkpt>
      <trkpt lat="11.54073" lon="42.83586">
        <ele>395.72</ele>
        <time>2011-12-30T10:27:46Z</time>
      </trkpt>
      <trkpt lat="11.54074" lon="42.83584">
        <ele>399.57</ele>
        <time>2011-12-30T10:27:48Z</time>
      </trkpt>
      <trkpt lat="11.54075" lon="42.83584">
        <ele>396.68</ele>
        <time>2011-12-30T10:27:49Z</time>
      </trkpt>
      <trkpt lat="11.54077" lon="42.83578">
        <ele>396.2</ele>
        <time>2011-12-30T10:27:53Z</time>
      </trkpt>
      <trkpt lat="11.54078" lon="42.83572">
        <ele>397.16</ele>
        <time>2011-12-30T10:27:58Z</time>
      </trkpt>
      <trkpt lat="11.54078" lon="42.83569">
        <ele>400.53</ele>
        <time>2011-12-30T10:28:00Z</time>
      </trkpt>
      <trkpt lat="11.54077" lon="42.83567">
        <ele>393.8</ele>
        <time>2011-12-30T10:28:02Z</time>
      </trkpt>
      <trkpt lat="11.54076" lon="42.83565">
        <ele>395.72</ele>
        <time>2011-12-30T10:28:18Z</time>
      </trkpt>
      <trkpt lat="11.54076" lon="42.83564">
        <ele>394.76</ele>
        <time>2011-12-30T10:28:22Z</time>
      </trkpt>
      <trkpt lat="11.54075" lon="42.83563">
        <ele>395.72</ele>
        <time>2011-12-30T10:28:24Z</time>
      </trkpt>
      <trkpt lat="11.5407" lon="42.83559">
        <ele>395.72</ele>
        <time>2011-12-30T10:28:29Z</time>
      </trkpt>
      <trkpt lat="11.5406" lon="42.83554">
        <ele>394.28</ele>
        <time>2011-12-30T10:28:38Z</time>
      </trkpt>
      <trkpt lat="11.54055" lon="42.8355">
        <ele>390.43</ele>
        <time>2011-12-30T10:28:44Z</time>
      </trkpt>
      <trkpt lat="11.54053" lon="42.83547">
        <ele>392.36</ele>
        <time>2011-12-30T10:28:49Z</time>
      </trkpt>
      <trkpt lat="11.54049" lon="42.83543">
        <ele>391.39</ele>
        <time>2011-12-30T10:29:00Z</time>
      </trkpt>
      <trkpt lat="11.54042" lon="42.83541">
        <ele>388.51</ele>
        <time>2011-12-30T10:29:07Z</time>
      </trkpt>
      <trkpt lat="11.54042" lon="42.83539">
        <ele>390.43</ele>
        <time>2011-12-30T10:29:10Z</time>
      </trkpt>
      <trkpt lat="11.54044" lon="42.83536">
        <ele>396.68</ele>
        <time>2011-12-30T10:29:13Z</time>
      </trkpt>
      <trkpt lat="11.54045" lon="42.83535">
        <ele>385.63</ele>
        <time>2011-12-30T10:29:14Z</time>
      </trkpt>
      <trkpt lat="11.54044" lon="42.83534">
        <ele>384.66</ele>
        <time>2011-12-30T10:29:15Z</time>
      </trkpt>
      <trkpt lat="11.54044" lon="42.83532">
        <ele>396.68</ele>
        <time>2011-12-30T10:29:17Z</time>
      </trkpt>
      <trkpt lat="11.54044" lon="42.83531">
        <ele>393.8</ele>
        <time>2011-12-30T10:29:18Z</time>
      </trkpt>
      <trkpt lat="11.54043" lon="42.8353">
        <ele>388.51</ele>
        <time>2011-12-30T10:29:19Z</time>
      </trkpt>
      <trkpt lat="11.54042" lon="42.83528">
        <ele>392.36</ele>
        <time>2011-12-30T10:29:21Z</time>
      </trkpt>
      <trkpt lat="11.54041" lon="42.83526">
        <ele>396.2</ele>
        <time>2011-12-30T10:29:23Z</time>
      </trkpt>
      <trkpt lat="11.5404" lon="42.83525">
        <ele>391.39</ele>
        <time>2011-12-30T10:29:24Z</time>
      </trkpt>
      <trkpt lat="11.5404" lon="42.83525">
        <ele>385.63</ele>
        <time>2011-12-30T10:29:25Z</time>
      </trkpt>
      <trkpt lat="11.54039" lon="42.83525">
        <ele>391.87</ele>
        <time>2011-12-30T10:29:26Z</time>
      </trkpt>
      <trkpt lat="11.54038" lon="42.83522">
        <ele>391.87</ele>
        <time>2011-12-30T10:29:30Z</time>
      </trkpt>
      <trkpt lat="11.54039" lon="42.8352">
        <ele>389.95</ele>
        <time>2011-12-30T10:29:32Z</time>
      </trkpt>
      <trkpt lat="11.5404" lon="42.83517">
        <ele>393.8</ele>
        <time>2011-12-30T10:29:35Z</time>
      </trkpt>
      <trkpt lat="11.54041" lon="42.83516">
        <ele>391.39</ele>
        <time>2011-12-30T10:29:36Z</time>
      </trkpt>
      <trkpt lat="11.54043" lon="42.83515">
        <ele>394.28</ele>
        <time>2011-12-30T10:29:38Z</time>
      </trkpt>
      <trkpt lat="11.54044" lon="42.83515">
        <ele>393.32</ele>
        <time>2011-12-30T10:29:39Z</time>
      </trkpt>
      <trkpt lat="11.54045" lon="42.83514">
        <ele>382.74</ele>
        <time>2011-12-30T10:29:40Z</time>
      </trkpt>
      <trkpt lat="11.54046" lon="42.83514">
        <ele>389.95</ele>
        <time>2011-12-30T10:29:41Z</time>
      </trkpt>
      <trkpt lat="11.54049" lon="42.83513">
        <ele>393.8</ele>
        <time>2011-12-30T10:29:45Z</time>
      </trkpt>
      <trkpt lat="11.5405" lon="42.83512">
        <ele>399.57</ele>
        <time>2011-12-30T10:29:46Z</time>
      </trkpt>
      <trkpt lat="11.5405" lon="42.83512">
        <ele>386.59</ele>
        <time>2011-12-30T10:29:47Z</time>
      </trkpt>
      <trkpt lat="11.54051" lon="42.83511">
        <ele>396.2</ele>
        <time>2011-12-30T10:29:48Z</time>
      </trkpt>
      <trkpt lat="11.54052" lon="42.83511">
        <ele>386.59</ele>
        <time>2011-12-30T10:29:49Z</time>
      </trkpt>
      <trkpt lat="11.54052" lon="42.8351">
        <ele>394.76</ele>
        <time>2011-12-30T10:29:50Z</time>
      </trkpt>
      <trkpt lat="11.54052" lon="42.8351">
        <ele>393.32</ele>
        <time>2011-12-30T10:29:53Z</time>
      </trkpt>
      <trkpt lat="11.54053" lon="42.83509">
        <ele>397.64</ele>
        <time>2011-12-30T10:29:55Z</time>
      </trkpt>
      <trkpt lat="11.54053" lon="42.83509">
        <ele>394.28</ele>
        <time>2011-12-30T10:29:58Z</time>
      </trkpt>
      <trkpt lat="11.54055" lon="42.83505">
        <ele>399.08</ele>
        <time>2011-12-30T10:30:02Z</time>
      </trkpt>
      <trkpt lat="11.54056" lon="42.83504">
        <ele>395.24</ele>
        <time>2011-12-30T10:30:03Z</time>
      </trkpt>
      <trkpt lat="11.54056" lon="42.83503">
        <ele>390.43</ele>
        <time>2011-12-30T10:30:04Z</time>
      </trkpt>
      <trkpt lat="11.54057" lon="42.83502">
        <ele>393.8</ele>
        <time>2011-12-30T10:30:05Z</time>
      </trkpt>
      <trkpt lat="11.54057" lon="42.83502">
        <ele>400.05</ele>
        <time>2011-12-30T10:30:06Z</time>
      </trkpt>
      <trkpt lat="11.54058" lon="42.83501">
        <ele>403.41</ele>
        <time>2011-12-30T10:30:07Z</time>
      </trkpt>
      <trkpt lat="11.54058" lon="42.835">
        <ele>390.43</ele>
        <time>2011-12-30T10:30:08Z</time>
      </trkpt>
      <trkpt lat="11.54058" lon="42.83498">
        <ele>396.2</ele>
        <time>2011-12-30T10:30:10Z</time>
      </trkpt>
      <trkpt lat="11.54058" lon="42.83496">
        <ele>399.57</ele>
        <time>2011-12-30T10:30:12Z</time>
      </trkpt>
      <trkpt lat="11.54058" lon="42.83495">
        <ele>396.68</ele>
        <time>2011-12-30T10:30:13Z</time>
      </trkpt>
      <trkpt lat="11.54056" lon="42.83491">
        <ele>403.41</ele>
        <time>2011-12-30T10:30:17Z</time>
      </trkpt>
      <trkpt lat="11.54056" lon="42.8349">
        <ele>401.97</ele>
        <time>2011-12-30T10:30:18Z</time>
      </trkpt>
      <trkpt lat="11.54055" lon="42.83488">
        <ele>397.64</ele>
        <time>2011-12-30T10:30:20Z</time>
      </trkpt>
      <trkpt lat="11.54055" lon="42.83488">
        <ele>399.08</ele>
        <time>2011-12-30T10:30:21Z</time>
      </trkpt>
      <trkpt lat="11.54055" lon="42.83487">
        <ele>404.37</ele>
        <time>2011-12-30T10:30:22Z</time>
      </trkpt>
      <trkpt lat="11.54055" lon="42.83485">
        <ele>401.97</ele>
        <time>2011-12-30T10:30:23Z</time>
      </trkpt>
      <trkpt lat="11.54056" lon="42.83481">
        <ele>402.45</ele>
        <time>2011-12-30T10:30:27Z</time>
      </trkpt>
      <trkpt lat="11.54056" lon="42.83478">
        <ele>401.01</ele>
        <time>2011-12-30T10:30:30Z</time>
      </trkpt>
      <trkpt lat="11.54056" lon="42.83478">
        <ele>401.97</ele>
        <time>2011-12-30T10:30:31Z</time>
      </trkpt>
      <trkpt lat="11.54055" lon="42.83478">
        <ele>401.97</ele>
        <time>2011-12-30T10:31:01Z</time>
      </trkpt>
      <trkpt lat="11.54055" lon="42.83478">
        <ele>398.6</ele>
        <time>2011-12-30T10:31:36Z</time>
      </trkpt>
      <trkpt lat="11.54055" lon="42.83478">
        <ele>402.45</ele>
        <time>2011-12-30T10:31:37Z</time>
      </trkpt>
      <trkpt lat="11.54055" lon="42.83478">
        <ele>398.6</ele>
        <time>2011-12-30T10:31:39Z</time>
      </trkpt>
      <trkpt lat="11.54055" lon="42.83478">
        <ele>401.97</ele>
        <time>2011-12-30T10:31:40Z</time>
      </trkpt>
      <trkpt lat="11.54055" lon="42.83478">
        <ele>401.97</ele>
        <time>2011-12-30T10:31:47Z</time>
      </trkpt>
      <trkpt lat="11.54055" lon="42.83478">
        <ele>401.97</ele>
        <time>2011-12-30T10:31:53Z</time>
      </trkpt>
      <trkpt lat="11.54056" lon="42.83476">
        <ele>401.01</ele>
        <time>2011-12-30T10:32:08Z</time>
      </trkpt>
      <trkpt lat="11.54056" lon="42.83475">
        <ele>401.49</ele>
        <time>2011-12-30T10:32:57Z</time>
      </trkpt>
      <trkpt lat="11.54055" lon="42.83476">
        <ele>401.01</ele>
        <time>2011-12-30T10:33:15Z</time>
      </trkpt>
      <trkpt lat="11.54052" lon="42.83475">
        <ele>400.53</ele>
        <time>2011-12-30T10:33:19Z</time>
      </trkpt>
      <trkpt lat="11.54047" lon="42.83472">
        <ele>400.05</ele>
        <time>2011-12-30T10:33:24Z</time>
      </trkpt>
      <trkpt lat="11.54041" lon="42.83468">
        <ele>399.57</ele>
        <time>2011-12-30T10:33:38Z</time>
      </trkpt>
      <trkpt lat="11.54035" lon="42.83466">
        <ele>400.05</ele>
        <time>2011-12-30T10:33:46Z</time>
      </trkpt>
      <trkpt lat="11.54034" lon="42.83465">
        <ele>398.12</ele>
        <time>2011-12-30T10:33:52Z</time>
      </trkpt>
      <trkpt lat="11.54032" lon="42.83462">
        <ele>398.12</ele>
        <time>2011-12-30T10:34:00Z</time>
      </trkpt>
      <trkpt lat="11.5403" lon="42.83461">
        <ele>399.57</ele>
        <time>2011-12-30T10:34:03Z</time>
      </trkpt>
      <trkpt lat="11.54024" lon="42.83457">
        <ele>398.12</ele>
        <time>2011-12-30T10:34:13Z</time>
      </trkpt>
      <trkpt lat="11.54014" lon="42.83454">
        <ele>395.72</ele>
        <time>2011-12-30T10:34:31Z</time>
      </trkpt>
      <trkpt lat="11.5401" lon="42.83451">
        <ele>394.76</ele>
        <time>2011-12-30T10:34:35Z</time>
      </trkpt>
      <trkpt lat="11.54005" lon="42.83449">
        <ele>392.36</ele>
        <time>2011-12-30T10:34:41Z</time>
      </trkpt>
      <trkpt lat="11.54003" lon="42.83447">
        <ele>392.36</ele>
        <time>2011-12-30T10:34:45Z</time>
      </trkpt>
      <trkpt lat="11.5401" lon="42.83445">
        <ele>393.32</ele>
        <time>2011-12-30T10:34:54Z</time>
      </trkpt>
      <trkpt lat="11.54013" lon="42.83446">
        <ele>388.99</ele>
        <time>2011-12-30T10:34:56Z</time>
      </trkpt>
      <trkpt lat="11.54014" lon="42.83446">
        <ele>389.47</ele>
        <time>2011-12-30T10:34:57Z</time>
      </trkpt>
      <trkpt lat="11.54015" lon="42.83446">
        <ele>389.95</ele>
        <time>2011-12-30T10:34:58Z</time>
      </trkpt>
      <trkpt lat="11.54019" lon="42.83445">
        <ele>394.28</ele>
        <time>2011-12-30T10:35:01Z</time>
      </trkpt>
      <trkpt lat="11.5402" lon="42.83444">
        <ele>394.28</ele>
        <time>2011-12-30T10:35:02Z</time>
      </trkpt>
      <trkpt lat="11.54022" lon="42.83443">
        <ele>388.99</ele>
        <time>2011-12-30T10:35:04Z</time>
      </trkpt>
      <trkpt lat="11.54024" lon="42.83442">
        <ele>392.36</ele>
        <time>2011-12-30T10:35:06Z</time>
      </trkpt>
      <trkpt lat="11.54027" lon="42.83441">
        <ele>391.87</ele>
        <time>2011-12-30T10:35:10Z</time>
      </trkpt>
      <trkpt lat="11.54027" lon="42.83438">
        <ele>391.87</ele>
        <time>2011-12-30T10:35:21Z</time>
      </trkpt>
      <trkpt lat="11.54026" lon="42.83438">
        <ele>388.99</ele>
        <time>2011-12-30T10:35:35Z</time>
      </trkpt>
      <trkpt lat="11.54018" lon="42.83437">
        <ele>387.55</ele>
        <time>2011-12-30T10:35:42Z</time>
      </trkpt>
      <trkpt lat="11.54008" lon="42.83434">
        <ele>387.07</ele>
        <time>2011-12-30T10:35:53Z</time>
      </trkpt>
      <trkpt lat="11.54008" lon="42.83433">
        <ele>386.59</ele>
        <time>2011-12-30T10:35:54Z</time>
      </trkpt>
      <trkpt lat="11.54006" lon="42.83432">
        <ele>385.63</ele>
        <time>2011-12-30T10:36:07Z</time>
      </trkpt>
      <trkpt lat="11.54" lon="42.8343">
        <ele>383.22</ele>
        <time>2011-12-30T10:36:14Z</time>
      </trkpt>
      <trkpt lat="11.53996" lon="42.8343">
        <ele>382.74</ele>
        <time>2011-12-30T10:36:17Z</time>
      </trkpt>
      <trkpt lat="11.53986" lon="42.83428">
        <ele>380.82</ele>
        <time>2011-12-30T10:36:28Z</time>
      </trkpt>
      <trkpt lat="11.53985" lon="42.83427">
        <ele>381.3</ele>
        <time>2011-12-30T10:36:29Z</time>
      </trkpt>
      <trkpt lat="11.53974" lon="42.83419">
        <ele>377.45</ele>
        <time>2011-12-30T10:36:40Z</time>
      </trkpt>
      <trkpt lat="11.53973" lon="42.83418">
        <ele>377.94</ele>
        <time>2011-12-30T10:36:41Z</time>
      </trkpt>
      <trkpt lat="11.53969" lon="42.83414">
        <ele>377.94</ele>
        <time>2011-12-30T10:36:50Z</time>
      </trkpt>
      <trkpt lat="11.53965" lon="42.8341">
        <ele>378.42</ele>
        <time>2011-12-30T10:36:55Z</time>
      </trkpt>
      <trkpt lat="11.53963" lon="42.83409">
        <ele>378.42</ele>
        <time>2011-12-30T10:36:57Z</time>
      </trkpt>
      <trkpt lat="11.53955" lon="42.83407">
        <ele>376.97</ele>
        <time>2011-12-30T10:37:05Z</time>
      </trkpt>
      <trkpt lat="11.53954" lon="42.83406">
        <ele>376.01</ele>
        <time>2011-12-30T10:37:06Z</time>
      </trkpt>
      <trkpt lat="11.53951" lon="42.83403">
        <ele>372.17</ele>
        <time>2011-12-30T10:37:09Z</time>
      </trkpt>
      <trkpt lat="11.53951" lon="42.83402">
        <ele>376.01</ele>
        <time>2011-12-30T10:37:10Z</time>
      </trkpt>
      <trkpt lat="11.53948" lon="42.83399">
        <ele>379.38</ele>
        <time>2011-12-30T10:37:13Z</time>
      </trkpt>
      <trkpt lat="11.53947" lon="42.83397">
        <ele>378.9</ele>
        <time>2011-12-30T10:37:14Z</time>
      </trkpt>
      <trkpt lat="11.53946" lon="42.83396">
        <ele>376.97</ele>
        <time>2011-12-30T10:37:15Z</time>
      </trkpt>
      <trkpt lat="11.53945" lon="42.83393">
        <ele>376.01</ele>
        <time>2011-12-30T10:37:17Z</time>
      </trkpt>
      <trkpt lat="11.53945" lon="42.83392">
        <ele>376.49</ele>
        <time>2011-12-30T10:37:18Z</time>
      </trkpt>
      <trkpt lat="11.53942" lon="42.83389">
        <ele>376.97</ele>
        <time>2011-12-30T10:37:21Z</time>
      </trkpt>
      <trkpt lat="11.53939" lon="42.83385">
        <ele>376.01</ele>
        <time>2011-12-30T10:37:25Z</time>
      </trkpt>
      <trkpt lat="11.53938" lon="42.83383">
        <ele>375.53</ele>
        <time>2011-12-30T10:37:27Z</time>
      </trkpt>
      <trkpt lat="11.53937" lon="42.83383">
        <ele>377.45</ele>
        <time>2011-12-30T10:37:28Z</time>
      </trkpt>
      <trkpt lat="11.53935" lon="42.8338">
        <ele>378.42</ele>
        <time>2011-12-30T10:37:30Z</time>
      </trkpt>
      <trkpt lat="11.53933" lon="42.83379">
        <ele>374.09</ele>
        <time>2011-12-30T10:37:32Z</time>
      </trkpt>
      <trkpt lat="11.53932" lon="42.83378">
        <ele>374.57</ele>
        <time>2011-12-30T10:37:33Z</time>
      </trkpt>
      <trkpt lat="11.53929" lon="42.83375">
        <ele>376.01</ele>
        <time>2011-12-30T10:37:36Z</time>
      </trkpt>
      <trkpt lat="11.53919" lon="42.83369">
        <ele>373.61</ele>
        <time>2011-12-30T10:37:47Z</time>
      </trkpt>
      <trkpt lat="11.53912" lon="42.83369">
        <ele>372.17</ele>
        <time>2011-12-30T10:37:53Z</time>
      </trkpt>
      <trkpt lat="11.53899" lon="42.83367">
        <ele>369.76</ele>
        <time>2011-12-30T10:38:05Z</time>
      </trkpt>
      <trkpt lat="11.53898" lon="42.83367">
        <ele>370.24</ele>
        <time>2011-12-30T10:38:06Z</time>
      </trkpt>
      <trkpt lat="11.53895" lon="42.83366">
        <ele>370.73</ele>
        <time>2011-12-30T10:38:08Z</time>
      </trkpt>
      <trkpt lat="11.53891" lon="42.83364">
        <ele>367.84</ele>
        <time>2011-12-30T10:38:12Z</time>
      </trkpt>
      <trkpt lat="11.5389" lon="42.83363">
        <ele>367.84</ele>
        <time>2011-12-30T10:38:13Z</time>
      </trkpt>
      <trkpt lat="11.53886" lon="42.83361">
        <ele>369.28</ele>
        <time>2011-12-30T10:38:17Z</time>
      </trkpt>
      <trkpt lat="11.53873" lon="42.83356">
        <ele>367.84</ele>
        <time>2011-12-30T10:38:28Z</time>
      </trkpt>
      <trkpt lat="11.53867" lon="42.83353">
        <ele>369.76</ele>
        <time>2011-12-30T10:38:33Z</time>
      </trkpt>
      <trkpt lat="11.53865" lon="42.83352">
        <ele>367.84</ele>
        <time>2011-12-30T10:38:36Z</time>
      </trkpt>
      <trkpt lat="11.53859" lon="42.8335">
        <ele>364</ele>
        <time>2011-12-30T10:38:41Z</time>
      </trkpt>
      <trkpt lat="11.53856" lon="42.83349">
        <ele>367.36</ele>
        <time>2011-12-30T10:38:44Z</time>
      </trkpt>
      <trkpt lat="11.53854" lon="42.83349">
        <ele>367.84</ele>
        <time>2011-12-30T10:38:46Z</time>
      </trkpt>
      <trkpt lat="11.53849" lon="42.83349">
        <ele>366.4</ele>
        <time>2011-12-30T10:38:50Z</time>
      </trkpt>
      <trkpt lat="11.53847" lon="42.83349">
        <ele>366.4</ele>
        <time>2011-12-30T10:38:51Z</time>
      </trkpt>
      <trkpt lat="11.53842" lon="42.83349">
        <ele>365.44</ele>
        <time>2011-12-30T10:38:55Z</time>
      </trkpt>
      <trkpt lat="11.53839" lon="42.83351">
        <ele>366.4</ele>
        <time>2011-12-30T10:39:08Z</time>
      </trkpt>
      <trkpt lat="11.53833" lon="42.83355">
        <ele>365.44</ele>
        <time>2011-12-30T10:39:23Z</time>
      </trkpt>
      <trkpt lat="11.53835" lon="42.83354">
        <ele>365.92</ele>
        <time>2011-12-30T10:39:37Z</time>
      </trkpt>
      <trkpt lat="11.53835" lon="42.83355">
        <ele>366.4</ele>
        <time>2011-12-30T10:40:00Z</time>
      </trkpt>
      <trkpt lat="11.53831" lon="42.83358">
        <ele>365.44</ele>
        <time>2011-12-30T10:40:06Z</time>
      </trkpt>
      <trkpt lat="11.53828" lon="42.8336">
        <ele>364</ele>
        <time>2011-12-30T10:40:11Z</time>
      </trkpt>
      <trkpt lat="11.53821" lon="42.83367">
        <ele>362.55</ele>
        <time>2011-12-30T10:40:23Z</time>
      </trkpt>
      <trkpt lat="11.53815" lon="42.83373">
        <ele>359.19</ele>
        <time>2011-12-30T10:40:31Z</time>
      </trkpt>
      <trkpt lat="11.53811" lon="42.83377">
        <ele>359.67</ele>
        <time>2011-12-30T10:40:36Z</time>
      </trkpt>
      <trkpt lat="11.5381" lon="42.83378">
        <ele>360.63</ele>
        <time>2011-12-30T10:40:38Z</time>
      </trkpt>
      <trkpt lat="11.53805" lon="42.83387">
        <ele>360.15</ele>
        <time>2011-12-30T10:40:48Z</time>
      </trkpt>
      <trkpt lat="11.53801" lon="42.83388">
        <ele>358.23</ele>
        <time>2011-12-30T10:40:53Z</time>
      </trkpt>
      <trkpt lat="11.53798" lon="42.83391">
        <ele>357.75</ele>
        <time>2011-12-30T10:41:00Z</time>
      </trkpt>
      <trkpt lat="11.5379" lon="42.83397">
        <ele>355.83</ele>
        <time>2011-12-30T10:41:08Z</time>
      </trkpt>
      <trkpt lat="11.5379" lon="42.83397">
        <ele>354.86</ele>
        <time>2011-12-30T10:41:10Z</time>
      </trkpt>
      <trkpt lat="11.5379" lon="42.83399">
        <ele>351.98</ele>
        <time>2011-12-30T10:41:12Z</time>
      </trkpt>
      <trkpt lat="11.5379" lon="42.83401">
        <ele>356.31</ele>
        <time>2011-12-30T10:41:14Z</time>
      </trkpt>
      <trkpt lat="11.53789" lon="42.83403">
        <ele>353.42</ele>
        <time>2011-12-30T10:41:16Z</time>
      </trkpt>
      <trkpt lat="11.53789" lon="42.83404">
        <ele>353.9</ele>
        <time>2011-12-30T10:41:17Z</time>
      </trkpt>
      <trkpt lat="11.53789" lon="42.83405">
        <ele>357.27</ele>
        <time>2011-12-30T10:41:18Z</time>
      </trkpt>
      <trkpt lat="11.53789" lon="42.83405">
        <ele>352.94</ele>
        <time>2011-12-30T10:41:19Z</time>
      </trkpt>
      <trkpt lat="11.53789" lon="42.83406">
        <ele>356.79</ele>
        <time>2011-12-30T10:41:20Z</time>
      </trkpt>
      <trkpt lat="11.53788" lon="42.83409">
        <ele>359.19</ele>
        <time>2011-12-30T10:41:23Z</time>
      </trkpt>
      <trkpt lat="11.53789" lon="42.83412">
        <ele>362.07</ele>
        <time>2011-12-30T10:41:26Z</time>
      </trkpt>
      <trkpt lat="11.53789" lon="42.83413">
        <ele>358.23</ele>
        <time>2011-12-30T10:41:27Z</time>
      </trkpt>
      <trkpt lat="11.5379" lon="42.83413">
        <ele>349.58</ele>
        <time>2011-12-30T10:41:30Z</time>
      </trkpt>
      <trkpt lat="11.5379" lon="42.83413">
        <ele>360.15</ele>
        <time>2011-12-30T10:41:31Z</time>
      </trkpt>
      <trkpt lat="11.5379" lon="42.83413">
        <ele>357.27</ele>
        <time>2011-12-30T10:41:32Z</time>
      </trkpt>
      <trkpt lat="11.5379" lon="42.83414">
        <ele>355.83</ele>
        <time>2011-12-30T10:41:34Z</time>
      </trkpt>
      <trkpt lat="11.53788" lon="42.83417">
        <ele>360.15</ele>
        <time>2011-12-30T10:41:37Z</time>
      </trkpt>
      <trkpt lat="11.53788" lon="42.83418">
        <ele>355.34</ele>
        <time>2011-12-30T10:41:38Z</time>
      </trkpt>
      <trkpt lat="11.53787" lon="42.83418">
        <ele>351.02</ele>
        <time>2011-12-30T10:41:39Z</time>
      </trkpt>
      <trkpt lat="11.53786" lon="42.8342">
        <ele>359.19</ele>
        <time>2011-12-30T10:41:41Z</time>
      </trkpt>
      <trkpt lat="11.53785" lon="42.83421">
        <ele>362.07</ele>
        <time>2011-12-30T10:41:42Z</time>
      </trkpt>
      <trkpt lat="11.53784" lon="42.83421">
        <ele>352.94</ele>
        <time>2011-12-30T10:41:43Z</time>
      </trkpt>
      <trkpt lat="11.53783" lon="42.83422">
        <ele>354.38</ele>
        <time>2011-12-30T10:41:44Z</time>
      </trkpt>
      <trkpt lat="11.53783" lon="42.83423">
        <ele>357.75</ele>
        <time>2011-12-30T10:41:45Z</time>
      </trkpt>
      <trkpt lat="11.53782" lon="42.83426">
        <ele>353.42</ele>
        <time>2011-12-30T10:41:48Z</time>
      </trkpt>
      <trkpt lat="11.53782" lon="42.83426">
        <ele>355.34</ele>
        <time>2011-12-30T10:41:49Z</time>
      </trkpt>
      <trkpt lat="11.53781" lon="42.83429">
        <ele>361.11</ele>
        <time>2011-12-30T10:41:51Z</time>
      </trkpt>
      <trkpt lat="11.53781" lon="42.8343">
        <ele>360.15</ele>
        <time>2011-12-30T10:41:52Z</time>
      </trkpt>
      <trkpt lat="11.53781" lon="42.83431">
        <ele>354.38</ele>
        <time>2011-12-30T10:41:53Z</time>
      </trkpt>
      <trkpt lat="11.5378" lon="42.83431">
        <ele>358.23</ele>
        <time>2011-12-30T10:41:54Z</time>
      </trkpt>
      <trkpt lat="11.53779" lon="42.83433">
        <ele>355.83</ele>
        <time>2011-12-30T10:41:56Z</time>
      </trkpt>
      <trkpt lat="11.53778" lon="42.83435">
        <ele>359.67</ele>
        <time>2011-12-30T10:41:58Z</time>
      </trkpt>
      <trkpt lat="11.53777" lon="42.83436">
        <ele>355.83</ele>
        <time>2011-12-30T10:41:59Z</time>
      </trkpt>
      <trkpt lat="11.53776" lon="42.83437">
        <ele>359.67</ele>
        <time>2011-12-30T10:42:01Z</time>
      </trkpt>
      <trkpt lat="11.53775" lon="42.83438">
        <ele>358.71</ele>
        <time>2011-12-30T10:42:02Z</time>
      </trkpt>
      <trkpt lat="11.53775" lon="42.83439">
        <ele>352.46</ele>
        <time>2011-12-30T10:42:03Z</time>
      </trkpt>
      <trkpt lat="11.53774" lon="42.83439">
        <ele>359.19</ele>
        <time>2011-12-30T10:42:04Z</time>
      </trkpt>
      <trkpt lat="11.53769" lon="42.83447">
        <ele>359.67</ele>
        <time>2011-12-30T10:42:14Z</time>
      </trkpt>
      <trkpt lat="11.53768" lon="42.83452">
        <ele>358.71</ele>
        <time>2011-12-30T10:42:20Z</time>
      </trkpt>
      <trkpt lat="11.53768" lon="42.83453">
        <ele>363.52</ele>
        <time>2011-12-30T10:42:21Z</time>
      </trkpt>
      <trkpt lat="11.53768" lon="42.83454">
        <ele>355.83</ele>
        <time>2011-12-30T10:42:22Z</time>
      </trkpt>
      <trkpt lat="11.53768" lon="42.83455">
        <ele>359.67</ele>
        <time>2011-12-30T10:42:23Z</time>
      </trkpt>
      <trkpt lat="11.53768" lon="42.8346">
        <ele>360.63</ele>
        <time>2011-12-30T10:42:34Z</time>
      </trkpt>
      <trkpt lat="11.53768" lon="42.8346">
        <ele>364.48</ele>
        <time>2011-12-30T10:42:38Z</time>
      </trkpt>
      <trkpt lat="11.53768" lon="42.8346">
        <ele>362.55</ele>
        <time>2011-12-30T10:42:39Z</time>
      </trkpt>
      <trkpt lat="11.53768" lon="42.8346">
        <ele>358.71</ele>
        <time>2011-12-30T10:42:47Z</time>
      </trkpt>
      <trkpt lat="11.53768" lon="42.83463">
        <ele>362.55</ele>
        <time>2011-12-30T10:43:08Z</time>
      </trkpt>
      <trkpt lat="11.53767" lon="42.83464">
        <ele>360.63</ele>
        <time>2011-12-30T10:43:26Z</time>
      </trkpt>
      <trkpt lat="11.53766" lon="42.83467">
        <ele>364</ele>
        <time>2011-12-30T10:43:52Z</time>
      </trkpt>
      <trkpt lat="11.53766" lon="42.83468">
        <ele>357.27</ele>
        <time>2011-12-30T10:43:53Z</time>
      </trkpt>
      <trkpt lat="11.53765" lon="42.83469">
        <ele>362.55</ele>
        <time>2011-12-30T10:43:54Z</time>
      </trkpt>
      <trkpt lat="11.53765" lon="42.8347">
        <ele>358.23</ele>
        <time>2011-12-30T10:43:55Z</time>
      </trkpt>
      <trkpt lat="11.53764" lon="42.83472">
        <ele>363.52</ele>
        <time>2011-12-30T10:43:57Z</time>
      </trkpt>
      <trkpt lat="11.53764" lon="42.83473">
        <ele>357.75</ele>
        <time>2011-12-30T10:43:58Z</time>
      </trkpt>
      <trkpt lat="11.53763" lon="42.83473">
        <ele>362.07</ele>
        <time>2011-12-30T10:43:59Z</time>
      </trkpt>
      <trkpt lat="11.53763" lon="42.83478">
        <ele>365.44</ele>
        <time>2011-12-30T10:44:05Z</time>
      </trkpt>
      <trkpt lat="11.53763" lon="42.83479">
        <ele>358.71</ele>
        <time>2011-12-30T10:44:06Z</time>
      </trkpt>
      <trkpt lat="11.53763" lon="42.8348">
        <ele>364.96</ele>
        <time>2011-12-30T10:44:07Z</time>
      </trkpt>
      <trkpt lat="11.53763" lon="42.83481">
        <ele>357.27</ele>
        <time>2011-12-30T10:44:08Z</time>
      </trkpt>
      <trkpt lat="11.53764" lon="42.83482">
        <ele>361.59</ele>
        <time>2011-12-30T10:44:09Z</time>
      </trkpt>
      <trkpt lat="11.53764" lon="42.83487">
        <ele>363.04</ele>
        <time>2011-12-30T10:44:14Z</time>
      </trkpt>
      <trkpt lat="11.53764" lon="42.83491">
        <ele>359.67</ele>
        <time>2011-12-30T10:44:19Z</time>
      </trkpt>
      <trkpt lat="11.53764" lon="42.83492">
        <ele>365.44</ele>
        <time>2011-12-30T10:44:20Z</time>
      </trkpt>
      <trkpt lat="11.53764" lon="42.83494">
        <ele>363.52</ele>
        <time>2011-12-30T10:44:23Z</time>
      </trkpt>
      <trkpt lat="11.53764" lon="42.83496">
        <ele>356.79</ele>
        <time>2011-12-30T10:44:35Z</time>
      </trkpt>
      <trkpt lat="11.53764" lon="42.83497">
        <ele>363.04</ele>
        <time>2011-12-30T10:44:36Z</time>
      </trkpt>
      <trkpt lat="11.53764" lon="42.83503">
        <ele>367.36</ele>
        <time>2011-12-30T10:44:44Z</time>
      </trkpt>
      <trkpt lat="11.53764" lon="42.83503">
        <ele>359.67</ele>
        <time>2011-12-30T10:44:45Z</time>
      </trkpt>
      <trkpt lat="11.53764" lon="42.83504">
        <ele>361.11</ele>
        <time>2011-12-30T10:44:46Z</time>
      </trkpt>
      <trkpt lat="11.53765" lon="42.83505">
        <ele>370.73</ele>
        <time>2011-12-30T10:44:47Z</time>
      </trkpt>
      <trkpt lat="11.53765" lon="42.83505">
        <ele>364.48</ele>
        <time>2011-12-30T10:44:48Z</time>
      </trkpt>
      <trkpt lat="11.53765" lon="42.83507">
        <ele>360.63</ele>
        <time>2011-12-30T10:44:51Z</time>
      </trkpt>
      <trkpt lat="11.53766" lon="42.83508">
        <ele>365.44</ele>
        <time>2011-12-30T10:44:52Z</time>
      </trkpt>
      <trkpt lat="11.53766" lon="42.83509">
        <ele>355.83</ele>
        <time>2011-12-30T10:44:54Z</time>
      </trkpt>
      <trkpt lat="11.53767" lon="42.83512">
        <ele>362.07</ele>
        <time>2011-12-30T10:44:57Z</time>
      </trkpt>
      <trkpt lat="11.53767" lon="42.83513">
        <ele>364.96</ele>
        <time>2011-12-30T10:44:58Z</time>
      </trkpt>
      <trkpt lat="11.53767" lon="42.83515">
        <ele>367.36</ele>
        <time>2011-12-30T10:45:00Z</time>
      </trkpt>
      <trkpt lat="11.53767" lon="42.83516">
        <ele>361.59</ele>
        <time>2011-12-30T10:45:01Z</time>
      </trkpt>
      <trkpt lat="11.53767" lon="42.83517">
        <ele>364.48</ele>
        <time>2011-12-30T10:45:02Z</time>
      </trkpt>
      <trkpt lat="11.53767" lon="42.83521">
        <ele>366.88</ele>
        <time>2011-12-30T10:45:06Z</time>
      </trkpt>
      <trkpt lat="11.53768" lon="42.83524">
        <ele>362.07</ele>
        <time>2011-12-30T10:45:08Z</time>
      </trkpt>
      <trkpt lat="11.53768" lon="42.83525">
        <ele>366.4</ele>
        <time>2011-12-30T10:45:09Z</time>
      </trkpt>
      <trkpt lat="11.53769" lon="42.83532">
        <ele>367.36</ele>
        <time>2011-12-30T10:45:16Z</time>
      </trkpt>
      <trkpt lat="11.53767" lon="42.8354">
        <ele>364.48</ele>
        <time>2011-12-30T10:45:24Z</time>
      </trkpt>
      <trkpt lat="11.53766" lon="42.83542">
        <ele>362.55</ele>
        <time>2011-12-30T10:45:26Z</time>
      </trkpt>
      <trkpt lat="11.53765" lon="42.83542">
        <ele>366.88</ele>
        <time>2011-12-30T10:45:27Z</time>
      </trkpt>
      <trkpt lat="11.53762" lon="42.83547">
        <ele>370.24</ele>
        <time>2011-12-30T10:45:33Z</time>
      </trkpt>
      <trkpt lat="11.53762" lon="42.83547">
        <ele>364</ele>
        <time>2011-12-30T10:45:34Z</time>
      </trkpt>
      <trkpt lat="11.53761" lon="42.83548">
        <ele>366.88</ele>
        <time>2011-12-30T10:45:35Z</time>
      </trkpt>
      <trkpt lat="11.53761" lon="42.83549">
        <ele>363.52</ele>
        <time>2011-12-30T10:45:37Z</time>
      </trkpt>
      <trkpt lat="11.53761" lon="42.8355">
        <ele>367.84</ele>
        <time>2011-12-30T10:45:38Z</time>
      </trkpt>
      <trkpt lat="11.5376" lon="42.8355">
        <ele>364</ele>
        <time>2011-12-30T10:45:39Z</time>
      </trkpt>
      <trkpt lat="11.5376" lon="42.83551">
        <ele>369.28</ele>
        <time>2011-12-30T10:45:40Z</time>
      </trkpt>
      <trkpt lat="11.53759" lon="42.83553">
        <ele>372.17</ele>
        <time>2011-12-30T10:45:42Z</time>
      </trkpt>
      <trkpt lat="11.53758" lon="42.83554">
        <ele>373.13</ele>
        <time>2011-12-30T10:45:43Z</time>
      </trkpt>
      <trkpt lat="11.53753" lon="42.83556">
        <ele>370.24</ele>
        <time>2011-12-30T10:45:48Z</time>
      </trkpt>
      <trkpt lat="11.53744" lon="42.83556">
        <ele>370.73</ele>
        <time>2011-12-30T10:45:57Z</time>
      </trkpt>
      <trkpt lat="11.53739" lon="42.83557">
        <ele>366.88</ele>
        <time>2011-12-30T10:46:01Z</time>
      </trkpt>
      <trkpt lat="11.53739" lon="42.83557">
        <ele>370.24</ele>
        <time>2011-12-30T10:46:02Z</time>
      </trkpt>
      <trkpt lat="11.53733" lon="42.83562">
        <ele>367.36</ele>
        <time>2011-12-30T10:46:10Z</time>
      </trkpt>
      <trkpt lat="11.53732" lon="42.83563">
        <ele>370.73</ele>
        <time>2011-12-30T10:46:11Z</time>
      </trkpt>
      <trkpt lat="11.53732" lon="42.83563">
        <ele>371.21</ele>
        <time>2011-12-30T10:46:12Z</time>
      </trkpt>
      <trkpt lat="11.53727" lon="42.83567">
        <ele>366.4</ele>
        <time>2011-12-30T10:46:23Z</time>
      </trkpt>
      <trkpt lat="11.53727" lon="42.83568">
        <ele>372.17</ele>
        <time>2011-12-30T10:46:24Z</time>
      </trkpt>
      <trkpt lat="11.53725" lon="42.83571">
        <ele>367.36</ele>
        <time>2011-12-30T10:46:27Z</time>
      </trkpt>
      <trkpt lat="11.53724" lon="42.83572">
        <ele>367.36</ele>
        <time>2011-12-30T10:46:28Z</time>
      </trkpt>
      <trkpt lat="11.53724" lon="42.83572">
        <ele>371.69</ele>
        <time>2011-12-30T10:46:29Z</time>
      </trkpt>
      <trkpt lat="11.53723" lon="42.83573">
        <ele>371.69</ele>
        <time>2011-12-30T10:46:30Z</time>
      </trkpt>
      <trkpt lat="11.53722" lon="42.83574">
        <ele>371.69</ele>
        <time>2011-12-30T10:46:32Z</time>
      </trkpt>
      <trkpt lat="11.53718" lon="42.83577">
        <ele>357.75</ele>
        <time>2011-12-30T10:46:38Z</time>
      </trkpt>
      <trkpt lat="11.53718" lon="42.83578">
        <ele>369.76</ele>
        <time>2011-12-30T10:46:39Z</time>
      </trkpt>
      <trkpt lat="11.53717" lon="42.83579">
        <ele>368.32</ele>
        <time>2011-12-30T10:46:41Z</time>
      </trkpt>
      <trkpt lat="11.53716" lon="42.8358">
        <ele>372.17</ele>
        <time>2011-12-30T10:46:42Z</time>
      </trkpt>
      <trkpt lat="11.53716" lon="42.83582">
        <ele>369.28</ele>
        <time>2011-12-30T10:46:50Z</time>
      </trkpt>
      <trkpt lat="11.53715" lon="42.83582">
        <ele>373.61</ele>
        <time>2011-12-30T10:46:51Z</time>
      </trkpt>
      <trkpt lat="11.53716" lon="42.83582">
        <ele>372.65</ele>
        <time>2011-12-30T10:47:42Z</time>
      </trkpt>
      <trkpt lat="11.53716" lon="42.83583">
        <ele>372.17</ele>
        <time>2011-12-30T10:48:36Z</time>
      </trkpt>
      <trkpt lat="11.53715" lon="42.83583">
        <ele>372.65</ele>
        <time>2011-12-30T10:49:13Z</time>
      </trkpt>
      <trkpt lat="11.53715" lon="42.83583">
        <ele>372.17</ele>
        <time>2011-12-30T10:49:40Z</time>
      </trkpt>
      <trkpt lat="11.53714" lon="42.83585">
        <ele>376.01</ele>
        <time>2011-12-30T10:50:36Z</time>
      </trkpt>
      <trkpt lat="11.53714" lon="42.83586">
        <ele>369.76</ele>
        <time>2011-12-30T10:50:37Z</time>
      </trkpt>
      <trkpt lat="11.53713" lon="42.83587">
        <ele>373.13</ele>
        <time>2011-12-30T10:50:38Z</time>
      </trkpt>
      <trkpt lat="11.53711" lon="42.83588">
        <ele>377.45</ele>
        <time>2011-12-30T10:50:41Z</time>
      </trkpt>
      <trkpt lat="11.5371" lon="42.83589">
        <ele>370.73</ele>
        <time>2011-12-30T10:50:42Z</time>
      </trkpt>
      <trkpt lat="11.53708" lon="42.8359">
        <ele>370.73</ele>
        <time>2011-12-30T10:50:45Z</time>
      </trkpt>
      <trkpt lat="11.53707" lon="42.83591">
        <ele>374.09</ele>
        <time>2011-12-30T10:50:46Z</time>
      </trkpt>
      <trkpt lat="11.53707" lon="42.83592">
        <ele>370.73</ele>
        <time>2011-12-30T10:50:47Z</time>
      </trkpt>
      <trkpt lat="11.53706" lon="42.83592">
        <ele>374.57</ele>
        <time>2011-12-30T10:50:48Z</time>
      </trkpt>
      <trkpt lat="11.537" lon="42.83596">
        <ele>372.65</ele>
        <time>2011-12-30T10:50:58Z</time>
      </trkpt>
      <trkpt lat="11.53698" lon="42.83596">
        <ele>377.94</ele>
        <time>2011-12-30T10:51:00Z</time>
      </trkpt>
      <trkpt lat="11.53697" lon="42.83595">
        <ele>372.65</ele>
        <time>2011-12-30T10:51:01Z</time>
      </trkpt>
      <trkpt lat="11.53697" lon="42.83595">
        <ele>375.53</ele>
        <time>2011-12-30T10:51:02Z</time>
      </trkpt>
      <trkpt lat="11.53695" lon="42.83594">
        <ele>376.49</ele>
        <time>2011-12-30T10:51:04Z</time>
      </trkpt>
      <trkpt lat="11.53694" lon="42.83594">
        <ele>375.53</ele>
        <time>2011-12-30T10:51:05Z</time>
      </trkpt>
      <trkpt lat="11.53693" lon="42.83593">
        <ele>378.9</ele>
        <time>2011-12-30T10:51:07Z</time>
      </trkpt>
      <trkpt lat="11.53693" lon="42.83593">
        <ele>373.61</ele>
        <time>2011-12-30T10:51:08Z</time>
      </trkpt>
      <trkpt lat="11.53692" lon="42.83592">
        <ele>376.97</ele>
        <time>2011-12-30T10:51:09Z</time>
      </trkpt>
      <trkpt lat="11.53691" lon="42.83592">
        <ele>369.76</ele>
        <time>2011-12-30T10:51:10Z</time>
      </trkpt>
      <trkpt lat="11.53689" lon="42.83591">
        <ele>377.45</ele>
        <time>2011-12-30T10:51:12Z</time>
      </trkpt>
      <trkpt lat="11.53688" lon="42.83591">
        <ele>376.01</ele>
        <time>2011-12-30T10:51:13Z</time>
      </trkpt>
      <trkpt lat="11.53687" lon="42.83591">
        <ele>372.17</ele>
        <time>2011-12-30T10:51:14Z</time>
      </trkpt>
      <trkpt lat="11.53686" lon="42.8359">
        <ele>376.97</ele>
        <time>2011-12-30T10:51:15Z</time>
      </trkpt>
      <trkpt lat="11.53683" lon="42.83589">
        <ele>375.53</ele>
        <time>2011-12-30T10:51:18Z</time>
      </trkpt>
      <trkpt lat="11.53682" lon="42.83587">
        <ele>378.42</ele>
        <time>2011-12-30T10:51:21Z</time>
      </trkpt>
      <trkpt lat="11.53681" lon="42.83587">
        <ele>372.17</ele>
        <time>2011-12-30T10:51:22Z</time>
      </trkpt>
      <trkpt lat="11.53678" lon="42.83586">
        <ele>372.65</ele>
        <time>2011-12-30T10:51:25Z</time>
      </trkpt>
      <trkpt lat="11.53676" lon="42.83585">
        <ele>379.38</ele>
        <time>2011-12-30T10:51:27Z</time>
      </trkpt>
      <trkpt lat="11.53675" lon="42.83585">
        <ele>374.09</ele>
        <time>2011-12-30T10:51:28Z</time>
      </trkpt>
      <trkpt lat="11.53674" lon="42.83585">
        <ele>373.13</ele>
        <time>2011-12-30T10:51:30Z</time>
      </trkpt>
      <trkpt lat="11.53673" lon="42.83585">
        <ele>376.97</ele>
        <time>2011-12-30T10:51:31Z</time>
      </trkpt>
      <trkpt lat="11.5367" lon="42.83584">
        <ele>376.49</ele>
        <time>2011-12-30T10:51:34Z</time>
      </trkpt>
      <trkpt lat="11.53669" lon="42.83583">
        <ele>371.69</ele>
        <time>2011-12-30T10:51:36Z</time>
      </trkpt>
      <trkpt lat="11.53668" lon="42.83582">
        <ele>375.05</ele>
        <time>2011-12-30T10:51:37Z</time>
      </trkpt>
      <trkpt lat="11.53667" lon="42.8358">
        <ele>376.49</ele>
        <time>2011-12-30T10:51:39Z</time>
      </trkpt>
      <trkpt lat="11.53666" lon="42.8358">
        <ele>372.17</ele>
        <time>2011-12-30T10:51:40Z</time>
      </trkpt>
      <trkpt lat="11.53666" lon="42.8358">
        <ele>375.53</ele>
        <time>2011-12-30T10:51:41Z</time>
      </trkpt>
      <trkpt lat="11.53665" lon="42.83579">
        <ele>377.45</ele>
        <time>2011-12-30T10:51:42Z</time>
      </trkpt>
      <trkpt lat="11.53663" lon="42.83579">
        <ele>372.65</ele>
        <time>2011-12-30T10:51:44Z</time>
      </trkpt>
      <trkpt lat="11.53662" lon="42.83579">
        <ele>376.49</ele>
        <time>2011-12-30T10:51:45Z</time>
      </trkpt>
      <trkpt lat="11.5366" lon="42.83578">
        <ele>378.42</ele>
        <time>2011-12-30T10:51:47Z</time>
      </trkpt>
      <trkpt lat="11.53659" lon="42.83577">
        <ele>375.53</ele>
        <time>2011-12-30T10:51:49Z</time>
      </trkpt>
      <trkpt lat="11.53658" lon="42.83577">
        <ele>379.86</ele>
        <time>2011-12-30T10:51:50Z</time>
      </trkpt>
      <trkpt lat="11.53648" lon="42.83572">
        <ele>374.09</ele>
        <time>2011-12-30T10:52:01Z</time>
      </trkpt>
      <trkpt lat="11.53648" lon="42.83572">
        <ele>378.42</ele>
        <time>2011-12-30T10:52:02Z</time>
      </trkpt>
      <trkpt lat="11.53646" lon="42.8357">
        <ele>382.74</ele>
        <time>2011-12-30T10:52:04Z</time>
      </trkpt>
      <trkpt lat="11.53645" lon="42.8357">
        <ele>374.57</ele>
        <time>2011-12-30T10:52:05Z</time>
      </trkpt>
      <trkpt lat="11.53644" lon="42.8357">
        <ele>378.42</ele>
        <time>2011-12-30T10:52:06Z</time>
      </trkpt>
      <trkpt lat="11.53642" lon="42.8357">
        <ele>377.94</ele>
        <time>2011-12-30T10:52:08Z</time>
      </trkpt>
      <trkpt lat="11.53641" lon="42.83569">
        <ele>374.09</ele>
        <time>2011-12-30T10:52:09Z</time>
      </trkpt>
      <trkpt lat="11.5364" lon="42.83569">
        <ele>378.42</ele>
        <time>2011-12-30T10:52:10Z</time>
      </trkpt>
      <trkpt lat="11.53639" lon="42.83569">
        <ele>382.26</ele>
        <time>2011-12-30T10:52:11Z</time>
      </trkpt>
      <trkpt lat="11.53638" lon="42.83569">
        <ele>376.49</ele>
        <time>2011-12-30T10:52:12Z</time>
      </trkpt>
      <trkpt lat="11.53636" lon="42.83569">
        <ele>379.86</ele>
        <time>2011-12-30T10:52:14Z</time>
      </trkpt>
      <trkpt lat="11.53629" lon="42.83569">
        <ele>381.3</ele>
        <time>2011-12-30T10:52:22Z</time>
      </trkpt>
      <trkpt lat="11.53627" lon="42.83569">
        <ele>379.38</ele>
        <time>2011-12-30T10:52:24Z</time>
      </trkpt>
      <trkpt lat="11.53625" lon="42.83571">
        <ele>383.7</ele>
        <time>2011-12-30T10:52:32Z</time>
      </trkpt>
      <trkpt lat="11.53624" lon="42.83571">
        <ele>379.86</ele>
        <time>2011-12-30T10:52:34Z</time>
      </trkpt>
      <trkpt lat="11.5362" lon="42.83573">
        <ele>383.7</ele>
        <time>2011-12-30T10:52:39Z</time>
      </trkpt>
      <trkpt lat="11.53619" lon="42.83574">
        <ele>378.9</ele>
        <time>2011-12-30T10:52:41Z</time>
      </trkpt>
      <trkpt lat="11.53618" lon="42.83575">
        <ele>381.3</ele>
        <time>2011-12-30T10:52:42Z</time>
      </trkpt>
      <trkpt lat="11.53617" lon="42.83576">
        <ele>377.45</ele>
        <time>2011-12-30T10:52:44Z</time>
      </trkpt>
      <trkpt lat="11.53616" lon="42.83577">
        <ele>378.42</ele>
        <time>2011-12-30T10:52:45Z</time>
      </trkpt>
      <trkpt lat="11.53615" lon="42.83579">
        <ele>386.59</ele>
        <time>2011-12-30T10:52:47Z</time>
      </trkpt>
      <trkpt lat="11.53614" lon="42.83579">
        <ele>377.94</ele>
        <time>2011-12-30T10:52:48Z</time>
      </trkpt>
      <trkpt lat="11.53613" lon="42.8358">
        <ele>379.38</ele>
        <time>2011-12-30T10:52:49Z</time>
      </trkpt>
      <trkpt lat="11.53613" lon="42.83581">
        <ele>382.26</ele>
        <time>2011-12-30T10:52:50Z</time>
      </trkpt>
      <trkpt lat="11.53612" lon="42.83582">
        <ele>381.3</ele>
        <time>2011-12-30T10:52:51Z</time>
      </trkpt>
      <trkpt lat="11.53611" lon="42.83584">
        <ele>376.97</ele>
        <time>2011-12-30T10:53:01Z</time>
      </trkpt>
      <trkpt lat="11.53611" lon="42.83584">
        <ele>381.78</ele>
        <time>2011-12-30T10:53:02Z</time>
      </trkpt>
      <trkpt lat="11.53611" lon="42.83586">
        <ele>378.9</ele>
        <time>2011-12-30T10:53:04Z</time>
      </trkpt>
      <trkpt lat="11.53611" lon="42.83587">
        <ele>382.26</ele>
        <time>2011-12-30T10:53:05Z</time>
      </trkpt>
      <trkpt lat="11.53611" lon="42.83588">
        <ele>382.26</ele>
        <time>2011-12-30T10:53:06Z</time>
      </trkpt>
      <trkpt lat="11.5361" lon="42.83588">
        <ele>382.26</ele>
        <time>2011-12-30T10:53:07Z</time>
      </trkpt>
      <trkpt lat="11.53603" lon="42.83598">
        <ele>383.7</ele>
        <time>2011-12-30T10:53:20Z</time>
      </trkpt>
      <trkpt lat="11.53601" lon="42.83599">
        <ele>382.74</ele>
        <time>2011-12-30T10:53:22Z</time>
      </trkpt>
      <trkpt lat="11.53599" lon="42.83599">
        <ele>385.15</ele>
        <time>2011-12-30T10:53:25Z</time>
      </trkpt>
      <trkpt lat="11.53597" lon="42.836">
        <ele>383.22</ele>
        <time>2011-12-30T10:53:28Z</time>
      </trkpt>
      <trkpt lat="11.53595" lon="42.83601">
        <ele>384.18</ele>
        <time>2011-12-30T10:53:30Z</time>
      </trkpt>
      <trkpt lat="11.53587" lon="42.83603">
        <ele>383.7</ele>
        <time>2011-12-30T10:53:40Z</time>
      </trkpt>
      <trkpt lat="11.53581" lon="42.83606">
        <ele>385.15</ele>
        <time>2011-12-30T10:53:47Z</time>
      </trkpt>
      <trkpt lat="11.53576" lon="42.83613">
        <ele>383.22</ele>
        <time>2011-12-30T10:53:55Z</time>
      </trkpt>
      <trkpt lat="11.53574" lon="42.83619">
        <ele>386.59</ele>
        <time>2011-12-30T10:54:01Z</time>
      </trkpt>
      <trkpt lat="11.53572" lon="42.83622">
        <ele>385.15</ele>
        <time>2011-12-30T10:54:08Z</time>
      </trkpt>
      <trkpt lat="11.5357" lon="42.83628">
        <ele>386.11</ele>
        <time>2011-12-30T10:54:23Z</time>
      </trkpt>
      <trkpt lat="11.53566" lon="42.83635">
        <ele>387.55</ele>
        <time>2011-12-30T10:54:38Z</time>
      </trkpt>
      <trkpt lat="11.53564" lon="42.83642">
        <ele>384.66</ele>
        <time>2011-12-30T10:54:48Z</time>
      </trkpt>
      <trkpt lat="11.53563" lon="42.83642">
        <ele>387.55</ele>
        <time>2011-12-30T10:54:49Z</time>
      </trkpt>
      <trkpt lat="11.53563" lon="42.83643">
        <ele>386.59</ele>
        <time>2011-12-30T10:54:50Z</time>
      </trkpt>
      <trkpt lat="11.53561" lon="42.83646">
        <ele>391.87</ele>
        <time>2011-12-30T10:54:56Z</time>
      </trkpt>
      <trkpt lat="11.53561" lon="42.83646">
        <ele>386.59</ele>
        <time>2011-12-30T10:54:57Z</time>
      </trkpt>
      <trkpt lat="11.53559" lon="42.8365">
        <ele>390.43</ele>
        <time>2011-12-30T10:55:01Z</time>
      </trkpt>
      <trkpt lat="11.53557" lon="42.83653">
        <ele>385.63</ele>
        <time>2011-12-30T10:55:05Z</time>
      </trkpt>
      <trkpt lat="11.53557" lon="42.83656">
        <ele>388.99</ele>
        <time>2011-12-30T10:55:07Z</time>
      </trkpt>
      <trkpt lat="11.53557" lon="42.83657">
        <ele>388.51</ele>
        <time>2011-12-30T10:55:08Z</time>
      </trkpt>
      <trkpt lat="11.53557" lon="42.83657">
        <ele>388.51</ele>
        <time>2011-12-30T10:55:10Z</time>
      </trkpt>
      <trkpt lat="11.53555" lon="42.8366">
        <ele>385.63</ele>
        <time>2011-12-30T10:55:12Z</time>
      </trkpt>
      <trkpt lat="11.53555" lon="42.8366">
        <ele>388.51</ele>
        <time>2011-12-30T10:55:13Z</time>
      </trkpt>
      <trkpt lat="11.53553" lon="42.83666">
        <ele>392.84</ele>
        <time>2011-12-30T10:55:21Z</time>
      </trkpt>
      <trkpt lat="11.53553" lon="42.83667">
        <ele>388.03</ele>
        <time>2011-12-30T10:55:22Z</time>
      </trkpt>
      <trkpt lat="11.53552" lon="42.83669">
        <ele>390.91</ele>
        <time>2011-12-30T10:55:24Z</time>
      </trkpt>
      <trkpt lat="11.53552" lon="42.8367">
        <ele>386.59</ele>
        <time>2011-12-30T10:55:25Z</time>
      </trkpt>
      <trkpt lat="11.53552" lon="42.83671">
        <ele>389.95</ele>
        <time>2011-12-30T10:55:26Z</time>
      </trkpt>
      <trkpt lat="11.53553" lon="42.8368">
        <ele>389.47</ele>
        <time>2011-12-30T10:55:35Z</time>
      </trkpt>
      <trkpt lat="11.53549" lon="42.83689">
        <ele>390.43</ele>
        <time>2011-12-30T10:55:45Z</time>
      </trkpt>
      <trkpt lat="11.53543" lon="42.83699">
        <ele>390.91</ele>
        <time>2011-12-30T10:55:57Z</time>
      </trkpt>
      <trkpt lat="11.53536" lon="42.83703">
        <ele>391.87</ele>
        <time>2011-12-30T10:56:07Z</time>
      </trkpt>
      <trkpt lat="11.53528" lon="42.83708">
        <ele>394.28</ele>
        <time>2011-12-30T10:56:23Z</time>
      </trkpt>
      <trkpt lat="11.53527" lon="42.83709">
        <ele>393.8</ele>
        <time>2011-12-30T10:56:24Z</time>
      </trkpt>
      <trkpt lat="11.53518" lon="42.83716">
        <ele>389.95</ele>
        <time>2011-12-30T10:56:34Z</time>
      </trkpt>
      <trkpt lat="11.53517" lon="42.83717">
        <ele>393.32</ele>
        <time>2011-12-30T10:56:35Z</time>
      </trkpt>
      <trkpt lat="11.53514" lon="42.83724">
        <ele>391.39</ele>
        <time>2011-12-30T10:56:43Z</time>
      </trkpt>
      <trkpt lat="11.53512" lon="42.83726">
        <ele>394.76</ele>
        <time>2011-12-30T10:56:46Z</time>
      </trkpt>
      <trkpt lat="11.53506" lon="42.83732">
        <ele>394.76</ele>
        <time>2011-12-30T10:56:55Z</time>
      </trkpt>
      <trkpt lat="11.53502" lon="42.83734">
        <ele>392.84</ele>
        <time>2011-12-30T10:56:58Z</time>
      </trkpt>
      <trkpt lat="11.535" lon="42.83736">
        <ele>394.76</ele>
        <time>2011-12-30T10:57:00Z</time>
      </trkpt>
      <trkpt lat="11.535" lon="42.83738">
        <ele>390.43</ele>
        <time>2011-12-30T10:57:02Z</time>
      </trkpt>
      <trkpt lat="11.535" lon="42.83739">
        <ele>395.24</ele>
        <time>2011-12-30T10:57:03Z</time>
      </trkpt>
      <trkpt lat="11.53499" lon="42.83746">
        <ele>395.72</ele>
        <time>2011-12-30T10:57:11Z</time>
      </trkpt>
      <trkpt lat="11.53497" lon="42.8375">
        <ele>396.2</ele>
        <time>2011-12-30T10:57:23Z</time>
      </trkpt>
      <trkpt lat="11.535" lon="42.83754">
        <ele>397.16</ele>
        <time>2011-12-30T10:57:31Z</time>
      </trkpt>
      <trkpt lat="11.53502" lon="42.83756">
        <ele>391.39</ele>
        <time>2011-12-30T10:57:34Z</time>
      </trkpt>
      <trkpt lat="11.53502" lon="42.83757">
        <ele>398.12</ele>
        <time>2011-12-30T10:57:35Z</time>
      </trkpt>
      <trkpt lat="11.53502" lon="42.8376">
        <ele>398.12</ele>
        <time>2011-12-30T10:57:38Z</time>
      </trkpt>
      <trkpt lat="11.53498" lon="42.83769">
        <ele>400.53</ele>
        <time>2011-12-30T10:57:49Z</time>
      </trkpt>
      <trkpt lat="11.53498" lon="42.8377">
        <ele>398.6</ele>
        <time>2011-12-30T10:57:50Z</time>
      </trkpt>
      <trkpt lat="11.53497" lon="42.83773">
        <ele>396.68</ele>
        <time>2011-12-30T10:57:53Z</time>
      </trkpt>
      <trkpt lat="11.53494" lon="42.83779">
        <ele>399.08</ele>
        <time>2011-12-30T10:58:03Z</time>
      </trkpt>
      <trkpt lat="11.53494" lon="42.83779">
        <ele>393.8</ele>
        <time>2011-12-30T10:58:05Z</time>
      </trkpt>
      <trkpt lat="11.53494" lon="42.83779">
        <ele>396.68</ele>
        <time>2011-12-30T10:58:06Z</time>
      </trkpt>
      <trkpt lat="11.53494" lon="42.83781">
        <ele>401.01</ele>
        <time>2011-12-30T10:58:08Z</time>
      </trkpt>
      <trkpt lat="11.53494" lon="42.83783">
        <ele>397.16</ele>
        <time>2011-12-30T10:58:10Z</time>
      </trkpt>
      <trkpt lat="11.53494" lon="42.83783">
        <ele>399.57</ele>
        <time>2011-12-30T10:58:11Z</time>
      </trkpt>
      <trkpt lat="11.53492" lon="42.83787">
        <ele>404.37</ele>
        <time>2011-12-30T10:58:20Z</time>
      </trkpt>
      <trkpt lat="11.53491" lon="42.83789">
        <ele>400.05</ele>
        <time>2011-12-30T10:58:21Z</time>
      </trkpt>
      <trkpt lat="11.5349" lon="42.83792">
        <ele>402.45</ele>
        <time>2011-12-30T10:58:37Z</time>
      </trkpt>
      <trkpt lat="11.5349" lon="42.83794">
        <ele>401.49</ele>
        <time>2011-12-30T10:59:10Z</time>
      </trkpt>
      <trkpt lat="11.53489" lon="42.83796">
        <ele>397.64</ele>
        <time>2011-12-30T10:59:12Z</time>
      </trkpt>
      <trkpt lat="11.53486" lon="42.83799">
        <ele>398.6</ele>
        <time>2011-12-30T10:59:15Z</time>
      </trkpt>
      <trkpt lat="11.53486" lon="42.83799">
        <ele>398.6</ele>
        <time>2011-12-30T10:59:16Z</time>
      </trkpt>
      <trkpt lat="11.53484" lon="42.83801">
        <ele>404.85</ele>
        <time>2011-12-30T10:59:18Z</time>
      </trkpt>
      <trkpt lat="11.53483" lon="42.83802">
        <ele>402.93</ele>
        <time>2011-12-30T10:59:19Z</time>
      </trkpt>
      <trkpt lat="11.53483" lon="42.83802">
        <ele>399.08</ele>
        <time>2011-12-30T10:59:20Z</time>
      </trkpt>
      <trkpt lat="11.53483" lon="42.83803">
        <ele>402.45</ele>
        <time>2011-12-30T10:59:21Z</time>
      </trkpt>
      <trkpt lat="11.53479" lon="42.83807">
        <ele>401.97</ele>
        <time>2011-12-30T10:59:27Z</time>
      </trkpt>
      <trkpt lat="11.53479" lon="42.83808">
        <ele>404.85</ele>
        <time>2011-12-30T10:59:28Z</time>
      </trkpt>
      <trkpt lat="11.53478" lon="42.83808">
        <ele>403.89</ele>
        <time>2011-12-30T10:59:29Z</time>
      </trkpt>
      <trkpt lat="11.53475" lon="42.8381">
        <ele>404.37</ele>
        <time>2011-12-30T10:59:40Z</time>
      </trkpt>
      <trkpt lat="11.5347" lon="42.83815">
        <ele>405.33</ele>
        <time>2011-12-30T10:59:57Z</time>
      </trkpt>
      <trkpt lat="11.53467" lon="42.83817">
        <ele>403.89</ele>
        <time>2011-12-30T11:00:00Z</time>
      </trkpt>
      <trkpt lat="11.53462" lon="42.83819">
        <ele>403.89</ele>
        <time>2011-12-30T11:00:05Z</time>
      </trkpt>
      <trkpt lat="11.53461" lon="42.83821">
        <ele>400.53</ele>
        <time>2011-12-30T11:00:09Z</time>
      </trkpt>
      <trkpt lat="11.5346" lon="42.83822">
        <ele>405.81</ele>
        <time>2011-12-30T11:00:10Z</time>
      </trkpt>
      <trkpt lat="11.53455" lon="42.83826">
        <ele>398.12</ele>
        <time>2011-12-30T11:00:18Z</time>
      </trkpt>
      <trkpt lat="11.53454" lon="42.83826">
        <ele>414.95</ele>
        <time>2011-12-30T11:00:19Z</time>
      </trkpt>
      <trkpt lat="11.53454" lon="42.83827">
        <ele>406.29</ele>
        <time>2011-12-30T11:00:20Z</time>
      </trkpt>
      <trkpt lat="11.53452" lon="42.83828">
        <ele>407.74</ele>
        <time>2011-12-30T11:00:23Z</time>
      </trkpt>
      <trkpt lat="11.53451" lon="42.83828">
        <ele>403.89</ele>
        <time>2011-12-30T11:00:24Z</time>
      </trkpt>
      <trkpt lat="11.5345" lon="42.83828">
        <ele>405.33</ele>
        <time>2011-12-30T11:00:25Z</time>
      </trkpt>
      <trkpt lat="11.53448" lon="42.83828">
        <ele>407.74</ele>
        <time>2011-12-30T11:00:27Z</time>
      </trkpt>
      <trkpt lat="11.53447" lon="42.83828">
        <ele>408.7</ele>
        <time>2011-12-30T11:00:28Z</time>
      </trkpt>
      <trkpt lat="11.53445" lon="42.83829">
        <ele>408.7</ele>
        <time>2011-12-30T11:00:30Z</time>
      </trkpt>
      <trkpt lat="11.53442" lon="42.83831">
        <ele>410.14</ele>
        <time>2011-12-30T11:00:39Z</time>
      </trkpt>
      <trkpt lat="11.53443" lon="42.83831">
        <ele>414.95</ele>
        <time>2011-12-30T11:00:43Z</time>
      </trkpt>
      <trkpt lat="11.53443" lon="42.83831">
        <ele>403.89</ele>
        <time>2011-12-30T11:00:44Z</time>
      </trkpt>
      <trkpt lat="11.53444" lon="42.83831">
        <ele>407.74</ele>
        <time>2011-12-30T11:00:45Z</time>
      </trkpt>
      <trkpt lat="11.53444" lon="42.83831">
        <ele>412.54</ele>
        <time>2011-12-30T11:00:46Z</time>
      </trkpt>
      <trkpt lat="11.53445" lon="42.83833">
        <ele>408.7</ele>
        <time>2011-12-30T11:00:49Z</time>
      </trkpt>
      <trkpt lat="11.53445" lon="42.83833">
        <ele>412.06</ele>
        <time>2011-12-30T11:00:50Z</time>
      </trkpt>
      <trkpt lat="11.53443" lon="42.83835">
        <ele>416.39</ele>
        <time>2011-12-30T11:00:55Z</time>
      </trkpt>
      <trkpt lat="11.53443" lon="42.83836">
        <ele>409.66</ele>
        <time>2011-12-30T11:00:56Z</time>
      </trkpt>
      <trkpt lat="11.53441" lon="42.83837">
        <ele>415.43</ele>
        <time>2011-12-30T11:00:59Z</time>
      </trkpt>
      <trkpt lat="11.53443" lon="42.83842">
        <ele>415.43</ele>
        <time>2011-12-30T11:01:06Z</time>
      </trkpt>
      <trkpt lat="11.53442" lon="42.83844">
        <ele>410.14</ele>
        <time>2011-12-30T11:01:08Z</time>
      </trkpt>
      <trkpt lat="11.53442" lon="42.83844">
        <ele>417.83</ele>
        <time>2011-12-30T11:01:09Z</time>
      </trkpt>
      <trkpt lat="11.53442" lon="42.83845">
        <ele>413.98</ele>
        <time>2011-12-30T11:01:11Z</time>
      </trkpt>
      <trkpt lat="11.53442" lon="42.83846">
        <ele>418.31</ele>
        <time>2011-12-30T11:01:12Z</time>
      </trkpt>
      <trkpt lat="11.53443" lon="42.83848">
        <ele>421.19</ele>
        <time>2011-12-30T11:01:14Z</time>
      </trkpt>
      <trkpt lat="11.53443" lon="42.83848">
        <ele>417.83</ele>
        <time>2011-12-30T11:01:15Z</time>
      </trkpt>
      <trkpt lat="11.53443" lon="42.83849">
        <ele>420.23</ele>
        <time>2011-12-30T11:01:16Z</time>
      </trkpt>
      <trkpt lat="11.53443" lon="42.83849">
        <ele>417.35</ele>
        <time>2011-12-30T11:01:17Z</time>
      </trkpt>
      <trkpt lat="11.53442" lon="42.8385">
        <ele>421.68</ele>
        <time>2011-12-30T11:01:19Z</time>
      </trkpt>
      <trkpt lat="11.53441" lon="42.83851">
        <ele>419.75</ele>
        <time>2011-12-30T11:01:38Z</time>
      </trkpt>
      <trkpt lat="11.53441" lon="42.83851">
        <ele>424.08</ele>
        <time>2011-12-30T11:01:54Z</time>
      </trkpt>
      <trkpt lat="11.53441" lon="42.83852">
        <ele>419.27</ele>
        <time>2011-12-30T11:01:55Z</time>
      </trkpt>
      <trkpt lat="11.5344" lon="42.83853">
        <ele>423.12</ele>
        <time>2011-12-30T11:01:56Z</time>
      </trkpt>
      <trkpt lat="11.53439" lon="42.83854">
        <ele>419.75</ele>
        <time>2011-12-30T11:01:59Z</time>
      </trkpt>
      <trkpt lat="11.53437" lon="42.83855">
        <ele>420.71</ele>
        <time>2011-12-30T11:02:28Z</time>
      </trkpt>
      <trkpt lat="11.53437" lon="42.83855">
        <ele>420.71</ele>
        <time>2011-12-30T11:02:38Z</time>
      </trkpt>
      <trkpt lat="11.53437" lon="42.83855">
        <ele>420.71</ele>
        <time>2011-12-30T11:03:04Z</time>
      </trkpt>
      <trkpt lat="11.53435" lon="42.83856">
        <ele>417.35</ele>
        <time>2011-12-30T11:04:28Z</time>
      </trkpt>
      <trkpt lat="11.53435" lon="42.83857">
        <ele>420.71</ele>
        <time>2011-12-30T11:04:29Z</time>
      </trkpt>
      <trkpt lat="11.53433" lon="42.83857">
        <ele>421.19</ele>
        <time>2011-12-30T11:05:08Z</time>
      </trkpt>
      <trkpt lat="11.53431" lon="42.83857">
        <ele>413.5</ele>
        <time>2011-12-30T11:05:10Z</time>
      </trkpt>
      <trkpt lat="11.5343" lon="42.83858">
        <ele>421.19</ele>
        <time>2011-12-30T11:05:11Z</time>
      </trkpt>
      <trkpt lat="11.53429" lon="42.83859">
        <ele>422.16</ele>
        <time>2011-12-30T11:05:13Z</time>
      </trkpt>
      <trkpt lat="11.53424" lon="42.83861">
        <ele>425.04</ele>
        <time>2011-12-30T11:05:21Z</time>
      </trkpt>
      <trkpt lat="11.53423" lon="42.83862">
        <ele>415.43</ele>
        <time>2011-12-30T11:05:22Z</time>
      </trkpt>
      <trkpt lat="11.53423" lon="42.83862">
        <ele>425.04</ele>
        <time>2011-12-30T11:05:23Z</time>
      </trkpt>
      <trkpt lat="11.53422" lon="42.83862">
        <ele>411.58</ele>
        <time>2011-12-30T11:05:24Z</time>
      </trkpt>
      <trkpt lat="11.53421" lon="42.83862">
        <ele>427.44</ele>
        <time>2011-12-30T11:05:25Z</time>
      </trkpt>
      <trkpt lat="11.53419" lon="42.83863">
        <ele>413.98</ele>
        <time>2011-12-30T11:05:27Z</time>
      </trkpt>
      <trkpt lat="11.53419" lon="42.83863">
        <ele>425.04</ele>
        <time>2011-12-30T11:05:28Z</time>
      </trkpt>
      <trkpt lat="11.53418" lon="42.83864">
        <ele>416.39</ele>
        <time>2011-12-30T11:05:29Z</time>
      </trkpt>
      <trkpt lat="11.53418" lon="42.83864">
        <ele>424.56</ele>
        <time>2011-12-30T11:05:30Z</time>
      </trkpt>
      <trkpt lat="11.53417" lon="42.83865">
        <ele>417.83</ele>
        <time>2011-12-30T11:05:32Z</time>
      </trkpt>
      <trkpt lat="11.53417" lon="42.83865">
        <ele>426.48</ele>
        <time>2011-12-30T11:05:33Z</time>
      </trkpt>
      <trkpt lat="11.53415" lon="42.83867">
        <ele>431.29</ele>
        <time>2011-12-30T11:05:35Z</time>
      </trkpt>
      <trkpt lat="11.53415" lon="42.83867">
        <ele>427.44</ele>
        <time>2011-12-30T11:05:36Z</time>
      </trkpt>
      <trkpt lat="11.53411" lon="42.83869">
        <ele>431.29</ele>
        <time>2011-12-30T11:05:39Z</time>
      </trkpt>
      <trkpt lat="11.53411" lon="42.8387">
        <ele>428.4</ele>
        <time>2011-12-30T11:05:40Z</time>
      </trkpt>
      <trkpt lat="11.53408" lon="42.83874">
        <ele>432.73</ele>
        <time>2011-12-30T11:05:44Z</time>
      </trkpt>
      <trkpt lat="11.53407" lon="42.83875">
        <ele>429.85</ele>
        <time>2011-12-30T11:05:45Z</time>
      </trkpt>
      <trkpt lat="11.53404" lon="42.83884">
        <ele>430.33</ele>
        <time>2011-12-30T11:05:54Z</time>
      </trkpt>
      <trkpt lat="11.53402" lon="42.83886">
        <ele>432.25</ele>
        <time>2011-12-30T11:05:56Z</time>
      </trkpt>
      <trkpt lat="11.53402" lon="42.83887">
        <ele>427.44</ele>
        <time>2011-12-30T11:05:57Z</time>
      </trkpt>
      <trkpt lat="11.534" lon="42.83888">
        <ele>430.81</ele>
        <time>2011-12-30T11:05:59Z</time>
      </trkpt>
      <trkpt lat="11.534" lon="42.83889">
        <ele>434.65</ele>
        <time>2011-12-30T11:06:00Z</time>
      </trkpt>
      <trkpt lat="11.534" lon="42.8389">
        <ele>422.16</ele>
        <time>2011-12-30T11:06:01Z</time>
      </trkpt>
      <trkpt lat="11.53399" lon="42.83891">
        <ele>428.4</ele>
        <time>2011-12-30T11:06:02Z</time>
      </trkpt>
      <trkpt lat="11.53398" lon="42.83892">
        <ele>438.02</ele>
        <time>2011-12-30T11:06:03Z</time>
      </trkpt>
      <trkpt lat="11.53398" lon="42.83893">
        <ele>432.25</ele>
        <time>2011-12-30T11:06:04Z</time>
      </trkpt>
      <trkpt lat="11.53397" lon="42.83893">
        <ele>421.19</ele>
        <time>2011-12-30T11:06:05Z</time>
      </trkpt>
      <trkpt lat="11.53397" lon="42.83894">
        <ele>428.89</ele>
        <time>2011-12-30T11:06:06Z</time>
      </trkpt>
      <trkpt lat="11.53396" lon="42.83896">
        <ele>423.6</ele>
        <time>2011-12-30T11:06:08Z</time>
      </trkpt>
      <trkpt lat="11.53395" lon="42.83896">
        <ele>428.89</ele>
        <time>2011-12-30T11:06:09Z</time>
      </trkpt>
      <trkpt lat="11.53394" lon="42.83898">
        <ele>423.12</ele>
        <time>2011-12-30T11:06:11Z</time>
      </trkpt>
      <trkpt lat="11.53394" lon="42.83898">
        <ele>433.21</ele>
        <time>2011-12-30T11:06:12Z</time>
      </trkpt>
      <trkpt lat="11.53392" lon="42.839">
        <ele>438.5</ele>
        <time>2011-12-30T11:06:15Z</time>
      </trkpt>
      <trkpt lat="11.53392" lon="42.839">
        <ele>436.1</ele>
        <time>2011-12-30T11:06:16Z</time>
      </trkpt>
      <trkpt lat="11.53392" lon="42.83901">
        <ele>432.73</ele>
        <time>2011-12-30T11:06:18Z</time>
      </trkpt>
      <trkpt lat="11.5339" lon="42.83902">
        <ele>440.9</ele>
        <time>2011-12-30T11:06:20Z</time>
      </trkpt>
      <trkpt lat="11.5339" lon="42.83903">
        <ele>437.06</ele>
        <time>2011-12-30T11:06:21Z</time>
      </trkpt>
      <trkpt lat="11.53387" lon="42.83904">
        <ele>436.58</ele>
        <time>2011-12-30T11:06:29Z</time>
      </trkpt>
      <trkpt lat="11.53386" lon="42.83905">
        <ele>438.02</ele>
        <time>2011-12-30T11:06:31Z</time>
      </trkpt>
      <trkpt lat="11.53385" lon="42.83906">
        <ele>436.1</ele>
        <time>2011-12-30T11:07:03Z</time>
      </trkpt>
      <trkpt lat="11.53385" lon="42.83908">
        <ele>432.25</ele>
        <time>2011-12-30T11:07:22Z</time>
      </trkpt>
      <trkpt lat="11.53386" lon="42.83909">
        <ele>436.1</ele>
        <time>2011-12-30T11:07:23Z</time>
      </trkpt>
      <trkpt lat="11.53389" lon="42.83911">
        <ele>434.17</ele>
        <time>2011-12-30T11:07:27Z</time>
      </trkpt>
      <trkpt lat="11.53391" lon="42.83914">
        <ele>430.81</ele>
        <time>2011-12-30T11:07:31Z</time>
      </trkpt>
      <trkpt lat="11.53391" lon="42.83915">
        <ele>437.54</ele>
        <time>2011-12-30T11:07:32Z</time>
      </trkpt>
      <trkpt lat="11.5339" lon="42.83917">
        <ele>429.85</ele>
        <time>2011-12-30T11:07:35Z</time>
      </trkpt>
      <trkpt lat="11.5339" lon="42.83918">
        <ele>430.33</ele>
        <time>2011-12-30T11:07:36Z</time>
      </trkpt>
      <trkpt lat="11.5339" lon="42.83918">
        <ele>437.06</ele>
        <time>2011-12-30T11:07:37Z</time>
      </trkpt>
      <trkpt lat="11.5339" lon="42.83919">
        <ele>435.61</ele>
        <time>2011-12-30T11:07:38Z</time>
      </trkpt>
      <trkpt lat="11.5339" lon="42.83919">
        <ele>429.37</ele>
        <time>2011-12-30T11:07:39Z</time>
      </trkpt>
      <trkpt lat="11.5339" lon="42.83919">
        <ele>438.5</ele>
        <time>2011-12-30T11:07:40Z</time>
      </trkpt>
      <trkpt lat="11.53389" lon="42.83924">
        <ele>436.58</ele>
        <time>2011-12-30T11:07:46Z</time>
      </trkpt>
      <trkpt lat="11.53388" lon="42.83925">
        <ele>438.5</ele>
        <time>2011-12-30T11:07:48Z</time>
      </trkpt>
      <trkpt lat="11.53388" lon="42.83928">
        <ele>431.29</ele>
        <time>2011-12-30T11:07:55Z</time>
      </trkpt>
      <trkpt lat="11.53388" lon="42.83929">
        <ele>438.02</ele>
        <time>2011-12-30T11:07:56Z</time>
      </trkpt>
      <trkpt lat="11.53388" lon="42.8393">
        <ele>438.98</ele>
        <time>2011-12-30T11:07:57Z</time>
      </trkpt>
      <trkpt lat="11.53389" lon="42.83932">
        <ele>445.23</ele>
        <time>2011-12-30T11:07:59Z</time>
      </trkpt>
      <trkpt lat="11.53389" lon="42.83933">
        <ele>438.02</ele>
        <time>2011-12-30T11:08:00Z</time>
      </trkpt>
      <trkpt lat="11.5339" lon="42.83934">
        <ele>439.46</ele>
        <time>2011-12-30T11:08:04Z</time>
      </trkpt>
      <trkpt lat="11.53388" lon="42.83933">
        <ele>438.02</ele>
        <time>2011-12-30T11:08:15Z</time>
      </trkpt>
      <trkpt lat="11.53388" lon="42.83932">
        <ele>435.61</ele>
        <time>2011-12-30T11:08:20Z</time>
      </trkpt>
      <trkpt lat="11.53389" lon="42.8393">
        <ele>436.1</ele>
        <time>2011-12-30T11:08:26Z</time>
      </trkpt>
      <trkpt lat="11.5339" lon="42.83929">
        <ele>413.98</ele>
        <time>2011-12-30T11:08:28Z</time>
      </trkpt>
      <trkpt lat="11.5339" lon="42.83929">
        <ele>436.58</ele>
        <time>2011-12-30T11:08:29Z</time>
      </trkpt>
      <trkpt lat="11.53391" lon="42.83927">
        <ele>435.61</ele>
        <time>2011-12-30T11:08:39Z</time>
      </trkpt>
      <trkpt lat="11.5339" lon="42.83925">
        <ele>435.61</ele>
        <time>2011-12-30T11:08:42Z</time>
      </trkpt>
      <trkpt lat="11.5339" lon="42.83919">
        <ele>435.13</ele>
        <time>2011-12-30T11:08:47Z</time>
      </trkpt>
      <trkpt lat="11.53389" lon="42.83916">
        <ele>430.33</ele>
        <time>2011-12-30T11:08:49Z</time>
      </trkpt>
      <trkpt lat="11.53389" lon="42.83914">
        <ele>432.73</ele>
        <time>2011-12-30T11:08:50Z</time>
      </trkpt>
      <trkpt lat="11.53389" lon="42.83911">
        <ele>433.21</ele>
        <time>2011-12-30T11:08:52Z</time>
      </trkpt>
      <trkpt lat="11.53389" lon="42.83906">
        <ele>432.73</ele>
        <time>2011-12-30T11:08:56Z</time>
      </trkpt>
      <trkpt lat="11.5339" lon="42.83902">
        <ele>431.77</ele>
        <time>2011-12-30T11:09:00Z</time>
      </trkpt>
      <trkpt lat="11.53393" lon="42.839">
        <ele>431.29</ele>
        <time>2011-12-30T11:09:03Z</time>
      </trkpt>
      <trkpt lat="11.53394" lon="42.83894">
        <ele>434.17</ele>
        <time>2011-12-30T11:09:07Z</time>
      </trkpt>
      <trkpt lat="11.53394" lon="42.83893">
        <ele>433.69</ele>
        <time>2011-12-30T11:09:08Z</time>
      </trkpt>
      <trkpt lat="11.53395" lon="42.83887">
        <ele>432.25</ele>
        <time>2011-12-30T11:09:13Z</time>
      </trkpt>
      <trkpt lat="11.53398" lon="42.83881">
        <ele>428.4</ele>
        <time>2011-12-30T11:09:18Z</time>
      </trkpt>
      <trkpt lat="11.53398" lon="42.8388">
        <ele>428.89</ele>
        <time>2011-12-30T11:09:19Z</time>
      </trkpt>
      <trkpt lat="11.53402" lon="42.83871">
        <ele>429.37</ele>
        <time>2011-12-30T11:09:26Z</time>
      </trkpt>
      <trkpt lat="11.53404" lon="42.83864">
        <ele>426.96</ele>
        <time>2011-12-30T11:09:31Z</time>
      </trkpt>
      <trkpt lat="11.53404" lon="42.83862">
        <ele>426</ele>
        <time>2011-12-30T11:09:33Z</time>
      </trkpt>
      <trkpt lat="11.53402" lon="42.83862">
        <ele>424.08</ele>
        <time>2011-12-30T11:09:36Z</time>
      </trkpt>
      <trkpt lat="11.534" lon="42.83862">
        <ele>425.52</ele>
        <time>2011-12-30T11:09:39Z</time>
      </trkpt>
      <trkpt lat="11.534" lon="42.83862">
        <ele>425.52</ele>
        <time>2011-12-30T11:10:11Z</time>
      </trkpt>
      <trkpt lat="11.53401" lon="42.83862">
        <ele>418.31</ele>
        <time>2011-12-30T11:10:47Z</time>
      </trkpt>
      <trkpt lat="11.53401" lon="42.83862">
        <ele>424.56</ele>
        <time>2011-12-30T11:10:48Z</time>
      </trkpt>
      <trkpt lat="11.53404" lon="42.83861">
        <ele>423.12</ele>
        <time>2011-12-30T11:10:51Z</time>
      </trkpt>
      <trkpt lat="11.53404" lon="42.83861">
        <ele>424.56</ele>
        <time>2011-12-30T11:10:52Z</time>
      </trkpt>
      <trkpt lat="11.53405" lon="42.83862">
        <ele>426</ele>
        <time>2011-12-30T11:11:21Z</time>
      </trkpt>
      <trkpt lat="11.53402" lon="42.83862">
        <ele>425.04</ele>
        <time>2011-12-30T11:12:04Z</time>
      </trkpt>
      <trkpt lat="11.53399" lon="42.83865">
        <ele>425.04</ele>
        <time>2011-12-30T11:12:19Z</time>
      </trkpt>
      <trkpt lat="11.53394" lon="42.83872">
        <ele>424.08</ele>
        <time>2011-12-30T11:12:30Z</time>
      </trkpt>
      <trkpt lat="11.53387" lon="42.83877">
        <ele>422.16</ele>
        <time>2011-12-30T11:12:39Z</time>
      </trkpt>
      <trkpt lat="11.53384" lon="42.83879">
        <ele>421.19</ele>
        <time>2011-12-30T11:12:54Z</time>
      </trkpt>
      <trkpt lat="11.5338" lon="42.83881">
        <ele>418.79</ele>
        <time>2011-12-30T11:13:02Z</time>
      </trkpt>
      <trkpt lat="11.53371" lon="42.83888">
        <ele>419.75</ele>
        <time>2011-12-30T11:13:13Z</time>
      </trkpt>
      <trkpt lat="11.53368" lon="42.83891">
        <ele>421.19</ele>
        <time>2011-12-30T11:13:17Z</time>
      </trkpt>
      <trkpt lat="11.53367" lon="42.83893">
        <ele>425.04</ele>
        <time>2011-12-30T11:13:18Z</time>
      </trkpt>
      <trkpt lat="11.53367" lon="42.83894">
        <ele>412.54</ele>
        <time>2011-12-30T11:13:19Z</time>
      </trkpt>
      <trkpt lat="11.53366" lon="42.83895">
        <ele>414.47</ele>
        <time>2011-12-30T11:13:20Z</time>
      </trkpt>
      <trkpt lat="11.53365" lon="42.83896">
        <ele>421.68</ele>
        <time>2011-12-30T11:13:22Z</time>
      </trkpt>
      <trkpt lat="11.53362" lon="42.83897">
        <ele>426</ele>
        <time>2011-12-30T11:13:24Z</time>
      </trkpt>
      <trkpt lat="11.53362" lon="42.83898">
        <ele>419.75</ele>
        <time>2011-12-30T11:13:25Z</time>
      </trkpt>
      <trkpt lat="11.5336" lon="42.83899">
        <ele>423.6</ele>
        <time>2011-12-30T11:13:27Z</time>
      </trkpt>
      <trkpt lat="11.5336" lon="42.83899">
        <ele>413.02</ele>
        <time>2011-12-30T11:13:28Z</time>
      </trkpt>
      <trkpt lat="11.53359" lon="42.83899">
        <ele>421.68</ele>
        <time>2011-12-30T11:13:29Z</time>
      </trkpt>
      <trkpt lat="11.53358" lon="42.83899">
        <ele>425.52</ele>
        <time>2011-12-30T11:13:30Z</time>
      </trkpt>
      <trkpt lat="11.53357" lon="42.83899">
        <ele>422.64</ele>
        <time>2011-12-30T11:13:31Z</time>
      </trkpt>
      <trkpt lat="11.53358" lon="42.83899">
        <ele>421.68</ele>
        <time>2011-12-30T11:13:56Z</time>
      </trkpt>
      <trkpt lat="11.53362" lon="42.83901">
        <ele>418.31</ele>
        <time>2011-12-30T11:14:00Z</time>
      </trkpt>
      <trkpt lat="11.53363" lon="42.83901">
        <ele>421.68</ele>
        <time>2011-12-30T11:14:01Z</time>
      </trkpt>
      <trkpt lat="11.53367" lon="42.83897">
        <ele>423.12</ele>
        <time>2011-12-30T11:14:06Z</time>
      </trkpt>
      <trkpt lat="11.53368" lon="42.83895">
        <ele>421.19</ele>
        <time>2011-12-30T11:14:08Z</time>
      </trkpt>
      <trkpt lat="11.53369" lon="42.83891">
        <ele>419.75</ele>
        <time>2011-12-30T11:14:19Z</time>
      </trkpt>
      <trkpt lat="11.53369" lon="42.8389">
        <ele>418.31</ele>
        <time>2011-12-30T11:16:21Z</time>
      </trkpt>
      <trkpt lat="11.53369" lon="42.8389">
        <ele>419.75</ele>
        <time>2011-12-30T11:17:31Z</time>
      </trkpt>
      <trkpt lat="11.53369" lon="42.8389">
        <ele>418.79</ele>
        <time>2011-12-30T11:19:02Z</time>
      </trkpt>
      <trkpt lat="11.53367" lon="42.83887">
        <ele>423.12</ele>
        <time>2011-12-30T11:22:05Z</time>
      </trkpt>
      <trkpt lat="11.53367" lon="42.83887">
        <ele>422.64</ele>
        <time>2011-12-30T11:22:06Z</time>
      </trkpt>
      <trkpt lat="11.53369" lon="42.83888">
        <ele>417.83</ele>
        <time>2011-12-30T11:22:33Z</time>
      </trkpt>
      <trkpt lat="11.53369" lon="42.83888">
        <ele>421.19</ele>
        <time>2011-12-30T11:22:35Z</time>
      </trkpt>
      <trkpt lat="11.53369" lon="42.8389">
        <ele>417.35</ele>
        <time>2011-12-30T11:22:37Z</time>
      </trkpt>
      <trkpt lat="11.53369" lon="42.83891">
        <ele>421.68</ele>
        <time>2011-12-30T11:22:38Z</time>
      </trkpt>
      <trkpt lat="11.53363" lon="42.83899">
        <ele>423.6</ele>
        <time>2011-12-30T11:22:48Z</time>
      </trkpt>
      <trkpt lat="11.53362" lon="42.839">
        <ele>419.27</ele>
        <time>2011-12-30T11:22:49Z</time>
      </trkpt>
      <trkpt lat="11.53362" lon="42.839">
        <ele>422.64</ele>
        <time>2011-12-30T11:22:50Z</time>
      </trkpt>
      <trkpt lat="11.5336" lon="42.839">
        <ele>419.75</ele>
        <time>2011-12-30T11:22:52Z</time>
      </trkpt>
      <trkpt lat="11.53358" lon="42.839">
        <ele>422.64</ele>
        <time>2011-12-30T11:22:55Z</time>
      </trkpt>
      <trkpt lat="11.53356" lon="42.83902">
        <ele>420.71</ele>
        <time>2011-12-30T11:22:58Z</time>
      </trkpt>
      <trkpt lat="11.53353" lon="42.83903">
        <ele>422.64</ele>
        <time>2011-12-30T11:23:01Z</time>
      </trkpt>
      <trkpt lat="11.53352" lon="42.83907">
        <ele>425.04</ele>
        <time>2011-12-30T11:23:05Z</time>
      </trkpt>
      <trkpt lat="11.53352" lon="42.83911">
        <ele>419.75</ele>
        <time>2011-12-30T11:23:10Z</time>
      </trkpt>
      <trkpt lat="11.53352" lon="42.83912">
        <ele>424.08</ele>
        <time>2011-12-30T11:23:11Z</time>
      </trkpt>
      <trkpt lat="11.53351" lon="42.83915">
        <ele>427.92</ele>
        <time>2011-12-30T11:23:16Z</time>
      </trkpt>
      <trkpt lat="11.5335" lon="42.83915">
        <ele>426</ele>
        <time>2011-12-30T11:23:17Z</time>
      </trkpt>
      <trkpt lat="11.53347" lon="42.83916">
        <ele>419.27</ele>
        <time>2011-12-30T11:23:19Z</time>
      </trkpt>
      <trkpt lat="11.53346" lon="42.83916">
        <ele>425.52</ele>
        <time>2011-12-30T11:23:20Z</time>
      </trkpt>
      <trkpt lat="11.53341" lon="42.83917">
        <ele>425.52</ele>
        <time>2011-12-30T11:23:26Z</time>
      </trkpt>
      <trkpt lat="11.53339" lon="42.83918">
        <ele>421.68</ele>
        <time>2011-12-30T11:23:28Z</time>
      </trkpt>
      <trkpt lat="11.53338" lon="42.83919">
        <ele>425.04</ele>
        <time>2011-12-30T11:23:29Z</time>
      </trkpt>
      <trkpt lat="11.53337" lon="42.83921">
        <ele>426</ele>
        <time>2011-12-30T11:23:33Z</time>
      </trkpt>
      <trkpt lat="11.53336" lon="42.83925">
        <ele>427.44</ele>
        <time>2011-12-30T11:23:41Z</time>
      </trkpt>
      <trkpt lat="11.53336" lon="42.83925">
        <ele>426.48</ele>
        <time>2011-12-30T11:23:43Z</time>
      </trkpt>
      <trkpt lat="11.53335" lon="42.83925">
        <ele>418.31</ele>
        <time>2011-12-30T11:23:45Z</time>
      </trkpt>
      <trkpt lat="11.53334" lon="42.83926">
        <ele>426.96</ele>
        <time>2011-12-30T11:23:46Z</time>
      </trkpt>
      <trkpt lat="11.53333" lon="42.83928">
        <ele>425.04</ele>
        <time>2011-12-30T11:23:49Z</time>
      </trkpt>
      <trkpt lat="11.53331" lon="42.8393">
        <ele>428.4</ele>
        <time>2011-12-30T11:23:51Z</time>
      </trkpt>
      <trkpt lat="11.53331" lon="42.8393">
        <ele>429.37</ele>
        <time>2011-12-30T11:23:52Z</time>
      </trkpt>
      <trkpt lat="11.53327" lon="42.83933">
        <ele>425.52</ele>
        <time>2011-12-30T11:23:57Z</time>
      </trkpt>
      <trkpt lat="11.53325" lon="42.83936">
        <ele>427.44</ele>
        <time>2011-12-30T11:24:03Z</time>
      </trkpt>
      <trkpt lat="11.5332" lon="42.83942">
        <ele>426.96</ele>
        <time>2011-12-30T11:24:13Z</time>
      </trkpt>
      <trkpt lat="11.53318" lon="42.8395">
        <ele>429.37</ele>
        <time>2011-12-30T11:24:24Z</time>
      </trkpt>
      <trkpt lat="11.53317" lon="42.83951">
        <ele>425.52</ele>
        <time>2011-12-30T11:24:26Z</time>
      </trkpt>
      <trkpt lat="11.53312" lon="42.83952">
        <ele>431.77</ele>
        <time>2011-12-30T11:24:33Z</time>
      </trkpt>
      <trkpt lat="11.53311" lon="42.83952">
        <ele>419.27</ele>
        <time>2011-12-30T11:24:34Z</time>
      </trkpt>
      <trkpt lat="11.5331" lon="42.83952">
        <ele>429.85</ele>
        <time>2011-12-30T11:24:35Z</time>
      </trkpt>
      <trkpt lat="11.53309" lon="42.83952">
        <ele>425.52</ele>
        <time>2011-12-30T11:24:37Z</time>
      </trkpt>
      <trkpt lat="11.53308" lon="42.83952">
        <ele>428.89</ele>
        <time>2011-12-30T11:24:38Z</time>
      </trkpt>
      <trkpt lat="11.53306" lon="42.83952">
        <ele>427.44</ele>
        <time>2011-12-30T11:24:40Z</time>
      </trkpt>
      <trkpt lat="11.53305" lon="42.83954">
        <ele>427.92</ele>
        <time>2011-12-30T11:24:43Z</time>
      </trkpt>
      <trkpt lat="11.53303" lon="42.83954">
        <ele>423.6</ele>
        <time>2011-12-30T11:24:45Z</time>
      </trkpt>
      <trkpt lat="11.53302" lon="42.83955">
        <ele>430.33</ele>
        <time>2011-12-30T11:24:46Z</time>
      </trkpt>
      <trkpt lat="11.53301" lon="42.83955">
        <ele>417.83</ele>
        <time>2011-12-30T11:24:48Z</time>
      </trkpt>
      <trkpt lat="11.53301" lon="42.83955">
        <ele>429.85</ele>
        <time>2011-12-30T11:24:49Z</time>
      </trkpt>
      <trkpt lat="11.53298" lon="42.83956">
        <ele>426</ele>
        <time>2011-12-30T11:24:56Z</time>
      </trkpt>
      <trkpt lat="11.53297" lon="42.83956">
        <ele>430.33</ele>
        <time>2011-12-30T11:24:57Z</time>
      </trkpt>
      <trkpt lat="11.53294" lon="42.83957">
        <ele>428.89</ele>
        <time>2011-12-30T11:25:02Z</time>
      </trkpt>
      <trkpt lat="11.53292" lon="42.83958">
        <ele>426.48</ele>
        <time>2011-12-30T11:25:04Z</time>
      </trkpt>
      <trkpt lat="11.53291" lon="42.83959">
        <ele>430.33</ele>
        <time>2011-12-30T11:25:05Z</time>
      </trkpt>
      <trkpt lat="11.5329" lon="42.8396">
        <ele>430.81</ele>
        <time>2011-12-30T11:25:07Z</time>
      </trkpt>
      <trkpt lat="11.53289" lon="42.83961">
        <ele>427.44</ele>
        <time>2011-12-30T11:25:10Z</time>
      </trkpt>
      <trkpt lat="11.53288" lon="42.83962">
        <ele>433.21</ele>
        <time>2011-12-30T11:25:11Z</time>
      </trkpt>
      <trkpt lat="11.53287" lon="42.83962">
        <ele>429.85</ele>
        <time>2011-12-30T11:25:12Z</time>
      </trkpt>
      <trkpt lat="11.53286" lon="42.83964">
        <ele>433.21</ele>
        <time>2011-12-30T11:25:16Z</time>
      </trkpt>
      <trkpt lat="11.53285" lon="42.83965">
        <ele>428.89</ele>
        <time>2011-12-30T11:25:17Z</time>
      </trkpt>
      <trkpt lat="11.53284" lon="42.83965">
        <ele>438.02</ele>
        <time>2011-12-30T11:25:19Z</time>
      </trkpt>
      <trkpt lat="11.53283" lon="42.83967">
        <ele>432.73</ele>
        <time>2011-12-30T11:25:22Z</time>
      </trkpt>
      <trkpt lat="11.53283" lon="42.83968">
        <ele>437.06</ele>
        <time>2011-12-30T11:25:23Z</time>
      </trkpt>
      <trkpt lat="11.53282" lon="42.83969">
        <ele>429.37</ele>
        <time>2011-12-30T11:25:24Z</time>
      </trkpt>
      <trkpt lat="11.53282" lon="42.83969">
        <ele>429.85</ele>
        <time>2011-12-30T11:25:25Z</time>
      </trkpt>
      <trkpt lat="11.53282" lon="42.83969">
        <ele>433.21</ele>
        <time>2011-12-30T11:25:26Z</time>
      </trkpt>
      <trkpt lat="11.53281" lon="42.83969">
        <ele>433.21</ele>
        <time>2011-12-30T11:25:27Z</time>
      </trkpt>
      <trkpt lat="11.53278" lon="42.83973">
        <ele>433.21</ele>
        <time>2011-12-30T11:25:37Z</time>
      </trkpt>
      <trkpt lat="11.53278" lon="42.83974">
        <ele>438.5</ele>
        <time>2011-12-30T11:25:39Z</time>
      </trkpt>
      <trkpt lat="11.53278" lon="42.83974">
        <ele>420.23</ele>
        <time>2011-12-30T11:25:40Z</time>
      </trkpt>
      <trkpt lat="11.53278" lon="42.83975">
        <ele>437.06</ele>
        <time>2011-12-30T11:25:41Z</time>
      </trkpt>
      <trkpt lat="11.53277" lon="42.83977">
        <ele>431.29</ele>
        <time>2011-12-30T11:25:53Z</time>
      </trkpt>
      <trkpt lat="11.53277" lon="42.83977">
        <ele>437.54</ele>
        <time>2011-12-30T11:25:54Z</time>
      </trkpt>
      <trkpt lat="11.53277" lon="42.83977">
        <ele>434.17</ele>
        <time>2011-12-30T11:25:59Z</time>
      </trkpt>
      <trkpt lat="11.53277" lon="42.83978">
        <ele>427.92</ele>
        <time>2011-12-30T11:26:01Z</time>
      </trkpt>
      <trkpt lat="11.53278" lon="42.83979">
        <ele>432.25</ele>
        <time>2011-12-30T11:26:02Z</time>
      </trkpt>
      <trkpt lat="11.53278" lon="42.8398">
        <ele>437.54</ele>
        <time>2011-12-30T11:26:03Z</time>
      </trkpt>
      <trkpt lat="11.53278" lon="42.83981">
        <ele>437.54</ele>
        <time>2011-12-30T11:26:04Z</time>
      </trkpt>
      <trkpt lat="11.53278" lon="42.83982">
        <ele>447.15</ele>
        <time>2011-12-30T11:26:05Z</time>
      </trkpt>
      <trkpt lat="11.53278" lon="42.83982">
        <ele>429.37</ele>
        <time>2011-12-30T11:26:06Z</time>
      </trkpt>
      <trkpt lat="11.53278" lon="42.83983">
        <ele>437.06</ele>
        <time>2011-12-30T11:26:07Z</time>
      </trkpt>
      <trkpt lat="11.53276" lon="42.83985">
        <ele>442.34</ele>
        <time>2011-12-30T11:26:10Z</time>
      </trkpt>
      <trkpt lat="11.53275" lon="42.83986">
        <ele>439.46</ele>
        <time>2011-12-30T11:26:11Z</time>
      </trkpt>
      <trkpt lat="11.53274" lon="42.83988">
        <ele>442.82</ele>
        <time>2011-12-30T11:26:13Z</time>
      </trkpt>
      <trkpt lat="11.53272" lon="42.83988">
        <ele>438.5</ele>
        <time>2011-12-30T11:26:15Z</time>
      </trkpt>
      <trkpt lat="11.53271" lon="42.83988">
        <ele>437.06</ele>
        <time>2011-12-30T11:26:16Z</time>
      </trkpt>
      <trkpt lat="11.53265" lon="42.8399">
        <ele>445.23</ele>
        <time>2011-12-30T11:26:20Z</time>
      </trkpt>
      <trkpt lat="11.53264" lon="42.8399">
        <ele>442.34</ele>
        <time>2011-12-30T11:26:21Z</time>
      </trkpt>
      <trkpt lat="11.53261" lon="42.83991">
        <ele>434.65</ele>
        <time>2011-12-30T11:26:24Z</time>
      </trkpt>
      <trkpt lat="11.53258" lon="42.83992">
        <ele>438.02</ele>
        <time>2011-12-30T11:26:26Z</time>
      </trkpt>
      <trkpt lat="11.53257" lon="42.83992">
        <ele>444.75</ele>
        <time>2011-12-30T11:26:27Z</time>
      </trkpt>
      <trkpt lat="11.53254" lon="42.83993">
        <ele>440.42</ele>
        <time>2011-12-30T11:26:43Z</time>
      </trkpt>
      <trkpt lat="11.53246" lon="42.83994">
        <ele>438.5</ele>
        <time>2011-12-30T11:26:51Z</time>
      </trkpt>
      <trkpt lat="11.53245" lon="42.83994">
        <ele>436.1</ele>
        <time>2011-12-30T11:26:52Z</time>
      </trkpt>
      <trkpt lat="11.53243" lon="42.83993">
        <ele>442.82</ele>
        <time>2011-12-30T11:26:54Z</time>
      </trkpt>
      <trkpt lat="11.5324" lon="42.83993">
        <ele>449.55</ele>
        <time>2011-12-30T11:26:56Z</time>
      </trkpt>
      <trkpt lat="11.53239" lon="42.83993">
        <ele>446.19</ele>
        <time>2011-12-30T11:26:57Z</time>
      </trkpt>
      <trkpt lat="11.5323" lon="42.83997">
        <ele>447.15</ele>
        <time>2011-12-30T11:27:05Z</time>
      </trkpt>
      <trkpt lat="11.53225" lon="42.83999">
        <ele>439.46</ele>
        <time>2011-12-30T11:27:10Z</time>
      </trkpt>
      <trkpt lat="11.53224" lon="42.83999">
        <ele>444.27</ele>
        <time>2011-12-30T11:27:11Z</time>
      </trkpt>
      <trkpt lat="11.53221" lon="42.84">
        <ele>448.59</ele>
        <time>2011-12-30T11:27:13Z</time>
      </trkpt>
      <trkpt lat="11.53219" lon="42.84">
        <ele>444.75</ele>
        <time>2011-12-30T11:27:16Z</time>
      </trkpt>
      <trkpt lat="11.53216" lon="42.83999">
        <ele>447.63</ele>
        <time>2011-12-30T11:27:19Z</time>
      </trkpt>
      <trkpt lat="11.53214" lon="42.83999">
        <ele>444.75</ele>
        <time>2011-12-30T11:27:22Z</time>
      </trkpt>
      <trkpt lat="11.53212" lon="42.83998">
        <ele>441.38</ele>
        <time>2011-12-30T11:27:24Z</time>
      </trkpt>
      <trkpt lat="11.53211" lon="42.83997">
        <ele>442.34</ele>
        <time>2011-12-30T11:27:25Z</time>
      </trkpt>
      <trkpt lat="11.5321" lon="42.83997">
        <ele>447.15</ele>
        <time>2011-12-30T11:27:26Z</time>
      </trkpt>
      <trkpt lat="11.53209" lon="42.83996">
        <ele>441.38</ele>
        <time>2011-12-30T11:27:28Z</time>
      </trkpt>
      <trkpt lat="11.53208" lon="42.83995">
        <ele>446.19</ele>
        <time>2011-12-30T11:27:29Z</time>
      </trkpt>
      <trkpt lat="11.53208" lon="42.83995">
        <ele>444.75</ele>
        <time>2011-12-30T11:27:34Z</time>
      </trkpt>
      <trkpt lat="11.53207" lon="42.83993">
        <ele>445.71</ele>
        <time>2011-12-30T11:27:37Z</time>
      </trkpt>
      <trkpt lat="11.53201" lon="42.83992">
        <ele>443.31</ele>
        <time>2011-12-30T11:27:48Z</time>
      </trkpt>
      <trkpt lat="11.53199" lon="42.83991">
        <ele>442.34</ele>
        <time>2011-12-30T11:27:54Z</time>
      </trkpt>
      <trkpt lat="11.53198" lon="42.83991">
        <ele>442.34</ele>
        <time>2011-12-30T11:27:55Z</time>
      </trkpt>
      <trkpt lat="11.53196" lon="42.83992">
        <ele>444.27</ele>
        <time>2011-12-30T11:27:57Z</time>
      </trkpt>
      <trkpt lat="11.53195" lon="42.83993">
        <ele>443.31</ele>
        <time>2011-12-30T11:27:59Z</time>
      </trkpt>
      <trkpt lat="11.53195" lon="42.83993">
        <ele>438.5</ele>
        <time>2011-12-30T11:28:00Z</time>
      </trkpt>
      <trkpt lat="11.53195" lon="42.83993">
        <ele>446.67</ele>
        <time>2011-12-30T11:28:01Z</time>
      </trkpt>
      <trkpt lat="11.53195" lon="42.83993">
        <ele>446.19</ele>
        <time>2011-12-30T11:28:02Z</time>
      </trkpt>
      <trkpt lat="11.53194" lon="42.83993">
        <ele>444.27</ele>
        <time>2011-12-30T11:28:05Z</time>
      </trkpt>
      <trkpt lat="11.53194" lon="42.83993">
        <ele>447.15</ele>
        <time>2011-12-30T11:28:19Z</time>
      </trkpt>
      <trkpt lat="11.53194" lon="42.83993">
        <ele>443.79</ele>
        <time>2011-12-30T11:28:21Z</time>
      </trkpt>
      <trkpt lat="11.53192" lon="42.83995">
        <ele>456.76</ele>
        <time>2011-12-30T11:28:23Z</time>
      </trkpt>
      <trkpt lat="11.53192" lon="42.83996">
        <ele>440.42</ele>
        <time>2011-12-30T11:28:24Z</time>
      </trkpt>
      <trkpt lat="11.53191" lon="42.83996">
        <ele>445.71</ele>
        <time>2011-12-30T11:28:25Z</time>
      </trkpt>
      <trkpt lat="11.53191" lon="42.83996">
        <ele>448.59</ele>
        <time>2011-12-30T11:28:26Z</time>
      </trkpt>
      <trkpt lat="11.53191" lon="42.83997">
        <ele>443.79</ele>
        <time>2011-12-30T11:28:27Z</time>
      </trkpt>
      <trkpt lat="11.53188" lon="42.83999">
        <ele>441.38</ele>
        <time>2011-12-30T11:28:32Z</time>
      </trkpt>
      <trkpt lat="11.53186" lon="42.83999">
        <ele>445.23</ele>
        <time>2011-12-30T11:28:34Z</time>
      </trkpt>
      <trkpt lat="11.53184" lon="42.84001">
        <ele>439.94</ele>
        <time>2011-12-30T11:28:38Z</time>
      </trkpt>
      <trkpt lat="11.53184" lon="42.84001">
        <ele>443.31</ele>
        <time>2011-12-30T11:28:39Z</time>
      </trkpt>
      <trkpt lat="11.53184" lon="42.84002">
        <ele>446.67</ele>
        <time>2011-12-30T11:28:40Z</time>
      </trkpt>
      <trkpt lat="11.53183" lon="42.84002">
        <ele>445.71</ele>
        <time>2011-12-30T11:28:41Z</time>
      </trkpt>
      <trkpt lat="11.53182" lon="42.84003">
        <ele>442.82</ele>
        <time>2011-12-30T11:28:51Z</time>
      </trkpt>
      <trkpt lat="11.53182" lon="42.84004">
        <ele>448.11</ele>
        <time>2011-12-30T11:28:52Z</time>
      </trkpt>
      <trkpt lat="11.53182" lon="42.84004">
        <ele>442.34</ele>
        <time>2011-12-30T11:28:53Z</time>
      </trkpt>
      <trkpt lat="11.53182" lon="42.84005">
        <ele>445.71</ele>
        <time>2011-12-30T11:28:54Z</time>
      </trkpt>
      <trkpt lat="11.53181" lon="42.84009">
        <ele>450.03</ele>
        <time>2011-12-30T11:29:00Z</time>
      </trkpt>
      <trkpt lat="11.5318" lon="42.8401">
        <ele>445.71</ele>
        <time>2011-12-30T11:29:02Z</time>
      </trkpt>
      <trkpt lat="11.5318" lon="42.84011">
        <ele>453.88</ele>
        <time>2011-12-30T11:29:03Z</time>
      </trkpt>
      <trkpt lat="11.5318" lon="42.84011">
        <ele>445.71</ele>
        <time>2011-12-30T11:29:04Z</time>
      </trkpt>
      <trkpt lat="11.53179" lon="42.84011">
        <ele>439.94</ele>
        <time>2011-12-30T11:29:06Z</time>
      </trkpt>
      <trkpt lat="11.53178" lon="42.84012">
        <ele>451.48</ele>
        <time>2011-12-30T11:29:07Z</time>
      </trkpt>
      <trkpt lat="11.53177" lon="42.84013">
        <ele>445.23</ele>
        <time>2011-12-30T11:29:09Z</time>
      </trkpt>
      <trkpt lat="11.53177" lon="42.84014">
        <ele>444.75</ele>
        <time>2011-12-30T11:29:10Z</time>
      </trkpt>
      <trkpt lat="11.53177" lon="42.84017">
        <ele>453.88</ele>
        <time>2011-12-30T11:29:12Z</time>
      </trkpt>
      <trkpt lat="11.53177" lon="42.84017">
        <ele>445.23</ele>
        <time>2011-12-30T11:29:13Z</time>
      </trkpt>
      <trkpt lat="11.53177" lon="42.84017">
        <ele>453.4</ele>
        <time>2011-12-30T11:29:14Z</time>
      </trkpt>
      <trkpt lat="11.53177" lon="42.84017">
        <ele>445.23</ele>
        <time>2011-12-30T11:29:15Z</time>
      </trkpt>
      <trkpt lat="11.53173" lon="42.84022">
        <ele>443.79</ele>
        <time>2011-12-30T11:29:20Z</time>
      </trkpt>
      <trkpt lat="11.53173" lon="42.84022">
        <ele>449.55</ele>
        <time>2011-12-30T11:29:21Z</time>
      </trkpt>
      <trkpt lat="11.53173" lon="42.84024">
        <ele>444.75</ele>
        <time>2011-12-30T11:31:42Z</time>
      </trkpt>
      <trkpt lat="11.53173" lon="42.84024">
        <ele>445.71</ele>
        <time>2011-12-30T11:31:43Z</time>
      </trkpt>
      <trkpt lat="11.53173" lon="42.84024">
        <ele>450.03</ele>
        <time>2011-12-30T11:31:45Z</time>
      </trkpt>
      <trkpt lat="11.53172" lon="42.84024">
        <ele>445.23</ele>
        <time>2011-12-30T11:32:14Z</time>
      </trkpt>
      <trkpt lat="11.53172" lon="42.84024">
        <ele>451.96</ele>
        <time>2011-12-30T11:32:15Z</time>
      </trkpt>
      <trkpt lat="11.53172" lon="42.84024">
        <ele>450.52</ele>
        <time>2011-12-30T11:32:16Z</time>
      </trkpt>
      <trkpt lat="11.53172" lon="42.84023">
        <ele>449.55</ele>
        <time>2011-12-30T11:32:29Z</time>
      </trkpt>
      <trkpt lat="11.53172" lon="42.84023">
        <ele>446.19</ele>
        <time>2011-12-30T11:32:36Z</time>
      </trkpt>
      <trkpt lat="11.53172" lon="42.84023">
        <ele>450.03</ele>
        <time>2011-12-30T11:32:37Z</time>
      </trkpt>
      <trkpt lat="11.53172" lon="42.84023">
        <ele>450.03</ele>
        <time>2011-12-30T11:32:44Z</time>
      </trkpt>
      <trkpt lat="11.53173" lon="42.84025">
        <ele>448.11</ele>
        <time>2011-12-30T11:33:04Z</time>
      </trkpt>
      <trkpt lat="11.53174" lon="42.84026">
        <ele>450.03</ele>
        <time>2011-12-30T11:33:06Z</time>
      </trkpt>
      <trkpt lat="11.53174" lon="42.84027">
        <ele>447.15</ele>
        <time>2011-12-30T11:33:07Z</time>
      </trkpt>
      <trkpt lat="11.53174" lon="42.84027">
        <ele>451</ele>
        <time>2011-12-30T11:33:08Z</time>
      </trkpt>
      <trkpt lat="11.53175" lon="42.84028">
        <ele>428.4</ele>
        <time>2011-12-30T11:33:11Z</time>
      </trkpt>
      <trkpt lat="11.53175" lon="42.84029">
        <ele>448.11</ele>
        <time>2011-12-30T11:33:12Z</time>
      </trkpt>
      <trkpt lat="11.53176" lon="42.8403">
        <ele>452.92</ele>
        <time>2011-12-30T11:33:13Z</time>
      </trkpt>
      <trkpt lat="11.53176" lon="42.8403">
        <ele>451.96</ele>
        <time>2011-12-30T11:33:14Z</time>
      </trkpt>
      <trkpt lat="11.53176" lon="42.84032">
        <ele>442.34</ele>
        <time>2011-12-30T11:33:17Z</time>
      </trkpt>
      <trkpt lat="11.53176" lon="42.84032">
        <ele>452.44</ele>
        <time>2011-12-30T11:33:18Z</time>
      </trkpt>
      <trkpt lat="11.53176" lon="42.84033">
        <ele>454.84</ele>
        <time>2011-12-30T11:33:20Z</time>
      </trkpt>
      <trkpt lat="11.53176" lon="42.84034">
        <ele>452.44</ele>
        <time>2011-12-30T11:33:21Z</time>
      </trkpt>
      <trkpt lat="11.53177" lon="42.84039">
        <ele>447.15</ele>
        <time>2011-12-30T11:33:27Z</time>
      </trkpt>
      <trkpt lat="11.53178" lon="42.8404">
        <ele>453.4</ele>
        <time>2011-12-30T11:33:28Z</time>
      </trkpt>
      <trkpt lat="11.53177" lon="42.84043">
        <ele>453.4</ele>
        <time>2011-12-30T11:33:32Z</time>
      </trkpt>
      <trkpt lat="11.53177" lon="42.84043">
        <ele>452.92</ele>
        <time>2011-12-30T11:33:36Z</time>
      </trkpt>
      <trkpt lat="11.53176" lon="42.84048">
        <ele>448.59</ele>
        <time>2011-12-30T11:33:42Z</time>
      </trkpt>
      <trkpt lat="11.53175" lon="42.84049">
        <ele>454.84</ele>
        <time>2011-12-30T11:33:43Z</time>
      </trkpt>
      <trkpt lat="11.53173" lon="42.84053">
        <ele>451.96</ele>
        <time>2011-12-30T11:33:47Z</time>
      </trkpt>
      <trkpt lat="11.53172" lon="42.84054">
        <ele>461.09</ele>
        <time>2011-12-30T11:33:48Z</time>
      </trkpt>
      <trkpt lat="11.53172" lon="42.84055">
        <ele>448.59</ele>
        <time>2011-12-30T11:33:49Z</time>
      </trkpt>
      <trkpt lat="11.5317" lon="42.84056">
        <ele>455.32</ele>
        <time>2011-12-30T11:33:51Z</time>
      </trkpt>
      <trkpt lat="11.53168" lon="42.84058">
        <ele>451.96</ele>
        <time>2011-12-30T11:33:54Z</time>
      </trkpt>
      <trkpt lat="11.53167" lon="42.8406">
        <ele>454.36</ele>
        <time>2011-12-30T11:33:56Z</time>
      </trkpt>
      <trkpt lat="11.53166" lon="42.84061">
        <ele>450.03</ele>
        <time>2011-12-30T11:33:57Z</time>
      </trkpt>
      <trkpt lat="11.53166" lon="42.84061">
        <ele>454.36</ele>
        <time>2011-12-30T11:33:58Z</time>
      </trkpt>
      <trkpt lat="11.53166" lon="42.84063">
        <ele>451.48</ele>
        <time>2011-12-30T11:34:00Z</time>
      </trkpt>
      <trkpt lat="11.53166" lon="42.84064">
        <ele>452.92</ele>
        <time>2011-12-30T11:34:01Z</time>
      </trkpt>
      <trkpt lat="11.53165" lon="42.84065">
        <ele>456.76</ele>
        <time>2011-12-30T11:34:02Z</time>
      </trkpt>
      <trkpt lat="11.53164" lon="42.84067">
        <ele>450.03</ele>
        <time>2011-12-30T11:34:04Z</time>
      </trkpt>
      <trkpt lat="11.53164" lon="42.84068">
        <ele>456.28</ele>
        <time>2011-12-30T11:34:05Z</time>
      </trkpt>
      <trkpt lat="11.53162" lon="42.84069">
        <ele>454.84</ele>
        <time>2011-12-30T11:34:07Z</time>
      </trkpt>
      <trkpt lat="11.53159" lon="42.84072">
        <ele>456.28</ele>
        <time>2011-12-30T11:34:11Z</time>
      </trkpt>
      <trkpt lat="11.53159" lon="42.84072">
        <ele>451</ele>
        <time>2011-12-30T11:34:12Z</time>
      </trkpt>
      <trkpt lat="11.53158" lon="42.84073">
        <ele>455.8</ele>
        <time>2011-12-30T11:34:13Z</time>
      </trkpt>
      <trkpt lat="11.53158" lon="42.84075">
        <ele>461.57</ele>
        <time>2011-12-30T11:34:17Z</time>
      </trkpt>
      <trkpt lat="11.53156" lon="42.84078">
        <ele>454.84</ele>
        <time>2011-12-30T11:34:20Z</time>
      </trkpt>
      <trkpt lat="11.53155" lon="42.84079">
        <ele>463.97</ele>
        <time>2011-12-30T11:34:23Z</time>
      </trkpt>
      <trkpt lat="11.53154" lon="42.8408">
        <ele>454.84</ele>
        <time>2011-12-30T11:34:24Z</time>
      </trkpt>
      <trkpt lat="11.53154" lon="42.84082">
        <ele>460.13</ele>
        <time>2011-12-30T11:34:26Z</time>
      </trkpt>
      <trkpt lat="11.53154" lon="42.84083">
        <ele>453.4</ele>
        <time>2011-12-30T11:34:27Z</time>
      </trkpt>
      <trkpt lat="11.53154" lon="42.84084">
        <ele>458.21</ele>
        <time>2011-12-30T11:34:28Z</time>
      </trkpt>
      <trkpt lat="11.53151" lon="42.84089">
        <ele>463.01</ele>
        <time>2011-12-30T11:34:33Z</time>
      </trkpt>
      <trkpt lat="11.53151" lon="42.8409">
        <ele>455.8</ele>
        <time>2011-12-30T11:34:34Z</time>
      </trkpt>
      <trkpt lat="11.5315" lon="42.84091">
        <ele>457.72</ele>
        <time>2011-12-30T11:34:35Z</time>
      </trkpt>
      <trkpt lat="11.5315" lon="42.84094">
        <ele>458.21</ele>
        <time>2011-12-30T11:34:44Z</time>
      </trkpt>
      <trkpt lat="11.53149" lon="42.84095">
        <ele>458.21</ele>
        <time>2011-12-30T11:34:50Z</time>
      </trkpt>
      <trkpt lat="11.53149" lon="42.84097">
        <ele>457.72</ele>
        <time>2011-12-30T11:34:55Z</time>
      </trkpt>
      <trkpt lat="11.5315" lon="42.84098">
        <ele>461.57</ele>
        <time>2011-12-30T11:34:56Z</time>
      </trkpt>
      <trkpt lat="11.5315" lon="42.84098">
        <ele>459.17</ele>
        <time>2011-12-30T11:34:57Z</time>
      </trkpt>
      <trkpt lat="11.53151" lon="42.84102">
        <ele>455.32</ele>
        <time>2011-12-30T11:35:02Z</time>
      </trkpt>
      <trkpt lat="11.53151" lon="42.84102">
        <ele>460.61</ele>
        <time>2011-12-30T11:35:03Z</time>
      </trkpt>
      <trkpt lat="11.53153" lon="42.84109">
        <ele>459.65</ele>
        <time>2011-12-30T11:35:12Z</time>
      </trkpt>
      <trkpt lat="11.53152" lon="42.8411">
        <ele>457.72</ele>
        <time>2011-12-30T11:35:14Z</time>
      </trkpt>
      <trkpt lat="11.53152" lon="42.84114">
        <ele>452.92</ele>
        <time>2011-12-30T11:35:17Z</time>
      </trkpt>
      <trkpt lat="11.53152" lon="42.84115">
        <ele>458.69</ele>
        <time>2011-12-30T11:35:18Z</time>
      </trkpt>
      <trkpt lat="11.53152" lon="42.84116">
        <ele>463.97</ele>
        <time>2011-12-30T11:35:19Z</time>
      </trkpt>
      <trkpt lat="11.53152" lon="42.84117">
        <ele>457.24</ele>
        <time>2011-12-30T11:35:20Z</time>
      </trkpt>
      <trkpt lat="11.53151" lon="42.84119">
        <ele>461.57</ele>
        <time>2011-12-30T11:35:22Z</time>
      </trkpt>
      <trkpt lat="11.53151" lon="42.84119">
        <ele>461.09</ele>
        <time>2011-12-30T11:35:23Z</time>
      </trkpt>
      <trkpt lat="11.5315" lon="42.8412">
        <ele>453.4</ele>
        <time>2011-12-30T11:35:26Z</time>
      </trkpt>
      <trkpt lat="11.53149" lon="42.84122">
        <ele>460.61</ele>
        <time>2011-12-30T11:35:28Z</time>
      </trkpt>
      <trkpt lat="11.53148" lon="42.84123">
        <ele>463.97</ele>
        <time>2011-12-30T11:35:29Z</time>
      </trkpt>
      <trkpt lat="11.53147" lon="42.84125">
        <ele>463.49</ele>
        <time>2011-12-30T11:35:30Z</time>
      </trkpt>
      <trkpt lat="11.53147" lon="42.84125">
        <ele>457.24</ele>
        <time>2011-12-30T11:35:31Z</time>
      </trkpt>
      <trkpt lat="11.53146" lon="42.84126">
        <ele>460.61</ele>
        <time>2011-12-30T11:35:32Z</time>
      </trkpt>
      <trkpt lat="11.53145" lon="42.84128">
        <ele>463.49</ele>
        <time>2011-12-30T11:35:34Z</time>
      </trkpt>
      <trkpt lat="11.53144" lon="42.84131">
        <ele>460.13</ele>
        <time>2011-12-30T11:35:36Z</time>
      </trkpt>
      <trkpt lat="11.53142" lon="42.84135">
        <ele>464.93</ele>
        <time>2011-12-30T11:35:41Z</time>
      </trkpt>
      <trkpt lat="11.53141" lon="42.84135">
        <ele>457.72</ele>
        <time>2011-12-30T11:35:42Z</time>
      </trkpt>
      <trkpt lat="11.53138" lon="42.84134">
        <ele>463.49</ele>
        <time>2011-12-30T11:35:44Z</time>
      </trkpt>
      <trkpt lat="11.53137" lon="42.84134">
        <ele>462.53</ele>
        <time>2011-12-30T11:35:45Z</time>
      </trkpt>
      <trkpt lat="11.53136" lon="42.84135">
        <ele>463.49</ele>
        <time>2011-12-30T11:35:47Z</time>
      </trkpt>
      <trkpt lat="11.53132" lon="42.84138">
        <ele>463.01</ele>
        <time>2011-12-30T11:35:52Z</time>
      </trkpt>
      <trkpt lat="11.5313" lon="42.84142">
        <ele>463.49</ele>
        <time>2011-12-30T11:35:56Z</time>
      </trkpt>
      <trkpt lat="11.53126" lon="42.84142">
        <ele>467.82</ele>
        <time>2011-12-30T11:36:01Z</time>
      </trkpt>
      <trkpt lat="11.53125" lon="42.84142">
        <ele>459.65</ele>
        <time>2011-12-30T11:36:02Z</time>
      </trkpt>
      <trkpt lat="11.53119" lon="42.84136">
        <ele>467.82</ele>
        <time>2011-12-30T11:36:08Z</time>
      </trkpt>
      <trkpt lat="11.53118" lon="42.84136">
        <ele>462.53</ele>
        <time>2011-12-30T11:36:09Z</time>
      </trkpt>
      <trkpt lat="11.53117" lon="42.84135">
        <ele>465.42</ele>
        <time>2011-12-30T11:36:11Z</time>
      </trkpt>
      <trkpt lat="11.53115" lon="42.84135">
        <ele>462.05</ele>
        <time>2011-12-30T11:36:13Z</time>
      </trkpt>
      <trkpt lat="11.53114" lon="42.84134">
        <ele>464.45</ele>
        <time>2011-12-30T11:36:15Z</time>
      </trkpt>
      <trkpt lat="11.53109" lon="42.8413">
        <ele>469.74</ele>
        <time>2011-12-30T11:36:22Z</time>
      </trkpt>
      <trkpt lat="11.53109" lon="42.8413">
        <ele>462.05</ele>
        <time>2011-12-30T11:36:23Z</time>
      </trkpt>
      <trkpt lat="11.53108" lon="42.84129">
        <ele>465.9</ele>
        <time>2011-12-30T11:36:24Z</time>
      </trkpt>
      <trkpt lat="11.53108" lon="42.84127">
        <ele>462.53</ele>
        <time>2011-12-30T11:36:26Z</time>
      </trkpt>
      <trkpt lat="11.53108" lon="42.84126">
        <ele>467.34</ele>
        <time>2011-12-30T11:36:27Z</time>
      </trkpt>
      <trkpt lat="11.53108" lon="42.84125">
        <ele>468.78</ele>
        <time>2011-12-30T11:36:29Z</time>
      </trkpt>
      <trkpt lat="11.53108" lon="42.84125">
        <ele>466.38</ele>
        <time>2011-12-30T11:36:32Z</time>
      </trkpt>
      <trkpt lat="11.53105" lon="42.84123">
        <ele>465.9</ele>
        <time>2011-12-30T11:36:42Z</time>
      </trkpt>
      <trkpt lat="11.53105" lon="42.84121">
        <ele>475.03</ele>
        <time>2011-12-30T11:36:44Z</time>
      </trkpt>
      <trkpt lat="11.53105" lon="42.8412">
        <ele>470.22</ele>
        <time>2011-12-30T11:36:45Z</time>
      </trkpt>
      <trkpt lat="11.53105" lon="42.8412">
        <ele>446.67</ele>
        <time>2011-12-30T11:36:46Z</time>
      </trkpt>
      <trkpt lat="11.53104" lon="42.84119">
        <ele>468.3</ele>
        <time>2011-12-30T11:36:47Z</time>
      </trkpt>
      <trkpt lat="11.53104" lon="42.84119">
        <ele>459.65</ele>
        <time>2011-12-30T11:36:48Z</time>
      </trkpt>
      <trkpt lat="11.53103" lon="42.84118">
        <ele>464.93</ele>
        <time>2011-12-30T11:36:49Z</time>
      </trkpt>
      <trkpt lat="11.53101" lon="42.84117">
        <ele>465.9</ele>
        <time>2011-12-30T11:36:51Z</time>
      </trkpt>
      <trkpt lat="11.53101" lon="42.84117">
        <ele>469.74</ele>
        <time>2011-12-30T11:36:52Z</time>
      </trkpt>
      <trkpt lat="11.53099" lon="42.84115">
        <ele>451.96</ele>
        <time>2011-12-30T11:36:54Z</time>
      </trkpt>
      <trkpt lat="11.53099" lon="42.84114">
        <ele>467.82</ele>
        <time>2011-12-30T11:36:55Z</time>
      </trkpt>
      <trkpt lat="11.53097" lon="42.84112">
        <ele>468.78</ele>
        <time>2011-12-30T11:36:58Z</time>
      </trkpt>
      <trkpt lat="11.53097" lon="42.84111">
        <ele>473.11</ele>
        <time>2011-12-30T11:36:59Z</time>
      </trkpt>
      <trkpt lat="11.53097" lon="42.84111">
        <ele>469.26</ele>
        <time>2011-12-30T11:37:01Z</time>
      </trkpt>
      <trkpt lat="11.53097" lon="42.84111">
        <ele>469.26</ele>
        <time>2011-12-30T11:37:02Z</time>
      </trkpt>
      <trkpt lat="11.53096" lon="42.84111">
        <ele>473.59</ele>
        <time>2011-12-30T11:37:10Z</time>
      </trkpt>
      <trkpt lat="11.53096" lon="42.8411">
        <ele>461.09</ele>
        <time>2011-12-30T11:37:11Z</time>
      </trkpt>
      <trkpt lat="11.53095" lon="42.8411">
        <ele>463.01</ele>
        <time>2011-12-30T11:37:12Z</time>
      </trkpt>
      <trkpt lat="11.53093" lon="42.84109">
        <ele>469.74</ele>
        <time>2011-12-30T11:37:14Z</time>
      </trkpt>
      <trkpt lat="11.53092" lon="42.84109">
        <ele>474.07</ele>
        <time>2011-12-30T11:37:17Z</time>
      </trkpt>
      <trkpt lat="11.53091" lon="42.84109">
        <ele>472.14</ele>
        <time>2011-12-30T11:37:18Z</time>
      </trkpt>
      <trkpt lat="11.5309" lon="42.84109">
        <ele>476.47</ele>
        <time>2011-12-30T11:37:19Z</time>
      </trkpt>
      <trkpt lat="11.53089" lon="42.84109">
        <ele>458.69</ele>
        <time>2011-12-30T11:37:20Z</time>
      </trkpt>
      <trkpt lat="11.53085" lon="42.84107">
        <ele>464.45</ele>
        <time>2011-12-30T11:37:26Z</time>
      </trkpt>
      <trkpt lat="11.53085" lon="42.84107">
        <ele>482.72</ele>
        <time>2011-12-30T11:37:27Z</time>
      </trkpt>
      <trkpt lat="11.53083" lon="42.84108">
        <ele>471.66</ele>
        <time>2011-12-30T11:37:30Z</time>
      </trkpt>
      <trkpt lat="11.53082" lon="42.84109">
        <ele>477.43</ele>
        <time>2011-12-30T11:37:32Z</time>
      </trkpt>
      <trkpt lat="11.53082" lon="42.84109">
        <ele>472.63</ele>
        <time>2011-12-30T11:37:33Z</time>
      </trkpt>
      <trkpt lat="11.53082" lon="42.84109">
        <ele>471.66</ele>
        <time>2011-12-30T11:37:35Z</time>
      </trkpt>
      <trkpt lat="11.53079" lon="42.84111">
        <ele>472.63</ele>
        <time>2011-12-30T11:37:42Z</time>
      </trkpt>
      <trkpt lat="11.53077" lon="42.84112">
        <ele>471.66</ele>
        <time>2011-12-30T11:37:44Z</time>
      </trkpt>
      <trkpt lat="11.53076" lon="42.84113">
        <ele>467.82</ele>
        <time>2011-12-30T11:37:45Z</time>
      </trkpt>
      <trkpt lat="11.53076" lon="42.84113">
        <ele>471.66</ele>
        <time>2011-12-30T11:37:46Z</time>
      </trkpt>
      <trkpt lat="11.53075" lon="42.84115">
        <ele>473.59</ele>
        <time>2011-12-30T11:37:48Z</time>
      </trkpt>
      <trkpt lat="11.53073" lon="42.84116">
        <ele>467.82</ele>
        <time>2011-12-30T11:37:50Z</time>
      </trkpt>
      <trkpt lat="11.53071" lon="42.84116">
        <ele>469.74</ele>
        <time>2011-12-30T11:37:52Z</time>
      </trkpt>
      <trkpt lat="11.53071" lon="42.84117">
        <ele>473.59</ele>
        <time>2011-12-30T11:37:53Z</time>
      </trkpt>
      <trkpt lat="11.53068" lon="42.84117">
        <ele>478.87</ele>
        <time>2011-12-30T11:37:55Z</time>
      </trkpt>
      <trkpt lat="11.53067" lon="42.84116">
        <ele>468.78</ele>
        <time>2011-12-30T11:37:56Z</time>
      </trkpt>
      <trkpt lat="11.53066" lon="42.84116">
        <ele>472.63</ele>
        <time>2011-12-30T11:37:57Z</time>
      </trkpt>
      <trkpt lat="11.53065" lon="42.84116">
        <ele>476.95</ele>
        <time>2011-12-30T11:37:58Z</time>
      </trkpt>
      <trkpt lat="11.53064" lon="42.84116">
        <ele>473.11</ele>
        <time>2011-12-30T11:37:59Z</time>
      </trkpt>
      <trkpt lat="11.53059" lon="42.84116">
        <ele>473.59</ele>
        <time>2011-12-30T11:38:07Z</time>
      </trkpt>
      <trkpt lat="11.53058" lon="42.84116">
        <ele>478.39</ele>
        <time>2011-12-30T11:38:08Z</time>
      </trkpt>
      <trkpt lat="11.53058" lon="42.84116">
        <ele>474.07</ele>
        <time>2011-12-30T11:38:09Z</time>
      </trkpt>
      <trkpt lat="11.53054" lon="42.84115">
        <ele>476.95</ele>
        <time>2011-12-30T11:38:13Z</time>
      </trkpt>
      <trkpt lat="11.53052" lon="42.84114">
        <ele>478.39</ele>
        <time>2011-12-30T11:38:15Z</time>
      </trkpt>
      <trkpt lat="11.53051" lon="42.84114">
        <ele>451.96</ele>
        <time>2011-12-30T11:38:16Z</time>
      </trkpt>
      <trkpt lat="11.53051" lon="42.84114">
        <ele>475.99</ele>
        <time>2011-12-30T11:38:17Z</time>
      </trkpt>
      <trkpt lat="11.5305" lon="42.84114">
        <ele>486.08</ele>
        <time>2011-12-30T11:38:19Z</time>
      </trkpt>
      <trkpt lat="11.53049" lon="42.84113">
        <ele>481.76</ele>
        <time>2011-12-30T11:38:20Z</time>
      </trkpt>
      <trkpt lat="11.53049" lon="42.84113">
        <ele>478.39</ele>
        <time>2011-12-30T11:38:21Z</time>
      </trkpt>
      <trkpt lat="11.53047" lon="42.84113">
        <ele>475.51</ele>
        <time>2011-12-30T11:38:25Z</time>
      </trkpt>
      <trkpt lat="11.53047" lon="42.84114">
        <ele>472.63</ele>
        <time>2011-12-30T11:38:51Z</time>
      </trkpt>
      <trkpt lat="11.53045" lon="42.84116">
        <ele>479.35</ele>
        <time>2011-12-30T11:38:53Z</time>
      </trkpt>
      <trkpt lat="11.53044" lon="42.84117">
        <ele>476.47</ele>
        <time>2011-12-30T11:38:54Z</time>
      </trkpt>
      <trkpt lat="11.53044" lon="42.84118">
        <ele>472.63</ele>
        <time>2011-12-30T11:38:55Z</time>
      </trkpt>
      <trkpt lat="11.53043" lon="42.84122">
        <ele>479.35</ele>
        <time>2011-12-30T11:38:59Z</time>
      </trkpt>
      <trkpt lat="11.53043" lon="42.84122">
        <ele>474.07</ele>
        <time>2011-12-30T11:39:00Z</time>
      </trkpt>
      <trkpt lat="11.53042" lon="42.84123">
        <ele>474.07</ele>
        <time>2011-12-30T11:39:01Z</time>
      </trkpt>
      <trkpt lat="11.53041" lon="42.84126">
        <ele>478.39</ele>
        <time>2011-12-30T11:39:04Z</time>
      </trkpt>
      <trkpt lat="11.53041" lon="42.84126">
        <ele>474.55</ele>
        <time>2011-12-30T11:39:05Z</time>
      </trkpt>
      <trkpt lat="11.5304" lon="42.84127">
        <ele>477.91</ele>
        <time>2011-12-30T11:39:06Z</time>
      </trkpt>
      <trkpt lat="11.53039" lon="42.84129">
        <ele>467.34</ele>
        <time>2011-12-30T11:39:09Z</time>
      </trkpt>
      <trkpt lat="11.53039" lon="42.8413">
        <ele>478.87</ele>
        <time>2011-12-30T11:39:10Z</time>
      </trkpt>
      <trkpt lat="11.53038" lon="42.84131">
        <ele>475.03</ele>
        <time>2011-12-30T11:39:11Z</time>
      </trkpt>
      <trkpt lat="11.53038" lon="42.84131">
        <ele>478.87</ele>
        <time>2011-12-30T11:39:12Z</time>
      </trkpt>
      <trkpt lat="11.53039" lon="42.84135">
        <ele>480.8</ele>
        <time>2011-12-30T11:39:15Z</time>
      </trkpt>
      <trkpt lat="11.53039" lon="42.84135">
        <ele>479.35</ele>
        <time>2011-12-30T11:39:16Z</time>
      </trkpt>
      <trkpt lat="11.53039" lon="42.84138">
        <ele>473.59</ele>
        <time>2011-12-30T11:39:19Z</time>
      </trkpt>
      <trkpt lat="11.53039" lon="42.84138">
        <ele>476.95</ele>
        <time>2011-12-30T11:39:20Z</time>
      </trkpt>
      <trkpt lat="11.53039" lon="42.84138">
        <ele>481.76</ele>
        <time>2011-12-30T11:39:21Z</time>
      </trkpt>
      <trkpt lat="11.53039" lon="42.84139">
        <ele>481.76</ele>
        <time>2011-12-30T11:39:22Z</time>
      </trkpt>
      <trkpt lat="11.5304" lon="42.84141">
        <ele>479.35</ele>
        <time>2011-12-30T11:39:25Z</time>
      </trkpt>
      <trkpt lat="11.53039" lon="42.84142">
        <ele>483.68</ele>
        <time>2011-12-30T11:39:28Z</time>
      </trkpt>
      <trkpt lat="11.53039" lon="42.84143">
        <ele>480.32</ele>
        <time>2011-12-30T11:39:29Z</time>
      </trkpt>
      <trkpt lat="11.53039" lon="42.84143">
        <ele>475.99</ele>
        <time>2011-12-30T11:39:59Z</time>
      </trkpt>
      <trkpt lat="11.53039" lon="42.84143">
        <ele>477.91</ele>
        <time>2011-12-30T11:40:00Z</time>
      </trkpt>
      <trkpt lat="11.53039" lon="42.84143">
        <ele>479.35</ele>
        <time>2011-12-30T11:40:02Z</time>
      </trkpt>
      <trkpt lat="11.53039" lon="42.84144">
        <ele>473.11</ele>
        <time>2011-12-30T11:40:12Z</time>
      </trkpt>
      <trkpt lat="11.53038" lon="42.84146">
        <ele>483.68</ele>
        <time>2011-12-30T11:40:14Z</time>
      </trkpt>
      <trkpt lat="11.53038" lon="42.84147">
        <ele>479.84</ele>
        <time>2011-12-30T11:40:15Z</time>
      </trkpt>
      <trkpt lat="11.53038" lon="42.84147">
        <ele>476.95</ele>
        <time>2011-12-30T11:40:16Z</time>
      </trkpt>
      <trkpt lat="11.53037" lon="42.84149">
        <ele>481.28</ele>
        <time>2011-12-30T11:40:18Z</time>
      </trkpt>
      <trkpt lat="11.53037" lon="42.8415">
        <ele>474.55</ele>
        <time>2011-12-30T11:40:19Z</time>
      </trkpt>
      <trkpt lat="11.53037" lon="42.8415">
        <ele>479.35</ele>
        <time>2011-12-30T11:40:20Z</time>
      </trkpt>
      <trkpt lat="11.53037" lon="42.84151">
        <ele>481.28</ele>
        <time>2011-12-30T11:40:22Z</time>
      </trkpt>
      <trkpt lat="11.53036" lon="42.84152">
        <ele>463.97</ele>
        <time>2011-12-30T11:40:25Z</time>
      </trkpt>
      <trkpt lat="11.53036" lon="42.84153">
        <ele>480.8</ele>
        <time>2011-12-30T11:40:26Z</time>
      </trkpt>
      <trkpt lat="11.53034" lon="42.84158">
        <ele>482.24</ele>
        <time>2011-12-30T11:40:31Z</time>
      </trkpt>
      <trkpt lat="11.53032" lon="42.8416">
        <ele>478.87</ele>
        <time>2011-12-30T11:40:35Z</time>
      </trkpt>
      <trkpt lat="11.53031" lon="42.84161">
        <ele>482.24</ele>
        <time>2011-12-30T11:40:36Z</time>
      </trkpt>
      <trkpt lat="11.53031" lon="42.84161">
        <ele>481.28</ele>
        <time>2011-12-30T11:40:44Z</time>
      </trkpt>
      <trkpt lat="11.53028" lon="42.84162">
        <ele>471.66</ele>
        <time>2011-12-30T11:40:47Z</time>
      </trkpt>
      <trkpt lat="11.53026" lon="42.84163">
        <ele>485.12</ele>
        <time>2011-12-30T11:40:49Z</time>
      </trkpt>
      <trkpt lat="11.53024" lon="42.84163">
        <ele>481.28</ele>
        <time>2011-12-30T11:40:51Z</time>
      </trkpt>
      <trkpt lat="11.53023" lon="42.84163">
        <ele>493.77</ele>
        <time>2011-12-30T11:40:52Z</time>
      </trkpt>
      <trkpt lat="11.53023" lon="42.84163">
        <ele>489.93</ele>
        <time>2011-12-30T11:40:53Z</time>
      </trkpt>
      <trkpt lat="11.53023" lon="42.84163">
        <ele>483.68</ele>
        <time>2011-12-30T11:40:54Z</time>
      </trkpt>
      <trkpt lat="11.5302" lon="42.84161">
        <ele>487.53</ele>
        <time>2011-12-30T11:41:13Z</time>
      </trkpt>
      <trkpt lat="11.5302" lon="42.84161">
        <ele>483.2</ele>
        <time>2011-12-30T11:41:14Z</time>
      </trkpt>
      <trkpt lat="11.53015" lon="42.84159">
        <ele>491.37</ele>
        <time>2011-12-30T11:41:21Z</time>
      </trkpt>
      <trkpt lat="11.53015" lon="42.84159">
        <ele>481.76</ele>
        <time>2011-12-30T11:41:22Z</time>
      </trkpt>
      <trkpt lat="11.53014" lon="42.84159">
        <ele>487.05</ele>
        <time>2011-12-30T11:41:24Z</time>
      </trkpt>
      <trkpt lat="11.53014" lon="42.8416">
        <ele>485.12</ele>
        <time>2011-12-30T11:41:25Z</time>
      </trkpt>
      <trkpt lat="11.53013" lon="42.8416">
        <ele>488.97</ele>
        <time>2011-12-30T11:41:28Z</time>
      </trkpt>
      <trkpt lat="11.53013" lon="42.8416">
        <ele>485.6</ele>
        <time>2011-12-30T11:41:29Z</time>
      </trkpt>
      <trkpt lat="11.53011" lon="42.8416">
        <ele>486.56</ele>
        <time>2011-12-30T11:41:46Z</time>
      </trkpt>
      <trkpt lat="11.53011" lon="42.8416">
        <ele>489.93</ele>
        <time>2011-12-30T11:41:49Z</time>
      </trkpt>
      <trkpt lat="11.5301" lon="42.84159">
        <ele>488.49</ele>
        <time>2011-12-30T11:41:50Z</time>
      </trkpt>
      <trkpt lat="11.53009" lon="42.84159">
        <ele>494.26</ele>
        <time>2011-12-30T11:41:52Z</time>
      </trkpt>
      <trkpt lat="11.53008" lon="42.84159">
        <ele>489.93</ele>
        <time>2011-12-30T11:41:53Z</time>
      </trkpt>
      <trkpt lat="11.53008" lon="42.84159">
        <ele>488.49</ele>
        <time>2011-12-30T11:41:55Z</time>
      </trkpt>
      <trkpt lat="11.5301" lon="42.84157">
        <ele>489.93</ele>
        <time>2011-12-30T11:42:24Z</time>
      </trkpt>
      <trkpt lat="11.5301" lon="42.84157">
        <ele>486.08</ele>
        <time>2011-12-30T11:42:25Z</time>
      </trkpt>
      <trkpt lat="11.5301" lon="42.84154">
        <ele>487.05</ele>
        <time>2011-12-30T11:42:36Z</time>
      </trkpt>
      <trkpt lat="11.53009" lon="42.84155">
        <ele>487.05</ele>
        <time>2011-12-30T11:42:38Z</time>
      </trkpt>
      <trkpt lat="11.53009" lon="42.84155">
        <ele>485.12</ele>
        <time>2011-12-30T11:42:40Z</time>
      </trkpt>
      <trkpt lat="11.53008" lon="42.84154">
        <ele>487.53</ele>
        <time>2011-12-30T11:42:55Z</time>
      </trkpt>
      <trkpt lat="11.53006" lon="42.84151">
        <ele>488.01</ele>
        <time>2011-12-30T11:43:05Z</time>
      </trkpt>
      <trkpt lat="11.53006" lon="42.84149">
        <ele>485.12</ele>
        <time>2011-12-30T11:43:08Z</time>
      </trkpt>
      <trkpt lat="11.53007" lon="42.84147">
        <ele>485.6</ele>
        <time>2011-12-30T11:43:12Z</time>
      </trkpt>
      <trkpt lat="11.53006" lon="42.84144">
        <ele>481.76</ele>
        <time>2011-12-30T11:43:19Z</time>
      </trkpt>
      <trkpt lat="11.53006" lon="42.84143">
        <ele>485.12</ele>
        <time>2011-12-30T11:43:20Z</time>
      </trkpt>
      <trkpt lat="11.53004" lon="42.84137">
        <ele>484.16</ele>
        <time>2011-12-30T11:43:31Z</time>
      </trkpt>
      <trkpt lat="11.53003" lon="42.84135">
        <ele>485.6</ele>
        <time>2011-12-30T11:43:34Z</time>
      </trkpt>
      <trkpt lat="11.53004" lon="42.84135">
        <ele>481.28</ele>
        <time>2011-12-30T11:43:35Z</time>
      </trkpt>
      <trkpt lat="11.53004" lon="42.84134">
        <ele>485.12</ele>
        <time>2011-12-30T11:43:36Z</time>
      </trkpt>
      <trkpt lat="11.53004" lon="42.84133">
        <ele>476.95</ele>
        <time>2011-12-30T11:43:37Z</time>
      </trkpt>
      <trkpt lat="11.53004" lon="42.84132">
        <ele>486.56</ele>
        <time>2011-12-30T11:43:38Z</time>
      </trkpt>
      <trkpt lat="11.53002" lon="42.84126">
        <ele>476.95</ele>
        <time>2011-12-30T11:43:44Z</time>
      </trkpt>
      <trkpt lat="11.53001" lon="42.84126">
        <ele>499.54</ele>
        <time>2011-12-30T11:43:45Z</time>
      </trkpt>
      <trkpt lat="11.53001" lon="42.84125">
        <ele>482.72</ele>
        <time>2011-12-30T11:43:46Z</time>
      </trkpt>
      <trkpt lat="11.53001" lon="42.84125">
        <ele>487.53</ele>
        <time>2011-12-30T11:43:47Z</time>
      </trkpt>
      <trkpt lat="11.53001" lon="42.84124">
        <ele>487.05</ele>
        <time>2011-12-30T11:43:51Z</time>
      </trkpt>
      <trkpt lat="11.53001" lon="42.84124">
        <ele>477.91</ele>
        <time>2011-12-30T11:43:57Z</time>
      </trkpt>
      <trkpt lat="11.53001" lon="42.84124">
        <ele>488.01</ele>
        <time>2011-12-30T11:43:58Z</time>
      </trkpt>
      <trkpt lat="11.53001" lon="42.84123">
        <ele>478.87</ele>
        <time>2011-12-30T11:43:59Z</time>
      </trkpt>
      <trkpt lat="11.53001" lon="42.84123">
        <ele>487.53</ele>
        <time>2011-12-30T11:44:00Z</time>
      </trkpt>
      <trkpt lat="11.52999" lon="42.84123">
        <ele>488.01</ele>
        <time>2011-12-30T11:44:02Z</time>
      </trkpt>
      <trkpt lat="11.52998" lon="42.84122">
        <ele>481.76</ele>
        <time>2011-12-30T11:44:05Z</time>
      </trkpt>
      <trkpt lat="11.52998" lon="42.84122">
        <ele>486.56</ele>
        <time>2011-12-30T11:44:06Z</time>
      </trkpt>
      <trkpt lat="11.52998" lon="42.84122">
        <ele>489.45</ele>
        <time>2011-12-30T11:44:07Z</time>
      </trkpt>
      <trkpt lat="11.52997" lon="42.84122">
        <ele>481.28</ele>
        <time>2011-12-30T11:44:08Z</time>
      </trkpt>
      <trkpt lat="11.52996" lon="42.84121">
        <ele>477.91</ele>
        <time>2011-12-30T11:44:12Z</time>
      </trkpt>
      <trkpt lat="11.52995" lon="42.84121">
        <ele>492.33</ele>
        <time>2011-12-30T11:44:13Z</time>
      </trkpt>
      <trkpt lat="11.52995" lon="42.84121">
        <ele>476.47</ele>
        <time>2011-12-30T11:44:14Z</time>
      </trkpt>
      <trkpt lat="11.52994" lon="42.8412">
        <ele>489.93</ele>
        <time>2011-12-30T11:44:15Z</time>
      </trkpt>
      <trkpt lat="11.52993" lon="42.8412">
        <ele>483.2</ele>
        <time>2011-12-30T11:44:17Z</time>
      </trkpt>
      <trkpt lat="11.52992" lon="42.84119">
        <ele>490.89</ele>
        <time>2011-12-30T11:44:18Z</time>
      </trkpt>
      <trkpt lat="11.5299" lon="42.84118">
        <ele>480.8</ele>
        <time>2011-12-30T11:44:22Z</time>
      </trkpt>
      <trkpt lat="11.52989" lon="42.84119">
        <ele>488.97</ele>
        <time>2011-12-30T11:44:23Z</time>
      </trkpt>
      <trkpt lat="11.52989" lon="42.84119">
        <ele>493.29</ele>
        <time>2011-12-30T11:44:24Z</time>
      </trkpt>
      <trkpt lat="11.52989" lon="42.84119">
        <ele>491.85</ele>
        <time>2011-12-30T11:44:25Z</time>
      </trkpt>
      <trkpt lat="11.52988" lon="42.84118">
        <ele>492.33</ele>
        <time>2011-12-30T11:44:29Z</time>
      </trkpt>
      <trkpt lat="11.52988" lon="42.84115">
        <ele>484.16</ele>
        <time>2011-12-30T11:44:32Z</time>
      </trkpt>
      <trkpt lat="11.52987" lon="42.84114">
        <ele>495.7</ele>
        <time>2011-12-30T11:44:33Z</time>
      </trkpt>
      <trkpt lat="11.52987" lon="42.84113">
        <ele>484.64</ele>
        <time>2011-12-30T11:44:34Z</time>
      </trkpt>
      <trkpt lat="11.52987" lon="42.84113">
        <ele>493.29</ele>
        <time>2011-12-30T11:44:35Z</time>
      </trkpt>
      <trkpt lat="11.52986" lon="42.84112">
        <ele>487.05</ele>
        <time>2011-12-30T11:44:40Z</time>
      </trkpt>
      <trkpt lat="11.52986" lon="42.84112">
        <ele>494.74</ele>
        <time>2011-12-30T11:44:41Z</time>
      </trkpt>
      <trkpt lat="11.52985" lon="42.84111">
        <ele>483.68</ele>
        <time>2011-12-30T11:44:44Z</time>
      </trkpt>
      <trkpt lat="11.52985" lon="42.84111">
        <ele>495.22</ele>
        <time>2011-12-30T11:44:45Z</time>
      </trkpt>
      <trkpt lat="11.52984" lon="42.84111">
        <ele>494.26</ele>
        <time>2011-12-30T11:44:46Z</time>
      </trkpt>
      <trkpt lat="11.52984" lon="42.84111">
        <ele>489.45</ele>
        <time>2011-12-30T11:44:51Z</time>
      </trkpt>
      <trkpt lat="11.52984" lon="42.84111">
        <ele>497.62</ele>
        <time>2011-12-30T11:44:52Z</time>
      </trkpt>
      <trkpt lat="11.52984" lon="42.84111">
        <ele>496.66</ele>
        <time>2011-12-30T11:44:53Z</time>
      </trkpt>
      <trkpt lat="11.52983" lon="42.84111">
        <ele>488.01</ele>
        <time>2011-12-30T11:44:56Z</time>
      </trkpt>
      <trkpt lat="11.52983" lon="42.84111">
        <ele>501.95</ele>
        <time>2011-12-30T11:44:57Z</time>
      </trkpt>
      <trkpt lat="11.52983" lon="42.84111">
        <ele>499.06</ele>
        <time>2011-12-30T11:44:58Z</time>
      </trkpt>
      <trkpt lat="11.52983" lon="42.84111">
        <ele>496.18</ele>
        <time>2011-12-30T11:45:00Z</time>
      </trkpt>
      <trkpt lat="11.52982" lon="42.84111">
        <ele>491.37</ele>
        <time>2011-12-30T11:45:04Z</time>
      </trkpt>
      <trkpt lat="11.52982" lon="42.84111">
        <ele>498.58</ele>
        <time>2011-12-30T11:45:05Z</time>
      </trkpt>
      <trkpt lat="11.52981" lon="42.84111">
        <ele>499.54</ele>
        <time>2011-12-30T11:45:07Z</time>
      </trkpt>
      <trkpt lat="11.5298" lon="42.84111">
        <ele>496.18</ele>
        <time>2011-12-30T11:45:08Z</time>
      </trkpt>
      <trkpt lat="11.5298" lon="42.84112">
        <ele>498.1</ele>
        <time>2011-12-30T11:45:09Z</time>
      </trkpt>
      <trkpt lat="11.52979" lon="42.84112">
        <ele>500.02</ele>
        <time>2011-12-30T11:45:11Z</time>
      </trkpt>
      <trkpt lat="11.52978" lon="42.84113">
        <ele>504.35</ele>
        <time>2011-12-30T11:45:12Z</time>
      </trkpt>
      <trkpt lat="11.52978" lon="42.84113">
        <ele>498.1</ele>
        <time>2011-12-30T11:45:15Z</time>
      </trkpt>
      <trkpt lat="11.52978" lon="42.84113">
        <ele>500.5</ele>
        <time>2011-12-30T11:45:16Z</time>
      </trkpt>
      <trkpt lat="11.52978" lon="42.84113">
        <ele>501.46</ele>
        <time>2011-12-30T11:45:18Z</time>
      </trkpt>
      <trkpt lat="11.52976" lon="42.84113">
        <ele>509.64</ele>
        <time>2011-12-30T11:45:20Z</time>
      </trkpt>
      <trkpt lat="11.52976" lon="42.84114">
        <ele>492.81</ele>
        <time>2011-12-30T11:45:21Z</time>
      </trkpt>
      <trkpt lat="11.52975" lon="42.84114">
        <ele>513</ele>
        <time>2011-12-30T11:45:22Z</time>
      </trkpt>
      <trkpt lat="11.52975" lon="42.84114">
        <ele>496.18</ele>
        <time>2011-12-30T11:45:23Z</time>
      </trkpt>
      <trkpt lat="11.52974" lon="42.84114">
        <ele>503.87</ele>
        <time>2011-12-30T11:45:24Z</time>
      </trkpt>
      <trkpt lat="11.52973" lon="42.84114">
        <ele>498.58</ele>
        <time>2011-12-30T11:45:26Z</time>
      </trkpt>
      <trkpt lat="11.5297" lon="42.84114">
        <ele>506.27</ele>
        <time>2011-12-30T11:45:34Z</time>
      </trkpt>
      <trkpt lat="11.52969" lon="42.84114">
        <ele>502.91</ele>
        <time>2011-12-30T11:45:36Z</time>
      </trkpt>
      <trkpt lat="11.52968" lon="42.84114">
        <ele>506.75</ele>
        <time>2011-12-30T11:45:37Z</time>
      </trkpt>
      <trkpt lat="11.52967" lon="42.84114">
        <ele>511.56</ele>
        <time>2011-12-30T11:45:38Z</time>
      </trkpt>
      <trkpt lat="11.52966" lon="42.84114">
        <ele>506.75</ele>
        <time>2011-12-30T11:45:39Z</time>
      </trkpt>
      <trkpt lat="11.52963" lon="42.84113">
        <ele>515.88</ele>
        <time>2011-12-30T11:45:43Z</time>
      </trkpt>
      <trkpt lat="11.52963" lon="42.84114">
        <ele>510.12</ele>
        <time>2011-12-30T11:45:44Z</time>
      </trkpt>
      <trkpt lat="11.52962" lon="42.84114">
        <ele>505.31</ele>
        <time>2011-12-30T11:45:47Z</time>
      </trkpt>
      <trkpt lat="11.5296" lon="42.84114">
        <ele>500.98</ele>
        <time>2011-12-30T11:45:49Z</time>
      </trkpt>
      <trkpt lat="11.5296" lon="42.84115">
        <ele>509.64</ele>
        <time>2011-12-30T11:45:50Z</time>
      </trkpt>
      <trkpt lat="11.52959" lon="42.84115">
        <ele>518.29</ele>
        <time>2011-12-30T11:45:52Z</time>
      </trkpt>
      <trkpt lat="11.52959" lon="42.84115">
        <ele>515.4</ele>
        <time>2011-12-30T11:45:53Z</time>
      </trkpt>
      <trkpt lat="11.52958" lon="42.84116">
        <ele>504.35</ele>
        <time>2011-12-30T11:45:55Z</time>
      </trkpt>
      <trkpt lat="11.52958" lon="42.84117">
        <ele>503.39</ele>
        <time>2011-12-30T11:45:56Z</time>
      </trkpt>
      <trkpt lat="11.52957" lon="42.84118">
        <ele>506.75</ele>
        <time>2011-12-30T11:45:58Z</time>
      </trkpt>
      <trkpt lat="11.52956" lon="42.8412">
        <ele>515.4</ele>
        <time>2011-12-30T11:46:00Z</time>
      </trkpt>
      <trkpt lat="11.52956" lon="42.84121">
        <ele>513</ele>
        <time>2011-12-30T11:46:01Z</time>
      </trkpt>
      <trkpt lat="11.52956" lon="42.84122">
        <ele>512.52</ele>
        <time>2011-12-30T11:46:06Z</time>
      </trkpt>
      <trkpt lat="11.52955" lon="42.84122">
        <ele>505.31</ele>
        <time>2011-12-30T11:46:21Z</time>
      </trkpt>
      <trkpt lat="11.52954" lon="42.84122">
        <ele>515.88</ele>
        <time>2011-12-30T11:46:22Z</time>
      </trkpt>
      <trkpt lat="11.52951" lon="42.84121">
        <ele>505.31</ele>
        <time>2011-12-30T11:46:24Z</time>
      </trkpt>
      <trkpt lat="11.5295" lon="42.84121">
        <ele>512.52</ele>
        <time>2011-12-30T11:46:25Z</time>
      </trkpt>
      <trkpt lat="11.52949" lon="42.84122">
        <ele>513.96</ele>
        <time>2011-12-30T11:46:27Z</time>
      </trkpt>
      <trkpt lat="11.52948" lon="42.84122">
        <ele>518.77</ele>
        <time>2011-12-30T11:46:28Z</time>
      </trkpt>
      <trkpt lat="11.52948" lon="42.84122">
        <ele>515.88</ele>
        <time>2011-12-30T11:46:29Z</time>
      </trkpt>
      <trkpt lat="11.52947" lon="42.84122">
        <ele>515.4</ele>
        <time>2011-12-30T11:46:30Z</time>
      </trkpt>
      <trkpt lat="11.52945" lon="42.84119">
        <ele>515.88</ele>
        <time>2011-12-30T11:46:34Z</time>
      </trkpt>
      <trkpt lat="11.52944" lon="42.84118">
        <ele>515.88</ele>
        <time>2011-12-30T11:46:37Z</time>
      </trkpt>
      <trkpt lat="11.5294" lon="42.84118">
        <ele>521.17</ele>
        <time>2011-12-30T11:46:40Z</time>
      </trkpt>
      <trkpt lat="11.5294" lon="42.84118">
        <ele>517.81</ele>
        <time>2011-12-30T11:46:41Z</time>
      </trkpt>
      <trkpt lat="11.52938" lon="42.84119">
        <ele>508.67</ele>
        <time>2011-12-30T11:46:45Z</time>
      </trkpt>
      <trkpt lat="11.52938" lon="42.84118">
        <ele>517.81</ele>
        <time>2011-12-30T11:46:46Z</time>
      </trkpt>
      <trkpt lat="11.52937" lon="42.84118">
        <ele>511.08</ele>
        <time>2011-12-30T11:46:48Z</time>
      </trkpt>
      <trkpt lat="11.52936" lon="42.84117">
        <ele>515.4</ele>
        <time>2011-12-30T11:46:49Z</time>
      </trkpt>
      <trkpt lat="11.52934" lon="42.84114">
        <ele>513.96</ele>
        <time>2011-12-30T11:46:52Z</time>
      </trkpt>
      <trkpt lat="11.52934" lon="42.84114">
        <ele>518.29</ele>
        <time>2011-12-30T11:46:53Z</time>
      </trkpt>
      <trkpt lat="11.52933" lon="42.84113">
        <ele>527.9</ele>
        <time>2011-12-30T11:46:55Z</time>
      </trkpt>
      <trkpt lat="11.52933" lon="42.84112">
        <ele>517.33</ele>
        <time>2011-12-30T11:46:56Z</time>
      </trkpt>
      <trkpt lat="11.52932" lon="42.84112">
        <ele>519.25</ele>
        <time>2011-12-30T11:46:59Z</time>
      </trkpt>
      <trkpt lat="11.5293" lon="42.84113">
        <ele>523.58</ele>
        <time>2011-12-30T11:47:01Z</time>
      </trkpt>
      <trkpt lat="11.5293" lon="42.84113">
        <ele>517.33</ele>
        <time>2011-12-30T11:47:02Z</time>
      </trkpt>
      <trkpt lat="11.52927" lon="42.84116">
        <ele>516.85</ele>
        <time>2011-12-30T11:47:06Z</time>
      </trkpt>
      <trkpt lat="11.52925" lon="42.84118">
        <ele>513.48</ele>
        <time>2011-12-30T11:47:09Z</time>
      </trkpt>
      <trkpt lat="11.52925" lon="42.84118">
        <ele>516.85</ele>
        <time>2011-12-30T11:47:10Z</time>
      </trkpt>
      <trkpt lat="11.52922" lon="42.84116">
        <ele>516.37</ele>
        <time>2011-12-30T11:47:12Z</time>
      </trkpt>
      <trkpt lat="11.52921" lon="42.84115">
        <ele>517.81</ele>
        <time>2011-12-30T11:47:14Z</time>
      </trkpt>
      <trkpt lat="11.5292" lon="42.84115">
        <ele>520.69</ele>
        <time>2011-12-30T11:47:16Z</time>
      </trkpt>
      <trkpt lat="11.52919" lon="42.84115">
        <ele>524.06</ele>
        <time>2011-12-30T11:47:18Z</time>
      </trkpt>
      <trkpt lat="11.52918" lon="42.84114">
        <ele>522.13</ele>
        <time>2011-12-30T11:47:19Z</time>
      </trkpt>
      <trkpt lat="11.52918" lon="42.84115">
        <ele>525.98</ele>
        <time>2011-12-30T11:47:20Z</time>
      </trkpt>
      <trkpt lat="11.52916" lon="42.84114">
        <ele>522.13</ele>
        <time>2011-12-30T11:47:23Z</time>
      </trkpt>
      <trkpt lat="11.52915" lon="42.84114">
        <ele>522.61</ele>
        <time>2011-12-30T11:47:24Z</time>
      </trkpt>
      <trkpt lat="11.52914" lon="42.84115">
        <ele>515.4</ele>
        <time>2011-12-30T11:47:26Z</time>
      </trkpt>
      <trkpt lat="11.52913" lon="42.84116">
        <ele>520.69</ele>
        <time>2011-12-30T11:47:27Z</time>
      </trkpt>
      <trkpt lat="11.52912" lon="42.84118">
        <ele>524.54</ele>
        <time>2011-12-30T11:47:29Z</time>
      </trkpt>
      <trkpt lat="11.5291" lon="42.8412">
        <ele>526.46</ele>
        <time>2011-12-30T11:47:32Z</time>
      </trkpt>
      <trkpt lat="11.5291" lon="42.8412">
        <ele>521.65</ele>
        <time>2011-12-30T11:47:44Z</time>
      </trkpt>
      <trkpt lat="11.5291" lon="42.8412">
        <ele>525.98</ele>
        <time>2011-12-30T11:47:45Z</time>
      </trkpt>
      <trkpt lat="11.52909" lon="42.84121">
        <ele>529.34</ele>
        <time>2011-12-30T11:47:47Z</time>
      </trkpt>
      <trkpt lat="11.52909" lon="42.84121">
        <ele>527.42</ele>
        <time>2011-12-30T11:47:48Z</time>
      </trkpt>
      <trkpt lat="11.52909" lon="42.84121">
        <ele>525.98</ele>
        <time>2011-12-30T11:47:50Z</time>
      </trkpt>
      <trkpt lat="11.52913" lon="42.84117">
        <ele>525.02</ele>
        <time>2011-12-30T11:48:08Z</time>
      </trkpt>
      <trkpt lat="11.52916" lon="42.84112">
        <ele>522.61</ele>
        <time>2011-12-30T11:48:19Z</time>
      </trkpt>
      <trkpt lat="11.52921" lon="42.84114">
        <ele>520.69</ele>
        <time>2011-12-30T11:48:25Z</time>
      </trkpt>
      <trkpt lat="11.52922" lon="42.84115">
        <ele>522.61</ele>
        <time>2011-12-30T11:48:37Z</time>
      </trkpt>
      <trkpt lat="11.52921" lon="42.84115">
        <ele>521.65</ele>
        <time>2011-12-30T11:48:57Z</time>
      </trkpt>
      <trkpt lat="11.52921" lon="42.84115">
        <ele>520.21</ele>
        <time>2011-12-30T11:49:18Z</time>
      </trkpt>
      <trkpt lat="11.52922" lon="42.84115">
        <ele>521.17</ele>
        <time>2011-12-30T11:49:50Z</time>
      </trkpt>
      <trkpt lat="11.52928" lon="42.84119">
        <ele>519.25</ele>
        <time>2011-12-30T11:50:10Z</time>
      </trkpt>
      <trkpt lat="11.5293" lon="42.8412">
        <ele>519.73</ele>
        <time>2011-12-30T11:50:13Z</time>
      </trkpt>
      <trkpt lat="11.52939" lon="42.84119">
        <ele>517.33</ele>
        <time>2011-12-30T11:50:22Z</time>
      </trkpt>
      <trkpt lat="11.52942" lon="42.84118">
        <ele>517.81</ele>
        <time>2011-12-30T11:50:25Z</time>
      </trkpt>
      <trkpt lat="11.52945" lon="42.8412">
        <ele>516.37</ele>
        <time>2011-12-30T11:50:28Z</time>
      </trkpt>
      <trkpt lat="11.52954" lon="42.84116">
        <ele>513.48</ele>
        <time>2011-12-30T11:50:36Z</time>
      </trkpt>
      <trkpt lat="11.52956" lon="42.84114">
        <ele>512.52</ele>
        <time>2011-12-30T11:50:40Z</time>
      </trkpt>
      <trkpt lat="11.52957" lon="42.84113">
        <ele>512.52</ele>
        <time>2011-12-30T11:50:52Z</time>
      </trkpt>
      <trkpt lat="11.52957" lon="42.84114">
        <ele>506.75</ele>
        <time>2011-12-30T11:51:49Z</time>
      </trkpt>
      <trkpt lat="11.52957" lon="42.84114">
        <ele>515.88</ele>
        <time>2011-12-30T11:51:50Z</time>
      </trkpt>
      <trkpt lat="11.52957" lon="42.84115">
        <ele>508.67</ele>
        <time>2011-12-30T11:51:52Z</time>
      </trkpt>
      <trkpt lat="11.52956" lon="42.84117">
        <ele>500.02</ele>
        <time>2011-12-30T11:51:54Z</time>
      </trkpt>
      <trkpt lat="11.52956" lon="42.84118">
        <ele>519.73</ele>
        <time>2011-12-30T11:51:55Z</time>
      </trkpt>
      <trkpt lat="11.52956" lon="42.84118">
        <ele>514.92</ele>
        <time>2011-12-30T11:51:56Z</time>
      </trkpt>
      <trkpt lat="11.52956" lon="42.84117">
        <ele>516.85</ele>
        <time>2011-12-30T11:52:15Z</time>
      </trkpt>
      <trkpt lat="11.52957" lon="42.84117">
        <ele>514.92</ele>
        <time>2011-12-30T11:52:34Z</time>
      </trkpt>
      <trkpt lat="11.52955" lon="42.84118">
        <ele>510.6</ele>
        <time>2011-12-30T11:53:16Z</time>
      </trkpt>
      <trkpt lat="11.52955" lon="42.84118">
        <ele>518.29</ele>
        <time>2011-12-30T11:53:17Z</time>
      </trkpt>
      <trkpt lat="11.52954" lon="42.84119">
        <ele>516.85</ele>
        <time>2011-12-30T11:53:18Z</time>
      </trkpt>
      <trkpt lat="11.52953" lon="42.84119">
        <ele>520.21</ele>
        <time>2011-12-30T11:53:20Z</time>
      </trkpt>
      <trkpt lat="11.52953" lon="42.84119">
        <ele>513</ele>
        <time>2011-12-30T11:53:21Z</time>
      </trkpt>
      <trkpt lat="11.52952" lon="42.84119">
        <ele>521.17</ele>
        <time>2011-12-30T11:53:22Z</time>
      </trkpt>
      <trkpt lat="11.52952" lon="42.84119">
        <ele>514.44</ele>
        <time>2011-12-30T11:53:23Z</time>
      </trkpt>
      <trkpt lat="11.52952" lon="42.84119">
        <ele>518.29</ele>
        <time>2011-12-30T11:53:24Z</time>
      </trkpt>
      <trkpt lat="11.52949" lon="42.84121">
        <ele>522.13</ele>
        <time>2011-12-30T11:53:28Z</time>
      </trkpt>
      <trkpt lat="11.52949" lon="42.84121">
        <ele>512.52</ele>
        <time>2011-12-30T11:53:29Z</time>
      </trkpt>
      <trkpt lat="11.52948" lon="42.84121">
        <ele>518.77</ele>
        <time>2011-12-30T11:53:30Z</time>
      </trkpt>
      <trkpt lat="11.52948" lon="42.84121">
        <ele>517.81</ele>
        <time>2011-12-30T11:53:32Z</time>
      </trkpt>
      <trkpt lat="11.52945" lon="42.84122">
        <ele>520.69</ele>
        <time>2011-12-30T11:53:35Z</time>
      </trkpt>
      <trkpt lat="11.52942" lon="42.84123">
        <ele>513.48</ele>
        <time>2011-12-30T11:53:38Z</time>
      </trkpt>
      <trkpt lat="11.52941" lon="42.84123">
        <ele>519.73</ele>
        <time>2011-12-30T11:53:39Z</time>
      </trkpt>
      <trkpt lat="11.52938" lon="42.84121">
        <ele>521.65</ele>
        <time>2011-12-30T11:53:43Z</time>
      </trkpt>
      <trkpt lat="11.52935" lon="42.84121">
        <ele>516.37</ele>
        <time>2011-12-30T11:53:48Z</time>
      </trkpt>
      <trkpt lat="11.52934" lon="42.84121">
        <ele>522.61</ele>
        <time>2011-12-30T11:53:49Z</time>
      </trkpt>
      <trkpt lat="11.52934" lon="42.84121">
        <ele>513.96</ele>
        <time>2011-12-30T11:53:50Z</time>
      </trkpt>
      <trkpt lat="11.52933" lon="42.84121">
        <ele>522.13</ele>
        <time>2011-12-30T11:53:51Z</time>
      </trkpt>
      <trkpt lat="11.52929" lon="42.84121">
        <ele>515.4</ele>
        <time>2011-12-30T11:53:55Z</time>
      </trkpt>
      <trkpt lat="11.52927" lon="42.8412">
        <ele>517.33</ele>
        <time>2011-12-30T11:53:57Z</time>
      </trkpt>
      <trkpt lat="11.52927" lon="42.84119">
        <ele>522.13</ele>
        <time>2011-12-30T11:53:58Z</time>
      </trkpt>
      <trkpt lat="11.52926" lon="42.84118">
        <ele>516.85</ele>
        <time>2011-12-30T11:54:00Z</time>
      </trkpt>
      <trkpt lat="11.52925" lon="42.84118">
        <ele>525.02</ele>
        <time>2011-12-30T11:54:01Z</time>
      </trkpt>
      <trkpt lat="11.52922" lon="42.84116">
        <ele>519.73</ele>
        <time>2011-12-30T11:54:06Z</time>
      </trkpt>
      <trkpt lat="11.52921" lon="42.84116">
        <ele>524.06</ele>
        <time>2011-12-30T11:54:07Z</time>
      </trkpt>
      <trkpt lat="11.5292" lon="42.84115">
        <ele>520.21</ele>
        <time>2011-12-30T11:54:09Z</time>
      </trkpt>
      <trkpt lat="11.5292" lon="42.84115">
        <ele>527.42</ele>
        <time>2011-12-30T11:54:10Z</time>
      </trkpt>
      <trkpt lat="11.52918" lon="42.84115">
        <ele>523.58</ele>
        <time>2011-12-30T11:54:13Z</time>
      </trkpt>
      <trkpt lat="11.52918" lon="42.84115">
        <ele>528.86</ele>
        <time>2011-12-30T11:54:15Z</time>
      </trkpt>
      <trkpt lat="11.52918" lon="42.84115">
        <ele>525.98</ele>
        <time>2011-12-30T11:54:16Z</time>
      </trkpt>
      <trkpt lat="11.52917" lon="42.84115">
        <ele>519.25</ele>
        <time>2011-12-30T11:54:18Z</time>
      </trkpt>
      <trkpt lat="11.52915" lon="42.84114">
        <ele>521.65</ele>
        <time>2011-12-30T11:54:20Z</time>
      </trkpt>
      <trkpt lat="11.52915" lon="42.84114">
        <ele>526.94</ele>
        <time>2011-12-30T11:54:21Z</time>
      </trkpt>
      <trkpt lat="11.52914" lon="42.84115">
        <ele>530.3</ele>
        <time>2011-12-30T11:54:23Z</time>
      </trkpt>
      <trkpt lat="11.52913" lon="42.84116">
        <ele>529.34</ele>
        <time>2011-12-30T11:54:24Z</time>
      </trkpt>
      <trkpt lat="11.52912" lon="42.84116">
        <ele>523.58</ele>
        <time>2011-12-30T11:54:26Z</time>
      </trkpt>
      <trkpt lat="11.52911" lon="42.84117">
        <ele>525.02</ele>
        <time>2011-12-30T11:54:28Z</time>
      </trkpt>
      <trkpt lat="11.52911" lon="42.84118">
        <ele>529.82</ele>
        <time>2011-12-30T11:54:29Z</time>
      </trkpt>
      <trkpt lat="11.52909" lon="42.84119">
        <ele>526.94</ele>
        <time>2011-12-30T11:54:33Z</time>
      </trkpt>
      <trkpt lat="11.52908" lon="42.84118">
        <ele>534.63</ele>
        <time>2011-12-30T11:54:35Z</time>
      </trkpt>
      <trkpt lat="11.52907" lon="42.84118">
        <ele>531.27</ele>
        <time>2011-12-30T11:54:36Z</time>
      </trkpt>
      <trkpt lat="11.52907" lon="42.84118">
        <ele>528.38</ele>
        <time>2011-12-30T11:54:37Z</time>
      </trkpt>
      <trkpt lat="11.52906" lon="42.84117">
        <ele>529.34</ele>
        <time>2011-12-30T11:54:38Z</time>
      </trkpt>
      <trkpt lat="11.52906" lon="42.84117">
        <ele>526.46</ele>
        <time>2011-12-30T11:54:39Z</time>
      </trkpt>
      <trkpt lat="11.52905" lon="42.84117">
        <ele>531.27</ele>
        <time>2011-12-30T11:54:40Z</time>
      </trkpt>
      <trkpt lat="11.52905" lon="42.84117">
        <ele>524.54</ele>
        <time>2011-12-30T11:54:41Z</time>
      </trkpt>
      <trkpt lat="11.52904" lon="42.84117">
        <ele>531.27</ele>
        <time>2011-12-30T11:54:42Z</time>
      </trkpt>
      <trkpt lat="11.52904" lon="42.84116">
        <ele>525.5</ele>
        <time>2011-12-30T11:54:44Z</time>
      </trkpt>
      <trkpt lat="11.52903" lon="42.84115">
        <ele>532.71</ele>
        <time>2011-12-30T11:54:45Z</time>
      </trkpt>
      <trkpt lat="11.52902" lon="42.84114">
        <ele>524.06</ele>
        <time>2011-12-30T11:54:46Z</time>
      </trkpt>
      <trkpt lat="11.52902" lon="42.84114">
        <ele>531.75</ele>
        <time>2011-12-30T11:54:47Z</time>
      </trkpt>
      <trkpt lat="11.52899" lon="42.84113">
        <ele>522.61</ele>
        <time>2011-12-30T11:54:51Z</time>
      </trkpt>
      <trkpt lat="11.52898" lon="42.84113">
        <ele>530.79</ele>
        <time>2011-12-30T11:54:52Z</time>
      </trkpt>
      <trkpt lat="11.52897" lon="42.84112">
        <ele>524.54</ele>
        <time>2011-12-30T11:54:54Z</time>
      </trkpt>
      <trkpt lat="11.52896" lon="42.84112">
        <ele>540.4</ele>
        <time>2011-12-30T11:54:55Z</time>
      </trkpt>
      <trkpt lat="11.52896" lon="42.84112">
        <ele>526.46</ele>
        <time>2011-12-30T11:54:56Z</time>
      </trkpt>
      <trkpt lat="11.52895" lon="42.84112">
        <ele>533.67</ele>
        <time>2011-12-30T11:54:57Z</time>
      </trkpt>
      <trkpt lat="11.52894" lon="42.84112">
        <ele>539.92</ele>
        <time>2011-12-30T11:55:00Z</time>
      </trkpt>
      <trkpt lat="11.52893" lon="42.84112">
        <ele>527.9</ele>
        <time>2011-12-30T11:55:01Z</time>
      </trkpt>
      <trkpt lat="11.52893" lon="42.84111">
        <ele>535.11</ele>
        <time>2011-12-30T11:55:02Z</time>
      </trkpt>
      <trkpt lat="11.52892" lon="42.84111">
        <ele>530.79</ele>
        <time>2011-12-30T11:55:03Z</time>
      </trkpt>
      <trkpt lat="11.52892" lon="42.84111">
        <ele>536.55</ele>
        <time>2011-12-30T11:55:04Z</time>
      </trkpt>
      <trkpt lat="11.52891" lon="42.84111">
        <ele>526.94</ele>
        <time>2011-12-30T11:55:06Z</time>
      </trkpt>
      <trkpt lat="11.5289" lon="42.84112">
        <ele>528.86</ele>
        <time>2011-12-30T11:55:08Z</time>
      </trkpt>
      <trkpt lat="11.52889" lon="42.84112">
        <ele>537.03</ele>
        <time>2011-12-30T11:55:09Z</time>
      </trkpt>
      <trkpt lat="11.52888" lon="42.84113">
        <ele>531.27</ele>
        <time>2011-12-30T11:55:12Z</time>
      </trkpt>
      <trkpt lat="11.52887" lon="42.84113">
        <ele>537.51</ele>
        <time>2011-12-30T11:55:13Z</time>
      </trkpt>
      <trkpt lat="11.52886" lon="42.84113">
        <ele>541.36</ele>
        <time>2011-12-30T11:55:14Z</time>
      </trkpt>
      <trkpt lat="11.52886" lon="42.84113">
        <ele>537.51</ele>
        <time>2011-12-30T11:55:15Z</time>
      </trkpt>
      <trkpt lat="11.52886" lon="42.84113">
        <ele>541.36</ele>
        <time>2011-12-30T11:55:16Z</time>
      </trkpt>
      <trkpt lat="11.52885" lon="42.84112">
        <ele>525.5</ele>
        <time>2011-12-30T11:55:18Z</time>
      </trkpt>
      <trkpt lat="11.52882" lon="42.84112">
        <ele>538.96</ele>
        <time>2011-12-30T11:55:21Z</time>
      </trkpt>
      <trkpt lat="11.52881" lon="42.84112">
        <ele>544.24</ele>
        <time>2011-12-30T11:55:23Z</time>
      </trkpt>
      <trkpt lat="11.52881" lon="42.84112">
        <ele>538.96</ele>
        <time>2011-12-30T11:55:24Z</time>
      </trkpt>
      <trkpt lat="11.52879" lon="42.84111">
        <ele>532.71</ele>
        <time>2011-12-30T11:55:26Z</time>
      </trkpt>
      <trkpt lat="11.52878" lon="42.84112">
        <ele>538.96</ele>
        <time>2011-12-30T11:55:27Z</time>
      </trkpt>
      <trkpt lat="11.52877" lon="42.84112">
        <ele>531.27</ele>
        <time>2011-12-30T11:55:29Z</time>
      </trkpt>
      <trkpt lat="11.52876" lon="42.84112">
        <ele>541.36</ele>
        <time>2011-12-30T11:55:30Z</time>
      </trkpt>
      <trkpt lat="11.52875" lon="42.84112">
        <ele>530.79</ele>
        <time>2011-12-30T11:55:31Z</time>
      </trkpt>
      <trkpt lat="11.52875" lon="42.84111">
        <ele>543.28</ele>
        <time>2011-12-30T11:55:32Z</time>
      </trkpt>
      <trkpt lat="11.52874" lon="42.84111">
        <ele>547.61</ele>
        <time>2011-12-30T11:55:33Z</time>
      </trkpt>
      <trkpt lat="11.52874" lon="42.84111">
        <ele>544.72</ele>
        <time>2011-12-30T11:55:34Z</time>
      </trkpt>
      <trkpt lat="11.52873" lon="42.84111">
        <ele>537.51</ele>
        <time>2011-12-30T11:55:35Z</time>
      </trkpt>
      <trkpt lat="11.52873" lon="42.84111">
        <ele>540.88</ele>
        <time>2011-12-30T11:55:36Z</time>
      </trkpt>
      <trkpt lat="11.52873" lon="42.8411">
        <ele>539.44</ele>
        <time>2011-12-30T11:55:39Z</time>
      </trkpt>
      <trkpt lat="11.52873" lon="42.8411">
        <ele>534.15</ele>
        <time>2011-12-30T11:55:40Z</time>
      </trkpt>
      <trkpt lat="11.52874" lon="42.84109">
        <ele>543.28</ele>
        <time>2011-12-30T11:55:41Z</time>
      </trkpt>
      <trkpt lat="11.52874" lon="42.84107">
        <ele>539.92</ele>
        <time>2011-12-30T11:55:48Z</time>
      </trkpt>
      <trkpt lat="11.52874" lon="42.84107">
        <ele>549.05</ele>
        <time>2011-12-30T11:55:51Z</time>
      </trkpt>
      <trkpt lat="11.52874" lon="42.84106">
        <ele>545.2</ele>
        <time>2011-12-30T11:55:52Z</time>
      </trkpt>
      <trkpt lat="11.52874" lon="42.84106">
        <ele>537.03</ele>
        <time>2011-12-30T11:55:53Z</time>
      </trkpt>
      <trkpt lat="11.52874" lon="42.84105">
        <ele>543.76</ele>
        <time>2011-12-30T11:55:54Z</time>
      </trkpt>
      <trkpt lat="11.52874" lon="42.84105">
        <ele>540.4</ele>
        <time>2011-12-30T11:55:55Z</time>
      </trkpt>
      <trkpt lat="11.52874" lon="42.84105">
        <ele>537.51</ele>
        <time>2011-12-30T11:55:57Z</time>
      </trkpt>
      <trkpt lat="11.52874" lon="42.84104">
        <ele>544.24</ele>
        <time>2011-12-30T11:55:58Z</time>
      </trkpt>
      <trkpt lat="11.52874" lon="42.84103">
        <ele>537.51</ele>
        <time>2011-12-30T11:56:00Z</time>
      </trkpt>
      <trkpt lat="11.52874" lon="42.84102">
        <ele>549.05</ele>
        <time>2011-12-30T11:56:01Z</time>
      </trkpt>
      <trkpt lat="11.52875" lon="42.84102">
        <ele>541.36</ele>
        <time>2011-12-30T11:56:02Z</time>
      </trkpt>
      <trkpt lat="11.52875" lon="42.84102">
        <ele>544.24</ele>
        <time>2011-12-30T11:56:03Z</time>
      </trkpt>
      <trkpt lat="11.52875" lon="42.841">
        <ele>549.05</ele>
        <time>2011-12-30T11:56:07Z</time>
      </trkpt>
      <trkpt lat="11.52875" lon="42.84099">
        <ele>541.36</ele>
        <time>2011-12-30T11:56:08Z</time>
      </trkpt>
      <trkpt lat="11.52876" lon="42.84098">
        <ele>537.51</ele>
        <time>2011-12-30T11:56:10Z</time>
      </trkpt>
      <trkpt lat="11.52876" lon="42.84097">
        <ele>544.72</ele>
        <time>2011-12-30T11:56:11Z</time>
      </trkpt>
      <trkpt lat="11.52875" lon="42.84097">
        <ele>536.55</ele>
        <time>2011-12-30T11:56:14Z</time>
      </trkpt>
      <trkpt lat="11.52875" lon="42.84097">
        <ele>547.61</ele>
        <time>2011-12-30T11:56:15Z</time>
      </trkpt>
      <trkpt lat="11.52875" lon="42.84096">
        <ele>545.69</ele>
        <time>2011-12-30T11:56:18Z</time>
      </trkpt>
      <trkpt lat="11.52875" lon="42.84096">
        <ele>541.36</ele>
        <time>2011-12-30T11:56:20Z</time>
      </trkpt>
      <trkpt lat="11.52872" lon="42.84095">
        <ele>536.55</ele>
        <time>2011-12-30T11:56:25Z</time>
      </trkpt>
      <trkpt lat="11.52871" lon="42.84094">
        <ele>550.01</ele>
        <time>2011-12-30T11:56:26Z</time>
      </trkpt>
      <trkpt lat="11.52871" lon="42.84094">
        <ele>544.24</ele>
        <time>2011-12-30T11:56:27Z</time>
      </trkpt>
      <trkpt lat="11.52871" lon="42.84094">
        <ele>547.61</ele>
        <time>2011-12-30T11:56:28Z</time>
      </trkpt>
      <trkpt lat="11.52871" lon="42.84093">
        <ele>552.9</ele>
        <time>2011-12-30T11:56:32Z</time>
      </trkpt>
      <trkpt lat="11.52871" lon="42.84092">
        <ele>546.17</ele>
        <time>2011-12-30T11:56:33Z</time>
      </trkpt>
      <trkpt lat="11.52871" lon="42.84088">
        <ele>544.24</ele>
        <time>2011-12-30T11:56:38Z</time>
      </trkpt>
      <trkpt lat="11.52871" lon="42.84088">
        <ele>546.17</ele>
        <time>2011-12-30T11:56:39Z</time>
      </trkpt>
      <trkpt lat="11.52871" lon="42.84087">
        <ele>554.34</ele>
        <time>2011-12-30T11:56:40Z</time>
      </trkpt>
      <trkpt lat="11.5287" lon="42.84086">
        <ele>542.32</ele>
        <time>2011-12-30T11:56:41Z</time>
      </trkpt>
      <trkpt lat="11.5287" lon="42.84085">
        <ele>550.97</ele>
        <time>2011-12-30T11:56:42Z</time>
      </trkpt>
      <trkpt lat="11.52871" lon="42.84085">
        <ele>555.3</ele>
        <time>2011-12-30T11:56:46Z</time>
      </trkpt>
      <trkpt lat="11.52871" lon="42.84085">
        <ele>550.49</ele>
        <time>2011-12-30T11:56:47Z</time>
      </trkpt>
      <trkpt lat="11.52871" lon="42.84084">
        <ele>546.65</ele>
        <time>2011-12-30T11:56:51Z</time>
      </trkpt>
      <trkpt lat="11.52871" lon="42.84084">
        <ele>551.93</ele>
        <time>2011-12-30T11:56:52Z</time>
      </trkpt>
      <trkpt lat="11.52871" lon="42.84084">
        <ele>550.01</ele>
        <time>2011-12-30T11:56:55Z</time>
      </trkpt>
      <trkpt lat="11.52871" lon="42.84084">
        <ele>550.49</ele>
        <time>2011-12-30T11:56:56Z</time>
      </trkpt>
      <trkpt lat="11.52872" lon="42.8408">
        <ele>550.97</ele>
        <time>2011-12-30T11:57:03Z</time>
      </trkpt>
      <trkpt lat="11.5287" lon="42.84079">
        <ele>550.97</ele>
        <time>2011-12-30T11:57:09Z</time>
      </trkpt>
      <trkpt lat="11.52868" lon="42.84079">
        <ele>546.65</ele>
        <time>2011-12-30T11:57:11Z</time>
      </trkpt>
      <trkpt lat="11.52868" lon="42.84079">
        <ele>551.45</ele>
        <time>2011-12-30T11:57:12Z</time>
      </trkpt>
      <trkpt lat="11.52866" lon="42.84078">
        <ele>554.82</ele>
        <time>2011-12-30T11:57:16Z</time>
      </trkpt>
      <trkpt lat="11.52866" lon="42.84078">
        <ele>550.49</ele>
        <time>2011-12-30T11:57:17Z</time>
      </trkpt>
      <trkpt lat="11.52865" lon="42.84078">
        <ele>553.86</ele>
        <time>2011-12-30T11:57:18Z</time>
      </trkpt>
      <trkpt lat="11.52865" lon="42.84078">
        <ele>550.49</ele>
        <time>2011-12-30T11:57:19Z</time>
      </trkpt>
      <trkpt lat="11.52863" lon="42.84075">
        <ele>551.45</ele>
        <time>2011-12-30T11:57:24Z</time>
      </trkpt>
      <trkpt lat="11.52863" lon="42.84075">
        <ele>554.82</ele>
        <time>2011-12-30T11:57:25Z</time>
      </trkpt>
      <trkpt lat="11.52862" lon="42.84075">
        <ele>547.61</ele>
        <time>2011-12-30T11:57:28Z</time>
      </trkpt>
      <trkpt lat="11.52862" lon="42.84076">
        <ele>555.3</ele>
        <time>2011-12-30T11:57:29Z</time>
      </trkpt>
      <trkpt lat="11.52862" lon="42.84076">
        <ele>558.66</ele>
        <time>2011-12-30T11:57:30Z</time>
      </trkpt>
      <trkpt lat="11.52861" lon="42.84075">
        <ele>553.38</ele>
        <time>2011-12-30T11:57:31Z</time>
      </trkpt>
      <trkpt lat="11.52862" lon="42.84074">
        <ele>559.14</ele>
        <time>2011-12-30T11:57:35Z</time>
      </trkpt>
      <trkpt lat="11.52862" lon="42.84073">
        <ele>551.45</ele>
        <time>2011-12-30T11:57:37Z</time>
      </trkpt>
      <trkpt lat="11.52862" lon="42.84072">
        <ele>555.3</ele>
        <time>2011-12-30T11:57:38Z</time>
      </trkpt>
      <trkpt lat="11.52861" lon="42.84072">
        <ele>560.59</ele>
        <time>2011-12-30T11:57:39Z</time>
      </trkpt>
      <trkpt lat="11.52861" lon="42.84072">
        <ele>555.78</ele>
        <time>2011-12-30T11:57:40Z</time>
      </trkpt>
      <trkpt lat="11.5286" lon="42.84071">
        <ele>559.62</ele>
        <time>2011-12-30T11:57:43Z</time>
      </trkpt>
      <trkpt lat="11.5286" lon="42.84071">
        <ele>545.69</ele>
        <time>2011-12-30T11:57:44Z</time>
      </trkpt>
      <trkpt lat="11.5286" lon="42.8407">
        <ele>560.59</ele>
        <time>2011-12-30T11:57:45Z</time>
      </trkpt>
      <trkpt lat="11.52858" lon="42.84069">
        <ele>557.7</ele>
        <time>2011-12-30T11:57:48Z</time>
      </trkpt>
      <trkpt lat="11.52859" lon="42.84064">
        <ele>555.3</ele>
        <time>2011-12-30T11:57:55Z</time>
      </trkpt>
      <trkpt lat="11.52859" lon="42.84063">
        <ele>561.55</ele>
        <time>2011-12-30T11:57:56Z</time>
      </trkpt>
      <trkpt lat="11.52862" lon="42.84062">
        <ele>562.99</ele>
        <time>2011-12-30T11:57:59Z</time>
      </trkpt>
      <trkpt lat="11.52863" lon="42.84061">
        <ele>559.62</ele>
        <time>2011-12-30T11:58:01Z</time>
      </trkpt>
      <trkpt lat="11.52863" lon="42.84061">
        <ele>553.38</ele>
        <time>2011-12-30T11:58:02Z</time>
      </trkpt>
      <trkpt lat="11.52864" lon="42.84061">
        <ele>560.11</ele>
        <time>2011-12-30T11:58:03Z</time>
      </trkpt>
      <trkpt lat="11.52865" lon="42.8406">
        <ele>557.22</ele>
        <time>2011-12-30T11:58:05Z</time>
      </trkpt>
      <trkpt lat="11.52864" lon="42.84059">
        <ele>560.59</ele>
        <time>2011-12-30T11:58:08Z</time>
      </trkpt>
      <trkpt lat="11.52864" lon="42.84058">
        <ele>562.03</ele>
        <time>2011-12-30T11:58:25Z</time>
      </trkpt>
      <trkpt lat="11.52864" lon="42.84058">
        <ele>559.14</ele>
        <time>2011-12-30T11:58:42Z</time>
      </trkpt>
      <trkpt lat="11.52864" lon="42.84058">
        <ele>562.03</ele>
        <time>2011-12-30T11:58:50Z</time>
      </trkpt>
      <trkpt lat="11.52864" lon="42.84058">
        <ele>554.34</ele>
        <time>2011-12-30T11:58:51Z</time>
      </trkpt>
      <trkpt lat="11.52864" lon="42.84058">
        <ele>565.87</ele>
        <time>2011-12-30T11:58:52Z</time>
      </trkpt>
      <trkpt lat="11.52864" lon="42.84057">
        <ele>559.62</ele>
        <time>2011-12-30T11:58:53Z</time>
      </trkpt>
      <trkpt lat="11.52866" lon="42.84049">
        <ele>561.55</ele>
        <time>2011-12-30T11:59:05Z</time>
      </trkpt>
      <trkpt lat="11.52865" lon="42.84046">
        <ele>562.03</ele>
        <time>2011-12-30T11:59:15Z</time>
      </trkpt>
      <trkpt lat="11.52869" lon="42.84041">
        <ele>559.62</ele>
        <time>2011-12-30T11:59:29Z</time>
      </trkpt>
      <trkpt lat="11.52875" lon="42.84037">
        <ele>561.07</ele>
        <time>2011-12-30T11:59:39Z</time>
      </trkpt>
      <trkpt lat="11.52879" lon="42.84032">
        <ele>563.95</ele>
        <time>2011-12-30T11:59:47Z</time>
      </trkpt>
      <trkpt lat="11.52879" lon="42.84032">
        <ele>557.7</ele>
        <time>2011-12-30T11:59:48Z</time>
      </trkpt>
      <trkpt lat="11.5288" lon="42.84031">
        <ele>564.91</ele>
        <time>2011-12-30T11:59:49Z</time>
      </trkpt>
      <trkpt lat="11.5288" lon="42.8403">
        <ele>562.03</ele>
        <time>2011-12-30T11:59:52Z</time>
      </trkpt>
      <trkpt lat="11.52882" lon="42.84028">
        <ele>556.26</ele>
        <time>2011-12-30T11:59:57Z</time>
      </trkpt>
      <trkpt lat="11.52883" lon="42.84027">
        <ele>562.99</ele>
        <time>2011-12-30T11:59:58Z</time>
      </trkpt>
      <trkpt lat="11.52885" lon="42.84024">
        <ele>568.76</ele>
        <time>2011-12-30T12:00:02Z</time>
      </trkpt>
      <trkpt lat="11.52885" lon="42.84024">
        <ele>565.87</ele>
        <time>2011-12-30T12:00:03Z</time>
      </trkpt>
      <trkpt lat="11.52886" lon="42.84023">
        <ele>563.47</ele>
        <time>2011-12-30T12:00:05Z</time>
      </trkpt>
      <trkpt lat="11.52888" lon="42.8402">
        <ele>562.99</ele>
        <time>2011-12-30T12:00:34Z</time>
      </trkpt>
      <trkpt lat="11.52888" lon="42.84019">
        <ele>564.91</ele>
        <time>2011-12-30T12:00:50Z</time>
      </trkpt>
      <trkpt lat="11.52889" lon="42.84019">
        <ele>560.11</ele>
        <time>2011-12-30T12:00:51Z</time>
      </trkpt>
      <trkpt lat="11.52889" lon="42.84019">
        <ele>562.99</ele>
        <time>2011-12-30T12:00:52Z</time>
      </trkpt>
      <trkpt lat="11.5289" lon="42.84018">
        <ele>567.32</ele>
        <time>2011-12-30T12:00:53Z</time>
      </trkpt>
      <trkpt lat="11.52891" lon="42.84017">
        <ele>562.51</ele>
        <time>2011-12-30T12:00:55Z</time>
      </trkpt>
      <trkpt lat="11.52892" lon="42.84016">
        <ele>568.28</ele>
        <time>2011-12-30T12:00:56Z</time>
      </trkpt>
      <trkpt lat="11.52892" lon="42.84016">
        <ele>560.11</ele>
        <time>2011-12-30T12:00:57Z</time>
      </trkpt>
      <trkpt lat="11.52893" lon="42.84016">
        <ele>566.83</ele>
        <time>2011-12-30T12:00:58Z</time>
      </trkpt>
      <trkpt lat="11.52894" lon="42.84015">
        <ele>560.11</ele>
        <time>2011-12-30T12:01:01Z</time>
      </trkpt>
      <trkpt lat="11.52894" lon="42.84015">
        <ele>564.43</ele>
        <time>2011-12-30T12:01:02Z</time>
      </trkpt>
      <trkpt lat="11.52895" lon="42.84014">
        <ele>567.8</ele>
        <time>2011-12-30T12:01:03Z</time>
      </trkpt>
      <trkpt lat="11.52895" lon="42.84013">
        <ele>567.32</ele>
        <time>2011-12-30T12:01:04Z</time>
      </trkpt>
      <trkpt lat="11.52896" lon="42.84012">
        <ele>565.87</ele>
        <time>2011-12-30T12:01:06Z</time>
      </trkpt>
      <trkpt lat="11.52896" lon="42.84012">
        <ele>567.8</ele>
        <time>2011-12-30T12:01:08Z</time>
      </trkpt>
      <trkpt lat="11.52896" lon="42.84011">
        <ele>569.24</ele>
        <time>2011-12-30T12:01:26Z</time>
      </trkpt>
      <trkpt lat="11.52896" lon="42.84009">
        <ele>574.53</ele>
        <time>2011-12-30T12:01:28Z</time>
      </trkpt>
      <trkpt lat="11.52896" lon="42.84008">
        <ele>562.99</ele>
        <time>2011-12-30T12:01:29Z</time>
      </trkpt>
      <trkpt lat="11.52896" lon="42.84007">
        <ele>569.72</ele>
        <time>2011-12-30T12:01:30Z</time>
      </trkpt>
      <trkpt lat="11.52895" lon="42.84005">
        <ele>564.91</ele>
        <time>2011-12-30T12:01:36Z</time>
      </trkpt>
      <trkpt lat="11.52893" lon="42.84003">
        <ele>566.35</ele>
        <time>2011-12-30T12:01:41Z</time>
      </trkpt>
      <trkpt lat="11.52892" lon="42.84003">
        <ele>571.64</ele>
        <time>2011-12-30T12:01:42Z</time>
      </trkpt>
      <trkpt lat="11.52889" lon="42.84002">
        <ele>566.35</ele>
        <time>2011-12-30T12:01:46Z</time>
      </trkpt>
      <trkpt lat="11.52889" lon="42.84001">
        <ele>571.16</ele>
        <time>2011-12-30T12:01:47Z</time>
      </trkpt>
      <trkpt lat="11.52888" lon="42.83997">
        <ele>575.49</ele>
        <time>2011-12-30T12:02:01Z</time>
      </trkpt>
      <trkpt lat="11.52888" lon="42.83997">
        <ele>574.04</ele>
        <time>2011-12-30T12:02:02Z</time>
      </trkpt>
      <trkpt lat="11.52883" lon="42.83992">
        <ele>574.04</ele>
        <time>2011-12-30T12:02:09Z</time>
      </trkpt>
      <trkpt lat="11.52883" lon="42.83991">
        <ele>569.72</ele>
        <time>2011-12-30T12:02:10Z</time>
      </trkpt>
      <trkpt lat="11.52883" lon="42.8399">
        <ele>575.01</ele>
        <time>2011-12-30T12:02:11Z</time>
      </trkpt>
      <trkpt lat="11.52881" lon="42.83988">
        <ele>571.64</ele>
        <time>2011-12-30T12:02:17Z</time>
      </trkpt>
      <trkpt lat="11.52881" lon="42.83988">
        <ele>575.49</ele>
        <time>2011-12-30T12:02:18Z</time>
      </trkpt>
      <trkpt lat="11.5288" lon="42.83985">
        <ele>575.97</ele>
        <time>2011-12-30T12:02:50Z</time>
      </trkpt>
      <trkpt lat="11.52876" lon="42.8398">
        <ele>576.45</ele>
        <time>2011-12-30T12:03:09Z</time>
      </trkpt>
      <trkpt lat="11.52876" lon="42.8398">
        <ele>571.64</ele>
        <time>2011-12-30T12:03:10Z</time>
      </trkpt>
      <trkpt lat="11.52875" lon="42.8398">
        <ele>576.93</ele>
        <time>2011-12-30T12:03:11Z</time>
      </trkpt>
      <trkpt lat="11.52874" lon="42.8398">
        <ele>577.41</ele>
        <time>2011-12-30T12:03:13Z</time>
      </trkpt>
      <trkpt lat="11.52873" lon="42.8398">
        <ele>568.28</ele>
        <time>2011-12-30T12:03:15Z</time>
      </trkpt>
      <trkpt lat="11.52872" lon="42.8398">
        <ele>571.64</ele>
        <time>2011-12-30T12:03:17Z</time>
      </trkpt>
      <trkpt lat="11.52871" lon="42.8398">
        <ele>578.37</ele>
        <time>2011-12-30T12:03:18Z</time>
      </trkpt>
      <trkpt lat="11.5287" lon="42.8398">
        <ele>568.76</ele>
        <time>2011-12-30T12:03:20Z</time>
      </trkpt>
      <trkpt lat="11.52869" lon="42.83979">
        <ele>584.62</ele>
        <time>2011-12-30T12:03:21Z</time>
      </trkpt>
      <trkpt lat="11.52869" lon="42.83979">
        <ele>573.56</ele>
        <time>2011-12-30T12:03:22Z</time>
      </trkpt>
      <trkpt lat="11.52869" lon="42.83979">
        <ele>576.93</ele>
        <time>2011-12-30T12:03:23Z</time>
      </trkpt>
      <trkpt lat="11.52867" lon="42.83978">
        <ele>579.81</ele>
        <time>2011-12-30T12:03:25Z</time>
      </trkpt>
      <trkpt lat="11.52867" lon="42.83976">
        <ele>574.53</ele>
        <time>2011-12-30T12:03:30Z</time>
      </trkpt>
      <trkpt lat="11.52867" lon="42.83975">
        <ele>582.7</ele>
        <time>2011-12-30T12:03:31Z</time>
      </trkpt>
      <trkpt lat="11.52866" lon="42.83975">
        <ele>574.04</ele>
        <time>2011-12-30T12:03:32Z</time>
      </trkpt>
      <trkpt lat="11.52866" lon="42.83975">
        <ele>580.77</ele>
        <time>2011-12-30T12:03:33Z</time>
      </trkpt>
      <trkpt lat="11.52866" lon="42.83974">
        <ele>585.58</ele>
        <time>2011-12-30T12:03:34Z</time>
      </trkpt>
      <trkpt lat="11.52866" lon="42.83974">
        <ele>583.18</ele>
        <time>2011-12-30T12:03:35Z</time>
      </trkpt>
      <trkpt lat="11.52866" lon="42.83974">
        <ele>577.89</ele>
        <time>2011-12-30T12:03:36Z</time>
      </trkpt>
      <trkpt lat="11.52866" lon="42.83974">
        <ele>581.25</ele>
        <time>2011-12-30T12:03:37Z</time>
      </trkpt>
      <trkpt lat="11.52866" lon="42.83972">
        <ele>585.58</ele>
        <time>2011-12-30T12:03:41Z</time>
      </trkpt>
      <trkpt lat="11.52865" lon="42.83971">
        <ele>572.12</ele>
        <time>2011-12-30T12:03:42Z</time>
      </trkpt>
      <trkpt lat="11.52865" lon="42.83971">
        <ele>586.06</ele>
        <time>2011-12-30T12:03:43Z</time>
      </trkpt>
      <trkpt lat="11.52865" lon="42.83971">
        <ele>579.33</ele>
        <time>2011-12-30T12:03:44Z</time>
      </trkpt>
      <trkpt lat="11.52865" lon="42.83971">
        <ele>582.7</ele>
        <time>2011-12-30T12:03:45Z</time>
      </trkpt>
      <trkpt lat="11.52864" lon="42.8397">
        <ele>568.28</ele>
        <time>2011-12-30T12:03:47Z</time>
      </trkpt>
      <trkpt lat="11.52864" lon="42.8397">
        <ele>589.43</ele>
        <time>2011-12-30T12:03:48Z</time>
      </trkpt>
      <trkpt lat="11.52863" lon="42.8397">
        <ele>582.7</ele>
        <time>2011-12-30T12:03:49Z</time>
      </trkpt>
      <trkpt lat="11.52863" lon="42.8397">
        <ele>586.54</ele>
        <time>2011-12-30T12:03:50Z</time>
      </trkpt>
      <trkpt lat="11.52863" lon="42.8397">
        <ele>583.18</ele>
        <time>2011-12-30T12:03:51Z</time>
      </trkpt>
      <trkpt lat="11.52863" lon="42.8397">
        <ele>587.02</ele>
        <time>2011-12-30T12:03:52Z</time>
      </trkpt>
      <trkpt lat="11.52862" lon="42.8397">
        <ele>583.66</ele>
        <time>2011-12-30T12:03:53Z</time>
      </trkpt>
      <trkpt lat="11.52861" lon="42.83969">
        <ele>586.06</ele>
        <time>2011-12-30T12:04:05Z</time>
      </trkpt>
      <trkpt lat="11.52861" lon="42.83967">
        <ele>587.02</ele>
        <time>2011-12-30T12:04:07Z</time>
      </trkpt>
      <trkpt lat="11.52861" lon="42.83967">
        <ele>581.25</ele>
        <time>2011-12-30T12:04:08Z</time>
      </trkpt>
      <trkpt lat="11.5286" lon="42.83967">
        <ele>586.06</ele>
        <time>2011-12-30T12:04:09Z</time>
      </trkpt>
      <trkpt lat="11.5286" lon="42.83966">
        <ele>579.81</ele>
        <time>2011-12-30T12:04:10Z</time>
      </trkpt>
      <trkpt lat="11.5286" lon="42.83966">
        <ele>587.02</ele>
        <time>2011-12-30T12:04:11Z</time>
      </trkpt>
      <trkpt lat="11.5286" lon="42.83963">
        <ele>583.66</ele>
        <time>2011-12-30T12:04:26Z</time>
      </trkpt>
      <trkpt lat="11.52859" lon="42.83962">
        <ele>589.43</ele>
        <time>2011-12-30T12:04:27Z</time>
      </trkpt>
      <trkpt lat="11.52858" lon="42.83961">
        <ele>592.79</ele>
        <time>2011-12-30T12:04:29Z</time>
      </trkpt>
      <trkpt lat="11.52858" lon="42.8396">
        <ele>581.25</ele>
        <time>2011-12-30T12:04:30Z</time>
      </trkpt>
      <trkpt lat="11.52858" lon="42.8396">
        <ele>588.95</ele>
        <time>2011-12-30T12:04:31Z</time>
      </trkpt>
      <trkpt lat="11.52858" lon="42.83959">
        <ele>594.23</ele>
        <time>2011-12-30T12:04:32Z</time>
      </trkpt>
      <trkpt lat="11.52857" lon="42.83958">
        <ele>583.18</ele>
        <time>2011-12-30T12:04:33Z</time>
      </trkpt>
      <trkpt lat="11.52857" lon="42.83957">
        <ele>588.95</ele>
        <time>2011-12-30T12:04:34Z</time>
      </trkpt>
      <trkpt lat="11.52856" lon="42.83955">
        <ele>579.81</ele>
        <time>2011-12-30T12:04:36Z</time>
      </trkpt>
      <trkpt lat="11.52856" lon="42.83954">
        <ele>590.87</ele>
        <time>2011-12-30T12:04:37Z</time>
      </trkpt>
      <trkpt lat="11.52855" lon="42.83952">
        <ele>593.75</ele>
        <time>2011-12-30T12:04:41Z</time>
      </trkpt>
      <trkpt lat="11.52855" lon="42.83952">
        <ele>590.87</ele>
        <time>2011-12-30T12:04:42Z</time>
      </trkpt>
      <trkpt lat="11.52853" lon="42.83949">
        <ele>595.67</ele>
        <time>2011-12-30T12:04:46Z</time>
      </trkpt>
      <trkpt lat="11.52853" lon="42.83949">
        <ele>592.31</ele>
        <time>2011-12-30T12:04:47Z</time>
      </trkpt>
      <trkpt lat="11.52852" lon="42.83948">
        <ele>593.75</ele>
        <time>2011-12-30T12:04:53Z</time>
      </trkpt>
      <trkpt lat="11.52852" lon="42.83947">
        <ele>589.43</ele>
        <time>2011-12-30T12:04:59Z</time>
      </trkpt>
      <trkpt lat="11.52851" lon="42.83947">
        <ele>589.91</ele>
        <time>2011-12-30T12:05:00Z</time>
      </trkpt>
      <trkpt lat="11.52851" lon="42.83947">
        <ele>593.75</ele>
        <time>2011-12-30T12:05:01Z</time>
      </trkpt>
      <trkpt lat="11.52849" lon="42.83948">
        <ele>589.91</ele>
        <time>2011-12-30T12:05:04Z</time>
      </trkpt>
      <trkpt lat="11.52848" lon="42.83948">
        <ele>594.71</ele>
        <time>2011-12-30T12:05:05Z</time>
      </trkpt>
      <trkpt lat="11.52848" lon="42.83948">
        <ele>595.19</ele>
        <time>2011-12-30T12:05:06Z</time>
      </trkpt>
      <trkpt lat="11.52847" lon="42.83949">
        <ele>601.44</ele>
        <time>2011-12-30T12:05:12Z</time>
      </trkpt>
      <trkpt lat="11.52846" lon="42.83949">
        <ele>584.62</ele>
        <time>2011-12-30T12:05:13Z</time>
      </trkpt>
      <trkpt lat="11.52844" lon="42.83948">
        <ele>597.6</ele>
        <time>2011-12-30T12:05:16Z</time>
      </trkpt>
      <trkpt lat="11.52843" lon="42.83946">
        <ele>601.92</ele>
        <time>2011-12-30T12:05:18Z</time>
      </trkpt>
      <trkpt lat="11.52843" lon="42.83945">
        <ele>594.23</ele>
        <time>2011-12-30T12:05:19Z</time>
      </trkpt>
      <trkpt lat="11.52842" lon="42.83944">
        <ele>598.56</ele>
        <time>2011-12-30T12:05:20Z</time>
      </trkpt>
      <trkpt lat="11.52842" lon="42.83942">
        <ele>591.83</ele>
        <time>2011-12-30T12:05:21Z</time>
      </trkpt>
      <trkpt lat="11.52841" lon="42.83942">
        <ele>596.15</ele>
        <time>2011-12-30T12:05:22Z</time>
      </trkpt>
      <trkpt lat="11.5284" lon="42.8394">
        <ele>598.56</ele>
        <time>2011-12-30T12:05:25Z</time>
      </trkpt>
      <trkpt lat="11.52838" lon="42.8394">
        <ele>587.98</ele>
        <time>2011-12-30T12:05:27Z</time>
      </trkpt>
      <trkpt lat="11.52838" lon="42.83939">
        <ele>598.56</ele>
        <time>2011-12-30T12:05:28Z</time>
      </trkpt>
      <trkpt lat="11.52837" lon="42.83939">
        <ele>590.39</ele>
        <time>2011-12-30T12:05:29Z</time>
      </trkpt>
      <trkpt lat="11.52837" lon="42.83939">
        <ele>599.04</ele>
        <time>2011-12-30T12:05:30Z</time>
      </trkpt>
      <trkpt lat="11.52836" lon="42.83938">
        <ele>598.56</ele>
        <time>2011-12-30T12:05:52Z</time>
      </trkpt>
      <trkpt lat="11.52836" lon="42.83937">
        <ele>590.87</ele>
        <time>2011-12-30T12:06:00Z</time>
      </trkpt>
      <trkpt lat="11.52836" lon="42.83937">
        <ele>600.96</ele>
        <time>2011-12-30T12:06:01Z</time>
      </trkpt>
      <trkpt lat="11.52835" lon="42.83937">
        <ele>600.96</ele>
        <time>2011-12-30T12:06:02Z</time>
      </trkpt>
      <trkpt lat="11.52835" lon="42.83937">
        <ele>593.27</ele>
        <time>2011-12-30T12:06:03Z</time>
      </trkpt>
      <trkpt lat="11.52835" lon="42.83936">
        <ele>599.04</ele>
        <time>2011-12-30T12:06:04Z</time>
      </trkpt>
      <trkpt lat="11.52834" lon="42.83936">
        <ele>603.36</ele>
        <time>2011-12-30T12:06:05Z</time>
      </trkpt>
      <trkpt lat="11.52834" lon="42.83936">
        <ele>596.15</ele>
        <time>2011-12-30T12:06:06Z</time>
      </trkpt>
      <trkpt lat="11.52834" lon="42.83936">
        <ele>599.52</ele>
        <time>2011-12-30T12:06:07Z</time>
      </trkpt>
      <trkpt lat="11.52833" lon="42.83936">
        <ele>604.33</ele>
        <time>2011-12-30T12:06:08Z</time>
      </trkpt>
      <trkpt lat="11.52833" lon="42.83936">
        <ele>601.92</ele>
        <time>2011-12-30T12:06:09Z</time>
      </trkpt>
      <trkpt lat="11.52832" lon="42.83934">
        <ele>596.15</ele>
        <time>2011-12-30T12:06:12Z</time>
      </trkpt>
      <trkpt lat="11.52831" lon="42.83933">
        <ele>607.21</ele>
        <time>2011-12-30T12:06:14Z</time>
      </trkpt>
      <trkpt lat="11.5283" lon="42.83933">
        <ele>597.6</ele>
        <time>2011-12-30T12:06:15Z</time>
      </trkpt>
      <trkpt lat="11.52829" lon="42.83932">
        <ele>602.88</ele>
        <time>2011-12-30T12:06:17Z</time>
      </trkpt>
      <trkpt lat="11.52828" lon="42.83931">
        <ele>603.36</ele>
        <time>2011-12-30T12:06:19Z</time>
      </trkpt>
      <trkpt lat="11.52827" lon="42.8393">
        <ele>607.21</ele>
        <time>2011-12-30T12:06:21Z</time>
      </trkpt>
      <trkpt lat="11.52826" lon="42.83929">
        <ele>604.81</ele>
        <time>2011-12-30T12:06:22Z</time>
      </trkpt>
      <trkpt lat="11.52825" lon="42.83928">
        <ele>600.48</ele>
        <time>2011-12-30T12:06:24Z</time>
      </trkpt>
      <trkpt lat="11.52825" lon="42.83927">
        <ele>601.92</ele>
        <time>2011-12-30T12:06:25Z</time>
      </trkpt>
      <trkpt lat="11.52825" lon="42.83925">
        <ele>601.92</ele>
        <time>2011-12-30T12:06:27Z</time>
      </trkpt>
      <trkpt lat="11.52825" lon="42.83923">
        <ele>605.77</ele>
        <time>2011-12-30T12:06:29Z</time>
      </trkpt>
      <trkpt lat="11.52825" lon="42.83919">
        <ele>602.88</ele>
        <time>2011-12-30T12:06:34Z</time>
      </trkpt>
      <trkpt lat="11.52825" lon="42.83918">
        <ele>606.25</ele>
        <time>2011-12-30T12:06:35Z</time>
      </trkpt>
      <trkpt lat="11.52826" lon="42.83918">
        <ele>597.12</ele>
        <time>2011-12-30T12:06:36Z</time>
      </trkpt>
      <trkpt lat="11.52826" lon="42.83917">
        <ele>607.21</ele>
        <time>2011-12-30T12:06:37Z</time>
      </trkpt>
      <trkpt lat="11.52826" lon="42.83915">
        <ele>607.21</ele>
        <time>2011-12-30T12:07:01Z</time>
      </trkpt>
      <trkpt lat="11.52826" lon="42.83915">
        <ele>607.21</ele>
        <time>2011-12-30T12:07:02Z</time>
      </trkpt>
      <trkpt lat="11.52826" lon="42.83915">
        <ele>607.21</ele>
        <time>2011-12-30T12:07:14Z</time>
      </trkpt>
      <trkpt lat="11.52826" lon="42.83915">
        <ele>607.21</ele>
        <time>2011-12-30T12:07:27Z</time>
      </trkpt>
      <trkpt lat="11.52824" lon="42.8392">
        <ele>605.77</ele>
        <time>2011-12-30T12:07:43Z</time>
      </trkpt>
      <trkpt lat="11.52824" lon="42.83919">
        <ele>599.52</ele>
        <time>2011-12-30T12:08:08Z</time>
      </trkpt>
      <trkpt lat="11.52824" lon="42.83919">
        <ele>607.69</ele>
        <time>2011-12-30T12:08:09Z</time>
      </trkpt>
      <trkpt lat="11.52825" lon="42.83917">
        <ele>609.13</ele>
        <time>2011-12-30T12:08:11Z</time>
      </trkpt>
      <trkpt lat="11.52826" lon="42.83916">
        <ele>607.69</ele>
        <time>2011-12-30T12:08:13Z</time>
      </trkpt>
      <trkpt lat="11.52827" lon="42.83913">
        <ele>608.65</ele>
        <time>2011-12-30T12:08:15Z</time>
      </trkpt>
      <trkpt lat="11.52825" lon="42.8391">
        <ele>611.06</ele>
        <time>2011-12-30T12:08:18Z</time>
      </trkpt>
      <trkpt lat="11.52825" lon="42.83909">
        <ele>602.88</ele>
        <time>2011-12-30T12:08:19Z</time>
      </trkpt>
      <trkpt lat="11.52825" lon="42.83909">
        <ele>606.73</ele>
        <time>2011-12-30T12:08:20Z</time>
      </trkpt>
      <trkpt lat="11.52823" lon="42.83907">
        <ele>602.4</ele>
        <time>2011-12-30T12:08:23Z</time>
      </trkpt>
      <trkpt lat="11.52823" lon="42.83906">
        <ele>608.17</ele>
        <time>2011-12-30T12:08:24Z</time>
      </trkpt>
      <trkpt lat="11.52822" lon="42.83905">
        <ele>609.13</ele>
        <time>2011-12-30T12:08:26Z</time>
      </trkpt>
      <trkpt lat="11.52822" lon="42.83905">
        <ele>608.65</ele>
        <time>2011-12-30T12:08:56Z</time>
      </trkpt>
      <trkpt lat="11.52821" lon="42.839">
        <ele>604.33</ele>
        <time>2011-12-30T12:09:01Z</time>
      </trkpt>
      <trkpt lat="11.52821" lon="42.83899">
        <ele>605.77</ele>
        <time>2011-12-30T12:09:02Z</time>
      </trkpt>
      <trkpt lat="11.52821" lon="42.83897">
        <ele>613.46</ele>
        <time>2011-12-30T12:09:04Z</time>
      </trkpt>
      <trkpt lat="11.5282" lon="42.83895">
        <ele>617.3</ele>
        <time>2011-12-30T12:09:05Z</time>
      </trkpt>
      <trkpt lat="11.5282" lon="42.83894">
        <ele>605.29</ele>
        <time>2011-12-30T12:09:06Z</time>
      </trkpt>
      <trkpt lat="11.52819" lon="42.83888">
        <ele>609.13</ele>
        <time>2011-12-30T12:09:12Z</time>
      </trkpt>
      <trkpt lat="11.52818" lon="42.83888">
        <ele>612.5</ele>
        <time>2011-12-30T12:09:13Z</time>
      </trkpt>
      <trkpt lat="11.52818" lon="42.83887">
        <ele>615.86</ele>
        <time>2011-12-30T12:09:14Z</time>
      </trkpt>
      <trkpt lat="11.52817" lon="42.83887">
        <ele>600.48</ele>
        <time>2011-12-30T12:09:15Z</time>
      </trkpt>
      <trkpt lat="11.52817" lon="42.83887">
        <ele>614.42</ele>
        <time>2011-12-30T12:09:16Z</time>
      </trkpt>
      <trkpt lat="11.52817" lon="42.83885">
        <ele>610.09</ele>
        <time>2011-12-30T12:09:18Z</time>
      </trkpt>
      <trkpt lat="11.52816" lon="42.83885">
        <ele>614.42</ele>
        <time>2011-12-30T12:09:19Z</time>
      </trkpt>
      <trkpt lat="11.52814" lon="42.83882">
        <ele>620.67</ele>
        <time>2011-12-30T12:09:23Z</time>
      </trkpt>
      <trkpt lat="11.52813" lon="42.83882">
        <ele>609.13</ele>
        <time>2011-12-30T12:09:24Z</time>
      </trkpt>
      <trkpt lat="11.52813" lon="42.83881">
        <ele>617.3</ele>
        <time>2011-12-30T12:09:25Z</time>
      </trkpt>
      <trkpt lat="11.52811" lon="42.83881">
        <ele>615.86</ele>
        <time>2011-12-30T12:09:29Z</time>
      </trkpt>
      <trkpt lat="11.52811" lon="42.83881">
        <ele>610.09</ele>
        <time>2011-12-30T12:09:40Z</time>
      </trkpt>
      <trkpt lat="11.52811" lon="42.83881">
        <ele>614.9</ele>
        <time>2011-12-30T12:09:41Z</time>
      </trkpt>
      <trkpt lat="11.52811" lon="42.83881">
        <ele>615.86</ele>
        <time>2011-12-30T12:09:45Z</time>
      </trkpt>
      <trkpt lat="11.52811" lon="42.83881">
        <ele>614.9</ele>
        <time>2011-12-30T12:09:58Z</time>
      </trkpt>
      <trkpt lat="11.52812" lon="42.83881">
        <ele>610.09</ele>
        <time>2011-12-30T12:10:13Z</time>
      </trkpt>
      <trkpt lat="11.52812" lon="42.83881">
        <ele>615.86</ele>
        <time>2011-12-30T12:10:14Z</time>
      </trkpt>
      <trkpt lat="11.52812" lon="42.83881">
        <ele>612.5</ele>
        <time>2011-12-30T12:10:39Z</time>
      </trkpt>
      <trkpt lat="11.52811" lon="42.83881">
        <ele>616.34</ele>
        <time>2011-12-30T12:10:44Z</time>
      </trkpt>
      <trkpt lat="11.52811" lon="42.83881">
        <ele>612.98</ele>
        <time>2011-12-30T12:10:49Z</time>
      </trkpt>
      <trkpt lat="11.52811" lon="42.83881">
        <ele>614.42</ele>
        <time>2011-12-30T12:10:50Z</time>
      </trkpt>
      <trkpt lat="11.52811" lon="42.83881">
        <ele>614.9</ele>
        <time>2011-12-30T12:10:57Z</time>
      </trkpt>
      <trkpt lat="11.52811" lon="42.83881">
        <ele>617.78</ele>
        <time>2011-12-30T12:11:00Z</time>
      </trkpt>
      <trkpt lat="11.52812" lon="42.83882">
        <ele>615.86</ele>
        <time>2011-12-30T12:11:03Z</time>
      </trkpt>
      <trkpt lat="11.52817" lon="42.83888">
        <ele>614.42</ele>
        <time>2011-12-30T12:11:21Z</time>
      </trkpt>
      <trkpt lat="11.52818" lon="42.83892">
        <ele>613.46</ele>
        <time>2011-12-30T12:11:36Z</time>
      </trkpt>
      <trkpt lat="11.52819" lon="42.83891">
        <ele>613.46</ele>
        <time>2011-12-30T12:11:57Z</time>
      </trkpt>
      <trkpt lat="11.52819" lon="42.83891">
        <ele>614.42</ele>
        <time>2011-12-30T12:12:01Z</time>
      </trkpt>
      <trkpt lat="11.52819" lon="42.83891">
        <ele>614.42</ele>
        <time>2011-12-30T12:12:11Z</time>
      </trkpt>
      <trkpt lat="11.52819" lon="42.83891">
        <ele>614.42</ele>
        <time>2011-12-30T12:12:26Z</time>
      </trkpt>
      <trkpt lat="11.52818" lon="42.83891">
        <ele>610.57</ele>
        <time>2011-12-30T12:12:30Z</time>
      </trkpt>
      <trkpt lat="11.52818" lon="42.83891">
        <ele>615.38</ele>
        <time>2011-12-30T12:12:31Z</time>
      </trkpt>
      <trkpt lat="11.52817" lon="42.8389">
        <ele>610.57</ele>
        <time>2011-12-30T12:12:34Z</time>
      </trkpt>
      <trkpt lat="11.52817" lon="42.8389">
        <ele>613.94</ele>
        <time>2011-12-30T12:12:35Z</time>
      </trkpt>
      <trkpt lat="11.52816" lon="42.83888">
        <ele>608.17</ele>
        <time>2011-12-30T12:12:38Z</time>
      </trkpt>
      <trkpt lat="11.52816" lon="42.83887">
        <ele>615.38</ele>
        <time>2011-12-30T12:12:39Z</time>
      </trkpt>
      <trkpt lat="11.52815" lon="42.83887">
        <ele>615.86</ele>
        <time>2011-12-30T12:12:41Z</time>
      </trkpt>
      <trkpt lat="11.52813" lon="42.83885">
        <ele>611.06</ele>
        <time>2011-12-30T12:12:44Z</time>
      </trkpt>
      <trkpt lat="11.52813" lon="42.83884">
        <ele>624.03</ele>
        <time>2011-12-30T12:12:45Z</time>
      </trkpt>
      <trkpt lat="11.52812" lon="42.83884">
        <ele>609.61</ele>
        <time>2011-12-30T12:12:46Z</time>
      </trkpt>
      <trkpt lat="11.52812" lon="42.83883">
        <ele>617.78</ele>
        <time>2011-12-30T12:12:47Z</time>
      </trkpt>
      <trkpt lat="11.52811" lon="42.83882">
        <ele>614.42</ele>
        <time>2011-12-30T12:12:49Z</time>
      </trkpt>
      <trkpt lat="11.52811" lon="42.8388">
        <ele>623.07</ele>
        <time>2011-12-30T12:12:51Z</time>
      </trkpt>
      <trkpt lat="11.52811" lon="42.8388">
        <ele>616.34</ele>
        <time>2011-12-30T12:12:52Z</time>
      </trkpt>
      <trkpt lat="11.5281" lon="42.83877">
        <ele>625.47</ele>
        <time>2011-12-30T12:12:57Z</time>
      </trkpt>
      <trkpt lat="11.52809" lon="42.83877">
        <ele>619.71</ele>
        <time>2011-12-30T12:12:58Z</time>
      </trkpt>
      <trkpt lat="11.52809" lon="42.83876">
        <ele>612.98</ele>
        <time>2011-12-30T12:12:59Z</time>
      </trkpt>
      <trkpt lat="11.52808" lon="42.83876">
        <ele>619.71</ele>
        <time>2011-12-30T12:13:00Z</time>
      </trkpt>
      <trkpt lat="11.52808" lon="42.83876">
        <ele>612.5</ele>
        <time>2011-12-30T12:13:02Z</time>
      </trkpt>
      <trkpt lat="11.52808" lon="42.83875">
        <ele>621.63</ele>
        <time>2011-12-30T12:13:03Z</time>
      </trkpt>
      <trkpt lat="11.52808" lon="42.83874">
        <ele>612.5</ele>
        <time>2011-12-30T12:13:04Z</time>
      </trkpt>
      <trkpt lat="11.52808" lon="42.83873">
        <ele>620.67</ele>
        <time>2011-12-30T12:13:05Z</time>
      </trkpt>
      <trkpt lat="11.52808" lon="42.83873">
        <ele>616.34</ele>
        <time>2011-12-30T12:13:10Z</time>
      </trkpt>
      <trkpt lat="11.52807" lon="42.83873">
        <ele>620.19</ele>
        <time>2011-12-30T12:13:11Z</time>
      </trkpt>
      <trkpt lat="11.52807" lon="42.83873">
        <ele>615.86</ele>
        <time>2011-12-30T12:13:23Z</time>
      </trkpt>
      <trkpt lat="11.52807" lon="42.83872">
        <ele>620.19</ele>
        <time>2011-12-30T12:13:24Z</time>
      </trkpt>
      <trkpt lat="11.52807" lon="42.83872">
        <ele>613.94</ele>
        <time>2011-12-30T12:13:25Z</time>
      </trkpt>
      <trkpt lat="11.52807" lon="42.83871">
        <ele>620.19</ele>
        <time>2011-12-30T12:13:26Z</time>
      </trkpt>
      <trkpt lat="11.52805" lon="42.8387">
        <ele>624.03</ele>
        <time>2011-12-30T12:13:28Z</time>
      </trkpt>
      <trkpt lat="11.52805" lon="42.8387">
        <ele>622.59</ele>
        <time>2011-12-30T12:13:29Z</time>
      </trkpt>
      <trkpt lat="11.52805" lon="42.8387">
        <ele>620.67</ele>
        <time>2011-12-30T12:13:32Z</time>
      </trkpt>
      <trkpt lat="11.52804" lon="42.83869">
        <ele>612.02</ele>
        <time>2011-12-30T12:13:56Z</time>
      </trkpt>
      <trkpt lat="11.52804" lon="42.83869">
        <ele>622.11</ele>
        <time>2011-12-30T12:13:57Z</time>
      </trkpt>
      <trkpt lat="11.52799" lon="42.83865">
        <ele>622.59</ele>
        <time>2011-12-30T12:14:04Z</time>
      </trkpt>
      <trkpt lat="11.52799" lon="42.8386">
        <ele>622.59</ele>
        <time>2011-12-30T12:14:09Z</time>
      </trkpt>
      <trkpt lat="11.52798" lon="42.83859">
        <ele>617.3</ele>
        <time>2011-12-30T12:14:11Z</time>
      </trkpt>
      <trkpt lat="11.52797" lon="42.83858">
        <ele>623.55</ele>
        <time>2011-12-30T12:14:12Z</time>
      </trkpt>
      <trkpt lat="11.52796" lon="42.83856">
        <ele>624.99</ele>
        <time>2011-12-30T12:14:15Z</time>
      </trkpt>
      <trkpt lat="11.52795" lon="42.83854">
        <ele>628.84</ele>
        <time>2011-12-30T12:14:17Z</time>
      </trkpt>
      <trkpt lat="11.52795" lon="42.83853">
        <ele>625.96</ele>
        <time>2011-12-30T12:14:18Z</time>
      </trkpt>
      <trkpt lat="11.52793" lon="42.83851">
        <ele>623.55</ele>
        <time>2011-12-30T12:14:21Z</time>
      </trkpt>
      <trkpt lat="11.52791" lon="42.83846">
        <ele>626.44</ele>
        <time>2011-12-30T12:14:25Z</time>
      </trkpt>
      <trkpt lat="11.5279" lon="42.83845">
        <ele>621.15</ele>
        <time>2011-12-30T12:14:26Z</time>
      </trkpt>
      <trkpt lat="11.5279" lon="42.83844">
        <ele>623.07</ele>
        <time>2011-12-30T12:14:27Z</time>
      </trkpt>
      <trkpt lat="11.52789" lon="42.83843">
        <ele>628.84</ele>
        <time>2011-12-30T12:14:29Z</time>
      </trkpt>
      <trkpt lat="11.52788" lon="42.83842">
        <ele>615.86</ele>
        <time>2011-12-30T12:14:30Z</time>
      </trkpt>
      <trkpt lat="11.52788" lon="42.83842">
        <ele>624.03</ele>
        <time>2011-12-30T12:14:31Z</time>
      </trkpt>
      <trkpt lat="11.52787" lon="42.83841">
        <ele>629.8</ele>
        <time>2011-12-30T12:14:32Z</time>
      </trkpt>
      <trkpt lat="11.52786" lon="42.83841">
        <ele>622.11</ele>
        <time>2011-12-30T12:14:33Z</time>
      </trkpt>
      <trkpt lat="11.52786" lon="42.8384">
        <ele>624.03</ele>
        <time>2011-12-30T12:14:34Z</time>
      </trkpt>
      <trkpt lat="11.52783" lon="42.8384">
        <ele>622.59</ele>
        <time>2011-12-30T12:14:36Z</time>
      </trkpt>
      <trkpt lat="11.52782" lon="42.8384">
        <ele>618.75</ele>
        <time>2011-12-30T12:14:37Z</time>
      </trkpt>
      <trkpt lat="11.52781" lon="42.8384">
        <ele>624.51</ele>
        <time>2011-12-30T12:14:39Z</time>
      </trkpt>
      <trkpt lat="11.5278" lon="42.8384">
        <ele>627.88</ele>
        <time>2011-12-30T12:14:40Z</time>
      </trkpt>
      <trkpt lat="11.52779" lon="42.8384">
        <ele>626.44</ele>
        <time>2011-12-30T12:14:41Z</time>
      </trkpt>
      <trkpt lat="11.52778" lon="42.8384">
        <ele>626.44</ele>
        <time>2011-12-30T12:14:42Z</time>
      </trkpt>
      <trkpt lat="11.52777" lon="42.83839">
        <ele>618.75</ele>
        <time>2011-12-30T12:14:44Z</time>
      </trkpt>
      <trkpt lat="11.52776" lon="42.83838">
        <ele>625.47</ele>
        <time>2011-12-30T12:14:45Z</time>
      </trkpt>
      <trkpt lat="11.52776" lon="42.83837">
        <ele>627.4</ele>
        <time>2011-12-30T12:14:47Z</time>
      </trkpt>
      <trkpt lat="11.52776" lon="42.83836">
        <ele>617.78</ele>
        <time>2011-12-30T12:14:48Z</time>
      </trkpt>
      <trkpt lat="11.52776" lon="42.83833">
        <ele>624.03</ele>
        <time>2011-12-30T12:14:51Z</time>
      </trkpt>
      <trkpt lat="11.52776" lon="42.83832">
        <ele>628.84</ele>
        <time>2011-12-30T12:14:52Z</time>
      </trkpt>
      <trkpt lat="11.52776" lon="42.83831">
        <ele>629.32</ele>
        <time>2011-12-30T12:14:53Z</time>
      </trkpt>
      <trkpt lat="11.52776" lon="42.83831">
        <ele>624.03</ele>
        <time>2011-12-30T12:14:54Z</time>
      </trkpt>
      <trkpt lat="11.52776" lon="42.8383">
        <ele>631.24</ele>
        <time>2011-12-30T12:14:55Z</time>
      </trkpt>
      <trkpt lat="11.52776" lon="42.83829">
        <ele>638.45</ele>
        <time>2011-12-30T12:14:56Z</time>
      </trkpt>
      <trkpt lat="11.52777" lon="42.83829">
        <ele>633.65</ele>
        <time>2011-12-30T12:14:57Z</time>
      </trkpt>
      <trkpt lat="11.52777" lon="42.83828">
        <ele>630.28</ele>
        <time>2011-12-30T12:14:58Z</time>
      </trkpt>
      <trkpt lat="11.52777" lon="42.83826">
        <ele>624.99</ele>
        <time>2011-12-30T12:15:01Z</time>
      </trkpt>
      <trkpt lat="11.52775" lon="42.83825">
        <ele>621.15</ele>
        <time>2011-12-30T12:15:03Z</time>
      </trkpt>
      <trkpt lat="11.52775" lon="42.83824">
        <ele>630.76</ele>
        <time>2011-12-30T12:15:04Z</time>
      </trkpt>
      <trkpt lat="11.52774" lon="42.83824">
        <ele>634.61</ele>
        <time>2011-12-30T12:15:05Z</time>
      </trkpt>
      <trkpt lat="11.52774" lon="42.83823">
        <ele>632.2</ele>
        <time>2011-12-30T12:15:06Z</time>
      </trkpt>
      <trkpt lat="11.52774" lon="42.83823">
        <ele>636.53</ele>
        <time>2011-12-30T12:15:07Z</time>
      </trkpt>
      <trkpt lat="11.52773" lon="42.83822">
        <ele>626.92</ele>
        <time>2011-12-30T12:15:08Z</time>
      </trkpt>
      <trkpt lat="11.52773" lon="42.83822">
        <ele>631.72</ele>
        <time>2011-12-30T12:15:09Z</time>
      </trkpt>
      <trkpt lat="11.52772" lon="42.83821">
        <ele>636.05</ele>
        <time>2011-12-30T12:15:30Z</time>
      </trkpt>
      <trkpt lat="11.52771" lon="42.83821">
        <ele>626.92</ele>
        <time>2011-12-30T12:15:31Z</time>
      </trkpt>
      <trkpt lat="11.52771" lon="42.83821">
        <ele>631.72</ele>
        <time>2011-12-30T12:15:32Z</time>
      </trkpt>
      <trkpt lat="11.52768" lon="42.83821">
        <ele>638.45</ele>
        <time>2011-12-30T12:15:34Z</time>
      </trkpt>
      <trkpt lat="11.52768" lon="42.83821">
        <ele>628.36</ele>
        <time>2011-12-30T12:15:35Z</time>
      </trkpt>
      <trkpt lat="11.52767" lon="42.83821">
        <ele>622.59</ele>
        <time>2011-12-30T12:15:36Z</time>
      </trkpt>
      <trkpt lat="11.52766" lon="42.83821">
        <ele>641.34</ele>
        <time>2011-12-30T12:15:37Z</time>
      </trkpt>
      <trkpt lat="11.52766" lon="42.83822">
        <ele>626.44</ele>
        <time>2011-12-30T12:15:38Z</time>
      </trkpt>
      <trkpt lat="11.52765" lon="42.83821">
        <ele>634.13</ele>
        <time>2011-12-30T12:15:39Z</time>
      </trkpt>
      <trkpt lat="11.52763" lon="42.83821">
        <ele>630.76</ele>
        <time>2011-12-30T12:15:41Z</time>
      </trkpt>
      <trkpt lat="11.52762" lon="42.83821">
        <ele>636.53</ele>
        <time>2011-12-30T12:15:42Z</time>
      </trkpt>
      <trkpt lat="11.52761" lon="42.8382">
        <ele>624.99</ele>
        <time>2011-12-30T12:15:44Z</time>
      </trkpt>
      <trkpt lat="11.52761" lon="42.8382">
        <ele>637.01</ele>
        <time>2011-12-30T12:15:45Z</time>
      </trkpt>
      <trkpt lat="11.52761" lon="42.8382">
        <ele>629.8</ele>
        <time>2011-12-30T12:15:46Z</time>
      </trkpt>
      <trkpt lat="11.5276" lon="42.83819">
        <ele>639.89</ele>
        <time>2011-12-30T12:15:47Z</time>
      </trkpt>
      <trkpt lat="11.5276" lon="42.83818">
        <ele>622.59</ele>
        <time>2011-12-30T12:15:48Z</time>
      </trkpt>
      <trkpt lat="11.5276" lon="42.83817">
        <ele>637.97</ele>
        <time>2011-12-30T12:15:49Z</time>
      </trkpt>
      <trkpt lat="11.5276" lon="42.83816">
        <ele>634.61</ele>
        <time>2011-12-30T12:15:50Z</time>
      </trkpt>
      <trkpt lat="11.52761" lon="42.83815">
        <ele>637.49</ele>
        <time>2011-12-30T12:15:52Z</time>
      </trkpt>
      <trkpt lat="11.52761" lon="42.83812">
        <ele>637.97</ele>
        <time>2011-12-30T12:15:55Z</time>
      </trkpt>
      <trkpt lat="11.52761" lon="42.8381">
        <ele>633.17</ele>
        <time>2011-12-30T12:15:58Z</time>
      </trkpt>
      <trkpt lat="11.52761" lon="42.8381">
        <ele>642.3</ele>
        <time>2011-12-30T12:15:59Z</time>
      </trkpt>
      <trkpt lat="11.52761" lon="42.8381">
        <ele>637.97</ele>
        <time>2011-12-30T12:16:00Z</time>
      </trkpt>
      <trkpt lat="11.52761" lon="42.83809">
        <ele>649.03</ele>
        <time>2011-12-30T12:16:01Z</time>
      </trkpt>
      <trkpt lat="11.52761" lon="42.83809">
        <ele>639.89</ele>
        <time>2011-12-30T12:16:02Z</time>
      </trkpt>
      <trkpt lat="11.52761" lon="42.83809">
        <ele>633.17</ele>
        <time>2011-12-30T12:16:03Z</time>
      </trkpt>
      <trkpt lat="11.52761" lon="42.83808">
        <ele>636.53</ele>
        <time>2011-12-30T12:16:04Z</time>
      </trkpt>
      <trkpt lat="11.52761" lon="42.83807">
        <ele>638.93</ele>
        <time>2011-12-30T12:16:06Z</time>
      </trkpt>
      <trkpt lat="11.52761" lon="42.83807">
        <ele>634.13</ele>
        <time>2011-12-30T12:16:33Z</time>
      </trkpt>
      <trkpt lat="11.52761" lon="42.83807">
        <ele>637.97</ele>
        <time>2011-12-30T12:16:34Z</time>
      </trkpt>
      <trkpt lat="11.52761" lon="42.83807">
        <ele>641.82</ele>
        <time>2011-12-30T12:16:36Z</time>
      </trkpt>
      <trkpt lat="11.5276" lon="42.83806">
        <ele>640.86</ele>
        <time>2011-12-30T12:16:37Z</time>
      </trkpt>
      <trkpt lat="11.5276" lon="42.83805">
        <ele>639.89</ele>
        <time>2011-12-30T12:16:39Z</time>
      </trkpt>
      <trkpt lat="11.52758" lon="42.83805">
        <ele>642.3</ele>
        <time>2011-12-30T12:16:41Z</time>
      </trkpt>
      <trkpt lat="11.52758" lon="42.83805">
        <ele>635.57</ele>
        <time>2011-12-30T12:16:42Z</time>
      </trkpt>
      <trkpt lat="11.52756" lon="42.83805">
        <ele>633.17</ele>
        <time>2011-12-30T12:16:44Z</time>
      </trkpt>
      <trkpt lat="11.52756" lon="42.83805">
        <ele>631.24</ele>
        <time>2011-12-30T12:16:45Z</time>
      </trkpt>
      <trkpt lat="11.52754" lon="42.83804">
        <ele>641.82</ele>
        <time>2011-12-30T12:16:47Z</time>
      </trkpt>
      <trkpt lat="11.52754" lon="42.83805">
        <ele>638.45</ele>
        <time>2011-12-30T12:16:55Z</time>
      </trkpt>
      <trkpt lat="11.52754" lon="42.83803">
        <ele>631.24</ele>
        <time>2011-12-30T12:16:57Z</time>
      </trkpt>
      <trkpt lat="11.52755" lon="42.83802">
        <ele>644.22</ele>
        <time>2011-12-30T12:16:58Z</time>
      </trkpt>
      <trkpt lat="11.52755" lon="42.83801">
        <ele>644.22</ele>
        <time>2011-12-30T12:17:00Z</time>
      </trkpt>
      <trkpt lat="11.52754" lon="42.83799">
        <ele>640.86</ele>
        <time>2011-12-30T12:17:02Z</time>
      </trkpt>
      <trkpt lat="11.52754" lon="42.83799">
        <ele>644.22</ele>
        <time>2011-12-30T12:17:03Z</time>
      </trkpt>
      <trkpt lat="11.52753" lon="42.838">
        <ele>643.26</ele>
        <time>2011-12-30T12:17:05Z</time>
      </trkpt>
      <trkpt lat="11.52751" lon="42.83801">
        <ele>637.97</ele>
        <time>2011-12-30T12:17:07Z</time>
      </trkpt>
      <trkpt lat="11.52751" lon="42.83801">
        <ele>644.7</ele>
        <time>2011-12-30T12:17:08Z</time>
      </trkpt>
      <trkpt lat="11.52748" lon="42.83801">
        <ele>635.57</ele>
        <time>2011-12-30T12:17:11Z</time>
      </trkpt>
      <trkpt lat="11.52747" lon="42.83802">
        <ele>650.95</ele>
        <time>2011-12-30T12:17:12Z</time>
      </trkpt>
      <trkpt lat="11.52746" lon="42.83802">
        <ele>647.59</ele>
        <time>2011-12-30T12:17:13Z</time>
      </trkpt>
      <trkpt lat="11.52744" lon="42.83802">
        <ele>657.68</ele>
        <time>2011-12-30T12:17:16Z</time>
      </trkpt>
      <trkpt lat="11.52744" lon="42.83802">
        <ele>648.07</ele>
        <time>2011-12-30T12:17:17Z</time>
      </trkpt>
      <trkpt lat="11.52744" lon="42.83802">
        <ele>645.18</ele>
        <time>2011-12-30T12:17:20Z</time>
      </trkpt>
      <trkpt lat="11.52742" lon="42.83802">
        <ele>649.03</ele>
        <time>2011-12-30T12:17:23Z</time>
      </trkpt>
      <trkpt lat="11.52742" lon="42.83802">
        <ele>638.93</ele>
        <time>2011-12-30T12:17:24Z</time>
      </trkpt>
      <trkpt lat="11.52742" lon="42.83802">
        <ele>647.59</ele>
        <time>2011-12-30T12:17:25Z</time>
      </trkpt>
      <trkpt lat="11.52742" lon="42.838">
        <ele>643.26</ele>
        <time>2011-12-30T12:17:27Z</time>
      </trkpt>
      <trkpt lat="11.52743" lon="42.838">
        <ele>648.55</ele>
        <time>2011-12-30T12:17:28Z</time>
      </trkpt>
      <trkpt lat="11.52742" lon="42.83799">
        <ele>643.74</ele>
        <time>2011-12-30T12:17:30Z</time>
      </trkpt>
      <trkpt lat="11.52742" lon="42.83798">
        <ele>645.66</ele>
        <time>2011-12-30T12:17:31Z</time>
      </trkpt>
      <trkpt lat="11.52742" lon="42.83798">
        <ele>648.55</ele>
        <time>2011-12-30T12:17:32Z</time>
      </trkpt>
      <trkpt lat="11.52742" lon="42.83798">
        <ele>646.62</ele>
        <time>2011-12-30T12:17:33Z</time>
      </trkpt>
      <trkpt lat="11.52743" lon="42.83796">
        <ele>652.39</ele>
        <time>2011-12-30T12:17:40Z</time>
      </trkpt>
      <trkpt lat="11.52742" lon="42.83795">
        <ele>637.49</ele>
        <time>2011-12-30T12:17:41Z</time>
      </trkpt>
      <trkpt lat="11.52742" lon="42.83795">
        <ele>651.43</ele>
        <time>2011-12-30T12:17:42Z</time>
      </trkpt>
      <trkpt lat="11.52741" lon="42.83793">
        <ele>644.22</ele>
        <time>2011-12-30T12:17:46Z</time>
      </trkpt>
      <trkpt lat="11.52736" lon="42.83789">
        <ele>648.07</ele>
        <time>2011-12-30T12:17:54Z</time>
      </trkpt>
      <trkpt lat="11.52735" lon="42.83789">
        <ele>654.8</ele>
        <time>2011-12-30T12:17:55Z</time>
      </trkpt>
      <trkpt lat="11.52735" lon="42.83788">
        <ele>647.59</ele>
        <time>2011-12-30T12:17:57Z</time>
      </trkpt>
      <trkpt lat="11.52734" lon="42.83788">
        <ele>656.24</ele>
        <time>2011-12-30T12:17:58Z</time>
      </trkpt>
      <trkpt lat="11.52734" lon="42.83788">
        <ele>652.87</ele>
        <time>2011-12-30T12:17:59Z</time>
      </trkpt>
      <trkpt lat="11.52733" lon="42.83787">
        <ele>642.78</ele>
        <time>2011-12-30T12:18:01Z</time>
      </trkpt>
      <trkpt lat="11.52733" lon="42.83786">
        <ele>650.95</ele>
        <time>2011-12-30T12:18:02Z</time>
      </trkpt>
      <trkpt lat="11.52732" lon="42.83785">
        <ele>654.8</ele>
        <time>2011-12-30T12:18:05Z</time>
      </trkpt>
      <trkpt lat="11.52731" lon="42.83785">
        <ele>645.66</ele>
        <time>2011-12-30T12:18:06Z</time>
      </trkpt>
      <trkpt lat="11.5273" lon="42.83785">
        <ele>654.8</ele>
        <time>2011-12-30T12:18:07Z</time>
      </trkpt>
      <trkpt lat="11.52729" lon="42.83784">
        <ele>647.59</ele>
        <time>2011-12-30T12:18:08Z</time>
      </trkpt>
      <trkpt lat="11.52729" lon="42.83784">
        <ele>651.91</ele>
        <time>2011-12-30T12:18:09Z</time>
      </trkpt>
      <trkpt lat="11.52728" lon="42.83783">
        <ele>655.76</ele>
        <time>2011-12-30T12:18:10Z</time>
      </trkpt>
      <trkpt lat="11.52725" lon="42.83782">
        <ele>654.8</ele>
        <time>2011-12-30T12:18:15Z</time>
      </trkpt>
      <trkpt lat="11.52724" lon="42.83781">
        <ele>648.55</ele>
        <time>2011-12-30T12:18:16Z</time>
      </trkpt>
      <trkpt lat="11.52724" lon="42.83781">
        <ele>655.28</ele>
        <time>2011-12-30T12:18:17Z</time>
      </trkpt>
      <trkpt lat="11.52723" lon="42.8378">
        <ele>649.99</ele>
        <time>2011-12-30T12:18:19Z</time>
      </trkpt>
      <trkpt lat="11.52722" lon="42.8378">
        <ele>655.28</ele>
        <time>2011-12-30T12:18:20Z</time>
      </trkpt>
      <trkpt lat="11.52721" lon="42.83779">
        <ele>662.01</ele>
        <time>2011-12-30T12:18:21Z</time>
      </trkpt>
      <trkpt lat="11.52721" lon="42.83779">
        <ele>654.31</ele>
        <time>2011-12-30T12:18:22Z</time>
      </trkpt>
      <trkpt lat="11.5272" lon="42.83779">
        <ele>658.16</ele>
        <time>2011-12-30T12:18:23Z</time>
      </trkpt>
      <trkpt lat="11.52719" lon="42.83779">
        <ele>649.99</ele>
        <time>2011-12-30T12:18:24Z</time>
      </trkpt>
      <trkpt lat="11.52718" lon="42.83778">
        <ele>659.6</ele>
        <time>2011-12-30T12:18:25Z</time>
      </trkpt>
      <trkpt lat="11.52718" lon="42.83778">
        <ele>655.76</ele>
        <time>2011-12-30T12:18:27Z</time>
      </trkpt>
      <trkpt lat="11.52718" lon="42.83778">
        <ele>659.6</ele>
        <time>2011-12-30T12:18:32Z</time>
      </trkpt>
      <trkpt lat="11.52718" lon="42.83778">
        <ele>658.16</ele>
        <time>2011-12-30T12:18:33Z</time>
      </trkpt>
      <trkpt lat="11.52718" lon="42.83778">
        <ele>656.24</ele>
        <time>2011-12-30T12:18:35Z</time>
      </trkpt>
      <trkpt lat="11.52717" lon="42.83778">
        <ele>657.2</ele>
        <time>2011-12-30T12:19:04Z</time>
      </trkpt>
      <trkpt lat="11.52715" lon="42.83777">
        <ele>660.56</ele>
        <time>2011-12-30T12:19:06Z</time>
      </trkpt>
      <trkpt lat="11.52714" lon="42.83777">
        <ele>651.43</ele>
        <time>2011-12-30T12:19:07Z</time>
      </trkpt>
      <trkpt lat="11.52714" lon="42.83776">
        <ele>665.85</ele>
        <time>2011-12-30T12:19:08Z</time>
      </trkpt>
      <trkpt lat="11.52714" lon="42.83776">
        <ele>637.97</ele>
        <time>2011-12-30T12:19:09Z</time>
      </trkpt>
      <trkpt lat="11.52713" lon="42.83775">
        <ele>658.64</ele>
        <time>2011-12-30T12:19:10Z</time>
      </trkpt>
      <trkpt lat="11.5271" lon="42.83773">
        <ele>662.49</ele>
        <time>2011-12-30T12:19:14Z</time>
      </trkpt>
      <trkpt lat="11.52709" lon="42.83772">
        <ele>660.08</ele>
        <time>2011-12-30T12:19:15Z</time>
      </trkpt>
      <trkpt lat="11.52709" lon="42.83772">
        <ele>664.89</ele>
        <time>2011-12-30T12:19:16Z</time>
      </trkpt>
      <trkpt lat="11.52709" lon="42.83772">
        <ele>661.04</ele>
        <time>2011-12-30T12:19:17Z</time>
      </trkpt>
      <trkpt lat="11.52708" lon="42.83771">
        <ele>667.29</ele>
        <time>2011-12-30T12:19:18Z</time>
      </trkpt>
      <trkpt lat="11.52707" lon="42.83771">
        <ele>657.68</ele>
        <time>2011-12-30T12:19:19Z</time>
      </trkpt>
      <trkpt lat="11.52706" lon="42.8377">
        <ele>657.2</ele>
        <time>2011-12-30T12:19:20Z</time>
      </trkpt>
      <trkpt lat="11.52704" lon="42.8377">
        <ele>659.12</ele>
        <time>2011-12-30T12:19:22Z</time>
      </trkpt>
      <trkpt lat="11.52703" lon="42.83769">
        <ele>656.24</ele>
        <time>2011-12-30T12:19:23Z</time>
      </trkpt>
      <trkpt lat="11.52703" lon="42.83769">
        <ele>660.08</ele>
        <time>2011-12-30T12:19:24Z</time>
      </trkpt>
      <trkpt lat="11.52699" lon="42.83767">
        <ele>655.28</ele>
        <time>2011-12-30T12:19:29Z</time>
      </trkpt>
      <trkpt lat="11.52698" lon="42.83766">
        <ele>657.2</ele>
        <time>2011-12-30T12:19:30Z</time>
      </trkpt>
      <trkpt lat="11.52697" lon="42.83766">
        <ele>668.25</ele>
        <time>2011-12-30T12:19:31Z</time>
      </trkpt>
      <trkpt lat="11.52696" lon="42.83766">
        <ele>652.39</ele>
        <time>2011-12-30T12:19:32Z</time>
      </trkpt>
      <trkpt lat="11.52695" lon="42.83765">
        <ele>659.12</ele>
        <time>2011-12-30T12:19:33Z</time>
      </trkpt>
      <trkpt lat="11.52694" lon="42.83765">
        <ele>662.01</ele>
        <time>2011-12-30T12:19:34Z</time>
      </trkpt>
      <trkpt lat="11.52693" lon="42.83765">
        <ele>661.04</ele>
        <time>2011-12-30T12:19:35Z</time>
      </trkpt>
      <trkpt lat="11.5269" lon="42.83764">
        <ele>652.39</ele>
        <time>2011-12-30T12:19:38Z</time>
      </trkpt>
      <trkpt lat="11.52687" lon="42.83763">
        <ele>658.16</ele>
        <time>2011-12-30T12:19:41Z</time>
      </trkpt>
      <trkpt lat="11.52686" lon="42.83763">
        <ele>661.04</ele>
        <time>2011-12-30T12:19:42Z</time>
      </trkpt>
      <trkpt lat="11.52683" lon="42.83763">
        <ele>659.12</ele>
        <time>2011-12-30T12:19:44Z</time>
      </trkpt>
      <trkpt lat="11.52681" lon="42.83763">
        <ele>661.52</ele>
        <time>2011-12-30T12:19:46Z</time>
      </trkpt>
      <trkpt lat="11.52679" lon="42.83764">
        <ele>657.68</ele>
        <time>2011-12-30T12:19:48Z</time>
      </trkpt>
      <trkpt lat="11.52678" lon="42.83764">
        <ele>662.49</ele>
        <time>2011-12-30T12:19:49Z</time>
      </trkpt>
      <trkpt lat="11.52672" lon="42.83762">
        <ele>662.01</ele>
        <time>2011-12-30T12:19:56Z</time>
      </trkpt>
      <trkpt lat="11.5267" lon="42.83763">
        <ele>660.08</ele>
        <time>2011-12-30T12:19:58Z</time>
      </trkpt>
      <trkpt lat="11.52668" lon="42.83763">
        <ele>657.2</ele>
        <time>2011-12-30T12:20:01Z</time>
      </trkpt>
      <trkpt lat="11.52667" lon="42.83763">
        <ele>664.89</ele>
        <time>2011-12-30T12:20:02Z</time>
      </trkpt>
      <trkpt lat="11.52666" lon="42.83762">
        <ele>658.64</ele>
        <time>2011-12-30T12:20:03Z</time>
      </trkpt>
      <trkpt lat="11.52663" lon="42.83762">
        <ele>664.41</ele>
        <time>2011-12-30T12:20:05Z</time>
      </trkpt>
      <trkpt lat="11.52662" lon="42.83761">
        <ele>659.6</ele>
        <time>2011-12-30T12:20:06Z</time>
      </trkpt>
      <trkpt lat="11.52662" lon="42.83761">
        <ele>663.93</ele>
        <time>2011-12-30T12:20:07Z</time>
      </trkpt>
      <trkpt lat="11.52661" lon="42.83761">
        <ele>658.16</ele>
        <time>2011-12-30T12:20:18Z</time>
      </trkpt>
      <trkpt lat="11.5266" lon="42.83761">
        <ele>666.81</ele>
        <time>2011-12-30T12:20:19Z</time>
      </trkpt>
      <trkpt lat="11.52659" lon="42.83761">
        <ele>658.64</ele>
        <time>2011-12-30T12:20:20Z</time>
      </trkpt>
      <trkpt lat="11.52658" lon="42.83761">
        <ele>664.89</ele>
        <time>2011-12-30T12:20:21Z</time>
      </trkpt>
      <trkpt lat="11.52656" lon="42.83761">
        <ele>657.68</ele>
        <time>2011-12-30T12:20:23Z</time>
      </trkpt>
      <trkpt lat="11.52655" lon="42.83761">
        <ele>664.41</ele>
        <time>2011-12-30T12:20:24Z</time>
      </trkpt>
      <trkpt lat="11.52654" lon="42.83761">
        <ele>666.81</ele>
        <time>2011-12-30T12:20:26Z</time>
      </trkpt>
      <trkpt lat="11.52653" lon="42.83761">
        <ele>658.16</ele>
        <time>2011-12-30T12:20:27Z</time>
      </trkpt>
      <trkpt lat="11.52653" lon="42.8376">
        <ele>667.29</ele>
        <time>2011-12-30T12:20:28Z</time>
      </trkpt>
      <trkpt lat="11.52652" lon="42.8376">
        <ele>660.56</ele>
        <time>2011-12-30T12:20:29Z</time>
      </trkpt>
      <trkpt lat="11.52652" lon="42.8376">
        <ele>665.85</ele>
        <time>2011-12-30T12:20:30Z</time>
      </trkpt>
      <trkpt lat="11.52651" lon="42.83759">
        <ele>666.33</ele>
        <time>2011-12-30T12:20:32Z</time>
      </trkpt>
      <trkpt lat="11.52649" lon="42.83757">
        <ele>670.18</ele>
        <time>2011-12-30T12:20:34Z</time>
      </trkpt>
      <trkpt lat="11.52649" lon="42.83757">
        <ele>661.04</ele>
        <time>2011-12-30T12:20:35Z</time>
      </trkpt>
      <trkpt lat="11.52648" lon="42.83756">
        <ele>667.77</ele>
        <time>2011-12-30T12:20:36Z</time>
      </trkpt>
      <trkpt lat="11.52648" lon="42.83756">
        <ele>663.93</ele>
        <time>2011-12-30T12:20:37Z</time>
      </trkpt>
      <trkpt lat="11.52648" lon="42.83755">
        <ele>668.73</ele>
        <time>2011-12-30T12:20:38Z</time>
      </trkpt>
      <trkpt lat="11.52645" lon="42.83753">
        <ele>677.39</ele>
        <time>2011-12-30T12:20:44Z</time>
      </trkpt>
      <trkpt lat="11.52645" lon="42.83753">
        <ele>673.06</ele>
        <time>2011-12-30T12:20:45Z</time>
      </trkpt>
      <trkpt lat="11.52644" lon="42.83753">
        <ele>663.45</ele>
        <time>2011-12-30T12:20:46Z</time>
      </trkpt>
      <trkpt lat="11.52644" lon="42.83752">
        <ele>668.25</ele>
        <time>2011-12-30T12:20:47Z</time>
      </trkpt>
      <trkpt lat="11.5264" lon="42.83751">
        <ele>668.73</ele>
        <time>2011-12-30T12:20:54Z</time>
      </trkpt>
      <trkpt lat="11.52637" lon="42.83752">
        <ele>664.41</ele>
        <time>2011-12-30T12:20:57Z</time>
      </trkpt>
      <trkpt lat="11.52636" lon="42.83751">
        <ele>668.25</ele>
        <time>2011-12-30T12:20:58Z</time>
      </trkpt>
      <trkpt lat="11.52635" lon="42.83751">
        <ele>656.24</ele>
        <time>2011-12-30T12:20:59Z</time>
      </trkpt>
      <trkpt lat="11.52634" lon="42.83751">
        <ele>668.25</ele>
        <time>2011-12-30T12:21:00Z</time>
      </trkpt>
      <trkpt lat="11.52633" lon="42.8375">
        <ele>669.22</ele>
        <time>2011-12-30T12:21:02Z</time>
      </trkpt>
      <trkpt lat="11.52632" lon="42.8375">
        <ele>670.18</ele>
        <time>2011-12-30T12:21:03Z</time>
      </trkpt>
      <trkpt lat="11.52629" lon="42.8375">
        <ele>666.33</ele>
        <time>2011-12-30T12:21:06Z</time>
      </trkpt>
      <trkpt lat="11.52627" lon="42.8375">
        <ele>670.66</ele>
        <time>2011-12-30T12:21:08Z</time>
      </trkpt>
      <trkpt lat="11.52626" lon="42.8375">
        <ele>663.93</ele>
        <time>2011-12-30T12:21:09Z</time>
      </trkpt>
      <trkpt lat="11.52625" lon="42.8375">
        <ele>669.22</ele>
        <time>2011-12-30T12:21:10Z</time>
      </trkpt>
      <trkpt lat="11.52623" lon="42.8375">
        <ele>663.45</ele>
        <time>2011-12-30T12:21:12Z</time>
      </trkpt>
      <trkpt lat="11.52622" lon="42.8375">
        <ele>671.62</ele>
        <time>2011-12-30T12:21:13Z</time>
      </trkpt>
      <trkpt lat="11.52617" lon="42.83751">
        <ele>665.85</ele>
        <time>2011-12-30T12:21:18Z</time>
      </trkpt>
      <trkpt lat="11.52616" lon="42.83751">
        <ele>673.06</ele>
        <time>2011-12-30T12:21:19Z</time>
      </trkpt>
      <trkpt lat="11.52613" lon="42.8375">
        <ele>676.42</ele>
        <time>2011-12-30T12:21:22Z</time>
      </trkpt>
      <trkpt lat="11.52613" lon="42.8375">
        <ele>668.25</ele>
        <time>2011-12-30T12:21:23Z</time>
      </trkpt>
      <trkpt lat="11.52612" lon="42.83749">
        <ele>674.02</ele>
        <time>2011-12-30T12:21:24Z</time>
      </trkpt>
      <trkpt lat="11.52612" lon="42.83749">
        <ele>670.18</ele>
        <time>2011-12-30T12:21:25Z</time>
      </trkpt>
      <trkpt lat="11.52612" lon="42.83749">
        <ele>674.02</ele>
        <time>2011-12-30T12:21:26Z</time>
      </trkpt>
      <trkpt lat="11.52611" lon="42.83748">
        <ele>669.7</ele>
        <time>2011-12-30T12:21:28Z</time>
      </trkpt>
      <trkpt lat="11.52609" lon="42.83747">
        <ele>665.37</ele>
        <time>2011-12-30T12:21:30Z</time>
      </trkpt>
      <trkpt lat="11.52609" lon="42.83747">
        <ele>672.58</ele>
        <time>2011-12-30T12:21:31Z</time>
      </trkpt>
      <trkpt lat="11.52608" lon="42.83746">
        <ele>675.94</ele>
        <time>2011-12-30T12:21:33Z</time>
      </trkpt>
      <trkpt lat="11.52608" lon="42.83746">
        <ele>673.54</ele>
        <time>2011-12-30T12:21:34Z</time>
      </trkpt>
      <trkpt lat="11.52607" lon="42.83745">
        <ele>668.73</ele>
        <time>2011-12-30T12:21:36Z</time>
      </trkpt>
      <trkpt lat="11.52607" lon="42.83744">
        <ele>671.62</ele>
        <time>2011-12-30T12:21:37Z</time>
      </trkpt>
      <trkpt lat="11.52607" lon="42.83744">
        <ele>676.91</ele>
        <time>2011-12-30T12:21:38Z</time>
      </trkpt>
      <trkpt lat="11.52606" lon="42.83743">
        <ele>673.06</ele>
        <time>2011-12-30T12:21:39Z</time>
      </trkpt>
      <trkpt lat="11.52604" lon="42.83742">
        <ele>667.29</ele>
        <time>2011-12-30T12:21:43Z</time>
      </trkpt>
      <trkpt lat="11.52604" lon="42.83742">
        <ele>675.46</ele>
        <time>2011-12-30T12:21:44Z</time>
      </trkpt>
      <trkpt lat="11.52604" lon="42.83741">
        <ele>679.79</ele>
        <time>2011-12-30T12:21:45Z</time>
      </trkpt>
      <trkpt lat="11.52604" lon="42.83741">
        <ele>671.62</ele>
        <time>2011-12-30T12:21:46Z</time>
      </trkpt>
      <trkpt lat="11.52604" lon="42.83741">
        <ele>676.42</ele>
        <time>2011-12-30T12:21:47Z</time>
      </trkpt>
      <trkpt lat="11.52601" lon="42.83739">
        <ele>672.58</ele>
        <time>2011-12-30T12:21:54Z</time>
      </trkpt>
      <trkpt lat="11.52601" lon="42.83739">
        <ele>677.39</ele>
        <time>2011-12-30T12:21:55Z</time>
      </trkpt>
      <trkpt lat="11.526" lon="42.83738">
        <ele>673.06</ele>
        <time>2011-12-30T12:21:56Z</time>
      </trkpt>
      <trkpt lat="11.52599" lon="42.83738">
        <ele>677.39</ele>
        <time>2011-12-30T12:21:57Z</time>
      </trkpt>
      <trkpt lat="11.52599" lon="42.83738">
        <ele>666.33</ele>
        <time>2011-12-30T12:21:58Z</time>
      </trkpt>
      <trkpt lat="11.52598" lon="42.83738">
        <ele>681.71</ele>
        <time>2011-12-30T12:21:59Z</time>
      </trkpt>
      <trkpt lat="11.52598" lon="42.83739">
        <ele>675.46</ele>
        <time>2011-12-30T12:22:00Z</time>
      </trkpt>
      <trkpt lat="11.52597" lon="42.8374">
        <ele>672.58</ele>
        <time>2011-12-30T12:22:02Z</time>
      </trkpt>
      <trkpt lat="11.52597" lon="42.83741">
        <ele>678.83</ele>
        <time>2011-12-30T12:22:03Z</time>
      </trkpt>
      <trkpt lat="11.52596" lon="42.83742">
        <ele>682.19</ele>
        <time>2011-12-30T12:22:08Z</time>
      </trkpt>
      <trkpt lat="11.52596" lon="42.83743">
        <ele>678.83</ele>
        <time>2011-12-30T12:22:09Z</time>
      </trkpt>
      <trkpt lat="11.52594" lon="42.83745">
        <ele>676.91</ele>
        <time>2011-12-30T12:22:14Z</time>
      </trkpt>
      <trkpt lat="11.52593" lon="42.83745">
        <ele>680.75</ele>
        <time>2011-12-30T12:22:15Z</time>
      </trkpt>
      <trkpt lat="11.52592" lon="42.83745">
        <ele>685.56</ele>
        <time>2011-12-30T12:22:17Z</time>
      </trkpt>
      <trkpt lat="11.52592" lon="42.83745">
        <ele>682.19</ele>
        <time>2011-12-30T12:22:18Z</time>
      </trkpt>
      <trkpt lat="11.52592" lon="42.83745">
        <ele>685.56</ele>
        <time>2011-12-30T12:22:19Z</time>
      </trkpt>
      <trkpt lat="11.52592" lon="42.83745">
        <ele>680.27</ele>
        <time>2011-12-30T12:22:20Z</time>
      </trkpt>
      <trkpt lat="11.5259" lon="42.83743">
        <ele>679.31</ele>
        <time>2011-12-30T12:22:25Z</time>
      </trkpt>
      <trkpt lat="11.52589" lon="42.8374">
        <ele>685.56</ele>
        <time>2011-12-30T12:22:31Z</time>
      </trkpt>
      <trkpt lat="11.52589" lon="42.83739">
        <ele>681.71</ele>
        <time>2011-12-30T12:22:32Z</time>
      </trkpt>
      <trkpt lat="11.52589" lon="42.83739">
        <ele>694.21</ele>
        <time>2011-12-30T12:22:35Z</time>
      </trkpt>
      <trkpt lat="11.52589" lon="42.83739">
        <ele>687.48</ele>
        <time>2011-12-30T12:22:36Z</time>
      </trkpt>
      <trkpt lat="11.52589" lon="42.83738">
        <ele>679.79</ele>
        <time>2011-12-30T12:22:38Z</time>
      </trkpt>
      <trkpt lat="11.52588" lon="42.83737">
        <ele>680.75</ele>
        <time>2011-12-30T12:22:39Z</time>
      </trkpt>
      <trkpt lat="11.52588" lon="42.83736">
        <ele>687</ele>
        <time>2011-12-30T12:22:40Z</time>
      </trkpt>
      <trkpt lat="11.52588" lon="42.83736">
        <ele>683.15</ele>
        <time>2011-12-30T12:22:41Z</time>
      </trkpt>
      <trkpt lat="11.52588" lon="42.83734">
        <ele>678.35</ele>
        <time>2011-12-30T12:22:43Z</time>
      </trkpt>
      <trkpt lat="11.52588" lon="42.83733">
        <ele>684.12</ele>
        <time>2011-12-30T12:22:44Z</time>
      </trkpt>
      <trkpt lat="11.52587" lon="42.83731">
        <ele>677.39</ele>
        <time>2011-12-30T12:22:46Z</time>
      </trkpt>
      <trkpt lat="11.52587" lon="42.8373">
        <ele>687</ele>
        <time>2011-12-30T12:22:47Z</time>
      </trkpt>
      <trkpt lat="11.52585" lon="42.83728">
        <ele>680.27</ele>
        <time>2011-12-30T12:22:51Z</time>
      </trkpt>
      <trkpt lat="11.52585" lon="42.83728">
        <ele>685.08</ele>
        <time>2011-12-30T12:22:52Z</time>
      </trkpt>
      <trkpt lat="11.52585" lon="42.83727">
        <ele>678.83</ele>
        <time>2011-12-30T12:22:53Z</time>
      </trkpt>
      <trkpt lat="11.52583" lon="42.83727">
        <ele>681.23</ele>
        <time>2011-12-30T12:22:55Z</time>
      </trkpt>
      <trkpt lat="11.52583" lon="42.83727">
        <ele>686.04</ele>
        <time>2011-12-30T12:22:56Z</time>
      </trkpt>
      <trkpt lat="11.52582" lon="42.83728">
        <ele>690.84</ele>
        <time>2011-12-30T12:22:59Z</time>
      </trkpt>
      <trkpt lat="11.52582" lon="42.83728">
        <ele>687</ele>
        <time>2011-12-30T12:23:00Z</time>
      </trkpt>
      <trkpt lat="11.52582" lon="42.83729">
        <ele>690.84</ele>
        <time>2011-12-30T12:23:03Z</time>
      </trkpt>
      <trkpt lat="11.52582" lon="42.83729">
        <ele>682.67</ele>
        <time>2011-12-30T12:23:04Z</time>
      </trkpt>
      <trkpt lat="11.52582" lon="42.83729">
        <ele>689.4</ele>
        <time>2011-12-30T12:23:05Z</time>
      </trkpt>
      <trkpt lat="11.5258" lon="42.8373">
        <ele>684.6</ele>
        <time>2011-12-30T12:23:08Z</time>
      </trkpt>
      <trkpt lat="11.5258" lon="42.8373">
        <ele>689.4</ele>
        <time>2011-12-30T12:23:09Z</time>
      </trkpt>
      <trkpt lat="11.5258" lon="42.83731">
        <ele>684.6</ele>
        <time>2011-12-30T12:23:10Z</time>
      </trkpt>
      <trkpt lat="11.52579" lon="42.83731">
        <ele>686.04</ele>
        <time>2011-12-30T12:23:12Z</time>
      </trkpt>
      <trkpt lat="11.52578" lon="42.83731">
        <ele>689.4</ele>
        <time>2011-12-30T12:23:13Z</time>
      </trkpt>
      <trkpt lat="11.52577" lon="42.8373">
        <ele>694.21</ele>
        <time>2011-12-30T12:23:15Z</time>
      </trkpt>
      <trkpt lat="11.52576" lon="42.83729">
        <ele>692.29</ele>
        <time>2011-12-30T12:23:16Z</time>
      </trkpt>
      <trkpt lat="11.52574" lon="42.83728">
        <ele>689.88</ele>
        <time>2011-12-30T12:23:20Z</time>
      </trkpt>
      <trkpt lat="11.52572" lon="42.83727">
        <ele>694.21</ele>
        <time>2011-12-30T12:23:24Z</time>
      </trkpt>
      <trkpt lat="11.52572" lon="42.83727">
        <ele>693.25</ele>
        <time>2011-12-30T12:23:25Z</time>
      </trkpt>
      <trkpt lat="11.52569" lon="42.83727">
        <ele>689.4</ele>
        <time>2011-12-30T12:23:30Z</time>
      </trkpt>
      <trkpt lat="11.52568" lon="42.83727">
        <ele>694.69</ele>
        <time>2011-12-30T12:23:31Z</time>
      </trkpt>
      <trkpt lat="11.52562" lon="42.83723">
        <ele>695.17</ele>
        <time>2011-12-30T12:23:40Z</time>
      </trkpt>
      <trkpt lat="11.52556" lon="42.83722">
        <ele>694.21</ele>
        <time>2011-12-30T12:23:46Z</time>
      </trkpt>
      <trkpt lat="11.52555" lon="42.83722">
        <ele>689.88</ele>
        <time>2011-12-30T12:23:47Z</time>
      </trkpt>
      <trkpt lat="11.52552" lon="42.83721">
        <ele>693.25</ele>
        <time>2011-12-30T12:23:49Z</time>
      </trkpt>
      <trkpt lat="11.52551" lon="42.83721">
        <ele>692.77</ele>
        <time>2011-12-30T12:23:50Z</time>
      </trkpt>
      <trkpt lat="11.52546" lon="42.83718">
        <ele>695.65</ele>
        <time>2011-12-30T12:23:56Z</time>
      </trkpt>
      <trkpt lat="11.52546" lon="42.83718">
        <ele>689.4</ele>
        <time>2011-12-30T12:23:57Z</time>
      </trkpt>
      <trkpt lat="11.52545" lon="42.83718">
        <ele>693.73</ele>
        <time>2011-12-30T12:23:58Z</time>
      </trkpt>
      <trkpt lat="11.52544" lon="42.83717">
        <ele>697.09</ele>
        <time>2011-12-30T12:23:59Z</time>
      </trkpt>
      <trkpt lat="11.52544" lon="42.83717">
        <ele>693.73</ele>
        <time>2011-12-30T12:24:00Z</time>
      </trkpt>
      <trkpt lat="11.52542" lon="42.83716">
        <ele>687.96</ele>
        <time>2011-12-30T12:24:05Z</time>
      </trkpt>
      <trkpt lat="11.52541" lon="42.83716">
        <ele>692.29</ele>
        <time>2011-12-30T12:24:06Z</time>
      </trkpt>
      <trkpt lat="11.52536" lon="42.83715">
        <ele>694.69</ele>
        <time>2011-12-30T12:24:11Z</time>
      </trkpt>
      <trkpt lat="11.52535" lon="42.83715">
        <ele>704.3</ele>
        <time>2011-12-30T12:24:12Z</time>
      </trkpt>
      <trkpt lat="11.52534" lon="42.83715">
        <ele>699.02</ele>
        <time>2011-12-30T12:24:13Z</time>
      </trkpt>
      <trkpt lat="11.52532" lon="42.83714">
        <ele>692.77</ele>
        <time>2011-12-30T12:24:15Z</time>
      </trkpt>
      <trkpt lat="11.52532" lon="42.83713">
        <ele>693.25</ele>
        <time>2011-12-30T12:24:16Z</time>
      </trkpt>
      <trkpt lat="11.52531" lon="42.83713">
        <ele>697.57</ele>
        <time>2011-12-30T12:24:17Z</time>
      </trkpt>
      <trkpt lat="11.5253" lon="42.83713">
        <ele>689.88</ele>
        <time>2011-12-30T12:24:18Z</time>
      </trkpt>
      <trkpt lat="11.5253" lon="42.83712">
        <ele>695.65</ele>
        <time>2011-12-30T12:24:19Z</time>
      </trkpt>
      <trkpt lat="11.52528" lon="42.83711">
        <ele>695.17</ele>
        <time>2011-12-30T12:24:42Z</time>
      </trkpt>
      <trkpt lat="11.52528" lon="42.83711">
        <ele>695.17</ele>
        <time>2011-12-30T12:25:08Z</time>
      </trkpt>
      <trkpt lat="11.52528" lon="42.83711">
        <ele>696.61</ele>
        <time>2011-12-30T12:25:14Z</time>
      </trkpt>
    </trkseg>
  </trk>
</gpx>